<?xml version="1.0" encoding="UTF-8" standalone="no" ?>
<gpx xmlns="http://www.topografix.com/GPX/1/1" xmlns:xsi="http://www.w3.org/2001/XMLSchema-instance" xsi:schemaLocation="http://www.topografix.com/GPX/1/1 http://www.topografix.com/GPX/1/1/gpx.xsd" version="1.1" creator="VisuGPX - https://www.visugpx.com">
  <metadata>
    <name>Loudéac Cyclisme</name>
    <desc><![CDATA[Voie verte et forêt de Loudéac]]></desc>
  </metadata>
  <trk>
    <name><![CDATA[Loudéac Cyclisme]]></name>
    <trkseg>
      <trkpt lat="48.18338" lon="-2.7654">
        <ele>168.39999389648</ele>
        <time>2021-10-15T10:01:09.000Z</time>
      </trkpt>
      <trkpt lat="48.18335" lon="-2.76537">
        <ele>168.19999694824</ele>
        <time>2021-10-15T10:01:10.000Z</time>
      </trkpt>
      <trkpt lat="48.18333" lon="-2.76535">
        <ele>168</ele>
        <time>2021-10-15T10:01:11.000Z</time>
      </trkpt>
      <trkpt lat="48.18333" lon="-2.76535">
        <ele>168</ele>
        <time>2021-10-15T10:01:12.000Z</time>
      </trkpt>
      <trkpt lat="48.18333" lon="-2.76535">
        <ele>168</ele>
        <time>2021-10-15T10:01:13.000Z</time>
      </trkpt>
      <trkpt lat="48.18333" lon="-2.76536">
        <ele>168</ele>
        <time>2021-10-15T10:01:14.000Z</time>
      </trkpt>
      <trkpt lat="48.18333" lon="-2.76535">
        <ele>168</ele>
        <time>2021-10-15T10:01:15.000Z</time>
      </trkpt>
      <trkpt lat="48.18332" lon="-2.76534">
        <ele>168</ele>
        <time>2021-10-15T10:01:16.000Z</time>
      </trkpt>
      <trkpt lat="48.18332" lon="-2.76534">
        <ele>168</ele>
        <time>2021-10-15T10:01:17.000Z</time>
      </trkpt>
      <trkpt lat="48.18332" lon="-2.76534">
        <ele>168</ele>
        <time>2021-10-15T10:01:18.000Z</time>
      </trkpt>
      <trkpt lat="48.18332" lon="-2.76533">
        <ele>168</ele>
        <time>2021-10-15T10:01:19.000Z</time>
      </trkpt>
      <trkpt lat="48.18331" lon="-2.76529">
        <ele>167.80000305176</ele>
        <time>2021-10-15T10:01:20.000Z</time>
      </trkpt>
      <trkpt lat="48.1833" lon="-2.76528">
        <ele>167.80000305176</ele>
        <time>2021-10-15T10:01:21.000Z</time>
      </trkpt>
      <trkpt lat="48.18329" lon="-2.76528">
        <ele>167.80000305176</ele>
        <time>2021-10-15T10:01:22.000Z</time>
      </trkpt>
      <trkpt lat="48.18327" lon="-2.76528">
        <ele>168</ele>
        <time>2021-10-15T10:01:23.000Z</time>
      </trkpt>
      <trkpt lat="48.18325" lon="-2.76528">
        <ele>168</ele>
        <time>2021-10-15T10:01:24.000Z</time>
      </trkpt>
      <trkpt lat="48.18323" lon="-2.76528">
        <ele>168</ele>
        <time>2021-10-15T10:01:25.000Z</time>
      </trkpt>
      <trkpt lat="48.18321" lon="-2.76528">
        <ele>168.19999694824</ele>
        <time>2021-10-15T10:01:26.000Z</time>
      </trkpt>
      <trkpt lat="48.18318" lon="-2.76528">
        <ele>168.39999389648</ele>
        <time>2021-10-15T10:01:27.000Z</time>
      </trkpt>
      <trkpt lat="48.18316" lon="-2.76528">
        <ele>168.60000610352</ele>
        <time>2021-10-15T10:01:28.000Z</time>
      </trkpt>
      <trkpt lat="48.18313" lon="-2.76528">
        <ele>168.80000305176</ele>
        <time>2021-10-15T10:01:29.000Z</time>
      </trkpt>
      <trkpt lat="48.1831" lon="-2.76529">
        <ele>169</ele>
        <time>2021-10-15T10:01:30.000Z</time>
      </trkpt>
      <trkpt lat="48.18306" lon="-2.76529">
        <ele>169.39999389648</ele>
        <time>2021-10-15T10:01:31.000Z</time>
      </trkpt>
      <trkpt lat="48.18303" lon="-2.76529">
        <ele>169.60000610352</ele>
        <time>2021-10-15T10:01:32.000Z</time>
      </trkpt>
      <trkpt lat="48.18299" lon="-2.76529">
        <ele>169.60000610352</ele>
        <time>2021-10-15T10:01:33.000Z</time>
      </trkpt>
      <trkpt lat="48.18296" lon="-2.76529">
        <ele>169.80000305176</ele>
        <time>2021-10-15T10:01:34.000Z</time>
      </trkpt>
      <trkpt lat="48.18292" lon="-2.76529">
        <ele>170</ele>
        <time>2021-10-15T10:01:35.000Z</time>
      </trkpt>
      <trkpt lat="48.18288" lon="-2.76529">
        <ele>170</ele>
        <time>2021-10-15T10:01:36.000Z</time>
      </trkpt>
      <trkpt lat="48.18284" lon="-2.76529">
        <ele>170.19999694824</ele>
        <time>2021-10-15T10:01:37.000Z</time>
      </trkpt>
      <trkpt lat="48.18279" lon="-2.76529">
        <ele>170.39999389648</ele>
        <time>2021-10-15T10:01:38.000Z</time>
      </trkpt>
      <trkpt lat="48.18275" lon="-2.76529">
        <ele>170.60000610352</ele>
        <time>2021-10-15T10:01:39.000Z</time>
      </trkpt>
      <trkpt lat="48.18271" lon="-2.76529">
        <ele>170.80000305176</ele>
        <time>2021-10-15T10:01:40.000Z</time>
      </trkpt>
      <trkpt lat="48.18267" lon="-2.76529">
        <ele>171</ele>
        <time>2021-10-15T10:01:41.000Z</time>
      </trkpt>
      <trkpt lat="48.18263" lon="-2.76529">
        <ele>171</ele>
        <time>2021-10-15T10:01:42.000Z</time>
      </trkpt>
      <trkpt lat="48.18258" lon="-2.76528">
        <ele>171</ele>
        <time>2021-10-15T10:01:43.000Z</time>
      </trkpt>
      <trkpt lat="48.18254" lon="-2.76528">
        <ele>171</ele>
        <time>2021-10-15T10:01:44.000Z</time>
      </trkpt>
      <trkpt lat="48.18249" lon="-2.76527">
        <ele>171</ele>
        <time>2021-10-15T10:01:45.000Z</time>
      </trkpt>
      <trkpt lat="48.18245" lon="-2.76526">
        <ele>171</ele>
        <time>2021-10-15T10:01:46.000Z</time>
      </trkpt>
      <trkpt lat="48.1824" lon="-2.76525">
        <ele>171</ele>
        <time>2021-10-15T10:01:47.000Z</time>
      </trkpt>
      <trkpt lat="48.18236" lon="-2.76524">
        <ele>170.80000305176</ele>
        <time>2021-10-15T10:01:48.000Z</time>
      </trkpt>
      <trkpt lat="48.1823" lon="-2.76523">
        <ele>170.60000610352</ele>
        <time>2021-10-15T10:01:49.000Z</time>
      </trkpt>
      <trkpt lat="48.18225" lon="-2.76523">
        <ele>170.39999389648</ele>
        <time>2021-10-15T10:01:50.000Z</time>
      </trkpt>
      <trkpt lat="48.1822" lon="-2.76522">
        <ele>170.19999694824</ele>
        <time>2021-10-15T10:01:51.000Z</time>
      </trkpt>
      <trkpt lat="48.18215" lon="-2.76521">
        <ele>170</ele>
        <time>2021-10-15T10:01:52.000Z</time>
      </trkpt>
      <trkpt lat="48.1821" lon="-2.76519">
        <ele>169.60000610352</ele>
        <time>2021-10-15T10:01:53.000Z</time>
      </trkpt>
      <trkpt lat="48.18205" lon="-2.76518">
        <ele>169.19999694824</ele>
        <time>2021-10-15T10:01:54.000Z</time>
      </trkpt>
      <trkpt lat="48.182" lon="-2.76516">
        <ele>168.80000305176</ele>
        <time>2021-10-15T10:01:55.000Z</time>
      </trkpt>
      <trkpt lat="48.18196" lon="-2.76514">
        <ele>168.39999389648</ele>
        <time>2021-10-15T10:01:56.000Z</time>
      </trkpt>
      <trkpt lat="48.18191" lon="-2.76512">
        <ele>168.19999694824</ele>
        <time>2021-10-15T10:01:57.000Z</time>
      </trkpt>
      <trkpt lat="48.18187" lon="-2.7651">
        <ele>168</ele>
        <time>2021-10-15T10:01:58.000Z</time>
      </trkpt>
      <trkpt lat="48.18182" lon="-2.76508">
        <ele>167.80000305176</ele>
        <time>2021-10-15T10:01:59.000Z</time>
      </trkpt>
      <trkpt lat="48.18177" lon="-2.76506">
        <ele>167.39999389648</ele>
        <time>2021-10-15T10:02:00.000Z</time>
      </trkpt>
      <trkpt lat="48.18173" lon="-2.76504">
        <ele>167</ele>
        <time>2021-10-15T10:02:01.000Z</time>
      </trkpt>
      <trkpt lat="48.18168" lon="-2.76501">
        <ele>166.80000305176</ele>
        <time>2021-10-15T10:02:02.000Z</time>
      </trkpt>
      <trkpt lat="48.18164" lon="-2.76499">
        <ele>166.60000610352</ele>
        <time>2021-10-15T10:02:03.000Z</time>
      </trkpt>
      <trkpt lat="48.18159" lon="-2.76496">
        <ele>166.39999389648</ele>
        <time>2021-10-15T10:02:04.000Z</time>
      </trkpt>
      <trkpt lat="48.18154" lon="-2.76494">
        <ele>166.39999389648</ele>
        <time>2021-10-15T10:02:05.000Z</time>
      </trkpt>
      <trkpt lat="48.18149" lon="-2.76491">
        <ele>166.60000610352</ele>
        <time>2021-10-15T10:02:06.000Z</time>
      </trkpt>
      <trkpt lat="48.18144" lon="-2.76489">
        <ele>166.80000305176</ele>
        <time>2021-10-15T10:02:07.000Z</time>
      </trkpt>
      <trkpt lat="48.18139" lon="-2.76486">
        <ele>167.19999694824</ele>
        <time>2021-10-15T10:02:08.000Z</time>
      </trkpt>
      <trkpt lat="48.18134" lon="-2.76483">
        <ele>167.60000610352</ele>
        <time>2021-10-15T10:02:09.000Z</time>
      </trkpt>
      <trkpt lat="48.18129" lon="-2.76481">
        <ele>168</ele>
        <time>2021-10-15T10:02:10.000Z</time>
      </trkpt>
      <trkpt lat="48.18124" lon="-2.76478">
        <ele>168</ele>
        <time>2021-10-15T10:02:11.000Z</time>
      </trkpt>
      <trkpt lat="48.18118" lon="-2.76475">
        <ele>168.19999694824</ele>
        <time>2021-10-15T10:02:12.000Z</time>
      </trkpt>
      <trkpt lat="48.18113" lon="-2.76473">
        <ele>168.19999694824</ele>
        <time>2021-10-15T10:02:13.000Z</time>
      </trkpt>
      <trkpt lat="48.18107" lon="-2.7647">
        <ele>168.39999389648</ele>
        <time>2021-10-15T10:02:14.000Z</time>
      </trkpt>
      <trkpt lat="48.18102" lon="-2.76467">
        <ele>168.39999389648</ele>
        <time>2021-10-15T10:02:15.000Z</time>
      </trkpt>
      <trkpt lat="48.18097" lon="-2.76465">
        <ele>168.19999694824</ele>
        <time>2021-10-15T10:02:16.000Z</time>
      </trkpt>
      <trkpt lat="48.18091" lon="-2.76463">
        <ele>167.80000305176</ele>
        <time>2021-10-15T10:02:17.000Z</time>
      </trkpt>
      <trkpt lat="48.18086" lon="-2.76461">
        <ele>167.19999694824</ele>
        <time>2021-10-15T10:02:18.000Z</time>
      </trkpt>
      <trkpt lat="48.18081" lon="-2.76458">
        <ele>166.60000610352</ele>
        <time>2021-10-15T10:02:19.000Z</time>
      </trkpt>
      <trkpt lat="48.18076" lon="-2.76456">
        <ele>166.19999694824</ele>
        <time>2021-10-15T10:02:20.000Z</time>
      </trkpt>
      <trkpt lat="48.18072" lon="-2.76454">
        <ele>165.80000305176</ele>
        <time>2021-10-15T10:02:21.000Z</time>
      </trkpt>
      <trkpt lat="48.18069" lon="-2.76453">
        <ele>165.80000305176</ele>
        <time>2021-10-15T10:02:22.000Z</time>
      </trkpt>
      <trkpt lat="48.18067" lon="-2.76452">
        <ele>165.80000305176</ele>
        <time>2021-10-15T10:02:23.000Z</time>
      </trkpt>
      <trkpt lat="48.18065" lon="-2.76451">
        <ele>165.60000610352</ele>
        <time>2021-10-15T10:02:24.000Z</time>
      </trkpt>
      <trkpt lat="48.18064" lon="-2.76451">
        <ele>165.60000610352</ele>
        <time>2021-10-15T10:02:25.000Z</time>
      </trkpt>
      <trkpt lat="48.18063" lon="-2.76451">
        <ele>165.60000610352</ele>
        <time>2021-10-15T10:02:26.000Z</time>
      </trkpt>
      <trkpt lat="48.18062" lon="-2.76451">
        <ele>165.60000610352</ele>
        <time>2021-10-15T10:02:27.000Z</time>
      </trkpt>
      <trkpt lat="48.18062" lon="-2.76451">
        <ele>165.60000610352</ele>
        <time>2021-10-15T10:02:28.000Z</time>
      </trkpt>
      <trkpt lat="48.18062" lon="-2.76451">
        <ele>165.60000610352</ele>
        <time>2021-10-15T10:02:29.000Z</time>
      </trkpt>
      <trkpt lat="48.18062" lon="-2.76451">
        <ele>165.60000610352</ele>
        <time>2021-10-15T10:02:30.000Z</time>
      </trkpt>
      <trkpt lat="48.18063" lon="-2.76451">
        <ele>165.60000610352</ele>
        <time>2021-10-15T10:02:31.000Z</time>
      </trkpt>
      <trkpt lat="48.18063" lon="-2.76451">
        <ele>165.60000610352</ele>
        <time>2021-10-15T10:02:32.000Z</time>
      </trkpt>
      <trkpt lat="48.18063" lon="-2.76451">
        <ele>165.60000610352</ele>
        <time>2021-10-15T10:02:33.000Z</time>
      </trkpt>
      <trkpt lat="48.18062" lon="-2.76451">
        <ele>165.60000610352</ele>
        <time>2021-10-15T10:02:34.000Z</time>
      </trkpt>
      <trkpt lat="48.18061" lon="-2.7645">
        <ele>165.60000610352</ele>
        <time>2021-10-15T10:02:35.000Z</time>
      </trkpt>
      <trkpt lat="48.1806" lon="-2.76451">
        <ele>165.60000610352</ele>
        <time>2021-10-15T10:02:36.000Z</time>
      </trkpt>
      <trkpt lat="48.18058" lon="-2.76451">
        <ele>165.39999389648</ele>
        <time>2021-10-15T10:02:37.000Z</time>
      </trkpt>
      <trkpt lat="48.18055" lon="-2.7645">
        <ele>165.39999389648</ele>
        <time>2021-10-15T10:02:38.000Z</time>
      </trkpt>
      <trkpt lat="48.18052" lon="-2.76448">
        <ele>165.39999389648</ele>
        <time>2021-10-15T10:02:39.000Z</time>
      </trkpt>
      <trkpt lat="48.18048" lon="-2.76445">
        <ele>165</ele>
        <time>2021-10-15T10:02:40.000Z</time>
      </trkpt>
      <trkpt lat="48.18044" lon="-2.76442">
        <ele>165</ele>
        <time>2021-10-15T10:02:41.000Z</time>
      </trkpt>
      <trkpt lat="48.18041" lon="-2.76438">
        <ele>164.80000305176</ele>
        <time>2021-10-15T10:02:42.000Z</time>
      </trkpt>
      <trkpt lat="48.18037" lon="-2.76434">
        <ele>164.60000610352</ele>
        <time>2021-10-15T10:02:43.000Z</time>
      </trkpt>
      <trkpt lat="48.18034" lon="-2.7643">
        <ele>164.80000305176</ele>
        <time>2021-10-15T10:02:44.000Z</time>
      </trkpt>
      <trkpt lat="48.1803" lon="-2.76426">
        <ele>165</ele>
        <time>2021-10-15T10:02:45.000Z</time>
      </trkpt>
      <trkpt lat="48.18026" lon="-2.76422">
        <ele>165.19999694824</ele>
        <time>2021-10-15T10:02:46.000Z</time>
      </trkpt>
      <trkpt lat="48.18023" lon="-2.76418">
        <ele>165.39999389648</ele>
        <time>2021-10-15T10:02:47.000Z</time>
      </trkpt>
      <trkpt lat="48.18019" lon="-2.76414">
        <ele>165.60000610352</ele>
        <time>2021-10-15T10:02:48.000Z</time>
      </trkpt>
      <trkpt lat="48.18016" lon="-2.7641">
        <ele>166</ele>
        <time>2021-10-15T10:02:49.000Z</time>
      </trkpt>
      <trkpt lat="48.18012" lon="-2.76407">
        <ele>166.19999694824</ele>
        <time>2021-10-15T10:02:50.000Z</time>
      </trkpt>
      <trkpt lat="48.18009" lon="-2.76403">
        <ele>166.39999389648</ele>
        <time>2021-10-15T10:02:51.000Z</time>
      </trkpt>
      <trkpt lat="48.18006" lon="-2.76399">
        <ele>166.39999389648</ele>
        <time>2021-10-15T10:02:52.000Z</time>
      </trkpt>
      <trkpt lat="48.18002" lon="-2.76396">
        <ele>166.39999389648</ele>
        <time>2021-10-15T10:02:53.000Z</time>
      </trkpt>
      <trkpt lat="48.17999" lon="-2.76392">
        <ele>166.39999389648</ele>
        <time>2021-10-15T10:02:54.000Z</time>
      </trkpt>
      <trkpt lat="48.17996" lon="-2.76389">
        <ele>166.39999389648</ele>
        <time>2021-10-15T10:02:55.000Z</time>
      </trkpt>
      <trkpt lat="48.17993" lon="-2.76385">
        <ele>166.39999389648</ele>
        <time>2021-10-15T10:02:56.000Z</time>
      </trkpt>
      <trkpt lat="48.17989" lon="-2.76382">
        <ele>166.60000610352</ele>
        <time>2021-10-15T10:02:57.000Z</time>
      </trkpt>
      <trkpt lat="48.17986" lon="-2.76379">
        <ele>166.80000305176</ele>
        <time>2021-10-15T10:02:58.000Z</time>
      </trkpt>
      <trkpt lat="48.17983" lon="-2.76375">
        <ele>167</ele>
        <time>2021-10-15T10:02:59.000Z</time>
      </trkpt>
      <trkpt lat="48.1798" lon="-2.76372">
        <ele>167.19999694824</ele>
        <time>2021-10-15T10:03:00.000Z</time>
      </trkpt>
      <trkpt lat="48.17976" lon="-2.76369">
        <ele>167.60000610352</ele>
        <time>2021-10-15T10:03:01.000Z</time>
      </trkpt>
      <trkpt lat="48.17973" lon="-2.76365">
        <ele>167.80000305176</ele>
        <time>2021-10-15T10:03:02.000Z</time>
      </trkpt>
      <trkpt lat="48.1797" lon="-2.76362">
        <ele>168</ele>
        <time>2021-10-15T10:03:03.000Z</time>
      </trkpt>
      <trkpt lat="48.17967" lon="-2.76358">
        <ele>168.19999694824</ele>
        <time>2021-10-15T10:03:04.000Z</time>
      </trkpt>
      <trkpt lat="48.17963" lon="-2.76354">
        <ele>168.60000610352</ele>
        <time>2021-10-15T10:03:05.000Z</time>
      </trkpt>
      <trkpt lat="48.17959" lon="-2.7635">
        <ele>168.80000305176</ele>
        <time>2021-10-15T10:03:06.000Z</time>
      </trkpt>
      <trkpt lat="48.17955" lon="-2.76346">
        <ele>169.19999694824</ele>
        <time>2021-10-15T10:03:07.000Z</time>
      </trkpt>
      <trkpt lat="48.17952" lon="-2.76342">
        <ele>169.80000305176</ele>
        <time>2021-10-15T10:03:08.000Z</time>
      </trkpt>
      <trkpt lat="48.17948" lon="-2.76338">
        <ele>170.19999694824</ele>
        <time>2021-10-15T10:03:09.000Z</time>
      </trkpt>
      <trkpt lat="48.17944" lon="-2.76334">
        <ele>170.60000610352</ele>
        <time>2021-10-15T10:03:10.000Z</time>
      </trkpt>
      <trkpt lat="48.1794" lon="-2.7633">
        <ele>170.80000305176</ele>
        <time>2021-10-15T10:03:11.000Z</time>
      </trkpt>
      <trkpt lat="48.17937" lon="-2.76326">
        <ele>171</ele>
        <time>2021-10-15T10:03:12.000Z</time>
      </trkpt>
      <trkpt lat="48.17932" lon="-2.76322">
        <ele>170.80000305176</ele>
        <time>2021-10-15T10:03:13.000Z</time>
      </trkpt>
      <trkpt lat="48.17929" lon="-2.76318">
        <ele>170.80000305176</ele>
        <time>2021-10-15T10:03:14.000Z</time>
      </trkpt>
      <trkpt lat="48.17925" lon="-2.76314">
        <ele>171</ele>
        <time>2021-10-15T10:03:15.000Z</time>
      </trkpt>
      <trkpt lat="48.17921" lon="-2.7631">
        <ele>171</ele>
        <time>2021-10-15T10:03:16.000Z</time>
      </trkpt>
      <trkpt lat="48.17918" lon="-2.76306">
        <ele>171</ele>
        <time>2021-10-15T10:03:17.000Z</time>
      </trkpt>
      <trkpt lat="48.17914" lon="-2.76302">
        <ele>171</ele>
        <time>2021-10-15T10:03:18.000Z</time>
      </trkpt>
      <trkpt lat="48.1791" lon="-2.76298">
        <ele>171</ele>
        <time>2021-10-15T10:03:19.000Z</time>
      </trkpt>
      <trkpt lat="48.17906" lon="-2.76294">
        <ele>171</ele>
        <time>2021-10-15T10:03:20.000Z</time>
      </trkpt>
      <trkpt lat="48.17902" lon="-2.76289">
        <ele>170.80000305176</ele>
        <time>2021-10-15T10:03:21.000Z</time>
      </trkpt>
      <trkpt lat="48.17899" lon="-2.76285">
        <ele>170.60000610352</ele>
        <time>2021-10-15T10:03:22.000Z</time>
      </trkpt>
      <trkpt lat="48.17895" lon="-2.7628">
        <ele>170.39999389648</ele>
        <time>2021-10-15T10:03:24.000Z</time>
      </trkpt>
      <trkpt lat="48.17891" lon="-2.76275">
        <ele>170</ele>
        <time>2021-10-15T10:03:25.000Z</time>
      </trkpt>
      <trkpt lat="48.17887" lon="-2.7627">
        <ele>170</ele>
        <time>2021-10-15T10:03:26.000Z</time>
      </trkpt>
      <trkpt lat="48.17884" lon="-2.76266">
        <ele>170</ele>
        <time>2021-10-15T10:03:27.000Z</time>
      </trkpt>
      <trkpt lat="48.1788" lon="-2.76262">
        <ele>170</ele>
        <time>2021-10-15T10:03:28.000Z</time>
      </trkpt>
      <trkpt lat="48.17876" lon="-2.76258">
        <ele>170</ele>
        <time>2021-10-15T10:03:29.000Z</time>
      </trkpt>
      <trkpt lat="48.17872" lon="-2.76255">
        <ele>170</ele>
        <time>2021-10-15T10:03:30.000Z</time>
      </trkpt>
      <trkpt lat="48.17869" lon="-2.76251">
        <ele>169.80000305176</ele>
        <time>2021-10-15T10:03:31.000Z</time>
      </trkpt>
      <trkpt lat="48.17865" lon="-2.76248">
        <ele>169.60000610352</ele>
        <time>2021-10-15T10:03:32.000Z</time>
      </trkpt>
      <trkpt lat="48.17861" lon="-2.76244">
        <ele>169.60000610352</ele>
        <time>2021-10-15T10:03:33.000Z</time>
      </trkpt>
      <trkpt lat="48.17857" lon="-2.7624">
        <ele>169.39999389648</ele>
        <time>2021-10-15T10:03:34.000Z</time>
      </trkpt>
      <trkpt lat="48.17853" lon="-2.76235">
        <ele>169.19999694824</ele>
        <time>2021-10-15T10:03:35.000Z</time>
      </trkpt>
      <trkpt lat="48.17849" lon="-2.76231">
        <ele>169</ele>
        <time>2021-10-15T10:03:36.000Z</time>
      </trkpt>
      <trkpt lat="48.17845" lon="-2.76227">
        <ele>169</ele>
        <time>2021-10-15T10:03:37.000Z</time>
      </trkpt>
      <trkpt lat="48.1784" lon="-2.76222">
        <ele>169</ele>
        <time>2021-10-15T10:03:38.000Z</time>
      </trkpt>
      <trkpt lat="48.17836" lon="-2.76218">
        <ele>169</ele>
        <time>2021-10-15T10:03:39.000Z</time>
      </trkpt>
      <trkpt lat="48.17832" lon="-2.76214">
        <ele>169.19999694824</ele>
        <time>2021-10-15T10:03:40.000Z</time>
      </trkpt>
      <trkpt lat="48.17828" lon="-2.7621">
        <ele>169.60000610352</ele>
        <time>2021-10-15T10:03:41.000Z</time>
      </trkpt>
      <trkpt lat="48.17824" lon="-2.76206">
        <ele>169.80000305176</ele>
        <time>2021-10-15T10:03:42.000Z</time>
      </trkpt>
      <trkpt lat="48.17819" lon="-2.76202">
        <ele>169.80000305176</ele>
        <time>2021-10-15T10:03:43.000Z</time>
      </trkpt>
      <trkpt lat="48.17815" lon="-2.76198">
        <ele>169.60000610352</ele>
        <time>2021-10-15T10:03:44.000Z</time>
      </trkpt>
      <trkpt lat="48.1781" lon="-2.76195">
        <ele>169.39999389648</ele>
        <time>2021-10-15T10:03:45.000Z</time>
      </trkpt>
      <trkpt lat="48.17806" lon="-2.76191">
        <ele>169.39999389648</ele>
        <time>2021-10-15T10:03:46.000Z</time>
      </trkpt>
      <trkpt lat="48.17801" lon="-2.76187">
        <ele>169.60000610352</ele>
        <time>2021-10-15T10:03:47.000Z</time>
      </trkpt>
      <trkpt lat="48.17796" lon="-2.76183">
        <ele>169.60000610352</ele>
        <time>2021-10-15T10:03:48.000Z</time>
      </trkpt>
      <trkpt lat="48.17792" lon="-2.7618">
        <ele>169.80000305176</ele>
        <time>2021-10-15T10:03:49.000Z</time>
      </trkpt>
      <trkpt lat="48.17787" lon="-2.76176">
        <ele>169.60000610352</ele>
        <time>2021-10-15T10:03:50.000Z</time>
      </trkpt>
      <trkpt lat="48.17782" lon="-2.76173">
        <ele>169.60000610352</ele>
        <time>2021-10-15T10:03:51.000Z</time>
      </trkpt>
      <trkpt lat="48.17778" lon="-2.76169">
        <ele>169.39999389648</ele>
        <time>2021-10-15T10:03:52.000Z</time>
      </trkpt>
      <trkpt lat="48.17773" lon="-2.76166">
        <ele>169.19999694824</ele>
        <time>2021-10-15T10:03:53.000Z</time>
      </trkpt>
      <trkpt lat="48.17768" lon="-2.76162">
        <ele>169</ele>
        <time>2021-10-15T10:03:54.000Z</time>
      </trkpt>
      <trkpt lat="48.17763" lon="-2.76159">
        <ele>168.80000305176</ele>
        <time>2021-10-15T10:03:55.000Z</time>
      </trkpt>
      <trkpt lat="48.17758" lon="-2.76155">
        <ele>168.60000610352</ele>
        <time>2021-10-15T10:03:56.000Z</time>
      </trkpt>
      <trkpt lat="48.17752" lon="-2.76152">
        <ele>168.80000305176</ele>
        <time>2021-10-15T10:03:57.000Z</time>
      </trkpt>
      <trkpt lat="48.17747" lon="-2.76149">
        <ele>168.80000305176</ele>
        <time>2021-10-15T10:03:58.000Z</time>
      </trkpt>
      <trkpt lat="48.17742" lon="-2.76147">
        <ele>169</ele>
        <time>2021-10-15T10:03:59.000Z</time>
      </trkpt>
      <trkpt lat="48.17736" lon="-2.76143">
        <ele>168.80000305176</ele>
        <time>2021-10-15T10:04:00.000Z</time>
      </trkpt>
      <trkpt lat="48.17731" lon="-2.7614">
        <ele>168.60000610352</ele>
        <time>2021-10-15T10:04:01.000Z</time>
      </trkpt>
      <trkpt lat="48.17725" lon="-2.76136">
        <ele>168.39999389648</ele>
        <time>2021-10-15T10:04:02.000Z</time>
      </trkpt>
      <trkpt lat="48.1772" lon="-2.76133">
        <ele>168.39999389648</ele>
        <time>2021-10-15T10:04:03.000Z</time>
      </trkpt>
      <trkpt lat="48.17714" lon="-2.76129">
        <ele>168.60000610352</ele>
        <time>2021-10-15T10:04:04.000Z</time>
      </trkpt>
      <trkpt lat="48.17709" lon="-2.76126">
        <ele>168.80000305176</ele>
        <time>2021-10-15T10:04:05.000Z</time>
      </trkpt>
      <trkpt lat="48.17703" lon="-2.76123">
        <ele>168.80000305176</ele>
        <time>2021-10-15T10:04:06.000Z</time>
      </trkpt>
      <trkpt lat="48.17698" lon="-2.7612">
        <ele>169</ele>
        <time>2021-10-15T10:04:07.000Z</time>
      </trkpt>
      <trkpt lat="48.17693" lon="-2.76117">
        <ele>169</ele>
        <time>2021-10-15T10:04:08.000Z</time>
      </trkpt>
      <trkpt lat="48.17687" lon="-2.76114">
        <ele>169.19999694824</ele>
        <time>2021-10-15T10:04:09.000Z</time>
      </trkpt>
      <trkpt lat="48.17682" lon="-2.76112">
        <ele>169.39999389648</ele>
        <time>2021-10-15T10:04:10.000Z</time>
      </trkpt>
      <trkpt lat="48.17677" lon="-2.76109">
        <ele>169.39999389648</ele>
        <time>2021-10-15T10:04:11.000Z</time>
      </trkpt>
      <trkpt lat="48.17671" lon="-2.76106">
        <ele>169.39999389648</ele>
        <time>2021-10-15T10:04:12.000Z</time>
      </trkpt>
      <trkpt lat="48.17666" lon="-2.76103">
        <ele>169.39999389648</ele>
        <time>2021-10-15T10:04:13.000Z</time>
      </trkpt>
      <trkpt lat="48.17662" lon="-2.76101">
        <ele>169.39999389648</ele>
        <time>2021-10-15T10:04:14.000Z</time>
      </trkpt>
      <trkpt lat="48.17657" lon="-2.76098">
        <ele>169.39999389648</ele>
        <time>2021-10-15T10:04:15.000Z</time>
      </trkpt>
      <trkpt lat="48.17652" lon="-2.76096">
        <ele>169.39999389648</ele>
        <time>2021-10-15T10:04:16.000Z</time>
      </trkpt>
      <trkpt lat="48.17647" lon="-2.76093">
        <ele>169.19999694824</ele>
        <time>2021-10-15T10:04:17.000Z</time>
      </trkpt>
      <trkpt lat="48.17642" lon="-2.7609">
        <ele>168.80000305176</ele>
        <time>2021-10-15T10:04:18.000Z</time>
      </trkpt>
      <trkpt lat="48.17637" lon="-2.76088">
        <ele>168.60000610352</ele>
        <time>2021-10-15T10:04:19.000Z</time>
      </trkpt>
      <trkpt lat="48.17632" lon="-2.76085">
        <ele>168.39999389648</ele>
        <time>2021-10-15T10:04:20.000Z</time>
      </trkpt>
      <trkpt lat="48.17628" lon="-2.76082">
        <ele>168.19999694824</ele>
        <time>2021-10-15T10:04:21.000Z</time>
      </trkpt>
      <trkpt lat="48.17623" lon="-2.76079">
        <ele>168</ele>
        <time>2021-10-15T10:04:22.000Z</time>
      </trkpt>
      <trkpt lat="48.17619" lon="-2.76076">
        <ele>167.80000305176</ele>
        <time>2021-10-15T10:04:23.000Z</time>
      </trkpt>
      <trkpt lat="48.17615" lon="-2.76074">
        <ele>167.60000610352</ele>
        <time>2021-10-15T10:04:24.000Z</time>
      </trkpt>
      <trkpt lat="48.17611" lon="-2.76072">
        <ele>167.39999389648</ele>
        <time>2021-10-15T10:04:25.000Z</time>
      </trkpt>
      <trkpt lat="48.17608" lon="-2.7607">
        <ele>167.19999694824</ele>
        <time>2021-10-15T10:04:26.000Z</time>
      </trkpt>
      <trkpt lat="48.17604" lon="-2.76068">
        <ele>167</ele>
        <time>2021-10-15T10:04:27.000Z</time>
      </trkpt>
      <trkpt lat="48.17602" lon="-2.76066">
        <ele>166.80000305176</ele>
        <time>2021-10-15T10:04:28.000Z</time>
      </trkpt>
      <trkpt lat="48.17599" lon="-2.76065">
        <ele>167</ele>
        <time>2021-10-15T10:04:29.000Z</time>
      </trkpt>
      <trkpt lat="48.17598" lon="-2.76064">
        <ele>167</ele>
        <time>2021-10-15T10:04:30.000Z</time>
      </trkpt>
      <trkpt lat="48.17596" lon="-2.76064">
        <ele>167</ele>
        <time>2021-10-15T10:04:31.000Z</time>
      </trkpt>
      <trkpt lat="48.17594" lon="-2.76063">
        <ele>167</ele>
        <time>2021-10-15T10:04:32.000Z</time>
      </trkpt>
      <trkpt lat="48.17592" lon="-2.76063">
        <ele>167</ele>
        <time>2021-10-15T10:04:33.000Z</time>
      </trkpt>
      <trkpt lat="48.1759" lon="-2.76062">
        <ele>167</ele>
        <time>2021-10-15T10:04:34.000Z</time>
      </trkpt>
      <trkpt lat="48.17589" lon="-2.76062">
        <ele>167</ele>
        <time>2021-10-15T10:04:35.000Z</time>
      </trkpt>
      <trkpt lat="48.17587" lon="-2.76061">
        <ele>167</ele>
        <time>2021-10-15T10:04:36.000Z</time>
      </trkpt>
      <trkpt lat="48.17585" lon="-2.76059">
        <ele>167.19999694824</ele>
        <time>2021-10-15T10:04:37.000Z</time>
      </trkpt>
      <trkpt lat="48.17583" lon="-2.76057">
        <ele>167.19999694824</ele>
        <time>2021-10-15T10:04:38.000Z</time>
      </trkpt>
      <trkpt lat="48.1758" lon="-2.76055">
        <ele>167.19999694824</ele>
        <time>2021-10-15T10:04:39.000Z</time>
      </trkpt>
      <trkpt lat="48.17578" lon="-2.76052">
        <ele>167.39999389648</ele>
        <time>2021-10-15T10:04:40.000Z</time>
      </trkpt>
      <trkpt lat="48.17575" lon="-2.76049">
        <ele>167.60000610352</ele>
        <time>2021-10-15T10:04:41.000Z</time>
      </trkpt>
      <trkpt lat="48.17571" lon="-2.76045">
        <ele>167.60000610352</ele>
        <time>2021-10-15T10:04:42.000Z</time>
      </trkpt>
      <trkpt lat="48.17567" lon="-2.76042">
        <ele>167.39999389648</ele>
        <time>2021-10-15T10:04:43.000Z</time>
      </trkpt>
      <trkpt lat="48.17562" lon="-2.76039">
        <ele>167.39999389648</ele>
        <time>2021-10-15T10:04:44.000Z</time>
      </trkpt>
      <trkpt lat="48.17558" lon="-2.76036">
        <ele>167.39999389648</ele>
        <time>2021-10-15T10:04:45.000Z</time>
      </trkpt>
      <trkpt lat="48.17553" lon="-2.76032">
        <ele>167.19999694824</ele>
        <time>2021-10-15T10:04:46.000Z</time>
      </trkpt>
      <trkpt lat="48.17547" lon="-2.76028">
        <ele>167</ele>
        <time>2021-10-15T10:04:47.000Z</time>
      </trkpt>
      <trkpt lat="48.17542" lon="-2.76024">
        <ele>166.80000305176</ele>
        <time>2021-10-15T10:04:48.000Z</time>
      </trkpt>
      <trkpt lat="48.17536" lon="-2.7602">
        <ele>166.60000610352</ele>
        <time>2021-10-15T10:04:49.000Z</time>
      </trkpt>
      <trkpt lat="48.17531" lon="-2.76016">
        <ele>166.39999389648</ele>
        <time>2021-10-15T10:04:50.000Z</time>
      </trkpt>
      <trkpt lat="48.17525" lon="-2.76012">
        <ele>166.19999694824</ele>
        <time>2021-10-15T10:04:51.000Z</time>
      </trkpt>
      <trkpt lat="48.1752" lon="-2.76008">
        <ele>166</ele>
        <time>2021-10-15T10:04:52.000Z</time>
      </trkpt>
      <trkpt lat="48.17514" lon="-2.76003">
        <ele>165.60000610352</ele>
        <time>2021-10-15T10:04:53.000Z</time>
      </trkpt>
      <trkpt lat="48.17508" lon="-2.75999">
        <ele>165</ele>
        <time>2021-10-15T10:04:54.000Z</time>
      </trkpt>
      <trkpt lat="48.17503" lon="-2.75995">
        <ele>164.39999389648</ele>
        <time>2021-10-15T10:04:55.000Z</time>
      </trkpt>
      <trkpt lat="48.17497" lon="-2.75991">
        <ele>163.80000305176</ele>
        <time>2021-10-15T10:04:56.000Z</time>
      </trkpt>
      <trkpt lat="48.17491" lon="-2.75986">
        <ele>163.19999694824</ele>
        <time>2021-10-15T10:04:57.000Z</time>
      </trkpt>
      <trkpt lat="48.17485" lon="-2.75982">
        <ele>162.80000305176</ele>
        <time>2021-10-15T10:04:58.000Z</time>
      </trkpt>
      <trkpt lat="48.17479" lon="-2.75977">
        <ele>162.60000610352</ele>
        <time>2021-10-15T10:04:59.000Z</time>
      </trkpt>
      <trkpt lat="48.17473" lon="-2.75973">
        <ele>162.39999389648</ele>
        <time>2021-10-15T10:05:00.000Z</time>
      </trkpt>
      <trkpt lat="48.17467" lon="-2.75968">
        <ele>161.80000305176</ele>
        <time>2021-10-15T10:05:01.000Z</time>
      </trkpt>
      <trkpt lat="48.17461" lon="-2.75964">
        <ele>161.39999389648</ele>
        <time>2021-10-15T10:05:02.000Z</time>
      </trkpt>
      <trkpt lat="48.17455" lon="-2.75959">
        <ele>161</ele>
        <time>2021-10-15T10:05:03.000Z</time>
      </trkpt>
      <trkpt lat="48.1745" lon="-2.75954">
        <ele>161</ele>
        <time>2021-10-15T10:05:04.000Z</time>
      </trkpt>
      <trkpt lat="48.17444" lon="-2.7595">
        <ele>161</ele>
        <time>2021-10-15T10:05:05.000Z</time>
      </trkpt>
      <trkpt lat="48.17439" lon="-2.75945">
        <ele>160.80000305176</ele>
        <time>2021-10-15T10:05:06.000Z</time>
      </trkpt>
      <trkpt lat="48.17433" lon="-2.75941">
        <ele>160.60000610352</ele>
        <time>2021-10-15T10:05:07.000Z</time>
      </trkpt>
      <trkpt lat="48.17428" lon="-2.75936">
        <ele>160.19999694824</ele>
        <time>2021-10-15T10:05:08.000Z</time>
      </trkpt>
      <trkpt lat="48.17422" lon="-2.75931">
        <ele>160.19999694824</ele>
        <time>2021-10-15T10:05:09.000Z</time>
      </trkpt>
      <trkpt lat="48.17416" lon="-2.75927">
        <ele>160.60000610352</ele>
        <time>2021-10-15T10:05:10.000Z</time>
      </trkpt>
      <trkpt lat="48.17411" lon="-2.75922">
        <ele>160.80000305176</ele>
        <time>2021-10-15T10:05:11.000Z</time>
      </trkpt>
      <trkpt lat="48.17405" lon="-2.75917">
        <ele>160.60000610352</ele>
        <time>2021-10-15T10:05:12.000Z</time>
      </trkpt>
      <trkpt lat="48.174" lon="-2.75912">
        <ele>160</ele>
        <time>2021-10-15T10:05:13.000Z</time>
      </trkpt>
      <trkpt lat="48.17395" lon="-2.75907">
        <ele>159.60000610352</ele>
        <time>2021-10-15T10:05:14.000Z</time>
      </trkpt>
      <trkpt lat="48.17389" lon="-2.75902">
        <ele>159.39999389648</ele>
        <time>2021-10-15T10:05:15.000Z</time>
      </trkpt>
      <trkpt lat="48.17383" lon="-2.75897">
        <ele>159.19999694824</ele>
        <time>2021-10-15T10:05:16.000Z</time>
      </trkpt>
      <trkpt lat="48.17378" lon="-2.75892">
        <ele>158.80000305176</ele>
        <time>2021-10-15T10:05:17.000Z</time>
      </trkpt>
      <trkpt lat="48.17372" lon="-2.75887">
        <ele>158.60000610352</ele>
        <time>2021-10-15T10:05:18.000Z</time>
      </trkpt>
      <trkpt lat="48.17367" lon="-2.75882">
        <ele>158.39999389648</ele>
        <time>2021-10-15T10:05:19.000Z</time>
      </trkpt>
      <trkpt lat="48.17361" lon="-2.75876">
        <ele>158.60000610352</ele>
        <time>2021-10-15T10:05:20.000Z</time>
      </trkpt>
      <trkpt lat="48.17356" lon="-2.75871">
        <ele>158.80000305176</ele>
        <time>2021-10-15T10:05:21.000Z</time>
      </trkpt>
      <trkpt lat="48.17351" lon="-2.75865">
        <ele>159</ele>
        <time>2021-10-15T10:05:22.000Z</time>
      </trkpt>
      <trkpt lat="48.17346" lon="-2.7586">
        <ele>159.19999694824</ele>
        <time>2021-10-15T10:05:23.000Z</time>
      </trkpt>
      <trkpt lat="48.1734" lon="-2.75854">
        <ele>159.39999389648</ele>
        <time>2021-10-15T10:05:24.000Z</time>
      </trkpt>
      <trkpt lat="48.17335" lon="-2.75849">
        <ele>159.60000610352</ele>
        <time>2021-10-15T10:05:25.000Z</time>
      </trkpt>
      <trkpt lat="48.1733" lon="-2.75844">
        <ele>159.80000305176</ele>
        <time>2021-10-15T10:05:26.000Z</time>
      </trkpt>
      <trkpt lat="48.17325" lon="-2.75838">
        <ele>159.80000305176</ele>
        <time>2021-10-15T10:05:27.000Z</time>
      </trkpt>
      <trkpt lat="48.1732" lon="-2.75833">
        <ele>159.80000305176</ele>
        <time>2021-10-15T10:05:28.000Z</time>
      </trkpt>
      <trkpt lat="48.17314" lon="-2.75827">
        <ele>159.60000610352</ele>
        <time>2021-10-15T10:05:29.000Z</time>
      </trkpt>
      <trkpt lat="48.17309" lon="-2.75822">
        <ele>159.60000610352</ele>
        <time>2021-10-15T10:05:30.000Z</time>
      </trkpt>
      <trkpt lat="48.17305" lon="-2.75816">
        <ele>159.80000305176</ele>
        <time>2021-10-15T10:05:31.000Z</time>
      </trkpt>
      <trkpt lat="48.173" lon="-2.75811">
        <ele>159.80000305176</ele>
        <time>2021-10-15T10:05:32.000Z</time>
      </trkpt>
      <trkpt lat="48.17295" lon="-2.75805">
        <ele>159.80000305176</ele>
        <time>2021-10-15T10:05:33.000Z</time>
      </trkpt>
      <trkpt lat="48.1729" lon="-2.758">
        <ele>159.60000610352</ele>
        <time>2021-10-15T10:05:34.000Z</time>
      </trkpt>
      <trkpt lat="48.17285" lon="-2.75794">
        <ele>159.39999389648</ele>
        <time>2021-10-15T10:05:35.000Z</time>
      </trkpt>
      <trkpt lat="48.17281" lon="-2.75788">
        <ele>159.60000610352</ele>
        <time>2021-10-15T10:05:36.000Z</time>
      </trkpt>
      <trkpt lat="48.17276" lon="-2.75783">
        <ele>159.60000610352</ele>
        <time>2021-10-15T10:05:37.000Z</time>
      </trkpt>
      <trkpt lat="48.17271" lon="-2.75777">
        <ele>159.60000610352</ele>
        <time>2021-10-15T10:05:38.000Z</time>
      </trkpt>
      <trkpt lat="48.17266" lon="-2.75772">
        <ele>159.39999389648</ele>
        <time>2021-10-15T10:05:39.000Z</time>
      </trkpt>
      <trkpt lat="48.17261" lon="-2.75766">
        <ele>159</ele>
        <time>2021-10-15T10:05:40.000Z</time>
      </trkpt>
      <trkpt lat="48.17256" lon="-2.75761">
        <ele>158.60000610352</ele>
        <time>2021-10-15T10:05:41.000Z</time>
      </trkpt>
      <trkpt lat="48.17252" lon="-2.75755">
        <ele>158.19999694824</ele>
        <time>2021-10-15T10:05:42.000Z</time>
      </trkpt>
      <trkpt lat="48.17247" lon="-2.7575">
        <ele>157.60000610352</ele>
        <time>2021-10-15T10:05:43.000Z</time>
      </trkpt>
      <trkpt lat="48.17243" lon="-2.75744">
        <ele>157.19999694824</ele>
        <time>2021-10-15T10:05:44.000Z</time>
      </trkpt>
      <trkpt lat="48.17238" lon="-2.75739">
        <ele>156.60000610352</ele>
        <time>2021-10-15T10:05:45.000Z</time>
      </trkpt>
      <trkpt lat="48.17233" lon="-2.75733">
        <ele>156.19999694824</ele>
        <time>2021-10-15T10:05:46.000Z</time>
      </trkpt>
      <trkpt lat="48.17229" lon="-2.75726">
        <ele>156.39999389648</ele>
        <time>2021-10-15T10:05:47.000Z</time>
      </trkpt>
      <trkpt lat="48.17224" lon="-2.7572">
        <ele>156.60000610352</ele>
        <time>2021-10-15T10:05:48.000Z</time>
      </trkpt>
      <trkpt lat="48.17219" lon="-2.75714">
        <ele>156.39999389648</ele>
        <time>2021-10-15T10:05:49.000Z</time>
      </trkpt>
      <trkpt lat="48.17214" lon="-2.75707">
        <ele>156.19999694824</ele>
        <time>2021-10-15T10:05:50.000Z</time>
      </trkpt>
      <trkpt lat="48.1721" lon="-2.757">
        <ele>156</ele>
        <time>2021-10-15T10:05:51.000Z</time>
      </trkpt>
      <trkpt lat="48.17205" lon="-2.75693">
        <ele>156</ele>
        <time>2021-10-15T10:05:52.000Z</time>
      </trkpt>
      <trkpt lat="48.172" lon="-2.75685">
        <ele>156</ele>
        <time>2021-10-15T10:05:53.000Z</time>
      </trkpt>
      <trkpt lat="48.17195" lon="-2.75678">
        <ele>156</ele>
        <time>2021-10-15T10:05:54.000Z</time>
      </trkpt>
      <trkpt lat="48.1719" lon="-2.75671">
        <ele>156</ele>
        <time>2021-10-15T10:05:55.000Z</time>
      </trkpt>
      <trkpt lat="48.17185" lon="-2.75664">
        <ele>156</ele>
        <time>2021-10-15T10:05:56.000Z</time>
      </trkpt>
      <trkpt lat="48.1718" lon="-2.75657">
        <ele>156</ele>
        <time>2021-10-15T10:05:57.000Z</time>
      </trkpt>
      <trkpt lat="48.17176" lon="-2.75649">
        <ele>156</ele>
        <time>2021-10-15T10:05:58.000Z</time>
      </trkpt>
      <trkpt lat="48.17171" lon="-2.75641">
        <ele>156</ele>
        <time>2021-10-15T10:05:59.000Z</time>
      </trkpt>
      <trkpt lat="48.17166" lon="-2.75634">
        <ele>155.80000305176</ele>
        <time>2021-10-15T10:06:00.000Z</time>
      </trkpt>
      <trkpt lat="48.17161" lon="-2.75627">
        <ele>155.39999389648</ele>
        <time>2021-10-15T10:06:01.000Z</time>
      </trkpt>
      <trkpt lat="48.17156" lon="-2.75619">
        <ele>155</ele>
        <time>2021-10-15T10:06:02.000Z</time>
      </trkpt>
      <trkpt lat="48.17151" lon="-2.75612">
        <ele>154.80000305176</ele>
        <time>2021-10-15T10:06:03.000Z</time>
      </trkpt>
      <trkpt lat="48.17146" lon="-2.75605">
        <ele>154.60000610352</ele>
        <time>2021-10-15T10:06:04.000Z</time>
      </trkpt>
      <trkpt lat="48.17141" lon="-2.75599">
        <ele>154.39999389648</ele>
        <time>2021-10-15T10:06:05.000Z</time>
      </trkpt>
      <trkpt lat="48.17137" lon="-2.75592">
        <ele>154.19999694824</ele>
        <time>2021-10-15T10:06:06.000Z</time>
      </trkpt>
      <trkpt lat="48.17132" lon="-2.75586">
        <ele>154</ele>
        <time>2021-10-15T10:06:07.000Z</time>
      </trkpt>
      <trkpt lat="48.17128" lon="-2.7558">
        <ele>153.60000610352</ele>
        <time>2021-10-15T10:06:08.000Z</time>
      </trkpt>
      <trkpt lat="48.17123" lon="-2.75574">
        <ele>153.19999694824</ele>
        <time>2021-10-15T10:06:09.000Z</time>
      </trkpt>
      <trkpt lat="48.17119" lon="-2.75568">
        <ele>153</ele>
        <time>2021-10-15T10:06:10.000Z</time>
      </trkpt>
      <trkpt lat="48.17116" lon="-2.75562">
        <ele>153</ele>
        <time>2021-10-15T10:06:11.000Z</time>
      </trkpt>
      <trkpt lat="48.17112" lon="-2.75557">
        <ele>153</ele>
        <time>2021-10-15T10:06:12.000Z</time>
      </trkpt>
      <trkpt lat="48.17108" lon="-2.75551">
        <ele>153</ele>
        <time>2021-10-15T10:06:13.000Z</time>
      </trkpt>
      <trkpt lat="48.17104" lon="-2.75546">
        <ele>153</ele>
        <time>2021-10-15T10:06:14.000Z</time>
      </trkpt>
      <trkpt lat="48.17101" lon="-2.75541">
        <ele>153</ele>
        <time>2021-10-15T10:06:15.000Z</time>
      </trkpt>
      <trkpt lat="48.17097" lon="-2.75537">
        <ele>153</ele>
        <time>2021-10-15T10:06:16.000Z</time>
      </trkpt>
      <trkpt lat="48.17094" lon="-2.75533">
        <ele>153</ele>
        <time>2021-10-15T10:06:17.000Z</time>
      </trkpt>
      <trkpt lat="48.1709" lon="-2.7553">
        <ele>153</ele>
        <time>2021-10-15T10:06:18.000Z</time>
      </trkpt>
      <trkpt lat="48.17087" lon="-2.75526">
        <ele>153</ele>
        <time>2021-10-15T10:06:19.000Z</time>
      </trkpt>
      <trkpt lat="48.17084" lon="-2.75523">
        <ele>153</ele>
        <time>2021-10-15T10:06:20.000Z</time>
      </trkpt>
      <trkpt lat="48.17081" lon="-2.7552">
        <ele>153.19999694824</ele>
        <time>2021-10-15T10:06:21.000Z</time>
      </trkpt>
      <trkpt lat="48.17078" lon="-2.75518">
        <ele>153.39999389648</ele>
        <time>2021-10-15T10:06:22.000Z</time>
      </trkpt>
      <trkpt lat="48.17075" lon="-2.75516">
        <ele>153.60000610352</ele>
        <time>2021-10-15T10:06:23.000Z</time>
      </trkpt>
      <trkpt lat="48.17073" lon="-2.75513">
        <ele>153.80000305176</ele>
        <time>2021-10-15T10:06:24.000Z</time>
      </trkpt>
      <trkpt lat="48.1707" lon="-2.75511">
        <ele>153.80000305176</ele>
        <time>2021-10-15T10:06:25.000Z</time>
      </trkpt>
      <trkpt lat="48.17068" lon="-2.75509">
        <ele>153.80000305176</ele>
        <time>2021-10-15T10:06:26.000Z</time>
      </trkpt>
      <trkpt lat="48.17065" lon="-2.75506">
        <ele>153.60000610352</ele>
        <time>2021-10-15T10:06:27.000Z</time>
      </trkpt>
      <trkpt lat="48.17064" lon="-2.75502">
        <ele>153.60000610352</ele>
        <time>2021-10-15T10:06:28.000Z</time>
      </trkpt>
      <trkpt lat="48.17063" lon="-2.75498">
        <ele>153.60000610352</ele>
        <time>2021-10-15T10:06:29.000Z</time>
      </trkpt>
      <trkpt lat="48.17062" lon="-2.75493">
        <ele>153.60000610352</ele>
        <time>2021-10-15T10:06:30.000Z</time>
      </trkpt>
      <trkpt lat="48.17063" lon="-2.75488">
        <ele>153.80000305176</ele>
        <time>2021-10-15T10:06:31.000Z</time>
      </trkpt>
      <trkpt lat="48.17063" lon="-2.75483">
        <ele>154.19999694824</ele>
        <time>2021-10-15T10:06:32.000Z</time>
      </trkpt>
      <trkpt lat="48.17064" lon="-2.75477">
        <ele>154.39999389648</ele>
        <time>2021-10-15T10:06:33.000Z</time>
      </trkpt>
      <trkpt lat="48.17066" lon="-2.75472">
        <ele>154.60000610352</ele>
        <time>2021-10-15T10:06:34.000Z</time>
      </trkpt>
      <trkpt lat="48.17067" lon="-2.75466">
        <ele>154.80000305176</ele>
        <time>2021-10-15T10:06:35.000Z</time>
      </trkpt>
      <trkpt lat="48.17068" lon="-2.75461">
        <ele>154.80000305176</ele>
        <time>2021-10-15T10:06:36.000Z</time>
      </trkpt>
      <trkpt lat="48.17069" lon="-2.75455">
        <ele>155</ele>
        <time>2021-10-15T10:06:37.000Z</time>
      </trkpt>
      <trkpt lat="48.17071" lon="-2.7545">
        <ele>155.19999694824</ele>
        <time>2021-10-15T10:06:38.000Z</time>
      </trkpt>
      <trkpt lat="48.17071" lon="-2.75445">
        <ele>155.39999389648</ele>
        <time>2021-10-15T10:06:39.000Z</time>
      </trkpt>
      <trkpt lat="48.17072" lon="-2.75441">
        <ele>155.39999389648</ele>
        <time>2021-10-15T10:06:40.000Z</time>
      </trkpt>
      <trkpt lat="48.17072" lon="-2.75438">
        <ele>155.60000610352</ele>
        <time>2021-10-15T10:06:41.000Z</time>
      </trkpt>
      <trkpt lat="48.17072" lon="-2.75435">
        <ele>155.60000610352</ele>
        <time>2021-10-15T10:06:42.000Z</time>
      </trkpt>
      <trkpt lat="48.17073" lon="-2.75434">
        <ele>155.60000610352</ele>
        <time>2021-10-15T10:06:43.000Z</time>
      </trkpt>
      <trkpt lat="48.17073" lon="-2.75434">
        <ele>155.60000610352</ele>
        <time>2021-10-15T10:06:44.000Z</time>
      </trkpt>
      <trkpt lat="48.17073" lon="-2.75434">
        <ele>155.60000610352</ele>
        <time>2021-10-15T10:06:45.000Z</time>
      </trkpt>
      <trkpt lat="48.17073" lon="-2.75434">
        <ele>155.60000610352</ele>
        <time>2021-10-15T10:06:46.000Z</time>
      </trkpt>
      <trkpt lat="48.17072" lon="-2.75434">
        <ele>155.80000305176</ele>
        <time>2021-10-15T10:06:47.000Z</time>
      </trkpt>
      <trkpt lat="48.17073" lon="-2.75434">
        <ele>155.80000305176</ele>
        <time>2021-10-15T10:06:48.000Z</time>
      </trkpt>
      <trkpt lat="48.17073" lon="-2.75434">
        <ele>155.80000305176</ele>
        <time>2021-10-15T10:06:49.000Z</time>
      </trkpt>
      <trkpt lat="48.17073" lon="-2.75434">
        <ele>155.80000305176</ele>
        <time>2021-10-15T10:06:50.000Z</time>
      </trkpt>
      <trkpt lat="48.17073" lon="-2.75434">
        <ele>155.80000305176</ele>
        <time>2021-10-15T10:06:51.000Z</time>
      </trkpt>
      <trkpt lat="48.17073" lon="-2.75434">
        <ele>155.80000305176</ele>
        <time>2021-10-15T10:06:52.000Z</time>
      </trkpt>
      <trkpt lat="48.17073" lon="-2.75434">
        <ele>155.80000305176</ele>
        <time>2021-10-15T10:06:53.000Z</time>
      </trkpt>
      <trkpt lat="48.17073" lon="-2.75434">
        <ele>155.80000305176</ele>
        <time>2021-10-15T10:06:54.000Z</time>
      </trkpt>
      <trkpt lat="48.17073" lon="-2.75434">
        <ele>155.80000305176</ele>
        <time>2021-10-15T10:06:55.000Z</time>
      </trkpt>
      <trkpt lat="48.17073" lon="-2.75434">
        <ele>155.80000305176</ele>
        <time>2021-10-15T10:06:56.000Z</time>
      </trkpt>
      <trkpt lat="48.17073" lon="-2.75434">
        <ele>155.80000305176</ele>
        <time>2021-10-15T10:06:57.000Z</time>
      </trkpt>
      <trkpt lat="48.17072" lon="-2.75434">
        <ele>155.80000305176</ele>
        <time>2021-10-15T10:06:58.000Z</time>
      </trkpt>
      <trkpt lat="48.17072" lon="-2.75434">
        <ele>155.80000305176</ele>
        <time>2021-10-15T10:06:59.000Z</time>
      </trkpt>
      <trkpt lat="48.17072" lon="-2.75434">
        <ele>155.80000305176</ele>
        <time>2021-10-15T10:07:00.000Z</time>
      </trkpt>
      <trkpt lat="48.17073" lon="-2.75433">
        <ele>155.80000305176</ele>
        <time>2021-10-15T10:07:01.000Z</time>
      </trkpt>
      <trkpt lat="48.17074" lon="-2.7543">
        <ele>155.80000305176</ele>
        <time>2021-10-15T10:07:02.000Z</time>
      </trkpt>
      <trkpt lat="48.17075" lon="-2.75428">
        <ele>155.80000305176</ele>
        <time>2021-10-15T10:07:03.000Z</time>
      </trkpt>
      <trkpt lat="48.17077" lon="-2.75425">
        <ele>155.80000305176</ele>
        <time>2021-10-15T10:07:04.000Z</time>
      </trkpt>
      <trkpt lat="48.17079" lon="-2.75421">
        <ele>156</ele>
        <time>2021-10-15T10:07:05.000Z</time>
      </trkpt>
      <trkpt lat="48.17079" lon="-2.75418">
        <ele>156</ele>
        <time>2021-10-15T10:07:06.000Z</time>
      </trkpt>
      <trkpt lat="48.17079" lon="-2.75414">
        <ele>156.19999694824</ele>
        <time>2021-10-15T10:07:07.000Z</time>
      </trkpt>
      <trkpt lat="48.17078" lon="-2.75411">
        <ele>156.39999389648</ele>
        <time>2021-10-15T10:07:08.000Z</time>
      </trkpt>
      <trkpt lat="48.17077" lon="-2.75408">
        <ele>156.39999389648</ele>
        <time>2021-10-15T10:07:09.000Z</time>
      </trkpt>
      <trkpt lat="48.17076" lon="-2.75404">
        <ele>156.60000610352</ele>
        <time>2021-10-15T10:07:10.000Z</time>
      </trkpt>
      <trkpt lat="48.17076" lon="-2.754">
        <ele>156.80000305176</ele>
        <time>2021-10-15T10:07:11.000Z</time>
      </trkpt>
      <trkpt lat="48.17076" lon="-2.75396">
        <ele>157</ele>
        <time>2021-10-15T10:07:12.000Z</time>
      </trkpt>
      <trkpt lat="48.17076" lon="-2.75392">
        <ele>157</ele>
        <time>2021-10-15T10:07:13.000Z</time>
      </trkpt>
      <trkpt lat="48.17076" lon="-2.75387">
        <ele>157.19999694824</ele>
        <time>2021-10-15T10:07:14.000Z</time>
      </trkpt>
      <trkpt lat="48.17076" lon="-2.75382">
        <ele>157.39999389648</ele>
        <time>2021-10-15T10:07:15.000Z</time>
      </trkpt>
      <trkpt lat="48.17077" lon="-2.75377">
        <ele>157.39999389648</ele>
        <time>2021-10-15T10:07:16.000Z</time>
      </trkpt>
      <trkpt lat="48.17077" lon="-2.75372">
        <ele>157.60000610352</ele>
        <time>2021-10-15T10:07:17.000Z</time>
      </trkpt>
      <trkpt lat="48.17077" lon="-2.75367">
        <ele>157.80000305176</ele>
        <time>2021-10-15T10:07:18.000Z</time>
      </trkpt>
      <trkpt lat="48.17078" lon="-2.75362">
        <ele>157.80000305176</ele>
        <time>2021-10-15T10:07:19.000Z</time>
      </trkpt>
      <trkpt lat="48.17078" lon="-2.75357">
        <ele>157.80000305176</ele>
        <time>2021-10-15T10:07:20.000Z</time>
      </trkpt>
      <trkpt lat="48.17078" lon="-2.75352">
        <ele>157.80000305176</ele>
        <time>2021-10-15T10:07:21.000Z</time>
      </trkpt>
      <trkpt lat="48.17078" lon="-2.75346">
        <ele>157.80000305176</ele>
        <time>2021-10-15T10:07:22.000Z</time>
      </trkpt>
      <trkpt lat="48.17078" lon="-2.7534">
        <ele>157.80000305176</ele>
        <time>2021-10-15T10:07:23.000Z</time>
      </trkpt>
      <trkpt lat="48.17079" lon="-2.75335">
        <ele>157.60000610352</ele>
        <time>2021-10-15T10:07:24.000Z</time>
      </trkpt>
      <trkpt lat="48.17079" lon="-2.75331">
        <ele>157.60000610352</ele>
        <time>2021-10-15T10:07:25.000Z</time>
      </trkpt>
      <trkpt lat="48.1708" lon="-2.75326">
        <ele>157.60000610352</ele>
        <time>2021-10-15T10:07:26.000Z</time>
      </trkpt>
      <trkpt lat="48.1708" lon="-2.75322">
        <ele>157.60000610352</ele>
        <time>2021-10-15T10:07:27.000Z</time>
      </trkpt>
      <trkpt lat="48.1708" lon="-2.75317">
        <ele>157.60000610352</ele>
        <time>2021-10-15T10:07:28.000Z</time>
      </trkpt>
      <trkpt lat="48.1708" lon="-2.75312">
        <ele>157.60000610352</ele>
        <time>2021-10-15T10:07:29.000Z</time>
      </trkpt>
      <trkpt lat="48.1708" lon="-2.75307">
        <ele>157.39999389648</ele>
        <time>2021-10-15T10:07:30.000Z</time>
      </trkpt>
      <trkpt lat="48.17081" lon="-2.75303">
        <ele>157.39999389648</ele>
        <time>2021-10-15T10:07:31.000Z</time>
      </trkpt>
      <trkpt lat="48.17081" lon="-2.75298">
        <ele>157.19999694824</ele>
        <time>2021-10-15T10:07:32.000Z</time>
      </trkpt>
      <trkpt lat="48.17082" lon="-2.75294">
        <ele>157.19999694824</ele>
        <time>2021-10-15T10:07:33.000Z</time>
      </trkpt>
      <trkpt lat="48.17083" lon="-2.7529">
        <ele>157</ele>
        <time>2021-10-15T10:07:34.000Z</time>
      </trkpt>
      <trkpt lat="48.17083" lon="-2.75285">
        <ele>157</ele>
        <time>2021-10-15T10:07:35.000Z</time>
      </trkpt>
      <trkpt lat="48.17084" lon="-2.7528">
        <ele>157</ele>
        <time>2021-10-15T10:07:36.000Z</time>
      </trkpt>
      <trkpt lat="48.17085" lon="-2.75275">
        <ele>156.80000305176</ele>
        <time>2021-10-15T10:07:37.000Z</time>
      </trkpt>
      <trkpt lat="48.17085" lon="-2.7527">
        <ele>156.80000305176</ele>
        <time>2021-10-15T10:07:38.000Z</time>
      </trkpt>
      <trkpt lat="48.17085" lon="-2.75265">
        <ele>156.80000305176</ele>
        <time>2021-10-15T10:07:39.000Z</time>
      </trkpt>
      <trkpt lat="48.17085" lon="-2.75258">
        <ele>156.80000305176</ele>
        <time>2021-10-15T10:07:40.000Z</time>
      </trkpt>
      <trkpt lat="48.17086" lon="-2.75252">
        <ele>156.80000305176</ele>
        <time>2021-10-15T10:07:41.000Z</time>
      </trkpt>
      <trkpt lat="48.17087" lon="-2.75246">
        <ele>156.60000610352</ele>
        <time>2021-10-15T10:07:42.000Z</time>
      </trkpt>
      <trkpt lat="48.17088" lon="-2.7524">
        <ele>156.39999389648</ele>
        <time>2021-10-15T10:07:43.000Z</time>
      </trkpt>
      <trkpt lat="48.17089" lon="-2.75234">
        <ele>156.19999694824</ele>
        <time>2021-10-15T10:07:44.000Z</time>
      </trkpt>
      <trkpt lat="48.1709" lon="-2.75227">
        <ele>155.80000305176</ele>
        <time>2021-10-15T10:07:45.000Z</time>
      </trkpt>
      <trkpt lat="48.17091" lon="-2.75219">
        <ele>155.80000305176</ele>
        <time>2021-10-15T10:07:46.000Z</time>
      </trkpt>
      <trkpt lat="48.17093" lon="-2.75212">
        <ele>155.60000610352</ele>
        <time>2021-10-15T10:07:47.000Z</time>
      </trkpt>
      <trkpt lat="48.17094" lon="-2.75205">
        <ele>155.60000610352</ele>
        <time>2021-10-15T10:07:48.000Z</time>
      </trkpt>
      <trkpt lat="48.17096" lon="-2.75197">
        <ele>155.39999389648</ele>
        <time>2021-10-15T10:07:49.000Z</time>
      </trkpt>
      <trkpt lat="48.17097" lon="-2.7519">
        <ele>155.39999389648</ele>
        <time>2021-10-15T10:07:50.000Z</time>
      </trkpt>
      <trkpt lat="48.17099" lon="-2.75183">
        <ele>155.19999694824</ele>
        <time>2021-10-15T10:07:51.000Z</time>
      </trkpt>
      <trkpt lat="48.171" lon="-2.75175">
        <ele>155.19999694824</ele>
        <time>2021-10-15T10:07:52.000Z</time>
      </trkpt>
      <trkpt lat="48.17101" lon="-2.75167">
        <ele>155</ele>
        <time>2021-10-15T10:07:53.000Z</time>
      </trkpt>
      <trkpt lat="48.17103" lon="-2.7516">
        <ele>155</ele>
        <time>2021-10-15T10:07:54.000Z</time>
      </trkpt>
      <trkpt lat="48.17104" lon="-2.75152">
        <ele>155</ele>
        <time>2021-10-15T10:07:55.000Z</time>
      </trkpt>
      <trkpt lat="48.17106" lon="-2.75145">
        <ele>154.80000305176</ele>
        <time>2021-10-15T10:07:56.000Z</time>
      </trkpt>
      <trkpt lat="48.17107" lon="-2.75137">
        <ele>154.60000610352</ele>
        <time>2021-10-15T10:07:57.000Z</time>
      </trkpt>
      <trkpt lat="48.17108" lon="-2.75129">
        <ele>154.60000610352</ele>
        <time>2021-10-15T10:07:58.000Z</time>
      </trkpt>
      <trkpt lat="48.17109" lon="-2.75121">
        <ele>154.39999389648</ele>
        <time>2021-10-15T10:07:59.000Z</time>
      </trkpt>
      <trkpt lat="48.1711" lon="-2.75114">
        <ele>154.19999694824</ele>
        <time>2021-10-15T10:08:00.000Z</time>
      </trkpt>
      <trkpt lat="48.17112" lon="-2.75106">
        <ele>153.80000305176</ele>
        <time>2021-10-15T10:08:01.000Z</time>
      </trkpt>
      <trkpt lat="48.17113" lon="-2.75098">
        <ele>153.39999389648</ele>
        <time>2021-10-15T10:08:02.000Z</time>
      </trkpt>
      <trkpt lat="48.17114" lon="-2.7509">
        <ele>153.19999694824</ele>
        <time>2021-10-15T10:08:03.000Z</time>
      </trkpt>
      <trkpt lat="48.17115" lon="-2.75082">
        <ele>152.80000305176</ele>
        <time>2021-10-15T10:08:04.000Z</time>
      </trkpt>
      <trkpt lat="48.17116" lon="-2.75074">
        <ele>152.60000610352</ele>
        <time>2021-10-15T10:08:05.000Z</time>
      </trkpt>
      <trkpt lat="48.17116" lon="-2.75066">
        <ele>152.39999389648</ele>
        <time>2021-10-15T10:08:06.000Z</time>
      </trkpt>
      <trkpt lat="48.17117" lon="-2.75057">
        <ele>152.39999389648</ele>
        <time>2021-10-15T10:08:07.000Z</time>
      </trkpt>
      <trkpt lat="48.17117" lon="-2.75049">
        <ele>152.39999389648</ele>
        <time>2021-10-15T10:08:08.000Z</time>
      </trkpt>
      <trkpt lat="48.17117" lon="-2.7504">
        <ele>152.19999694824</ele>
        <time>2021-10-15T10:08:09.000Z</time>
      </trkpt>
      <trkpt lat="48.17117" lon="-2.75032">
        <ele>152</ele>
        <time>2021-10-15T10:08:10.000Z</time>
      </trkpt>
      <trkpt lat="48.17116" lon="-2.75023">
        <ele>152</ele>
        <time>2021-10-15T10:08:11.000Z</time>
      </trkpt>
      <trkpt lat="48.17115" lon="-2.75015">
        <ele>151.80000305176</ele>
        <time>2021-10-15T10:08:12.000Z</time>
      </trkpt>
      <trkpt lat="48.17114" lon="-2.75007">
        <ele>151.60000610352</ele>
        <time>2021-10-15T10:08:13.000Z</time>
      </trkpt>
      <trkpt lat="48.17113" lon="-2.74999">
        <ele>151.39999389648</ele>
        <time>2021-10-15T10:08:14.000Z</time>
      </trkpt>
      <trkpt lat="48.17112" lon="-2.74991">
        <ele>151</ele>
        <time>2021-10-15T10:08:15.000Z</time>
      </trkpt>
      <trkpt lat="48.1711" lon="-2.74983">
        <ele>150.80000305176</ele>
        <time>2021-10-15T10:08:16.000Z</time>
      </trkpt>
      <trkpt lat="48.17109" lon="-2.74975">
        <ele>150.60000610352</ele>
        <time>2021-10-15T10:08:17.000Z</time>
      </trkpt>
      <trkpt lat="48.17107" lon="-2.74968">
        <ele>150.60000610352</ele>
        <time>2021-10-15T10:08:18.000Z</time>
      </trkpt>
      <trkpt lat="48.17106" lon="-2.7496">
        <ele>150.60000610352</ele>
        <time>2021-10-15T10:08:19.000Z</time>
      </trkpt>
      <trkpt lat="48.17105" lon="-2.74952">
        <ele>150.80000305176</ele>
        <time>2021-10-15T10:08:20.000Z</time>
      </trkpt>
      <trkpt lat="48.17104" lon="-2.74944">
        <ele>151</ele>
        <time>2021-10-15T10:08:21.000Z</time>
      </trkpt>
      <trkpt lat="48.17102" lon="-2.74935">
        <ele>151.60000610352</ele>
        <time>2021-10-15T10:08:22.000Z</time>
      </trkpt>
      <trkpt lat="48.17101" lon="-2.74927">
        <ele>152</ele>
        <time>2021-10-15T10:08:23.000Z</time>
      </trkpt>
      <trkpt lat="48.171" lon="-2.74919">
        <ele>152.19999694824</ele>
        <time>2021-10-15T10:08:24.000Z</time>
      </trkpt>
      <trkpt lat="48.17098" lon="-2.74911">
        <ele>152.19999694824</ele>
        <time>2021-10-15T10:08:25.000Z</time>
      </trkpt>
      <trkpt lat="48.17097" lon="-2.74903">
        <ele>152.39999389648</ele>
        <time>2021-10-15T10:08:26.000Z</time>
      </trkpt>
      <trkpt lat="48.17095" lon="-2.74896">
        <ele>152.19999694824</ele>
        <time>2021-10-15T10:08:27.000Z</time>
      </trkpt>
      <trkpt lat="48.17094" lon="-2.74889">
        <ele>151.80000305176</ele>
        <time>2021-10-15T10:08:28.000Z</time>
      </trkpt>
      <trkpt lat="48.17093" lon="-2.74883">
        <ele>151.39999389648</ele>
        <time>2021-10-15T10:08:29.000Z</time>
      </trkpt>
      <trkpt lat="48.17092" lon="-2.74876">
        <ele>151</ele>
        <time>2021-10-15T10:08:30.000Z</time>
      </trkpt>
      <trkpt lat="48.17091" lon="-2.74871">
        <ele>150.60000610352</ele>
        <time>2021-10-15T10:08:31.000Z</time>
      </trkpt>
      <trkpt lat="48.1709" lon="-2.74865">
        <ele>150.19999694824</ele>
        <time>2021-10-15T10:08:32.000Z</time>
      </trkpt>
      <trkpt lat="48.17089" lon="-2.7486">
        <ele>149.80000305176</ele>
        <time>2021-10-15T10:08:33.000Z</time>
      </trkpt>
      <trkpt lat="48.17089" lon="-2.74855">
        <ele>149.60000610352</ele>
        <time>2021-10-15T10:08:34.000Z</time>
      </trkpt>
      <trkpt lat="48.17088" lon="-2.74851">
        <ele>149.19999694824</ele>
        <time>2021-10-15T10:08:35.000Z</time>
      </trkpt>
      <trkpt lat="48.17087" lon="-2.74846">
        <ele>149</ele>
        <time>2021-10-15T10:08:36.000Z</time>
      </trkpt>
      <trkpt lat="48.17086" lon="-2.74842">
        <ele>148.60000610352</ele>
        <time>2021-10-15T10:08:37.000Z</time>
      </trkpt>
      <trkpt lat="48.17086" lon="-2.74838">
        <ele>148.39999389648</ele>
        <time>2021-10-15T10:08:38.000Z</time>
      </trkpt>
      <trkpt lat="48.17085" lon="-2.74835">
        <ele>148.19999694824</ele>
        <time>2021-10-15T10:08:39.000Z</time>
      </trkpt>
      <trkpt lat="48.17085" lon="-2.74832">
        <ele>148</ele>
        <time>2021-10-15T10:08:40.000Z</time>
      </trkpt>
      <trkpt lat="48.17084" lon="-2.74829">
        <ele>147.80000305176</ele>
        <time>2021-10-15T10:08:41.000Z</time>
      </trkpt>
      <trkpt lat="48.17084" lon="-2.74826">
        <ele>147.80000305176</ele>
        <time>2021-10-15T10:08:42.000Z</time>
      </trkpt>
      <trkpt lat="48.17084" lon="-2.74824">
        <ele>147.80000305176</ele>
        <time>2021-10-15T10:08:43.000Z</time>
      </trkpt>
      <trkpt lat="48.17084" lon="-2.74823">
        <ele>147.60000610352</ele>
        <time>2021-10-15T10:08:44.000Z</time>
      </trkpt>
      <trkpt lat="48.17084" lon="-2.74822">
        <ele>147.60000610352</ele>
        <time>2021-10-15T10:08:45.000Z</time>
      </trkpt>
      <trkpt lat="48.17084" lon="-2.74822">
        <ele>147.60000610352</ele>
        <time>2021-10-15T10:08:46.000Z</time>
      </trkpt>
      <trkpt lat="48.17084" lon="-2.7482">
        <ele>147.60000610352</ele>
        <time>2021-10-15T10:08:47.000Z</time>
      </trkpt>
      <trkpt lat="48.17084" lon="-2.74817">
        <ele>147.39999389648</ele>
        <time>2021-10-15T10:08:48.000Z</time>
      </trkpt>
      <trkpt lat="48.17083" lon="-2.74814">
        <ele>147.39999389648</ele>
        <time>2021-10-15T10:08:49.000Z</time>
      </trkpt>
      <trkpt lat="48.17083" lon="-2.74812">
        <ele>147.39999389648</ele>
        <time>2021-10-15T10:08:50.000Z</time>
      </trkpt>
      <trkpt lat="48.17083" lon="-2.7481">
        <ele>147.39999389648</ele>
        <time>2021-10-15T10:08:51.000Z</time>
      </trkpt>
      <trkpt lat="48.17082" lon="-2.74809">
        <ele>147.60000610352</ele>
        <time>2021-10-15T10:08:52.000Z</time>
      </trkpt>
      <trkpt lat="48.17082" lon="-2.74808">
        <ele>147.60000610352</ele>
        <time>2021-10-15T10:08:53.000Z</time>
      </trkpt>
      <trkpt lat="48.17081" lon="-2.74805">
        <ele>147.80000305176</ele>
        <time>2021-10-15T10:08:54.000Z</time>
      </trkpt>
      <trkpt lat="48.17081" lon="-2.74803">
        <ele>147.80000305176</ele>
        <time>2021-10-15T10:08:55.000Z</time>
      </trkpt>
      <trkpt lat="48.17079" lon="-2.74799">
        <ele>148.19999694824</ele>
        <time>2021-10-15T10:08:56.000Z</time>
      </trkpt>
      <trkpt lat="48.17078" lon="-2.74795">
        <ele>148.39999389648</ele>
        <time>2021-10-15T10:08:57.000Z</time>
      </trkpt>
      <trkpt lat="48.17077" lon="-2.74791">
        <ele>148.60000610352</ele>
        <time>2021-10-15T10:08:58.000Z</time>
      </trkpt>
      <trkpt lat="48.17077" lon="-2.74786">
        <ele>148.80000305176</ele>
        <time>2021-10-15T10:08:59.000Z</time>
      </trkpt>
      <trkpt lat="48.17076" lon="-2.74783">
        <ele>149</ele>
        <time>2021-10-15T10:09:00.000Z</time>
      </trkpt>
      <trkpt lat="48.17076" lon="-2.74779">
        <ele>149</ele>
        <time>2021-10-15T10:09:01.000Z</time>
      </trkpt>
      <trkpt lat="48.17075" lon="-2.74776">
        <ele>149.19999694824</ele>
        <time>2021-10-15T10:09:02.000Z</time>
      </trkpt>
      <trkpt lat="48.17075" lon="-2.74773">
        <ele>149.39999389648</ele>
        <time>2021-10-15T10:09:03.000Z</time>
      </trkpt>
      <trkpt lat="48.17074" lon="-2.74769">
        <ele>149.60000610352</ele>
        <time>2021-10-15T10:09:04.000Z</time>
      </trkpt>
      <trkpt lat="48.17074" lon="-2.74766">
        <ele>149.80000305176</ele>
        <time>2021-10-15T10:09:05.000Z</time>
      </trkpt>
      <trkpt lat="48.17073" lon="-2.74762">
        <ele>149.80000305176</ele>
        <time>2021-10-15T10:09:06.000Z</time>
      </trkpt>
      <trkpt lat="48.17073" lon="-2.74759">
        <ele>150</ele>
        <time>2021-10-15T10:09:07.000Z</time>
      </trkpt>
      <trkpt lat="48.17073" lon="-2.74755">
        <ele>150</ele>
        <time>2021-10-15T10:09:08.000Z</time>
      </trkpt>
      <trkpt lat="48.17072" lon="-2.74751">
        <ele>150</ele>
        <time>2021-10-15T10:09:09.000Z</time>
      </trkpt>
      <trkpt lat="48.17071" lon="-2.74746">
        <ele>150.19999694824</ele>
        <time>2021-10-15T10:09:10.000Z</time>
      </trkpt>
      <trkpt lat="48.1707" lon="-2.74742">
        <ele>150.19999694824</ele>
        <time>2021-10-15T10:09:11.000Z</time>
      </trkpt>
      <trkpt lat="48.17069" lon="-2.74737">
        <ele>150.19999694824</ele>
        <time>2021-10-15T10:09:12.000Z</time>
      </trkpt>
      <trkpt lat="48.17068" lon="-2.74733">
        <ele>150.19999694824</ele>
        <time>2021-10-15T10:09:13.000Z</time>
      </trkpt>
      <trkpt lat="48.17067" lon="-2.74729">
        <ele>150.19999694824</ele>
        <time>2021-10-15T10:09:14.000Z</time>
      </trkpt>
      <trkpt lat="48.17066" lon="-2.74725">
        <ele>150.19999694824</ele>
        <time>2021-10-15T10:09:15.000Z</time>
      </trkpt>
      <trkpt lat="48.17065" lon="-2.7472">
        <ele>150</ele>
        <time>2021-10-15T10:09:16.000Z</time>
      </trkpt>
      <trkpt lat="48.17065" lon="-2.74715">
        <ele>149.80000305176</ele>
        <time>2021-10-15T10:09:17.000Z</time>
      </trkpt>
      <trkpt lat="48.17064" lon="-2.74711">
        <ele>149.80000305176</ele>
        <time>2021-10-15T10:09:18.000Z</time>
      </trkpt>
      <trkpt lat="48.17064" lon="-2.74706">
        <ele>149.80000305176</ele>
        <time>2021-10-15T10:09:19.000Z</time>
      </trkpt>
      <trkpt lat="48.17064" lon="-2.74702">
        <ele>149.80000305176</ele>
        <time>2021-10-15T10:09:20.000Z</time>
      </trkpt>
      <trkpt lat="48.17064" lon="-2.74698">
        <ele>149.60000610352</ele>
        <time>2021-10-15T10:09:21.000Z</time>
      </trkpt>
      <trkpt lat="48.17064" lon="-2.74695">
        <ele>149.60000610352</ele>
        <time>2021-10-15T10:09:22.000Z</time>
      </trkpt>
      <trkpt lat="48.17064" lon="-2.74692">
        <ele>149.39999389648</ele>
        <time>2021-10-15T10:09:23.000Z</time>
      </trkpt>
      <trkpt lat="48.17064" lon="-2.74688">
        <ele>149.19999694824</ele>
        <time>2021-10-15T10:09:24.000Z</time>
      </trkpt>
      <trkpt lat="48.17063" lon="-2.74686">
        <ele>149.19999694824</ele>
        <time>2021-10-15T10:09:25.000Z</time>
      </trkpt>
      <trkpt lat="48.17063" lon="-2.74685">
        <ele>149.19999694824</ele>
        <time>2021-10-15T10:09:26.000Z</time>
      </trkpt>
      <trkpt lat="48.17063" lon="-2.74684">
        <ele>149.19999694824</ele>
        <time>2021-10-15T10:09:27.000Z</time>
      </trkpt>
      <trkpt lat="48.17063" lon="-2.74684">
        <ele>149.19999694824</ele>
        <time>2021-10-15T10:09:28.000Z</time>
      </trkpt>
      <trkpt lat="48.17063" lon="-2.74684">
        <ele>149.19999694824</ele>
        <time>2021-10-15T10:09:29.000Z</time>
      </trkpt>
      <trkpt lat="48.17063" lon="-2.74684">
        <ele>149.19999694824</ele>
        <time>2021-10-15T10:09:30.000Z</time>
      </trkpt>
      <trkpt lat="48.17063" lon="-2.74684">
        <ele>149.19999694824</ele>
        <time>2021-10-15T10:09:31.000Z</time>
      </trkpt>
      <trkpt lat="48.17063" lon="-2.74684">
        <ele>149.19999694824</ele>
        <time>2021-10-15T10:09:32.000Z</time>
      </trkpt>
      <trkpt lat="48.17063" lon="-2.74684">
        <ele>149.19999694824</ele>
        <time>2021-10-15T10:09:33.000Z</time>
      </trkpt>
      <trkpt lat="48.17063" lon="-2.74684">
        <ele>149.19999694824</ele>
        <time>2021-10-15T10:09:34.000Z</time>
      </trkpt>
      <trkpt lat="48.17063" lon="-2.74684">
        <ele>149.19999694824</ele>
        <time>2021-10-15T10:09:35.000Z</time>
      </trkpt>
      <trkpt lat="48.17063" lon="-2.74684">
        <ele>149.19999694824</ele>
        <time>2021-10-15T10:09:36.000Z</time>
      </trkpt>
      <trkpt lat="48.17063" lon="-2.74684">
        <ele>149.19999694824</ele>
        <time>2021-10-15T10:09:37.000Z</time>
      </trkpt>
      <trkpt lat="48.17063" lon="-2.74684">
        <ele>149.19999694824</ele>
        <time>2021-10-15T10:09:38.000Z</time>
      </trkpt>
      <trkpt lat="48.17063" lon="-2.74684">
        <ele>149.19999694824</ele>
        <time>2021-10-15T10:09:39.000Z</time>
      </trkpt>
      <trkpt lat="48.17063" lon="-2.74684">
        <ele>149.19999694824</ele>
        <time>2021-10-15T10:09:40.000Z</time>
      </trkpt>
      <trkpt lat="48.17063" lon="-2.74684">
        <ele>149.19999694824</ele>
        <time>2021-10-15T10:09:41.000Z</time>
      </trkpt>
      <trkpt lat="48.17063" lon="-2.74684">
        <ele>149.19999694824</ele>
        <time>2021-10-15T10:09:42.000Z</time>
      </trkpt>
      <trkpt lat="48.17063" lon="-2.74684">
        <ele>149.19999694824</ele>
        <time>2021-10-15T10:09:43.000Z</time>
      </trkpt>
      <trkpt lat="48.17063" lon="-2.74683">
        <ele>149.19999694824</ele>
        <time>2021-10-15T10:09:44.000Z</time>
      </trkpt>
      <trkpt lat="48.17063" lon="-2.74683">
        <ele>149.19999694824</ele>
        <time>2021-10-15T10:09:45.000Z</time>
      </trkpt>
      <trkpt lat="48.17062" lon="-2.74681">
        <ele>149.19999694824</ele>
        <time>2021-10-15T10:09:46.000Z</time>
      </trkpt>
      <trkpt lat="48.17062" lon="-2.7468">
        <ele>149.19999694824</ele>
        <time>2021-10-15T10:09:47.000Z</time>
      </trkpt>
      <trkpt lat="48.17062" lon="-2.74678">
        <ele>149.39999389648</ele>
        <time>2021-10-15T10:09:48.000Z</time>
      </trkpt>
      <trkpt lat="48.17061" lon="-2.74676">
        <ele>149.39999389648</ele>
        <time>2021-10-15T10:09:49.000Z</time>
      </trkpt>
      <trkpt lat="48.17061" lon="-2.74674">
        <ele>149.39999389648</ele>
        <time>2021-10-15T10:09:50.000Z</time>
      </trkpt>
      <trkpt lat="48.17061" lon="-2.74672">
        <ele>149.39999389648</ele>
        <time>2021-10-15T10:09:51.000Z</time>
      </trkpt>
      <trkpt lat="48.1706" lon="-2.7467">
        <ele>149.39999389648</ele>
        <time>2021-10-15T10:09:52.000Z</time>
      </trkpt>
      <trkpt lat="48.1706" lon="-2.74667">
        <ele>149.39999389648</ele>
        <time>2021-10-15T10:09:53.000Z</time>
      </trkpt>
      <trkpt lat="48.17059" lon="-2.74665">
        <ele>149.39999389648</ele>
        <time>2021-10-15T10:09:54.000Z</time>
      </trkpt>
      <trkpt lat="48.17058" lon="-2.74662">
        <ele>149.19999694824</ele>
        <time>2021-10-15T10:09:55.000Z</time>
      </trkpt>
      <trkpt lat="48.17058" lon="-2.74659">
        <ele>149.19999694824</ele>
        <time>2021-10-15T10:09:56.000Z</time>
      </trkpt>
      <trkpt lat="48.17057" lon="-2.74656">
        <ele>149</ele>
        <time>2021-10-15T10:09:57.000Z</time>
      </trkpt>
      <trkpt lat="48.17057" lon="-2.74652">
        <ele>148.80000305176</ele>
        <time>2021-10-15T10:09:58.000Z</time>
      </trkpt>
      <trkpt lat="48.17057" lon="-2.74648">
        <ele>148.39999389648</ele>
        <time>2021-10-15T10:09:59.000Z</time>
      </trkpt>
      <trkpt lat="48.17056" lon="-2.74643">
        <ele>148.19999694824</ele>
        <time>2021-10-15T10:10:00.000Z</time>
      </trkpt>
      <trkpt lat="48.17056" lon="-2.74638">
        <ele>148</ele>
        <time>2021-10-15T10:10:01.000Z</time>
      </trkpt>
      <trkpt lat="48.17056" lon="-2.74633">
        <ele>147.80000305176</ele>
        <time>2021-10-15T10:10:02.000Z</time>
      </trkpt>
      <trkpt lat="48.17056" lon="-2.74629">
        <ele>147.60000610352</ele>
        <time>2021-10-15T10:10:03.000Z</time>
      </trkpt>
      <trkpt lat="48.17056" lon="-2.74623">
        <ele>147.60000610352</ele>
        <time>2021-10-15T10:10:04.000Z</time>
      </trkpt>
      <trkpt lat="48.17056" lon="-2.74618">
        <ele>147.39999389648</ele>
        <time>2021-10-15T10:10:05.000Z</time>
      </trkpt>
      <trkpt lat="48.17055" lon="-2.74613">
        <ele>147.39999389648</ele>
        <time>2021-10-15T10:10:06.000Z</time>
      </trkpt>
      <trkpt lat="48.17055" lon="-2.74607">
        <ele>147.19999694824</ele>
        <time>2021-10-15T10:10:07.000Z</time>
      </trkpt>
      <trkpt lat="48.17054" lon="-2.74601">
        <ele>147</ele>
        <time>2021-10-15T10:10:08.000Z</time>
      </trkpt>
      <trkpt lat="48.17054" lon="-2.74595">
        <ele>147</ele>
        <time>2021-10-15T10:10:09.000Z</time>
      </trkpt>
      <trkpt lat="48.17053" lon="-2.74591">
        <ele>146.80000305176</ele>
        <time>2021-10-15T10:10:10.000Z</time>
      </trkpt>
      <trkpt lat="48.17053" lon="-2.74586">
        <ele>146.60000610352</ele>
        <time>2021-10-15T10:10:11.000Z</time>
      </trkpt>
      <trkpt lat="48.17052" lon="-2.74581">
        <ele>146.39999389648</ele>
        <time>2021-10-15T10:10:12.000Z</time>
      </trkpt>
      <trkpt lat="48.17051" lon="-2.74576">
        <ele>146.39999389648</ele>
        <time>2021-10-15T10:10:13.000Z</time>
      </trkpt>
      <trkpt lat="48.17049" lon="-2.74572">
        <ele>146.19999694824</ele>
        <time>2021-10-15T10:10:14.000Z</time>
      </trkpt>
      <trkpt lat="48.17048" lon="-2.74567">
        <ele>146.19999694824</ele>
        <time>2021-10-15T10:10:15.000Z</time>
      </trkpt>
      <trkpt lat="48.17046" lon="-2.74562">
        <ele>146</ele>
        <time>2021-10-15T10:10:16.000Z</time>
      </trkpt>
      <trkpt lat="48.17044" lon="-2.74558">
        <ele>146</ele>
        <time>2021-10-15T10:10:17.000Z</time>
      </trkpt>
      <trkpt lat="48.17043" lon="-2.74554">
        <ele>146</ele>
        <time>2021-10-15T10:10:18.000Z</time>
      </trkpt>
      <trkpt lat="48.17042" lon="-2.7455">
        <ele>145.80000305176</ele>
        <time>2021-10-15T10:10:19.000Z</time>
      </trkpt>
      <trkpt lat="48.17042" lon="-2.74547">
        <ele>145.80000305176</ele>
        <time>2021-10-15T10:10:20.000Z</time>
      </trkpt>
      <trkpt lat="48.17041" lon="-2.74544">
        <ele>145.80000305176</ele>
        <time>2021-10-15T10:10:21.000Z</time>
      </trkpt>
      <trkpt lat="48.17039" lon="-2.74541">
        <ele>145.80000305176</ele>
        <time>2021-10-15T10:10:22.000Z</time>
      </trkpt>
      <trkpt lat="48.17038" lon="-2.74537">
        <ele>145.80000305176</ele>
        <time>2021-10-15T10:10:23.000Z</time>
      </trkpt>
      <trkpt lat="48.17037" lon="-2.74534">
        <ele>145.60000610352</ele>
        <time>2021-10-15T10:10:24.000Z</time>
      </trkpt>
      <trkpt lat="48.17035" lon="-2.74531">
        <ele>145.60000610352</ele>
        <time>2021-10-15T10:10:25.000Z</time>
      </trkpt>
      <trkpt lat="48.17033" lon="-2.74527">
        <ele>145.60000610352</ele>
        <time>2021-10-15T10:10:26.000Z</time>
      </trkpt>
      <trkpt lat="48.17032" lon="-2.74524">
        <ele>145.60000610352</ele>
        <time>2021-10-15T10:10:27.000Z</time>
      </trkpt>
      <trkpt lat="48.17031" lon="-2.7452">
        <ele>145.60000610352</ele>
        <time>2021-10-15T10:10:28.000Z</time>
      </trkpt>
      <trkpt lat="48.17029" lon="-2.74516">
        <ele>145.60000610352</ele>
        <time>2021-10-15T10:10:29.000Z</time>
      </trkpt>
      <trkpt lat="48.17028" lon="-2.74511">
        <ele>145.60000610352</ele>
        <time>2021-10-15T10:10:30.000Z</time>
      </trkpt>
      <trkpt lat="48.17026" lon="-2.74507">
        <ele>145.39999389648</ele>
        <time>2021-10-15T10:10:31.000Z</time>
      </trkpt>
      <trkpt lat="48.17024" lon="-2.74502">
        <ele>145.60000610352</ele>
        <time>2021-10-15T10:10:32.000Z</time>
      </trkpt>
      <trkpt lat="48.17023" lon="-2.74497">
        <ele>145.60000610352</ele>
        <time>2021-10-15T10:10:33.000Z</time>
      </trkpt>
      <trkpt lat="48.17022" lon="-2.74493">
        <ele>145.80000305176</ele>
        <time>2021-10-15T10:10:34.000Z</time>
      </trkpt>
      <trkpt lat="48.17021" lon="-2.74488">
        <ele>145.80000305176</ele>
        <time>2021-10-15T10:10:35.000Z</time>
      </trkpt>
      <trkpt lat="48.1702" lon="-2.74484">
        <ele>145.80000305176</ele>
        <time>2021-10-15T10:10:36.000Z</time>
      </trkpt>
      <trkpt lat="48.17018" lon="-2.74479">
        <ele>146</ele>
        <time>2021-10-15T10:10:37.000Z</time>
      </trkpt>
      <trkpt lat="48.17016" lon="-2.74474">
        <ele>146</ele>
        <time>2021-10-15T10:10:38.000Z</time>
      </trkpt>
      <trkpt lat="48.17014" lon="-2.74469">
        <ele>145.80000305176</ele>
        <time>2021-10-15T10:10:39.000Z</time>
      </trkpt>
      <trkpt lat="48.17011" lon="-2.74465">
        <ele>145.80000305176</ele>
        <time>2021-10-15T10:10:40.000Z</time>
      </trkpt>
      <trkpt lat="48.17008" lon="-2.7446">
        <ele>145.80000305176</ele>
        <time>2021-10-15T10:10:41.000Z</time>
      </trkpt>
      <trkpt lat="48.17005" lon="-2.74455">
        <ele>146</ele>
        <time>2021-10-15T10:10:42.000Z</time>
      </trkpt>
      <trkpt lat="48.17001" lon="-2.74451">
        <ele>146.19999694824</ele>
        <time>2021-10-15T10:10:43.000Z</time>
      </trkpt>
      <trkpt lat="48.16999" lon="-2.74446">
        <ele>146.19999694824</ele>
        <time>2021-10-15T10:10:44.000Z</time>
      </trkpt>
      <trkpt lat="48.16997" lon="-2.74442">
        <ele>146.19999694824</ele>
        <time>2021-10-15T10:10:45.000Z</time>
      </trkpt>
      <trkpt lat="48.16994" lon="-2.74438">
        <ele>146.19999694824</ele>
        <time>2021-10-15T10:10:46.000Z</time>
      </trkpt>
      <trkpt lat="48.16992" lon="-2.74433">
        <ele>146.19999694824</ele>
        <time>2021-10-15T10:10:47.000Z</time>
      </trkpt>
      <trkpt lat="48.1699" lon="-2.74429">
        <ele>146.19999694824</ele>
        <time>2021-10-15T10:10:48.000Z</time>
      </trkpt>
      <trkpt lat="48.16988" lon="-2.74424">
        <ele>146.19999694824</ele>
        <time>2021-10-15T10:10:49.000Z</time>
      </trkpt>
      <trkpt lat="48.16986" lon="-2.74419">
        <ele>146.39999389648</ele>
        <time>2021-10-15T10:10:50.000Z</time>
      </trkpt>
      <trkpt lat="48.16984" lon="-2.74414">
        <ele>146.60000610352</ele>
        <time>2021-10-15T10:10:51.000Z</time>
      </trkpt>
      <trkpt lat="48.16981" lon="-2.74408">
        <ele>146.60000610352</ele>
        <time>2021-10-15T10:10:52.000Z</time>
      </trkpt>
      <trkpt lat="48.16979" lon="-2.74403">
        <ele>146.60000610352</ele>
        <time>2021-10-15T10:10:53.000Z</time>
      </trkpt>
      <trkpt lat="48.16977" lon="-2.74397">
        <ele>146.60000610352</ele>
        <time>2021-10-15T10:10:54.000Z</time>
      </trkpt>
      <trkpt lat="48.16974" lon="-2.74392">
        <ele>146.39999389648</ele>
        <time>2021-10-15T10:10:55.000Z</time>
      </trkpt>
      <trkpt lat="48.16971" lon="-2.74386">
        <ele>146</ele>
        <time>2021-10-15T10:10:56.000Z</time>
      </trkpt>
      <trkpt lat="48.16969" lon="-2.74381">
        <ele>145.80000305176</ele>
        <time>2021-10-15T10:10:57.000Z</time>
      </trkpt>
      <trkpt lat="48.16966" lon="-2.74375">
        <ele>145.39999389648</ele>
        <time>2021-10-15T10:10:58.000Z</time>
      </trkpt>
      <trkpt lat="48.16964" lon="-2.7437">
        <ele>145.19999694824</ele>
        <time>2021-10-15T10:10:59.000Z</time>
      </trkpt>
      <trkpt lat="48.1696" lon="-2.74365">
        <ele>145</ele>
        <time>2021-10-15T10:11:00.000Z</time>
      </trkpt>
      <trkpt lat="48.16957" lon="-2.74359">
        <ele>144.80000305176</ele>
        <time>2021-10-15T10:11:01.000Z</time>
      </trkpt>
      <trkpt lat="48.16954" lon="-2.74353">
        <ele>144.60000610352</ele>
        <time>2021-10-15T10:11:02.000Z</time>
      </trkpt>
      <trkpt lat="48.16951" lon="-2.74348">
        <ele>144.39999389648</ele>
        <time>2021-10-15T10:11:03.000Z</time>
      </trkpt>
      <trkpt lat="48.16947" lon="-2.74342">
        <ele>144.19999694824</ele>
        <time>2021-10-15T10:11:04.000Z</time>
      </trkpt>
      <trkpt lat="48.16943" lon="-2.74336">
        <ele>144.19999694824</ele>
        <time>2021-10-15T10:11:05.000Z</time>
      </trkpt>
      <trkpt lat="48.1694" lon="-2.74331">
        <ele>144</ele>
        <time>2021-10-15T10:11:06.000Z</time>
      </trkpt>
      <trkpt lat="48.16937" lon="-2.74325">
        <ele>143.80000305176</ele>
        <time>2021-10-15T10:11:07.000Z</time>
      </trkpt>
      <trkpt lat="48.16933" lon="-2.7432">
        <ele>143.80000305176</ele>
        <time>2021-10-15T10:11:08.000Z</time>
      </trkpt>
      <trkpt lat="48.1693" lon="-2.74315">
        <ele>143.80000305176</ele>
        <time>2021-10-15T10:11:09.000Z</time>
      </trkpt>
      <trkpt lat="48.16927" lon="-2.7431">
        <ele>144.19999694824</ele>
        <time>2021-10-15T10:11:10.000Z</time>
      </trkpt>
      <trkpt lat="48.16923" lon="-2.74306">
        <ele>144.60000610352</ele>
        <time>2021-10-15T10:11:11.000Z</time>
      </trkpt>
      <trkpt lat="48.16919" lon="-2.74301">
        <ele>145</ele>
        <time>2021-10-15T10:11:12.000Z</time>
      </trkpt>
      <trkpt lat="48.16915" lon="-2.74296">
        <ele>145.39999389648</ele>
        <time>2021-10-15T10:11:13.000Z</time>
      </trkpt>
      <trkpt lat="48.16911" lon="-2.74291">
        <ele>145.80000305176</ele>
        <time>2021-10-15T10:11:14.000Z</time>
      </trkpt>
      <trkpt lat="48.16907" lon="-2.74286">
        <ele>146</ele>
        <time>2021-10-15T10:11:15.000Z</time>
      </trkpt>
      <trkpt lat="48.16903" lon="-2.74282">
        <ele>145.80000305176</ele>
        <time>2021-10-15T10:11:16.000Z</time>
      </trkpt>
      <trkpt lat="48.16899" lon="-2.74277">
        <ele>145.39999389648</ele>
        <time>2021-10-15T10:11:17.000Z</time>
      </trkpt>
      <trkpt lat="48.16895" lon="-2.74272">
        <ele>145</ele>
        <time>2021-10-15T10:11:18.000Z</time>
      </trkpt>
      <trkpt lat="48.16891" lon="-2.74267">
        <ele>145</ele>
        <time>2021-10-15T10:11:19.000Z</time>
      </trkpt>
      <trkpt lat="48.16887" lon="-2.74262">
        <ele>145</ele>
        <time>2021-10-15T10:11:20.000Z</time>
      </trkpt>
      <trkpt lat="48.16883" lon="-2.74258">
        <ele>145</ele>
        <time>2021-10-15T10:11:21.000Z</time>
      </trkpt>
      <trkpt lat="48.16878" lon="-2.74253">
        <ele>144.80000305176</ele>
        <time>2021-10-15T10:11:22.000Z</time>
      </trkpt>
      <trkpt lat="48.16874" lon="-2.74249">
        <ele>144.39999389648</ele>
        <time>2021-10-15T10:11:23.000Z</time>
      </trkpt>
      <trkpt lat="48.16869" lon="-2.74245">
        <ele>144.19999694824</ele>
        <time>2021-10-15T10:11:24.000Z</time>
      </trkpt>
      <trkpt lat="48.16865" lon="-2.74241">
        <ele>144</ele>
        <time>2021-10-15T10:11:25.000Z</time>
      </trkpt>
      <trkpt lat="48.1686" lon="-2.74237">
        <ele>144</ele>
        <time>2021-10-15T10:11:26.000Z</time>
      </trkpt>
      <trkpt lat="48.16855" lon="-2.74233">
        <ele>144</ele>
        <time>2021-10-15T10:11:27.000Z</time>
      </trkpt>
      <trkpt lat="48.16851" lon="-2.7423">
        <ele>144</ele>
        <time>2021-10-15T10:11:28.000Z</time>
      </trkpt>
      <trkpt lat="48.16846" lon="-2.74226">
        <ele>144</ele>
        <time>2021-10-15T10:11:29.000Z</time>
      </trkpt>
      <trkpt lat="48.16842" lon="-2.74222">
        <ele>144.19999694824</ele>
        <time>2021-10-15T10:11:30.000Z</time>
      </trkpt>
      <trkpt lat="48.16838" lon="-2.74218">
        <ele>144.19999694824</ele>
        <time>2021-10-15T10:11:31.000Z</time>
      </trkpt>
      <trkpt lat="48.16833" lon="-2.74214">
        <ele>144</ele>
        <time>2021-10-15T10:11:32.000Z</time>
      </trkpt>
      <trkpt lat="48.16829" lon="-2.7421">
        <ele>143.60000610352</ele>
        <time>2021-10-15T10:11:33.000Z</time>
      </trkpt>
      <trkpt lat="48.16824" lon="-2.74206">
        <ele>143.39999389648</ele>
        <time>2021-10-15T10:11:34.000Z</time>
      </trkpt>
      <trkpt lat="48.16819" lon="-2.74202">
        <ele>142.80000305176</ele>
        <time>2021-10-15T10:11:35.000Z</time>
      </trkpt>
      <trkpt lat="48.16813" lon="-2.74197">
        <ele>142.19999694824</ele>
        <time>2021-10-15T10:11:36.000Z</time>
      </trkpt>
      <trkpt lat="48.16806" lon="-2.74191">
        <ele>141.60000610352</ele>
        <time>2021-10-15T10:11:37.000Z</time>
      </trkpt>
      <trkpt lat="48.168" lon="-2.74186">
        <ele>141</ele>
        <time>2021-10-15T10:11:38.000Z</time>
      </trkpt>
      <trkpt lat="48.16794" lon="-2.74181">
        <ele>140.39999389648</ele>
        <time>2021-10-15T10:11:39.000Z</time>
      </trkpt>
      <trkpt lat="48.16789" lon="-2.74175">
        <ele>140</ele>
        <time>2021-10-15T10:11:40.000Z</time>
      </trkpt>
      <trkpt lat="48.16783" lon="-2.7417">
        <ele>139.80000305176</ele>
        <time>2021-10-15T10:11:41.000Z</time>
      </trkpt>
      <trkpt lat="48.16777" lon="-2.74165">
        <ele>139.39999389648</ele>
        <time>2021-10-15T10:11:42.000Z</time>
      </trkpt>
      <trkpt lat="48.16772" lon="-2.74161">
        <ele>139</ele>
        <time>2021-10-15T10:11:43.000Z</time>
      </trkpt>
      <trkpt lat="48.16767" lon="-2.74156">
        <ele>138.60000610352</ele>
        <time>2021-10-15T10:11:44.000Z</time>
      </trkpt>
      <trkpt lat="48.16762" lon="-2.74151">
        <ele>138.19999694824</ele>
        <time>2021-10-15T10:11:45.000Z</time>
      </trkpt>
      <trkpt lat="48.16757" lon="-2.74147">
        <ele>138.39999389648</ele>
        <time>2021-10-15T10:11:46.000Z</time>
      </trkpt>
      <trkpt lat="48.16752" lon="-2.74142">
        <ele>138.39999389648</ele>
        <time>2021-10-15T10:11:47.000Z</time>
      </trkpt>
      <trkpt lat="48.16748" lon="-2.74137">
        <ele>138.39999389648</ele>
        <time>2021-10-15T10:11:48.000Z</time>
      </trkpt>
      <trkpt lat="48.16743" lon="-2.74133">
        <ele>138.39999389648</ele>
        <time>2021-10-15T10:11:49.000Z</time>
      </trkpt>
      <trkpt lat="48.16739" lon="-2.7413">
        <ele>138.60000610352</ele>
        <time>2021-10-15T10:11:50.000Z</time>
      </trkpt>
      <trkpt lat="48.16733" lon="-2.74125">
        <ele>138.60000610352</ele>
        <time>2021-10-15T10:11:51.000Z</time>
      </trkpt>
      <trkpt lat="48.16728" lon="-2.74119">
        <ele>139</ele>
        <time>2021-10-15T10:11:52.000Z</time>
      </trkpt>
      <trkpt lat="48.16722" lon="-2.74113">
        <ele>139.19999694824</ele>
        <time>2021-10-15T10:11:53.000Z</time>
      </trkpt>
      <trkpt lat="48.16717" lon="-2.74107">
        <ele>139.39999389648</ele>
        <time>2021-10-15T10:11:54.000Z</time>
      </trkpt>
      <trkpt lat="48.16712" lon="-2.74102">
        <ele>139.39999389648</ele>
        <time>2021-10-15T10:11:55.000Z</time>
      </trkpt>
      <trkpt lat="48.16708" lon="-2.74096">
        <ele>139.39999389648</ele>
        <time>2021-10-15T10:11:56.000Z</time>
      </trkpt>
      <trkpt lat="48.16703" lon="-2.7409">
        <ele>139.39999389648</ele>
        <time>2021-10-15T10:11:57.000Z</time>
      </trkpt>
      <trkpt lat="48.16699" lon="-2.74084">
        <ele>139</ele>
        <time>2021-10-15T10:11:58.000Z</time>
      </trkpt>
      <trkpt lat="48.16695" lon="-2.74078">
        <ele>138.80000305176</ele>
        <time>2021-10-15T10:11:59.000Z</time>
      </trkpt>
      <trkpt lat="48.16691" lon="-2.74072">
        <ele>138.39999389648</ele>
        <time>2021-10-15T10:12:00.000Z</time>
      </trkpt>
      <trkpt lat="48.16688" lon="-2.74066">
        <ele>138.19999694824</ele>
        <time>2021-10-15T10:12:01.000Z</time>
      </trkpt>
      <trkpt lat="48.16684" lon="-2.7406">
        <ele>137.80000305176</ele>
        <time>2021-10-15T10:12:02.000Z</time>
      </trkpt>
      <trkpt lat="48.16681" lon="-2.74054">
        <ele>137.39999389648</ele>
        <time>2021-10-15T10:12:03.000Z</time>
      </trkpt>
      <trkpt lat="48.16678" lon="-2.74049">
        <ele>137</ele>
        <time>2021-10-15T10:12:04.000Z</time>
      </trkpt>
      <trkpt lat="48.16675" lon="-2.74043">
        <ele>136.60000610352</ele>
        <time>2021-10-15T10:12:05.000Z</time>
      </trkpt>
      <trkpt lat="48.16672" lon="-2.74037">
        <ele>136.60000610352</ele>
        <time>2021-10-15T10:12:06.000Z</time>
      </trkpt>
      <trkpt lat="48.1667" lon="-2.74031">
        <ele>136.39999389648</ele>
        <time>2021-10-15T10:12:07.000Z</time>
      </trkpt>
      <trkpt lat="48.16668" lon="-2.74025">
        <ele>136.19999694824</ele>
        <time>2021-10-15T10:12:08.000Z</time>
      </trkpt>
      <trkpt lat="48.16666" lon="-2.74019">
        <ele>136.19999694824</ele>
        <time>2021-10-15T10:12:09.000Z</time>
      </trkpt>
      <trkpt lat="48.16664" lon="-2.74013">
        <ele>136</ele>
        <time>2021-10-15T10:12:10.000Z</time>
      </trkpt>
      <trkpt lat="48.16662" lon="-2.74007">
        <ele>135.80000305176</ele>
        <time>2021-10-15T10:12:11.000Z</time>
      </trkpt>
      <trkpt lat="48.1666" lon="-2.74001">
        <ele>135.80000305176</ele>
        <time>2021-10-15T10:12:12.000Z</time>
      </trkpt>
      <trkpt lat="48.16659" lon="-2.73995">
        <ele>136</ele>
        <time>2021-10-15T10:12:13.000Z</time>
      </trkpt>
      <trkpt lat="48.16657" lon="-2.73988">
        <ele>136</ele>
        <time>2021-10-15T10:12:14.000Z</time>
      </trkpt>
      <trkpt lat="48.16655" lon="-2.73982">
        <ele>136</ele>
        <time>2021-10-15T10:12:15.000Z</time>
      </trkpt>
      <trkpt lat="48.16652" lon="-2.73975">
        <ele>136.19999694824</ele>
        <time>2021-10-15T10:12:16.000Z</time>
      </trkpt>
      <trkpt lat="48.16649" lon="-2.73968">
        <ele>136.39999389648</ele>
        <time>2021-10-15T10:12:17.000Z</time>
      </trkpt>
      <trkpt lat="48.16646" lon="-2.7396">
        <ele>136.60000610352</ele>
        <time>2021-10-15T10:12:18.000Z</time>
      </trkpt>
      <trkpt lat="48.16644" lon="-2.73953">
        <ele>136.60000610352</ele>
        <time>2021-10-15T10:12:19.000Z</time>
      </trkpt>
      <trkpt lat="48.16642" lon="-2.73945">
        <ele>136.60000610352</ele>
        <time>2021-10-15T10:12:20.000Z</time>
      </trkpt>
      <trkpt lat="48.1664" lon="-2.73938">
        <ele>136.80000305176</ele>
        <time>2021-10-15T10:12:21.000Z</time>
      </trkpt>
      <trkpt lat="48.16638" lon="-2.73932">
        <ele>137</ele>
        <time>2021-10-15T10:12:22.000Z</time>
      </trkpt>
      <trkpt lat="48.16635" lon="-2.73925">
        <ele>137.19999694824</ele>
        <time>2021-10-15T10:12:23.000Z</time>
      </trkpt>
      <trkpt lat="48.16633" lon="-2.73918">
        <ele>137.19999694824</ele>
        <time>2021-10-15T10:12:24.000Z</time>
      </trkpt>
      <trkpt lat="48.16632" lon="-2.73911">
        <ele>137</ele>
        <time>2021-10-15T10:12:25.000Z</time>
      </trkpt>
      <trkpt lat="48.16631" lon="-2.73905">
        <ele>137</ele>
        <time>2021-10-15T10:12:26.000Z</time>
      </trkpt>
      <trkpt lat="48.1663" lon="-2.73898">
        <ele>137</ele>
        <time>2021-10-15T10:12:27.000Z</time>
      </trkpt>
      <trkpt lat="48.16629" lon="-2.73892">
        <ele>136.80000305176</ele>
        <time>2021-10-15T10:12:28.000Z</time>
      </trkpt>
      <trkpt lat="48.16628" lon="-2.73884">
        <ele>136.39999389648</ele>
        <time>2021-10-15T10:12:29.000Z</time>
      </trkpt>
      <trkpt lat="48.16627" lon="-2.73877">
        <ele>136.19999694824</ele>
        <time>2021-10-15T10:12:30.000Z</time>
      </trkpt>
      <trkpt lat="48.16627" lon="-2.7387">
        <ele>135.80000305176</ele>
        <time>2021-10-15T10:12:31.000Z</time>
      </trkpt>
      <trkpt lat="48.16626" lon="-2.73864">
        <ele>135.80000305176</ele>
        <time>2021-10-15T10:12:32.000Z</time>
      </trkpt>
      <trkpt lat="48.16624" lon="-2.73857">
        <ele>135.39999389648</ele>
        <time>2021-10-15T10:12:33.000Z</time>
      </trkpt>
      <trkpt lat="48.16621" lon="-2.73851">
        <ele>135.19999694824</ele>
        <time>2021-10-15T10:12:34.000Z</time>
      </trkpt>
      <trkpt lat="48.16619" lon="-2.73845">
        <ele>134.80000305176</ele>
        <time>2021-10-15T10:12:35.000Z</time>
      </trkpt>
      <trkpt lat="48.16616" lon="-2.73839">
        <ele>134.39999389648</ele>
        <time>2021-10-15T10:12:36.000Z</time>
      </trkpt>
      <trkpt lat="48.16614" lon="-2.73833">
        <ele>134</ele>
        <time>2021-10-15T10:12:37.000Z</time>
      </trkpt>
      <trkpt lat="48.16612" lon="-2.73828">
        <ele>133.60000610352</ele>
        <time>2021-10-15T10:12:38.000Z</time>
      </trkpt>
      <trkpt lat="48.16612" lon="-2.73823">
        <ele>133.39999389648</ele>
        <time>2021-10-15T10:12:39.000Z</time>
      </trkpt>
      <trkpt lat="48.16613" lon="-2.73818">
        <ele>133.19999694824</ele>
        <time>2021-10-15T10:12:40.000Z</time>
      </trkpt>
      <trkpt lat="48.16614" lon="-2.73813">
        <ele>133</ele>
        <time>2021-10-15T10:12:41.000Z</time>
      </trkpt>
      <trkpt lat="48.16617" lon="-2.73807">
        <ele>132.60000610352</ele>
        <time>2021-10-15T10:12:42.000Z</time>
      </trkpt>
      <trkpt lat="48.1662" lon="-2.73802">
        <ele>132.19999694824</ele>
        <time>2021-10-15T10:12:43.000Z</time>
      </trkpt>
      <trkpt lat="48.16624" lon="-2.73797">
        <ele>131.80000305176</ele>
        <time>2021-10-15T10:12:44.000Z</time>
      </trkpt>
      <trkpt lat="48.16628" lon="-2.73791">
        <ele>131.39999389648</ele>
        <time>2021-10-15T10:12:45.000Z</time>
      </trkpt>
      <trkpt lat="48.16632" lon="-2.73785">
        <ele>131.19999694824</ele>
        <time>2021-10-15T10:12:46.000Z</time>
      </trkpt>
      <trkpt lat="48.16637" lon="-2.73779">
        <ele>130.60000610352</ele>
        <time>2021-10-15T10:12:47.000Z</time>
      </trkpt>
      <trkpt lat="48.16642" lon="-2.73773">
        <ele>130.19999694824</ele>
        <time>2021-10-15T10:12:48.000Z</time>
      </trkpt>
      <trkpt lat="48.16647" lon="-2.73767">
        <ele>129.80000305176</ele>
        <time>2021-10-15T10:12:49.000Z</time>
      </trkpt>
      <trkpt lat="48.16652" lon="-2.7376">
        <ele>129.19999694824</ele>
        <time>2021-10-15T10:12:50.000Z</time>
      </trkpt>
      <trkpt lat="48.16658" lon="-2.73753">
        <ele>128.80000305176</ele>
        <time>2021-10-15T10:12:51.000Z</time>
      </trkpt>
      <trkpt lat="48.16663" lon="-2.73746">
        <ele>128.19999694824</ele>
        <time>2021-10-15T10:12:52.000Z</time>
      </trkpt>
      <trkpt lat="48.16669" lon="-2.73739">
        <ele>127.80000305176</ele>
        <time>2021-10-15T10:12:53.000Z</time>
      </trkpt>
      <trkpt lat="48.16674" lon="-2.73733">
        <ele>127.19999694824</ele>
        <time>2021-10-15T10:12:54.000Z</time>
      </trkpt>
      <trkpt lat="48.1668" lon="-2.73726">
        <ele>127</ele>
        <time>2021-10-15T10:12:55.000Z</time>
      </trkpt>
      <trkpt lat="48.16685" lon="-2.7372">
        <ele>126.59999847412</ele>
        <time>2021-10-15T10:12:56.000Z</time>
      </trkpt>
      <trkpt lat="48.16691" lon="-2.73714">
        <ele>126.40000152588</ele>
        <time>2021-10-15T10:12:57.000Z</time>
      </trkpt>
      <trkpt lat="48.16696" lon="-2.73707">
        <ele>126.19999694824</ele>
        <time>2021-10-15T10:12:58.000Z</time>
      </trkpt>
      <trkpt lat="48.16701" lon="-2.73701">
        <ele>126</ele>
        <time>2021-10-15T10:12:59.000Z</time>
      </trkpt>
      <trkpt lat="48.16706" lon="-2.73695">
        <ele>126</ele>
        <time>2021-10-15T10:13:00.000Z</time>
      </trkpt>
      <trkpt lat="48.16711" lon="-2.7369">
        <ele>126</ele>
        <time>2021-10-15T10:13:01.000Z</time>
      </trkpt>
      <trkpt lat="48.16715" lon="-2.73684">
        <ele>126.19999694824</ele>
        <time>2021-10-15T10:13:02.000Z</time>
      </trkpt>
      <trkpt lat="48.16719" lon="-2.73679">
        <ele>126.40000152588</ele>
        <time>2021-10-15T10:13:03.000Z</time>
      </trkpt>
      <trkpt lat="48.16723" lon="-2.73674">
        <ele>126.80000305176</ele>
        <time>2021-10-15T10:13:04.000Z</time>
      </trkpt>
      <trkpt lat="48.16726" lon="-2.73668">
        <ele>127</ele>
        <time>2021-10-15T10:13:05.000Z</time>
      </trkpt>
      <trkpt lat="48.16729" lon="-2.73664">
        <ele>127.19999694824</ele>
        <time>2021-10-15T10:13:06.000Z</time>
      </trkpt>
      <trkpt lat="48.16731" lon="-2.7366">
        <ele>127.19999694824</ele>
        <time>2021-10-15T10:13:07.000Z</time>
      </trkpt>
      <trkpt lat="48.16733" lon="-2.73657">
        <ele>127.40000152588</ele>
        <time>2021-10-15T10:13:08.000Z</time>
      </trkpt>
      <trkpt lat="48.16735" lon="-2.73653">
        <ele>127.59999847412</ele>
        <time>2021-10-15T10:13:09.000Z</time>
      </trkpt>
      <trkpt lat="48.16736" lon="-2.7365">
        <ele>127.59999847412</ele>
        <time>2021-10-15T10:13:10.000Z</time>
      </trkpt>
      <trkpt lat="48.16738" lon="-2.73647">
        <ele>127.80000305176</ele>
        <time>2021-10-15T10:13:11.000Z</time>
      </trkpt>
      <trkpt lat="48.16739" lon="-2.73643">
        <ele>128</ele>
        <time>2021-10-15T10:13:12.000Z</time>
      </trkpt>
      <trkpt lat="48.16741" lon="-2.7364">
        <ele>128</ele>
        <time>2021-10-15T10:13:13.000Z</time>
      </trkpt>
      <trkpt lat="48.16743" lon="-2.73637">
        <ele>127.80000305176</ele>
        <time>2021-10-15T10:13:14.000Z</time>
      </trkpt>
      <trkpt lat="48.16746" lon="-2.73634">
        <ele>127.59999847412</ele>
        <time>2021-10-15T10:13:15.000Z</time>
      </trkpt>
      <trkpt lat="48.16749" lon="-2.7363">
        <ele>127.40000152588</ele>
        <time>2021-10-15T10:13:16.000Z</time>
      </trkpt>
      <trkpt lat="48.16752" lon="-2.73626">
        <ele>127.19999694824</ele>
        <time>2021-10-15T10:13:17.000Z</time>
      </trkpt>
      <trkpt lat="48.16756" lon="-2.73622">
        <ele>127</ele>
        <time>2021-10-15T10:13:18.000Z</time>
      </trkpt>
      <trkpt lat="48.16759" lon="-2.73618">
        <ele>126.59999847412</ele>
        <time>2021-10-15T10:13:19.000Z</time>
      </trkpt>
      <trkpt lat="48.16763" lon="-2.73614">
        <ele>126.40000152588</ele>
        <time>2021-10-15T10:13:20.000Z</time>
      </trkpt>
      <trkpt lat="48.16767" lon="-2.7361">
        <ele>126</ele>
        <time>2021-10-15T10:13:21.000Z</time>
      </trkpt>
      <trkpt lat="48.16771" lon="-2.73605">
        <ele>125.80000305176</ele>
        <time>2021-10-15T10:13:22.000Z</time>
      </trkpt>
      <trkpt lat="48.16775" lon="-2.73601">
        <ele>125.40000152588</ele>
        <time>2021-10-15T10:13:23.000Z</time>
      </trkpt>
      <trkpt lat="48.16779" lon="-2.73598">
        <ele>125</ele>
        <time>2021-10-15T10:13:24.000Z</time>
      </trkpt>
      <trkpt lat="48.16784" lon="-2.73594">
        <ele>124.40000152588</ele>
        <time>2021-10-15T10:13:25.000Z</time>
      </trkpt>
      <trkpt lat="48.16788" lon="-2.73591">
        <ele>123.80000305176</ele>
        <time>2021-10-15T10:13:26.000Z</time>
      </trkpt>
      <trkpt lat="48.16794" lon="-2.73587">
        <ele>123.40000152588</ele>
        <time>2021-10-15T10:13:27.000Z</time>
      </trkpt>
      <trkpt lat="48.16799" lon="-2.73584">
        <ele>123</ele>
        <time>2021-10-15T10:13:28.000Z</time>
      </trkpt>
      <trkpt lat="48.16804" lon="-2.73581">
        <ele>122.80000305176</ele>
        <time>2021-10-15T10:13:29.000Z</time>
      </trkpt>
      <trkpt lat="48.1681" lon="-2.73578">
        <ele>122.59999847412</ele>
        <time>2021-10-15T10:13:30.000Z</time>
      </trkpt>
      <trkpt lat="48.16815" lon="-2.73574">
        <ele>122.40000152588</ele>
        <time>2021-10-15T10:13:31.000Z</time>
      </trkpt>
      <trkpt lat="48.1682" lon="-2.7357">
        <ele>122.19999694824</ele>
        <time>2021-10-15T10:13:32.000Z</time>
      </trkpt>
      <trkpt lat="48.16826" lon="-2.73566">
        <ele>122</ele>
        <time>2021-10-15T10:13:33.000Z</time>
      </trkpt>
      <trkpt lat="48.16831" lon="-2.73562">
        <ele>122.19999694824</ele>
        <time>2021-10-15T10:13:34.000Z</time>
      </trkpt>
      <trkpt lat="48.16835" lon="-2.73558">
        <ele>122.19999694824</ele>
        <time>2021-10-15T10:13:35.000Z</time>
      </trkpt>
      <trkpt lat="48.16839" lon="-2.73555">
        <ele>122.40000152588</ele>
        <time>2021-10-15T10:13:36.000Z</time>
      </trkpt>
      <trkpt lat="48.16842" lon="-2.73552">
        <ele>122.19999694824</ele>
        <time>2021-10-15T10:13:37.000Z</time>
      </trkpt>
      <trkpt lat="48.16845" lon="-2.73547">
        <ele>122.19999694824</ele>
        <time>2021-10-15T10:13:38.000Z</time>
      </trkpt>
      <trkpt lat="48.16846" lon="-2.73542">
        <ele>122</ele>
        <time>2021-10-15T10:13:39.000Z</time>
      </trkpt>
      <trkpt lat="48.16847" lon="-2.73537">
        <ele>122</ele>
        <time>2021-10-15T10:13:40.000Z</time>
      </trkpt>
      <trkpt lat="48.16847" lon="-2.73533">
        <ele>122.19999694824</ele>
        <time>2021-10-15T10:13:41.000Z</time>
      </trkpt>
      <trkpt lat="48.16847" lon="-2.73528">
        <ele>122.40000152588</ele>
        <time>2021-10-15T10:13:42.000Z</time>
      </trkpt>
      <trkpt lat="48.16847" lon="-2.73523">
        <ele>122.59999847412</ele>
        <time>2021-10-15T10:13:43.000Z</time>
      </trkpt>
      <trkpt lat="48.16845" lon="-2.73517">
        <ele>122.80000305176</ele>
        <time>2021-10-15T10:13:44.000Z</time>
      </trkpt>
      <trkpt lat="48.16844" lon="-2.73512">
        <ele>123</ele>
        <time>2021-10-15T10:13:45.000Z</time>
      </trkpt>
      <trkpt lat="48.16843" lon="-2.73506">
        <ele>123</ele>
        <time>2021-10-15T10:13:46.000Z</time>
      </trkpt>
      <trkpt lat="48.16843" lon="-2.73501">
        <ele>123</ele>
        <time>2021-10-15T10:13:47.000Z</time>
      </trkpt>
      <trkpt lat="48.16842" lon="-2.73495">
        <ele>123</ele>
        <time>2021-10-15T10:13:48.000Z</time>
      </trkpt>
      <trkpt lat="48.16839" lon="-2.73488">
        <ele>123</ele>
        <time>2021-10-15T10:13:49.000Z</time>
      </trkpt>
      <trkpt lat="48.16836" lon="-2.73483">
        <ele>123</ele>
        <time>2021-10-15T10:13:50.000Z</time>
      </trkpt>
      <trkpt lat="48.16833" lon="-2.73478">
        <ele>123</ele>
        <time>2021-10-15T10:13:51.000Z</time>
      </trkpt>
      <trkpt lat="48.1683" lon="-2.73473">
        <ele>123</ele>
        <time>2021-10-15T10:13:52.000Z</time>
      </trkpt>
      <trkpt lat="48.16827" lon="-2.73468">
        <ele>122.80000305176</ele>
        <time>2021-10-15T10:13:53.000Z</time>
      </trkpt>
      <trkpt lat="48.16824" lon="-2.73464">
        <ele>122.40000152588</ele>
        <time>2021-10-15T10:13:54.000Z</time>
      </trkpt>
      <trkpt lat="48.16821" lon="-2.73461">
        <ele>122.40000152588</ele>
        <time>2021-10-15T10:13:55.000Z</time>
      </trkpt>
      <trkpt lat="48.16819" lon="-2.73459">
        <ele>122.19999694824</ele>
        <time>2021-10-15T10:13:56.000Z</time>
      </trkpt>
      <trkpt lat="48.16817" lon="-2.73458">
        <ele>122.19999694824</ele>
        <time>2021-10-15T10:13:57.000Z</time>
      </trkpt>
      <trkpt lat="48.16816" lon="-2.73456">
        <ele>122.19999694824</ele>
        <time>2021-10-15T10:13:58.000Z</time>
      </trkpt>
      <trkpt lat="48.16814" lon="-2.73454">
        <ele>122.19999694824</ele>
        <time>2021-10-15T10:13:59.000Z</time>
      </trkpt>
      <trkpt lat="48.16812" lon="-2.73452">
        <ele>122</ele>
        <time>2021-10-15T10:14:00.000Z</time>
      </trkpt>
      <trkpt lat="48.1681" lon="-2.73448">
        <ele>122</ele>
        <time>2021-10-15T10:14:01.000Z</time>
      </trkpt>
      <trkpt lat="48.16809" lon="-2.73444">
        <ele>122</ele>
        <time>2021-10-15T10:14:02.000Z</time>
      </trkpt>
      <trkpt lat="48.16807" lon="-2.7344">
        <ele>122</ele>
        <time>2021-10-15T10:14:03.000Z</time>
      </trkpt>
      <trkpt lat="48.16806" lon="-2.73436">
        <ele>122</ele>
        <time>2021-10-15T10:14:04.000Z</time>
      </trkpt>
      <trkpt lat="48.16803" lon="-2.73432">
        <ele>122</ele>
        <time>2021-10-15T10:14:05.000Z</time>
      </trkpt>
      <trkpt lat="48.168" lon="-2.73429">
        <ele>122</ele>
        <time>2021-10-15T10:14:06.000Z</time>
      </trkpt>
      <trkpt lat="48.16796" lon="-2.73427">
        <ele>122</ele>
        <time>2021-10-15T10:14:07.000Z</time>
      </trkpt>
      <trkpt lat="48.16792" lon="-2.73426">
        <ele>122.19999694824</ele>
        <time>2021-10-15T10:14:08.000Z</time>
      </trkpt>
      <trkpt lat="48.16788" lon="-2.73427">
        <ele>122.19999694824</ele>
        <time>2021-10-15T10:14:09.000Z</time>
      </trkpt>
      <trkpt lat="48.16783" lon="-2.73429">
        <ele>122.19999694824</ele>
        <time>2021-10-15T10:14:10.000Z</time>
      </trkpt>
      <trkpt lat="48.1678" lon="-2.73433">
        <ele>122.40000152588</ele>
        <time>2021-10-15T10:14:11.000Z</time>
      </trkpt>
      <trkpt lat="48.16776" lon="-2.73437">
        <ele>122.59999847412</ele>
        <time>2021-10-15T10:14:12.000Z</time>
      </trkpt>
      <trkpt lat="48.16773" lon="-2.73442">
        <ele>122.59999847412</ele>
        <time>2021-10-15T10:14:13.000Z</time>
      </trkpt>
      <trkpt lat="48.16769" lon="-2.73448">
        <ele>122.80000305176</ele>
        <time>2021-10-15T10:14:14.000Z</time>
      </trkpt>
      <trkpt lat="48.16766" lon="-2.73453">
        <ele>123</ele>
        <time>2021-10-15T10:14:15.000Z</time>
      </trkpt>
      <trkpt lat="48.16763" lon="-2.73458">
        <ele>123.19999694824</ele>
        <time>2021-10-15T10:14:16.000Z</time>
      </trkpt>
      <trkpt lat="48.1676" lon="-2.73462">
        <ele>123.40000152588</ele>
        <time>2021-10-15T10:14:17.000Z</time>
      </trkpt>
      <trkpt lat="48.16757" lon="-2.73467">
        <ele>123.59999847412</ele>
        <time>2021-10-15T10:14:18.000Z</time>
      </trkpt>
      <trkpt lat="48.16754" lon="-2.73472">
        <ele>123.80000305176</ele>
        <time>2021-10-15T10:14:19.000Z</time>
      </trkpt>
      <trkpt lat="48.16751" lon="-2.73476">
        <ele>124</ele>
        <time>2021-10-15T10:14:20.000Z</time>
      </trkpt>
      <trkpt lat="48.16748" lon="-2.73481">
        <ele>124</ele>
        <time>2021-10-15T10:14:21.000Z</time>
      </trkpt>
      <trkpt lat="48.16745" lon="-2.73485">
        <ele>124</ele>
        <time>2021-10-15T10:14:22.000Z</time>
      </trkpt>
      <trkpt lat="48.16742" lon="-2.73489">
        <ele>124</ele>
        <time>2021-10-15T10:14:23.000Z</time>
      </trkpt>
      <trkpt lat="48.16739" lon="-2.73494">
        <ele>124</ele>
        <time>2021-10-15T10:14:24.000Z</time>
      </trkpt>
      <trkpt lat="48.16737" lon="-2.73498">
        <ele>124.19999694824</ele>
        <time>2021-10-15T10:14:25.000Z</time>
      </trkpt>
      <trkpt lat="48.16734" lon="-2.73502">
        <ele>124.19999694824</ele>
        <time>2021-10-15T10:14:26.000Z</time>
      </trkpt>
      <trkpt lat="48.16731" lon="-2.73506">
        <ele>124.40000152588</ele>
        <time>2021-10-15T10:14:27.000Z</time>
      </trkpt>
      <trkpt lat="48.16728" lon="-2.7351">
        <ele>124.59999847412</ele>
        <time>2021-10-15T10:14:28.000Z</time>
      </trkpt>
      <trkpt lat="48.16725" lon="-2.73513">
        <ele>124.80000305176</ele>
        <time>2021-10-15T10:14:29.000Z</time>
      </trkpt>
      <trkpt lat="48.16721" lon="-2.73516">
        <ele>125</ele>
        <time>2021-10-15T10:14:30.000Z</time>
      </trkpt>
      <trkpt lat="48.16718" lon="-2.73518">
        <ele>125.19999694824</ele>
        <time>2021-10-15T10:14:31.000Z</time>
      </trkpt>
      <trkpt lat="48.16715" lon="-2.73521">
        <ele>125.40000152588</ele>
        <time>2021-10-15T10:14:32.000Z</time>
      </trkpt>
      <trkpt lat="48.16711" lon="-2.73523">
        <ele>125.59999847412</ele>
        <time>2021-10-15T10:14:33.000Z</time>
      </trkpt>
      <trkpt lat="48.16708" lon="-2.73525">
        <ele>125.59999847412</ele>
        <time>2021-10-15T10:14:34.000Z</time>
      </trkpt>
      <trkpt lat="48.16704" lon="-2.73526">
        <ele>125.80000305176</ele>
        <time>2021-10-15T10:14:35.000Z</time>
      </trkpt>
      <trkpt lat="48.16701" lon="-2.73528">
        <ele>125.80000305176</ele>
        <time>2021-10-15T10:14:36.000Z</time>
      </trkpt>
      <trkpt lat="48.16697" lon="-2.73529">
        <ele>125.80000305176</ele>
        <time>2021-10-15T10:14:37.000Z</time>
      </trkpt>
      <trkpt lat="48.16694" lon="-2.73531">
        <ele>125.80000305176</ele>
        <time>2021-10-15T10:14:38.000Z</time>
      </trkpt>
      <trkpt lat="48.16691" lon="-2.73533">
        <ele>126</ele>
        <time>2021-10-15T10:14:39.000Z</time>
      </trkpt>
      <trkpt lat="48.16689" lon="-2.73536">
        <ele>126</ele>
        <time>2021-10-15T10:14:40.000Z</time>
      </trkpt>
      <trkpt lat="48.16688" lon="-2.7354">
        <ele>126</ele>
        <time>2021-10-15T10:14:41.000Z</time>
      </trkpt>
      <trkpt lat="48.16687" lon="-2.73545">
        <ele>126</ele>
        <time>2021-10-15T10:14:42.000Z</time>
      </trkpt>
      <trkpt lat="48.16688" lon="-2.7355">
        <ele>126</ele>
        <time>2021-10-15T10:14:43.000Z</time>
      </trkpt>
      <trkpt lat="48.16689" lon="-2.73555">
        <ele>126</ele>
        <time>2021-10-15T10:14:44.000Z</time>
      </trkpt>
      <trkpt lat="48.16691" lon="-2.7356">
        <ele>126.19999694824</ele>
        <time>2021-10-15T10:14:45.000Z</time>
      </trkpt>
      <trkpt lat="48.16693" lon="-2.73566">
        <ele>126.40000152588</ele>
        <time>2021-10-15T10:14:46.000Z</time>
      </trkpt>
      <trkpt lat="48.16696" lon="-2.73571">
        <ele>126.80000305176</ele>
        <time>2021-10-15T10:14:47.000Z</time>
      </trkpt>
      <trkpt lat="48.16698" lon="-2.73577">
        <ele>127</ele>
        <time>2021-10-15T10:14:48.000Z</time>
      </trkpt>
      <trkpt lat="48.167" lon="-2.73583">
        <ele>127.19999694824</ele>
        <time>2021-10-15T10:14:49.000Z</time>
      </trkpt>
      <trkpt lat="48.167" lon="-2.7359">
        <ele>127.59999847412</ele>
        <time>2021-10-15T10:14:50.000Z</time>
      </trkpt>
      <trkpt lat="48.167" lon="-2.73597">
        <ele>127.19999694824</ele>
        <time>2021-10-15T10:14:51.000Z</time>
      </trkpt>
      <trkpt lat="48.16699" lon="-2.73603">
        <ele>127</ele>
        <time>2021-10-15T10:14:52.000Z</time>
      </trkpt>
      <trkpt lat="48.16697" lon="-2.73609">
        <ele>126.80000305176</ele>
        <time>2021-10-15T10:14:53.000Z</time>
      </trkpt>
      <trkpt lat="48.16694" lon="-2.73614">
        <ele>126.40000152588</ele>
        <time>2021-10-15T10:14:54.000Z</time>
      </trkpt>
      <trkpt lat="48.1669" lon="-2.73618">
        <ele>126.19999694824</ele>
        <time>2021-10-15T10:14:55.000Z</time>
      </trkpt>
      <trkpt lat="48.16686" lon="-2.73622">
        <ele>126</ele>
        <time>2021-10-15T10:14:56.000Z</time>
      </trkpt>
      <trkpt lat="48.16683" lon="-2.73627">
        <ele>126</ele>
        <time>2021-10-15T10:14:57.000Z</time>
      </trkpt>
      <trkpt lat="48.16679" lon="-2.73631">
        <ele>126.19999694824</ele>
        <time>2021-10-15T10:14:58.000Z</time>
      </trkpt>
      <trkpt lat="48.16676" lon="-2.73634">
        <ele>126.40000152588</ele>
        <time>2021-10-15T10:14:59.000Z</time>
      </trkpt>
      <trkpt lat="48.16672" lon="-2.73638">
        <ele>126.40000152588</ele>
        <time>2021-10-15T10:15:00.000Z</time>
      </trkpt>
      <trkpt lat="48.16669" lon="-2.73642">
        <ele>126.59999847412</ele>
        <time>2021-10-15T10:15:01.000Z</time>
      </trkpt>
      <trkpt lat="48.16665" lon="-2.73645">
        <ele>126.80000305176</ele>
        <time>2021-10-15T10:15:02.000Z</time>
      </trkpt>
      <trkpt lat="48.16662" lon="-2.73648">
        <ele>126.80000305176</ele>
        <time>2021-10-15T10:15:03.000Z</time>
      </trkpt>
      <trkpt lat="48.16659" lon="-2.73651">
        <ele>127</ele>
        <time>2021-10-15T10:15:04.000Z</time>
      </trkpt>
      <trkpt lat="48.16655" lon="-2.73654">
        <ele>127.19999694824</ele>
        <time>2021-10-15T10:15:05.000Z</time>
      </trkpt>
      <trkpt lat="48.16652" lon="-2.73657">
        <ele>127.40000152588</ele>
        <time>2021-10-15T10:15:06.000Z</time>
      </trkpt>
      <trkpt lat="48.16649" lon="-2.7366">
        <ele>127.59999847412</ele>
        <time>2021-10-15T10:15:07.000Z</time>
      </trkpt>
      <trkpt lat="48.16646" lon="-2.73663">
        <ele>127.80000305176</ele>
        <time>2021-10-15T10:15:08.000Z</time>
      </trkpt>
      <trkpt lat="48.16643" lon="-2.73666">
        <ele>128</ele>
        <time>2021-10-15T10:15:09.000Z</time>
      </trkpt>
      <trkpt lat="48.1664" lon="-2.73668">
        <ele>128.19999694824</ele>
        <time>2021-10-15T10:15:10.000Z</time>
      </trkpt>
      <trkpt lat="48.16637" lon="-2.73671">
        <ele>128.39999389648</ele>
        <time>2021-10-15T10:15:11.000Z</time>
      </trkpt>
      <trkpt lat="48.16634" lon="-2.73674">
        <ele>128.60000610352</ele>
        <time>2021-10-15T10:15:12.000Z</time>
      </trkpt>
      <trkpt lat="48.16631" lon="-2.73677">
        <ele>128.80000305176</ele>
        <time>2021-10-15T10:15:13.000Z</time>
      </trkpt>
      <trkpt lat="48.16629" lon="-2.7368">
        <ele>128.80000305176</ele>
        <time>2021-10-15T10:15:14.000Z</time>
      </trkpt>
      <trkpt lat="48.16626" lon="-2.73683">
        <ele>129.19999694824</ele>
        <time>2021-10-15T10:15:15.000Z</time>
      </trkpt>
      <trkpt lat="48.16624" lon="-2.73686">
        <ele>129.39999389648</ele>
        <time>2021-10-15T10:15:16.000Z</time>
      </trkpt>
      <trkpt lat="48.16621" lon="-2.73689">
        <ele>129.60000610352</ele>
        <time>2021-10-15T10:15:17.000Z</time>
      </trkpt>
      <trkpt lat="48.16618" lon="-2.73692">
        <ele>130</ele>
        <time>2021-10-15T10:15:18.000Z</time>
      </trkpt>
      <trkpt lat="48.16615" lon="-2.73695">
        <ele>130.19999694824</ele>
        <time>2021-10-15T10:15:19.000Z</time>
      </trkpt>
      <trkpt lat="48.16612" lon="-2.73698">
        <ele>130.60000610352</ele>
        <time>2021-10-15T10:15:20.000Z</time>
      </trkpt>
      <trkpt lat="48.16609" lon="-2.73702">
        <ele>130.80000305176</ele>
        <time>2021-10-15T10:15:21.000Z</time>
      </trkpt>
      <trkpt lat="48.16606" lon="-2.73705">
        <ele>131.19999694824</ele>
        <time>2021-10-15T10:15:22.000Z</time>
      </trkpt>
      <trkpt lat="48.16603" lon="-2.73707">
        <ele>131.60000610352</ele>
        <time>2021-10-15T10:15:23.000Z</time>
      </trkpt>
      <trkpt lat="48.166" lon="-2.7371">
        <ele>131.80000305176</ele>
        <time>2021-10-15T10:15:24.000Z</time>
      </trkpt>
      <trkpt lat="48.16597" lon="-2.73713">
        <ele>132</ele>
        <time>2021-10-15T10:15:25.000Z</time>
      </trkpt>
      <trkpt lat="48.16594" lon="-2.73716">
        <ele>132.39999389648</ele>
        <time>2021-10-15T10:15:26.000Z</time>
      </trkpt>
      <trkpt lat="48.16591" lon="-2.73717">
        <ele>132.60000610352</ele>
        <time>2021-10-15T10:15:27.000Z</time>
      </trkpt>
      <trkpt lat="48.16587" lon="-2.73717">
        <ele>133</ele>
        <time>2021-10-15T10:15:28.000Z</time>
      </trkpt>
      <trkpt lat="48.16584" lon="-2.73715">
        <ele>133.60000610352</ele>
        <time>2021-10-15T10:15:29.000Z</time>
      </trkpt>
      <trkpt lat="48.16582" lon="-2.73713">
        <ele>134</ele>
        <time>2021-10-15T10:15:30.000Z</time>
      </trkpt>
      <trkpt lat="48.16581" lon="-2.7371">
        <ele>134.39999389648</ele>
        <time>2021-10-15T10:15:31.000Z</time>
      </trkpt>
      <trkpt lat="48.1658" lon="-2.73708">
        <ele>134.60000610352</ele>
        <time>2021-10-15T10:15:32.000Z</time>
      </trkpt>
      <trkpt lat="48.1658" lon="-2.73706">
        <ele>134.80000305176</ele>
        <time>2021-10-15T10:15:33.000Z</time>
      </trkpt>
      <trkpt lat="48.1658" lon="-2.73705">
        <ele>135</ele>
        <time>2021-10-15T10:15:34.000Z</time>
      </trkpt>
      <trkpt lat="48.1658" lon="-2.73704">
        <ele>135</ele>
        <time>2021-10-15T10:15:35.000Z</time>
      </trkpt>
      <trkpt lat="48.16581" lon="-2.73704">
        <ele>134.80000305176</ele>
        <time>2021-10-15T10:15:36.000Z</time>
      </trkpt>
      <trkpt lat="48.16582" lon="-2.73705">
        <ele>134.60000610352</ele>
        <time>2021-10-15T10:15:37.000Z</time>
      </trkpt>
      <trkpt lat="48.16583" lon="-2.73707">
        <ele>134.19999694824</ele>
        <time>2021-10-15T10:15:38.000Z</time>
      </trkpt>
      <trkpt lat="48.16584" lon="-2.7371">
        <ele>134</ele>
        <time>2021-10-15T10:15:39.000Z</time>
      </trkpt>
      <trkpt lat="48.16585" lon="-2.73713">
        <ele>133.60000610352</ele>
        <time>2021-10-15T10:15:40.000Z</time>
      </trkpt>
      <trkpt lat="48.16586" lon="-2.73715">
        <ele>133.19999694824</ele>
        <time>2021-10-15T10:15:41.000Z</time>
      </trkpt>
      <trkpt lat="48.16588" lon="-2.73715">
        <ele>133</ele>
        <time>2021-10-15T10:15:42.000Z</time>
      </trkpt>
      <trkpt lat="48.1659" lon="-2.73713">
        <ele>132.80000305176</ele>
        <time>2021-10-15T10:15:43.000Z</time>
      </trkpt>
      <trkpt lat="48.1659" lon="-2.73709">
        <ele>133.19999694824</ele>
        <time>2021-10-15T10:15:44.000Z</time>
      </trkpt>
      <trkpt lat="48.1659" lon="-2.73704">
        <ele>133.60000610352</ele>
        <time>2021-10-15T10:15:45.000Z</time>
      </trkpt>
      <trkpt lat="48.16588" lon="-2.73699">
        <ele>134</ele>
        <time>2021-10-15T10:15:46.000Z</time>
      </trkpt>
      <trkpt lat="48.16587" lon="-2.73693">
        <ele>134.39999389648</ele>
        <time>2021-10-15T10:15:47.000Z</time>
      </trkpt>
      <trkpt lat="48.16585" lon="-2.73686">
        <ele>135.19999694824</ele>
        <time>2021-10-15T10:15:48.000Z</time>
      </trkpt>
      <trkpt lat="48.16583" lon="-2.73679">
        <ele>136</ele>
        <time>2021-10-15T10:15:49.000Z</time>
      </trkpt>
      <trkpt lat="48.16581" lon="-2.73671">
        <ele>136.80000305176</ele>
        <time>2021-10-15T10:15:50.000Z</time>
      </trkpt>
      <trkpt lat="48.16579" lon="-2.73663">
        <ele>137.60000610352</ele>
        <time>2021-10-15T10:15:51.000Z</time>
      </trkpt>
      <trkpt lat="48.16577" lon="-2.73655">
        <ele>138.19999694824</ele>
        <time>2021-10-15T10:15:52.000Z</time>
      </trkpt>
      <trkpt lat="48.16575" lon="-2.73646">
        <ele>138.80000305176</ele>
        <time>2021-10-15T10:15:53.000Z</time>
      </trkpt>
      <trkpt lat="48.16573" lon="-2.73636">
        <ele>139</ele>
        <time>2021-10-15T10:15:54.000Z</time>
      </trkpt>
      <trkpt lat="48.16571" lon="-2.73627">
        <ele>139.19999694824</ele>
        <time>2021-10-15T10:15:55.000Z</time>
      </trkpt>
      <trkpt lat="48.16569" lon="-2.73618">
        <ele>139.39999389648</ele>
        <time>2021-10-15T10:15:56.000Z</time>
      </trkpt>
      <trkpt lat="48.16567" lon="-2.73609">
        <ele>140.19999694824</ele>
        <time>2021-10-15T10:15:57.000Z</time>
      </trkpt>
      <trkpt lat="48.16565" lon="-2.736">
        <ele>141</ele>
        <time>2021-10-15T10:15:58.000Z</time>
      </trkpt>
      <trkpt lat="48.16563" lon="-2.7359">
        <ele>141</ele>
        <time>2021-10-15T10:15:59.000Z</time>
      </trkpt>
      <trkpt lat="48.16561" lon="-2.73581">
        <ele>141</ele>
        <time>2021-10-15T10:16:00.000Z</time>
      </trkpt>
      <trkpt lat="48.16559" lon="-2.73571">
        <ele>141.19999694824</ele>
        <time>2021-10-15T10:16:01.000Z</time>
      </trkpt>
      <trkpt lat="48.16557" lon="-2.73561">
        <ele>141.60000610352</ele>
        <time>2021-10-15T10:16:02.000Z</time>
      </trkpt>
      <trkpt lat="48.16555" lon="-2.73551">
        <ele>141.19999694824</ele>
        <time>2021-10-15T10:16:03.000Z</time>
      </trkpt>
      <trkpt lat="48.16554" lon="-2.73542">
        <ele>140.60000610352</ele>
        <time>2021-10-15T10:16:04.000Z</time>
      </trkpt>
      <trkpt lat="48.16552" lon="-2.73532">
        <ele>139.80000305176</ele>
        <time>2021-10-15T10:16:05.000Z</time>
      </trkpt>
      <trkpt lat="48.16551" lon="-2.73523">
        <ele>138.80000305176</ele>
        <time>2021-10-15T10:16:06.000Z</time>
      </trkpt>
      <trkpt lat="48.1655" lon="-2.73514">
        <ele>137.80000305176</ele>
        <time>2021-10-15T10:16:07.000Z</time>
      </trkpt>
      <trkpt lat="48.16549" lon="-2.73505">
        <ele>136.80000305176</ele>
        <time>2021-10-15T10:16:08.000Z</time>
      </trkpt>
      <trkpt lat="48.16548" lon="-2.73496">
        <ele>136.39999389648</ele>
        <time>2021-10-15T10:16:09.000Z</time>
      </trkpt>
      <trkpt lat="48.16547" lon="-2.73487">
        <ele>136.19999694824</ele>
        <time>2021-10-15T10:16:10.000Z</time>
      </trkpt>
      <trkpt lat="48.16546" lon="-2.73478">
        <ele>136</ele>
        <time>2021-10-15T10:16:11.000Z</time>
      </trkpt>
      <trkpt lat="48.16544" lon="-2.73469">
        <ele>135.60000610352</ele>
        <time>2021-10-15T10:16:12.000Z</time>
      </trkpt>
      <trkpt lat="48.16543" lon="-2.7346">
        <ele>135.39999389648</ele>
        <time>2021-10-15T10:16:13.000Z</time>
      </trkpt>
      <trkpt lat="48.16541" lon="-2.7345">
        <ele>135.19999694824</ele>
        <time>2021-10-15T10:16:14.000Z</time>
      </trkpt>
      <trkpt lat="48.16539" lon="-2.73441">
        <ele>135.19999694824</ele>
        <time>2021-10-15T10:16:15.000Z</time>
      </trkpt>
      <trkpt lat="48.16537" lon="-2.73431">
        <ele>135.39999389648</ele>
        <time>2021-10-15T10:16:16.000Z</time>
      </trkpt>
      <trkpt lat="48.16535" lon="-2.73422">
        <ele>135.39999389648</ele>
        <time>2021-10-15T10:16:17.000Z</time>
      </trkpt>
      <trkpt lat="48.16534" lon="-2.73412">
        <ele>135</ele>
        <time>2021-10-15T10:16:18.000Z</time>
      </trkpt>
      <trkpt lat="48.16532" lon="-2.73403">
        <ele>134.80000305176</ele>
        <time>2021-10-15T10:16:19.000Z</time>
      </trkpt>
      <trkpt lat="48.16531" lon="-2.73394">
        <ele>134.60000610352</ele>
        <time>2021-10-15T10:16:20.000Z</time>
      </trkpt>
      <trkpt lat="48.16529" lon="-2.73386">
        <ele>134.19999694824</ele>
        <time>2021-10-15T10:16:21.000Z</time>
      </trkpt>
      <trkpt lat="48.16527" lon="-2.73377">
        <ele>133.60000610352</ele>
        <time>2021-10-15T10:16:22.000Z</time>
      </trkpt>
      <trkpt lat="48.16526" lon="-2.73368">
        <ele>133</ele>
        <time>2021-10-15T10:16:23.000Z</time>
      </trkpt>
      <trkpt lat="48.16524" lon="-2.7336">
        <ele>132.39999389648</ele>
        <time>2021-10-15T10:16:24.000Z</time>
      </trkpt>
      <trkpt lat="48.16522" lon="-2.73351">
        <ele>131.80000305176</ele>
        <time>2021-10-15T10:16:25.000Z</time>
      </trkpt>
      <trkpt lat="48.16521" lon="-2.73342">
        <ele>131.19999694824</ele>
        <time>2021-10-15T10:16:26.000Z</time>
      </trkpt>
      <trkpt lat="48.1652" lon="-2.73334">
        <ele>130.60000610352</ele>
        <time>2021-10-15T10:16:27.000Z</time>
      </trkpt>
      <trkpt lat="48.16519" lon="-2.73326">
        <ele>130</ele>
        <time>2021-10-15T10:16:28.000Z</time>
      </trkpt>
      <trkpt lat="48.16517" lon="-2.73318">
        <ele>129.39999389648</ele>
        <time>2021-10-15T10:16:29.000Z</time>
      </trkpt>
      <trkpt lat="48.16516" lon="-2.7331">
        <ele>128.80000305176</ele>
        <time>2021-10-15T10:16:30.000Z</time>
      </trkpt>
      <trkpt lat="48.16514" lon="-2.73303">
        <ele>128.60000610352</ele>
        <time>2021-10-15T10:16:31.000Z</time>
      </trkpt>
      <trkpt lat="48.16512" lon="-2.73296">
        <ele>128.19999694824</ele>
        <time>2021-10-15T10:16:32.000Z</time>
      </trkpt>
      <trkpt lat="48.16509" lon="-2.7329">
        <ele>127.80000305176</ele>
        <time>2021-10-15T10:16:33.000Z</time>
      </trkpt>
      <trkpt lat="48.16508" lon="-2.73284">
        <ele>127.59999847412</ele>
        <time>2021-10-15T10:16:34.000Z</time>
      </trkpt>
      <trkpt lat="48.16506" lon="-2.73279">
        <ele>127.40000152588</ele>
        <time>2021-10-15T10:16:35.000Z</time>
      </trkpt>
      <trkpt lat="48.16505" lon="-2.73275">
        <ele>127.19999694824</ele>
        <time>2021-10-15T10:16:36.000Z</time>
      </trkpt>
      <trkpt lat="48.16505" lon="-2.73271">
        <ele>127</ele>
        <time>2021-10-15T10:16:37.000Z</time>
      </trkpt>
      <trkpt lat="48.16505" lon="-2.73268">
        <ele>127</ele>
        <time>2021-10-15T10:16:38.000Z</time>
      </trkpt>
      <trkpt lat="48.16505" lon="-2.73265">
        <ele>127</ele>
        <time>2021-10-15T10:16:39.000Z</time>
      </trkpt>
      <trkpt lat="48.16503" lon="-2.73262">
        <ele>127</ele>
        <time>2021-10-15T10:16:40.000Z</time>
      </trkpt>
      <trkpt lat="48.16501" lon="-2.73259">
        <ele>127</ele>
        <time>2021-10-15T10:16:41.000Z</time>
      </trkpt>
      <trkpt lat="48.16499" lon="-2.73256">
        <ele>127</ele>
        <time>2021-10-15T10:16:42.000Z</time>
      </trkpt>
      <trkpt lat="48.16497" lon="-2.73253">
        <ele>126.80000305176</ele>
        <time>2021-10-15T10:16:43.000Z</time>
      </trkpt>
      <trkpt lat="48.16495" lon="-2.73251">
        <ele>126.80000305176</ele>
        <time>2021-10-15T10:16:44.000Z</time>
      </trkpt>
      <trkpt lat="48.16493" lon="-2.73248">
        <ele>127</ele>
        <time>2021-10-15T10:16:45.000Z</time>
      </trkpt>
      <trkpt lat="48.16491" lon="-2.73246">
        <ele>127</ele>
        <time>2021-10-15T10:16:46.000Z</time>
      </trkpt>
      <trkpt lat="48.16488" lon="-2.73243">
        <ele>127</ele>
        <time>2021-10-15T10:16:47.000Z</time>
      </trkpt>
      <trkpt lat="48.16486" lon="-2.7324">
        <ele>127</ele>
        <time>2021-10-15T10:16:48.000Z</time>
      </trkpt>
      <trkpt lat="48.16484" lon="-2.73237">
        <ele>127</ele>
        <time>2021-10-15T10:16:49.000Z</time>
      </trkpt>
      <trkpt lat="48.16481" lon="-2.73233">
        <ele>127.19999694824</ele>
        <time>2021-10-15T10:16:50.000Z</time>
      </trkpt>
      <trkpt lat="48.16478" lon="-2.73229">
        <ele>127.40000152588</ele>
        <time>2021-10-15T10:16:51.000Z</time>
      </trkpt>
      <trkpt lat="48.16475" lon="-2.73225">
        <ele>127.59999847412</ele>
        <time>2021-10-15T10:16:52.000Z</time>
      </trkpt>
      <trkpt lat="48.16472" lon="-2.73221">
        <ele>127.59999847412</ele>
        <time>2021-10-15T10:16:53.000Z</time>
      </trkpt>
      <trkpt lat="48.16468" lon="-2.73216">
        <ele>127.80000305176</ele>
        <time>2021-10-15T10:16:54.000Z</time>
      </trkpt>
      <trkpt lat="48.16465" lon="-2.73212">
        <ele>128</ele>
        <time>2021-10-15T10:16:55.000Z</time>
      </trkpt>
      <trkpt lat="48.16462" lon="-2.73207">
        <ele>128</ele>
        <time>2021-10-15T10:16:56.000Z</time>
      </trkpt>
      <trkpt lat="48.16458" lon="-2.73202">
        <ele>128.39999389648</ele>
        <time>2021-10-15T10:16:57.000Z</time>
      </trkpt>
      <trkpt lat="48.16455" lon="-2.73198">
        <ele>128.60000610352</ele>
        <time>2021-10-15T10:16:58.000Z</time>
      </trkpt>
      <trkpt lat="48.16452" lon="-2.73193">
        <ele>128.80000305176</ele>
        <time>2021-10-15T10:16:59.000Z</time>
      </trkpt>
      <trkpt lat="48.16449" lon="-2.73188">
        <ele>129</ele>
        <time>2021-10-15T10:17:00.000Z</time>
      </trkpt>
      <trkpt lat="48.16445" lon="-2.73184">
        <ele>129</ele>
        <time>2021-10-15T10:17:01.000Z</time>
      </trkpt>
      <trkpt lat="48.16441" lon="-2.73179">
        <ele>129</ele>
        <time>2021-10-15T10:17:02.000Z</time>
      </trkpt>
      <trkpt lat="48.16438" lon="-2.73175">
        <ele>129</ele>
        <time>2021-10-15T10:17:03.000Z</time>
      </trkpt>
      <trkpt lat="48.16435" lon="-2.73171">
        <ele>129</ele>
        <time>2021-10-15T10:17:04.000Z</time>
      </trkpt>
      <trkpt lat="48.16432" lon="-2.73167">
        <ele>128.80000305176</ele>
        <time>2021-10-15T10:17:05.000Z</time>
      </trkpt>
      <trkpt lat="48.16429" lon="-2.73165">
        <ele>128.60000610352</ele>
        <time>2021-10-15T10:17:06.000Z</time>
      </trkpt>
      <trkpt lat="48.16426" lon="-2.73163">
        <ele>128.60000610352</ele>
        <time>2021-10-15T10:17:07.000Z</time>
      </trkpt>
      <trkpt lat="48.16424" lon="-2.73162">
        <ele>128.60000610352</ele>
        <time>2021-10-15T10:17:08.000Z</time>
      </trkpt>
      <trkpt lat="48.16423" lon="-2.73161">
        <ele>128.60000610352</ele>
        <time>2021-10-15T10:17:09.000Z</time>
      </trkpt>
      <trkpt lat="48.16423" lon="-2.7316">
        <ele>128.60000610352</ele>
        <time>2021-10-15T10:17:10.000Z</time>
      </trkpt>
      <trkpt lat="48.16423" lon="-2.7316">
        <ele>128.60000610352</ele>
        <time>2021-10-15T10:17:11.000Z</time>
      </trkpt>
      <trkpt lat="48.16423" lon="-2.7316">
        <ele>128.60000610352</ele>
        <time>2021-10-15T10:17:12.000Z</time>
      </trkpt>
      <trkpt lat="48.16423" lon="-2.7316">
        <ele>128.60000610352</ele>
        <time>2021-10-15T10:17:13.000Z</time>
      </trkpt>
      <trkpt lat="48.16423" lon="-2.73159">
        <ele>128.60000610352</ele>
        <time>2021-10-15T10:17:14.000Z</time>
      </trkpt>
      <trkpt lat="48.16424" lon="-2.73159">
        <ele>128.60000610352</ele>
        <time>2021-10-15T10:17:15.000Z</time>
      </trkpt>
      <trkpt lat="48.16424" lon="-2.73159">
        <ele>128.60000610352</ele>
        <time>2021-10-15T10:17:16.000Z</time>
      </trkpt>
      <trkpt lat="48.16424" lon="-2.73159">
        <ele>128.60000610352</ele>
        <time>2021-10-15T10:17:17.000Z</time>
      </trkpt>
      <trkpt lat="48.16424" lon="-2.73159">
        <ele>128.39999389648</ele>
        <time>2021-10-15T10:17:18.000Z</time>
      </trkpt>
      <trkpt lat="48.16424" lon="-2.73159">
        <ele>128.39999389648</ele>
        <time>2021-10-15T10:17:19.000Z</time>
      </trkpt>
      <trkpt lat="48.16424" lon="-2.73159">
        <ele>128.39999389648</ele>
        <time>2021-10-15T10:17:20.000Z</time>
      </trkpt>
      <trkpt lat="48.16424" lon="-2.73159">
        <ele>128.39999389648</ele>
        <time>2021-10-15T10:17:21.000Z</time>
      </trkpt>
      <trkpt lat="48.16424" lon="-2.73159">
        <ele>128.39999389648</ele>
        <time>2021-10-15T10:17:22.000Z</time>
      </trkpt>
      <trkpt lat="48.16424" lon="-2.73159">
        <ele>128.39999389648</ele>
        <time>2021-10-15T10:17:23.000Z</time>
      </trkpt>
      <trkpt lat="48.16424" lon="-2.73159">
        <ele>128.39999389648</ele>
        <time>2021-10-15T10:17:24.000Z</time>
      </trkpt>
      <trkpt lat="48.16424" lon="-2.73159">
        <ele>128.39999389648</ele>
        <time>2021-10-15T10:17:25.000Z</time>
      </trkpt>
      <trkpt lat="48.16424" lon="-2.73159">
        <ele>128.60000610352</ele>
        <time>2021-10-15T10:17:26.000Z</time>
      </trkpt>
      <trkpt lat="48.16424" lon="-2.73159">
        <ele>128.60000610352</ele>
        <time>2021-10-15T10:17:27.000Z</time>
      </trkpt>
      <trkpt lat="48.16423" lon="-2.73159">
        <ele>128.60000610352</ele>
        <time>2021-10-15T10:17:28.000Z</time>
      </trkpt>
      <trkpt lat="48.16423" lon="-2.73159">
        <ele>128.60000610352</ele>
        <time>2021-10-15T10:17:29.000Z</time>
      </trkpt>
      <trkpt lat="48.16423" lon="-2.73159">
        <ele>128.60000610352</ele>
        <time>2021-10-15T10:17:30.000Z</time>
      </trkpt>
      <trkpt lat="48.16424" lon="-2.73159">
        <ele>128.60000610352</ele>
        <time>2021-10-15T10:17:31.000Z</time>
      </trkpt>
      <trkpt lat="48.16424" lon="-2.73159">
        <ele>128.60000610352</ele>
        <time>2021-10-15T10:17:32.000Z</time>
      </trkpt>
      <trkpt lat="48.16424" lon="-2.7316">
        <ele>128.60000610352</ele>
        <time>2021-10-15T10:17:33.000Z</time>
      </trkpt>
      <trkpt lat="48.16424" lon="-2.73159">
        <ele>128.39999389648</ele>
        <time>2021-10-15T10:17:34.000Z</time>
      </trkpt>
      <trkpt lat="48.16425" lon="-2.73158">
        <ele>128.39999389648</ele>
        <time>2021-10-15T10:17:35.000Z</time>
      </trkpt>
      <trkpt lat="48.16426" lon="-2.73158">
        <ele>128.39999389648</ele>
        <time>2021-10-15T10:17:36.000Z</time>
      </trkpt>
      <trkpt lat="48.16428" lon="-2.73158">
        <ele>128.39999389648</ele>
        <time>2021-10-15T10:17:37.000Z</time>
      </trkpt>
      <trkpt lat="48.1643" lon="-2.7316">
        <ele>128.60000610352</ele>
        <time>2021-10-15T10:17:38.000Z</time>
      </trkpt>
      <trkpt lat="48.16433" lon="-2.73163">
        <ele>128.60000610352</ele>
        <time>2021-10-15T10:17:39.000Z</time>
      </trkpt>
      <trkpt lat="48.16436" lon="-2.73166">
        <ele>128.80000305176</ele>
        <time>2021-10-15T10:17:40.000Z</time>
      </trkpt>
      <trkpt lat="48.16439" lon="-2.7317">
        <ele>128.80000305176</ele>
        <time>2021-10-15T10:17:41.000Z</time>
      </trkpt>
      <trkpt lat="48.16442" lon="-2.73174">
        <ele>128.80000305176</ele>
        <time>2021-10-15T10:17:42.000Z</time>
      </trkpt>
      <trkpt lat="48.16445" lon="-2.73178">
        <ele>128.80000305176</ele>
        <time>2021-10-15T10:17:43.000Z</time>
      </trkpt>
      <trkpt lat="48.16448" lon="-2.73182">
        <ele>128.80000305176</ele>
        <time>2021-10-15T10:17:44.000Z</time>
      </trkpt>
      <trkpt lat="48.16451" lon="-2.73187">
        <ele>128.80000305176</ele>
        <time>2021-10-15T10:17:45.000Z</time>
      </trkpt>
      <trkpt lat="48.16455" lon="-2.73191">
        <ele>128.60000610352</ele>
        <time>2021-10-15T10:17:46.000Z</time>
      </trkpt>
      <trkpt lat="48.16458" lon="-2.73196">
        <ele>128.39999389648</ele>
        <time>2021-10-15T10:17:47.000Z</time>
      </trkpt>
      <trkpt lat="48.16461" lon="-2.732">
        <ele>128.19999694824</ele>
        <time>2021-10-15T10:17:48.000Z</time>
      </trkpt>
      <trkpt lat="48.16465" lon="-2.73205">
        <ele>128</ele>
        <time>2021-10-15T10:17:49.000Z</time>
      </trkpt>
      <trkpt lat="48.16468" lon="-2.7321">
        <ele>127.80000305176</ele>
        <time>2021-10-15T10:17:50.000Z</time>
      </trkpt>
      <trkpt lat="48.16471" lon="-2.73214">
        <ele>127.59999847412</ele>
        <time>2021-10-15T10:17:51.000Z</time>
      </trkpt>
      <trkpt lat="48.16474" lon="-2.73219">
        <ele>127.59999847412</ele>
        <time>2021-10-15T10:17:52.000Z</time>
      </trkpt>
      <trkpt lat="48.16478" lon="-2.73224">
        <ele>127.40000152588</ele>
        <time>2021-10-15T10:17:53.000Z</time>
      </trkpt>
      <trkpt lat="48.16481" lon="-2.73228">
        <ele>127.40000152588</ele>
        <time>2021-10-15T10:17:54.000Z</time>
      </trkpt>
      <trkpt lat="48.16484" lon="-2.73233">
        <ele>127</ele>
        <time>2021-10-15T10:17:55.000Z</time>
      </trkpt>
      <trkpt lat="48.16487" lon="-2.73237">
        <ele>127</ele>
        <time>2021-10-15T10:17:56.000Z</time>
      </trkpt>
      <trkpt lat="48.16491" lon="-2.73242">
        <ele>127</ele>
        <time>2021-10-15T10:17:57.000Z</time>
      </trkpt>
      <trkpt lat="48.16494" lon="-2.73246">
        <ele>126.80000305176</ele>
        <time>2021-10-15T10:17:58.000Z</time>
      </trkpt>
      <trkpt lat="48.16497" lon="-2.7325">
        <ele>126.80000305176</ele>
        <time>2021-10-15T10:17:59.000Z</time>
      </trkpt>
      <trkpt lat="48.165" lon="-2.73254">
        <ele>127</ele>
        <time>2021-10-15T10:18:00.000Z</time>
      </trkpt>
      <trkpt lat="48.16503" lon="-2.73257">
        <ele>127</ele>
        <time>2021-10-15T10:18:01.000Z</time>
      </trkpt>
      <trkpt lat="48.16506" lon="-2.73258">
        <ele>127</ele>
        <time>2021-10-15T10:18:02.000Z</time>
      </trkpt>
      <trkpt lat="48.16508" lon="-2.73257">
        <ele>127</ele>
        <time>2021-10-15T10:18:03.000Z</time>
      </trkpt>
      <trkpt lat="48.16509" lon="-2.73255">
        <ele>127</ele>
        <time>2021-10-15T10:18:04.000Z</time>
      </trkpt>
      <trkpt lat="48.1651" lon="-2.73254">
        <ele>127</ele>
        <time>2021-10-15T10:18:05.000Z</time>
      </trkpt>
      <trkpt lat="48.1651" lon="-2.73253">
        <ele>126.80000305176</ele>
        <time>2021-10-15T10:18:06.000Z</time>
      </trkpt>
      <trkpt lat="48.1651" lon="-2.73252">
        <ele>126.80000305176</ele>
        <time>2021-10-15T10:18:07.000Z</time>
      </trkpt>
      <trkpt lat="48.1651" lon="-2.73252">
        <ele>126.80000305176</ele>
        <time>2021-10-15T10:18:08.000Z</time>
      </trkpt>
      <trkpt lat="48.16509" lon="-2.73252">
        <ele>126.80000305176</ele>
        <time>2021-10-15T10:18:09.000Z</time>
      </trkpt>
      <trkpt lat="48.16509" lon="-2.73251">
        <ele>126.80000305176</ele>
        <time>2021-10-15T10:18:10.000Z</time>
      </trkpt>
      <trkpt lat="48.16509" lon="-2.73251">
        <ele>126.80000305176</ele>
        <time>2021-10-15T10:18:11.000Z</time>
      </trkpt>
      <trkpt lat="48.16509" lon="-2.73251">
        <ele>126.80000305176</ele>
        <time>2021-10-15T10:18:12.000Z</time>
      </trkpt>
      <trkpt lat="48.16509" lon="-2.73251">
        <ele>126.80000305176</ele>
        <time>2021-10-15T10:18:13.000Z</time>
      </trkpt>
      <trkpt lat="48.16509" lon="-2.73251">
        <ele>126.80000305176</ele>
        <time>2021-10-15T10:18:14.000Z</time>
      </trkpt>
      <trkpt lat="48.16509" lon="-2.73251">
        <ele>126.80000305176</ele>
        <time>2021-10-15T10:18:15.000Z</time>
      </trkpt>
      <trkpt lat="48.16509" lon="-2.73251">
        <ele>126.80000305176</ele>
        <time>2021-10-15T10:18:16.000Z</time>
      </trkpt>
      <trkpt lat="48.16509" lon="-2.73251">
        <ele>126.80000305176</ele>
        <time>2021-10-15T10:18:17.000Z</time>
      </trkpt>
      <trkpt lat="48.16509" lon="-2.73251">
        <ele>126.80000305176</ele>
        <time>2021-10-15T10:18:18.000Z</time>
      </trkpt>
      <trkpt lat="48.16509" lon="-2.73251">
        <ele>126.80000305176</ele>
        <time>2021-10-15T10:18:19.000Z</time>
      </trkpt>
      <trkpt lat="48.16509" lon="-2.73251">
        <ele>126.80000305176</ele>
        <time>2021-10-15T10:18:20.000Z</time>
      </trkpt>
      <trkpt lat="48.16509" lon="-2.73251">
        <ele>126.80000305176</ele>
        <time>2021-10-15T10:18:21.000Z</time>
      </trkpt>
      <trkpt lat="48.1651" lon="-2.73251">
        <ele>126.80000305176</ele>
        <time>2021-10-15T10:18:22.000Z</time>
      </trkpt>
      <trkpt lat="48.16509" lon="-2.73251">
        <ele>126.80000305176</ele>
        <time>2021-10-15T10:18:23.000Z</time>
      </trkpt>
      <trkpt lat="48.16509" lon="-2.73251">
        <ele>126.80000305176</ele>
        <time>2021-10-15T10:18:24.000Z</time>
      </trkpt>
      <trkpt lat="48.16509" lon="-2.73251">
        <ele>126.80000305176</ele>
        <time>2021-10-15T10:18:25.000Z</time>
      </trkpt>
      <trkpt lat="48.16509" lon="-2.73251">
        <ele>126.80000305176</ele>
        <time>2021-10-15T10:18:26.000Z</time>
      </trkpt>
      <trkpt lat="48.16509" lon="-2.73251">
        <ele>126.80000305176</ele>
        <time>2021-10-15T10:18:27.000Z</time>
      </trkpt>
      <trkpt lat="48.16509" lon="-2.73251">
        <ele>126.80000305176</ele>
        <time>2021-10-15T10:18:28.000Z</time>
      </trkpt>
      <trkpt lat="48.16509" lon="-2.73251">
        <ele>126.80000305176</ele>
        <time>2021-10-15T10:18:29.000Z</time>
      </trkpt>
      <trkpt lat="48.16509" lon="-2.73251">
        <ele>126.80000305176</ele>
        <time>2021-10-15T10:18:30.000Z</time>
      </trkpt>
      <trkpt lat="48.16509" lon="-2.73251">
        <ele>126.80000305176</ele>
        <time>2021-10-15T10:18:31.000Z</time>
      </trkpt>
      <trkpt lat="48.16509" lon="-2.73251">
        <ele>126.80000305176</ele>
        <time>2021-10-15T10:18:32.000Z</time>
      </trkpt>
      <trkpt lat="48.16509" lon="-2.73251">
        <ele>126.80000305176</ele>
        <time>2021-10-15T10:18:33.000Z</time>
      </trkpt>
      <trkpt lat="48.16509" lon="-2.73251">
        <ele>126.80000305176</ele>
        <time>2021-10-15T10:18:34.000Z</time>
      </trkpt>
      <trkpt lat="48.16509" lon="-2.73251">
        <ele>126.80000305176</ele>
        <time>2021-10-15T10:18:35.000Z</time>
      </trkpt>
      <trkpt lat="48.16509" lon="-2.73251">
        <ele>126.80000305176</ele>
        <time>2021-10-15T10:18:36.000Z</time>
      </trkpt>
      <trkpt lat="48.16509" lon="-2.73251">
        <ele>126.80000305176</ele>
        <time>2021-10-15T10:18:37.000Z</time>
      </trkpt>
      <trkpt lat="48.16509" lon="-2.73251">
        <ele>126.80000305176</ele>
        <time>2021-10-15T10:18:38.000Z</time>
      </trkpt>
      <trkpt lat="48.16509" lon="-2.73251">
        <ele>126.80000305176</ele>
        <time>2021-10-15T10:18:39.000Z</time>
      </trkpt>
      <trkpt lat="48.16509" lon="-2.73251">
        <ele>126.80000305176</ele>
        <time>2021-10-15T10:18:40.000Z</time>
      </trkpt>
      <trkpt lat="48.16509" lon="-2.73251">
        <ele>126.80000305176</ele>
        <time>2021-10-15T10:18:41.000Z</time>
      </trkpt>
      <trkpt lat="48.16509" lon="-2.73251">
        <ele>126.80000305176</ele>
        <time>2021-10-15T10:18:42.000Z</time>
      </trkpt>
      <trkpt lat="48.16509" lon="-2.73251">
        <ele>126.80000305176</ele>
        <time>2021-10-15T10:18:43.000Z</time>
      </trkpt>
      <trkpt lat="48.16509" lon="-2.73251">
        <ele>126.80000305176</ele>
        <time>2021-10-15T10:18:44.000Z</time>
      </trkpt>
      <trkpt lat="48.16509" lon="-2.73251">
        <ele>126.80000305176</ele>
        <time>2021-10-15T10:18:45.000Z</time>
      </trkpt>
      <trkpt lat="48.16509" lon="-2.73251">
        <ele>126.80000305176</ele>
        <time>2021-10-15T10:18:46.000Z</time>
      </trkpt>
      <trkpt lat="48.16509" lon="-2.73251">
        <ele>126.80000305176</ele>
        <time>2021-10-15T10:18:47.000Z</time>
      </trkpt>
      <trkpt lat="48.16509" lon="-2.73251">
        <ele>126.80000305176</ele>
        <time>2021-10-15T10:18:48.000Z</time>
      </trkpt>
      <trkpt lat="48.16509" lon="-2.73251">
        <ele>126.80000305176</ele>
        <time>2021-10-15T10:18:49.000Z</time>
      </trkpt>
      <trkpt lat="48.16509" lon="-2.73251">
        <ele>126.80000305176</ele>
        <time>2021-10-15T10:18:50.000Z</time>
      </trkpt>
      <trkpt lat="48.1651" lon="-2.7325">
        <ele>126.80000305176</ele>
        <time>2021-10-15T10:18:51.000Z</time>
      </trkpt>
      <trkpt lat="48.16511" lon="-2.73248">
        <ele>126.59999847412</ele>
        <time>2021-10-15T10:18:52.000Z</time>
      </trkpt>
      <trkpt lat="48.16511" lon="-2.73246">
        <ele>126.59999847412</ele>
        <time>2021-10-15T10:18:53.000Z</time>
      </trkpt>
      <trkpt lat="48.16512" lon="-2.73243">
        <ele>126.59999847412</ele>
        <time>2021-10-15T10:18:54.000Z</time>
      </trkpt>
      <trkpt lat="48.16513" lon="-2.73241">
        <ele>126.40000152588</ele>
        <time>2021-10-15T10:18:55.000Z</time>
      </trkpt>
      <trkpt lat="48.16513" lon="-2.73237">
        <ele>126.40000152588</ele>
        <time>2021-10-15T10:18:56.000Z</time>
      </trkpt>
      <trkpt lat="48.16512" lon="-2.73233">
        <ele>126.19999694824</ele>
        <time>2021-10-15T10:18:57.000Z</time>
      </trkpt>
      <trkpt lat="48.16511" lon="-2.7323">
        <ele>126.19999694824</ele>
        <time>2021-10-15T10:18:58.000Z</time>
      </trkpt>
      <trkpt lat="48.1651" lon="-2.73227">
        <ele>126.19999694824</ele>
        <time>2021-10-15T10:18:59.000Z</time>
      </trkpt>
      <trkpt lat="48.16509" lon="-2.73225">
        <ele>126.19999694824</ele>
        <time>2021-10-15T10:19:00.000Z</time>
      </trkpt>
      <trkpt lat="48.16508" lon="-2.73224">
        <ele>126.19999694824</ele>
        <time>2021-10-15T10:19:01.000Z</time>
      </trkpt>
      <trkpt lat="48.16508" lon="-2.73224">
        <ele>126.19999694824</ele>
        <time>2021-10-15T10:19:02.000Z</time>
      </trkpt>
      <trkpt lat="48.16508" lon="-2.73224">
        <ele>126.19999694824</ele>
        <time>2021-10-15T10:19:03.000Z</time>
      </trkpt>
      <trkpt lat="48.16507" lon="-2.73225">
        <ele>126.19999694824</ele>
        <time>2021-10-15T10:19:04.000Z</time>
      </trkpt>
      <trkpt lat="48.16506" lon="-2.73226">
        <ele>126.40000152588</ele>
        <time>2021-10-15T10:19:05.000Z</time>
      </trkpt>
      <trkpt lat="48.16505" lon="-2.73227">
        <ele>126.40000152588</ele>
        <time>2021-10-15T10:19:06.000Z</time>
      </trkpt>
      <trkpt lat="48.16504" lon="-2.73228">
        <ele>126.40000152588</ele>
        <time>2021-10-15T10:19:07.000Z</time>
      </trkpt>
      <trkpt lat="48.16503" lon="-2.73228">
        <ele>126.59999847412</ele>
        <time>2021-10-15T10:19:08.000Z</time>
      </trkpt>
      <trkpt lat="48.16501" lon="-2.73227">
        <ele>126.59999847412</ele>
        <time>2021-10-15T10:19:09.000Z</time>
      </trkpt>
      <trkpt lat="48.16499" lon="-2.73225">
        <ele>126.59999847412</ele>
        <time>2021-10-15T10:19:10.000Z</time>
      </trkpt>
      <trkpt lat="48.16497" lon="-2.73221">
        <ele>126.59999847412</ele>
        <time>2021-10-15T10:19:11.000Z</time>
      </trkpt>
      <trkpt lat="48.16494" lon="-2.73216">
        <ele>126.80000305176</ele>
        <time>2021-10-15T10:19:12.000Z</time>
      </trkpt>
      <trkpt lat="48.16492" lon="-2.7321">
        <ele>127</ele>
        <time>2021-10-15T10:19:13.000Z</time>
      </trkpt>
      <trkpt lat="48.16491" lon="-2.73204">
        <ele>127</ele>
        <time>2021-10-15T10:19:14.000Z</time>
      </trkpt>
      <trkpt lat="48.1649" lon="-2.73197">
        <ele>127</ele>
        <time>2021-10-15T10:19:15.000Z</time>
      </trkpt>
      <trkpt lat="48.16489" lon="-2.73191">
        <ele>126.59999847412</ele>
        <time>2021-10-15T10:19:16.000Z</time>
      </trkpt>
      <trkpt lat="48.16488" lon="-2.73184">
        <ele>126.40000152588</ele>
        <time>2021-10-15T10:19:17.000Z</time>
      </trkpt>
      <trkpt lat="48.16487" lon="-2.73177">
        <ele>126.19999694824</ele>
        <time>2021-10-15T10:19:18.000Z</time>
      </trkpt>
      <trkpt lat="48.16487" lon="-2.7317">
        <ele>126.19999694824</ele>
        <time>2021-10-15T10:19:19.000Z</time>
      </trkpt>
      <trkpt lat="48.16486" lon="-2.73164">
        <ele>126.40000152588</ele>
        <time>2021-10-15T10:19:20.000Z</time>
      </trkpt>
      <trkpt lat="48.16486" lon="-2.73158">
        <ele>126.40000152588</ele>
        <time>2021-10-15T10:19:21.000Z</time>
      </trkpt>
      <trkpt lat="48.16486" lon="-2.73151">
        <ele>126.40000152588</ele>
        <time>2021-10-15T10:19:22.000Z</time>
      </trkpt>
      <trkpt lat="48.16486" lon="-2.73144">
        <ele>126.19999694824</ele>
        <time>2021-10-15T10:19:23.000Z</time>
      </trkpt>
      <trkpt lat="48.16486" lon="-2.73137">
        <ele>126.19999694824</ele>
        <time>2021-10-15T10:19:24.000Z</time>
      </trkpt>
      <trkpt lat="48.16486" lon="-2.7313">
        <ele>126.19999694824</ele>
        <time>2021-10-15T10:19:25.000Z</time>
      </trkpt>
      <trkpt lat="48.16486" lon="-2.73122">
        <ele>126.19999694824</ele>
        <time>2021-10-15T10:19:26.000Z</time>
      </trkpt>
      <trkpt lat="48.16486" lon="-2.73115">
        <ele>126</ele>
        <time>2021-10-15T10:19:27.000Z</time>
      </trkpt>
      <trkpt lat="48.16487" lon="-2.73107">
        <ele>125.80000305176</ele>
        <time>2021-10-15T10:19:28.000Z</time>
      </trkpt>
      <trkpt lat="48.16487" lon="-2.73098">
        <ele>125.40000152588</ele>
        <time>2021-10-15T10:19:29.000Z</time>
      </trkpt>
      <trkpt lat="48.16487" lon="-2.7309">
        <ele>125.19999694824</ele>
        <time>2021-10-15T10:19:30.000Z</time>
      </trkpt>
      <trkpt lat="48.16487" lon="-2.73082">
        <ele>124.80000305176</ele>
        <time>2021-10-15T10:19:31.000Z</time>
      </trkpt>
      <trkpt lat="48.16488" lon="-2.73073">
        <ele>124.40000152588</ele>
        <time>2021-10-15T10:19:32.000Z</time>
      </trkpt>
      <trkpt lat="48.16489" lon="-2.73065">
        <ele>124.19999694824</ele>
        <time>2021-10-15T10:19:33.000Z</time>
      </trkpt>
      <trkpt lat="48.1649" lon="-2.73056">
        <ele>124</ele>
        <time>2021-10-15T10:19:34.000Z</time>
      </trkpt>
      <trkpt lat="48.16491" lon="-2.73047">
        <ele>124</ele>
        <time>2021-10-15T10:19:35.000Z</time>
      </trkpt>
      <trkpt lat="48.16492" lon="-2.73038">
        <ele>124</ele>
        <time>2021-10-15T10:19:36.000Z</time>
      </trkpt>
      <trkpt lat="48.16493" lon="-2.7303">
        <ele>123.80000305176</ele>
        <time>2021-10-15T10:19:37.000Z</time>
      </trkpt>
      <trkpt lat="48.16494" lon="-2.73021">
        <ele>123.40000152588</ele>
        <time>2021-10-15T10:19:38.000Z</time>
      </trkpt>
      <trkpt lat="48.16495" lon="-2.73012">
        <ele>123</ele>
        <time>2021-10-15T10:19:39.000Z</time>
      </trkpt>
      <trkpt lat="48.16497" lon="-2.73005">
        <ele>122.80000305176</ele>
        <time>2021-10-15T10:19:40.000Z</time>
      </trkpt>
      <trkpt lat="48.16498" lon="-2.72999">
        <ele>122.40000152588</ele>
        <time>2021-10-15T10:19:41.000Z</time>
      </trkpt>
      <trkpt lat="48.16499" lon="-2.72995">
        <ele>122.40000152588</ele>
        <time>2021-10-15T10:19:42.000Z</time>
      </trkpt>
      <trkpt lat="48.165" lon="-2.72992">
        <ele>122.40000152588</ele>
        <time>2021-10-15T10:19:43.000Z</time>
      </trkpt>
      <trkpt lat="48.165" lon="-2.72992">
        <ele>122.40000152588</ele>
        <time>2021-10-15T10:19:44.000Z</time>
      </trkpt>
      <trkpt lat="48.16499" lon="-2.72992">
        <ele>122.40000152588</ele>
        <time>2021-10-15T10:19:45.000Z</time>
      </trkpt>
      <trkpt lat="48.16499" lon="-2.72992">
        <ele>122.40000152588</ele>
        <time>2021-10-15T10:19:46.000Z</time>
      </trkpt>
      <trkpt lat="48.16499" lon="-2.72992">
        <ele>122.40000152588</ele>
        <time>2021-10-15T10:19:47.000Z</time>
      </trkpt>
      <trkpt lat="48.165" lon="-2.72992">
        <ele>122.40000152588</ele>
        <time>2021-10-15T10:19:48.000Z</time>
      </trkpt>
      <trkpt lat="48.165" lon="-2.72992">
        <ele>122.40000152588</ele>
        <time>2021-10-15T10:19:49.000Z</time>
      </trkpt>
      <trkpt lat="48.165" lon="-2.72992">
        <ele>122.40000152588</ele>
        <time>2021-10-15T10:19:50.000Z</time>
      </trkpt>
      <trkpt lat="48.165" lon="-2.72993">
        <ele>122.40000152588</ele>
        <time>2021-10-15T10:19:51.000Z</time>
      </trkpt>
      <trkpt lat="48.165" lon="-2.72993">
        <ele>122.40000152588</ele>
        <time>2021-10-15T10:19:52.000Z</time>
      </trkpt>
      <trkpt lat="48.165" lon="-2.72995">
        <ele>122.40000152588</ele>
        <time>2021-10-15T10:19:53.000Z</time>
      </trkpt>
      <trkpt lat="48.16499" lon="-2.72998">
        <ele>122.40000152588</ele>
        <time>2021-10-15T10:19:54.000Z</time>
      </trkpt>
      <trkpt lat="48.16498" lon="-2.73">
        <ele>122.40000152588</ele>
        <time>2021-10-15T10:19:55.000Z</time>
      </trkpt>
      <trkpt lat="48.16498" lon="-2.73002">
        <ele>122.59999847412</ele>
        <time>2021-10-15T10:19:56.000Z</time>
      </trkpt>
      <trkpt lat="48.16497" lon="-2.73004">
        <ele>122.59999847412</ele>
        <time>2021-10-15T10:19:57.000Z</time>
      </trkpt>
      <trkpt lat="48.16497" lon="-2.73007">
        <ele>122.80000305176</ele>
        <time>2021-10-15T10:19:58.000Z</time>
      </trkpt>
      <trkpt lat="48.16497" lon="-2.73009">
        <ele>122.80000305176</ele>
        <time>2021-10-15T10:19:59.000Z</time>
      </trkpt>
      <trkpt lat="48.16498" lon="-2.73012">
        <ele>123</ele>
        <time>2021-10-15T10:20:00.000Z</time>
      </trkpt>
      <trkpt lat="48.16499" lon="-2.73014">
        <ele>123</ele>
        <time>2021-10-15T10:20:01.000Z</time>
      </trkpt>
      <trkpt lat="48.165" lon="-2.73015">
        <ele>123</ele>
        <time>2021-10-15T10:20:02.000Z</time>
      </trkpt>
      <trkpt lat="48.16502" lon="-2.73016">
        <ele>123</ele>
        <time>2021-10-15T10:20:03.000Z</time>
      </trkpt>
      <trkpt lat="48.16504" lon="-2.73017">
        <ele>122.80000305176</ele>
        <time>2021-10-15T10:20:04.000Z</time>
      </trkpt>
      <trkpt lat="48.16504" lon="-2.73017">
        <ele>123</ele>
        <time>2021-10-15T10:20:05.000Z</time>
      </trkpt>
      <trkpt lat="48.16505" lon="-2.73018">
        <ele>123</ele>
        <time>2021-10-15T10:20:06.000Z</time>
      </trkpt>
      <trkpt lat="48.16505" lon="-2.73018">
        <ele>122.80000305176</ele>
        <time>2021-10-15T10:20:07.000Z</time>
      </trkpt>
      <trkpt lat="48.16506" lon="-2.73017">
        <ele>122.80000305176</ele>
        <time>2021-10-15T10:20:08.000Z</time>
      </trkpt>
      <trkpt lat="48.16506" lon="-2.73017">
        <ele>122.80000305176</ele>
        <time>2021-10-15T10:20:09.000Z</time>
      </trkpt>
      <trkpt lat="48.16506" lon="-2.73017">
        <ele>122.80000305176</ele>
        <time>2021-10-15T10:20:10.000Z</time>
      </trkpt>
      <trkpt lat="48.16506" lon="-2.73017">
        <ele>122.80000305176</ele>
        <time>2021-10-15T10:20:11.000Z</time>
      </trkpt>
      <trkpt lat="48.16506" lon="-2.73017">
        <ele>122.80000305176</ele>
        <time>2021-10-15T10:20:12.000Z</time>
      </trkpt>
      <trkpt lat="48.16506" lon="-2.73017">
        <ele>122.80000305176</ele>
        <time>2021-10-15T10:20:13.000Z</time>
      </trkpt>
      <trkpt lat="48.16506" lon="-2.73017">
        <ele>122.80000305176</ele>
        <time>2021-10-15T10:20:14.000Z</time>
      </trkpt>
      <trkpt lat="48.16506" lon="-2.73017">
        <ele>122.80000305176</ele>
        <time>2021-10-15T10:20:15.000Z</time>
      </trkpt>
      <trkpt lat="48.16506" lon="-2.73017">
        <ele>122.80000305176</ele>
        <time>2021-10-15T10:20:16.000Z</time>
      </trkpt>
      <trkpt lat="48.16506" lon="-2.73017">
        <ele>122.80000305176</ele>
        <time>2021-10-15T10:20:17.000Z</time>
      </trkpt>
      <trkpt lat="48.16506" lon="-2.73017">
        <ele>122.80000305176</ele>
        <time>2021-10-15T10:20:18.000Z</time>
      </trkpt>
      <trkpt lat="48.16506" lon="-2.73017">
        <ele>122.80000305176</ele>
        <time>2021-10-15T10:20:19.000Z</time>
      </trkpt>
      <trkpt lat="48.16506" lon="-2.73017">
        <ele>122.80000305176</ele>
        <time>2021-10-15T10:20:20.000Z</time>
      </trkpt>
      <trkpt lat="48.16506" lon="-2.73017">
        <ele>122.80000305176</ele>
        <time>2021-10-15T10:20:21.000Z</time>
      </trkpt>
      <trkpt lat="48.16507" lon="-2.73017">
        <ele>122.80000305176</ele>
        <time>2021-10-15T10:20:22.000Z</time>
      </trkpt>
      <trkpt lat="48.16507" lon="-2.73017">
        <ele>122.80000305176</ele>
        <time>2021-10-15T10:20:23.000Z</time>
      </trkpt>
      <trkpt lat="48.16507" lon="-2.73017">
        <ele>122.80000305176</ele>
        <time>2021-10-15T10:20:24.000Z</time>
      </trkpt>
      <trkpt lat="48.16506" lon="-2.73017">
        <ele>122.80000305176</ele>
        <time>2021-10-15T10:20:25.000Z</time>
      </trkpt>
      <trkpt lat="48.16506" lon="-2.73017">
        <ele>122.80000305176</ele>
        <time>2021-10-15T10:20:26.000Z</time>
      </trkpt>
      <trkpt lat="48.16506" lon="-2.73017">
        <ele>122.80000305176</ele>
        <time>2021-10-15T10:20:27.000Z</time>
      </trkpt>
      <trkpt lat="48.16506" lon="-2.73017">
        <ele>122.80000305176</ele>
        <time>2021-10-15T10:20:28.000Z</time>
      </trkpt>
      <trkpt lat="48.16506" lon="-2.73017">
        <ele>122.80000305176</ele>
        <time>2021-10-15T10:20:29.000Z</time>
      </trkpt>
      <trkpt lat="48.16506" lon="-2.73017">
        <ele>122.80000305176</ele>
        <time>2021-10-15T10:20:30.000Z</time>
      </trkpt>
      <trkpt lat="48.16506" lon="-2.73018">
        <ele>122.80000305176</ele>
        <time>2021-10-15T10:20:31.000Z</time>
      </trkpt>
      <trkpt lat="48.16507" lon="-2.73018">
        <ele>122.80000305176</ele>
        <time>2021-10-15T10:20:32.000Z</time>
      </trkpt>
      <trkpt lat="48.16507" lon="-2.73018">
        <ele>122.80000305176</ele>
        <time>2021-10-15T10:20:33.000Z</time>
      </trkpt>
      <trkpt lat="48.16507" lon="-2.73018">
        <ele>122.80000305176</ele>
        <time>2021-10-15T10:20:34.000Z</time>
      </trkpt>
      <trkpt lat="48.16507" lon="-2.73018">
        <ele>122.80000305176</ele>
        <time>2021-10-15T10:20:35.000Z</time>
      </trkpt>
      <trkpt lat="48.16507" lon="-2.73018">
        <ele>122.80000305176</ele>
        <time>2021-10-15T10:20:36.000Z</time>
      </trkpt>
      <trkpt lat="48.16507" lon="-2.73018">
        <ele>122.80000305176</ele>
        <time>2021-10-15T10:20:37.000Z</time>
      </trkpt>
      <trkpt lat="48.16507" lon="-2.73018">
        <ele>122.80000305176</ele>
        <time>2021-10-15T10:20:38.000Z</time>
      </trkpt>
      <trkpt lat="48.16507" lon="-2.73018">
        <ele>122.80000305176</ele>
        <time>2021-10-15T10:20:39.000Z</time>
      </trkpt>
      <trkpt lat="48.16507" lon="-2.73018">
        <ele>122.80000305176</ele>
        <time>2021-10-15T10:20:40.000Z</time>
      </trkpt>
      <trkpt lat="48.16507" lon="-2.73018">
        <ele>122.80000305176</ele>
        <time>2021-10-15T10:20:41.000Z</time>
      </trkpt>
      <trkpt lat="48.16507" lon="-2.73018">
        <ele>122.80000305176</ele>
        <time>2021-10-15T10:20:42.000Z</time>
      </trkpt>
      <trkpt lat="48.16507" lon="-2.73018">
        <ele>122.80000305176</ele>
        <time>2021-10-15T10:20:43.000Z</time>
      </trkpt>
      <trkpt lat="48.16507" lon="-2.73018">
        <ele>122.80000305176</ele>
        <time>2021-10-15T10:20:44.000Z</time>
      </trkpt>
      <trkpt lat="48.16507" lon="-2.73018">
        <ele>122.80000305176</ele>
        <time>2021-10-15T10:20:45.000Z</time>
      </trkpt>
      <trkpt lat="48.16507" lon="-2.73018">
        <ele>122.80000305176</ele>
        <time>2021-10-15T10:20:46.000Z</time>
      </trkpt>
      <trkpt lat="48.16507" lon="-2.73018">
        <ele>122.80000305176</ele>
        <time>2021-10-15T10:20:47.000Z</time>
      </trkpt>
      <trkpt lat="48.16507" lon="-2.73018">
        <ele>122.80000305176</ele>
        <time>2021-10-15T10:20:48.000Z</time>
      </trkpt>
      <trkpt lat="48.16507" lon="-2.73018">
        <ele>122.80000305176</ele>
        <time>2021-10-15T10:20:49.000Z</time>
      </trkpt>
      <trkpt lat="48.16507" lon="-2.73018">
        <ele>122.80000305176</ele>
        <time>2021-10-15T10:20:50.000Z</time>
      </trkpt>
      <trkpt lat="48.16507" lon="-2.73018">
        <ele>122.80000305176</ele>
        <time>2021-10-15T10:20:51.000Z</time>
      </trkpt>
      <trkpt lat="48.16507" lon="-2.73018">
        <ele>122.80000305176</ele>
        <time>2021-10-15T10:20:52.000Z</time>
      </trkpt>
      <trkpt lat="48.16507" lon="-2.73018">
        <ele>122.80000305176</ele>
        <time>2021-10-15T10:20:53.000Z</time>
      </trkpt>
      <trkpt lat="48.16507" lon="-2.73018">
        <ele>122.80000305176</ele>
        <time>2021-10-15T10:20:54.000Z</time>
      </trkpt>
      <trkpt lat="48.16507" lon="-2.73018">
        <ele>122.80000305176</ele>
        <time>2021-10-15T10:20:55.000Z</time>
      </trkpt>
      <trkpt lat="48.16507" lon="-2.73018">
        <ele>122.80000305176</ele>
        <time>2021-10-15T10:20:56.000Z</time>
      </trkpt>
      <trkpt lat="48.16507" lon="-2.73018">
        <ele>122.80000305176</ele>
        <time>2021-10-15T10:20:57.000Z</time>
      </trkpt>
      <trkpt lat="48.16507" lon="-2.73018">
        <ele>122.80000305176</ele>
        <time>2021-10-15T10:20:58.000Z</time>
      </trkpt>
      <trkpt lat="48.16506" lon="-2.73018">
        <ele>122.80000305176</ele>
        <time>2021-10-15T10:20:59.000Z</time>
      </trkpt>
      <trkpt lat="48.16506" lon="-2.73018">
        <ele>122.80000305176</ele>
        <time>2021-10-15T10:21:00.000Z</time>
      </trkpt>
      <trkpt lat="48.16506" lon="-2.73018">
        <ele>122.80000305176</ele>
        <time>2021-10-15T10:21:01.000Z</time>
      </trkpt>
      <trkpt lat="48.16506" lon="-2.73018">
        <ele>122.80000305176</ele>
        <time>2021-10-15T10:21:02.000Z</time>
      </trkpt>
      <trkpt lat="48.16506" lon="-2.73019">
        <ele>122.80000305176</ele>
        <time>2021-10-15T10:21:03.000Z</time>
      </trkpt>
      <trkpt lat="48.16506" lon="-2.73018">
        <ele>122.80000305176</ele>
        <time>2021-10-15T10:21:04.000Z</time>
      </trkpt>
      <trkpt lat="48.16506" lon="-2.73018">
        <ele>122.80000305176</ele>
        <time>2021-10-15T10:21:05.000Z</time>
      </trkpt>
      <trkpt lat="48.16506" lon="-2.73018">
        <ele>122.80000305176</ele>
        <time>2021-10-15T10:21:06.000Z</time>
      </trkpt>
      <trkpt lat="48.16506" lon="-2.73018">
        <ele>122.80000305176</ele>
        <time>2021-10-15T10:21:07.000Z</time>
      </trkpt>
      <trkpt lat="48.16506" lon="-2.73018">
        <ele>122.80000305176</ele>
        <time>2021-10-15T10:21:08.000Z</time>
      </trkpt>
      <trkpt lat="48.16506" lon="-2.73018">
        <ele>122.80000305176</ele>
        <time>2021-10-15T10:21:09.000Z</time>
      </trkpt>
      <trkpt lat="48.16506" lon="-2.73018">
        <ele>122.80000305176</ele>
        <time>2021-10-15T10:21:10.000Z</time>
      </trkpt>
      <trkpt lat="48.16506" lon="-2.73018">
        <ele>122.80000305176</ele>
        <time>2021-10-15T10:21:11.000Z</time>
      </trkpt>
      <trkpt lat="48.16505" lon="-2.73017">
        <ele>122.80000305176</ele>
        <time>2021-10-15T10:21:12.000Z</time>
      </trkpt>
      <trkpt lat="48.16505" lon="-2.73017">
        <ele>122.80000305176</ele>
        <time>2021-10-15T10:21:13.000Z</time>
      </trkpt>
      <trkpt lat="48.16504" lon="-2.73017">
        <ele>122.80000305176</ele>
        <time>2021-10-15T10:21:14.000Z</time>
      </trkpt>
      <trkpt lat="48.16503" lon="-2.73016">
        <ele>122.80000305176</ele>
        <time>2021-10-15T10:21:15.000Z</time>
      </trkpt>
      <trkpt lat="48.16503" lon="-2.73015">
        <ele>122.80000305176</ele>
        <time>2021-10-15T10:21:16.000Z</time>
      </trkpt>
      <trkpt lat="48.16502" lon="-2.73015">
        <ele>122.80000305176</ele>
        <time>2021-10-15T10:21:17.000Z</time>
      </trkpt>
      <trkpt lat="48.16501" lon="-2.73015">
        <ele>123</ele>
        <time>2021-10-15T10:21:18.000Z</time>
      </trkpt>
      <trkpt lat="48.16501" lon="-2.73014">
        <ele>123</ele>
        <time>2021-10-15T10:21:19.000Z</time>
      </trkpt>
      <trkpt lat="48.165" lon="-2.73014">
        <ele>123</ele>
        <time>2021-10-15T10:21:20.000Z</time>
      </trkpt>
      <trkpt lat="48.165" lon="-2.73014">
        <ele>123</ele>
        <time>2021-10-15T10:21:21.000Z</time>
      </trkpt>
      <trkpt lat="48.165" lon="-2.73014">
        <ele>123</ele>
        <time>2021-10-15T10:21:22.000Z</time>
      </trkpt>
      <trkpt lat="48.16499" lon="-2.73014">
        <ele>123</ele>
        <time>2021-10-15T10:21:23.000Z</time>
      </trkpt>
      <trkpt lat="48.16499" lon="-2.73014">
        <ele>123</ele>
        <time>2021-10-15T10:21:24.000Z</time>
      </trkpt>
      <trkpt lat="48.16499" lon="-2.73014">
        <ele>123</ele>
        <time>2021-10-15T10:21:25.000Z</time>
      </trkpt>
      <trkpt lat="48.16499" lon="-2.73014">
        <ele>123</ele>
        <time>2021-10-15T10:21:26.000Z</time>
      </trkpt>
      <trkpt lat="48.16498" lon="-2.73014">
        <ele>123</ele>
        <time>2021-10-15T10:21:27.000Z</time>
      </trkpt>
      <trkpt lat="48.16498" lon="-2.73014">
        <ele>123</ele>
        <time>2021-10-15T10:21:28.000Z</time>
      </trkpt>
      <trkpt lat="48.16498" lon="-2.73014">
        <ele>123</ele>
        <time>2021-10-15T10:21:29.000Z</time>
      </trkpt>
      <trkpt lat="48.16498" lon="-2.73014">
        <ele>123</ele>
        <time>2021-10-15T10:21:30.000Z</time>
      </trkpt>
      <trkpt lat="48.16498" lon="-2.73014">
        <ele>123</ele>
        <time>2021-10-15T10:21:31.000Z</time>
      </trkpt>
      <trkpt lat="48.16497" lon="-2.73014">
        <ele>123</ele>
        <time>2021-10-15T10:21:32.000Z</time>
      </trkpt>
      <trkpt lat="48.16497" lon="-2.73014">
        <ele>123</ele>
        <time>2021-10-15T10:21:33.000Z</time>
      </trkpt>
      <trkpt lat="48.16497" lon="-2.73014">
        <ele>123</ele>
        <time>2021-10-15T10:21:34.000Z</time>
      </trkpt>
      <trkpt lat="48.16497" lon="-2.73014">
        <ele>123</ele>
        <time>2021-10-15T10:21:35.000Z</time>
      </trkpt>
      <trkpt lat="48.16497" lon="-2.73015">
        <ele>123</ele>
        <time>2021-10-15T10:21:36.000Z</time>
      </trkpt>
      <trkpt lat="48.16497" lon="-2.73014">
        <ele>123</ele>
        <time>2021-10-15T10:21:37.000Z</time>
      </trkpt>
      <trkpt lat="48.16496" lon="-2.73014">
        <ele>123</ele>
        <time>2021-10-15T10:21:38.000Z</time>
      </trkpt>
      <trkpt lat="48.16497" lon="-2.73012">
        <ele>123</ele>
        <time>2021-10-15T10:21:39.000Z</time>
      </trkpt>
      <trkpt lat="48.16497" lon="-2.7301">
        <ele>123</ele>
        <time>2021-10-15T10:21:40.000Z</time>
      </trkpt>
      <trkpt lat="48.16497" lon="-2.73008">
        <ele>122.80000305176</ele>
        <time>2021-10-15T10:21:41.000Z</time>
      </trkpt>
      <trkpt lat="48.16497" lon="-2.73006">
        <ele>122.80000305176</ele>
        <time>2021-10-15T10:21:42.000Z</time>
      </trkpt>
      <trkpt lat="48.16497" lon="-2.73004">
        <ele>122.59999847412</ele>
        <time>2021-10-15T10:21:43.000Z</time>
      </trkpt>
      <trkpt lat="48.16498" lon="-2.73002">
        <ele>122.59999847412</ele>
        <time>2021-10-15T10:21:44.000Z</time>
      </trkpt>
      <trkpt lat="48.16499" lon="-2.73">
        <ele>122.40000152588</ele>
        <time>2021-10-15T10:21:45.000Z</time>
      </trkpt>
      <trkpt lat="48.16499" lon="-2.72998">
        <ele>122.40000152588</ele>
        <time>2021-10-15T10:21:46.000Z</time>
      </trkpt>
      <trkpt lat="48.16499" lon="-2.72996">
        <ele>122.40000152588</ele>
        <time>2021-10-15T10:21:47.000Z</time>
      </trkpt>
      <trkpt lat="48.16499" lon="-2.72994">
        <ele>122.40000152588</ele>
        <time>2021-10-15T10:21:48.000Z</time>
      </trkpt>
      <trkpt lat="48.16499" lon="-2.72993">
        <ele>122.40000152588</ele>
        <time>2021-10-15T10:21:49.000Z</time>
      </trkpt>
      <trkpt lat="48.16499" lon="-2.72993">
        <ele>122.40000152588</ele>
        <time>2021-10-15T10:21:50.000Z</time>
      </trkpt>
      <trkpt lat="48.16499" lon="-2.72993">
        <ele>122.40000152588</ele>
        <time>2021-10-15T10:21:51.000Z</time>
      </trkpt>
      <trkpt lat="48.16499" lon="-2.72993">
        <ele>122.40000152588</ele>
        <time>2021-10-15T10:21:52.000Z</time>
      </trkpt>
      <trkpt lat="48.16499" lon="-2.72993">
        <ele>122.40000152588</ele>
        <time>2021-10-15T10:21:53.000Z</time>
      </trkpt>
      <trkpt lat="48.16499" lon="-2.72992">
        <ele>122.40000152588</ele>
        <time>2021-10-15T10:21:54.000Z</time>
      </trkpt>
      <trkpt lat="48.165" lon="-2.7299">
        <ele>122.40000152588</ele>
        <time>2021-10-15T10:21:55.000Z</time>
      </trkpt>
      <trkpt lat="48.165" lon="-2.72988">
        <ele>122.40000152588</ele>
        <time>2021-10-15T10:21:56.000Z</time>
      </trkpt>
      <trkpt lat="48.16501" lon="-2.72986">
        <ele>122.19999694824</ele>
        <time>2021-10-15T10:21:57.000Z</time>
      </trkpt>
      <trkpt lat="48.16502" lon="-2.72983">
        <ele>122.19999694824</ele>
        <time>2021-10-15T10:21:58.000Z</time>
      </trkpt>
      <trkpt lat="48.16503" lon="-2.72978">
        <ele>122.19999694824</ele>
        <time>2021-10-15T10:21:59.000Z</time>
      </trkpt>
      <trkpt lat="48.16504" lon="-2.72973">
        <ele>122</ele>
        <time>2021-10-15T10:22:00.000Z</time>
      </trkpt>
      <trkpt lat="48.16506" lon="-2.72969">
        <ele>122</ele>
        <time>2021-10-15T10:22:01.000Z</time>
      </trkpt>
      <trkpt lat="48.16507" lon="-2.72964">
        <ele>121.80000305176</ele>
        <time>2021-10-15T10:22:02.000Z</time>
      </trkpt>
      <trkpt lat="48.16508" lon="-2.72958">
        <ele>121.80000305176</ele>
        <time>2021-10-15T10:22:03.000Z</time>
      </trkpt>
      <trkpt lat="48.16509" lon="-2.72952">
        <ele>122</ele>
        <time>2021-10-15T10:22:04.000Z</time>
      </trkpt>
      <trkpt lat="48.1651" lon="-2.72946">
        <ele>122</ele>
        <time>2021-10-15T10:22:05.000Z</time>
      </trkpt>
      <trkpt lat="48.16512" lon="-2.7294">
        <ele>122.19999694824</ele>
        <time>2021-10-15T10:22:06.000Z</time>
      </trkpt>
      <trkpt lat="48.16513" lon="-2.72933">
        <ele>122.19999694824</ele>
        <time>2021-10-15T10:22:07.000Z</time>
      </trkpt>
      <trkpt lat="48.16515" lon="-2.72927">
        <ele>122.19999694824</ele>
        <time>2021-10-15T10:22:08.000Z</time>
      </trkpt>
      <trkpt lat="48.16516" lon="-2.7292">
        <ele>122.40000152588</ele>
        <time>2021-10-15T10:22:09.000Z</time>
      </trkpt>
      <trkpt lat="48.16518" lon="-2.72913">
        <ele>122.80000305176</ele>
        <time>2021-10-15T10:22:10.000Z</time>
      </trkpt>
      <trkpt lat="48.16519" lon="-2.72906">
        <ele>123.19999694824</ele>
        <time>2021-10-15T10:22:11.000Z</time>
      </trkpt>
      <trkpt lat="48.1652" lon="-2.729">
        <ele>123.59999847412</ele>
        <time>2021-10-15T10:22:12.000Z</time>
      </trkpt>
      <trkpt lat="48.16521" lon="-2.72893">
        <ele>123.80000305176</ele>
        <time>2021-10-15T10:22:13.000Z</time>
      </trkpt>
      <trkpt lat="48.16522" lon="-2.72887">
        <ele>124.19999694824</ele>
        <time>2021-10-15T10:22:14.000Z</time>
      </trkpt>
      <trkpt lat="48.16524" lon="-2.72881">
        <ele>124.40000152588</ele>
        <time>2021-10-15T10:22:15.000Z</time>
      </trkpt>
      <trkpt lat="48.16525" lon="-2.72874">
        <ele>124.80000305176</ele>
        <time>2021-10-15T10:22:16.000Z</time>
      </trkpt>
      <trkpt lat="48.16527" lon="-2.72868">
        <ele>125</ele>
        <time>2021-10-15T10:22:17.000Z</time>
      </trkpt>
      <trkpt lat="48.16528" lon="-2.72861">
        <ele>125.40000152588</ele>
        <time>2021-10-15T10:22:18.000Z</time>
      </trkpt>
      <trkpt lat="48.16529" lon="-2.72854">
        <ele>125.80000305176</ele>
        <time>2021-10-15T10:22:19.000Z</time>
      </trkpt>
      <trkpt lat="48.16531" lon="-2.72847">
        <ele>125.80000305176</ele>
        <time>2021-10-15T10:22:20.000Z</time>
      </trkpt>
      <trkpt lat="48.16532" lon="-2.7284">
        <ele>126</ele>
        <time>2021-10-15T10:22:21.000Z</time>
      </trkpt>
      <trkpt lat="48.16534" lon="-2.72832">
        <ele>126.19999694824</ele>
        <time>2021-10-15T10:22:22.000Z</time>
      </trkpt>
      <trkpt lat="48.16536" lon="-2.72825">
        <ele>126.19999694824</ele>
        <time>2021-10-15T10:22:23.000Z</time>
      </trkpt>
      <trkpt lat="48.16537" lon="-2.72817">
        <ele>126.40000152588</ele>
        <time>2021-10-15T10:22:24.000Z</time>
      </trkpt>
      <trkpt lat="48.16538" lon="-2.72809">
        <ele>126.19999694824</ele>
        <time>2021-10-15T10:22:25.000Z</time>
      </trkpt>
      <trkpt lat="48.1654" lon="-2.72802">
        <ele>126.19999694824</ele>
        <time>2021-10-15T10:22:26.000Z</time>
      </trkpt>
      <trkpt lat="48.16541" lon="-2.72795">
        <ele>126.19999694824</ele>
        <time>2021-10-15T10:22:27.000Z</time>
      </trkpt>
      <trkpt lat="48.16543" lon="-2.72789">
        <ele>126.19999694824</ele>
        <time>2021-10-15T10:22:28.000Z</time>
      </trkpt>
      <trkpt lat="48.16544" lon="-2.72782">
        <ele>126</ele>
        <time>2021-10-15T10:22:29.000Z</time>
      </trkpt>
      <trkpt lat="48.16547" lon="-2.72774">
        <ele>125.59999847412</ele>
        <time>2021-10-15T10:22:30.000Z</time>
      </trkpt>
      <trkpt lat="48.16549" lon="-2.72767">
        <ele>125.19999694824</ele>
        <time>2021-10-15T10:22:31.000Z</time>
      </trkpt>
      <trkpt lat="48.16551" lon="-2.7276">
        <ele>125</ele>
        <time>2021-10-15T10:22:32.000Z</time>
      </trkpt>
      <trkpt lat="48.16553" lon="-2.72752">
        <ele>124.59999847412</ele>
        <time>2021-10-15T10:22:33.000Z</time>
      </trkpt>
      <trkpt lat="48.16555" lon="-2.72745">
        <ele>124.40000152588</ele>
        <time>2021-10-15T10:22:34.000Z</time>
      </trkpt>
      <trkpt lat="48.16559" lon="-2.72737">
        <ele>124.19999694824</ele>
        <time>2021-10-15T10:22:35.000Z</time>
      </trkpt>
      <trkpt lat="48.16561" lon="-2.72729">
        <ele>124</ele>
        <time>2021-10-15T10:22:36.000Z</time>
      </trkpt>
      <trkpt lat="48.16563" lon="-2.72721">
        <ele>123.40000152588</ele>
        <time>2021-10-15T10:22:37.000Z</time>
      </trkpt>
      <trkpt lat="48.16566" lon="-2.72713">
        <ele>123</ele>
        <time>2021-10-15T10:22:38.000Z</time>
      </trkpt>
      <trkpt lat="48.16569" lon="-2.72706">
        <ele>122.59999847412</ele>
        <time>2021-10-15T10:22:39.000Z</time>
      </trkpt>
      <trkpt lat="48.16571" lon="-2.72698">
        <ele>122</ele>
        <time>2021-10-15T10:22:40.000Z</time>
      </trkpt>
      <trkpt lat="48.16574" lon="-2.72691">
        <ele>121.59999847412</ele>
        <time>2021-10-15T10:22:41.000Z</time>
      </trkpt>
      <trkpt lat="48.16576" lon="-2.72684">
        <ele>121.19999694824</ele>
        <time>2021-10-15T10:22:42.000Z</time>
      </trkpt>
      <trkpt lat="48.16578" lon="-2.72676">
        <ele>120.80000305176</ele>
        <time>2021-10-15T10:22:43.000Z</time>
      </trkpt>
      <trkpt lat="48.1658" lon="-2.72668">
        <ele>120.40000152588</ele>
        <time>2021-10-15T10:22:44.000Z</time>
      </trkpt>
      <trkpt lat="48.16582" lon="-2.7266">
        <ele>120.19999694824</ele>
        <time>2021-10-15T10:22:45.000Z</time>
      </trkpt>
      <trkpt lat="48.16585" lon="-2.72652">
        <ele>119.80000305176</ele>
        <time>2021-10-15T10:22:46.000Z</time>
      </trkpt>
      <trkpt lat="48.16587" lon="-2.72644">
        <ele>119.59999847412</ele>
        <time>2021-10-15T10:22:47.000Z</time>
      </trkpt>
      <trkpt lat="48.1659" lon="-2.72635">
        <ele>119.19999694824</ele>
        <time>2021-10-15T10:22:48.000Z</time>
      </trkpt>
      <trkpt lat="48.16592" lon="-2.72627">
        <ele>119</ele>
        <time>2021-10-15T10:22:49.000Z</time>
      </trkpt>
      <trkpt lat="48.16595" lon="-2.72619">
        <ele>118.59999847412</ele>
        <time>2021-10-15T10:22:50.000Z</time>
      </trkpt>
      <trkpt lat="48.16598" lon="-2.72611">
        <ele>118.19999694824</ele>
        <time>2021-10-15T10:22:51.000Z</time>
      </trkpt>
      <trkpt lat="48.166" lon="-2.72603">
        <ele>118.19999694824</ele>
        <time>2021-10-15T10:22:52.000Z</time>
      </trkpt>
      <trkpt lat="48.16603" lon="-2.72595">
        <ele>118</ele>
        <time>2021-10-15T10:22:53.000Z</time>
      </trkpt>
      <trkpt lat="48.16606" lon="-2.72586">
        <ele>117.59999847412</ele>
        <time>2021-10-15T10:22:54.000Z</time>
      </trkpt>
      <trkpt lat="48.16608" lon="-2.72578">
        <ele>117.59999847412</ele>
        <time>2021-10-15T10:22:55.000Z</time>
      </trkpt>
      <trkpt lat="48.16609" lon="-2.7257">
        <ele>117.40000152588</ele>
        <time>2021-10-15T10:22:56.000Z</time>
      </trkpt>
      <trkpt lat="48.16611" lon="-2.72562">
        <ele>117.40000152588</ele>
        <time>2021-10-15T10:22:57.000Z</time>
      </trkpt>
      <trkpt lat="48.16612" lon="-2.72554">
        <ele>117.59999847412</ele>
        <time>2021-10-15T10:22:58.000Z</time>
      </trkpt>
      <trkpt lat="48.16614" lon="-2.72546">
        <ele>117.59999847412</ele>
        <time>2021-10-15T10:22:59.000Z</time>
      </trkpt>
      <trkpt lat="48.16615" lon="-2.72538">
        <ele>117.59999847412</ele>
        <time>2021-10-15T10:23:00.000Z</time>
      </trkpt>
      <trkpt lat="48.16616" lon="-2.72531">
        <ele>117.80000305176</ele>
        <time>2021-10-15T10:23:01.000Z</time>
      </trkpt>
      <trkpt lat="48.16617" lon="-2.72524">
        <ele>118.19999694824</ele>
        <time>2021-10-15T10:23:02.000Z</time>
      </trkpt>
      <trkpt lat="48.16618" lon="-2.72517">
        <ele>118.59999847412</ele>
        <time>2021-10-15T10:23:03.000Z</time>
      </trkpt>
      <trkpt lat="48.16619" lon="-2.72509">
        <ele>119.19999694824</ele>
        <time>2021-10-15T10:23:04.000Z</time>
      </trkpt>
      <trkpt lat="48.16621" lon="-2.72502">
        <ele>119.40000152588</ele>
        <time>2021-10-15T10:23:05.000Z</time>
      </trkpt>
      <trkpt lat="48.16622" lon="-2.72495">
        <ele>119.59999847412</ele>
        <time>2021-10-15T10:23:06.000Z</time>
      </trkpt>
      <trkpt lat="48.16623" lon="-2.72488">
        <ele>119.80000305176</ele>
        <time>2021-10-15T10:23:07.000Z</time>
      </trkpt>
      <trkpt lat="48.16625" lon="-2.72479">
        <ele>120</ele>
        <time>2021-10-15T10:23:08.000Z</time>
      </trkpt>
      <trkpt lat="48.16627" lon="-2.72471">
        <ele>120</ele>
        <time>2021-10-15T10:23:09.000Z</time>
      </trkpt>
      <trkpt lat="48.16628" lon="-2.72464">
        <ele>120</ele>
        <time>2021-10-15T10:23:10.000Z</time>
      </trkpt>
      <trkpt lat="48.16629" lon="-2.72457">
        <ele>120</ele>
        <time>2021-10-15T10:23:11.000Z</time>
      </trkpt>
      <trkpt lat="48.1663" lon="-2.72449">
        <ele>120</ele>
        <time>2021-10-15T10:23:12.000Z</time>
      </trkpt>
      <trkpt lat="48.16632" lon="-2.72441">
        <ele>119.59999847412</ele>
        <time>2021-10-15T10:23:13.000Z</time>
      </trkpt>
      <trkpt lat="48.16634" lon="-2.72432">
        <ele>119.19999694824</ele>
        <time>2021-10-15T10:23:14.000Z</time>
      </trkpt>
      <trkpt lat="48.16637" lon="-2.72423">
        <ele>118.80000305176</ele>
        <time>2021-10-15T10:23:15.000Z</time>
      </trkpt>
      <trkpt lat="48.16639" lon="-2.72415">
        <ele>118.19999694824</ele>
        <time>2021-10-15T10:23:16.000Z</time>
      </trkpt>
      <trkpt lat="48.1664" lon="-2.72408">
        <ele>117.59999847412</ele>
        <time>2021-10-15T10:23:17.000Z</time>
      </trkpt>
      <trkpt lat="48.1664" lon="-2.72401">
        <ele>117</ele>
        <time>2021-10-15T10:23:18.000Z</time>
      </trkpt>
      <trkpt lat="48.1664" lon="-2.72394">
        <ele>116.59999847412</ele>
        <time>2021-10-15T10:23:19.000Z</time>
      </trkpt>
      <trkpt lat="48.1664" lon="-2.72387">
        <ele>116.40000152588</ele>
        <time>2021-10-15T10:23:20.000Z</time>
      </trkpt>
      <trkpt lat="48.16641" lon="-2.7238">
        <ele>116</ele>
        <time>2021-10-15T10:23:21.000Z</time>
      </trkpt>
      <trkpt lat="48.1664" lon="-2.72372">
        <ele>115.80000305176</ele>
        <time>2021-10-15T10:23:22.000Z</time>
      </trkpt>
      <trkpt lat="48.1664" lon="-2.72365">
        <ele>115.59999847412</ele>
        <time>2021-10-15T10:23:23.000Z</time>
      </trkpt>
      <trkpt lat="48.1664" lon="-2.72357">
        <ele>115.59999847412</ele>
        <time>2021-10-15T10:23:24.000Z</time>
      </trkpt>
      <trkpt lat="48.1664" lon="-2.7235">
        <ele>115.59999847412</ele>
        <time>2021-10-15T10:23:25.000Z</time>
      </trkpt>
      <trkpt lat="48.16641" lon="-2.72343">
        <ele>115.59999847412</ele>
        <time>2021-10-15T10:23:26.000Z</time>
      </trkpt>
      <trkpt lat="48.16641" lon="-2.72335">
        <ele>115.80000305176</ele>
        <time>2021-10-15T10:23:27.000Z</time>
      </trkpt>
      <trkpt lat="48.16641" lon="-2.72328">
        <ele>116</ele>
        <time>2021-10-15T10:23:28.000Z</time>
      </trkpt>
      <trkpt lat="48.16642" lon="-2.7232">
        <ele>116.19999694824</ele>
        <time>2021-10-15T10:23:29.000Z</time>
      </trkpt>
      <trkpt lat="48.16642" lon="-2.72312">
        <ele>116.59999847412</ele>
        <time>2021-10-15T10:23:30.000Z</time>
      </trkpt>
      <trkpt lat="48.16643" lon="-2.72305">
        <ele>116.59999847412</ele>
        <time>2021-10-15T10:23:31.000Z</time>
      </trkpt>
      <trkpt lat="48.16642" lon="-2.72298">
        <ele>116.59999847412</ele>
        <time>2021-10-15T10:23:32.000Z</time>
      </trkpt>
      <trkpt lat="48.16642" lon="-2.72291">
        <ele>116.59999847412</ele>
        <time>2021-10-15T10:23:33.000Z</time>
      </trkpt>
      <trkpt lat="48.16642" lon="-2.72284">
        <ele>116.59999847412</ele>
        <time>2021-10-15T10:23:34.000Z</time>
      </trkpt>
      <trkpt lat="48.16642" lon="-2.72277">
        <ele>116.59999847412</ele>
        <time>2021-10-15T10:23:35.000Z</time>
      </trkpt>
      <trkpt lat="48.16641" lon="-2.7227">
        <ele>116.59999847412</ele>
        <time>2021-10-15T10:23:36.000Z</time>
      </trkpt>
      <trkpt lat="48.16641" lon="-2.72264">
        <ele>116.59999847412</ele>
        <time>2021-10-15T10:23:37.000Z</time>
      </trkpt>
      <trkpt lat="48.16641" lon="-2.72257">
        <ele>116.59999847412</ele>
        <time>2021-10-15T10:23:38.000Z</time>
      </trkpt>
      <trkpt lat="48.1664" lon="-2.72251">
        <ele>116.40000152588</ele>
        <time>2021-10-15T10:23:39.000Z</time>
      </trkpt>
      <trkpt lat="48.1664" lon="-2.72245">
        <ele>116.19999694824</ele>
        <time>2021-10-15T10:23:40.000Z</time>
      </trkpt>
      <trkpt lat="48.1664" lon="-2.72238">
        <ele>116.19999694824</ele>
        <time>2021-10-15T10:23:41.000Z</time>
      </trkpt>
      <trkpt lat="48.1664" lon="-2.72232">
        <ele>116.19999694824</ele>
        <time>2021-10-15T10:23:42.000Z</time>
      </trkpt>
      <trkpt lat="48.16641" lon="-2.72226">
        <ele>116.19999694824</ele>
        <time>2021-10-15T10:23:43.000Z</time>
      </trkpt>
      <trkpt lat="48.16641" lon="-2.7222">
        <ele>116.19999694824</ele>
        <time>2021-10-15T10:23:44.000Z</time>
      </trkpt>
      <trkpt lat="48.16641" lon="-2.72214">
        <ele>116.19999694824</ele>
        <time>2021-10-15T10:23:45.000Z</time>
      </trkpt>
      <trkpt lat="48.16641" lon="-2.72208">
        <ele>116.19999694824</ele>
        <time>2021-10-15T10:23:46.000Z</time>
      </trkpt>
      <trkpt lat="48.16641" lon="-2.72203">
        <ele>116.19999694824</ele>
        <time>2021-10-15T10:23:47.000Z</time>
      </trkpt>
      <trkpt lat="48.16641" lon="-2.72197">
        <ele>116.19999694824</ele>
        <time>2021-10-15T10:23:48.000Z</time>
      </trkpt>
      <trkpt lat="48.16641" lon="-2.72191">
        <ele>116.19999694824</ele>
        <time>2021-10-15T10:23:49.000Z</time>
      </trkpt>
      <trkpt lat="48.16641" lon="-2.72186">
        <ele>116.19999694824</ele>
        <time>2021-10-15T10:23:50.000Z</time>
      </trkpt>
      <trkpt lat="48.16641" lon="-2.7218">
        <ele>116.19999694824</ele>
        <time>2021-10-15T10:23:51.000Z</time>
      </trkpt>
      <trkpt lat="48.1664" lon="-2.72174">
        <ele>116.19999694824</ele>
        <time>2021-10-15T10:23:52.000Z</time>
      </trkpt>
      <trkpt lat="48.1664" lon="-2.72168">
        <ele>116.40000152588</ele>
        <time>2021-10-15T10:23:53.000Z</time>
      </trkpt>
      <trkpt lat="48.16639" lon="-2.72161">
        <ele>116.59999847412</ele>
        <time>2021-10-15T10:23:54.000Z</time>
      </trkpt>
      <trkpt lat="48.16638" lon="-2.72155">
        <ele>116.59999847412</ele>
        <time>2021-10-15T10:23:55.000Z</time>
      </trkpt>
      <trkpt lat="48.16637" lon="-2.72148">
        <ele>116.80000305176</ele>
        <time>2021-10-15T10:23:56.000Z</time>
      </trkpt>
      <trkpt lat="48.16636" lon="-2.72142">
        <ele>116.59999847412</ele>
        <time>2021-10-15T10:23:57.000Z</time>
      </trkpt>
      <trkpt lat="48.16634" lon="-2.72135">
        <ele>116.80000305176</ele>
        <time>2021-10-15T10:23:58.000Z</time>
      </trkpt>
      <trkpt lat="48.16632" lon="-2.7213">
        <ele>116.80000305176</ele>
        <time>2021-10-15T10:23:59.000Z</time>
      </trkpt>
      <trkpt lat="48.16631" lon="-2.72123">
        <ele>116.80000305176</ele>
        <time>2021-10-15T10:24:00.000Z</time>
      </trkpt>
      <trkpt lat="48.1663" lon="-2.72117">
        <ele>117</ele>
        <time>2021-10-15T10:24:01.000Z</time>
      </trkpt>
      <trkpt lat="48.16629" lon="-2.7211">
        <ele>116.80000305176</ele>
        <time>2021-10-15T10:24:02.000Z</time>
      </trkpt>
      <trkpt lat="48.16629" lon="-2.72104">
        <ele>116.59999847412</ele>
        <time>2021-10-15T10:24:03.000Z</time>
      </trkpt>
      <trkpt lat="48.16628" lon="-2.72095">
        <ele>116.19999694824</ele>
        <time>2021-10-15T10:24:04.000Z</time>
      </trkpt>
      <trkpt lat="48.16627" lon="-2.72089">
        <ele>116</ele>
        <time>2021-10-15T10:24:05.000Z</time>
      </trkpt>
      <trkpt lat="48.16626" lon="-2.72083">
        <ele>115.80000305176</ele>
        <time>2021-10-15T10:24:06.000Z</time>
      </trkpt>
      <trkpt lat="48.16625" lon="-2.72076">
        <ele>115.59999847412</ele>
        <time>2021-10-15T10:24:07.000Z</time>
      </trkpt>
      <trkpt lat="48.16624" lon="-2.7207">
        <ele>115.59999847412</ele>
        <time>2021-10-15T10:24:08.000Z</time>
      </trkpt>
      <trkpt lat="48.16621" lon="-2.72062">
        <ele>115.59999847412</ele>
        <time>2021-10-15T10:24:09.000Z</time>
      </trkpt>
      <trkpt lat="48.16619" lon="-2.72054">
        <ele>115.40000152588</ele>
        <time>2021-10-15T10:24:10.000Z</time>
      </trkpt>
      <trkpt lat="48.16617" lon="-2.72047">
        <ele>115.40000152588</ele>
        <time>2021-10-15T10:24:11.000Z</time>
      </trkpt>
      <trkpt lat="48.16616" lon="-2.7204">
        <ele>115.19999694824</ele>
        <time>2021-10-15T10:24:12.000Z</time>
      </trkpt>
      <trkpt lat="48.16615" lon="-2.72034">
        <ele>115</ele>
        <time>2021-10-15T10:24:13.000Z</time>
      </trkpt>
      <trkpt lat="48.16613" lon="-2.72027">
        <ele>115.19999694824</ele>
        <time>2021-10-15T10:24:14.000Z</time>
      </trkpt>
      <trkpt lat="48.16612" lon="-2.72021">
        <ele>115.19999694824</ele>
        <time>2021-10-15T10:24:15.000Z</time>
      </trkpt>
      <trkpt lat="48.1661" lon="-2.72015">
        <ele>115</ele>
        <time>2021-10-15T10:24:16.000Z</time>
      </trkpt>
      <trkpt lat="48.16607" lon="-2.72008">
        <ele>114.80000305176</ele>
        <time>2021-10-15T10:24:17.000Z</time>
      </trkpt>
      <trkpt lat="48.16605" lon="-2.72">
        <ele>114.80000305176</ele>
        <time>2021-10-15T10:24:18.000Z</time>
      </trkpt>
      <trkpt lat="48.16603" lon="-2.71994">
        <ele>115</ele>
        <time>2021-10-15T10:24:19.000Z</time>
      </trkpt>
      <trkpt lat="48.16602" lon="-2.71988">
        <ele>115</ele>
        <time>2021-10-15T10:24:20.000Z</time>
      </trkpt>
      <trkpt lat="48.166" lon="-2.71981">
        <ele>115.19999694824</ele>
        <time>2021-10-15T10:24:21.000Z</time>
      </trkpt>
      <trkpt lat="48.16598" lon="-2.71975">
        <ele>115.40000152588</ele>
        <time>2021-10-15T10:24:22.000Z</time>
      </trkpt>
      <trkpt lat="48.16597" lon="-2.71969">
        <ele>115.59999847412</ele>
        <time>2021-10-15T10:24:23.000Z</time>
      </trkpt>
      <trkpt lat="48.16595" lon="-2.71964">
        <ele>115.80000305176</ele>
        <time>2021-10-15T10:24:24.000Z</time>
      </trkpt>
      <trkpt lat="48.16593" lon="-2.71959">
        <ele>116</ele>
        <time>2021-10-15T10:24:25.000Z</time>
      </trkpt>
      <trkpt lat="48.1659" lon="-2.71953">
        <ele>116.59999847412</ele>
        <time>2021-10-15T10:24:26.000Z</time>
      </trkpt>
      <trkpt lat="48.16588" lon="-2.71947">
        <ele>117.19999694824</ele>
        <time>2021-10-15T10:24:27.000Z</time>
      </trkpt>
      <trkpt lat="48.16585" lon="-2.7194">
        <ele>117.80000305176</ele>
        <time>2021-10-15T10:24:28.000Z</time>
      </trkpt>
      <trkpt lat="48.16583" lon="-2.71936">
        <ele>117.80000305176</ele>
        <time>2021-10-15T10:24:29.000Z</time>
      </trkpt>
      <trkpt lat="48.16581" lon="-2.7193">
        <ele>117.80000305176</ele>
        <time>2021-10-15T10:24:30.000Z</time>
      </trkpt>
      <trkpt lat="48.1658" lon="-2.71924">
        <ele>117.59999847412</ele>
        <time>2021-10-15T10:24:31.000Z</time>
      </trkpt>
      <trkpt lat="48.16577" lon="-2.71919">
        <ele>117.80000305176</ele>
        <time>2021-10-15T10:24:32.000Z</time>
      </trkpt>
      <trkpt lat="48.16575" lon="-2.71914">
        <ele>118</ele>
        <time>2021-10-15T10:24:33.000Z</time>
      </trkpt>
      <trkpt lat="48.16571" lon="-2.71909">
        <ele>118.19999694824</ele>
        <time>2021-10-15T10:24:34.000Z</time>
      </trkpt>
      <trkpt lat="48.16568" lon="-2.71904">
        <ele>118.40000152588</ele>
        <time>2021-10-15T10:24:35.000Z</time>
      </trkpt>
      <trkpt lat="48.16565" lon="-2.71899">
        <ele>118.59999847412</ele>
        <time>2021-10-15T10:24:36.000Z</time>
      </trkpt>
      <trkpt lat="48.16562" lon="-2.71892">
        <ele>118.80000305176</ele>
        <time>2021-10-15T10:24:37.000Z</time>
      </trkpt>
      <trkpt lat="48.1656" lon="-2.71886">
        <ele>118.80000305176</ele>
        <time>2021-10-15T10:24:38.000Z</time>
      </trkpt>
      <trkpt lat="48.16557" lon="-2.71881">
        <ele>118.80000305176</ele>
        <time>2021-10-15T10:24:39.000Z</time>
      </trkpt>
      <trkpt lat="48.16554" lon="-2.71875">
        <ele>118.80000305176</ele>
        <time>2021-10-15T10:24:40.000Z</time>
      </trkpt>
      <trkpt lat="48.1655" lon="-2.71869">
        <ele>118.80000305176</ele>
        <time>2021-10-15T10:24:41.000Z</time>
      </trkpt>
      <trkpt lat="48.16547" lon="-2.71864">
        <ele>118.80000305176</ele>
        <time>2021-10-15T10:24:42.000Z</time>
      </trkpt>
      <trkpt lat="48.16544" lon="-2.71859">
        <ele>118.80000305176</ele>
        <time>2021-10-15T10:24:43.000Z</time>
      </trkpt>
      <trkpt lat="48.1654" lon="-2.71853">
        <ele>118.80000305176</ele>
        <time>2021-10-15T10:24:44.000Z</time>
      </trkpt>
      <trkpt lat="48.16537" lon="-2.71848">
        <ele>118.59999847412</ele>
        <time>2021-10-15T10:24:45.000Z</time>
      </trkpt>
      <trkpt lat="48.16534" lon="-2.71843">
        <ele>119</ele>
        <time>2021-10-15T10:24:46.000Z</time>
      </trkpt>
      <trkpt lat="48.1653" lon="-2.71838">
        <ele>119.19999694824</ele>
        <time>2021-10-15T10:24:47.000Z</time>
      </trkpt>
      <trkpt lat="48.16526" lon="-2.71832">
        <ele>119.19999694824</ele>
        <time>2021-10-15T10:24:48.000Z</time>
      </trkpt>
      <trkpt lat="48.16522" lon="-2.71828">
        <ele>119.40000152588</ele>
        <time>2021-10-15T10:24:49.000Z</time>
      </trkpt>
      <trkpt lat="48.16519" lon="-2.71823">
        <ele>119.40000152588</ele>
        <time>2021-10-15T10:24:50.000Z</time>
      </trkpt>
      <trkpt lat="48.16516" lon="-2.71818">
        <ele>119.19999694824</ele>
        <time>2021-10-15T10:24:51.000Z</time>
      </trkpt>
      <trkpt lat="48.16513" lon="-2.71813">
        <ele>119.19999694824</ele>
        <time>2021-10-15T10:24:52.000Z</time>
      </trkpt>
      <trkpt lat="48.1651" lon="-2.71809">
        <ele>119.19999694824</ele>
        <time>2021-10-15T10:24:53.000Z</time>
      </trkpt>
      <trkpt lat="48.16507" lon="-2.71804">
        <ele>119.19999694824</ele>
        <time>2021-10-15T10:24:54.000Z</time>
      </trkpt>
      <trkpt lat="48.16505" lon="-2.718">
        <ele>119</ele>
        <time>2021-10-15T10:24:55.000Z</time>
      </trkpt>
      <trkpt lat="48.16502" lon="-2.71795">
        <ele>119.19999694824</ele>
        <time>2021-10-15T10:24:56.000Z</time>
      </trkpt>
      <trkpt lat="48.16498" lon="-2.7179">
        <ele>119.40000152588</ele>
        <time>2021-10-15T10:24:57.000Z</time>
      </trkpt>
      <trkpt lat="48.16495" lon="-2.71786">
        <ele>119.59999847412</ele>
        <time>2021-10-15T10:24:58.000Z</time>
      </trkpt>
      <trkpt lat="48.16492" lon="-2.71781">
        <ele>119.80000305176</ele>
        <time>2021-10-15T10:24:59.000Z</time>
      </trkpt>
      <trkpt lat="48.16489" lon="-2.71777">
        <ele>120</ele>
        <time>2021-10-15T10:25:00.000Z</time>
      </trkpt>
      <trkpt lat="48.16486" lon="-2.71773">
        <ele>120.19999694824</ele>
        <time>2021-10-15T10:25:01.000Z</time>
      </trkpt>
      <trkpt lat="48.16483" lon="-2.71769">
        <ele>120.19999694824</ele>
        <time>2021-10-15T10:25:02.000Z</time>
      </trkpt>
      <trkpt lat="48.16481" lon="-2.71764">
        <ele>120.40000152588</ele>
        <time>2021-10-15T10:25:03.000Z</time>
      </trkpt>
      <trkpt lat="48.16479" lon="-2.7176">
        <ele>120.80000305176</ele>
        <time>2021-10-15T10:25:04.000Z</time>
      </trkpt>
      <trkpt lat="48.16477" lon="-2.71757">
        <ele>121</ele>
        <time>2021-10-15T10:25:05.000Z</time>
      </trkpt>
      <trkpt lat="48.16474" lon="-2.71752">
        <ele>121.19999694824</ele>
        <time>2021-10-15T10:25:06.000Z</time>
      </trkpt>
      <trkpt lat="48.16472" lon="-2.71748">
        <ele>121.40000152588</ele>
        <time>2021-10-15T10:25:07.000Z</time>
      </trkpt>
      <trkpt lat="48.16469" lon="-2.71743">
        <ele>121.80000305176</ele>
        <time>2021-10-15T10:25:08.000Z</time>
      </trkpt>
      <trkpt lat="48.16466" lon="-2.71738">
        <ele>122.40000152588</ele>
        <time>2021-10-15T10:25:09.000Z</time>
      </trkpt>
      <trkpt lat="48.16462" lon="-2.71732">
        <ele>122.80000305176</ele>
        <time>2021-10-15T10:25:10.000Z</time>
      </trkpt>
      <trkpt lat="48.16459" lon="-2.71727">
        <ele>123.19999694824</ele>
        <time>2021-10-15T10:25:11.000Z</time>
      </trkpt>
      <trkpt lat="48.16456" lon="-2.71721">
        <ele>123.19999694824</ele>
        <time>2021-10-15T10:25:12.000Z</time>
      </trkpt>
      <trkpt lat="48.16453" lon="-2.71716">
        <ele>123.40000152588</ele>
        <time>2021-10-15T10:25:13.000Z</time>
      </trkpt>
      <trkpt lat="48.16449" lon="-2.71711">
        <ele>123.59999847412</ele>
        <time>2021-10-15T10:25:14.000Z</time>
      </trkpt>
      <trkpt lat="48.16446" lon="-2.71707">
        <ele>124</ele>
        <time>2021-10-15T10:25:15.000Z</time>
      </trkpt>
      <trkpt lat="48.16443" lon="-2.71703">
        <ele>124.40000152588</ele>
        <time>2021-10-15T10:25:16.000Z</time>
      </trkpt>
      <trkpt lat="48.1644" lon="-2.71698">
        <ele>124.59999847412</ele>
        <time>2021-10-15T10:25:17.000Z</time>
      </trkpt>
      <trkpt lat="48.16437" lon="-2.71694">
        <ele>124.80000305176</ele>
        <time>2021-10-15T10:25:18.000Z</time>
      </trkpt>
      <trkpt lat="48.16434" lon="-2.71689">
        <ele>125</ele>
        <time>2021-10-15T10:25:19.000Z</time>
      </trkpt>
      <trkpt lat="48.16431" lon="-2.71685">
        <ele>124.80000305176</ele>
        <time>2021-10-15T10:25:20.000Z</time>
      </trkpt>
      <trkpt lat="48.16428" lon="-2.71681">
        <ele>124.80000305176</ele>
        <time>2021-10-15T10:25:21.000Z</time>
      </trkpt>
      <trkpt lat="48.16425" lon="-2.71677">
        <ele>124.80000305176</ele>
        <time>2021-10-15T10:25:22.000Z</time>
      </trkpt>
      <trkpt lat="48.16422" lon="-2.71673">
        <ele>125</ele>
        <time>2021-10-15T10:25:23.000Z</time>
      </trkpt>
      <trkpt lat="48.16419" lon="-2.71669">
        <ele>125</ele>
        <time>2021-10-15T10:25:24.000Z</time>
      </trkpt>
      <trkpt lat="48.16415" lon="-2.71664">
        <ele>125</ele>
        <time>2021-10-15T10:25:25.000Z</time>
      </trkpt>
      <trkpt lat="48.16412" lon="-2.7166">
        <ele>125</ele>
        <time>2021-10-15T10:25:26.000Z</time>
      </trkpt>
      <trkpt lat="48.16409" lon="-2.71656">
        <ele>125</ele>
        <time>2021-10-15T10:25:27.000Z</time>
      </trkpt>
      <trkpt lat="48.16406" lon="-2.71652">
        <ele>125</ele>
        <time>2021-10-15T10:25:28.000Z</time>
      </trkpt>
      <trkpt lat="48.16403" lon="-2.71648">
        <ele>124.80000305176</ele>
        <time>2021-10-15T10:25:29.000Z</time>
      </trkpt>
      <trkpt lat="48.164" lon="-2.71644">
        <ele>125</ele>
        <time>2021-10-15T10:25:30.000Z</time>
      </trkpt>
      <trkpt lat="48.16397" lon="-2.71641">
        <ele>125</ele>
        <time>2021-10-15T10:25:31.000Z</time>
      </trkpt>
      <trkpt lat="48.16394" lon="-2.71637">
        <ele>125</ele>
        <time>2021-10-15T10:25:32.000Z</time>
      </trkpt>
      <trkpt lat="48.16392" lon="-2.71633">
        <ele>125</ele>
        <time>2021-10-15T10:25:33.000Z</time>
      </trkpt>
      <trkpt lat="48.16389" lon="-2.71629">
        <ele>125</ele>
        <time>2021-10-15T10:25:34.000Z</time>
      </trkpt>
      <trkpt lat="48.16386" lon="-2.71625">
        <ele>125</ele>
        <time>2021-10-15T10:25:35.000Z</time>
      </trkpt>
      <trkpt lat="48.16384" lon="-2.71621">
        <ele>125</ele>
        <time>2021-10-15T10:25:36.000Z</time>
      </trkpt>
      <trkpt lat="48.16381" lon="-2.71617">
        <ele>125</ele>
        <time>2021-10-15T10:25:37.000Z</time>
      </trkpt>
      <trkpt lat="48.16378" lon="-2.71613">
        <ele>125</ele>
        <time>2021-10-15T10:25:38.000Z</time>
      </trkpt>
      <trkpt lat="48.16376" lon="-2.71608">
        <ele>125</ele>
        <time>2021-10-15T10:25:39.000Z</time>
      </trkpt>
      <trkpt lat="48.16373" lon="-2.71604">
        <ele>125</ele>
        <time>2021-10-15T10:25:40.000Z</time>
      </trkpt>
      <trkpt lat="48.16371" lon="-2.716">
        <ele>125</ele>
        <time>2021-10-15T10:25:41.000Z</time>
      </trkpt>
      <trkpt lat="48.16368" lon="-2.71595">
        <ele>125</ele>
        <time>2021-10-15T10:25:42.000Z</time>
      </trkpt>
      <trkpt lat="48.16366" lon="-2.71591">
        <ele>125</ele>
        <time>2021-10-15T10:25:43.000Z</time>
      </trkpt>
      <trkpt lat="48.16363" lon="-2.71586">
        <ele>125.19999694824</ele>
        <time>2021-10-15T10:25:44.000Z</time>
      </trkpt>
      <trkpt lat="48.1636" lon="-2.71582">
        <ele>125.19999694824</ele>
        <time>2021-10-15T10:25:45.000Z</time>
      </trkpt>
      <trkpt lat="48.16357" lon="-2.71578">
        <ele>125.40000152588</ele>
        <time>2021-10-15T10:25:46.000Z</time>
      </trkpt>
      <trkpt lat="48.16354" lon="-2.71574">
        <ele>125.59999847412</ele>
        <time>2021-10-15T10:25:47.000Z</time>
      </trkpt>
      <trkpt lat="48.16351" lon="-2.7157">
        <ele>125.80000305176</ele>
        <time>2021-10-15T10:25:48.000Z</time>
      </trkpt>
      <trkpt lat="48.16348" lon="-2.71566">
        <ele>125.80000305176</ele>
        <time>2021-10-15T10:25:49.000Z</time>
      </trkpt>
      <trkpt lat="48.16346" lon="-2.71562">
        <ele>125.80000305176</ele>
        <time>2021-10-15T10:25:50.000Z</time>
      </trkpt>
      <trkpt lat="48.16343" lon="-2.71558">
        <ele>125.59999847412</ele>
        <time>2021-10-15T10:25:51.000Z</time>
      </trkpt>
      <trkpt lat="48.1634" lon="-2.71554">
        <ele>125.59999847412</ele>
        <time>2021-10-15T10:25:52.000Z</time>
      </trkpt>
      <trkpt lat="48.16337" lon="-2.7155">
        <ele>125.40000152588</ele>
        <time>2021-10-15T10:25:53.000Z</time>
      </trkpt>
      <trkpt lat="48.16335" lon="-2.71546">
        <ele>125.59999847412</ele>
        <time>2021-10-15T10:25:54.000Z</time>
      </trkpt>
      <trkpt lat="48.16332" lon="-2.71542">
        <ele>125.80000305176</ele>
        <time>2021-10-15T10:25:55.000Z</time>
      </trkpt>
      <trkpt lat="48.1633" lon="-2.71538">
        <ele>125.80000305176</ele>
        <time>2021-10-15T10:25:56.000Z</time>
      </trkpt>
      <trkpt lat="48.16327" lon="-2.71534">
        <ele>126</ele>
        <time>2021-10-15T10:25:57.000Z</time>
      </trkpt>
      <trkpt lat="48.16325" lon="-2.71529">
        <ele>126</ele>
        <time>2021-10-15T10:25:58.000Z</time>
      </trkpt>
      <trkpt lat="48.16322" lon="-2.71525">
        <ele>125.80000305176</ele>
        <time>2021-10-15T10:25:59.000Z</time>
      </trkpt>
      <trkpt lat="48.1632" lon="-2.7152">
        <ele>125.59999847412</ele>
        <time>2021-10-15T10:26:00.000Z</time>
      </trkpt>
      <trkpt lat="48.16317" lon="-2.71515">
        <ele>125.59999847412</ele>
        <time>2021-10-15T10:26:01.000Z</time>
      </trkpt>
      <trkpt lat="48.16314" lon="-2.7151">
        <ele>125.40000152588</ele>
        <time>2021-10-15T10:26:02.000Z</time>
      </trkpt>
      <trkpt lat="48.16312" lon="-2.71506">
        <ele>125.19999694824</ele>
        <time>2021-10-15T10:26:03.000Z</time>
      </trkpt>
      <trkpt lat="48.1631" lon="-2.71502">
        <ele>125</ele>
        <time>2021-10-15T10:26:04.000Z</time>
      </trkpt>
      <trkpt lat="48.16308" lon="-2.71497">
        <ele>124.80000305176</ele>
        <time>2021-10-15T10:26:05.000Z</time>
      </trkpt>
      <trkpt lat="48.16306" lon="-2.71493">
        <ele>124.80000305176</ele>
        <time>2021-10-15T10:26:06.000Z</time>
      </trkpt>
      <trkpt lat="48.16304" lon="-2.71489">
        <ele>124.59999847412</ele>
        <time>2021-10-15T10:26:07.000Z</time>
      </trkpt>
      <trkpt lat="48.16302" lon="-2.71485">
        <ele>124.40000152588</ele>
        <time>2021-10-15T10:26:08.000Z</time>
      </trkpt>
      <trkpt lat="48.163" lon="-2.71481">
        <ele>124.19999694824</ele>
        <time>2021-10-15T10:26:09.000Z</time>
      </trkpt>
      <trkpt lat="48.16298" lon="-2.71477">
        <ele>124.19999694824</ele>
        <time>2021-10-15T10:26:10.000Z</time>
      </trkpt>
      <trkpt lat="48.16295" lon="-2.71472">
        <ele>124.19999694824</ele>
        <time>2021-10-15T10:26:11.000Z</time>
      </trkpt>
      <trkpt lat="48.16293" lon="-2.71469">
        <ele>124.19999694824</ele>
        <time>2021-10-15T10:26:12.000Z</time>
      </trkpt>
      <trkpt lat="48.1629" lon="-2.71465">
        <ele>124.19999694824</ele>
        <time>2021-10-15T10:26:13.000Z</time>
      </trkpt>
      <trkpt lat="48.16288" lon="-2.71461">
        <ele>124.40000152588</ele>
        <time>2021-10-15T10:26:14.000Z</time>
      </trkpt>
      <trkpt lat="48.16285" lon="-2.71458">
        <ele>124.40000152588</ele>
        <time>2021-10-15T10:26:15.000Z</time>
      </trkpt>
      <trkpt lat="48.16282" lon="-2.71454">
        <ele>124.40000152588</ele>
        <time>2021-10-15T10:26:16.000Z</time>
      </trkpt>
      <trkpt lat="48.16279" lon="-2.71449">
        <ele>124.40000152588</ele>
        <time>2021-10-15T10:26:17.000Z</time>
      </trkpt>
      <trkpt lat="48.16277" lon="-2.71445">
        <ele>124.40000152588</ele>
        <time>2021-10-15T10:26:18.000Z</time>
      </trkpt>
      <trkpt lat="48.16274" lon="-2.71441">
        <ele>124.40000152588</ele>
        <time>2021-10-15T10:26:19.000Z</time>
      </trkpt>
      <trkpt lat="48.16272" lon="-2.71436">
        <ele>124.80000305176</ele>
        <time>2021-10-15T10:26:20.000Z</time>
      </trkpt>
      <trkpt lat="48.1627" lon="-2.71433">
        <ele>125.19999694824</ele>
        <time>2021-10-15T10:26:21.000Z</time>
      </trkpt>
      <trkpt lat="48.16267" lon="-2.71429">
        <ele>125.59999847412</ele>
        <time>2021-10-15T10:26:22.000Z</time>
      </trkpt>
      <trkpt lat="48.16265" lon="-2.71425">
        <ele>125.80000305176</ele>
        <time>2021-10-15T10:26:23.000Z</time>
      </trkpt>
      <trkpt lat="48.16262" lon="-2.71421">
        <ele>126</ele>
        <time>2021-10-15T10:26:24.000Z</time>
      </trkpt>
      <trkpt lat="48.16259" lon="-2.71417">
        <ele>126</ele>
        <time>2021-10-15T10:26:25.000Z</time>
      </trkpt>
      <trkpt lat="48.16257" lon="-2.71413">
        <ele>126</ele>
        <time>2021-10-15T10:26:26.000Z</time>
      </trkpt>
      <trkpt lat="48.16254" lon="-2.71409">
        <ele>126</ele>
        <time>2021-10-15T10:26:27.000Z</time>
      </trkpt>
      <trkpt lat="48.16252" lon="-2.71405">
        <ele>126</ele>
        <time>2021-10-15T10:26:28.000Z</time>
      </trkpt>
      <trkpt lat="48.16249" lon="-2.71401">
        <ele>126</ele>
        <time>2021-10-15T10:26:29.000Z</time>
      </trkpt>
      <trkpt lat="48.16247" lon="-2.71397">
        <ele>126</ele>
        <time>2021-10-15T10:26:30.000Z</time>
      </trkpt>
      <trkpt lat="48.16244" lon="-2.71393">
        <ele>126</ele>
        <time>2021-10-15T10:26:31.000Z</time>
      </trkpt>
      <trkpt lat="48.16241" lon="-2.7139">
        <ele>126</ele>
        <time>2021-10-15T10:26:32.000Z</time>
      </trkpt>
      <trkpt lat="48.16238" lon="-2.71386">
        <ele>126</ele>
        <time>2021-10-15T10:26:33.000Z</time>
      </trkpt>
      <trkpt lat="48.16235" lon="-2.71382">
        <ele>126</ele>
        <time>2021-10-15T10:26:34.000Z</time>
      </trkpt>
      <trkpt lat="48.16233" lon="-2.71379">
        <ele>126</ele>
        <time>2021-10-15T10:26:35.000Z</time>
      </trkpt>
      <trkpt lat="48.1623" lon="-2.71376">
        <ele>126</ele>
        <time>2021-10-15T10:26:36.000Z</time>
      </trkpt>
      <trkpt lat="48.16228" lon="-2.71373">
        <ele>126</ele>
        <time>2021-10-15T10:26:37.000Z</time>
      </trkpt>
      <trkpt lat="48.16225" lon="-2.71369">
        <ele>126</ele>
        <time>2021-10-15T10:26:38.000Z</time>
      </trkpt>
      <trkpt lat="48.16223" lon="-2.71366">
        <ele>126</ele>
        <time>2021-10-15T10:26:39.000Z</time>
      </trkpt>
      <trkpt lat="48.1622" lon="-2.71364">
        <ele>125.80000305176</ele>
        <time>2021-10-15T10:26:40.000Z</time>
      </trkpt>
      <trkpt lat="48.16218" lon="-2.7136">
        <ele>125.80000305176</ele>
        <time>2021-10-15T10:26:41.000Z</time>
      </trkpt>
      <trkpt lat="48.16215" lon="-2.71357">
        <ele>126</ele>
        <time>2021-10-15T10:26:42.000Z</time>
      </trkpt>
      <trkpt lat="48.16212" lon="-2.71353">
        <ele>126</ele>
        <time>2021-10-15T10:26:43.000Z</time>
      </trkpt>
      <trkpt lat="48.16209" lon="-2.71351">
        <ele>126</ele>
        <time>2021-10-15T10:26:44.000Z</time>
      </trkpt>
      <trkpt lat="48.16207" lon="-2.71348">
        <ele>126</ele>
        <time>2021-10-15T10:26:45.000Z</time>
      </trkpt>
      <trkpt lat="48.16204" lon="-2.71345">
        <ele>126</ele>
        <time>2021-10-15T10:26:46.000Z</time>
      </trkpt>
      <trkpt lat="48.16202" lon="-2.71342">
        <ele>126</ele>
        <time>2021-10-15T10:26:47.000Z</time>
      </trkpt>
      <trkpt lat="48.16199" lon="-2.71338">
        <ele>126</ele>
        <time>2021-10-15T10:26:48.000Z</time>
      </trkpt>
      <trkpt lat="48.16197" lon="-2.71335">
        <ele>126</ele>
        <time>2021-10-15T10:26:49.000Z</time>
      </trkpt>
      <trkpt lat="48.16194" lon="-2.71332">
        <ele>126</ele>
        <time>2021-10-15T10:26:50.000Z</time>
      </trkpt>
      <trkpt lat="48.1619" lon="-2.71329">
        <ele>126</ele>
        <time>2021-10-15T10:26:51.000Z</time>
      </trkpt>
      <trkpt lat="48.16186" lon="-2.71326">
        <ele>126</ele>
        <time>2021-10-15T10:26:52.000Z</time>
      </trkpt>
      <trkpt lat="48.16183" lon="-2.71322">
        <ele>126</ele>
        <time>2021-10-15T10:26:53.000Z</time>
      </trkpt>
      <trkpt lat="48.1618" lon="-2.71319">
        <ele>125.80000305176</ele>
        <time>2021-10-15T10:26:54.000Z</time>
      </trkpt>
      <trkpt lat="48.16177" lon="-2.71316">
        <ele>125.80000305176</ele>
        <time>2021-10-15T10:26:55.000Z</time>
      </trkpt>
      <trkpt lat="48.16174" lon="-2.71314">
        <ele>126</ele>
        <time>2021-10-15T10:26:56.000Z</time>
      </trkpt>
      <trkpt lat="48.16171" lon="-2.71311">
        <ele>126</ele>
        <time>2021-10-15T10:26:57.000Z</time>
      </trkpt>
      <trkpt lat="48.16168" lon="-2.71309">
        <ele>126</ele>
        <time>2021-10-15T10:26:58.000Z</time>
      </trkpt>
      <trkpt lat="48.16164" lon="-2.71306">
        <ele>125.80000305176</ele>
        <time>2021-10-15T10:26:59.000Z</time>
      </trkpt>
      <trkpt lat="48.16161" lon="-2.71304">
        <ele>125.80000305176</ele>
        <time>2021-10-15T10:27:00.000Z</time>
      </trkpt>
      <trkpt lat="48.16157" lon="-2.71301">
        <ele>126</ele>
        <time>2021-10-15T10:27:01.000Z</time>
      </trkpt>
      <trkpt lat="48.16154" lon="-2.713">
        <ele>125.80000305176</ele>
        <time>2021-10-15T10:27:02.000Z</time>
      </trkpt>
      <trkpt lat="48.1615" lon="-2.71298">
        <ele>125.80000305176</ele>
        <time>2021-10-15T10:27:03.000Z</time>
      </trkpt>
      <trkpt lat="48.16148" lon="-2.71296">
        <ele>125.59999847412</ele>
        <time>2021-10-15T10:27:04.000Z</time>
      </trkpt>
      <trkpt lat="48.16144" lon="-2.71293">
        <ele>125.80000305176</ele>
        <time>2021-10-15T10:27:05.000Z</time>
      </trkpt>
      <trkpt lat="48.16141" lon="-2.71291">
        <ele>126</ele>
        <time>2021-10-15T10:27:06.000Z</time>
      </trkpt>
      <trkpt lat="48.16137" lon="-2.71288">
        <ele>126.40000152588</ele>
        <time>2021-10-15T10:27:07.000Z</time>
      </trkpt>
      <trkpt lat="48.16133" lon="-2.71286">
        <ele>126.80000305176</ele>
        <time>2021-10-15T10:27:08.000Z</time>
      </trkpt>
      <trkpt lat="48.16129" lon="-2.71283">
        <ele>127</ele>
        <time>2021-10-15T10:27:09.000Z</time>
      </trkpt>
      <trkpt lat="48.16124" lon="-2.7128">
        <ele>127</ele>
        <time>2021-10-15T10:27:10.000Z</time>
      </trkpt>
      <trkpt lat="48.16119" lon="-2.71278">
        <ele>127</ele>
        <time>2021-10-15T10:27:11.000Z</time>
      </trkpt>
      <trkpt lat="48.16115" lon="-2.71276">
        <ele>127</ele>
        <time>2021-10-15T10:27:12.000Z</time>
      </trkpt>
      <trkpt lat="48.1611" lon="-2.71273">
        <ele>127</ele>
        <time>2021-10-15T10:27:13.000Z</time>
      </trkpt>
      <trkpt lat="48.16107" lon="-2.71271">
        <ele>127</ele>
        <time>2021-10-15T10:27:14.000Z</time>
      </trkpt>
      <trkpt lat="48.16103" lon="-2.71269">
        <ele>127</ele>
        <time>2021-10-15T10:27:15.000Z</time>
      </trkpt>
      <trkpt lat="48.161" lon="-2.71267">
        <ele>127</ele>
        <time>2021-10-15T10:27:16.000Z</time>
      </trkpt>
      <trkpt lat="48.16097" lon="-2.71265">
        <ele>126.80000305176</ele>
        <time>2021-10-15T10:27:17.000Z</time>
      </trkpt>
      <trkpt lat="48.16093" lon="-2.71264">
        <ele>126.80000305176</ele>
        <time>2021-10-15T10:27:18.000Z</time>
      </trkpt>
      <trkpt lat="48.1609" lon="-2.71263">
        <ele>126.59999847412</ele>
        <time>2021-10-15T10:27:19.000Z</time>
      </trkpt>
      <trkpt lat="48.16087" lon="-2.71261">
        <ele>126.40000152588</ele>
        <time>2021-10-15T10:27:20.000Z</time>
      </trkpt>
      <trkpt lat="48.16083" lon="-2.71259">
        <ele>126.40000152588</ele>
        <time>2021-10-15T10:27:21.000Z</time>
      </trkpt>
      <trkpt lat="48.1608" lon="-2.71256">
        <ele>126.19999694824</ele>
        <time>2021-10-15T10:27:22.000Z</time>
      </trkpt>
      <trkpt lat="48.16076" lon="-2.71254">
        <ele>126.19999694824</ele>
        <time>2021-10-15T10:27:23.000Z</time>
      </trkpt>
      <trkpt lat="48.16072" lon="-2.71252">
        <ele>126.19999694824</ele>
        <time>2021-10-15T10:27:24.000Z</time>
      </trkpt>
      <trkpt lat="48.16069" lon="-2.7125">
        <ele>126.40000152588</ele>
        <time>2021-10-15T10:27:25.000Z</time>
      </trkpt>
      <trkpt lat="48.16065" lon="-2.71247">
        <ele>126.59999847412</ele>
        <time>2021-10-15T10:27:26.000Z</time>
      </trkpt>
      <trkpt lat="48.16061" lon="-2.71245">
        <ele>126.80000305176</ele>
        <time>2021-10-15T10:27:27.000Z</time>
      </trkpt>
      <trkpt lat="48.16058" lon="-2.71243">
        <ele>127</ele>
        <time>2021-10-15T10:27:28.000Z</time>
      </trkpt>
      <trkpt lat="48.16054" lon="-2.71241">
        <ele>127</ele>
        <time>2021-10-15T10:27:29.000Z</time>
      </trkpt>
      <trkpt lat="48.16051" lon="-2.71239">
        <ele>127</ele>
        <time>2021-10-15T10:27:30.000Z</time>
      </trkpt>
      <trkpt lat="48.16048" lon="-2.71237">
        <ele>127</ele>
        <time>2021-10-15T10:27:31.000Z</time>
      </trkpt>
      <trkpt lat="48.16044" lon="-2.71235">
        <ele>127</ele>
        <time>2021-10-15T10:27:32.000Z</time>
      </trkpt>
      <trkpt lat="48.16041" lon="-2.71233">
        <ele>127.19999694824</ele>
        <time>2021-10-15T10:27:33.000Z</time>
      </trkpt>
      <trkpt lat="48.16038" lon="-2.71231">
        <ele>127.40000152588</ele>
        <time>2021-10-15T10:27:34.000Z</time>
      </trkpt>
      <trkpt lat="48.16035" lon="-2.71229">
        <ele>127.80000305176</ele>
        <time>2021-10-15T10:27:35.000Z</time>
      </trkpt>
      <trkpt lat="48.16031" lon="-2.71227">
        <ele>128.19999694824</ele>
        <time>2021-10-15T10:27:36.000Z</time>
      </trkpt>
      <trkpt lat="48.16028" lon="-2.71226">
        <ele>128.39999389648</ele>
        <time>2021-10-15T10:27:37.000Z</time>
      </trkpt>
      <trkpt lat="48.16025" lon="-2.71224">
        <ele>128.60000610352</ele>
        <time>2021-10-15T10:27:38.000Z</time>
      </trkpt>
      <trkpt lat="48.16022" lon="-2.71222">
        <ele>129</ele>
        <time>2021-10-15T10:27:39.000Z</time>
      </trkpt>
      <trkpt lat="48.16017" lon="-2.71221">
        <ele>129.19999694824</ele>
        <time>2021-10-15T10:27:40.000Z</time>
      </trkpt>
      <trkpt lat="48.16014" lon="-2.71219">
        <ele>129.39999389648</ele>
        <time>2021-10-15T10:27:41.000Z</time>
      </trkpt>
      <trkpt lat="48.1601" lon="-2.71217">
        <ele>129.39999389648</ele>
        <time>2021-10-15T10:27:42.000Z</time>
      </trkpt>
      <trkpt lat="48.16007" lon="-2.71215">
        <ele>129.39999389648</ele>
        <time>2021-10-15T10:27:43.000Z</time>
      </trkpt>
      <trkpt lat="48.16004" lon="-2.71212">
        <ele>129.60000610352</ele>
        <time>2021-10-15T10:27:44.000Z</time>
      </trkpt>
      <trkpt lat="48.16001" lon="-2.7121">
        <ele>130</ele>
        <time>2021-10-15T10:27:45.000Z</time>
      </trkpt>
      <trkpt lat="48.15998" lon="-2.71208">
        <ele>130.19999694824</ele>
        <time>2021-10-15T10:27:46.000Z</time>
      </trkpt>
      <trkpt lat="48.15995" lon="-2.71207">
        <ele>130.39999389648</ele>
        <time>2021-10-15T10:27:47.000Z</time>
      </trkpt>
      <trkpt lat="48.15992" lon="-2.71206">
        <ele>130.60000610352</ele>
        <time>2021-10-15T10:27:48.000Z</time>
      </trkpt>
      <trkpt lat="48.1599" lon="-2.71204">
        <ele>130.80000305176</ele>
        <time>2021-10-15T10:27:49.000Z</time>
      </trkpt>
      <trkpt lat="48.15988" lon="-2.71202">
        <ele>131</ele>
        <time>2021-10-15T10:27:50.000Z</time>
      </trkpt>
      <trkpt lat="48.15986" lon="-2.71201">
        <ele>131</ele>
        <time>2021-10-15T10:27:51.000Z</time>
      </trkpt>
      <trkpt lat="48.15983" lon="-2.71198">
        <ele>131</ele>
        <time>2021-10-15T10:27:52.000Z</time>
      </trkpt>
      <trkpt lat="48.15982" lon="-2.71196">
        <ele>131</ele>
        <time>2021-10-15T10:27:53.000Z</time>
      </trkpt>
      <trkpt lat="48.1598" lon="-2.71194">
        <ele>131</ele>
        <time>2021-10-15T10:27:54.000Z</time>
      </trkpt>
      <trkpt lat="48.15977" lon="-2.71192">
        <ele>131</ele>
        <time>2021-10-15T10:27:55.000Z</time>
      </trkpt>
      <trkpt lat="48.15974" lon="-2.71189">
        <ele>131</ele>
        <time>2021-10-15T10:27:56.000Z</time>
      </trkpt>
      <trkpt lat="48.15971" lon="-2.71187">
        <ele>131.19999694824</ele>
        <time>2021-10-15T10:27:57.000Z</time>
      </trkpt>
      <trkpt lat="48.15967" lon="-2.71184">
        <ele>131.39999389648</ele>
        <time>2021-10-15T10:27:58.000Z</time>
      </trkpt>
      <trkpt lat="48.15963" lon="-2.71181">
        <ele>131.80000305176</ele>
        <time>2021-10-15T10:27:59.000Z</time>
      </trkpt>
      <trkpt lat="48.15959" lon="-2.71177">
        <ele>131.80000305176</ele>
        <time>2021-10-15T10:28:00.000Z</time>
      </trkpt>
      <trkpt lat="48.15955" lon="-2.71174">
        <ele>132</ele>
        <time>2021-10-15T10:28:01.000Z</time>
      </trkpt>
      <trkpt lat="48.15951" lon="-2.71171">
        <ele>132</ele>
        <time>2021-10-15T10:28:02.000Z</time>
      </trkpt>
      <trkpt lat="48.15948" lon="-2.71168">
        <ele>132.19999694824</ele>
        <time>2021-10-15T10:28:03.000Z</time>
      </trkpt>
      <trkpt lat="48.15944" lon="-2.71164">
        <ele>132.19999694824</ele>
        <time>2021-10-15T10:28:04.000Z</time>
      </trkpt>
      <trkpt lat="48.15941" lon="-2.71161">
        <ele>132.39999389648</ele>
        <time>2021-10-15T10:28:05.000Z</time>
      </trkpt>
      <trkpt lat="48.15937" lon="-2.71159">
        <ele>132.39999389648</ele>
        <time>2021-10-15T10:28:06.000Z</time>
      </trkpt>
      <trkpt lat="48.15934" lon="-2.71155">
        <ele>132.60000610352</ele>
        <time>2021-10-15T10:28:07.000Z</time>
      </trkpt>
      <trkpt lat="48.1593" lon="-2.71153">
        <ele>132.60000610352</ele>
        <time>2021-10-15T10:28:08.000Z</time>
      </trkpt>
      <trkpt lat="48.15926" lon="-2.71149">
        <ele>132.60000610352</ele>
        <time>2021-10-15T10:28:09.000Z</time>
      </trkpt>
      <trkpt lat="48.15922" lon="-2.71146">
        <ele>132.60000610352</ele>
        <time>2021-10-15T10:28:10.000Z</time>
      </trkpt>
      <trkpt lat="48.15919" lon="-2.71142">
        <ele>132.39999389648</ele>
        <time>2021-10-15T10:28:11.000Z</time>
      </trkpt>
      <trkpt lat="48.15915" lon="-2.71139">
        <ele>132.19999694824</ele>
        <time>2021-10-15T10:28:12.000Z</time>
      </trkpt>
      <trkpt lat="48.15912" lon="-2.71136">
        <ele>132.39999389648</ele>
        <time>2021-10-15T10:28:13.000Z</time>
      </trkpt>
      <trkpt lat="48.15908" lon="-2.71133">
        <ele>132.39999389648</ele>
        <time>2021-10-15T10:28:14.000Z</time>
      </trkpt>
      <trkpt lat="48.15904" lon="-2.7113">
        <ele>132.39999389648</ele>
        <time>2021-10-15T10:28:15.000Z</time>
      </trkpt>
      <trkpt lat="48.15901" lon="-2.71127">
        <ele>132.39999389648</ele>
        <time>2021-10-15T10:28:16.000Z</time>
      </trkpt>
      <trkpt lat="48.15898" lon="-2.71124">
        <ele>132.39999389648</ele>
        <time>2021-10-15T10:28:17.000Z</time>
      </trkpt>
      <trkpt lat="48.15894" lon="-2.7112">
        <ele>132.39999389648</ele>
        <time>2021-10-15T10:28:18.000Z</time>
      </trkpt>
      <trkpt lat="48.15891" lon="-2.71116">
        <ele>132.39999389648</ele>
        <time>2021-10-15T10:28:19.000Z</time>
      </trkpt>
      <trkpt lat="48.15888" lon="-2.71112">
        <ele>132.39999389648</ele>
        <time>2021-10-15T10:28:20.000Z</time>
      </trkpt>
      <trkpt lat="48.15885" lon="-2.71109">
        <ele>132.19999694824</ele>
        <time>2021-10-15T10:28:21.000Z</time>
      </trkpt>
      <trkpt lat="48.15882" lon="-2.71105">
        <ele>132</ele>
        <time>2021-10-15T10:28:22.000Z</time>
      </trkpt>
      <trkpt lat="48.15878" lon="-2.71102">
        <ele>132</ele>
        <time>2021-10-15T10:28:23.000Z</time>
      </trkpt>
      <trkpt lat="48.15875" lon="-2.71099">
        <ele>131.80000305176</ele>
        <time>2021-10-15T10:28:24.000Z</time>
      </trkpt>
      <trkpt lat="48.15872" lon="-2.71096">
        <ele>131.80000305176</ele>
        <time>2021-10-15T10:28:25.000Z</time>
      </trkpt>
      <trkpt lat="48.15869" lon="-2.71092">
        <ele>131.80000305176</ele>
        <time>2021-10-15T10:28:26.000Z</time>
      </trkpt>
      <trkpt lat="48.15867" lon="-2.71088">
        <ele>132</ele>
        <time>2021-10-15T10:28:27.000Z</time>
      </trkpt>
      <trkpt lat="48.15863" lon="-2.71085">
        <ele>132</ele>
        <time>2021-10-15T10:28:28.000Z</time>
      </trkpt>
      <trkpt lat="48.1586" lon="-2.71081">
        <ele>132</ele>
        <time>2021-10-15T10:28:29.000Z</time>
      </trkpt>
      <trkpt lat="48.15858" lon="-2.71077">
        <ele>132</ele>
        <time>2021-10-15T10:28:30.000Z</time>
      </trkpt>
      <trkpt lat="48.15855" lon="-2.71073">
        <ele>132</ele>
        <time>2021-10-15T10:28:31.000Z</time>
      </trkpt>
      <trkpt lat="48.15852" lon="-2.7107">
        <ele>132</ele>
        <time>2021-10-15T10:28:32.000Z</time>
      </trkpt>
      <trkpt lat="48.15849" lon="-2.71066">
        <ele>131.80000305176</ele>
        <time>2021-10-15T10:28:33.000Z</time>
      </trkpt>
      <trkpt lat="48.15846" lon="-2.71062">
        <ele>132</ele>
        <time>2021-10-15T10:28:34.000Z</time>
      </trkpt>
      <trkpt lat="48.15842" lon="-2.71058">
        <ele>132.19999694824</ele>
        <time>2021-10-15T10:28:35.000Z</time>
      </trkpt>
      <trkpt lat="48.15839" lon="-2.71054">
        <ele>132.19999694824</ele>
        <time>2021-10-15T10:28:36.000Z</time>
      </trkpt>
      <trkpt lat="48.15836" lon="-2.71049">
        <ele>132.39999389648</ele>
        <time>2021-10-15T10:28:37.000Z</time>
      </trkpt>
      <trkpt lat="48.15832" lon="-2.71044">
        <ele>132.60000610352</ele>
        <time>2021-10-15T10:28:38.000Z</time>
      </trkpt>
      <trkpt lat="48.15829" lon="-2.7104">
        <ele>132.80000305176</ele>
        <time>2021-10-15T10:28:39.000Z</time>
      </trkpt>
      <trkpt lat="48.15826" lon="-2.71036">
        <ele>133</ele>
        <time>2021-10-15T10:28:40.000Z</time>
      </trkpt>
      <trkpt lat="48.15823" lon="-2.71031">
        <ele>133</ele>
        <time>2021-10-15T10:28:41.000Z</time>
      </trkpt>
      <trkpt lat="48.15819" lon="-2.71027">
        <ele>132.80000305176</ele>
        <time>2021-10-15T10:28:42.000Z</time>
      </trkpt>
      <trkpt lat="48.15816" lon="-2.71023">
        <ele>132.80000305176</ele>
        <time>2021-10-15T10:28:43.000Z</time>
      </trkpt>
      <trkpt lat="48.15812" lon="-2.71018">
        <ele>132.60000610352</ele>
        <time>2021-10-15T10:28:44.000Z</time>
      </trkpt>
      <trkpt lat="48.15809" lon="-2.71014">
        <ele>132.60000610352</ele>
        <time>2021-10-15T10:28:45.000Z</time>
      </trkpt>
      <trkpt lat="48.15805" lon="-2.71011">
        <ele>132.80000305176</ele>
        <time>2021-10-15T10:28:46.000Z</time>
      </trkpt>
      <trkpt lat="48.15802" lon="-2.71007">
        <ele>133</ele>
        <time>2021-10-15T10:28:47.000Z</time>
      </trkpt>
      <trkpt lat="48.15799" lon="-2.71004">
        <ele>133</ele>
        <time>2021-10-15T10:28:48.000Z</time>
      </trkpt>
      <trkpt lat="48.15796" lon="-2.71">
        <ele>133</ele>
        <time>2021-10-15T10:28:49.000Z</time>
      </trkpt>
      <trkpt lat="48.15792" lon="-2.70997">
        <ele>132.80000305176</ele>
        <time>2021-10-15T10:28:50.000Z</time>
      </trkpt>
      <trkpt lat="48.15789" lon="-2.70994">
        <ele>132.80000305176</ele>
        <time>2021-10-15T10:28:51.000Z</time>
      </trkpt>
      <trkpt lat="48.15786" lon="-2.7099">
        <ele>132.60000610352</ele>
        <time>2021-10-15T10:28:52.000Z</time>
      </trkpt>
      <trkpt lat="48.15783" lon="-2.70986">
        <ele>132.80000305176</ele>
        <time>2021-10-15T10:28:53.000Z</time>
      </trkpt>
      <trkpt lat="48.1578" lon="-2.70983">
        <ele>132.80000305176</ele>
        <time>2021-10-15T10:28:54.000Z</time>
      </trkpt>
      <trkpt lat="48.15777" lon="-2.70979">
        <ele>133</ele>
        <time>2021-10-15T10:28:55.000Z</time>
      </trkpt>
      <trkpt lat="48.15775" lon="-2.70975">
        <ele>133.19999694824</ele>
        <time>2021-10-15T10:28:56.000Z</time>
      </trkpt>
      <trkpt lat="48.15772" lon="-2.70972">
        <ele>133.19999694824</ele>
        <time>2021-10-15T10:28:57.000Z</time>
      </trkpt>
      <trkpt lat="48.15769" lon="-2.70968">
        <ele>133</ele>
        <time>2021-10-15T10:28:58.000Z</time>
      </trkpt>
      <trkpt lat="48.15767" lon="-2.70964">
        <ele>133</ele>
        <time>2021-10-15T10:28:59.000Z</time>
      </trkpt>
      <trkpt lat="48.15764" lon="-2.7096">
        <ele>133</ele>
        <time>2021-10-15T10:29:00.000Z</time>
      </trkpt>
      <trkpt lat="48.15761" lon="-2.70957">
        <ele>133</ele>
        <time>2021-10-15T10:29:01.000Z</time>
      </trkpt>
      <trkpt lat="48.15759" lon="-2.70953">
        <ele>133</ele>
        <time>2021-10-15T10:29:02.000Z</time>
      </trkpt>
      <trkpt lat="48.15757" lon="-2.7095">
        <ele>133</ele>
        <time>2021-10-15T10:29:03.000Z</time>
      </trkpt>
      <trkpt lat="48.15756" lon="-2.70947">
        <ele>133.19999694824</ele>
        <time>2021-10-15T10:29:04.000Z</time>
      </trkpt>
      <trkpt lat="48.15754" lon="-2.70944">
        <ele>133.19999694824</ele>
        <time>2021-10-15T10:29:05.000Z</time>
      </trkpt>
      <trkpt lat="48.15753" lon="-2.70941">
        <ele>133.39999389648</ele>
        <time>2021-10-15T10:29:06.000Z</time>
      </trkpt>
      <trkpt lat="48.15752" lon="-2.7094">
        <ele>133.39999389648</ele>
        <time>2021-10-15T10:29:07.000Z</time>
      </trkpt>
      <trkpt lat="48.1575" lon="-2.70938">
        <ele>133.39999389648</ele>
        <time>2021-10-15T10:29:08.000Z</time>
      </trkpt>
      <trkpt lat="48.15749" lon="-2.70936">
        <ele>133.60000610352</ele>
        <time>2021-10-15T10:29:09.000Z</time>
      </trkpt>
      <trkpt lat="48.15747" lon="-2.70934">
        <ele>133.60000610352</ele>
        <time>2021-10-15T10:29:10.000Z</time>
      </trkpt>
      <trkpt lat="48.15746" lon="-2.70932">
        <ele>133.60000610352</ele>
        <time>2021-10-15T10:29:11.000Z</time>
      </trkpt>
      <trkpt lat="48.15744" lon="-2.7093">
        <ele>133.80000305176</ele>
        <time>2021-10-15T10:29:12.000Z</time>
      </trkpt>
      <trkpt lat="48.15742" lon="-2.70926">
        <ele>133.80000305176</ele>
        <time>2021-10-15T10:29:13.000Z</time>
      </trkpt>
      <trkpt lat="48.15741" lon="-2.70923">
        <ele>134</ele>
        <time>2021-10-15T10:29:14.000Z</time>
      </trkpt>
      <trkpt lat="48.15739" lon="-2.70919">
        <ele>134</ele>
        <time>2021-10-15T10:29:15.000Z</time>
      </trkpt>
      <trkpt lat="48.15737" lon="-2.70915">
        <ele>133.80000305176</ele>
        <time>2021-10-15T10:29:16.000Z</time>
      </trkpt>
      <trkpt lat="48.15735" lon="-2.70911">
        <ele>133.80000305176</ele>
        <time>2021-10-15T10:29:17.000Z</time>
      </trkpt>
      <trkpt lat="48.15733" lon="-2.70906">
        <ele>133.80000305176</ele>
        <time>2021-10-15T10:29:18.000Z</time>
      </trkpt>
      <trkpt lat="48.1573" lon="-2.70901">
        <ele>133.80000305176</ele>
        <time>2021-10-15T10:29:19.000Z</time>
      </trkpt>
      <trkpt lat="48.15728" lon="-2.70896">
        <ele>134</ele>
        <time>2021-10-15T10:29:20.000Z</time>
      </trkpt>
      <trkpt lat="48.15725" lon="-2.70891">
        <ele>134.19999694824</ele>
        <time>2021-10-15T10:29:21.000Z</time>
      </trkpt>
      <trkpt lat="48.15722" lon="-2.70886">
        <ele>134.39999389648</ele>
        <time>2021-10-15T10:29:22.000Z</time>
      </trkpt>
      <trkpt lat="48.15719" lon="-2.70881">
        <ele>134.19999694824</ele>
        <time>2021-10-15T10:29:23.000Z</time>
      </trkpt>
      <trkpt lat="48.15717" lon="-2.70875">
        <ele>134.19999694824</ele>
        <time>2021-10-15T10:29:24.000Z</time>
      </trkpt>
      <trkpt lat="48.15714" lon="-2.7087">
        <ele>134</ele>
        <time>2021-10-15T10:29:25.000Z</time>
      </trkpt>
      <trkpt lat="48.15712" lon="-2.70865">
        <ele>134</ele>
        <time>2021-10-15T10:29:26.000Z</time>
      </trkpt>
      <trkpt lat="48.1571" lon="-2.7086">
        <ele>133.80000305176</ele>
        <time>2021-10-15T10:29:27.000Z</time>
      </trkpt>
      <trkpt lat="48.15707" lon="-2.70856">
        <ele>133.80000305176</ele>
        <time>2021-10-15T10:29:28.000Z</time>
      </trkpt>
      <trkpt lat="48.15705" lon="-2.70851">
        <ele>133.80000305176</ele>
        <time>2021-10-15T10:29:29.000Z</time>
      </trkpt>
      <trkpt lat="48.15703" lon="-2.70845">
        <ele>133.60000610352</ele>
        <time>2021-10-15T10:29:30.000Z</time>
      </trkpt>
      <trkpt lat="48.15701" lon="-2.7084">
        <ele>133.60000610352</ele>
        <time>2021-10-15T10:29:31.000Z</time>
      </trkpt>
      <trkpt lat="48.157" lon="-2.70835">
        <ele>133.60000610352</ele>
        <time>2021-10-15T10:29:32.000Z</time>
      </trkpt>
      <trkpt lat="48.15698" lon="-2.70829">
        <ele>133.39999389648</ele>
        <time>2021-10-15T10:29:33.000Z</time>
      </trkpt>
      <trkpt lat="48.15695" lon="-2.70824">
        <ele>133.39999389648</ele>
        <time>2021-10-15T10:29:34.000Z</time>
      </trkpt>
      <trkpt lat="48.15693" lon="-2.70818">
        <ele>133.19999694824</ele>
        <time>2021-10-15T10:29:35.000Z</time>
      </trkpt>
      <trkpt lat="48.15691" lon="-2.70813">
        <ele>133.19999694824</ele>
        <time>2021-10-15T10:29:36.000Z</time>
      </trkpt>
      <trkpt lat="48.15689" lon="-2.70807">
        <ele>133.39999389648</ele>
        <time>2021-10-15T10:29:37.000Z</time>
      </trkpt>
      <trkpt lat="48.15688" lon="-2.70802">
        <ele>133.60000610352</ele>
        <time>2021-10-15T10:29:38.000Z</time>
      </trkpt>
      <trkpt lat="48.15686" lon="-2.70797">
        <ele>134</ele>
        <time>2021-10-15T10:29:39.000Z</time>
      </trkpt>
      <trkpt lat="48.15684" lon="-2.70791">
        <ele>134.39999389648</ele>
        <time>2021-10-15T10:29:40.000Z</time>
      </trkpt>
      <trkpt lat="48.15683" lon="-2.70786">
        <ele>134.80000305176</ele>
        <time>2021-10-15T10:29:41.000Z</time>
      </trkpt>
      <trkpt lat="48.15682" lon="-2.7078">
        <ele>135.19999694824</ele>
        <time>2021-10-15T10:29:42.000Z</time>
      </trkpt>
      <trkpt lat="48.1568" lon="-2.70774">
        <ele>135.39999389648</ele>
        <time>2021-10-15T10:29:43.000Z</time>
      </trkpt>
      <trkpt lat="48.15678" lon="-2.70768">
        <ele>135.80000305176</ele>
        <time>2021-10-15T10:29:44.000Z</time>
      </trkpt>
      <trkpt lat="48.15676" lon="-2.70762">
        <ele>136.19999694824</ele>
        <time>2021-10-15T10:29:45.000Z</time>
      </trkpt>
      <trkpt lat="48.15673" lon="-2.70756">
        <ele>136.19999694824</ele>
        <time>2021-10-15T10:29:46.000Z</time>
      </trkpt>
      <trkpt lat="48.15671" lon="-2.7075">
        <ele>136</ele>
        <time>2021-10-15T10:29:47.000Z</time>
      </trkpt>
      <trkpt lat="48.15669" lon="-2.70745">
        <ele>135.80000305176</ele>
        <time>2021-10-15T10:29:48.000Z</time>
      </trkpt>
      <trkpt lat="48.15668" lon="-2.70739">
        <ele>136.19999694824</ele>
        <time>2021-10-15T10:29:49.000Z</time>
      </trkpt>
      <trkpt lat="48.15666" lon="-2.70734">
        <ele>136.60000610352</ele>
        <time>2021-10-15T10:29:50.000Z</time>
      </trkpt>
      <trkpt lat="48.15665" lon="-2.7073">
        <ele>136.80000305176</ele>
        <time>2021-10-15T10:29:51.000Z</time>
      </trkpt>
      <trkpt lat="48.15664" lon="-2.70725">
        <ele>137.19999694824</ele>
        <time>2021-10-15T10:29:52.000Z</time>
      </trkpt>
      <trkpt lat="48.15663" lon="-2.7072">
        <ele>137.19999694824</ele>
        <time>2021-10-15T10:29:53.000Z</time>
      </trkpt>
      <trkpt lat="48.15661" lon="-2.70715">
        <ele>137.19999694824</ele>
        <time>2021-10-15T10:29:54.000Z</time>
      </trkpt>
      <trkpt lat="48.15659" lon="-2.70709">
        <ele>137</ele>
        <time>2021-10-15T10:29:55.000Z</time>
      </trkpt>
      <trkpt lat="48.15658" lon="-2.70703">
        <ele>137</ele>
        <time>2021-10-15T10:29:56.000Z</time>
      </trkpt>
      <trkpt lat="48.15657" lon="-2.70697">
        <ele>137</ele>
        <time>2021-10-15T10:29:57.000Z</time>
      </trkpt>
      <trkpt lat="48.15656" lon="-2.70692">
        <ele>137</ele>
        <time>2021-10-15T10:29:58.000Z</time>
      </trkpt>
      <trkpt lat="48.15656" lon="-2.70687">
        <ele>137</ele>
        <time>2021-10-15T10:29:59.000Z</time>
      </trkpt>
      <trkpt lat="48.15654" lon="-2.70681">
        <ele>136.80000305176</ele>
        <time>2021-10-15T10:30:00.000Z</time>
      </trkpt>
      <trkpt lat="48.15653" lon="-2.70676">
        <ele>136.80000305176</ele>
        <time>2021-10-15T10:30:01.000Z</time>
      </trkpt>
      <trkpt lat="48.15651" lon="-2.7067">
        <ele>137</ele>
        <time>2021-10-15T10:30:02.000Z</time>
      </trkpt>
      <trkpt lat="48.1565" lon="-2.70664">
        <ele>137.39999389648</ele>
        <time>2021-10-15T10:30:03.000Z</time>
      </trkpt>
      <trkpt lat="48.15649" lon="-2.70658">
        <ele>137.60000610352</ele>
        <time>2021-10-15T10:30:04.000Z</time>
      </trkpt>
      <trkpt lat="48.15648" lon="-2.70652">
        <ele>137.60000610352</ele>
        <time>2021-10-15T10:30:05.000Z</time>
      </trkpt>
      <trkpt lat="48.15647" lon="-2.70647">
        <ele>137.60000610352</ele>
        <time>2021-10-15T10:30:06.000Z</time>
      </trkpt>
      <trkpt lat="48.15646" lon="-2.70643">
        <ele>137.60000610352</ele>
        <time>2021-10-15T10:30:07.000Z</time>
      </trkpt>
      <trkpt lat="48.15644" lon="-2.70639">
        <ele>137.60000610352</ele>
        <time>2021-10-15T10:30:08.000Z</time>
      </trkpt>
      <trkpt lat="48.15643" lon="-2.70634">
        <ele>137.39999389648</ele>
        <time>2021-10-15T10:30:09.000Z</time>
      </trkpt>
      <trkpt lat="48.15642" lon="-2.7063">
        <ele>137.60000610352</ele>
        <time>2021-10-15T10:30:10.000Z</time>
      </trkpt>
      <trkpt lat="48.15642" lon="-2.70625">
        <ele>137.80000305176</ele>
        <time>2021-10-15T10:30:11.000Z</time>
      </trkpt>
      <trkpt lat="48.15641" lon="-2.7062">
        <ele>137.80000305176</ele>
        <time>2021-10-15T10:30:12.000Z</time>
      </trkpt>
      <trkpt lat="48.15641" lon="-2.70616">
        <ele>138</ele>
        <time>2021-10-15T10:30:13.000Z</time>
      </trkpt>
      <trkpt lat="48.1564" lon="-2.70612">
        <ele>138.19999694824</ele>
        <time>2021-10-15T10:30:14.000Z</time>
      </trkpt>
      <trkpt lat="48.15639" lon="-2.70608">
        <ele>138.39999389648</ele>
        <time>2021-10-15T10:30:15.000Z</time>
      </trkpt>
      <trkpt lat="48.15638" lon="-2.70603">
        <ele>138.39999389648</ele>
        <time>2021-10-15T10:30:16.000Z</time>
      </trkpt>
      <trkpt lat="48.15637" lon="-2.70599">
        <ele>138.60000610352</ele>
        <time>2021-10-15T10:30:17.000Z</time>
      </trkpt>
      <trkpt lat="48.15635" lon="-2.70594">
        <ele>138.80000305176</ele>
        <time>2021-10-15T10:30:18.000Z</time>
      </trkpt>
      <trkpt lat="48.15634" lon="-2.70588">
        <ele>139</ele>
        <time>2021-10-15T10:30:19.000Z</time>
      </trkpt>
      <trkpt lat="48.15633" lon="-2.70583">
        <ele>139.19999694824</ele>
        <time>2021-10-15T10:30:20.000Z</time>
      </trkpt>
      <trkpt lat="48.15632" lon="-2.70577">
        <ele>139.39999389648</ele>
        <time>2021-10-15T10:30:21.000Z</time>
      </trkpt>
      <trkpt lat="48.15631" lon="-2.70572">
        <ele>139.60000610352</ele>
        <time>2021-10-15T10:30:22.000Z</time>
      </trkpt>
      <trkpt lat="48.1563" lon="-2.70567">
        <ele>139.80000305176</ele>
        <time>2021-10-15T10:30:23.000Z</time>
      </trkpt>
      <trkpt lat="48.15628" lon="-2.70561">
        <ele>140</ele>
        <time>2021-10-15T10:30:24.000Z</time>
      </trkpt>
      <trkpt lat="48.15628" lon="-2.70554">
        <ele>140.39999389648</ele>
        <time>2021-10-15T10:30:25.000Z</time>
      </trkpt>
      <trkpt lat="48.15626" lon="-2.70548">
        <ele>140.60000610352</ele>
        <time>2021-10-15T10:30:26.000Z</time>
      </trkpt>
      <trkpt lat="48.15624" lon="-2.70542">
        <ele>141</ele>
        <time>2021-10-15T10:30:27.000Z</time>
      </trkpt>
      <trkpt lat="48.15622" lon="-2.70537">
        <ele>141.19999694824</ele>
        <time>2021-10-15T10:30:28.000Z</time>
      </trkpt>
      <trkpt lat="48.1562" lon="-2.70531">
        <ele>141.39999389648</ele>
        <time>2021-10-15T10:30:29.000Z</time>
      </trkpt>
      <trkpt lat="48.15618" lon="-2.70525">
        <ele>141.80000305176</ele>
        <time>2021-10-15T10:30:30.000Z</time>
      </trkpt>
      <trkpt lat="48.15617" lon="-2.70518">
        <ele>142</ele>
        <time>2021-10-15T10:30:31.000Z</time>
      </trkpt>
      <trkpt lat="48.15616" lon="-2.70511">
        <ele>142</ele>
        <time>2021-10-15T10:30:32.000Z</time>
      </trkpt>
      <trkpt lat="48.15615" lon="-2.70505">
        <ele>142</ele>
        <time>2021-10-15T10:30:33.000Z</time>
      </trkpt>
      <trkpt lat="48.15614" lon="-2.70499">
        <ele>142</ele>
        <time>2021-10-15T10:30:34.000Z</time>
      </trkpt>
      <trkpt lat="48.15613" lon="-2.70493">
        <ele>142</ele>
        <time>2021-10-15T10:30:35.000Z</time>
      </trkpt>
      <trkpt lat="48.15612" lon="-2.70485">
        <ele>142.39999389648</ele>
        <time>2021-10-15T10:30:36.000Z</time>
      </trkpt>
      <trkpt lat="48.1561" lon="-2.70477">
        <ele>142.80000305176</ele>
        <time>2021-10-15T10:30:37.000Z</time>
      </trkpt>
      <trkpt lat="48.15609" lon="-2.70466">
        <ele>143.19999694824</ele>
        <time>2021-10-15T10:30:38.000Z</time>
      </trkpt>
      <trkpt lat="48.15608" lon="-2.70457">
        <ele>143.39999389648</ele>
        <time>2021-10-15T10:30:39.000Z</time>
      </trkpt>
      <trkpt lat="48.15608" lon="-2.70448">
        <ele>143.80000305176</ele>
        <time>2021-10-15T10:30:40.000Z</time>
      </trkpt>
      <trkpt lat="48.15607" lon="-2.7044">
        <ele>144</ele>
        <time>2021-10-15T10:30:41.000Z</time>
      </trkpt>
      <trkpt lat="48.15606" lon="-2.70433">
        <ele>144</ele>
        <time>2021-10-15T10:30:42.000Z</time>
      </trkpt>
      <trkpt lat="48.15606" lon="-2.70425">
        <ele>144</ele>
        <time>2021-10-15T10:30:43.000Z</time>
      </trkpt>
      <trkpt lat="48.15605" lon="-2.70418">
        <ele>144</ele>
        <time>2021-10-15T10:30:44.000Z</time>
      </trkpt>
      <trkpt lat="48.15605" lon="-2.70411">
        <ele>144</ele>
        <time>2021-10-15T10:30:45.000Z</time>
      </trkpt>
      <trkpt lat="48.15605" lon="-2.70404">
        <ele>144</ele>
        <time>2021-10-15T10:30:46.000Z</time>
      </trkpt>
      <trkpt lat="48.15605" lon="-2.70398">
        <ele>144</ele>
        <time>2021-10-15T10:30:47.000Z</time>
      </trkpt>
      <trkpt lat="48.15604" lon="-2.70389">
        <ele>143.80000305176</ele>
        <time>2021-10-15T10:30:48.000Z</time>
      </trkpt>
      <trkpt lat="48.15604" lon="-2.70381">
        <ele>143.60000610352</ele>
        <time>2021-10-15T10:30:49.000Z</time>
      </trkpt>
      <trkpt lat="48.15604" lon="-2.70373">
        <ele>143.19999694824</ele>
        <time>2021-10-15T10:30:50.000Z</time>
      </trkpt>
      <trkpt lat="48.15604" lon="-2.70366">
        <ele>143</ele>
        <time>2021-10-15T10:30:51.000Z</time>
      </trkpt>
      <trkpt lat="48.15604" lon="-2.70359">
        <ele>142.80000305176</ele>
        <time>2021-10-15T10:30:52.000Z</time>
      </trkpt>
      <trkpt lat="48.15603" lon="-2.70351">
        <ele>142.39999389648</ele>
        <time>2021-10-15T10:30:53.000Z</time>
      </trkpt>
      <trkpt lat="48.15603" lon="-2.70345">
        <ele>142.19999694824</ele>
        <time>2021-10-15T10:30:54.000Z</time>
      </trkpt>
      <trkpt lat="48.15602" lon="-2.70338">
        <ele>142</ele>
        <time>2021-10-15T10:30:55.000Z</time>
      </trkpt>
      <trkpt lat="48.15602" lon="-2.70331">
        <ele>142</ele>
        <time>2021-10-15T10:30:56.000Z</time>
      </trkpt>
      <trkpt lat="48.15603" lon="-2.70325">
        <ele>142</ele>
        <time>2021-10-15T10:30:57.000Z</time>
      </trkpt>
      <trkpt lat="48.15603" lon="-2.70318">
        <ele>142</ele>
        <time>2021-10-15T10:30:58.000Z</time>
      </trkpt>
      <trkpt lat="48.15603" lon="-2.7031">
        <ele>142</ele>
        <time>2021-10-15T10:30:59.000Z</time>
      </trkpt>
      <trkpt lat="48.15603" lon="-2.70304">
        <ele>142</ele>
        <time>2021-10-15T10:31:00.000Z</time>
      </trkpt>
      <trkpt lat="48.15603" lon="-2.70296">
        <ele>142.39999389648</ele>
        <time>2021-10-15T10:31:01.000Z</time>
      </trkpt>
      <trkpt lat="48.15603" lon="-2.70288">
        <ele>142.60000610352</ele>
        <time>2021-10-15T10:31:02.000Z</time>
      </trkpt>
      <trkpt lat="48.15603" lon="-2.7028">
        <ele>142.80000305176</ele>
        <time>2021-10-15T10:31:03.000Z</time>
      </trkpt>
      <trkpt lat="48.15604" lon="-2.70272">
        <ele>142.80000305176</ele>
        <time>2021-10-15T10:31:04.000Z</time>
      </trkpt>
      <trkpt lat="48.15604" lon="-2.70265">
        <ele>142.80000305176</ele>
        <time>2021-10-15T10:31:05.000Z</time>
      </trkpt>
      <trkpt lat="48.15605" lon="-2.70257">
        <ele>142.60000610352</ele>
        <time>2021-10-15T10:31:06.000Z</time>
      </trkpt>
      <trkpt lat="48.15606" lon="-2.70248">
        <ele>142.60000610352</ele>
        <time>2021-10-15T10:31:07.000Z</time>
      </trkpt>
      <trkpt lat="48.15607" lon="-2.70241">
        <ele>142.19999694824</ele>
        <time>2021-10-15T10:31:08.000Z</time>
      </trkpt>
      <trkpt lat="48.15608" lon="-2.70233">
        <ele>142</ele>
        <time>2021-10-15T10:31:09.000Z</time>
      </trkpt>
      <trkpt lat="48.15608" lon="-2.70224">
        <ele>141.80000305176</ele>
        <time>2021-10-15T10:31:10.000Z</time>
      </trkpt>
      <trkpt lat="48.15609" lon="-2.70216">
        <ele>141.60000610352</ele>
        <time>2021-10-15T10:31:11.000Z</time>
      </trkpt>
      <trkpt lat="48.1561" lon="-2.70207">
        <ele>141.19999694824</ele>
        <time>2021-10-15T10:31:12.000Z</time>
      </trkpt>
      <trkpt lat="48.15611" lon="-2.70199">
        <ele>141</ele>
        <time>2021-10-15T10:31:13.000Z</time>
      </trkpt>
      <trkpt lat="48.15612" lon="-2.70191">
        <ele>141</ele>
        <time>2021-10-15T10:31:14.000Z</time>
      </trkpt>
      <trkpt lat="48.15614" lon="-2.70182">
        <ele>141</ele>
        <time>2021-10-15T10:31:15.000Z</time>
      </trkpt>
      <trkpt lat="48.15615" lon="-2.70172">
        <ele>141</ele>
        <time>2021-10-15T10:31:16.000Z</time>
      </trkpt>
      <trkpt lat="48.15616" lon="-2.70163">
        <ele>140.60000610352</ele>
        <time>2021-10-15T10:31:17.000Z</time>
      </trkpt>
      <trkpt lat="48.15617" lon="-2.70154">
        <ele>140.39999389648</ele>
        <time>2021-10-15T10:31:18.000Z</time>
      </trkpt>
      <trkpt lat="48.15619" lon="-2.70145">
        <ele>140</ele>
        <time>2021-10-15T10:31:19.000Z</time>
      </trkpt>
      <trkpt lat="48.1562" lon="-2.70136">
        <ele>139.39999389648</ele>
        <time>2021-10-15T10:31:20.000Z</time>
      </trkpt>
      <trkpt lat="48.15621" lon="-2.70126">
        <ele>138.60000610352</ele>
        <time>2021-10-15T10:31:21.000Z</time>
      </trkpt>
      <trkpt lat="48.15623" lon="-2.70118">
        <ele>138.19999694824</ele>
        <time>2021-10-15T10:31:22.000Z</time>
      </trkpt>
      <trkpt lat="48.15624" lon="-2.70108">
        <ele>138</ele>
        <time>2021-10-15T10:31:23.000Z</time>
      </trkpt>
      <trkpt lat="48.15625" lon="-2.70099">
        <ele>137.39999389648</ele>
        <time>2021-10-15T10:31:24.000Z</time>
      </trkpt>
      <trkpt lat="48.15626" lon="-2.70089">
        <ele>137</ele>
        <time>2021-10-15T10:31:25.000Z</time>
      </trkpt>
      <trkpt lat="48.15628" lon="-2.70079">
        <ele>136.60000610352</ele>
        <time>2021-10-15T10:31:26.000Z</time>
      </trkpt>
      <trkpt lat="48.1563" lon="-2.7007">
        <ele>136.19999694824</ele>
        <time>2021-10-15T10:31:27.000Z</time>
      </trkpt>
      <trkpt lat="48.15631" lon="-2.7006">
        <ele>136</ele>
        <time>2021-10-15T10:31:28.000Z</time>
      </trkpt>
      <trkpt lat="48.15633" lon="-2.70051">
        <ele>135.80000305176</ele>
        <time>2021-10-15T10:31:29.000Z</time>
      </trkpt>
      <trkpt lat="48.15635" lon="-2.70042">
        <ele>135.80000305176</ele>
        <time>2021-10-15T10:31:30.000Z</time>
      </trkpt>
      <trkpt lat="48.15637" lon="-2.70033">
        <ele>135.80000305176</ele>
        <time>2021-10-15T10:31:31.000Z</time>
      </trkpt>
      <trkpt lat="48.15639" lon="-2.70024">
        <ele>135.60000610352</ele>
        <time>2021-10-15T10:31:32.000Z</time>
      </trkpt>
      <trkpt lat="48.15641" lon="-2.70016">
        <ele>135.60000610352</ele>
        <time>2021-10-15T10:31:33.000Z</time>
      </trkpt>
      <trkpt lat="48.15642" lon="-2.70007">
        <ele>135.60000610352</ele>
        <time>2021-10-15T10:31:34.000Z</time>
      </trkpt>
      <trkpt lat="48.15644" lon="-2.69999">
        <ele>135.39999389648</ele>
        <time>2021-10-15T10:31:35.000Z</time>
      </trkpt>
      <trkpt lat="48.15646" lon="-2.69991">
        <ele>135.39999389648</ele>
        <time>2021-10-15T10:31:36.000Z</time>
      </trkpt>
      <trkpt lat="48.15648" lon="-2.69982">
        <ele>135.39999389648</ele>
        <time>2021-10-15T10:31:37.000Z</time>
      </trkpt>
      <trkpt lat="48.1565" lon="-2.69974">
        <ele>135.39999389648</ele>
        <time>2021-10-15T10:31:38.000Z</time>
      </trkpt>
      <trkpt lat="48.15652" lon="-2.69965">
        <ele>135.60000610352</ele>
        <time>2021-10-15T10:31:39.000Z</time>
      </trkpt>
      <trkpt lat="48.15654" lon="-2.69957">
        <ele>135.80000305176</ele>
        <time>2021-10-15T10:31:40.000Z</time>
      </trkpt>
      <trkpt lat="48.15656" lon="-2.69949">
        <ele>136</ele>
        <time>2021-10-15T10:31:41.000Z</time>
      </trkpt>
      <trkpt lat="48.15658" lon="-2.6994">
        <ele>136.19999694824</ele>
        <time>2021-10-15T10:31:42.000Z</time>
      </trkpt>
      <trkpt lat="48.15661" lon="-2.69932">
        <ele>136.60000610352</ele>
        <time>2021-10-15T10:31:43.000Z</time>
      </trkpt>
      <trkpt lat="48.15663" lon="-2.69924">
        <ele>136.80000305176</ele>
        <time>2021-10-15T10:31:44.000Z</time>
      </trkpt>
      <trkpt lat="48.15665" lon="-2.69916">
        <ele>136.80000305176</ele>
        <time>2021-10-15T10:31:45.000Z</time>
      </trkpt>
      <trkpt lat="48.15668" lon="-2.69908">
        <ele>136.60000610352</ele>
        <time>2021-10-15T10:31:46.000Z</time>
      </trkpt>
      <trkpt lat="48.1567" lon="-2.69901">
        <ele>136.60000610352</ele>
        <time>2021-10-15T10:31:47.000Z</time>
      </trkpt>
      <trkpt lat="48.15673" lon="-2.69895">
        <ele>136.39999389648</ele>
        <time>2021-10-15T10:31:48.000Z</time>
      </trkpt>
      <trkpt lat="48.15675" lon="-2.69888">
        <ele>136.19999694824</ele>
        <time>2021-10-15T10:31:49.000Z</time>
      </trkpt>
      <trkpt lat="48.15678" lon="-2.69881">
        <ele>135.80000305176</ele>
        <time>2021-10-15T10:31:50.000Z</time>
      </trkpt>
      <trkpt lat="48.1568" lon="-2.69874">
        <ele>135.39999389648</ele>
        <time>2021-10-15T10:31:51.000Z</time>
      </trkpt>
      <trkpt lat="48.15682" lon="-2.69867">
        <ele>135.19999694824</ele>
        <time>2021-10-15T10:31:52.000Z</time>
      </trkpt>
      <trkpt lat="48.15685" lon="-2.6986">
        <ele>134.60000610352</ele>
        <time>2021-10-15T10:31:53.000Z</time>
      </trkpt>
      <trkpt lat="48.15688" lon="-2.69853">
        <ele>133.80000305176</ele>
        <time>2021-10-15T10:31:54.000Z</time>
      </trkpt>
      <trkpt lat="48.15691" lon="-2.69846">
        <ele>133.19999694824</ele>
        <time>2021-10-15T10:31:55.000Z</time>
      </trkpt>
      <trkpt lat="48.15694" lon="-2.6984">
        <ele>132.39999389648</ele>
        <time>2021-10-15T10:31:56.000Z</time>
      </trkpt>
      <trkpt lat="48.15696" lon="-2.69833">
        <ele>132</ele>
        <time>2021-10-15T10:31:57.000Z</time>
      </trkpt>
      <trkpt lat="48.15699" lon="-2.69826">
        <ele>131.60000610352</ele>
        <time>2021-10-15T10:31:58.000Z</time>
      </trkpt>
      <trkpt lat="48.15702" lon="-2.6982">
        <ele>131</ele>
        <time>2021-10-15T10:31:59.000Z</time>
      </trkpt>
      <trkpt lat="48.15705" lon="-2.69815">
        <ele>130.60000610352</ele>
        <time>2021-10-15T10:32:00.000Z</time>
      </trkpt>
      <trkpt lat="48.15708" lon="-2.69811">
        <ele>130.19999694824</ele>
        <time>2021-10-15T10:32:01.000Z</time>
      </trkpt>
      <trkpt lat="48.1571" lon="-2.69808">
        <ele>130</ele>
        <time>2021-10-15T10:32:02.000Z</time>
      </trkpt>
      <trkpt lat="48.15712" lon="-2.69805">
        <ele>129.80000305176</ele>
        <time>2021-10-15T10:32:03.000Z</time>
      </trkpt>
      <trkpt lat="48.15715" lon="-2.69802">
        <ele>129.80000305176</ele>
        <time>2021-10-15T10:32:04.000Z</time>
      </trkpt>
      <trkpt lat="48.15718" lon="-2.69798">
        <ele>129.80000305176</ele>
        <time>2021-10-15T10:32:05.000Z</time>
      </trkpt>
      <trkpt lat="48.1572" lon="-2.69795">
        <ele>129.60000610352</ele>
        <time>2021-10-15T10:32:06.000Z</time>
      </trkpt>
      <trkpt lat="48.15723" lon="-2.69791">
        <ele>129.60000610352</ele>
        <time>2021-10-15T10:32:07.000Z</time>
      </trkpt>
      <trkpt lat="48.15725" lon="-2.69788">
        <ele>129.60000610352</ele>
        <time>2021-10-15T10:32:08.000Z</time>
      </trkpt>
      <trkpt lat="48.15727" lon="-2.69785">
        <ele>129.60000610352</ele>
        <time>2021-10-15T10:32:09.000Z</time>
      </trkpt>
      <trkpt lat="48.1573" lon="-2.69781">
        <ele>129.60000610352</ele>
        <time>2021-10-15T10:32:10.000Z</time>
      </trkpt>
      <trkpt lat="48.15732" lon="-2.69777">
        <ele>129.39999389648</ele>
        <time>2021-10-15T10:32:11.000Z</time>
      </trkpt>
      <trkpt lat="48.15734" lon="-2.69774">
        <ele>129.39999389648</ele>
        <time>2021-10-15T10:32:12.000Z</time>
      </trkpt>
      <trkpt lat="48.15735" lon="-2.6977">
        <ele>129.39999389648</ele>
        <time>2021-10-15T10:32:13.000Z</time>
      </trkpt>
      <trkpt lat="48.15736" lon="-2.69766">
        <ele>129.19999694824</ele>
        <time>2021-10-15T10:32:14.000Z</time>
      </trkpt>
      <trkpt lat="48.15738" lon="-2.69763">
        <ele>129.19999694824</ele>
        <time>2021-10-15T10:32:15.000Z</time>
      </trkpt>
      <trkpt lat="48.15739" lon="-2.6976">
        <ele>129</ele>
        <time>2021-10-15T10:32:16.000Z</time>
      </trkpt>
      <trkpt lat="48.1574" lon="-2.69756">
        <ele>129</ele>
        <time>2021-10-15T10:32:17.000Z</time>
      </trkpt>
      <trkpt lat="48.15741" lon="-2.69753">
        <ele>129</ele>
        <time>2021-10-15T10:32:18.000Z</time>
      </trkpt>
      <trkpt lat="48.15742" lon="-2.6975">
        <ele>128.80000305176</ele>
        <time>2021-10-15T10:32:19.000Z</time>
      </trkpt>
      <trkpt lat="48.15743" lon="-2.69745">
        <ele>128.60000610352</ele>
        <time>2021-10-15T10:32:20.000Z</time>
      </trkpt>
      <trkpt lat="48.15745" lon="-2.69741">
        <ele>128.39999389648</ele>
        <time>2021-10-15T10:32:21.000Z</time>
      </trkpt>
      <trkpt lat="48.15747" lon="-2.69736">
        <ele>128.39999389648</ele>
        <time>2021-10-15T10:32:22.000Z</time>
      </trkpt>
      <trkpt lat="48.15749" lon="-2.69731">
        <ele>128.19999694824</ele>
        <time>2021-10-15T10:32:23.000Z</time>
      </trkpt>
      <trkpt lat="48.15752" lon="-2.69727">
        <ele>128</ele>
        <time>2021-10-15T10:32:24.000Z</time>
      </trkpt>
      <trkpt lat="48.15754" lon="-2.69722">
        <ele>127.80000305176</ele>
        <time>2021-10-15T10:32:25.000Z</time>
      </trkpt>
      <trkpt lat="48.15756" lon="-2.69718">
        <ele>127.59999847412</ele>
        <time>2021-10-15T10:32:26.000Z</time>
      </trkpt>
      <trkpt lat="48.15759" lon="-2.69713">
        <ele>127.40000152588</ele>
        <time>2021-10-15T10:32:27.000Z</time>
      </trkpt>
      <trkpt lat="48.15762" lon="-2.69709">
        <ele>127.40000152588</ele>
        <time>2021-10-15T10:32:28.000Z</time>
      </trkpt>
      <trkpt lat="48.15764" lon="-2.69705">
        <ele>127.19999694824</ele>
        <time>2021-10-15T10:32:29.000Z</time>
      </trkpt>
      <trkpt lat="48.15767" lon="-2.697">
        <ele>127</ele>
        <time>2021-10-15T10:32:30.000Z</time>
      </trkpt>
      <trkpt lat="48.1577" lon="-2.69695">
        <ele>126.80000305176</ele>
        <time>2021-10-15T10:32:31.000Z</time>
      </trkpt>
      <trkpt lat="48.15772" lon="-2.6969">
        <ele>126.59999847412</ele>
        <time>2021-10-15T10:32:32.000Z</time>
      </trkpt>
      <trkpt lat="48.15775" lon="-2.69685">
        <ele>126.40000152588</ele>
        <time>2021-10-15T10:32:33.000Z</time>
      </trkpt>
      <trkpt lat="48.15779" lon="-2.69679">
        <ele>126.19999694824</ele>
        <time>2021-10-15T10:32:34.000Z</time>
      </trkpt>
      <trkpt lat="48.15781" lon="-2.69674">
        <ele>126</ele>
        <time>2021-10-15T10:32:35.000Z</time>
      </trkpt>
      <trkpt lat="48.15784" lon="-2.69669">
        <ele>125.80000305176</ele>
        <time>2021-10-15T10:32:36.000Z</time>
      </trkpt>
      <trkpt lat="48.15787" lon="-2.69663">
        <ele>125.59999847412</ele>
        <time>2021-10-15T10:32:37.000Z</time>
      </trkpt>
      <trkpt lat="48.1579" lon="-2.69658">
        <ele>125.40000152588</ele>
        <time>2021-10-15T10:32:38.000Z</time>
      </trkpt>
      <trkpt lat="48.15793" lon="-2.69653">
        <ele>125.19999694824</ele>
        <time>2021-10-15T10:32:39.000Z</time>
      </trkpt>
      <trkpt lat="48.15797" lon="-2.69648">
        <ele>125.19999694824</ele>
        <time>2021-10-15T10:32:40.000Z</time>
      </trkpt>
      <trkpt lat="48.158" lon="-2.69643">
        <ele>125.40000152588</ele>
        <time>2021-10-15T10:32:41.000Z</time>
      </trkpt>
      <trkpt lat="48.15802" lon="-2.69638">
        <ele>125.40000152588</ele>
        <time>2021-10-15T10:32:42.000Z</time>
      </trkpt>
      <trkpt lat="48.15805" lon="-2.69633">
        <ele>125.59999847412</ele>
        <time>2021-10-15T10:32:43.000Z</time>
      </trkpt>
      <trkpt lat="48.15808" lon="-2.69628">
        <ele>125.80000305176</ele>
        <time>2021-10-15T10:32:44.000Z</time>
      </trkpt>
      <trkpt lat="48.15812" lon="-2.69622">
        <ele>126.19999694824</ele>
        <time>2021-10-15T10:32:45.000Z</time>
      </trkpt>
      <trkpt lat="48.15815" lon="-2.69617">
        <ele>126.40000152588</ele>
        <time>2021-10-15T10:32:46.000Z</time>
      </trkpt>
      <trkpt lat="48.15818" lon="-2.69611">
        <ele>126.40000152588</ele>
        <time>2021-10-15T10:32:47.000Z</time>
      </trkpt>
      <trkpt lat="48.15822" lon="-2.69606">
        <ele>126.40000152588</ele>
        <time>2021-10-15T10:32:48.000Z</time>
      </trkpt>
      <trkpt lat="48.15825" lon="-2.696">
        <ele>126.59999847412</ele>
        <time>2021-10-15T10:32:49.000Z</time>
      </trkpt>
      <trkpt lat="48.15828" lon="-2.69595">
        <ele>126.80000305176</ele>
        <time>2021-10-15T10:32:50.000Z</time>
      </trkpt>
      <trkpt lat="48.15831" lon="-2.69589">
        <ele>127</ele>
        <time>2021-10-15T10:32:51.000Z</time>
      </trkpt>
      <trkpt lat="48.15834" lon="-2.69583">
        <ele>127</ele>
        <time>2021-10-15T10:32:52.000Z</time>
      </trkpt>
      <trkpt lat="48.15837" lon="-2.69578">
        <ele>127</ele>
        <time>2021-10-15T10:32:53.000Z</time>
      </trkpt>
      <trkpt lat="48.1584" lon="-2.69572">
        <ele>127</ele>
        <time>2021-10-15T10:32:54.000Z</time>
      </trkpt>
      <trkpt lat="48.15843" lon="-2.69566">
        <ele>127.19999694824</ele>
        <time>2021-10-15T10:32:55.000Z</time>
      </trkpt>
      <trkpt lat="48.15845" lon="-2.69561">
        <ele>127.40000152588</ele>
        <time>2021-10-15T10:32:56.000Z</time>
      </trkpt>
      <trkpt lat="48.15849" lon="-2.69555">
        <ele>127.40000152588</ele>
        <time>2021-10-15T10:32:57.000Z</time>
      </trkpt>
      <trkpt lat="48.15852" lon="-2.69549">
        <ele>127.59999847412</ele>
        <time>2021-10-15T10:32:58.000Z</time>
      </trkpt>
      <trkpt lat="48.15856" lon="-2.69543">
        <ele>127.40000152588</ele>
        <time>2021-10-15T10:32:59.000Z</time>
      </trkpt>
      <trkpt lat="48.15859" lon="-2.69537">
        <ele>127.19999694824</ele>
        <time>2021-10-15T10:33:00.000Z</time>
      </trkpt>
      <trkpt lat="48.15862" lon="-2.69531">
        <ele>127</ele>
        <time>2021-10-15T10:33:01.000Z</time>
      </trkpt>
      <trkpt lat="48.15866" lon="-2.69524">
        <ele>126.59999847412</ele>
        <time>2021-10-15T10:33:02.000Z</time>
      </trkpt>
      <trkpt lat="48.1587" lon="-2.69517">
        <ele>126.40000152588</ele>
        <time>2021-10-15T10:33:03.000Z</time>
      </trkpt>
      <trkpt lat="48.15873" lon="-2.6951">
        <ele>126.19999694824</ele>
        <time>2021-10-15T10:33:04.000Z</time>
      </trkpt>
      <trkpt lat="48.15877" lon="-2.69504">
        <ele>125.80000305176</ele>
        <time>2021-10-15T10:33:05.000Z</time>
      </trkpt>
      <trkpt lat="48.15881" lon="-2.69498">
        <ele>125.40000152588</ele>
        <time>2021-10-15T10:33:06.000Z</time>
      </trkpt>
      <trkpt lat="48.15884" lon="-2.69492">
        <ele>124.80000305176</ele>
        <time>2021-10-15T10:33:07.000Z</time>
      </trkpt>
      <trkpt lat="48.15887" lon="-2.69486">
        <ele>124.40000152588</ele>
        <time>2021-10-15T10:33:08.000Z</time>
      </trkpt>
      <trkpt lat="48.15891" lon="-2.6948">
        <ele>123.80000305176</ele>
        <time>2021-10-15T10:33:09.000Z</time>
      </trkpt>
      <trkpt lat="48.15894" lon="-2.69474">
        <ele>123.40000152588</ele>
        <time>2021-10-15T10:33:10.000Z</time>
      </trkpt>
      <trkpt lat="48.15898" lon="-2.69468">
        <ele>123</ele>
        <time>2021-10-15T10:33:11.000Z</time>
      </trkpt>
      <trkpt lat="48.15902" lon="-2.69462">
        <ele>122.59999847412</ele>
        <time>2021-10-15T10:33:12.000Z</time>
      </trkpt>
      <trkpt lat="48.15905" lon="-2.69456">
        <ele>122.19999694824</ele>
        <time>2021-10-15T10:33:13.000Z</time>
      </trkpt>
      <trkpt lat="48.15909" lon="-2.6945">
        <ele>121.80000305176</ele>
        <time>2021-10-15T10:33:14.000Z</time>
      </trkpt>
      <trkpt lat="48.15912" lon="-2.69444">
        <ele>121.59999847412</ele>
        <time>2021-10-15T10:33:15.000Z</time>
      </trkpt>
      <trkpt lat="48.15916" lon="-2.69437">
        <ele>121.19999694824</ele>
        <time>2021-10-15T10:33:16.000Z</time>
      </trkpt>
      <trkpt lat="48.15919" lon="-2.69431">
        <ele>120.80000305176</ele>
        <time>2021-10-15T10:33:17.000Z</time>
      </trkpt>
      <trkpt lat="48.15923" lon="-2.69424">
        <ele>120.40000152588</ele>
        <time>2021-10-15T10:33:18.000Z</time>
      </trkpt>
      <trkpt lat="48.15927" lon="-2.69416">
        <ele>120.19999694824</ele>
        <time>2021-10-15T10:33:19.000Z</time>
      </trkpt>
      <trkpt lat="48.15932" lon="-2.69408">
        <ele>120.19999694824</ele>
        <time>2021-10-15T10:33:20.000Z</time>
      </trkpt>
      <trkpt lat="48.15936" lon="-2.69399">
        <ele>120</ele>
        <time>2021-10-15T10:33:21.000Z</time>
      </trkpt>
      <trkpt lat="48.15941" lon="-2.69391">
        <ele>120</ele>
        <time>2021-10-15T10:33:22.000Z</time>
      </trkpt>
      <trkpt lat="48.15945" lon="-2.69383">
        <ele>120</ele>
        <time>2021-10-15T10:33:23.000Z</time>
      </trkpt>
      <trkpt lat="48.15949" lon="-2.69375">
        <ele>120</ele>
        <time>2021-10-15T10:33:24.000Z</time>
      </trkpt>
      <trkpt lat="48.15953" lon="-2.69368">
        <ele>120</ele>
        <time>2021-10-15T10:33:25.000Z</time>
      </trkpt>
      <trkpt lat="48.15956" lon="-2.6936">
        <ele>120</ele>
        <time>2021-10-15T10:33:26.000Z</time>
      </trkpt>
      <trkpt lat="48.15959" lon="-2.69352">
        <ele>120</ele>
        <time>2021-10-15T10:33:27.000Z</time>
      </trkpt>
      <trkpt lat="48.15962" lon="-2.69345">
        <ele>120</ele>
        <time>2021-10-15T10:33:28.000Z</time>
      </trkpt>
      <trkpt lat="48.15966" lon="-2.69338">
        <ele>119.80000305176</ele>
        <time>2021-10-15T10:33:29.000Z</time>
      </trkpt>
      <trkpt lat="48.15969" lon="-2.69332">
        <ele>119.59999847412</ele>
        <time>2021-10-15T10:33:30.000Z</time>
      </trkpt>
      <trkpt lat="48.15973" lon="-2.69324">
        <ele>119</ele>
        <time>2021-10-15T10:33:31.000Z</time>
      </trkpt>
      <trkpt lat="48.15976" lon="-2.69316">
        <ele>118.59999847412</ele>
        <time>2021-10-15T10:33:32.000Z</time>
      </trkpt>
      <trkpt lat="48.1598" lon="-2.69309">
        <ele>118.40000152588</ele>
        <time>2021-10-15T10:33:33.000Z</time>
      </trkpt>
      <trkpt lat="48.15984" lon="-2.69301">
        <ele>118.19999694824</ele>
        <time>2021-10-15T10:33:34.000Z</time>
      </trkpt>
      <trkpt lat="48.15987" lon="-2.69293">
        <ele>118.19999694824</ele>
        <time>2021-10-15T10:33:35.000Z</time>
      </trkpt>
      <trkpt lat="48.1599" lon="-2.69286">
        <ele>118</ele>
        <time>2021-10-15T10:33:36.000Z</time>
      </trkpt>
      <trkpt lat="48.15992" lon="-2.69278">
        <ele>118</ele>
        <time>2021-10-15T10:33:37.000Z</time>
      </trkpt>
      <trkpt lat="48.15995" lon="-2.6927">
        <ele>118</ele>
        <time>2021-10-15T10:33:38.000Z</time>
      </trkpt>
      <trkpt lat="48.15997" lon="-2.69262">
        <ele>118</ele>
        <time>2021-10-15T10:33:39.000Z</time>
      </trkpt>
      <trkpt lat="48.15999" lon="-2.69253">
        <ele>118</ele>
        <time>2021-10-15T10:33:40.000Z</time>
      </trkpt>
      <trkpt lat="48.16001" lon="-2.69244">
        <ele>117.59999847412</ele>
        <time>2021-10-15T10:33:41.000Z</time>
      </trkpt>
      <trkpt lat="48.16003" lon="-2.69234">
        <ele>117.59999847412</ele>
        <time>2021-10-15T10:33:42.000Z</time>
      </trkpt>
      <trkpt lat="48.16004" lon="-2.69225">
        <ele>117.59999847412</ele>
        <time>2021-10-15T10:33:43.000Z</time>
      </trkpt>
      <trkpt lat="48.16006" lon="-2.69216">
        <ele>117.40000152588</ele>
        <time>2021-10-15T10:33:44.000Z</time>
      </trkpt>
      <trkpt lat="48.16007" lon="-2.69207">
        <ele>117.40000152588</ele>
        <time>2021-10-15T10:33:45.000Z</time>
      </trkpt>
      <trkpt lat="48.16009" lon="-2.69198">
        <ele>117.40000152588</ele>
        <time>2021-10-15T10:33:46.000Z</time>
      </trkpt>
      <trkpt lat="48.16009" lon="-2.69188">
        <ele>117.40000152588</ele>
        <time>2021-10-15T10:33:47.000Z</time>
      </trkpt>
      <trkpt lat="48.16009" lon="-2.69179">
        <ele>117.40000152588</ele>
        <time>2021-10-15T10:33:48.000Z</time>
      </trkpt>
      <trkpt lat="48.16009" lon="-2.6917">
        <ele>117.40000152588</ele>
        <time>2021-10-15T10:33:49.000Z</time>
      </trkpt>
      <trkpt lat="48.16009" lon="-2.69162">
        <ele>117.40000152588</ele>
        <time>2021-10-15T10:33:50.000Z</time>
      </trkpt>
      <trkpt lat="48.16009" lon="-2.69153">
        <ele>117.40000152588</ele>
        <time>2021-10-15T10:33:51.000Z</time>
      </trkpt>
      <trkpt lat="48.16009" lon="-2.69145">
        <ele>117</ele>
        <time>2021-10-15T10:33:52.000Z</time>
      </trkpt>
      <trkpt lat="48.16008" lon="-2.69136">
        <ele>117</ele>
        <time>2021-10-15T10:33:53.000Z</time>
      </trkpt>
      <trkpt lat="48.16008" lon="-2.69129">
        <ele>117</ele>
        <time>2021-10-15T10:33:54.000Z</time>
      </trkpt>
      <trkpt lat="48.16008" lon="-2.69121">
        <ele>117</ele>
        <time>2021-10-15T10:33:55.000Z</time>
      </trkpt>
      <trkpt lat="48.16008" lon="-2.69114">
        <ele>117</ele>
        <time>2021-10-15T10:33:56.000Z</time>
      </trkpt>
      <trkpt lat="48.16008" lon="-2.69107">
        <ele>116.59999847412</ele>
        <time>2021-10-15T10:33:57.000Z</time>
      </trkpt>
      <trkpt lat="48.1601" lon="-2.691">
        <ele>116.40000152588</ele>
        <time>2021-10-15T10:33:58.000Z</time>
      </trkpt>
      <trkpt lat="48.1601" lon="-2.69094">
        <ele>116.19999694824</ele>
        <time>2021-10-15T10:33:59.000Z</time>
      </trkpt>
      <trkpt lat="48.1601" lon="-2.69088">
        <ele>116</ele>
        <time>2021-10-15T10:34:00.000Z</time>
      </trkpt>
      <trkpt lat="48.16009" lon="-2.69082">
        <ele>116</ele>
        <time>2021-10-15T10:34:01.000Z</time>
      </trkpt>
      <trkpt lat="48.16009" lon="-2.69076">
        <ele>116</ele>
        <time>2021-10-15T10:34:02.000Z</time>
      </trkpt>
      <trkpt lat="48.16008" lon="-2.6907">
        <ele>116</ele>
        <time>2021-10-15T10:34:03.000Z</time>
      </trkpt>
      <trkpt lat="48.16008" lon="-2.69063">
        <ele>116</ele>
        <time>2021-10-15T10:34:04.000Z</time>
      </trkpt>
      <trkpt lat="48.16008" lon="-2.69057">
        <ele>115.80000305176</ele>
        <time>2021-10-15T10:34:05.000Z</time>
      </trkpt>
      <trkpt lat="48.16008" lon="-2.69052">
        <ele>115.59999847412</ele>
        <time>2021-10-15T10:34:06.000Z</time>
      </trkpt>
      <trkpt lat="48.16007" lon="-2.69046">
        <ele>115.40000152588</ele>
        <time>2021-10-15T10:34:07.000Z</time>
      </trkpt>
      <trkpt lat="48.16006" lon="-2.6904">
        <ele>115.40000152588</ele>
        <time>2021-10-15T10:34:08.000Z</time>
      </trkpt>
      <trkpt lat="48.16005" lon="-2.69035">
        <ele>115.40000152588</ele>
        <time>2021-10-15T10:34:09.000Z</time>
      </trkpt>
      <trkpt lat="48.16005" lon="-2.69029">
        <ele>115.40000152588</ele>
        <time>2021-10-15T10:34:10.000Z</time>
      </trkpt>
      <trkpt lat="48.16004" lon="-2.69023">
        <ele>115.59999847412</ele>
        <time>2021-10-15T10:34:11.000Z</time>
      </trkpt>
      <trkpt lat="48.16002" lon="-2.69016">
        <ele>115.59999847412</ele>
        <time>2021-10-15T10:34:12.000Z</time>
      </trkpt>
      <trkpt lat="48.16001" lon="-2.6901">
        <ele>115.59999847412</ele>
        <time>2021-10-15T10:34:13.000Z</time>
      </trkpt>
      <trkpt lat="48.15998" lon="-2.69003">
        <ele>115.80000305176</ele>
        <time>2021-10-15T10:34:14.000Z</time>
      </trkpt>
      <trkpt lat="48.15996" lon="-2.68995">
        <ele>115.59999847412</ele>
        <time>2021-10-15T10:34:15.000Z</time>
      </trkpt>
      <trkpt lat="48.15994" lon="-2.6899">
        <ele>115.40000152588</ele>
        <time>2021-10-15T10:34:16.000Z</time>
      </trkpt>
      <trkpt lat="48.15992" lon="-2.68984">
        <ele>115.19999694824</ele>
        <time>2021-10-15T10:34:17.000Z</time>
      </trkpt>
      <trkpt lat="48.1599" lon="-2.68978">
        <ele>115</ele>
        <time>2021-10-15T10:34:18.000Z</time>
      </trkpt>
      <trkpt lat="48.15987" lon="-2.6897">
        <ele>115</ele>
        <time>2021-10-15T10:34:19.000Z</time>
      </trkpt>
      <trkpt lat="48.15984" lon="-2.68963">
        <ele>115</ele>
        <time>2021-10-15T10:34:20.000Z</time>
      </trkpt>
      <trkpt lat="48.15982" lon="-2.68956">
        <ele>115</ele>
        <time>2021-10-15T10:34:21.000Z</time>
      </trkpt>
      <trkpt lat="48.1598" lon="-2.6895">
        <ele>115</ele>
        <time>2021-10-15T10:34:22.000Z</time>
      </trkpt>
      <trkpt lat="48.15978" lon="-2.68944">
        <ele>115</ele>
        <time>2021-10-15T10:34:23.000Z</time>
      </trkpt>
      <trkpt lat="48.15975" lon="-2.68937">
        <ele>115</ele>
        <time>2021-10-15T10:34:24.000Z</time>
      </trkpt>
      <trkpt lat="48.15971" lon="-2.68929">
        <ele>115.40000152588</ele>
        <time>2021-10-15T10:34:25.000Z</time>
      </trkpt>
      <trkpt lat="48.15968" lon="-2.68921">
        <ele>115.80000305176</ele>
        <time>2021-10-15T10:34:26.000Z</time>
      </trkpt>
      <trkpt lat="48.15965" lon="-2.68913">
        <ele>116.19999694824</ele>
        <time>2021-10-15T10:34:27.000Z</time>
      </trkpt>
      <trkpt lat="48.15962" lon="-2.68906">
        <ele>116.59999847412</ele>
        <time>2021-10-15T10:34:28.000Z</time>
      </trkpt>
      <trkpt lat="48.15959" lon="-2.68897">
        <ele>116.80000305176</ele>
        <time>2021-10-15T10:34:29.000Z</time>
      </trkpt>
      <trkpt lat="48.15956" lon="-2.6889">
        <ele>117</ele>
        <time>2021-10-15T10:34:30.000Z</time>
      </trkpt>
      <trkpt lat="48.15953" lon="-2.68882">
        <ele>117</ele>
        <time>2021-10-15T10:34:31.000Z</time>
      </trkpt>
      <trkpt lat="48.1595" lon="-2.68874">
        <ele>117.19999694824</ele>
        <time>2021-10-15T10:34:32.000Z</time>
      </trkpt>
      <trkpt lat="48.15946" lon="-2.68867">
        <ele>117.40000152588</ele>
        <time>2021-10-15T10:34:33.000Z</time>
      </trkpt>
      <trkpt lat="48.15943" lon="-2.6886">
        <ele>117.40000152588</ele>
        <time>2021-10-15T10:34:34.000Z</time>
      </trkpt>
      <trkpt lat="48.15939" lon="-2.68854">
        <ele>117.40000152588</ele>
        <time>2021-10-15T10:34:35.000Z</time>
      </trkpt>
      <trkpt lat="48.15936" lon="-2.68847">
        <ele>117</ele>
        <time>2021-10-15T10:34:36.000Z</time>
      </trkpt>
      <trkpt lat="48.15932" lon="-2.6884">
        <ele>116.80000305176</ele>
        <time>2021-10-15T10:34:37.000Z</time>
      </trkpt>
      <trkpt lat="48.15928" lon="-2.68833">
        <ele>116.80000305176</ele>
        <time>2021-10-15T10:34:38.000Z</time>
      </trkpt>
      <trkpt lat="48.15924" lon="-2.68825">
        <ele>116.59999847412</ele>
        <time>2021-10-15T10:34:39.000Z</time>
      </trkpt>
      <trkpt lat="48.1592" lon="-2.68817">
        <ele>116.40000152588</ele>
        <time>2021-10-15T10:34:40.000Z</time>
      </trkpt>
      <trkpt lat="48.15916" lon="-2.6881">
        <ele>116.40000152588</ele>
        <time>2021-10-15T10:34:41.000Z</time>
      </trkpt>
      <trkpt lat="48.15912" lon="-2.68803">
        <ele>116.19999694824</ele>
        <time>2021-10-15T10:34:42.000Z</time>
      </trkpt>
      <trkpt lat="48.15908" lon="-2.68796">
        <ele>116.59999847412</ele>
        <time>2021-10-15T10:34:43.000Z</time>
      </trkpt>
      <trkpt lat="48.15904" lon="-2.6879">
        <ele>116.80000305176</ele>
        <time>2021-10-15T10:34:44.000Z</time>
      </trkpt>
      <trkpt lat="48.159" lon="-2.68785">
        <ele>117</ele>
        <time>2021-10-15T10:34:45.000Z</time>
      </trkpt>
      <trkpt lat="48.15896" lon="-2.6878">
        <ele>117</ele>
        <time>2021-10-15T10:34:46.000Z</time>
      </trkpt>
      <trkpt lat="48.15893" lon="-2.68775">
        <ele>117</ele>
        <time>2021-10-15T10:34:47.000Z</time>
      </trkpt>
      <trkpt lat="48.15889" lon="-2.6877">
        <ele>117</ele>
        <time>2021-10-15T10:34:48.000Z</time>
      </trkpt>
      <trkpt lat="48.15885" lon="-2.68764">
        <ele>117</ele>
        <time>2021-10-15T10:34:49.000Z</time>
      </trkpt>
      <trkpt lat="48.15882" lon="-2.68759">
        <ele>117</ele>
        <time>2021-10-15T10:34:50.000Z</time>
      </trkpt>
      <trkpt lat="48.15878" lon="-2.68754">
        <ele>117</ele>
        <time>2021-10-15T10:34:51.000Z</time>
      </trkpt>
      <trkpt lat="48.15875" lon="-2.68749">
        <ele>117.40000152588</ele>
        <time>2021-10-15T10:34:52.000Z</time>
      </trkpt>
      <trkpt lat="48.15871" lon="-2.68745">
        <ele>117.59999847412</ele>
        <time>2021-10-15T10:34:53.000Z</time>
      </trkpt>
      <trkpt lat="48.15867" lon="-2.68739">
        <ele>118</ele>
        <time>2021-10-15T10:34:54.000Z</time>
      </trkpt>
      <trkpt lat="48.15863" lon="-2.68735">
        <ele>118</ele>
        <time>2021-10-15T10:34:55.000Z</time>
      </trkpt>
      <trkpt lat="48.1586" lon="-2.6873">
        <ele>118</ele>
        <time>2021-10-15T10:34:56.000Z</time>
      </trkpt>
      <trkpt lat="48.15856" lon="-2.68725">
        <ele>118</ele>
        <time>2021-10-15T10:34:57.000Z</time>
      </trkpt>
      <trkpt lat="48.15853" lon="-2.68719">
        <ele>118.19999694824</ele>
        <time>2021-10-15T10:34:58.000Z</time>
      </trkpt>
      <trkpt lat="48.15849" lon="-2.68714">
        <ele>118.59999847412</ele>
        <time>2021-10-15T10:34:59.000Z</time>
      </trkpt>
      <trkpt lat="48.15846" lon="-2.68708">
        <ele>118.80000305176</ele>
        <time>2021-10-15T10:35:00.000Z</time>
      </trkpt>
      <trkpt lat="48.15843" lon="-2.68703">
        <ele>119</ele>
        <time>2021-10-15T10:35:01.000Z</time>
      </trkpt>
      <trkpt lat="48.1584" lon="-2.68697">
        <ele>119</ele>
        <time>2021-10-15T10:35:02.000Z</time>
      </trkpt>
      <trkpt lat="48.15836" lon="-2.68692">
        <ele>119</ele>
        <time>2021-10-15T10:35:03.000Z</time>
      </trkpt>
      <trkpt lat="48.15833" lon="-2.68687">
        <ele>119</ele>
        <time>2021-10-15T10:35:04.000Z</time>
      </trkpt>
      <trkpt lat="48.1583" lon="-2.68681">
        <ele>119</ele>
        <time>2021-10-15T10:35:05.000Z</time>
      </trkpt>
      <trkpt lat="48.15826" lon="-2.68676">
        <ele>119</ele>
        <time>2021-10-15T10:35:06.000Z</time>
      </trkpt>
      <trkpt lat="48.15823" lon="-2.68669">
        <ele>118.80000305176</ele>
        <time>2021-10-15T10:35:07.000Z</time>
      </trkpt>
      <trkpt lat="48.1582" lon="-2.68663">
        <ele>118.59999847412</ele>
        <time>2021-10-15T10:35:08.000Z</time>
      </trkpt>
      <trkpt lat="48.15817" lon="-2.68658">
        <ele>118.19999694824</ele>
        <time>2021-10-15T10:35:09.000Z</time>
      </trkpt>
      <trkpt lat="48.15813" lon="-2.68652">
        <ele>118</ele>
        <time>2021-10-15T10:35:10.000Z</time>
      </trkpt>
      <trkpt lat="48.1581" lon="-2.68647">
        <ele>118</ele>
        <time>2021-10-15T10:35:11.000Z</time>
      </trkpt>
      <trkpt lat="48.15807" lon="-2.68642">
        <ele>118</ele>
        <time>2021-10-15T10:35:12.000Z</time>
      </trkpt>
      <trkpt lat="48.15804" lon="-2.68637">
        <ele>118</ele>
        <time>2021-10-15T10:35:13.000Z</time>
      </trkpt>
      <trkpt lat="48.158" lon="-2.68631">
        <ele>118</ele>
        <time>2021-10-15T10:35:14.000Z</time>
      </trkpt>
      <trkpt lat="48.15796" lon="-2.68625">
        <ele>118</ele>
        <time>2021-10-15T10:35:15.000Z</time>
      </trkpt>
      <trkpt lat="48.15792" lon="-2.6862">
        <ele>118</ele>
        <time>2021-10-15T10:35:16.000Z</time>
      </trkpt>
      <trkpt lat="48.15788" lon="-2.68615">
        <ele>118</ele>
        <time>2021-10-15T10:35:17.000Z</time>
      </trkpt>
      <trkpt lat="48.15784" lon="-2.6861">
        <ele>118</ele>
        <time>2021-10-15T10:35:18.000Z</time>
      </trkpt>
      <trkpt lat="48.15781" lon="-2.68604">
        <ele>118</ele>
        <time>2021-10-15T10:35:19.000Z</time>
      </trkpt>
      <trkpt lat="48.15778" lon="-2.68599">
        <ele>118</ele>
        <time>2021-10-15T10:35:20.000Z</time>
      </trkpt>
      <trkpt lat="48.15774" lon="-2.68593">
        <ele>118</ele>
        <time>2021-10-15T10:35:21.000Z</time>
      </trkpt>
      <trkpt lat="48.15771" lon="-2.68587">
        <ele>118</ele>
        <time>2021-10-15T10:35:22.000Z</time>
      </trkpt>
      <trkpt lat="48.15767" lon="-2.68581">
        <ele>118</ele>
        <time>2021-10-15T10:35:23.000Z</time>
      </trkpt>
      <trkpt lat="48.15764" lon="-2.68575">
        <ele>118</ele>
        <time>2021-10-15T10:35:24.000Z</time>
      </trkpt>
      <trkpt lat="48.1576" lon="-2.68569">
        <ele>118</ele>
        <time>2021-10-15T10:35:25.000Z</time>
      </trkpt>
      <trkpt lat="48.15757" lon="-2.68562">
        <ele>118</ele>
        <time>2021-10-15T10:35:26.000Z</time>
      </trkpt>
      <trkpt lat="48.15754" lon="-2.68556">
        <ele>117.80000305176</ele>
        <time>2021-10-15T10:35:27.000Z</time>
      </trkpt>
      <trkpt lat="48.1575" lon="-2.6855">
        <ele>117.59999847412</ele>
        <time>2021-10-15T10:35:28.000Z</time>
      </trkpt>
      <trkpt lat="48.15747" lon="-2.68543">
        <ele>117.40000152588</ele>
        <time>2021-10-15T10:35:29.000Z</time>
      </trkpt>
      <trkpt lat="48.15743" lon="-2.68535">
        <ele>117</ele>
        <time>2021-10-15T10:35:30.000Z</time>
      </trkpt>
      <trkpt lat="48.1574" lon="-2.68528">
        <ele>117</ele>
        <time>2021-10-15T10:35:31.000Z</time>
      </trkpt>
      <trkpt lat="48.15736" lon="-2.68522">
        <ele>117</ele>
        <time>2021-10-15T10:35:32.000Z</time>
      </trkpt>
      <trkpt lat="48.15732" lon="-2.68516">
        <ele>117</ele>
        <time>2021-10-15T10:35:33.000Z</time>
      </trkpt>
      <trkpt lat="48.15728" lon="-2.68509">
        <ele>117</ele>
        <time>2021-10-15T10:35:34.000Z</time>
      </trkpt>
      <trkpt lat="48.15723" lon="-2.68502">
        <ele>117</ele>
        <time>2021-10-15T10:35:35.000Z</time>
      </trkpt>
      <trkpt lat="48.15719" lon="-2.68496">
        <ele>117</ele>
        <time>2021-10-15T10:35:36.000Z</time>
      </trkpt>
      <trkpt lat="48.15715" lon="-2.68489">
        <ele>117</ele>
        <time>2021-10-15T10:35:37.000Z</time>
      </trkpt>
      <trkpt lat="48.15711" lon="-2.68482">
        <ele>117</ele>
        <time>2021-10-15T10:35:38.000Z</time>
      </trkpt>
      <trkpt lat="48.15707" lon="-2.68476">
        <ele>116.80000305176</ele>
        <time>2021-10-15T10:35:39.000Z</time>
      </trkpt>
      <trkpt lat="48.15703" lon="-2.68469">
        <ele>116.40000152588</ele>
        <time>2021-10-15T10:35:40.000Z</time>
      </trkpt>
      <trkpt lat="48.157" lon="-2.68462">
        <ele>116</ele>
        <time>2021-10-15T10:35:41.000Z</time>
      </trkpt>
      <trkpt lat="48.15697" lon="-2.68455">
        <ele>116</ele>
        <time>2021-10-15T10:35:42.000Z</time>
      </trkpt>
      <trkpt lat="48.15693" lon="-2.68448">
        <ele>116</ele>
        <time>2021-10-15T10:35:43.000Z</time>
      </trkpt>
      <trkpt lat="48.15689" lon="-2.68442">
        <ele>115.80000305176</ele>
        <time>2021-10-15T10:35:44.000Z</time>
      </trkpt>
      <trkpt lat="48.15686" lon="-2.68435">
        <ele>115.40000152588</ele>
        <time>2021-10-15T10:35:45.000Z</time>
      </trkpt>
      <trkpt lat="48.15683" lon="-2.68428">
        <ele>115</ele>
        <time>2021-10-15T10:35:46.000Z</time>
      </trkpt>
      <trkpt lat="48.15679" lon="-2.68421">
        <ele>114.80000305176</ele>
        <time>2021-10-15T10:35:47.000Z</time>
      </trkpt>
      <trkpt lat="48.15676" lon="-2.68414">
        <ele>114.40000152588</ele>
        <time>2021-10-15T10:35:48.000Z</time>
      </trkpt>
      <trkpt lat="48.15672" lon="-2.68407">
        <ele>114</ele>
        <time>2021-10-15T10:35:49.000Z</time>
      </trkpt>
      <trkpt lat="48.15669" lon="-2.684">
        <ele>114</ele>
        <time>2021-10-15T10:35:50.000Z</time>
      </trkpt>
      <trkpt lat="48.15665" lon="-2.68393">
        <ele>114</ele>
        <time>2021-10-15T10:35:51.000Z</time>
      </trkpt>
      <trkpt lat="48.15663" lon="-2.68385">
        <ele>114</ele>
        <time>2021-10-15T10:35:52.000Z</time>
      </trkpt>
      <trkpt lat="48.15661" lon="-2.68378">
        <ele>114</ele>
        <time>2021-10-15T10:35:53.000Z</time>
      </trkpt>
      <trkpt lat="48.15658" lon="-2.68371">
        <ele>114</ele>
        <time>2021-10-15T10:35:54.000Z</time>
      </trkpt>
      <trkpt lat="48.15655" lon="-2.68364">
        <ele>114</ele>
        <time>2021-10-15T10:35:55.000Z</time>
      </trkpt>
      <trkpt lat="48.15653" lon="-2.68358">
        <ele>113.80000305176</ele>
        <time>2021-10-15T10:35:56.000Z</time>
      </trkpt>
      <trkpt lat="48.1565" lon="-2.68353">
        <ele>113.80000305176</ele>
        <time>2021-10-15T10:35:57.000Z</time>
      </trkpt>
      <trkpt lat="48.15648" lon="-2.68348">
        <ele>113.59999847412</ele>
        <time>2021-10-15T10:35:58.000Z</time>
      </trkpt>
      <trkpt lat="48.15646" lon="-2.68345">
        <ele>113.59999847412</ele>
        <time>2021-10-15T10:35:59.000Z</time>
      </trkpt>
      <trkpt lat="48.15645" lon="-2.68343">
        <ele>113.59999847412</ele>
        <time>2021-10-15T10:36:00.000Z</time>
      </trkpt>
      <trkpt lat="48.15644" lon="-2.68342">
        <ele>113.59999847412</ele>
        <time>2021-10-15T10:36:01.000Z</time>
      </trkpt>
      <trkpt lat="48.15644" lon="-2.68342">
        <ele>113.59999847412</ele>
        <time>2021-10-15T10:36:02.000Z</time>
      </trkpt>
      <trkpt lat="48.15644" lon="-2.68342">
        <ele>113.59999847412</ele>
        <time>2021-10-15T10:36:03.000Z</time>
      </trkpt>
      <trkpt lat="48.15643" lon="-2.68343">
        <ele>113.59999847412</ele>
        <time>2021-10-15T10:36:04.000Z</time>
      </trkpt>
      <trkpt lat="48.15643" lon="-2.68344">
        <ele>113.59999847412</ele>
        <time>2021-10-15T10:36:05.000Z</time>
      </trkpt>
      <trkpt lat="48.15643" lon="-2.68344">
        <ele>113.40000152588</ele>
        <time>2021-10-15T10:36:06.000Z</time>
      </trkpt>
      <trkpt lat="48.15643" lon="-2.68344">
        <ele>113.40000152588</ele>
        <time>2021-10-15T10:36:07.000Z</time>
      </trkpt>
      <trkpt lat="48.15643" lon="-2.68344">
        <ele>113.40000152588</ele>
        <time>2021-10-15T10:36:08.000Z</time>
      </trkpt>
      <trkpt lat="48.15643" lon="-2.68344">
        <ele>113.40000152588</ele>
        <time>2021-10-15T10:36:09.000Z</time>
      </trkpt>
      <trkpt lat="48.15643" lon="-2.68345">
        <ele>113.40000152588</ele>
        <time>2021-10-15T10:36:10.000Z</time>
      </trkpt>
      <trkpt lat="48.15643" lon="-2.68345">
        <ele>113.40000152588</ele>
        <time>2021-10-15T10:36:11.000Z</time>
      </trkpt>
      <trkpt lat="48.15643" lon="-2.68345">
        <ele>113.40000152588</ele>
        <time>2021-10-15T10:36:12.000Z</time>
      </trkpt>
      <trkpt lat="48.15643" lon="-2.68345">
        <ele>113.40000152588</ele>
        <time>2021-10-15T10:36:13.000Z</time>
      </trkpt>
      <trkpt lat="48.15643" lon="-2.68345">
        <ele>113.40000152588</ele>
        <time>2021-10-15T10:36:14.000Z</time>
      </trkpt>
      <trkpt lat="48.15643" lon="-2.68345">
        <ele>113.40000152588</ele>
        <time>2021-10-15T10:36:15.000Z</time>
      </trkpt>
      <trkpt lat="48.15643" lon="-2.68345">
        <ele>113.40000152588</ele>
        <time>2021-10-15T10:36:16.000Z</time>
      </trkpt>
      <trkpt lat="48.15643" lon="-2.68345">
        <ele>113.40000152588</ele>
        <time>2021-10-15T10:36:17.000Z</time>
      </trkpt>
      <trkpt lat="48.15643" lon="-2.68345">
        <ele>113.40000152588</ele>
        <time>2021-10-15T10:36:18.000Z</time>
      </trkpt>
      <trkpt lat="48.15643" lon="-2.68345">
        <ele>113.40000152588</ele>
        <time>2021-10-15T10:36:19.000Z</time>
      </trkpt>
      <trkpt lat="48.15642" lon="-2.68345">
        <ele>113.40000152588</ele>
        <time>2021-10-15T10:36:20.000Z</time>
      </trkpt>
      <trkpt lat="48.15642" lon="-2.68345">
        <ele>113.40000152588</ele>
        <time>2021-10-15T10:36:21.000Z</time>
      </trkpt>
      <trkpt lat="48.15642" lon="-2.68345">
        <ele>113.40000152588</ele>
        <time>2021-10-15T10:36:22.000Z</time>
      </trkpt>
      <trkpt lat="48.15642" lon="-2.68345">
        <ele>113.40000152588</ele>
        <time>2021-10-15T10:36:23.000Z</time>
      </trkpt>
      <trkpt lat="48.15642" lon="-2.68345">
        <ele>113.40000152588</ele>
        <time>2021-10-15T10:36:24.000Z</time>
      </trkpt>
      <trkpt lat="48.15642" lon="-2.68345">
        <ele>113.40000152588</ele>
        <time>2021-10-15T10:36:25.000Z</time>
      </trkpt>
      <trkpt lat="48.15642" lon="-2.68345">
        <ele>113.40000152588</ele>
        <time>2021-10-15T10:36:26.000Z</time>
      </trkpt>
      <trkpt lat="48.15642" lon="-2.68345">
        <ele>113.40000152588</ele>
        <time>2021-10-15T10:36:27.000Z</time>
      </trkpt>
      <trkpt lat="48.15642" lon="-2.68345">
        <ele>113.40000152588</ele>
        <time>2021-10-15T10:36:28.000Z</time>
      </trkpt>
      <trkpt lat="48.15643" lon="-2.68345">
        <ele>113.40000152588</ele>
        <time>2021-10-15T10:36:29.000Z</time>
      </trkpt>
      <trkpt lat="48.15643" lon="-2.68345">
        <ele>113.40000152588</ele>
        <time>2021-10-15T10:36:30.000Z</time>
      </trkpt>
      <trkpt lat="48.15643" lon="-2.68345">
        <ele>113.40000152588</ele>
        <time>2021-10-15T10:36:31.000Z</time>
      </trkpt>
      <trkpt lat="48.15643" lon="-2.68345">
        <ele>113.40000152588</ele>
        <time>2021-10-15T10:36:32.000Z</time>
      </trkpt>
      <trkpt lat="48.15643" lon="-2.68345">
        <ele>113.40000152588</ele>
        <time>2021-10-15T10:36:33.000Z</time>
      </trkpt>
      <trkpt lat="48.15643" lon="-2.68345">
        <ele>113.40000152588</ele>
        <time>2021-10-15T10:36:34.000Z</time>
      </trkpt>
      <trkpt lat="48.15643" lon="-2.68345">
        <ele>113.40000152588</ele>
        <time>2021-10-15T10:36:35.000Z</time>
      </trkpt>
      <trkpt lat="48.15643" lon="-2.68345">
        <ele>113.40000152588</ele>
        <time>2021-10-15T10:36:36.000Z</time>
      </trkpt>
      <trkpt lat="48.15643" lon="-2.68345">
        <ele>113.59999847412</ele>
        <time>2021-10-15T10:36:37.000Z</time>
      </trkpt>
      <trkpt lat="48.15644" lon="-2.68345">
        <ele>113.59999847412</ele>
        <time>2021-10-15T10:36:38.000Z</time>
      </trkpt>
      <trkpt lat="48.15645" lon="-2.68345">
        <ele>113.59999847412</ele>
        <time>2021-10-15T10:36:39.000Z</time>
      </trkpt>
      <trkpt lat="48.15645" lon="-2.68345">
        <ele>113.59999847412</ele>
        <time>2021-10-15T10:36:40.000Z</time>
      </trkpt>
      <trkpt lat="48.15645" lon="-2.68345">
        <ele>113.59999847412</ele>
        <time>2021-10-15T10:36:41.000Z</time>
      </trkpt>
      <trkpt lat="48.15645" lon="-2.68345">
        <ele>113.59999847412</ele>
        <time>2021-10-15T10:36:42.000Z</time>
      </trkpt>
      <trkpt lat="48.15645" lon="-2.68345">
        <ele>113.59999847412</ele>
        <time>2021-10-15T10:36:43.000Z</time>
      </trkpt>
      <trkpt lat="48.15645" lon="-2.68345">
        <ele>113.59999847412</ele>
        <time>2021-10-15T10:36:44.000Z</time>
      </trkpt>
      <trkpt lat="48.15645" lon="-2.68345">
        <ele>113.59999847412</ele>
        <time>2021-10-15T10:36:45.000Z</time>
      </trkpt>
      <trkpt lat="48.15645" lon="-2.68345">
        <ele>113.59999847412</ele>
        <time>2021-10-15T10:36:46.000Z</time>
      </trkpt>
      <trkpt lat="48.15645" lon="-2.68345">
        <ele>113.59999847412</ele>
        <time>2021-10-15T10:36:47.000Z</time>
      </trkpt>
      <trkpt lat="48.15645" lon="-2.68345">
        <ele>113.59999847412</ele>
        <time>2021-10-15T10:36:48.000Z</time>
      </trkpt>
      <trkpt lat="48.15646" lon="-2.68346">
        <ele>113.59999847412</ele>
        <time>2021-10-15T10:36:49.000Z</time>
      </trkpt>
      <trkpt lat="48.15646" lon="-2.68345">
        <ele>113.59999847412</ele>
        <time>2021-10-15T10:36:50.000Z</time>
      </trkpt>
      <trkpt lat="48.15646" lon="-2.68345">
        <ele>113.59999847412</ele>
        <time>2021-10-15T10:36:51.000Z</time>
      </trkpt>
      <trkpt lat="48.15646" lon="-2.68345">
        <ele>113.59999847412</ele>
        <time>2021-10-15T10:36:52.000Z</time>
      </trkpt>
      <trkpt lat="48.15646" lon="-2.68344">
        <ele>113.59999847412</ele>
        <time>2021-10-15T10:36:53.000Z</time>
      </trkpt>
      <trkpt lat="48.15646" lon="-2.68344">
        <ele>113.59999847412</ele>
        <time>2021-10-15T10:36:54.000Z</time>
      </trkpt>
      <trkpt lat="48.15646" lon="-2.68344">
        <ele>113.59999847412</ele>
        <time>2021-10-15T10:36:55.000Z</time>
      </trkpt>
      <trkpt lat="48.15646" lon="-2.68344">
        <ele>113.59999847412</ele>
        <time>2021-10-15T10:36:56.000Z</time>
      </trkpt>
      <trkpt lat="48.15646" lon="-2.68344">
        <ele>113.59999847412</ele>
        <time>2021-10-15T10:36:57.000Z</time>
      </trkpt>
      <trkpt lat="48.15646" lon="-2.68343">
        <ele>113.59999847412</ele>
        <time>2021-10-15T10:36:58.000Z</time>
      </trkpt>
      <trkpt lat="48.15646" lon="-2.68344">
        <ele>113.59999847412</ele>
        <time>2021-10-15T10:36:59.000Z</time>
      </trkpt>
      <trkpt lat="48.15646" lon="-2.68343">
        <ele>113.59999847412</ele>
        <time>2021-10-15T10:37:00.000Z</time>
      </trkpt>
      <trkpt lat="48.15646" lon="-2.68343">
        <ele>113.59999847412</ele>
        <time>2021-10-15T10:37:01.000Z</time>
      </trkpt>
      <trkpt lat="48.15646" lon="-2.68343">
        <ele>113.59999847412</ele>
        <time>2021-10-15T10:37:02.000Z</time>
      </trkpt>
      <trkpt lat="48.15646" lon="-2.68344">
        <ele>113.59999847412</ele>
        <time>2021-10-15T10:37:03.000Z</time>
      </trkpt>
      <trkpt lat="48.15646" lon="-2.68344">
        <ele>113.59999847412</ele>
        <time>2021-10-15T10:37:04.000Z</time>
      </trkpt>
      <trkpt lat="48.15646" lon="-2.68344">
        <ele>113.59999847412</ele>
        <time>2021-10-15T10:37:05.000Z</time>
      </trkpt>
      <trkpt lat="48.15646" lon="-2.68344">
        <ele>113.59999847412</ele>
        <time>2021-10-15T10:37:06.000Z</time>
      </trkpt>
      <trkpt lat="48.15646" lon="-2.68344">
        <ele>113.59999847412</ele>
        <time>2021-10-15T10:37:07.000Z</time>
      </trkpt>
      <trkpt lat="48.15646" lon="-2.68344">
        <ele>113.59999847412</ele>
        <time>2021-10-15T10:37:08.000Z</time>
      </trkpt>
      <trkpt lat="48.15646" lon="-2.68344">
        <ele>113.59999847412</ele>
        <time>2021-10-15T10:37:09.000Z</time>
      </trkpt>
      <trkpt lat="48.15646" lon="-2.68344">
        <ele>113.59999847412</ele>
        <time>2021-10-15T10:37:10.000Z</time>
      </trkpt>
      <trkpt lat="48.15646" lon="-2.68343">
        <ele>113.59999847412</ele>
        <time>2021-10-15T10:37:11.000Z</time>
      </trkpt>
      <trkpt lat="48.15645" lon="-2.68342">
        <ele>113.59999847412</ele>
        <time>2021-10-15T10:37:12.000Z</time>
      </trkpt>
      <trkpt lat="48.15645" lon="-2.68341">
        <ele>113.59999847412</ele>
        <time>2021-10-15T10:37:13.000Z</time>
      </trkpt>
      <trkpt lat="48.15645" lon="-2.68341">
        <ele>113.59999847412</ele>
        <time>2021-10-15T10:37:14.000Z</time>
      </trkpt>
      <trkpt lat="48.15645" lon="-2.68341">
        <ele>113.59999847412</ele>
        <time>2021-10-15T10:37:15.000Z</time>
      </trkpt>
      <trkpt lat="48.15645" lon="-2.68341">
        <ele>113.59999847412</ele>
        <time>2021-10-15T10:37:16.000Z</time>
      </trkpt>
      <trkpt lat="48.15645" lon="-2.68341">
        <ele>113.59999847412</ele>
        <time>2021-10-15T10:37:17.000Z</time>
      </trkpt>
      <trkpt lat="48.15646" lon="-2.68341">
        <ele>113.59999847412</ele>
        <time>2021-10-15T10:37:18.000Z</time>
      </trkpt>
      <trkpt lat="48.15646" lon="-2.68341">
        <ele>113.59999847412</ele>
        <time>2021-10-15T10:37:19.000Z</time>
      </trkpt>
      <trkpt lat="48.15646" lon="-2.68341">
        <ele>113.59999847412</ele>
        <time>2021-10-15T10:37:20.000Z</time>
      </trkpt>
      <trkpt lat="48.15646" lon="-2.68341">
        <ele>113.59999847412</ele>
        <time>2021-10-15T10:37:21.000Z</time>
      </trkpt>
      <trkpt lat="48.15645" lon="-2.68341">
        <ele>113.59999847412</ele>
        <time>2021-10-15T10:37:22.000Z</time>
      </trkpt>
      <trkpt lat="48.15645" lon="-2.68341">
        <ele>113.59999847412</ele>
        <time>2021-10-15T10:37:23.000Z</time>
      </trkpt>
      <trkpt lat="48.15645" lon="-2.68341">
        <ele>113.59999847412</ele>
        <time>2021-10-15T10:37:24.000Z</time>
      </trkpt>
      <trkpt lat="48.15645" lon="-2.68341">
        <ele>113.59999847412</ele>
        <time>2021-10-15T10:37:25.000Z</time>
      </trkpt>
      <trkpt lat="48.15645" lon="-2.68341">
        <ele>113.59999847412</ele>
        <time>2021-10-15T10:37:26.000Z</time>
      </trkpt>
      <trkpt lat="48.15645" lon="-2.68341">
        <ele>113.59999847412</ele>
        <time>2021-10-15T10:37:27.000Z</time>
      </trkpt>
      <trkpt lat="48.15645" lon="-2.68341">
        <ele>113.59999847412</ele>
        <time>2021-10-15T10:37:28.000Z</time>
      </trkpt>
      <trkpt lat="48.15645" lon="-2.68342">
        <ele>113.59999847412</ele>
        <time>2021-10-15T10:37:29.000Z</time>
      </trkpt>
      <trkpt lat="48.15645" lon="-2.68342">
        <ele>113.59999847412</ele>
        <time>2021-10-15T10:37:30.000Z</time>
      </trkpt>
      <trkpt lat="48.15645" lon="-2.68342">
        <ele>113.59999847412</ele>
        <time>2021-10-15T10:37:31.000Z</time>
      </trkpt>
      <trkpt lat="48.15645" lon="-2.68342">
        <ele>113.59999847412</ele>
        <time>2021-10-15T10:37:32.000Z</time>
      </trkpt>
      <trkpt lat="48.15645" lon="-2.68342">
        <ele>113.59999847412</ele>
        <time>2021-10-15T10:37:33.000Z</time>
      </trkpt>
      <trkpt lat="48.15645" lon="-2.68342">
        <ele>113.59999847412</ele>
        <time>2021-10-15T10:37:34.000Z</time>
      </trkpt>
      <trkpt lat="48.15645" lon="-2.68342">
        <ele>113.59999847412</ele>
        <time>2021-10-15T10:37:35.000Z</time>
      </trkpt>
      <trkpt lat="48.15645" lon="-2.68342">
        <ele>113.59999847412</ele>
        <time>2021-10-15T10:37:36.000Z</time>
      </trkpt>
      <trkpt lat="48.15645" lon="-2.68342">
        <ele>113.59999847412</ele>
        <time>2021-10-15T10:37:37.000Z</time>
      </trkpt>
      <trkpt lat="48.15645" lon="-2.68342">
        <ele>113.59999847412</ele>
        <time>2021-10-15T10:37:38.000Z</time>
      </trkpt>
      <trkpt lat="48.15645" lon="-2.68342">
        <ele>113.59999847412</ele>
        <time>2021-10-15T10:37:39.000Z</time>
      </trkpt>
      <trkpt lat="48.15645" lon="-2.68342">
        <ele>113.59999847412</ele>
        <time>2021-10-15T10:37:40.000Z</time>
      </trkpt>
      <trkpt lat="48.15645" lon="-2.68342">
        <ele>113.59999847412</ele>
        <time>2021-10-15T10:37:41.000Z</time>
      </trkpt>
      <trkpt lat="48.15645" lon="-2.68342">
        <ele>113.59999847412</ele>
        <time>2021-10-15T10:37:42.000Z</time>
      </trkpt>
      <trkpt lat="48.15645" lon="-2.68342">
        <ele>113.59999847412</ele>
        <time>2021-10-15T10:37:43.000Z</time>
      </trkpt>
      <trkpt lat="48.15645" lon="-2.68342">
        <ele>113.59999847412</ele>
        <time>2021-10-15T10:37:44.000Z</time>
      </trkpt>
      <trkpt lat="48.15645" lon="-2.68343">
        <ele>113.59999847412</ele>
        <time>2021-10-15T10:37:45.000Z</time>
      </trkpt>
      <trkpt lat="48.15645" lon="-2.68343">
        <ele>113.59999847412</ele>
        <time>2021-10-15T10:37:46.000Z</time>
      </trkpt>
      <trkpt lat="48.15645" lon="-2.68343">
        <ele>113.59999847412</ele>
        <time>2021-10-15T10:37:47.000Z</time>
      </trkpt>
      <trkpt lat="48.15645" lon="-2.68343">
        <ele>113.59999847412</ele>
        <time>2021-10-15T10:37:48.000Z</time>
      </trkpt>
      <trkpt lat="48.15645" lon="-2.68343">
        <ele>113.59999847412</ele>
        <time>2021-10-15T10:37:49.000Z</time>
      </trkpt>
      <trkpt lat="48.15645" lon="-2.68343">
        <ele>113.59999847412</ele>
        <time>2021-10-15T10:37:50.000Z</time>
      </trkpt>
      <trkpt lat="48.15645" lon="-2.68343">
        <ele>113.59999847412</ele>
        <time>2021-10-15T10:37:51.000Z</time>
      </trkpt>
      <trkpt lat="48.15645" lon="-2.68343">
        <ele>113.59999847412</ele>
        <time>2021-10-15T10:37:52.000Z</time>
      </trkpt>
      <trkpt lat="48.15645" lon="-2.68343">
        <ele>113.59999847412</ele>
        <time>2021-10-15T10:37:53.000Z</time>
      </trkpt>
      <trkpt lat="48.15645" lon="-2.68343">
        <ele>113.59999847412</ele>
        <time>2021-10-15T10:37:54.000Z</time>
      </trkpt>
      <trkpt lat="48.15645" lon="-2.68343">
        <ele>113.59999847412</ele>
        <time>2021-10-15T10:37:55.000Z</time>
      </trkpt>
      <trkpt lat="48.15645" lon="-2.68343">
        <ele>113.59999847412</ele>
        <time>2021-10-15T10:37:56.000Z</time>
      </trkpt>
      <trkpt lat="48.15645" lon="-2.68343">
        <ele>113.59999847412</ele>
        <time>2021-10-15T10:37:57.000Z</time>
      </trkpt>
      <trkpt lat="48.15645" lon="-2.68343">
        <ele>113.59999847412</ele>
        <time>2021-10-15T10:37:58.000Z</time>
      </trkpt>
      <trkpt lat="48.15645" lon="-2.68343">
        <ele>113.59999847412</ele>
        <time>2021-10-15T10:37:59.000Z</time>
      </trkpt>
      <trkpt lat="48.15645" lon="-2.68343">
        <ele>113.59999847412</ele>
        <time>2021-10-15T10:38:00.000Z</time>
      </trkpt>
      <trkpt lat="48.15645" lon="-2.68343">
        <ele>113.59999847412</ele>
        <time>2021-10-15T10:38:01.000Z</time>
      </trkpt>
      <trkpt lat="48.15645" lon="-2.68343">
        <ele>113.59999847412</ele>
        <time>2021-10-15T10:38:02.000Z</time>
      </trkpt>
      <trkpt lat="48.15645" lon="-2.68343">
        <ele>113.59999847412</ele>
        <time>2021-10-15T10:38:03.000Z</time>
      </trkpt>
      <trkpt lat="48.15645" lon="-2.68343">
        <ele>113.59999847412</ele>
        <time>2021-10-15T10:38:04.000Z</time>
      </trkpt>
      <trkpt lat="48.15645" lon="-2.68343">
        <ele>113.59999847412</ele>
        <time>2021-10-15T10:38:05.000Z</time>
      </trkpt>
      <trkpt lat="48.15645" lon="-2.68343">
        <ele>113.59999847412</ele>
        <time>2021-10-15T10:38:06.000Z</time>
      </trkpt>
      <trkpt lat="48.15645" lon="-2.68343">
        <ele>113.59999847412</ele>
        <time>2021-10-15T10:38:07.000Z</time>
      </trkpt>
      <trkpt lat="48.15645" lon="-2.68343">
        <ele>113.59999847412</ele>
        <time>2021-10-15T10:38:08.000Z</time>
      </trkpt>
      <trkpt lat="48.15645" lon="-2.68343">
        <ele>113.59999847412</ele>
        <time>2021-10-15T10:38:09.000Z</time>
      </trkpt>
      <trkpt lat="48.15645" lon="-2.68343">
        <ele>113.59999847412</ele>
        <time>2021-10-15T10:38:10.000Z</time>
      </trkpt>
      <trkpt lat="48.15645" lon="-2.68343">
        <ele>113.59999847412</ele>
        <time>2021-10-15T10:38:11.000Z</time>
      </trkpt>
      <trkpt lat="48.15645" lon="-2.68343">
        <ele>113.59999847412</ele>
        <time>2021-10-15T10:38:12.000Z</time>
      </trkpt>
      <trkpt lat="48.15645" lon="-2.68343">
        <ele>113.59999847412</ele>
        <time>2021-10-15T10:38:13.000Z</time>
      </trkpt>
      <trkpt lat="48.15645" lon="-2.68343">
        <ele>113.59999847412</ele>
        <time>2021-10-15T10:38:14.000Z</time>
      </trkpt>
      <trkpt lat="48.15644" lon="-2.68343">
        <ele>113.59999847412</ele>
        <time>2021-10-15T10:38:15.000Z</time>
      </trkpt>
      <trkpt lat="48.15644" lon="-2.68343">
        <ele>113.59999847412</ele>
        <time>2021-10-15T10:38:16.000Z</time>
      </trkpt>
      <trkpt lat="48.15644" lon="-2.68343">
        <ele>113.59999847412</ele>
        <time>2021-10-15T10:38:17.000Z</time>
      </trkpt>
      <trkpt lat="48.15644" lon="-2.68342">
        <ele>113.59999847412</ele>
        <time>2021-10-15T10:38:18.000Z</time>
      </trkpt>
      <trkpt lat="48.15644" lon="-2.68341">
        <ele>113.59999847412</ele>
        <time>2021-10-15T10:38:19.000Z</time>
      </trkpt>
      <trkpt lat="48.15644" lon="-2.68341">
        <ele>113.59999847412</ele>
        <time>2021-10-15T10:38:20.000Z</time>
      </trkpt>
      <trkpt lat="48.15643" lon="-2.68341">
        <ele>113.59999847412</ele>
        <time>2021-10-15T10:38:21.000Z</time>
      </trkpt>
      <trkpt lat="48.15643" lon="-2.68341">
        <ele>113.59999847412</ele>
        <time>2021-10-15T10:38:22.000Z</time>
      </trkpt>
      <trkpt lat="48.15643" lon="-2.6834">
        <ele>113.40000152588</ele>
        <time>2021-10-15T10:38:23.000Z</time>
      </trkpt>
      <trkpt lat="48.15643" lon="-2.68339">
        <ele>113.40000152588</ele>
        <time>2021-10-15T10:38:24.000Z</time>
      </trkpt>
      <trkpt lat="48.15642" lon="-2.68337">
        <ele>113.40000152588</ele>
        <time>2021-10-15T10:38:25.000Z</time>
      </trkpt>
      <trkpt lat="48.15642" lon="-2.68336">
        <ele>113.40000152588</ele>
        <time>2021-10-15T10:38:26.000Z</time>
      </trkpt>
      <trkpt lat="48.15641" lon="-2.68335">
        <ele>113.40000152588</ele>
        <time>2021-10-15T10:38:27.000Z</time>
      </trkpt>
      <trkpt lat="48.15641" lon="-2.68334">
        <ele>113.40000152588</ele>
        <time>2021-10-15T10:38:28.000Z</time>
      </trkpt>
      <trkpt lat="48.1564" lon="-2.68334">
        <ele>113.40000152588</ele>
        <time>2021-10-15T10:38:29.000Z</time>
      </trkpt>
      <trkpt lat="48.1564" lon="-2.68334">
        <ele>113.40000152588</ele>
        <time>2021-10-15T10:38:30.000Z</time>
      </trkpt>
      <trkpt lat="48.1564" lon="-2.68333">
        <ele>113.40000152588</ele>
        <time>2021-10-15T10:38:31.000Z</time>
      </trkpt>
      <trkpt lat="48.1564" lon="-2.68333">
        <ele>113.40000152588</ele>
        <time>2021-10-15T10:38:32.000Z</time>
      </trkpt>
      <trkpt lat="48.1564" lon="-2.68333">
        <ele>113.40000152588</ele>
        <time>2021-10-15T10:38:33.000Z</time>
      </trkpt>
      <trkpt lat="48.1564" lon="-2.68333">
        <ele>113.40000152588</ele>
        <time>2021-10-15T10:38:34.000Z</time>
      </trkpt>
      <trkpt lat="48.1564" lon="-2.68333">
        <ele>113.40000152588</ele>
        <time>2021-10-15T10:38:35.000Z</time>
      </trkpt>
      <trkpt lat="48.1564" lon="-2.68333">
        <ele>113.40000152588</ele>
        <time>2021-10-15T10:38:36.000Z</time>
      </trkpt>
      <trkpt lat="48.1564" lon="-2.68333">
        <ele>113.40000152588</ele>
        <time>2021-10-15T10:38:37.000Z</time>
      </trkpt>
      <trkpt lat="48.1564" lon="-2.68333">
        <ele>113.40000152588</ele>
        <time>2021-10-15T10:38:38.000Z</time>
      </trkpt>
      <trkpt lat="48.1564" lon="-2.68333">
        <ele>113.40000152588</ele>
        <time>2021-10-15T10:38:39.000Z</time>
      </trkpt>
      <trkpt lat="48.1564" lon="-2.68333">
        <ele>113.40000152588</ele>
        <time>2021-10-15T10:38:40.000Z</time>
      </trkpt>
      <trkpt lat="48.1564" lon="-2.68333">
        <ele>113.40000152588</ele>
        <time>2021-10-15T10:38:41.000Z</time>
      </trkpt>
      <trkpt lat="48.1564" lon="-2.68333">
        <ele>113.40000152588</ele>
        <time>2021-10-15T10:38:42.000Z</time>
      </trkpt>
      <trkpt lat="48.1564" lon="-2.68333">
        <ele>113.40000152588</ele>
        <time>2021-10-15T10:38:43.000Z</time>
      </trkpt>
      <trkpt lat="48.1564" lon="-2.68333">
        <ele>113.40000152588</ele>
        <time>2021-10-15T10:38:44.000Z</time>
      </trkpt>
      <trkpt lat="48.1564" lon="-2.68333">
        <ele>113.40000152588</ele>
        <time>2021-10-15T10:38:45.000Z</time>
      </trkpt>
      <trkpt lat="48.1564" lon="-2.68333">
        <ele>113.40000152588</ele>
        <time>2021-10-15T10:38:46.000Z</time>
      </trkpt>
      <trkpt lat="48.1564" lon="-2.68333">
        <ele>113.40000152588</ele>
        <time>2021-10-15T10:38:47.000Z</time>
      </trkpt>
      <trkpt lat="48.1564" lon="-2.68333">
        <ele>113.40000152588</ele>
        <time>2021-10-15T10:38:48.000Z</time>
      </trkpt>
      <trkpt lat="48.1564" lon="-2.68333">
        <ele>113.40000152588</ele>
        <time>2021-10-15T10:38:49.000Z</time>
      </trkpt>
      <trkpt lat="48.1564" lon="-2.68333">
        <ele>113.40000152588</ele>
        <time>2021-10-15T10:38:50.000Z</time>
      </trkpt>
      <trkpt lat="48.1564" lon="-2.68333">
        <ele>113.40000152588</ele>
        <time>2021-10-15T10:38:51.000Z</time>
      </trkpt>
      <trkpt lat="48.1564" lon="-2.68333">
        <ele>113.40000152588</ele>
        <time>2021-10-15T10:38:52.000Z</time>
      </trkpt>
      <trkpt lat="48.1564" lon="-2.68333">
        <ele>113.40000152588</ele>
        <time>2021-10-15T10:38:53.000Z</time>
      </trkpt>
      <trkpt lat="48.1564" lon="-2.68333">
        <ele>113.40000152588</ele>
        <time>2021-10-15T10:38:54.000Z</time>
      </trkpt>
      <trkpt lat="48.1564" lon="-2.68333">
        <ele>113.40000152588</ele>
        <time>2021-10-15T10:38:55.000Z</time>
      </trkpt>
      <trkpt lat="48.1564" lon="-2.68333">
        <ele>113.40000152588</ele>
        <time>2021-10-15T10:38:56.000Z</time>
      </trkpt>
      <trkpt lat="48.1564" lon="-2.68333">
        <ele>113.40000152588</ele>
        <time>2021-10-15T10:38:57.000Z</time>
      </trkpt>
      <trkpt lat="48.1564" lon="-2.68334">
        <ele>113.40000152588</ele>
        <time>2021-10-15T10:38:58.000Z</time>
      </trkpt>
      <trkpt lat="48.1564" lon="-2.68334">
        <ele>113.40000152588</ele>
        <time>2021-10-15T10:38:59.000Z</time>
      </trkpt>
      <trkpt lat="48.1564" lon="-2.68333">
        <ele>113.40000152588</ele>
        <time>2021-10-15T10:39:00.000Z</time>
      </trkpt>
      <trkpt lat="48.1564" lon="-2.68333">
        <ele>113.40000152588</ele>
        <time>2021-10-15T10:39:01.000Z</time>
      </trkpt>
      <trkpt lat="48.1564" lon="-2.68333">
        <ele>113.40000152588</ele>
        <time>2021-10-15T10:39:02.000Z</time>
      </trkpt>
      <trkpt lat="48.1564" lon="-2.68333">
        <ele>113.40000152588</ele>
        <time>2021-10-15T10:39:03.000Z</time>
      </trkpt>
      <trkpt lat="48.1564" lon="-2.68333">
        <ele>113.40000152588</ele>
        <time>2021-10-15T10:39:04.000Z</time>
      </trkpt>
      <trkpt lat="48.1564" lon="-2.68333">
        <ele>113.40000152588</ele>
        <time>2021-10-15T10:39:05.000Z</time>
      </trkpt>
      <trkpt lat="48.1564" lon="-2.68332">
        <ele>113.40000152588</ele>
        <time>2021-10-15T10:39:06.000Z</time>
      </trkpt>
      <trkpt lat="48.15639" lon="-2.6833">
        <ele>113.40000152588</ele>
        <time>2021-10-15T10:39:07.000Z</time>
      </trkpt>
      <trkpt lat="48.15639" lon="-2.68329">
        <ele>113.40000152588</ele>
        <time>2021-10-15T10:39:08.000Z</time>
      </trkpt>
      <trkpt lat="48.15639" lon="-2.68327">
        <ele>113.40000152588</ele>
        <time>2021-10-15T10:39:09.000Z</time>
      </trkpt>
      <trkpt lat="48.15639" lon="-2.68325">
        <ele>113.40000152588</ele>
        <time>2021-10-15T10:39:10.000Z</time>
      </trkpt>
      <trkpt lat="48.15638" lon="-2.68324">
        <ele>113.40000152588</ele>
        <time>2021-10-15T10:39:11.000Z</time>
      </trkpt>
      <trkpt lat="48.15638" lon="-2.68322">
        <ele>113.40000152588</ele>
        <time>2021-10-15T10:39:12.000Z</time>
      </trkpt>
      <trkpt lat="48.15638" lon="-2.68321">
        <ele>113.40000152588</ele>
        <time>2021-10-15T10:39:13.000Z</time>
      </trkpt>
      <trkpt lat="48.15637" lon="-2.6832">
        <ele>113.19999694824</ele>
        <time>2021-10-15T10:39:14.000Z</time>
      </trkpt>
      <trkpt lat="48.15637" lon="-2.68318">
        <ele>113.19999694824</ele>
        <time>2021-10-15T10:39:15.000Z</time>
      </trkpt>
      <trkpt lat="48.15637" lon="-2.68317">
        <ele>113.19999694824</ele>
        <time>2021-10-15T10:39:16.000Z</time>
      </trkpt>
      <trkpt lat="48.15636" lon="-2.68315">
        <ele>113.19999694824</ele>
        <time>2021-10-15T10:39:17.000Z</time>
      </trkpt>
      <trkpt lat="48.15636" lon="-2.68313">
        <ele>113.19999694824</ele>
        <time>2021-10-15T10:39:18.000Z</time>
      </trkpt>
      <trkpt lat="48.15635" lon="-2.68311">
        <ele>113.19999694824</ele>
        <time>2021-10-15T10:39:19.000Z</time>
      </trkpt>
      <trkpt lat="48.15635" lon="-2.68309">
        <ele>113.19999694824</ele>
        <time>2021-10-15T10:39:20.000Z</time>
      </trkpt>
      <trkpt lat="48.15635" lon="-2.68307">
        <ele>113</ele>
        <time>2021-10-15T10:39:21.000Z</time>
      </trkpt>
      <trkpt lat="48.15634" lon="-2.68304">
        <ele>113</ele>
        <time>2021-10-15T10:39:22.000Z</time>
      </trkpt>
      <trkpt lat="48.15634" lon="-2.68301">
        <ele>113.19999694824</ele>
        <time>2021-10-15T10:39:23.000Z</time>
      </trkpt>
      <trkpt lat="48.15633" lon="-2.68298">
        <ele>113.40000152588</ele>
        <time>2021-10-15T10:39:24.000Z</time>
      </trkpt>
      <trkpt lat="48.15632" lon="-2.68295">
        <ele>113.40000152588</ele>
        <time>2021-10-15T10:39:25.000Z</time>
      </trkpt>
      <trkpt lat="48.15632" lon="-2.68291">
        <ele>113.59999847412</ele>
        <time>2021-10-15T10:39:26.000Z</time>
      </trkpt>
      <trkpt lat="48.15631" lon="-2.68288">
        <ele>113.80000305176</ele>
        <time>2021-10-15T10:39:27.000Z</time>
      </trkpt>
      <trkpt lat="48.1563" lon="-2.68285">
        <ele>114</ele>
        <time>2021-10-15T10:39:28.000Z</time>
      </trkpt>
      <trkpt lat="48.15629" lon="-2.68281">
        <ele>114</ele>
        <time>2021-10-15T10:39:29.000Z</time>
      </trkpt>
      <trkpt lat="48.15628" lon="-2.68277">
        <ele>114.19999694824</ele>
        <time>2021-10-15T10:39:30.000Z</time>
      </trkpt>
      <trkpt lat="48.15627" lon="-2.68273">
        <ele>114.19999694824</ele>
        <time>2021-10-15T10:39:31.000Z</time>
      </trkpt>
      <trkpt lat="48.15626" lon="-2.68269">
        <ele>114.40000152588</ele>
        <time>2021-10-15T10:39:32.000Z</time>
      </trkpt>
      <trkpt lat="48.15625" lon="-2.68264">
        <ele>114.59999847412</ele>
        <time>2021-10-15T10:39:33.000Z</time>
      </trkpt>
      <trkpt lat="48.15624" lon="-2.6826">
        <ele>114.59999847412</ele>
        <time>2021-10-15T10:39:34.000Z</time>
      </trkpt>
      <trkpt lat="48.15623" lon="-2.68254">
        <ele>114.80000305176</ele>
        <time>2021-10-15T10:39:35.000Z</time>
      </trkpt>
      <trkpt lat="48.15622" lon="-2.68249">
        <ele>114.80000305176</ele>
        <time>2021-10-15T10:39:36.000Z</time>
      </trkpt>
      <trkpt lat="48.15621" lon="-2.68243">
        <ele>114.80000305176</ele>
        <time>2021-10-15T10:39:37.000Z</time>
      </trkpt>
      <trkpt lat="48.1562" lon="-2.68237">
        <ele>114.59999847412</ele>
        <time>2021-10-15T10:39:38.000Z</time>
      </trkpt>
      <trkpt lat="48.15619" lon="-2.68231">
        <ele>114.80000305176</ele>
        <time>2021-10-15T10:39:39.000Z</time>
      </trkpt>
      <trkpt lat="48.15618" lon="-2.68225">
        <ele>115</ele>
        <time>2021-10-15T10:39:40.000Z</time>
      </trkpt>
      <trkpt lat="48.15617" lon="-2.68219">
        <ele>115.19999694824</ele>
        <time>2021-10-15T10:39:41.000Z</time>
      </trkpt>
      <trkpt lat="48.15616" lon="-2.68214">
        <ele>115.40000152588</ele>
        <time>2021-10-15T10:39:42.000Z</time>
      </trkpt>
      <trkpt lat="48.15615" lon="-2.68207">
        <ele>115.80000305176</ele>
        <time>2021-10-15T10:39:43.000Z</time>
      </trkpt>
      <trkpt lat="48.15614" lon="-2.68202">
        <ele>116</ele>
        <time>2021-10-15T10:39:44.000Z</time>
      </trkpt>
      <trkpt lat="48.15613" lon="-2.68196">
        <ele>115.80000305176</ele>
        <time>2021-10-15T10:39:45.000Z</time>
      </trkpt>
      <trkpt lat="48.15613" lon="-2.6819">
        <ele>115.59999847412</ele>
        <time>2021-10-15T10:39:46.000Z</time>
      </trkpt>
      <trkpt lat="48.15612" lon="-2.68184">
        <ele>115.40000152588</ele>
        <time>2021-10-15T10:39:47.000Z</time>
      </trkpt>
      <trkpt lat="48.15611" lon="-2.68178">
        <ele>115.19999694824</ele>
        <time>2021-10-15T10:39:48.000Z</time>
      </trkpt>
      <trkpt lat="48.1561" lon="-2.68172">
        <ele>115</ele>
        <time>2021-10-15T10:39:49.000Z</time>
      </trkpt>
      <trkpt lat="48.15609" lon="-2.68166">
        <ele>114.80000305176</ele>
        <time>2021-10-15T10:39:50.000Z</time>
      </trkpt>
      <trkpt lat="48.15608" lon="-2.6816">
        <ele>114.59999847412</ele>
        <time>2021-10-15T10:39:51.000Z</time>
      </trkpt>
      <trkpt lat="48.15608" lon="-2.68154">
        <ele>114.40000152588</ele>
        <time>2021-10-15T10:39:52.000Z</time>
      </trkpt>
      <trkpt lat="48.15608" lon="-2.68148">
        <ele>114.19999694824</ele>
        <time>2021-10-15T10:39:53.000Z</time>
      </trkpt>
      <trkpt lat="48.15607" lon="-2.68141">
        <ele>113.80000305176</ele>
        <time>2021-10-15T10:39:54.000Z</time>
      </trkpt>
      <trkpt lat="48.15607" lon="-2.68134">
        <ele>113.40000152588</ele>
        <time>2021-10-15T10:39:55.000Z</time>
      </trkpt>
      <trkpt lat="48.15607" lon="-2.68127">
        <ele>113</ele>
        <time>2021-10-15T10:39:56.000Z</time>
      </trkpt>
      <trkpt lat="48.15607" lon="-2.68119">
        <ele>112.40000152588</ele>
        <time>2021-10-15T10:39:57.000Z</time>
      </trkpt>
      <trkpt lat="48.15608" lon="-2.68112">
        <ele>112</ele>
        <time>2021-10-15T10:39:58.000Z</time>
      </trkpt>
      <trkpt lat="48.15608" lon="-2.68104">
        <ele>111.80000305176</ele>
        <time>2021-10-15T10:39:59.000Z</time>
      </trkpt>
      <trkpt lat="48.15609" lon="-2.68096">
        <ele>111.59999847412</ele>
        <time>2021-10-15T10:40:00.000Z</time>
      </trkpt>
      <trkpt lat="48.1561" lon="-2.68089">
        <ele>111.40000152588</ele>
        <time>2021-10-15T10:40:01.000Z</time>
      </trkpt>
      <trkpt lat="48.1561" lon="-2.68081">
        <ele>111</ele>
        <time>2021-10-15T10:40:02.000Z</time>
      </trkpt>
      <trkpt lat="48.1561" lon="-2.68073">
        <ele>111</ele>
        <time>2021-10-15T10:40:03.000Z</time>
      </trkpt>
      <trkpt lat="48.15611" lon="-2.68066">
        <ele>111</ele>
        <time>2021-10-15T10:40:04.000Z</time>
      </trkpt>
      <trkpt lat="48.15611" lon="-2.68058">
        <ele>111</ele>
        <time>2021-10-15T10:40:05.000Z</time>
      </trkpt>
      <trkpt lat="48.15612" lon="-2.6805">
        <ele>110.59999847412</ele>
        <time>2021-10-15T10:40:06.000Z</time>
      </trkpt>
      <trkpt lat="48.15612" lon="-2.68043">
        <ele>110.40000152588</ele>
        <time>2021-10-15T10:40:07.000Z</time>
      </trkpt>
      <trkpt lat="48.15613" lon="-2.68035">
        <ele>110</ele>
        <time>2021-10-15T10:40:08.000Z</time>
      </trkpt>
      <trkpt lat="48.15614" lon="-2.68027">
        <ele>109.59999847412</ele>
        <time>2021-10-15T10:40:09.000Z</time>
      </trkpt>
      <trkpt lat="48.15614" lon="-2.68018">
        <ele>109</ele>
        <time>2021-10-15T10:40:10.000Z</time>
      </trkpt>
      <trkpt lat="48.15615" lon="-2.68009">
        <ele>108.59999847412</ele>
        <time>2021-10-15T10:40:11.000Z</time>
      </trkpt>
      <trkpt lat="48.15616" lon="-2.68001">
        <ele>108.40000152588</ele>
        <time>2021-10-15T10:40:12.000Z</time>
      </trkpt>
      <trkpt lat="48.15617" lon="-2.67993">
        <ele>108</ele>
        <time>2021-10-15T10:40:13.000Z</time>
      </trkpt>
      <trkpt lat="48.15618" lon="-2.67985">
        <ele>107.59999847412</ele>
        <time>2021-10-15T10:40:14.000Z</time>
      </trkpt>
      <trkpt lat="48.1562" lon="-2.67977">
        <ele>107</ele>
        <time>2021-10-15T10:40:15.000Z</time>
      </trkpt>
      <trkpt lat="48.15621" lon="-2.6797">
        <ele>106.80000305176</ele>
        <time>2021-10-15T10:40:16.000Z</time>
      </trkpt>
      <trkpt lat="48.15622" lon="-2.67962">
        <ele>106.40000152588</ele>
        <time>2021-10-15T10:40:17.000Z</time>
      </trkpt>
      <trkpt lat="48.15624" lon="-2.67954">
        <ele>106.19999694824</ele>
        <time>2021-10-15T10:40:18.000Z</time>
      </trkpt>
      <trkpt lat="48.15625" lon="-2.67946">
        <ele>106</ele>
        <time>2021-10-15T10:40:19.000Z</time>
      </trkpt>
      <trkpt lat="48.15626" lon="-2.67938">
        <ele>106</ele>
        <time>2021-10-15T10:40:20.000Z</time>
      </trkpt>
      <trkpt lat="48.15627" lon="-2.6793">
        <ele>106</ele>
        <time>2021-10-15T10:40:21.000Z</time>
      </trkpt>
      <trkpt lat="48.15628" lon="-2.67922">
        <ele>106</ele>
        <time>2021-10-15T10:40:22.000Z</time>
      </trkpt>
      <trkpt lat="48.1563" lon="-2.67914">
        <ele>106.19999694824</ele>
        <time>2021-10-15T10:40:23.000Z</time>
      </trkpt>
      <trkpt lat="48.15631" lon="-2.67906">
        <ele>106.59999847412</ele>
        <time>2021-10-15T10:40:24.000Z</time>
      </trkpt>
      <trkpt lat="48.15633" lon="-2.67897">
        <ele>106.80000305176</ele>
        <time>2021-10-15T10:40:25.000Z</time>
      </trkpt>
      <trkpt lat="48.15634" lon="-2.67888">
        <ele>107</ele>
        <time>2021-10-15T10:40:26.000Z</time>
      </trkpt>
      <trkpt lat="48.15635" lon="-2.6788">
        <ele>107</ele>
        <time>2021-10-15T10:40:27.000Z</time>
      </trkpt>
      <trkpt lat="48.15636" lon="-2.67871">
        <ele>107</ele>
        <time>2021-10-15T10:40:28.000Z</time>
      </trkpt>
      <trkpt lat="48.15637" lon="-2.67863">
        <ele>106.80000305176</ele>
        <time>2021-10-15T10:40:29.000Z</time>
      </trkpt>
      <trkpt lat="48.15638" lon="-2.67855">
        <ele>106.59999847412</ele>
        <time>2021-10-15T10:40:30.000Z</time>
      </trkpt>
      <trkpt lat="48.1564" lon="-2.67847">
        <ele>106.59999847412</ele>
        <time>2021-10-15T10:40:31.000Z</time>
      </trkpt>
      <trkpt lat="48.15641" lon="-2.67839">
        <ele>106.59999847412</ele>
        <time>2021-10-15T10:40:32.000Z</time>
      </trkpt>
      <trkpt lat="48.15642" lon="-2.67831">
        <ele>106.59999847412</ele>
        <time>2021-10-15T10:40:33.000Z</time>
      </trkpt>
      <trkpt lat="48.15643" lon="-2.67823">
        <ele>106.59999847412</ele>
        <time>2021-10-15T10:40:34.000Z</time>
      </trkpt>
      <trkpt lat="48.15644" lon="-2.67815">
        <ele>106.40000152588</ele>
        <time>2021-10-15T10:40:35.000Z</time>
      </trkpt>
      <trkpt lat="48.15645" lon="-2.67807">
        <ele>106.40000152588</ele>
        <time>2021-10-15T10:40:36.000Z</time>
      </trkpt>
      <trkpt lat="48.15645" lon="-2.67799">
        <ele>106</ele>
        <time>2021-10-15T10:40:37.000Z</time>
      </trkpt>
      <trkpt lat="48.15646" lon="-2.67791">
        <ele>105.59999847412</ele>
        <time>2021-10-15T10:40:38.000Z</time>
      </trkpt>
      <trkpt lat="48.15646" lon="-2.67783">
        <ele>105</ele>
        <time>2021-10-15T10:40:39.000Z</time>
      </trkpt>
      <trkpt lat="48.15647" lon="-2.67775">
        <ele>104.80000305176</ele>
        <time>2021-10-15T10:40:40.000Z</time>
      </trkpt>
      <trkpt lat="48.15647" lon="-2.67767">
        <ele>104.40000152588</ele>
        <time>2021-10-15T10:40:41.000Z</time>
      </trkpt>
      <trkpt lat="48.15647" lon="-2.67759">
        <ele>104.19999694824</ele>
        <time>2021-10-15T10:40:42.000Z</time>
      </trkpt>
      <trkpt lat="48.15647" lon="-2.67752">
        <ele>104</ele>
        <time>2021-10-15T10:40:43.000Z</time>
      </trkpt>
      <trkpt lat="48.15646" lon="-2.67745">
        <ele>104</ele>
        <time>2021-10-15T10:40:44.000Z</time>
      </trkpt>
      <trkpt lat="48.15646" lon="-2.67738">
        <ele>104</ele>
        <time>2021-10-15T10:40:45.000Z</time>
      </trkpt>
      <trkpt lat="48.15645" lon="-2.67731">
        <ele>103.59999847412</ele>
        <time>2021-10-15T10:40:46.000Z</time>
      </trkpt>
      <trkpt lat="48.15645" lon="-2.67724">
        <ele>103.59999847412</ele>
        <time>2021-10-15T10:40:47.000Z</time>
      </trkpt>
      <trkpt lat="48.15645" lon="-2.67717">
        <ele>104</ele>
        <time>2021-10-15T10:40:48.000Z</time>
      </trkpt>
      <trkpt lat="48.15644" lon="-2.67711">
        <ele>104.19999694824</ele>
        <time>2021-10-15T10:40:49.000Z</time>
      </trkpt>
      <trkpt lat="48.15643" lon="-2.67704">
        <ele>104.40000152588</ele>
        <time>2021-10-15T10:40:50.000Z</time>
      </trkpt>
      <trkpt lat="48.15643" lon="-2.67697">
        <ele>104.59999847412</ele>
        <time>2021-10-15T10:40:51.000Z</time>
      </trkpt>
      <trkpt lat="48.15642" lon="-2.67689">
        <ele>104.80000305176</ele>
        <time>2021-10-15T10:40:52.000Z</time>
      </trkpt>
      <trkpt lat="48.15642" lon="-2.67681">
        <ele>105.40000152588</ele>
        <time>2021-10-15T10:40:53.000Z</time>
      </trkpt>
      <trkpt lat="48.15641" lon="-2.67672">
        <ele>106</ele>
        <time>2021-10-15T10:40:54.000Z</time>
      </trkpt>
      <trkpt lat="48.1564" lon="-2.67664">
        <ele>106</ele>
        <time>2021-10-15T10:40:55.000Z</time>
      </trkpt>
      <trkpt lat="48.15639" lon="-2.67657">
        <ele>106.19999694824</ele>
        <time>2021-10-15T10:40:56.000Z</time>
      </trkpt>
      <trkpt lat="48.15639" lon="-2.6765">
        <ele>106.40000152588</ele>
        <time>2021-10-15T10:40:57.000Z</time>
      </trkpt>
      <trkpt lat="48.15638" lon="-2.67644">
        <ele>106.59999847412</ele>
        <time>2021-10-15T10:40:58.000Z</time>
      </trkpt>
      <trkpt lat="48.15636" lon="-2.67638">
        <ele>106.80000305176</ele>
        <time>2021-10-15T10:40:59.000Z</time>
      </trkpt>
      <trkpt lat="48.15635" lon="-2.67632">
        <ele>107</ele>
        <time>2021-10-15T10:41:00.000Z</time>
      </trkpt>
      <trkpt lat="48.15634" lon="-2.67627">
        <ele>107.40000152588</ele>
        <time>2021-10-15T10:41:01.000Z</time>
      </trkpt>
      <trkpt lat="48.15633" lon="-2.67621">
        <ele>107.59999847412</ele>
        <time>2021-10-15T10:41:02.000Z</time>
      </trkpt>
      <trkpt lat="48.15632" lon="-2.67614">
        <ele>107.80000305176</ele>
        <time>2021-10-15T10:41:03.000Z</time>
      </trkpt>
      <trkpt lat="48.1563" lon="-2.67608">
        <ele>108</ele>
        <time>2021-10-15T10:41:04.000Z</time>
      </trkpt>
      <trkpt lat="48.15629" lon="-2.67602">
        <ele>108</ele>
        <time>2021-10-15T10:41:05.000Z</time>
      </trkpt>
      <trkpt lat="48.15627" lon="-2.67596">
        <ele>108</ele>
        <time>2021-10-15T10:41:06.000Z</time>
      </trkpt>
      <trkpt lat="48.15626" lon="-2.6759">
        <ele>108</ele>
        <time>2021-10-15T10:41:07.000Z</time>
      </trkpt>
      <trkpt lat="48.15624" lon="-2.67585">
        <ele>107.80000305176</ele>
        <time>2021-10-15T10:41:08.000Z</time>
      </trkpt>
      <trkpt lat="48.15622" lon="-2.67579">
        <ele>107.59999847412</ele>
        <time>2021-10-15T10:41:09.000Z</time>
      </trkpt>
      <trkpt lat="48.1562" lon="-2.67573">
        <ele>107.40000152588</ele>
        <time>2021-10-15T10:41:10.000Z</time>
      </trkpt>
      <trkpt lat="48.15618" lon="-2.67568">
        <ele>107.40000152588</ele>
        <time>2021-10-15T10:41:11.000Z</time>
      </trkpt>
      <trkpt lat="48.15616" lon="-2.67562">
        <ele>107.40000152588</ele>
        <time>2021-10-15T10:41:12.000Z</time>
      </trkpt>
      <trkpt lat="48.15614" lon="-2.67556">
        <ele>107.59999847412</ele>
        <time>2021-10-15T10:41:13.000Z</time>
      </trkpt>
      <trkpt lat="48.15612" lon="-2.6755">
        <ele>107.59999847412</ele>
        <time>2021-10-15T10:41:14.000Z</time>
      </trkpt>
      <trkpt lat="48.1561" lon="-2.67545">
        <ele>107.19999694824</ele>
        <time>2021-10-15T10:41:15.000Z</time>
      </trkpt>
      <trkpt lat="48.15609" lon="-2.6754">
        <ele>106.80000305176</ele>
        <time>2021-10-15T10:41:16.000Z</time>
      </trkpt>
      <trkpt lat="48.15606" lon="-2.67534">
        <ele>106.19999694824</ele>
        <time>2021-10-15T10:41:17.000Z</time>
      </trkpt>
      <trkpt lat="48.15603" lon="-2.67529">
        <ele>106</ele>
        <time>2021-10-15T10:41:18.000Z</time>
      </trkpt>
      <trkpt lat="48.15601" lon="-2.67524">
        <ele>105.59999847412</ele>
        <time>2021-10-15T10:41:19.000Z</time>
      </trkpt>
      <trkpt lat="48.15598" lon="-2.6752">
        <ele>105.59999847412</ele>
        <time>2021-10-15T10:41:20.000Z</time>
      </trkpt>
      <trkpt lat="48.15596" lon="-2.67516">
        <ele>105.40000152588</ele>
        <time>2021-10-15T10:41:21.000Z</time>
      </trkpt>
      <trkpt lat="48.15593" lon="-2.67511">
        <ele>105.19999694824</ele>
        <time>2021-10-15T10:41:22.000Z</time>
      </trkpt>
      <trkpt lat="48.1559" lon="-2.67506">
        <ele>105</ele>
        <time>2021-10-15T10:41:23.000Z</time>
      </trkpt>
      <trkpt lat="48.15587" lon="-2.67501">
        <ele>104.80000305176</ele>
        <time>2021-10-15T10:41:24.000Z</time>
      </trkpt>
      <trkpt lat="48.15585" lon="-2.67496">
        <ele>104.40000152588</ele>
        <time>2021-10-15T10:41:25.000Z</time>
      </trkpt>
      <trkpt lat="48.15582" lon="-2.67491">
        <ele>104.19999694824</ele>
        <time>2021-10-15T10:41:26.000Z</time>
      </trkpt>
      <trkpt lat="48.15579" lon="-2.67487">
        <ele>104.19999694824</ele>
        <time>2021-10-15T10:41:27.000Z</time>
      </trkpt>
      <trkpt lat="48.15576" lon="-2.67483">
        <ele>104.19999694824</ele>
        <time>2021-10-15T10:41:28.000Z</time>
      </trkpt>
      <trkpt lat="48.15573" lon="-2.67478">
        <ele>104</ele>
        <time>2021-10-15T10:41:29.000Z</time>
      </trkpt>
      <trkpt lat="48.15571" lon="-2.67473">
        <ele>103.59999847412</ele>
        <time>2021-10-15T10:41:30.000Z</time>
      </trkpt>
      <trkpt lat="48.15568" lon="-2.67469">
        <ele>103.40000152588</ele>
        <time>2021-10-15T10:41:31.000Z</time>
      </trkpt>
      <trkpt lat="48.15565" lon="-2.67464">
        <ele>103</ele>
        <time>2021-10-15T10:41:32.000Z</time>
      </trkpt>
      <trkpt lat="48.15562" lon="-2.6746">
        <ele>102.80000305176</ele>
        <time>2021-10-15T10:41:33.000Z</time>
      </trkpt>
      <trkpt lat="48.15559" lon="-2.67455">
        <ele>102.80000305176</ele>
        <time>2021-10-15T10:41:34.000Z</time>
      </trkpt>
      <trkpt lat="48.15556" lon="-2.6745">
        <ele>102.59999847412</ele>
        <time>2021-10-15T10:41:35.000Z</time>
      </trkpt>
      <trkpt lat="48.15552" lon="-2.67446">
        <ele>102.80000305176</ele>
        <time>2021-10-15T10:41:36.000Z</time>
      </trkpt>
      <trkpt lat="48.1555" lon="-2.67443">
        <ele>102.80000305176</ele>
        <time>2021-10-15T10:41:37.000Z</time>
      </trkpt>
      <trkpt lat="48.15546" lon="-2.67439">
        <ele>103</ele>
        <time>2021-10-15T10:41:38.000Z</time>
      </trkpt>
      <trkpt lat="48.15543" lon="-2.67435">
        <ele>103</ele>
        <time>2021-10-15T10:41:39.000Z</time>
      </trkpt>
      <trkpt lat="48.15539" lon="-2.67431">
        <ele>103</ele>
        <time>2021-10-15T10:41:40.000Z</time>
      </trkpt>
      <trkpt lat="48.15536" lon="-2.67428">
        <ele>103</ele>
        <time>2021-10-15T10:41:41.000Z</time>
      </trkpt>
      <trkpt lat="48.15533" lon="-2.67425">
        <ele>103</ele>
        <time>2021-10-15T10:41:42.000Z</time>
      </trkpt>
      <trkpt lat="48.1553" lon="-2.67422">
        <ele>103</ele>
        <time>2021-10-15T10:41:43.000Z</time>
      </trkpt>
      <trkpt lat="48.15527" lon="-2.67419">
        <ele>103</ele>
        <time>2021-10-15T10:41:44.000Z</time>
      </trkpt>
      <trkpt lat="48.15524" lon="-2.67416">
        <ele>102.80000305176</ele>
        <time>2021-10-15T10:41:45.000Z</time>
      </trkpt>
      <trkpt lat="48.1552" lon="-2.67413">
        <ele>103</ele>
        <time>2021-10-15T10:41:46.000Z</time>
      </trkpt>
      <trkpt lat="48.15516" lon="-2.6741">
        <ele>103</ele>
        <time>2021-10-15T10:41:47.000Z</time>
      </trkpt>
      <trkpt lat="48.15512" lon="-2.67408">
        <ele>103.19999694824</ele>
        <time>2021-10-15T10:41:48.000Z</time>
      </trkpt>
      <trkpt lat="48.15508" lon="-2.67404">
        <ele>103.40000152588</ele>
        <time>2021-10-15T10:41:49.000Z</time>
      </trkpt>
      <trkpt lat="48.15503" lon="-2.67401">
        <ele>103.80000305176</ele>
        <time>2021-10-15T10:41:50.000Z</time>
      </trkpt>
      <trkpt lat="48.15499" lon="-2.67399">
        <ele>104.19999694824</ele>
        <time>2021-10-15T10:41:51.000Z</time>
      </trkpt>
      <trkpt lat="48.15494" lon="-2.67397">
        <ele>104.59999847412</ele>
        <time>2021-10-15T10:41:52.000Z</time>
      </trkpt>
      <trkpt lat="48.1549" lon="-2.67395">
        <ele>105</ele>
        <time>2021-10-15T10:41:53.000Z</time>
      </trkpt>
      <trkpt lat="48.15485" lon="-2.67393">
        <ele>105</ele>
        <time>2021-10-15T10:41:54.000Z</time>
      </trkpt>
      <trkpt lat="48.15481" lon="-2.67391">
        <ele>105</ele>
        <time>2021-10-15T10:41:55.000Z</time>
      </trkpt>
      <trkpt lat="48.15477" lon="-2.67389">
        <ele>105</ele>
        <time>2021-10-15T10:41:56.000Z</time>
      </trkpt>
      <trkpt lat="48.15473" lon="-2.67388">
        <ele>105</ele>
        <time>2021-10-15T10:41:57.000Z</time>
      </trkpt>
      <trkpt lat="48.15468" lon="-2.67386">
        <ele>105</ele>
        <time>2021-10-15T10:41:58.000Z</time>
      </trkpt>
      <trkpt lat="48.15464" lon="-2.67385">
        <ele>105</ele>
        <time>2021-10-15T10:41:59.000Z</time>
      </trkpt>
      <trkpt lat="48.15459" lon="-2.67385">
        <ele>105</ele>
        <time>2021-10-15T10:42:00.000Z</time>
      </trkpt>
      <trkpt lat="48.15455" lon="-2.67384">
        <ele>105</ele>
        <time>2021-10-15T10:42:01.000Z</time>
      </trkpt>
      <trkpt lat="48.1545" lon="-2.67383">
        <ele>105</ele>
        <time>2021-10-15T10:42:02.000Z</time>
      </trkpt>
      <trkpt lat="48.15445" lon="-2.67381">
        <ele>105</ele>
        <time>2021-10-15T10:42:03.000Z</time>
      </trkpt>
      <trkpt lat="48.15441" lon="-2.67379">
        <ele>105.40000152588</ele>
        <time>2021-10-15T10:42:04.000Z</time>
      </trkpt>
      <trkpt lat="48.15436" lon="-2.67377">
        <ele>105.59999847412</ele>
        <time>2021-10-15T10:42:05.000Z</time>
      </trkpt>
      <trkpt lat="48.15432" lon="-2.67376">
        <ele>105.80000305176</ele>
        <time>2021-10-15T10:42:06.000Z</time>
      </trkpt>
      <trkpt lat="48.15428" lon="-2.67374">
        <ele>106</ele>
        <time>2021-10-15T10:42:07.000Z</time>
      </trkpt>
      <trkpt lat="48.15424" lon="-2.67373">
        <ele>106.19999694824</ele>
        <time>2021-10-15T10:42:08.000Z</time>
      </trkpt>
      <trkpt lat="48.1542" lon="-2.67371">
        <ele>106.40000152588</ele>
        <time>2021-10-15T10:42:09.000Z</time>
      </trkpt>
      <trkpt lat="48.15416" lon="-2.6737">
        <ele>106.59999847412</ele>
        <time>2021-10-15T10:42:10.000Z</time>
      </trkpt>
      <trkpt lat="48.15412" lon="-2.67368">
        <ele>106.80000305176</ele>
        <time>2021-10-15T10:42:11.000Z</time>
      </trkpt>
      <trkpt lat="48.15407" lon="-2.67366">
        <ele>107</ele>
        <time>2021-10-15T10:42:12.000Z</time>
      </trkpt>
      <trkpt lat="48.15402" lon="-2.67364">
        <ele>107</ele>
        <time>2021-10-15T10:42:13.000Z</time>
      </trkpt>
      <trkpt lat="48.15396" lon="-2.67363">
        <ele>107</ele>
        <time>2021-10-15T10:42:14.000Z</time>
      </trkpt>
      <trkpt lat="48.1539" lon="-2.67361">
        <ele>107</ele>
        <time>2021-10-15T10:42:15.000Z</time>
      </trkpt>
      <trkpt lat="48.15385" lon="-2.67359">
        <ele>107</ele>
        <time>2021-10-15T10:42:16.000Z</time>
      </trkpt>
      <trkpt lat="48.1538" lon="-2.67357">
        <ele>107</ele>
        <time>2021-10-15T10:42:17.000Z</time>
      </trkpt>
      <trkpt lat="48.15375" lon="-2.67355">
        <ele>107</ele>
        <time>2021-10-15T10:42:18.000Z</time>
      </trkpt>
      <trkpt lat="48.1537" lon="-2.67354">
        <ele>107</ele>
        <time>2021-10-15T10:42:19.000Z</time>
      </trkpt>
      <trkpt lat="48.15365" lon="-2.67352">
        <ele>107</ele>
        <time>2021-10-15T10:42:20.000Z</time>
      </trkpt>
      <trkpt lat="48.15359" lon="-2.67351">
        <ele>107.19999694824</ele>
        <time>2021-10-15T10:42:21.000Z</time>
      </trkpt>
      <trkpt lat="48.15354" lon="-2.6735">
        <ele>107.40000152588</ele>
        <time>2021-10-15T10:42:22.000Z</time>
      </trkpt>
      <trkpt lat="48.15349" lon="-2.67348">
        <ele>107.80000305176</ele>
        <time>2021-10-15T10:42:23.000Z</time>
      </trkpt>
      <trkpt lat="48.15344" lon="-2.67346">
        <ele>108</ele>
        <time>2021-10-15T10:42:24.000Z</time>
      </trkpt>
      <trkpt lat="48.1534" lon="-2.67344">
        <ele>108.19999694824</ele>
        <time>2021-10-15T10:42:25.000Z</time>
      </trkpt>
      <trkpt lat="48.15335" lon="-2.67342">
        <ele>108.40000152588</ele>
        <time>2021-10-15T10:42:26.000Z</time>
      </trkpt>
      <trkpt lat="48.1533" lon="-2.6734">
        <ele>108.80000305176</ele>
        <time>2021-10-15T10:42:27.000Z</time>
      </trkpt>
      <trkpt lat="48.15326" lon="-2.67338">
        <ele>109</ele>
        <time>2021-10-15T10:42:28.000Z</time>
      </trkpt>
      <trkpt lat="48.15321" lon="-2.67336">
        <ele>109</ele>
        <time>2021-10-15T10:42:29.000Z</time>
      </trkpt>
      <trkpt lat="48.15317" lon="-2.67333">
        <ele>109.19999694824</ele>
        <time>2021-10-15T10:42:30.000Z</time>
      </trkpt>
      <trkpt lat="48.15313" lon="-2.67331">
        <ele>109.19999694824</ele>
        <time>2021-10-15T10:42:31.000Z</time>
      </trkpt>
      <trkpt lat="48.15309" lon="-2.67328">
        <ele>109.40000152588</ele>
        <time>2021-10-15T10:42:32.000Z</time>
      </trkpt>
      <trkpt lat="48.15305" lon="-2.67325">
        <ele>109.59999847412</ele>
        <time>2021-10-15T10:42:33.000Z</time>
      </trkpt>
      <trkpt lat="48.15301" lon="-2.67323">
        <ele>110</ele>
        <time>2021-10-15T10:42:34.000Z</time>
      </trkpt>
      <trkpt lat="48.15297" lon="-2.6732">
        <ele>110.19999694824</ele>
        <time>2021-10-15T10:42:35.000Z</time>
      </trkpt>
      <trkpt lat="48.15293" lon="-2.67317">
        <ele>110.40000152588</ele>
        <time>2021-10-15T10:42:36.000Z</time>
      </trkpt>
      <trkpt lat="48.15289" lon="-2.67313">
        <ele>110.59999847412</ele>
        <time>2021-10-15T10:42:37.000Z</time>
      </trkpt>
      <trkpt lat="48.15285" lon="-2.6731">
        <ele>110.59999847412</ele>
        <time>2021-10-15T10:42:38.000Z</time>
      </trkpt>
      <trkpt lat="48.15281" lon="-2.67307">
        <ele>110.40000152588</ele>
        <time>2021-10-15T10:42:39.000Z</time>
      </trkpt>
      <trkpt lat="48.15277" lon="-2.67304">
        <ele>110.40000152588</ele>
        <time>2021-10-15T10:42:40.000Z</time>
      </trkpt>
      <trkpt lat="48.15274" lon="-2.673">
        <ele>110.59999847412</ele>
        <time>2021-10-15T10:42:41.000Z</time>
      </trkpt>
      <trkpt lat="48.15269" lon="-2.67296">
        <ele>111</ele>
        <time>2021-10-15T10:42:42.000Z</time>
      </trkpt>
      <trkpt lat="48.15265" lon="-2.67292">
        <ele>111.40000152588</ele>
        <time>2021-10-15T10:42:43.000Z</time>
      </trkpt>
      <trkpt lat="48.15262" lon="-2.67288">
        <ele>111.59999847412</ele>
        <time>2021-10-15T10:42:44.000Z</time>
      </trkpt>
      <trkpt lat="48.15258" lon="-2.67284">
        <ele>112</ele>
        <time>2021-10-15T10:42:45.000Z</time>
      </trkpt>
      <trkpt lat="48.15255" lon="-2.67279">
        <ele>112</ele>
        <time>2021-10-15T10:42:46.000Z</time>
      </trkpt>
      <trkpt lat="48.15251" lon="-2.67275">
        <ele>112</ele>
        <time>2021-10-15T10:42:47.000Z</time>
      </trkpt>
      <trkpt lat="48.15247" lon="-2.6727">
        <ele>112.19999694824</ele>
        <time>2021-10-15T10:42:48.000Z</time>
      </trkpt>
      <trkpt lat="48.15243" lon="-2.67265">
        <ele>112.59999847412</ele>
        <time>2021-10-15T10:42:49.000Z</time>
      </trkpt>
      <trkpt lat="48.15239" lon="-2.6726">
        <ele>112.80000305176</ele>
        <time>2021-10-15T10:42:50.000Z</time>
      </trkpt>
      <trkpt lat="48.15235" lon="-2.67255">
        <ele>113</ele>
        <time>2021-10-15T10:42:51.000Z</time>
      </trkpt>
      <trkpt lat="48.15232" lon="-2.6725">
        <ele>113</ele>
        <time>2021-10-15T10:42:52.000Z</time>
      </trkpt>
      <trkpt lat="48.15228" lon="-2.67245">
        <ele>113</ele>
        <time>2021-10-15T10:42:53.000Z</time>
      </trkpt>
      <trkpt lat="48.15225" lon="-2.6724">
        <ele>113</ele>
        <time>2021-10-15T10:42:54.000Z</time>
      </trkpt>
      <trkpt lat="48.15221" lon="-2.67236">
        <ele>113</ele>
        <time>2021-10-15T10:42:55.000Z</time>
      </trkpt>
      <trkpt lat="48.15217" lon="-2.67231">
        <ele>113</ele>
        <time>2021-10-15T10:42:56.000Z</time>
      </trkpt>
      <trkpt lat="48.15214" lon="-2.67226">
        <ele>113</ele>
        <time>2021-10-15T10:42:57.000Z</time>
      </trkpt>
      <trkpt lat="48.15211" lon="-2.67221">
        <ele>112.59999847412</ele>
        <time>2021-10-15T10:42:58.000Z</time>
      </trkpt>
      <trkpt lat="48.15207" lon="-2.67216">
        <ele>112.19999694824</ele>
        <time>2021-10-15T10:42:59.000Z</time>
      </trkpt>
      <trkpt lat="48.15204" lon="-2.67211">
        <ele>111.80000305176</ele>
        <time>2021-10-15T10:43:00.000Z</time>
      </trkpt>
      <trkpt lat="48.15201" lon="-2.67205">
        <ele>111.40000152588</ele>
        <time>2021-10-15T10:43:01.000Z</time>
      </trkpt>
      <trkpt lat="48.15198" lon="-2.672">
        <ele>111</ele>
        <time>2021-10-15T10:43:02.000Z</time>
      </trkpt>
      <trkpt lat="48.15195" lon="-2.67194">
        <ele>110.59999847412</ele>
        <time>2021-10-15T10:43:03.000Z</time>
      </trkpt>
      <trkpt lat="48.15192" lon="-2.67188">
        <ele>110.19999694824</ele>
        <time>2021-10-15T10:43:04.000Z</time>
      </trkpt>
      <trkpt lat="48.1519" lon="-2.67182">
        <ele>110.19999694824</ele>
        <time>2021-10-15T10:43:05.000Z</time>
      </trkpt>
      <trkpt lat="48.15187" lon="-2.67175">
        <ele>110</ele>
        <time>2021-10-15T10:43:06.000Z</time>
      </trkpt>
      <trkpt lat="48.15185" lon="-2.67168">
        <ele>110.19999694824</ele>
        <time>2021-10-15T10:43:07.000Z</time>
      </trkpt>
      <trkpt lat="48.15183" lon="-2.67162">
        <ele>110.19999694824</ele>
        <time>2021-10-15T10:43:08.000Z</time>
      </trkpt>
      <trkpt lat="48.1518" lon="-2.67155">
        <ele>110.40000152588</ele>
        <time>2021-10-15T10:43:09.000Z</time>
      </trkpt>
      <trkpt lat="48.15178" lon="-2.67148">
        <ele>110.59999847412</ele>
        <time>2021-10-15T10:43:10.000Z</time>
      </trkpt>
      <trkpt lat="48.15176" lon="-2.67141">
        <ele>111</ele>
        <time>2021-10-15T10:43:11.000Z</time>
      </trkpt>
      <trkpt lat="48.15174" lon="-2.67135">
        <ele>111</ele>
        <time>2021-10-15T10:43:12.000Z</time>
      </trkpt>
      <trkpt lat="48.15172" lon="-2.67128">
        <ele>111</ele>
        <time>2021-10-15T10:43:13.000Z</time>
      </trkpt>
      <trkpt lat="48.1517" lon="-2.67123">
        <ele>111.19999694824</ele>
        <time>2021-10-15T10:43:14.000Z</time>
      </trkpt>
      <trkpt lat="48.15169" lon="-2.67117">
        <ele>111.59999847412</ele>
        <time>2021-10-15T10:43:15.000Z</time>
      </trkpt>
      <trkpt lat="48.15167" lon="-2.67111">
        <ele>111.80000305176</ele>
        <time>2021-10-15T10:43:16.000Z</time>
      </trkpt>
      <trkpt lat="48.15165" lon="-2.67105">
        <ele>112</ele>
        <time>2021-10-15T10:43:17.000Z</time>
      </trkpt>
      <trkpt lat="48.15163" lon="-2.671">
        <ele>112.40000152588</ele>
        <time>2021-10-15T10:43:18.000Z</time>
      </trkpt>
      <trkpt lat="48.15161" lon="-2.67094">
        <ele>112.59999847412</ele>
        <time>2021-10-15T10:43:19.000Z</time>
      </trkpt>
      <trkpt lat="48.1516" lon="-2.67088">
        <ele>112.80000305176</ele>
        <time>2021-10-15T10:43:20.000Z</time>
      </trkpt>
      <trkpt lat="48.15159" lon="-2.67083">
        <ele>113</ele>
        <time>2021-10-15T10:43:21.000Z</time>
      </trkpt>
      <trkpt lat="48.15157" lon="-2.67077">
        <ele>113</ele>
        <time>2021-10-15T10:43:22.000Z</time>
      </trkpt>
      <trkpt lat="48.15156" lon="-2.67072">
        <ele>113</ele>
        <time>2021-10-15T10:43:23.000Z</time>
      </trkpt>
      <trkpt lat="48.15155" lon="-2.67067">
        <ele>112.80000305176</ele>
        <time>2021-10-15T10:43:24.000Z</time>
      </trkpt>
      <trkpt lat="48.15154" lon="-2.67062">
        <ele>112.80000305176</ele>
        <time>2021-10-15T10:43:25.000Z</time>
      </trkpt>
      <trkpt lat="48.15153" lon="-2.67057">
        <ele>112.40000152588</ele>
        <time>2021-10-15T10:43:26.000Z</time>
      </trkpt>
      <trkpt lat="48.15152" lon="-2.67052">
        <ele>112.19999694824</ele>
        <time>2021-10-15T10:43:27.000Z</time>
      </trkpt>
      <trkpt lat="48.15151" lon="-2.67046">
        <ele>111.80000305176</ele>
        <time>2021-10-15T10:43:28.000Z</time>
      </trkpt>
      <trkpt lat="48.15151" lon="-2.6704">
        <ele>111.59999847412</ele>
        <time>2021-10-15T10:43:29.000Z</time>
      </trkpt>
      <trkpt lat="48.1515" lon="-2.67034">
        <ele>111.59999847412</ele>
        <time>2021-10-15T10:43:30.000Z</time>
      </trkpt>
      <trkpt lat="48.1515" lon="-2.67029">
        <ele>111.40000152588</ele>
        <time>2021-10-15T10:43:31.000Z</time>
      </trkpt>
      <trkpt lat="48.1515" lon="-2.67023">
        <ele>111.19999694824</ele>
        <time>2021-10-15T10:43:32.000Z</time>
      </trkpt>
      <trkpt lat="48.1515" lon="-2.67017">
        <ele>111</ele>
        <time>2021-10-15T10:43:33.000Z</time>
      </trkpt>
      <trkpt lat="48.1515" lon="-2.67011">
        <ele>110.80000305176</ele>
        <time>2021-10-15T10:43:34.000Z</time>
      </trkpt>
      <trkpt lat="48.15149" lon="-2.67005">
        <ele>111</ele>
        <time>2021-10-15T10:43:35.000Z</time>
      </trkpt>
      <trkpt lat="48.15148" lon="-2.67">
        <ele>111.19999694824</ele>
        <time>2021-10-15T10:43:36.000Z</time>
      </trkpt>
      <trkpt lat="48.15148" lon="-2.66994">
        <ele>111.40000152588</ele>
        <time>2021-10-15T10:43:37.000Z</time>
      </trkpt>
      <trkpt lat="48.15147" lon="-2.66989">
        <ele>111.59999847412</ele>
        <time>2021-10-15T10:43:38.000Z</time>
      </trkpt>
      <trkpt lat="48.15147" lon="-2.66984">
        <ele>111.80000305176</ele>
        <time>2021-10-15T10:43:39.000Z</time>
      </trkpt>
      <trkpt lat="48.15146" lon="-2.66978">
        <ele>112</ele>
        <time>2021-10-15T10:43:40.000Z</time>
      </trkpt>
      <trkpt lat="48.15146" lon="-2.66971">
        <ele>112</ele>
        <time>2021-10-15T10:43:41.000Z</time>
      </trkpt>
      <trkpt lat="48.15146" lon="-2.66965">
        <ele>112</ele>
        <time>2021-10-15T10:43:42.000Z</time>
      </trkpt>
      <trkpt lat="48.15146" lon="-2.66958">
        <ele>112</ele>
        <time>2021-10-15T10:43:43.000Z</time>
      </trkpt>
      <trkpt lat="48.15146" lon="-2.66952">
        <ele>112</ele>
        <time>2021-10-15T10:43:44.000Z</time>
      </trkpt>
      <trkpt lat="48.15146" lon="-2.66946">
        <ele>112</ele>
        <time>2021-10-15T10:43:45.000Z</time>
      </trkpt>
      <trkpt lat="48.15146" lon="-2.6694">
        <ele>112</ele>
        <time>2021-10-15T10:43:46.000Z</time>
      </trkpt>
      <trkpt lat="48.15146" lon="-2.66933">
        <ele>112</ele>
        <time>2021-10-15T10:43:47.000Z</time>
      </trkpt>
      <trkpt lat="48.15147" lon="-2.66926">
        <ele>111.80000305176</ele>
        <time>2021-10-15T10:43:48.000Z</time>
      </trkpt>
      <trkpt lat="48.15147" lon="-2.66919">
        <ele>111.59999847412</ele>
        <time>2021-10-15T10:43:49.000Z</time>
      </trkpt>
      <trkpt lat="48.15147" lon="-2.66912">
        <ele>111.59999847412</ele>
        <time>2021-10-15T10:43:50.000Z</time>
      </trkpt>
      <trkpt lat="48.15147" lon="-2.66905">
        <ele>111.59999847412</ele>
        <time>2021-10-15T10:43:51.000Z</time>
      </trkpt>
      <trkpt lat="48.15148" lon="-2.66899">
        <ele>111.59999847412</ele>
        <time>2021-10-15T10:43:52.000Z</time>
      </trkpt>
      <trkpt lat="48.15149" lon="-2.66892">
        <ele>111.59999847412</ele>
        <time>2021-10-15T10:43:53.000Z</time>
      </trkpt>
      <trkpt lat="48.15149" lon="-2.66885">
        <ele>111.80000305176</ele>
        <time>2021-10-15T10:43:54.000Z</time>
      </trkpt>
      <trkpt lat="48.1515" lon="-2.66878">
        <ele>111.80000305176</ele>
        <time>2021-10-15T10:43:55.000Z</time>
      </trkpt>
      <trkpt lat="48.15151" lon="-2.66872">
        <ele>111.80000305176</ele>
        <time>2021-10-15T10:43:56.000Z</time>
      </trkpt>
      <trkpt lat="48.15152" lon="-2.66866">
        <ele>111.59999847412</ele>
        <time>2021-10-15T10:43:57.000Z</time>
      </trkpt>
      <trkpt lat="48.15152" lon="-2.6686">
        <ele>111.59999847412</ele>
        <time>2021-10-15T10:43:58.000Z</time>
      </trkpt>
      <trkpt lat="48.15153" lon="-2.66854">
        <ele>111.80000305176</ele>
        <time>2021-10-15T10:43:59.000Z</time>
      </trkpt>
      <trkpt lat="48.15154" lon="-2.66848">
        <ele>111.80000305176</ele>
        <time>2021-10-15T10:44:00.000Z</time>
      </trkpt>
      <trkpt lat="48.15155" lon="-2.66843">
        <ele>111.80000305176</ele>
        <time>2021-10-15T10:44:01.000Z</time>
      </trkpt>
      <trkpt lat="48.15157" lon="-2.66837">
        <ele>112</ele>
        <time>2021-10-15T10:44:02.000Z</time>
      </trkpt>
      <trkpt lat="48.15158" lon="-2.66831">
        <ele>112</ele>
        <time>2021-10-15T10:44:03.000Z</time>
      </trkpt>
      <trkpt lat="48.15158" lon="-2.66825">
        <ele>112</ele>
        <time>2021-10-15T10:44:04.000Z</time>
      </trkpt>
      <trkpt lat="48.15159" lon="-2.66819">
        <ele>112</ele>
        <time>2021-10-15T10:44:05.000Z</time>
      </trkpt>
      <trkpt lat="48.15159" lon="-2.66814">
        <ele>112</ele>
        <time>2021-10-15T10:44:06.000Z</time>
      </trkpt>
      <trkpt lat="48.15159" lon="-2.66808">
        <ele>112.19999694824</ele>
        <time>2021-10-15T10:44:07.000Z</time>
      </trkpt>
      <trkpt lat="48.15159" lon="-2.66802">
        <ele>112.40000152588</ele>
        <time>2021-10-15T10:44:08.000Z</time>
      </trkpt>
      <trkpt lat="48.15159" lon="-2.66796">
        <ele>112.59999847412</ele>
        <time>2021-10-15T10:44:09.000Z</time>
      </trkpt>
      <trkpt lat="48.15159" lon="-2.6679">
        <ele>112.80000305176</ele>
        <time>2021-10-15T10:44:10.000Z</time>
      </trkpt>
      <trkpt lat="48.15159" lon="-2.66783">
        <ele>113</ele>
        <time>2021-10-15T10:44:11.000Z</time>
      </trkpt>
      <trkpt lat="48.15159" lon="-2.66777">
        <ele>113.40000152588</ele>
        <time>2021-10-15T10:44:12.000Z</time>
      </trkpt>
      <trkpt lat="48.1516" lon="-2.6677">
        <ele>113.80000305176</ele>
        <time>2021-10-15T10:44:13.000Z</time>
      </trkpt>
      <trkpt lat="48.1516" lon="-2.66764">
        <ele>114.40000152588</ele>
        <time>2021-10-15T10:44:14.000Z</time>
      </trkpt>
      <trkpt lat="48.15161" lon="-2.66758">
        <ele>114.80000305176</ele>
        <time>2021-10-15T10:44:15.000Z</time>
      </trkpt>
      <trkpt lat="48.15161" lon="-2.66751">
        <ele>115.19999694824</ele>
        <time>2021-10-15T10:44:16.000Z</time>
      </trkpt>
      <trkpt lat="48.15162" lon="-2.66745">
        <ele>115.40000152588</ele>
        <time>2021-10-15T10:44:17.000Z</time>
      </trkpt>
      <trkpt lat="48.15163" lon="-2.66739">
        <ele>115.59999847412</ele>
        <time>2021-10-15T10:44:18.000Z</time>
      </trkpt>
      <trkpt lat="48.15163" lon="-2.66732">
        <ele>115.80000305176</ele>
        <time>2021-10-15T10:44:19.000Z</time>
      </trkpt>
      <trkpt lat="48.15164" lon="-2.66725">
        <ele>116</ele>
        <time>2021-10-15T10:44:20.000Z</time>
      </trkpt>
      <trkpt lat="48.15164" lon="-2.66718">
        <ele>116</ele>
        <time>2021-10-15T10:44:21.000Z</time>
      </trkpt>
      <trkpt lat="48.15165" lon="-2.66711">
        <ele>116.19999694824</ele>
        <time>2021-10-15T10:44:22.000Z</time>
      </trkpt>
      <trkpt lat="48.15166" lon="-2.66704">
        <ele>116.59999847412</ele>
        <time>2021-10-15T10:44:23.000Z</time>
      </trkpt>
      <trkpt lat="48.15167" lon="-2.66697">
        <ele>116.80000305176</ele>
        <time>2021-10-15T10:44:24.000Z</time>
      </trkpt>
      <trkpt lat="48.15167" lon="-2.6669">
        <ele>117</ele>
        <time>2021-10-15T10:44:25.000Z</time>
      </trkpt>
      <trkpt lat="48.15169" lon="-2.66684">
        <ele>117.19999694824</ele>
        <time>2021-10-15T10:44:26.000Z</time>
      </trkpt>
      <trkpt lat="48.1517" lon="-2.66677">
        <ele>117.40000152588</ele>
        <time>2021-10-15T10:44:27.000Z</time>
      </trkpt>
      <trkpt lat="48.1517" lon="-2.6667">
        <ele>117.59999847412</ele>
        <time>2021-10-15T10:44:28.000Z</time>
      </trkpt>
      <trkpt lat="48.15171" lon="-2.66664">
        <ele>117.59999847412</ele>
        <time>2021-10-15T10:44:29.000Z</time>
      </trkpt>
      <trkpt lat="48.15171" lon="-2.66658">
        <ele>117.40000152588</ele>
        <time>2021-10-15T10:44:30.000Z</time>
      </trkpt>
      <trkpt lat="48.15172" lon="-2.66651">
        <ele>117.40000152588</ele>
        <time>2021-10-15T10:44:31.000Z</time>
      </trkpt>
      <trkpt lat="48.15173" lon="-2.66645">
        <ele>117.40000152588</ele>
        <time>2021-10-15T10:44:32.000Z</time>
      </trkpt>
      <trkpt lat="48.15174" lon="-2.66639">
        <ele>117.40000152588</ele>
        <time>2021-10-15T10:44:33.000Z</time>
      </trkpt>
      <trkpt lat="48.15174" lon="-2.66632">
        <ele>117.40000152588</ele>
        <time>2021-10-15T10:44:34.000Z</time>
      </trkpt>
      <trkpt lat="48.15175" lon="-2.66626">
        <ele>117.40000152588</ele>
        <time>2021-10-15T10:44:35.000Z</time>
      </trkpt>
      <trkpt lat="48.15175" lon="-2.6662">
        <ele>117.40000152588</ele>
        <time>2021-10-15T10:44:36.000Z</time>
      </trkpt>
      <trkpt lat="48.15176" lon="-2.66613">
        <ele>117.19999694824</ele>
        <time>2021-10-15T10:44:37.000Z</time>
      </trkpt>
      <trkpt lat="48.15177" lon="-2.66607">
        <ele>117</ele>
        <time>2021-10-15T10:44:38.000Z</time>
      </trkpt>
      <trkpt lat="48.15178" lon="-2.66601">
        <ele>116.80000305176</ele>
        <time>2021-10-15T10:44:39.000Z</time>
      </trkpt>
      <trkpt lat="48.15178" lon="-2.66595">
        <ele>116.40000152588</ele>
        <time>2021-10-15T10:44:40.000Z</time>
      </trkpt>
      <trkpt lat="48.15179" lon="-2.66588">
        <ele>116.40000152588</ele>
        <time>2021-10-15T10:44:41.000Z</time>
      </trkpt>
      <trkpt lat="48.1518" lon="-2.66582">
        <ele>116.40000152588</ele>
        <time>2021-10-15T10:44:42.000Z</time>
      </trkpt>
      <trkpt lat="48.1518" lon="-2.66575">
        <ele>116.40000152588</ele>
        <time>2021-10-15T10:44:43.000Z</time>
      </trkpt>
      <trkpt lat="48.15181" lon="-2.66569">
        <ele>116.19999694824</ele>
        <time>2021-10-15T10:44:44.000Z</time>
      </trkpt>
      <trkpt lat="48.15181" lon="-2.66563">
        <ele>116.19999694824</ele>
        <time>2021-10-15T10:44:45.000Z</time>
      </trkpt>
      <trkpt lat="48.15182" lon="-2.66558">
        <ele>116</ele>
        <time>2021-10-15T10:44:46.000Z</time>
      </trkpt>
      <trkpt lat="48.15182" lon="-2.66552">
        <ele>115.59999847412</ele>
        <time>2021-10-15T10:44:47.000Z</time>
      </trkpt>
      <trkpt lat="48.15183" lon="-2.66547">
        <ele>115.19999694824</ele>
        <time>2021-10-15T10:44:48.000Z</time>
      </trkpt>
      <trkpt lat="48.15184" lon="-2.66542">
        <ele>114.59999847412</ele>
        <time>2021-10-15T10:44:49.000Z</time>
      </trkpt>
      <trkpt lat="48.15185" lon="-2.66536">
        <ele>114.19999694824</ele>
        <time>2021-10-15T10:44:50.000Z</time>
      </trkpt>
      <trkpt lat="48.15185" lon="-2.66531">
        <ele>114</ele>
        <time>2021-10-15T10:44:51.000Z</time>
      </trkpt>
      <trkpt lat="48.15186" lon="-2.66525">
        <ele>114</ele>
        <time>2021-10-15T10:44:52.000Z</time>
      </trkpt>
      <trkpt lat="48.15187" lon="-2.6652">
        <ele>114</ele>
        <time>2021-10-15T10:44:53.000Z</time>
      </trkpt>
      <trkpt lat="48.15188" lon="-2.66514">
        <ele>114</ele>
        <time>2021-10-15T10:44:54.000Z</time>
      </trkpt>
      <trkpt lat="48.15189" lon="-2.66508">
        <ele>114</ele>
        <time>2021-10-15T10:44:55.000Z</time>
      </trkpt>
      <trkpt lat="48.1519" lon="-2.66503">
        <ele>114</ele>
        <time>2021-10-15T10:44:56.000Z</time>
      </trkpt>
      <trkpt lat="48.1519" lon="-2.66497">
        <ele>113.80000305176</ele>
        <time>2021-10-15T10:44:57.000Z</time>
      </trkpt>
      <trkpt lat="48.1519" lon="-2.66492">
        <ele>113.59999847412</ele>
        <time>2021-10-15T10:44:58.000Z</time>
      </trkpt>
      <trkpt lat="48.15191" lon="-2.66488">
        <ele>113.40000152588</ele>
        <time>2021-10-15T10:44:59.000Z</time>
      </trkpt>
      <trkpt lat="48.15191" lon="-2.66483">
        <ele>113.19999694824</ele>
        <time>2021-10-15T10:45:00.000Z</time>
      </trkpt>
      <trkpt lat="48.15192" lon="-2.66479">
        <ele>113</ele>
        <time>2021-10-15T10:45:01.000Z</time>
      </trkpt>
      <trkpt lat="48.15193" lon="-2.66476">
        <ele>113</ele>
        <time>2021-10-15T10:45:02.000Z</time>
      </trkpt>
      <trkpt lat="48.15194" lon="-2.66473">
        <ele>113.19999694824</ele>
        <time>2021-10-15T10:45:03.000Z</time>
      </trkpt>
      <trkpt lat="48.15195" lon="-2.66471">
        <ele>113.19999694824</ele>
        <time>2021-10-15T10:45:04.000Z</time>
      </trkpt>
      <trkpt lat="48.15195" lon="-2.66468">
        <ele>113.40000152588</ele>
        <time>2021-10-15T10:45:05.000Z</time>
      </trkpt>
      <trkpt lat="48.15196" lon="-2.66465">
        <ele>113.40000152588</ele>
        <time>2021-10-15T10:45:06.000Z</time>
      </trkpt>
      <trkpt lat="48.15197" lon="-2.66462">
        <ele>113.40000152588</ele>
        <time>2021-10-15T10:45:07.000Z</time>
      </trkpt>
      <trkpt lat="48.15198" lon="-2.66458">
        <ele>113.40000152588</ele>
        <time>2021-10-15T10:45:08.000Z</time>
      </trkpt>
      <trkpt lat="48.15199" lon="-2.66454">
        <ele>113.59999847412</ele>
        <time>2021-10-15T10:45:09.000Z</time>
      </trkpt>
      <trkpt lat="48.152" lon="-2.6645">
        <ele>113.59999847412</ele>
        <time>2021-10-15T10:45:10.000Z</time>
      </trkpt>
      <trkpt lat="48.15201" lon="-2.66446">
        <ele>113.59999847412</ele>
        <time>2021-10-15T10:45:11.000Z</time>
      </trkpt>
      <trkpt lat="48.15202" lon="-2.66441">
        <ele>113.59999847412</ele>
        <time>2021-10-15T10:45:12.000Z</time>
      </trkpt>
      <trkpt lat="48.15203" lon="-2.66436">
        <ele>113.59999847412</ele>
        <time>2021-10-15T10:45:13.000Z</time>
      </trkpt>
      <trkpt lat="48.15204" lon="-2.66431">
        <ele>113.59999847412</ele>
        <time>2021-10-15T10:45:14.000Z</time>
      </trkpt>
      <trkpt lat="48.15204" lon="-2.66426">
        <ele>113.80000305176</ele>
        <time>2021-10-15T10:45:15.000Z</time>
      </trkpt>
      <trkpt lat="48.15205" lon="-2.66421">
        <ele>114</ele>
        <time>2021-10-15T10:45:16.000Z</time>
      </trkpt>
      <trkpt lat="48.15206" lon="-2.66416">
        <ele>114</ele>
        <time>2021-10-15T10:45:17.000Z</time>
      </trkpt>
      <trkpt lat="48.15206" lon="-2.6641">
        <ele>114</ele>
        <time>2021-10-15T10:45:18.000Z</time>
      </trkpt>
      <trkpt lat="48.15207" lon="-2.66404">
        <ele>114</ele>
        <time>2021-10-15T10:45:19.000Z</time>
      </trkpt>
      <trkpt lat="48.15208" lon="-2.66398">
        <ele>114</ele>
        <time>2021-10-15T10:45:20.000Z</time>
      </trkpt>
      <trkpt lat="48.15209" lon="-2.66392">
        <ele>114</ele>
        <time>2021-10-15T10:45:21.000Z</time>
      </trkpt>
      <trkpt lat="48.1521" lon="-2.66385">
        <ele>113.80000305176</ele>
        <time>2021-10-15T10:45:22.000Z</time>
      </trkpt>
      <trkpt lat="48.1521" lon="-2.66379">
        <ele>113.40000152588</ele>
        <time>2021-10-15T10:45:23.000Z</time>
      </trkpt>
      <trkpt lat="48.15211" lon="-2.66372">
        <ele>113.19999694824</ele>
        <time>2021-10-15T10:45:24.000Z</time>
      </trkpt>
      <trkpt lat="48.15212" lon="-2.66366">
        <ele>113</ele>
        <time>2021-10-15T10:45:25.000Z</time>
      </trkpt>
      <trkpt lat="48.15212" lon="-2.66359">
        <ele>112.80000305176</ele>
        <time>2021-10-15T10:45:26.000Z</time>
      </trkpt>
      <trkpt lat="48.15213" lon="-2.66352">
        <ele>112.59999847412</ele>
        <time>2021-10-15T10:45:27.000Z</time>
      </trkpt>
      <trkpt lat="48.15214" lon="-2.66345">
        <ele>112.40000152588</ele>
        <time>2021-10-15T10:45:28.000Z</time>
      </trkpt>
      <trkpt lat="48.15214" lon="-2.66338">
        <ele>112</ele>
        <time>2021-10-15T10:45:29.000Z</time>
      </trkpt>
      <trkpt lat="48.15215" lon="-2.66331">
        <ele>112</ele>
        <time>2021-10-15T10:45:30.000Z</time>
      </trkpt>
      <trkpt lat="48.15216" lon="-2.66324">
        <ele>112</ele>
        <time>2021-10-15T10:45:31.000Z</time>
      </trkpt>
      <trkpt lat="48.15217" lon="-2.66317">
        <ele>112</ele>
        <time>2021-10-15T10:45:32.000Z</time>
      </trkpt>
      <trkpt lat="48.15217" lon="-2.6631">
        <ele>112</ele>
        <time>2021-10-15T10:45:33.000Z</time>
      </trkpt>
      <trkpt lat="48.15218" lon="-2.66303">
        <ele>112</ele>
        <time>2021-10-15T10:45:34.000Z</time>
      </trkpt>
      <trkpt lat="48.15219" lon="-2.66296">
        <ele>111.80000305176</ele>
        <time>2021-10-15T10:45:35.000Z</time>
      </trkpt>
      <trkpt lat="48.1522" lon="-2.66289">
        <ele>111.59999847412</ele>
        <time>2021-10-15T10:45:36.000Z</time>
      </trkpt>
      <trkpt lat="48.15221" lon="-2.66282">
        <ele>111.40000152588</ele>
        <time>2021-10-15T10:45:37.000Z</time>
      </trkpt>
      <trkpt lat="48.15222" lon="-2.66275">
        <ele>111.40000152588</ele>
        <time>2021-10-15T10:45:38.000Z</time>
      </trkpt>
      <trkpt lat="48.15223" lon="-2.66268">
        <ele>111.59999847412</ele>
        <time>2021-10-15T10:45:39.000Z</time>
      </trkpt>
      <trkpt lat="48.15224" lon="-2.66261">
        <ele>111.80000305176</ele>
        <time>2021-10-15T10:45:40.000Z</time>
      </trkpt>
      <trkpt lat="48.15225" lon="-2.66253">
        <ele>112</ele>
        <time>2021-10-15T10:45:41.000Z</time>
      </trkpt>
      <trkpt lat="48.15226" lon="-2.66246">
        <ele>112</ele>
        <time>2021-10-15T10:45:42.000Z</time>
      </trkpt>
      <trkpt lat="48.15227" lon="-2.66239">
        <ele>112</ele>
        <time>2021-10-15T10:45:43.000Z</time>
      </trkpt>
      <trkpt lat="48.15228" lon="-2.66231">
        <ele>112</ele>
        <time>2021-10-15T10:45:44.000Z</time>
      </trkpt>
      <trkpt lat="48.15229" lon="-2.66224">
        <ele>112.19999694824</ele>
        <time>2021-10-15T10:45:45.000Z</time>
      </trkpt>
      <trkpt lat="48.1523" lon="-2.66217">
        <ele>112.40000152588</ele>
        <time>2021-10-15T10:45:46.000Z</time>
      </trkpt>
      <trkpt lat="48.15231" lon="-2.66209">
        <ele>112.59999847412</ele>
        <time>2021-10-15T10:45:47.000Z</time>
      </trkpt>
      <trkpt lat="48.15232" lon="-2.66202">
        <ele>112.80000305176</ele>
        <time>2021-10-15T10:45:48.000Z</time>
      </trkpt>
      <trkpt lat="48.15234" lon="-2.66195">
        <ele>112.59999847412</ele>
        <time>2021-10-15T10:45:49.000Z</time>
      </trkpt>
      <trkpt lat="48.15235" lon="-2.66188">
        <ele>112.40000152588</ele>
        <time>2021-10-15T10:45:50.000Z</time>
      </trkpt>
      <trkpt lat="48.15237" lon="-2.66181">
        <ele>112.19999694824</ele>
        <time>2021-10-15T10:45:51.000Z</time>
      </trkpt>
      <trkpt lat="48.15238" lon="-2.66175">
        <ele>112</ele>
        <time>2021-10-15T10:45:52.000Z</time>
      </trkpt>
      <trkpt lat="48.15239" lon="-2.66168">
        <ele>112.19999694824</ele>
        <time>2021-10-15T10:45:53.000Z</time>
      </trkpt>
      <trkpt lat="48.15241" lon="-2.66162">
        <ele>112.59999847412</ele>
        <time>2021-10-15T10:45:54.000Z</time>
      </trkpt>
      <trkpt lat="48.15243" lon="-2.66157">
        <ele>113.19999694824</ele>
        <time>2021-10-15T10:45:55.000Z</time>
      </trkpt>
      <trkpt lat="48.15244" lon="-2.66152">
        <ele>113.59999847412</ele>
        <time>2021-10-15T10:45:56.000Z</time>
      </trkpt>
      <trkpt lat="48.15246" lon="-2.66146">
        <ele>114</ele>
        <time>2021-10-15T10:45:57.000Z</time>
      </trkpt>
      <trkpt lat="48.15248" lon="-2.6614">
        <ele>114.40000152588</ele>
        <time>2021-10-15T10:45:58.000Z</time>
      </trkpt>
      <trkpt lat="48.1525" lon="-2.66135">
        <ele>114.59999847412</ele>
        <time>2021-10-15T10:45:59.000Z</time>
      </trkpt>
      <trkpt lat="48.15252" lon="-2.66129">
        <ele>115</ele>
        <time>2021-10-15T10:46:00.000Z</time>
      </trkpt>
      <trkpt lat="48.15254" lon="-2.66123">
        <ele>115.19999694824</ele>
        <time>2021-10-15T10:46:01.000Z</time>
      </trkpt>
      <trkpt lat="48.15256" lon="-2.66118">
        <ele>115.40000152588</ele>
        <time>2021-10-15T10:46:02.000Z</time>
      </trkpt>
      <trkpt lat="48.15259" lon="-2.66113">
        <ele>115.80000305176</ele>
        <time>2021-10-15T10:46:03.000Z</time>
      </trkpt>
      <trkpt lat="48.15261" lon="-2.66108">
        <ele>116</ele>
        <time>2021-10-15T10:46:04.000Z</time>
      </trkpt>
      <trkpt lat="48.15263" lon="-2.66102">
        <ele>116.19999694824</ele>
        <time>2021-10-15T10:46:05.000Z</time>
      </trkpt>
      <trkpt lat="48.15265" lon="-2.66097">
        <ele>116.59999847412</ele>
        <time>2021-10-15T10:46:06.000Z</time>
      </trkpt>
      <trkpt lat="48.15267" lon="-2.66092">
        <ele>116.80000305176</ele>
        <time>2021-10-15T10:46:07.000Z</time>
      </trkpt>
      <trkpt lat="48.15269" lon="-2.66087">
        <ele>117</ele>
        <time>2021-10-15T10:46:08.000Z</time>
      </trkpt>
      <trkpt lat="48.15271" lon="-2.66082">
        <ele>117</ele>
        <time>2021-10-15T10:46:09.000Z</time>
      </trkpt>
      <trkpt lat="48.15274" lon="-2.66078">
        <ele>117</ele>
        <time>2021-10-15T10:46:10.000Z</time>
      </trkpt>
      <trkpt lat="48.15276" lon="-2.66074">
        <ele>117</ele>
        <time>2021-10-15T10:46:11.000Z</time>
      </trkpt>
      <trkpt lat="48.15279" lon="-2.66069">
        <ele>117</ele>
        <time>2021-10-15T10:46:12.000Z</time>
      </trkpt>
      <trkpt lat="48.15282" lon="-2.66065">
        <ele>117</ele>
        <time>2021-10-15T10:46:13.000Z</time>
      </trkpt>
      <trkpt lat="48.15285" lon="-2.6606">
        <ele>117</ele>
        <time>2021-10-15T10:46:14.000Z</time>
      </trkpt>
      <trkpt lat="48.15288" lon="-2.66055">
        <ele>116.80000305176</ele>
        <time>2021-10-15T10:46:15.000Z</time>
      </trkpt>
      <trkpt lat="48.15291" lon="-2.6605">
        <ele>116.59999847412</ele>
        <time>2021-10-15T10:46:16.000Z</time>
      </trkpt>
      <trkpt lat="48.15294" lon="-2.66044">
        <ele>116.40000152588</ele>
        <time>2021-10-15T10:46:17.000Z</time>
      </trkpt>
      <trkpt lat="48.15298" lon="-2.66039">
        <ele>116.19999694824</ele>
        <time>2021-10-15T10:46:18.000Z</time>
      </trkpt>
      <trkpt lat="48.15301" lon="-2.66033">
        <ele>116</ele>
        <time>2021-10-15T10:46:19.000Z</time>
      </trkpt>
      <trkpt lat="48.15305" lon="-2.66028">
        <ele>115.80000305176</ele>
        <time>2021-10-15T10:46:20.000Z</time>
      </trkpt>
      <trkpt lat="48.1531" lon="-2.66023">
        <ele>115.59999847412</ele>
        <time>2021-10-15T10:46:21.000Z</time>
      </trkpt>
      <trkpt lat="48.15314" lon="-2.66018">
        <ele>115.40000152588</ele>
        <time>2021-10-15T10:46:22.000Z</time>
      </trkpt>
      <trkpt lat="48.15318" lon="-2.66013">
        <ele>115.40000152588</ele>
        <time>2021-10-15T10:46:23.000Z</time>
      </trkpt>
      <trkpt lat="48.15322" lon="-2.66009">
        <ele>115.19999694824</ele>
        <time>2021-10-15T10:46:24.000Z</time>
      </trkpt>
      <trkpt lat="48.15326" lon="-2.66006">
        <ele>115</ele>
        <time>2021-10-15T10:46:25.000Z</time>
      </trkpt>
      <trkpt lat="48.1533" lon="-2.66003">
        <ele>114.80000305176</ele>
        <time>2021-10-15T10:46:26.000Z</time>
      </trkpt>
      <trkpt lat="48.15334" lon="-2.66">
        <ele>114.40000152588</ele>
        <time>2021-10-15T10:46:27.000Z</time>
      </trkpt>
      <trkpt lat="48.15337" lon="-2.65997">
        <ele>114.19999694824</ele>
        <time>2021-10-15T10:46:28.000Z</time>
      </trkpt>
      <trkpt lat="48.15341" lon="-2.65994">
        <ele>114</ele>
        <time>2021-10-15T10:46:29.000Z</time>
      </trkpt>
      <trkpt lat="48.15344" lon="-2.65992">
        <ele>113.80000305176</ele>
        <time>2021-10-15T10:46:30.000Z</time>
      </trkpt>
      <trkpt lat="48.15348" lon="-2.65989">
        <ele>113.59999847412</ele>
        <time>2021-10-15T10:46:31.000Z</time>
      </trkpt>
      <trkpt lat="48.15351" lon="-2.65986">
        <ele>113.40000152588</ele>
        <time>2021-10-15T10:46:32.000Z</time>
      </trkpt>
      <trkpt lat="48.15355" lon="-2.65983">
        <ele>113.19999694824</ele>
        <time>2021-10-15T10:46:33.000Z</time>
      </trkpt>
      <trkpt lat="48.15358" lon="-2.6598">
        <ele>113.19999694824</ele>
        <time>2021-10-15T10:46:34.000Z</time>
      </trkpt>
      <trkpt lat="48.15362" lon="-2.65978">
        <ele>113</ele>
        <time>2021-10-15T10:46:35.000Z</time>
      </trkpt>
      <trkpt lat="48.15366" lon="-2.65976">
        <ele>113</ele>
        <time>2021-10-15T10:46:36.000Z</time>
      </trkpt>
      <trkpt lat="48.1537" lon="-2.65974">
        <ele>113</ele>
        <time>2021-10-15T10:46:37.000Z</time>
      </trkpt>
      <trkpt lat="48.15374" lon="-2.65972">
        <ele>112.80000305176</ele>
        <time>2021-10-15T10:46:38.000Z</time>
      </trkpt>
      <trkpt lat="48.15378" lon="-2.65971">
        <ele>112.80000305176</ele>
        <time>2021-10-15T10:46:39.000Z</time>
      </trkpt>
      <trkpt lat="48.15383" lon="-2.65969">
        <ele>112.80000305176</ele>
        <time>2021-10-15T10:46:40.000Z</time>
      </trkpt>
      <trkpt lat="48.15389" lon="-2.65968">
        <ele>112.59999847412</ele>
        <time>2021-10-15T10:46:41.000Z</time>
      </trkpt>
      <trkpt lat="48.15394" lon="-2.65967">
        <ele>112.59999847412</ele>
        <time>2021-10-15T10:46:42.000Z</time>
      </trkpt>
      <trkpt lat="48.154" lon="-2.65965">
        <ele>112.59999847412</ele>
        <time>2021-10-15T10:46:43.000Z</time>
      </trkpt>
      <trkpt lat="48.15406" lon="-2.65964">
        <ele>112.59999847412</ele>
        <time>2021-10-15T10:46:44.000Z</time>
      </trkpt>
      <trkpt lat="48.15411" lon="-2.65963">
        <ele>112.40000152588</ele>
        <time>2021-10-15T10:46:45.000Z</time>
      </trkpt>
      <trkpt lat="48.15416" lon="-2.65962">
        <ele>112.40000152588</ele>
        <time>2021-10-15T10:46:46.000Z</time>
      </trkpt>
      <trkpt lat="48.15421" lon="-2.65961">
        <ele>112.40000152588</ele>
        <time>2021-10-15T10:46:47.000Z</time>
      </trkpt>
      <trkpt lat="48.15426" lon="-2.6596">
        <ele>112.40000152588</ele>
        <time>2021-10-15T10:46:48.000Z</time>
      </trkpt>
      <trkpt lat="48.15432" lon="-2.65959">
        <ele>112.40000152588</ele>
        <time>2021-10-15T10:46:49.000Z</time>
      </trkpt>
      <trkpt lat="48.15437" lon="-2.65958">
        <ele>112.40000152588</ele>
        <time>2021-10-15T10:46:50.000Z</time>
      </trkpt>
      <trkpt lat="48.15442" lon="-2.65958">
        <ele>112.59999847412</ele>
        <time>2021-10-15T10:46:51.000Z</time>
      </trkpt>
      <trkpt lat="48.15447" lon="-2.65957">
        <ele>112.80000305176</ele>
        <time>2021-10-15T10:46:52.000Z</time>
      </trkpt>
      <trkpt lat="48.15452" lon="-2.65957">
        <ele>113</ele>
        <time>2021-10-15T10:46:53.000Z</time>
      </trkpt>
      <trkpt lat="48.15458" lon="-2.65956">
        <ele>113</ele>
        <time>2021-10-15T10:46:54.000Z</time>
      </trkpt>
      <trkpt lat="48.15464" lon="-2.65955">
        <ele>112.80000305176</ele>
        <time>2021-10-15T10:46:55.000Z</time>
      </trkpt>
      <trkpt lat="48.15471" lon="-2.65954">
        <ele>112.40000152588</ele>
        <time>2021-10-15T10:46:56.000Z</time>
      </trkpt>
      <trkpt lat="48.15477" lon="-2.65954">
        <ele>112</ele>
        <time>2021-10-15T10:46:57.000Z</time>
      </trkpt>
      <trkpt lat="48.15484" lon="-2.65953">
        <ele>111.40000152588</ele>
        <time>2021-10-15T10:46:58.000Z</time>
      </trkpt>
      <trkpt lat="48.1549" lon="-2.65952">
        <ele>111</ele>
        <time>2021-10-15T10:46:59.000Z</time>
      </trkpt>
      <trkpt lat="48.15496" lon="-2.65951">
        <ele>110.59999847412</ele>
        <time>2021-10-15T10:47:00.000Z</time>
      </trkpt>
      <trkpt lat="48.15503" lon="-2.6595">
        <ele>110.19999694824</ele>
        <time>2021-10-15T10:47:01.000Z</time>
      </trkpt>
      <trkpt lat="48.15509" lon="-2.65949">
        <ele>109.59999847412</ele>
        <time>2021-10-15T10:47:02.000Z</time>
      </trkpt>
      <trkpt lat="48.15515" lon="-2.65949">
        <ele>109.19999694824</ele>
        <time>2021-10-15T10:47:03.000Z</time>
      </trkpt>
      <trkpt lat="48.15522" lon="-2.65948">
        <ele>109.19999694824</ele>
        <time>2021-10-15T10:47:04.000Z</time>
      </trkpt>
      <trkpt lat="48.15528" lon="-2.65947">
        <ele>109.59999847412</ele>
        <time>2021-10-15T10:47:05.000Z</time>
      </trkpt>
      <trkpt lat="48.15533" lon="-2.65945">
        <ele>109.80000305176</ele>
        <time>2021-10-15T10:47:06.000Z</time>
      </trkpt>
      <trkpt lat="48.15539" lon="-2.65944">
        <ele>110.19999694824</ele>
        <time>2021-10-15T10:47:07.000Z</time>
      </trkpt>
      <trkpt lat="48.15545" lon="-2.65943">
        <ele>110.40000152588</ele>
        <time>2021-10-15T10:47:08.000Z</time>
      </trkpt>
      <trkpt lat="48.1555" lon="-2.65941">
        <ele>111</ele>
        <time>2021-10-15T10:47:09.000Z</time>
      </trkpt>
      <trkpt lat="48.15556" lon="-2.65938">
        <ele>111.40000152588</ele>
        <time>2021-10-15T10:47:10.000Z</time>
      </trkpt>
      <trkpt lat="48.15561" lon="-2.65936">
        <ele>111.59999847412</ele>
        <time>2021-10-15T10:47:11.000Z</time>
      </trkpt>
      <trkpt lat="48.15567" lon="-2.65933">
        <ele>112</ele>
        <time>2021-10-15T10:47:12.000Z</time>
      </trkpt>
      <trkpt lat="48.15572" lon="-2.65931">
        <ele>112.19999694824</ele>
        <time>2021-10-15T10:47:13.000Z</time>
      </trkpt>
      <trkpt lat="48.15577" lon="-2.65928">
        <ele>112.40000152588</ele>
        <time>2021-10-15T10:47:14.000Z</time>
      </trkpt>
      <trkpt lat="48.15582" lon="-2.65926">
        <ele>112.40000152588</ele>
        <time>2021-10-15T10:47:15.000Z</time>
      </trkpt>
      <trkpt lat="48.15587" lon="-2.65923">
        <ele>112.59999847412</ele>
        <time>2021-10-15T10:47:16.000Z</time>
      </trkpt>
      <trkpt lat="48.15591" lon="-2.6592">
        <ele>112.59999847412</ele>
        <time>2021-10-15T10:47:17.000Z</time>
      </trkpt>
      <trkpt lat="48.15596" lon="-2.65917">
        <ele>112.59999847412</ele>
        <time>2021-10-15T10:47:18.000Z</time>
      </trkpt>
      <trkpt lat="48.156" lon="-2.65915">
        <ele>112.80000305176</ele>
        <time>2021-10-15T10:47:19.000Z</time>
      </trkpt>
      <trkpt lat="48.15605" lon="-2.65912">
        <ele>112.59999847412</ele>
        <time>2021-10-15T10:47:20.000Z</time>
      </trkpt>
      <trkpt lat="48.1561" lon="-2.65909">
        <ele>112.19999694824</ele>
        <time>2021-10-15T10:47:21.000Z</time>
      </trkpt>
      <trkpt lat="48.15615" lon="-2.65906">
        <ele>112</ele>
        <time>2021-10-15T10:47:22.000Z</time>
      </trkpt>
      <trkpt lat="48.15619" lon="-2.65901">
        <ele>111.59999847412</ele>
        <time>2021-10-15T10:47:23.000Z</time>
      </trkpt>
      <trkpt lat="48.15624" lon="-2.65897">
        <ele>111.40000152588</ele>
        <time>2021-10-15T10:47:24.000Z</time>
      </trkpt>
      <trkpt lat="48.15628" lon="-2.65893">
        <ele>111</ele>
        <time>2021-10-15T10:47:25.000Z</time>
      </trkpt>
      <trkpt lat="48.15633" lon="-2.65887">
        <ele>110.80000305176</ele>
        <time>2021-10-15T10:47:26.000Z</time>
      </trkpt>
      <trkpt lat="48.15638" lon="-2.65881">
        <ele>110.59999847412</ele>
        <time>2021-10-15T10:47:27.000Z</time>
      </trkpt>
      <trkpt lat="48.15643" lon="-2.65875">
        <ele>110.40000152588</ele>
        <time>2021-10-15T10:47:28.000Z</time>
      </trkpt>
      <trkpt lat="48.15648" lon="-2.65869">
        <ele>110.19999694824</ele>
        <time>2021-10-15T10:47:29.000Z</time>
      </trkpt>
      <trkpt lat="48.15653" lon="-2.65863">
        <ele>109.80000305176</ele>
        <time>2021-10-15T10:47:30.000Z</time>
      </trkpt>
      <trkpt lat="48.15657" lon="-2.65856">
        <ele>109.59999847412</ele>
        <time>2021-10-15T10:47:31.000Z</time>
      </trkpt>
      <trkpt lat="48.15662" lon="-2.6585">
        <ele>109.40000152588</ele>
        <time>2021-10-15T10:47:32.000Z</time>
      </trkpt>
      <trkpt lat="48.15666" lon="-2.65844">
        <ele>109.19999694824</ele>
        <time>2021-10-15T10:47:33.000Z</time>
      </trkpt>
      <trkpt lat="48.1567" lon="-2.65838">
        <ele>109</ele>
        <time>2021-10-15T10:47:34.000Z</time>
      </trkpt>
      <trkpt lat="48.15674" lon="-2.65831">
        <ele>108.80000305176</ele>
        <time>2021-10-15T10:47:35.000Z</time>
      </trkpt>
      <trkpt lat="48.15678" lon="-2.65824">
        <ele>108.59999847412</ele>
        <time>2021-10-15T10:47:36.000Z</time>
      </trkpt>
      <trkpt lat="48.15682" lon="-2.65817">
        <ele>108.19999694824</ele>
        <time>2021-10-15T10:47:37.000Z</time>
      </trkpt>
      <trkpt lat="48.15685" lon="-2.65811">
        <ele>108</ele>
        <time>2021-10-15T10:47:38.000Z</time>
      </trkpt>
      <trkpt lat="48.15688" lon="-2.65805">
        <ele>108</ele>
        <time>2021-10-15T10:47:39.000Z</time>
      </trkpt>
      <trkpt lat="48.15691" lon="-2.65799">
        <ele>107.80000305176</ele>
        <time>2021-10-15T10:47:40.000Z</time>
      </trkpt>
      <trkpt lat="48.15694" lon="-2.65792">
        <ele>107.59999847412</ele>
        <time>2021-10-15T10:47:41.000Z</time>
      </trkpt>
      <trkpt lat="48.15697" lon="-2.65786">
        <ele>107.59999847412</ele>
        <time>2021-10-15T10:47:42.000Z</time>
      </trkpt>
      <trkpt lat="48.15699" lon="-2.65779">
        <ele>107.40000152588</ele>
        <time>2021-10-15T10:47:43.000Z</time>
      </trkpt>
      <trkpt lat="48.15701" lon="-2.65772">
        <ele>107.19999694824</ele>
        <time>2021-10-15T10:47:44.000Z</time>
      </trkpt>
      <trkpt lat="48.15704" lon="-2.65764">
        <ele>107</ele>
        <time>2021-10-15T10:47:45.000Z</time>
      </trkpt>
      <trkpt lat="48.15706" lon="-2.65756">
        <ele>107</ele>
        <time>2021-10-15T10:47:46.000Z</time>
      </trkpt>
      <trkpt lat="48.15709" lon="-2.65749">
        <ele>107</ele>
        <time>2021-10-15T10:47:47.000Z</time>
      </trkpt>
      <trkpt lat="48.15711" lon="-2.6574">
        <ele>107</ele>
        <time>2021-10-15T10:47:48.000Z</time>
      </trkpt>
      <trkpt lat="48.15713" lon="-2.65732">
        <ele>107</ele>
        <time>2021-10-15T10:47:49.000Z</time>
      </trkpt>
      <trkpt lat="48.15716" lon="-2.65722">
        <ele>107.19999694824</ele>
        <time>2021-10-15T10:47:50.000Z</time>
      </trkpt>
      <trkpt lat="48.15717" lon="-2.65714">
        <ele>107.19999694824</ele>
        <time>2021-10-15T10:47:51.000Z</time>
      </trkpt>
      <trkpt lat="48.15719" lon="-2.65705">
        <ele>107.19999694824</ele>
        <time>2021-10-15T10:47:52.000Z</time>
      </trkpt>
      <trkpt lat="48.15721" lon="-2.65697">
        <ele>107.19999694824</ele>
        <time>2021-10-15T10:47:53.000Z</time>
      </trkpt>
      <trkpt lat="48.15722" lon="-2.65689">
        <ele>107</ele>
        <time>2021-10-15T10:47:54.000Z</time>
      </trkpt>
      <trkpt lat="48.15724" lon="-2.65681">
        <ele>106.80000305176</ele>
        <time>2021-10-15T10:47:55.000Z</time>
      </trkpt>
      <trkpt lat="48.15725" lon="-2.65672">
        <ele>106.59999847412</ele>
        <time>2021-10-15T10:47:56.000Z</time>
      </trkpt>
      <trkpt lat="48.15726" lon="-2.65665">
        <ele>106.19999694824</ele>
        <time>2021-10-15T10:47:57.000Z</time>
      </trkpt>
      <trkpt lat="48.15727" lon="-2.65658">
        <ele>106</ele>
        <time>2021-10-15T10:47:58.000Z</time>
      </trkpt>
      <trkpt lat="48.15727" lon="-2.65651">
        <ele>105.80000305176</ele>
        <time>2021-10-15T10:47:59.000Z</time>
      </trkpt>
      <trkpt lat="48.15728" lon="-2.65644">
        <ele>105.59999847412</ele>
        <time>2021-10-15T10:48:00.000Z</time>
      </trkpt>
      <trkpt lat="48.15728" lon="-2.65636">
        <ele>105.19999694824</ele>
        <time>2021-10-15T10:48:01.000Z</time>
      </trkpt>
      <trkpt lat="48.15729" lon="-2.65628">
        <ele>105</ele>
        <time>2021-10-15T10:48:02.000Z</time>
      </trkpt>
      <trkpt lat="48.15729" lon="-2.6562">
        <ele>104.80000305176</ele>
        <time>2021-10-15T10:48:03.000Z</time>
      </trkpt>
      <trkpt lat="48.15729" lon="-2.65612">
        <ele>104.59999847412</ele>
        <time>2021-10-15T10:48:04.000Z</time>
      </trkpt>
      <trkpt lat="48.1573" lon="-2.65603">
        <ele>104.59999847412</ele>
        <time>2021-10-15T10:48:05.000Z</time>
      </trkpt>
      <trkpt lat="48.1573" lon="-2.65595">
        <ele>104.40000152588</ele>
        <time>2021-10-15T10:48:06.000Z</time>
      </trkpt>
      <trkpt lat="48.1573" lon="-2.65587">
        <ele>104.19999694824</ele>
        <time>2021-10-15T10:48:07.000Z</time>
      </trkpt>
      <trkpt lat="48.15729" lon="-2.65579">
        <ele>103.80000305176</ele>
        <time>2021-10-15T10:48:08.000Z</time>
      </trkpt>
      <trkpt lat="48.1573" lon="-2.6557">
        <ele>103.59999847412</ele>
        <time>2021-10-15T10:48:09.000Z</time>
      </trkpt>
      <trkpt lat="48.1573" lon="-2.65561">
        <ele>103.59999847412</ele>
        <time>2021-10-15T10:48:10.000Z</time>
      </trkpt>
      <trkpt lat="48.1573" lon="-2.65553">
        <ele>103.59999847412</ele>
        <time>2021-10-15T10:48:11.000Z</time>
      </trkpt>
      <trkpt lat="48.1573" lon="-2.65545">
        <ele>103.59999847412</ele>
        <time>2021-10-15T10:48:12.000Z</time>
      </trkpt>
      <trkpt lat="48.1573" lon="-2.65538">
        <ele>103.40000152588</ele>
        <time>2021-10-15T10:48:13.000Z</time>
      </trkpt>
      <trkpt lat="48.15731" lon="-2.65531">
        <ele>103.19999694824</ele>
        <time>2021-10-15T10:48:14.000Z</time>
      </trkpt>
      <trkpt lat="48.15731" lon="-2.65524">
        <ele>103.40000152588</ele>
        <time>2021-10-15T10:48:15.000Z</time>
      </trkpt>
      <trkpt lat="48.15731" lon="-2.65516">
        <ele>103.40000152588</ele>
        <time>2021-10-15T10:48:16.000Z</time>
      </trkpt>
      <trkpt lat="48.15732" lon="-2.65508">
        <ele>103.40000152588</ele>
        <time>2021-10-15T10:48:17.000Z</time>
      </trkpt>
      <trkpt lat="48.15732" lon="-2.65501">
        <ele>103.40000152588</ele>
        <time>2021-10-15T10:48:18.000Z</time>
      </trkpt>
      <trkpt lat="48.15731" lon="-2.65494">
        <ele>103.80000305176</ele>
        <time>2021-10-15T10:48:19.000Z</time>
      </trkpt>
      <trkpt lat="48.15732" lon="-2.65487">
        <ele>104</ele>
        <time>2021-10-15T10:48:20.000Z</time>
      </trkpt>
      <trkpt lat="48.15732" lon="-2.65481">
        <ele>104.19999694824</ele>
        <time>2021-10-15T10:48:21.000Z</time>
      </trkpt>
      <trkpt lat="48.15733" lon="-2.65475">
        <ele>104.19999694824</ele>
        <time>2021-10-15T10:48:22.000Z</time>
      </trkpt>
      <trkpt lat="48.15733" lon="-2.6547">
        <ele>104.19999694824</ele>
        <time>2021-10-15T10:48:23.000Z</time>
      </trkpt>
      <trkpt lat="48.15733" lon="-2.65466">
        <ele>104.19999694824</ele>
        <time>2021-10-15T10:48:24.000Z</time>
      </trkpt>
      <trkpt lat="48.15734" lon="-2.65463">
        <ele>104.19999694824</ele>
        <time>2021-10-15T10:48:25.000Z</time>
      </trkpt>
      <trkpt lat="48.15733" lon="-2.6546">
        <ele>104.19999694824</ele>
        <time>2021-10-15T10:48:26.000Z</time>
      </trkpt>
      <trkpt lat="48.15733" lon="-2.65457">
        <ele>104.19999694824</ele>
        <time>2021-10-15T10:48:27.000Z</time>
      </trkpt>
      <trkpt lat="48.15733" lon="-2.65454">
        <ele>104.19999694824</ele>
        <time>2021-10-15T10:48:28.000Z</time>
      </trkpt>
      <trkpt lat="48.15733" lon="-2.65451">
        <ele>104.40000152588</ele>
        <time>2021-10-15T10:48:29.000Z</time>
      </trkpt>
      <trkpt lat="48.15733" lon="-2.65447">
        <ele>104.59999847412</ele>
        <time>2021-10-15T10:48:30.000Z</time>
      </trkpt>
      <trkpt lat="48.15734" lon="-2.65443">
        <ele>104.80000305176</ele>
        <time>2021-10-15T10:48:31.000Z</time>
      </trkpt>
      <trkpt lat="48.15734" lon="-2.65439">
        <ele>104.80000305176</ele>
        <time>2021-10-15T10:48:32.000Z</time>
      </trkpt>
      <trkpt lat="48.15734" lon="-2.65435">
        <ele>105</ele>
        <time>2021-10-15T10:48:33.000Z</time>
      </trkpt>
      <trkpt lat="48.15735" lon="-2.6543">
        <ele>105.19999694824</ele>
        <time>2021-10-15T10:48:34.000Z</time>
      </trkpt>
      <trkpt lat="48.15735" lon="-2.65425">
        <ele>105.40000152588</ele>
        <time>2021-10-15T10:48:35.000Z</time>
      </trkpt>
      <trkpt lat="48.15735" lon="-2.6542">
        <ele>105.59999847412</ele>
        <time>2021-10-15T10:48:36.000Z</time>
      </trkpt>
      <trkpt lat="48.15735" lon="-2.65415">
        <ele>105.59999847412</ele>
        <time>2021-10-15T10:48:37.000Z</time>
      </trkpt>
      <trkpt lat="48.15735" lon="-2.6541">
        <ele>105.59999847412</ele>
        <time>2021-10-15T10:48:38.000Z</time>
      </trkpt>
      <trkpt lat="48.15736" lon="-2.65405">
        <ele>105.59999847412</ele>
        <time>2021-10-15T10:48:39.000Z</time>
      </trkpt>
      <trkpt lat="48.15737" lon="-2.654">
        <ele>105.80000305176</ele>
        <time>2021-10-15T10:48:40.000Z</time>
      </trkpt>
      <trkpt lat="48.15738" lon="-2.65395">
        <ele>105.80000305176</ele>
        <time>2021-10-15T10:48:41.000Z</time>
      </trkpt>
      <trkpt lat="48.15739" lon="-2.6539">
        <ele>105.80000305176</ele>
        <time>2021-10-15T10:48:42.000Z</time>
      </trkpt>
      <trkpt lat="48.1574" lon="-2.65385">
        <ele>106</ele>
        <time>2021-10-15T10:48:43.000Z</time>
      </trkpt>
      <trkpt lat="48.15741" lon="-2.65379">
        <ele>106</ele>
        <time>2021-10-15T10:48:44.000Z</time>
      </trkpt>
      <trkpt lat="48.15742" lon="-2.65374">
        <ele>106</ele>
        <time>2021-10-15T10:48:45.000Z</time>
      </trkpt>
      <trkpt lat="48.15744" lon="-2.65368">
        <ele>106</ele>
        <time>2021-10-15T10:48:46.000Z</time>
      </trkpt>
      <trkpt lat="48.15745" lon="-2.65362">
        <ele>105.80000305176</ele>
        <time>2021-10-15T10:48:47.000Z</time>
      </trkpt>
      <trkpt lat="48.15746" lon="-2.65356">
        <ele>105.59999847412</ele>
        <time>2021-10-15T10:48:48.000Z</time>
      </trkpt>
      <trkpt lat="48.15747" lon="-2.6535">
        <ele>105.19999694824</ele>
        <time>2021-10-15T10:48:49.000Z</time>
      </trkpt>
      <trkpt lat="48.15749" lon="-2.65344">
        <ele>104.80000305176</ele>
        <time>2021-10-15T10:48:50.000Z</time>
      </trkpt>
      <trkpt lat="48.15751" lon="-2.65338">
        <ele>104.40000152588</ele>
        <time>2021-10-15T10:48:51.000Z</time>
      </trkpt>
      <trkpt lat="48.15753" lon="-2.65331">
        <ele>104</ele>
        <time>2021-10-15T10:48:52.000Z</time>
      </trkpt>
      <trkpt lat="48.15756" lon="-2.65325">
        <ele>103.59999847412</ele>
        <time>2021-10-15T10:48:53.000Z</time>
      </trkpt>
      <trkpt lat="48.15759" lon="-2.65319">
        <ele>103.19999694824</ele>
        <time>2021-10-15T10:48:54.000Z</time>
      </trkpt>
      <trkpt lat="48.15761" lon="-2.65312">
        <ele>103</ele>
        <time>2021-10-15T10:48:55.000Z</time>
      </trkpt>
      <trkpt lat="48.15765" lon="-2.65306">
        <ele>102.59999847412</ele>
        <time>2021-10-15T10:48:56.000Z</time>
      </trkpt>
      <trkpt lat="48.15767" lon="-2.65299">
        <ele>102.19999694824</ele>
        <time>2021-10-15T10:48:57.000Z</time>
      </trkpt>
      <trkpt lat="48.1577" lon="-2.65293">
        <ele>102</ele>
        <time>2021-10-15T10:48:58.000Z</time>
      </trkpt>
      <trkpt lat="48.15774" lon="-2.65288">
        <ele>102</ele>
        <time>2021-10-15T10:48:59.000Z</time>
      </trkpt>
      <trkpt lat="48.15778" lon="-2.65283">
        <ele>102.19999694824</ele>
        <time>2021-10-15T10:49:00.000Z</time>
      </trkpt>
      <trkpt lat="48.15781" lon="-2.65277">
        <ele>102</ele>
        <time>2021-10-15T10:49:01.000Z</time>
      </trkpt>
      <trkpt lat="48.15784" lon="-2.65272">
        <ele>102</ele>
        <time>2021-10-15T10:49:02.000Z</time>
      </trkpt>
      <trkpt lat="48.15787" lon="-2.65267">
        <ele>102</ele>
        <time>2021-10-15T10:49:03.000Z</time>
      </trkpt>
      <trkpt lat="48.15791" lon="-2.65261">
        <ele>102</ele>
        <time>2021-10-15T10:49:04.000Z</time>
      </trkpt>
      <trkpt lat="48.15794" lon="-2.65256">
        <ele>102</ele>
        <time>2021-10-15T10:49:05.000Z</time>
      </trkpt>
      <trkpt lat="48.15797" lon="-2.65251">
        <ele>101.80000305176</ele>
        <time>2021-10-15T10:49:06.000Z</time>
      </trkpt>
      <trkpt lat="48.158" lon="-2.65245">
        <ele>101.80000305176</ele>
        <time>2021-10-15T10:49:07.000Z</time>
      </trkpt>
      <trkpt lat="48.15802" lon="-2.6524">
        <ele>101.59999847412</ele>
        <time>2021-10-15T10:49:08.000Z</time>
      </trkpt>
      <trkpt lat="48.15805" lon="-2.65235">
        <ele>101.59999847412</ele>
        <time>2021-10-15T10:49:09.000Z</time>
      </trkpt>
      <trkpt lat="48.15808" lon="-2.65227">
        <ele>101.40000152588</ele>
        <time>2021-10-15T10:49:10.000Z</time>
      </trkpt>
      <trkpt lat="48.15811" lon="-2.65221">
        <ele>101.19999694824</ele>
        <time>2021-10-15T10:49:11.000Z</time>
      </trkpt>
      <trkpt lat="48.15814" lon="-2.65215">
        <ele>101.19999694824</ele>
        <time>2021-10-15T10:49:12.000Z</time>
      </trkpt>
      <trkpt lat="48.15818" lon="-2.6521">
        <ele>101.19999694824</ele>
        <time>2021-10-15T10:49:13.000Z</time>
      </trkpt>
      <trkpt lat="48.15821" lon="-2.65204">
        <ele>101.19999694824</ele>
        <time>2021-10-15T10:49:14.000Z</time>
      </trkpt>
      <trkpt lat="48.15825" lon="-2.65196">
        <ele>101</ele>
        <time>2021-10-15T10:49:15.000Z</time>
      </trkpt>
      <trkpt lat="48.15829" lon="-2.65189">
        <ele>100.80000305176</ele>
        <time>2021-10-15T10:49:16.000Z</time>
      </trkpt>
      <trkpt lat="48.15833" lon="-2.65181">
        <ele>100.80000305176</ele>
        <time>2021-10-15T10:49:17.000Z</time>
      </trkpt>
      <trkpt lat="48.15838" lon="-2.65174">
        <ele>100.80000305176</ele>
        <time>2021-10-15T10:49:18.000Z</time>
      </trkpt>
      <trkpt lat="48.15842" lon="-2.65167">
        <ele>101</ele>
        <time>2021-10-15T10:49:19.000Z</time>
      </trkpt>
      <trkpt lat="48.15846" lon="-2.6516">
        <ele>101.19999694824</ele>
        <time>2021-10-15T10:49:20.000Z</time>
      </trkpt>
      <trkpt lat="48.15849" lon="-2.65153">
        <ele>101.19999694824</ele>
        <time>2021-10-15T10:49:21.000Z</time>
      </trkpt>
      <trkpt lat="48.15852" lon="-2.65146">
        <ele>101.19999694824</ele>
        <time>2021-10-15T10:49:22.000Z</time>
      </trkpt>
      <trkpt lat="48.15855" lon="-2.65139">
        <ele>101.19999694824</ele>
        <time>2021-10-15T10:49:23.000Z</time>
      </trkpt>
      <trkpt lat="48.15858" lon="-2.65132">
        <ele>101.19999694824</ele>
        <time>2021-10-15T10:49:24.000Z</time>
      </trkpt>
      <trkpt lat="48.15861" lon="-2.65125">
        <ele>101</ele>
        <time>2021-10-15T10:49:25.000Z</time>
      </trkpt>
      <trkpt lat="48.15863" lon="-2.65119">
        <ele>101</ele>
        <time>2021-10-15T10:49:26.000Z</time>
      </trkpt>
      <trkpt lat="48.15867" lon="-2.65111">
        <ele>100.80000305176</ele>
        <time>2021-10-15T10:49:27.000Z</time>
      </trkpt>
      <trkpt lat="48.15869" lon="-2.65105">
        <ele>100.80000305176</ele>
        <time>2021-10-15T10:49:28.000Z</time>
      </trkpt>
      <trkpt lat="48.15872" lon="-2.65099">
        <ele>100.80000305176</ele>
        <time>2021-10-15T10:49:29.000Z</time>
      </trkpt>
      <trkpt lat="48.15875" lon="-2.65093">
        <ele>100.80000305176</ele>
        <time>2021-10-15T10:49:30.000Z</time>
      </trkpt>
      <trkpt lat="48.15877" lon="-2.65087">
        <ele>100.59999847412</ele>
        <time>2021-10-15T10:49:31.000Z</time>
      </trkpt>
      <trkpt lat="48.15879" lon="-2.65081">
        <ele>100.19999694824</ele>
        <time>2021-10-15T10:49:32.000Z</time>
      </trkpt>
      <trkpt lat="48.15882" lon="-2.65074">
        <ele>99.800003051758</ele>
        <time>2021-10-15T10:49:33.000Z</time>
      </trkpt>
      <trkpt lat="48.15885" lon="-2.65067">
        <ele>99.199996948242</ele>
        <time>2021-10-15T10:49:34.000Z</time>
      </trkpt>
      <trkpt lat="48.15887" lon="-2.6506">
        <ele>98.800003051758</ele>
        <time>2021-10-15T10:49:35.000Z</time>
      </trkpt>
      <trkpt lat="48.15889" lon="-2.65053">
        <ele>98.400001525879</ele>
        <time>2021-10-15T10:49:36.000Z</time>
      </trkpt>
      <trkpt lat="48.15892" lon="-2.65047">
        <ele>98</ele>
        <time>2021-10-15T10:49:37.000Z</time>
      </trkpt>
      <trkpt lat="48.15895" lon="-2.65041">
        <ele>97.599998474121</ele>
        <time>2021-10-15T10:49:38.000Z</time>
      </trkpt>
      <trkpt lat="48.15897" lon="-2.65034">
        <ele>97.199996948242</ele>
        <time>2021-10-15T10:49:39.000Z</time>
      </trkpt>
      <trkpt lat="48.159" lon="-2.65027">
        <ele>97.199996948242</ele>
        <time>2021-10-15T10:49:40.000Z</time>
      </trkpt>
      <trkpt lat="48.15903" lon="-2.6502">
        <ele>97.599998474121</ele>
        <time>2021-10-15T10:49:41.000Z</time>
      </trkpt>
      <trkpt lat="48.15906" lon="-2.65013">
        <ele>97.800003051758</ele>
        <time>2021-10-15T10:49:42.000Z</time>
      </trkpt>
      <trkpt lat="48.15909" lon="-2.65007">
        <ele>98.400001525879</ele>
        <time>2021-10-15T10:49:43.000Z</time>
      </trkpt>
      <trkpt lat="48.15913" lon="-2.64999">
        <ele>98.800003051758</ele>
        <time>2021-10-15T10:49:44.000Z</time>
      </trkpt>
      <trkpt lat="48.15916" lon="-2.64992">
        <ele>99.199996948242</ele>
        <time>2021-10-15T10:49:45.000Z</time>
      </trkpt>
      <trkpt lat="48.15919" lon="-2.64985">
        <ele>99.400001525879</ele>
        <time>2021-10-15T10:49:46.000Z</time>
      </trkpt>
      <trkpt lat="48.15922" lon="-2.64977">
        <ele>99.800003051758</ele>
        <time>2021-10-15T10:49:47.000Z</time>
      </trkpt>
      <trkpt lat="48.15925" lon="-2.6497">
        <ele>100</ele>
        <time>2021-10-15T10:49:48.000Z</time>
      </trkpt>
      <trkpt lat="48.15928" lon="-2.64962">
        <ele>100.19999694824</ele>
        <time>2021-10-15T10:49:49.000Z</time>
      </trkpt>
      <trkpt lat="48.15932" lon="-2.64954">
        <ele>100.59999847412</ele>
        <time>2021-10-15T10:49:50.000Z</time>
      </trkpt>
      <trkpt lat="48.15935" lon="-2.64947">
        <ele>100.80000305176</ele>
        <time>2021-10-15T10:49:51.000Z</time>
      </trkpt>
      <trkpt lat="48.15939" lon="-2.64939">
        <ele>100.59999847412</ele>
        <time>2021-10-15T10:49:52.000Z</time>
      </trkpt>
      <trkpt lat="48.15942" lon="-2.64931">
        <ele>100.59999847412</ele>
        <time>2021-10-15T10:49:53.000Z</time>
      </trkpt>
      <trkpt lat="48.15946" lon="-2.64924">
        <ele>100.59999847412</ele>
        <time>2021-10-15T10:49:54.000Z</time>
      </trkpt>
      <trkpt lat="48.15949" lon="-2.64917">
        <ele>100.59999847412</ele>
        <time>2021-10-15T10:49:55.000Z</time>
      </trkpt>
      <trkpt lat="48.15953" lon="-2.64911">
        <ele>101</ele>
        <time>2021-10-15T10:49:56.000Z</time>
      </trkpt>
      <trkpt lat="48.15957" lon="-2.64905">
        <ele>101</ele>
        <time>2021-10-15T10:49:57.000Z</time>
      </trkpt>
      <trkpt lat="48.15961" lon="-2.64899">
        <ele>101.19999694824</ele>
        <time>2021-10-15T10:49:58.000Z</time>
      </trkpt>
      <trkpt lat="48.15965" lon="-2.64893">
        <ele>101.40000152588</ele>
        <time>2021-10-15T10:49:59.000Z</time>
      </trkpt>
      <trkpt lat="48.15969" lon="-2.64887">
        <ele>101.19999694824</ele>
        <time>2021-10-15T10:50:00.000Z</time>
      </trkpt>
      <trkpt lat="48.15973" lon="-2.64882">
        <ele>101.19999694824</ele>
        <time>2021-10-15T10:50:01.000Z</time>
      </trkpt>
      <trkpt lat="48.15976" lon="-2.64877">
        <ele>101.19999694824</ele>
        <time>2021-10-15T10:50:02.000Z</time>
      </trkpt>
      <trkpt lat="48.15981" lon="-2.64872">
        <ele>101.40000152588</ele>
        <time>2021-10-15T10:50:03.000Z</time>
      </trkpt>
      <trkpt lat="48.15985" lon="-2.64867">
        <ele>101.40000152588</ele>
        <time>2021-10-15T10:50:04.000Z</time>
      </trkpt>
      <trkpt lat="48.15989" lon="-2.64863">
        <ele>101.19999694824</ele>
        <time>2021-10-15T10:50:05.000Z</time>
      </trkpt>
      <trkpt lat="48.15993" lon="-2.64859">
        <ele>100.80000305176</ele>
        <time>2021-10-15T10:50:06.000Z</time>
      </trkpt>
      <trkpt lat="48.15997" lon="-2.64854">
        <ele>100.19999694824</ele>
        <time>2021-10-15T10:50:07.000Z</time>
      </trkpt>
      <trkpt lat="48.16001" lon="-2.6485">
        <ele>99.800003051758</ele>
        <time>2021-10-15T10:50:08.000Z</time>
      </trkpt>
      <trkpt lat="48.16006" lon="-2.64846">
        <ele>99.599998474121</ele>
        <time>2021-10-15T10:50:09.000Z</time>
      </trkpt>
      <trkpt lat="48.16011" lon="-2.64842">
        <ele>99.199996948242</ele>
        <time>2021-10-15T10:50:10.000Z</time>
      </trkpt>
      <trkpt lat="48.16017" lon="-2.64838">
        <ele>99</ele>
        <time>2021-10-15T10:50:11.000Z</time>
      </trkpt>
      <trkpt lat="48.16022" lon="-2.64834">
        <ele>98.599998474121</ele>
        <time>2021-10-15T10:50:12.000Z</time>
      </trkpt>
      <trkpt lat="48.16027" lon="-2.6483">
        <ele>98.599998474121</ele>
        <time>2021-10-15T10:50:13.000Z</time>
      </trkpt>
      <trkpt lat="48.16031" lon="-2.64826">
        <ele>98.599998474121</ele>
        <time>2021-10-15T10:50:14.000Z</time>
      </trkpt>
      <trkpt lat="48.16036" lon="-2.64823">
        <ele>98.400001525879</ele>
        <time>2021-10-15T10:50:15.000Z</time>
      </trkpt>
      <trkpt lat="48.16041" lon="-2.64818">
        <ele>98.199996948242</ele>
        <time>2021-10-15T10:50:16.000Z</time>
      </trkpt>
      <trkpt lat="48.16045" lon="-2.64814">
        <ele>98</ele>
        <time>2021-10-15T10:50:17.000Z</time>
      </trkpt>
      <trkpt lat="48.1605" lon="-2.64811">
        <ele>97.800003051758</ele>
        <time>2021-10-15T10:50:18.000Z</time>
      </trkpt>
      <trkpt lat="48.16055" lon="-2.64807">
        <ele>97.800003051758</ele>
        <time>2021-10-15T10:50:19.000Z</time>
      </trkpt>
      <trkpt lat="48.1606" lon="-2.64804">
        <ele>98</ele>
        <time>2021-10-15T10:50:20.000Z</time>
      </trkpt>
      <trkpt lat="48.16065" lon="-2.64802">
        <ele>98.400001525879</ele>
        <time>2021-10-15T10:50:21.000Z</time>
      </trkpt>
      <trkpt lat="48.1607" lon="-2.64799">
        <ele>98.599998474121</ele>
        <time>2021-10-15T10:50:22.000Z</time>
      </trkpt>
      <trkpt lat="48.16075" lon="-2.64797">
        <ele>98.800003051758</ele>
        <time>2021-10-15T10:50:23.000Z</time>
      </trkpt>
      <trkpt lat="48.1608" lon="-2.64794">
        <ele>98.599998474121</ele>
        <time>2021-10-15T10:50:24.000Z</time>
      </trkpt>
      <trkpt lat="48.16085" lon="-2.6479">
        <ele>98.400001525879</ele>
        <time>2021-10-15T10:50:25.000Z</time>
      </trkpt>
      <trkpt lat="48.1609" lon="-2.64787">
        <ele>98.199996948242</ele>
        <time>2021-10-15T10:50:26.000Z</time>
      </trkpt>
      <trkpt lat="48.16095" lon="-2.64785">
        <ele>98</ele>
        <time>2021-10-15T10:50:27.000Z</time>
      </trkpt>
      <trkpt lat="48.16101" lon="-2.64782">
        <ele>98</ele>
        <time>2021-10-15T10:50:28.000Z</time>
      </trkpt>
      <trkpt lat="48.16106" lon="-2.6478">
        <ele>98</ele>
        <time>2021-10-15T10:50:29.000Z</time>
      </trkpt>
      <trkpt lat="48.16112" lon="-2.64778">
        <ele>98.199996948242</ele>
        <time>2021-10-15T10:50:30.000Z</time>
      </trkpt>
      <trkpt lat="48.16119" lon="-2.64774">
        <ele>98.199996948242</ele>
        <time>2021-10-15T10:50:31.000Z</time>
      </trkpt>
      <trkpt lat="48.16124" lon="-2.64772">
        <ele>98.400001525879</ele>
        <time>2021-10-15T10:50:32.000Z</time>
      </trkpt>
      <trkpt lat="48.16129" lon="-2.6477">
        <ele>98.400001525879</ele>
        <time>2021-10-15T10:50:33.000Z</time>
      </trkpt>
      <trkpt lat="48.16135" lon="-2.64766">
        <ele>98.199996948242</ele>
        <time>2021-10-15T10:50:34.000Z</time>
      </trkpt>
      <trkpt lat="48.1614" lon="-2.64764">
        <ele>98.199996948242</ele>
        <time>2021-10-15T10:50:35.000Z</time>
      </trkpt>
      <trkpt lat="48.16144" lon="-2.64762">
        <ele>98.400001525879</ele>
        <time>2021-10-15T10:50:36.000Z</time>
      </trkpt>
      <trkpt lat="48.16149" lon="-2.64761">
        <ele>98.599998474121</ele>
        <time>2021-10-15T10:50:37.000Z</time>
      </trkpt>
      <trkpt lat="48.16155" lon="-2.6476">
        <ele>98.800003051758</ele>
        <time>2021-10-15T10:50:38.000Z</time>
      </trkpt>
      <trkpt lat="48.1616" lon="-2.64758">
        <ele>99.199996948242</ele>
        <time>2021-10-15T10:50:39.000Z</time>
      </trkpt>
      <trkpt lat="48.16165" lon="-2.64756">
        <ele>99.400001525879</ele>
        <time>2021-10-15T10:50:40.000Z</time>
      </trkpt>
      <trkpt lat="48.16169" lon="-2.64753">
        <ele>99.400001525879</ele>
        <time>2021-10-15T10:50:41.000Z</time>
      </trkpt>
      <trkpt lat="48.16173" lon="-2.6475">
        <ele>99.599998474121</ele>
        <time>2021-10-15T10:50:42.000Z</time>
      </trkpt>
      <trkpt lat="48.16177" lon="-2.64746">
        <ele>99.599998474121</ele>
        <time>2021-10-15T10:50:43.000Z</time>
      </trkpt>
      <trkpt lat="48.16181" lon="-2.64742">
        <ele>99.599998474121</ele>
        <time>2021-10-15T10:50:44.000Z</time>
      </trkpt>
      <trkpt lat="48.16186" lon="-2.64738">
        <ele>99.800003051758</ele>
        <time>2021-10-15T10:50:45.000Z</time>
      </trkpt>
      <trkpt lat="48.1619" lon="-2.64735">
        <ele>100</ele>
        <time>2021-10-15T10:50:46.000Z</time>
      </trkpt>
      <trkpt lat="48.16194" lon="-2.64731">
        <ele>100.40000152588</ele>
        <time>2021-10-15T10:50:47.000Z</time>
      </trkpt>
      <trkpt lat="48.16199" lon="-2.64727">
        <ele>100.59999847412</ele>
        <time>2021-10-15T10:50:48.000Z</time>
      </trkpt>
      <trkpt lat="48.16203" lon="-2.64723">
        <ele>100.59999847412</ele>
        <time>2021-10-15T10:50:49.000Z</time>
      </trkpt>
      <trkpt lat="48.16207" lon="-2.64718">
        <ele>100.19999694824</ele>
        <time>2021-10-15T10:50:50.000Z</time>
      </trkpt>
      <trkpt lat="48.16211" lon="-2.64714">
        <ele>100</ele>
        <time>2021-10-15T10:50:51.000Z</time>
      </trkpt>
      <trkpt lat="48.16215" lon="-2.64711">
        <ele>100</ele>
        <time>2021-10-15T10:50:52.000Z</time>
      </trkpt>
      <trkpt lat="48.16218" lon="-2.64708">
        <ele>100</ele>
        <time>2021-10-15T10:50:53.000Z</time>
      </trkpt>
      <trkpt lat="48.16222" lon="-2.64705">
        <ele>100</ele>
        <time>2021-10-15T10:50:54.000Z</time>
      </trkpt>
      <trkpt lat="48.16225" lon="-2.64702">
        <ele>100</ele>
        <time>2021-10-15T10:50:55.000Z</time>
      </trkpt>
      <trkpt lat="48.16229" lon="-2.64699">
        <ele>100</ele>
        <time>2021-10-15T10:50:56.000Z</time>
      </trkpt>
      <trkpt lat="48.16232" lon="-2.64695">
        <ele>100</ele>
        <time>2021-10-15T10:50:57.000Z</time>
      </trkpt>
      <trkpt lat="48.16235" lon="-2.6469">
        <ele>99.800003051758</ele>
        <time>2021-10-15T10:50:58.000Z</time>
      </trkpt>
      <trkpt lat="48.16238" lon="-2.64685">
        <ele>99.599998474121</ele>
        <time>2021-10-15T10:50:59.000Z</time>
      </trkpt>
      <trkpt lat="48.16242" lon="-2.64681">
        <ele>99.599998474121</ele>
        <time>2021-10-15T10:51:00.000Z</time>
      </trkpt>
      <trkpt lat="48.16246" lon="-2.64677">
        <ele>99.199996948242</ele>
        <time>2021-10-15T10:51:01.000Z</time>
      </trkpt>
      <trkpt lat="48.1625" lon="-2.64673">
        <ele>99</ele>
        <time>2021-10-15T10:51:02.000Z</time>
      </trkpt>
      <trkpt lat="48.16253" lon="-2.64669">
        <ele>98.599998474121</ele>
        <time>2021-10-15T10:51:03.000Z</time>
      </trkpt>
      <trkpt lat="48.16257" lon="-2.64664">
        <ele>98</ele>
        <time>2021-10-15T10:51:04.000Z</time>
      </trkpt>
      <trkpt lat="48.1626" lon="-2.6466">
        <ele>97.400001525879</ele>
        <time>2021-10-15T10:51:05.000Z</time>
      </trkpt>
      <trkpt lat="48.16263" lon="-2.64655">
        <ele>96.800003051758</ele>
        <time>2021-10-15T10:51:06.000Z</time>
      </trkpt>
      <trkpt lat="48.16267" lon="-2.64649">
        <ele>96</ele>
        <time>2021-10-15T10:51:07.000Z</time>
      </trkpt>
      <trkpt lat="48.16271" lon="-2.64643">
        <ele>95.199996948242</ele>
        <time>2021-10-15T10:51:08.000Z</time>
      </trkpt>
      <trkpt lat="48.16275" lon="-2.64637">
        <ele>94.800003051758</ele>
        <time>2021-10-15T10:51:09.000Z</time>
      </trkpt>
      <trkpt lat="48.16278" lon="-2.64631">
        <ele>94.400001525879</ele>
        <time>2021-10-15T10:51:10.000Z</time>
      </trkpt>
      <trkpt lat="48.16281" lon="-2.64626">
        <ele>94.199996948242</ele>
        <time>2021-10-15T10:51:11.000Z</time>
      </trkpt>
      <trkpt lat="48.16284" lon="-2.64621">
        <ele>93.800003051758</ele>
        <time>2021-10-15T10:51:12.000Z</time>
      </trkpt>
      <trkpt lat="48.16288" lon="-2.64616">
        <ele>93.400001525879</ele>
        <time>2021-10-15T10:51:13.000Z</time>
      </trkpt>
      <trkpt lat="48.16291" lon="-2.64609">
        <ele>93.199996948242</ele>
        <time>2021-10-15T10:51:14.000Z</time>
      </trkpt>
      <trkpt lat="48.16294" lon="-2.64604">
        <ele>93</ele>
        <time>2021-10-15T10:51:15.000Z</time>
      </trkpt>
      <trkpt lat="48.16297" lon="-2.64598">
        <ele>92.800003051758</ele>
        <time>2021-10-15T10:51:16.000Z</time>
      </trkpt>
      <trkpt lat="48.163" lon="-2.64593">
        <ele>92.599998474121</ele>
        <time>2021-10-15T10:51:17.000Z</time>
      </trkpt>
      <trkpt lat="48.16302" lon="-2.64587">
        <ele>92.400001525879</ele>
        <time>2021-10-15T10:51:18.000Z</time>
      </trkpt>
      <trkpt lat="48.16304" lon="-2.64582">
        <ele>92.400001525879</ele>
        <time>2021-10-15T10:51:19.000Z</time>
      </trkpt>
      <trkpt lat="48.16307" lon="-2.64577">
        <ele>92.400001525879</ele>
        <time>2021-10-15T10:51:20.000Z</time>
      </trkpt>
      <trkpt lat="48.16309" lon="-2.64571">
        <ele>92.199996948242</ele>
        <time>2021-10-15T10:51:21.000Z</time>
      </trkpt>
      <trkpt lat="48.16312" lon="-2.64566">
        <ele>92</ele>
        <time>2021-10-15T10:51:22.000Z</time>
      </trkpt>
      <trkpt lat="48.16314" lon="-2.64559">
        <ele>92</ele>
        <time>2021-10-15T10:51:23.000Z</time>
      </trkpt>
      <trkpt lat="48.16317" lon="-2.64553">
        <ele>92</ele>
        <time>2021-10-15T10:51:24.000Z</time>
      </trkpt>
      <trkpt lat="48.1632" lon="-2.64547">
        <ele>92</ele>
        <time>2021-10-15T10:51:25.000Z</time>
      </trkpt>
      <trkpt lat="48.16322" lon="-2.64541">
        <ele>92.199996948242</ele>
        <time>2021-10-15T10:51:26.000Z</time>
      </trkpt>
      <trkpt lat="48.16325" lon="-2.64536">
        <ele>92.199996948242</ele>
        <time>2021-10-15T10:51:27.000Z</time>
      </trkpt>
      <trkpt lat="48.16328" lon="-2.6453">
        <ele>92.400001525879</ele>
        <time>2021-10-15T10:51:28.000Z</time>
      </trkpt>
      <trkpt lat="48.1633" lon="-2.64524">
        <ele>92.599998474121</ele>
        <time>2021-10-15T10:51:29.000Z</time>
      </trkpt>
      <trkpt lat="48.16334" lon="-2.64517">
        <ele>92.800003051758</ele>
        <time>2021-10-15T10:51:30.000Z</time>
      </trkpt>
      <trkpt lat="48.16336" lon="-2.6451">
        <ele>93</ele>
        <time>2021-10-15T10:51:31.000Z</time>
      </trkpt>
      <trkpt lat="48.16341" lon="-2.64502">
        <ele>93.199996948242</ele>
        <time>2021-10-15T10:51:32.000Z</time>
      </trkpt>
      <trkpt lat="48.16344" lon="-2.64495">
        <ele>93.199996948242</ele>
        <time>2021-10-15T10:51:33.000Z</time>
      </trkpt>
      <trkpt lat="48.16347" lon="-2.64489">
        <ele>93.199996948242</ele>
        <time>2021-10-15T10:51:34.000Z</time>
      </trkpt>
      <trkpt lat="48.1635" lon="-2.64482">
        <ele>93.199996948242</ele>
        <time>2021-10-15T10:51:35.000Z</time>
      </trkpt>
      <trkpt lat="48.16353" lon="-2.64474">
        <ele>93</ele>
        <time>2021-10-15T10:51:36.000Z</time>
      </trkpt>
      <trkpt lat="48.16356" lon="-2.64467">
        <ele>93.199996948242</ele>
        <time>2021-10-15T10:51:37.000Z</time>
      </trkpt>
      <trkpt lat="48.16359" lon="-2.6446">
        <ele>93.199996948242</ele>
        <time>2021-10-15T10:51:38.000Z</time>
      </trkpt>
      <trkpt lat="48.16362" lon="-2.64453">
        <ele>93.199996948242</ele>
        <time>2021-10-15T10:51:39.000Z</time>
      </trkpt>
      <trkpt lat="48.16366" lon="-2.64446">
        <ele>93.400001525879</ele>
        <time>2021-10-15T10:51:40.000Z</time>
      </trkpt>
      <trkpt lat="48.16369" lon="-2.64439">
        <ele>93.400001525879</ele>
        <time>2021-10-15T10:51:41.000Z</time>
      </trkpt>
      <trkpt lat="48.16372" lon="-2.64432">
        <ele>93.599998474121</ele>
        <time>2021-10-15T10:51:42.000Z</time>
      </trkpt>
      <trkpt lat="48.16374" lon="-2.64425">
        <ele>93.599998474121</ele>
        <time>2021-10-15T10:51:43.000Z</time>
      </trkpt>
      <trkpt lat="48.16377" lon="-2.64419">
        <ele>93.800003051758</ele>
        <time>2021-10-15T10:51:44.000Z</time>
      </trkpt>
      <trkpt lat="48.1638" lon="-2.64412">
        <ele>94</ele>
        <time>2021-10-15T10:51:45.000Z</time>
      </trkpt>
      <trkpt lat="48.16383" lon="-2.64406">
        <ele>94.199996948242</ele>
        <time>2021-10-15T10:51:46.000Z</time>
      </trkpt>
      <trkpt lat="48.16386" lon="-2.644">
        <ele>94.400001525879</ele>
        <time>2021-10-15T10:51:47.000Z</time>
      </trkpt>
      <trkpt lat="48.16388" lon="-2.64394">
        <ele>94.599998474121</ele>
        <time>2021-10-15T10:51:48.000Z</time>
      </trkpt>
      <trkpt lat="48.1639" lon="-2.64388">
        <ele>94.599998474121</ele>
        <time>2021-10-15T10:51:49.000Z</time>
      </trkpt>
      <trkpt lat="48.16392" lon="-2.64382">
        <ele>94.599998474121</ele>
        <time>2021-10-15T10:51:50.000Z</time>
      </trkpt>
      <trkpt lat="48.16395" lon="-2.64376">
        <ele>94.400001525879</ele>
        <time>2021-10-15T10:51:51.000Z</time>
      </trkpt>
      <trkpt lat="48.16397" lon="-2.6437">
        <ele>94.400001525879</ele>
        <time>2021-10-15T10:51:52.000Z</time>
      </trkpt>
      <trkpt lat="48.164" lon="-2.64364">
        <ele>94.400001525879</ele>
        <time>2021-10-15T10:51:53.000Z</time>
      </trkpt>
      <trkpt lat="48.16402" lon="-2.64358">
        <ele>94.199996948242</ele>
        <time>2021-10-15T10:51:54.000Z</time>
      </trkpt>
      <trkpt lat="48.16405" lon="-2.64351">
        <ele>93.800003051758</ele>
        <time>2021-10-15T10:51:55.000Z</time>
      </trkpt>
      <trkpt lat="48.16408" lon="-2.64345">
        <ele>93.599998474121</ele>
        <time>2021-10-15T10:51:56.000Z</time>
      </trkpt>
      <trkpt lat="48.1641" lon="-2.64339">
        <ele>93.400001525879</ele>
        <time>2021-10-15T10:51:57.000Z</time>
      </trkpt>
      <trkpt lat="48.16412" lon="-2.64334">
        <ele>93.199996948242</ele>
        <time>2021-10-15T10:51:58.000Z</time>
      </trkpt>
      <trkpt lat="48.16415" lon="-2.64327">
        <ele>93.199996948242</ele>
        <time>2021-10-15T10:51:59.000Z</time>
      </trkpt>
      <trkpt lat="48.16418" lon="-2.64321">
        <ele>93</ele>
        <time>2021-10-15T10:52:00.000Z</time>
      </trkpt>
      <trkpt lat="48.16421" lon="-2.64315">
        <ele>92.800003051758</ele>
        <time>2021-10-15T10:52:01.000Z</time>
      </trkpt>
      <trkpt lat="48.16424" lon="-2.64309">
        <ele>92.800003051758</ele>
        <time>2021-10-15T10:52:02.000Z</time>
      </trkpt>
      <trkpt lat="48.16426" lon="-2.64303">
        <ele>92.800003051758</ele>
        <time>2021-10-15T10:52:03.000Z</time>
      </trkpt>
      <trkpt lat="48.16429" lon="-2.64297">
        <ele>92.800003051758</ele>
        <time>2021-10-15T10:52:04.000Z</time>
      </trkpt>
      <trkpt lat="48.16431" lon="-2.64292">
        <ele>93</ele>
        <time>2021-10-15T10:52:05.000Z</time>
      </trkpt>
      <trkpt lat="48.16434" lon="-2.64286">
        <ele>93</ele>
        <time>2021-10-15T10:52:06.000Z</time>
      </trkpt>
      <trkpt lat="48.16437" lon="-2.64281">
        <ele>93</ele>
        <time>2021-10-15T10:52:07.000Z</time>
      </trkpt>
      <trkpt lat="48.1644" lon="-2.64276">
        <ele>92.800003051758</ele>
        <time>2021-10-15T10:52:08.000Z</time>
      </trkpt>
      <trkpt lat="48.16442" lon="-2.64271">
        <ele>92.599998474121</ele>
        <time>2021-10-15T10:52:09.000Z</time>
      </trkpt>
      <trkpt lat="48.16445" lon="-2.64265">
        <ele>92.199996948242</ele>
        <time>2021-10-15T10:52:10.000Z</time>
      </trkpt>
      <trkpt lat="48.16449" lon="-2.64259">
        <ele>92</ele>
        <time>2021-10-15T10:52:11.000Z</time>
      </trkpt>
      <trkpt lat="48.16451" lon="-2.64253">
        <ele>91.599998474121</ele>
        <time>2021-10-15T10:52:12.000Z</time>
      </trkpt>
      <trkpt lat="48.16453" lon="-2.64248">
        <ele>91.599998474121</ele>
        <time>2021-10-15T10:52:13.000Z</time>
      </trkpt>
      <trkpt lat="48.16456" lon="-2.64243">
        <ele>91.400001525879</ele>
        <time>2021-10-15T10:52:14.000Z</time>
      </trkpt>
      <trkpt lat="48.16459" lon="-2.64238">
        <ele>91.400001525879</ele>
        <time>2021-10-15T10:52:15.000Z</time>
      </trkpt>
      <trkpt lat="48.16462" lon="-2.64233">
        <ele>91.400001525879</ele>
        <time>2021-10-15T10:52:16.000Z</time>
      </trkpt>
      <trkpt lat="48.16464" lon="-2.64228">
        <ele>91.199996948242</ele>
        <time>2021-10-15T10:52:17.000Z</time>
      </trkpt>
      <trkpt lat="48.16467" lon="-2.64223">
        <ele>91</ele>
        <time>2021-10-15T10:52:18.000Z</time>
      </trkpt>
      <trkpt lat="48.16471" lon="-2.64218">
        <ele>90.599998474121</ele>
        <time>2021-10-15T10:52:19.000Z</time>
      </trkpt>
      <trkpt lat="48.16474" lon="-2.64213">
        <ele>90.400001525879</ele>
        <time>2021-10-15T10:52:20.000Z</time>
      </trkpt>
      <trkpt lat="48.16478" lon="-2.64209">
        <ele>90.199996948242</ele>
        <time>2021-10-15T10:52:21.000Z</time>
      </trkpt>
      <trkpt lat="48.16481" lon="-2.64203">
        <ele>90</ele>
        <time>2021-10-15T10:52:22.000Z</time>
      </trkpt>
      <trkpt lat="48.16485" lon="-2.64198">
        <ele>89.800003051758</ele>
        <time>2021-10-15T10:52:23.000Z</time>
      </trkpt>
      <trkpt lat="48.16488" lon="-2.64192">
        <ele>89.400001525879</ele>
        <time>2021-10-15T10:52:24.000Z</time>
      </trkpt>
      <trkpt lat="48.16491" lon="-2.64187">
        <ele>89.199996948242</ele>
        <time>2021-10-15T10:52:25.000Z</time>
      </trkpt>
      <trkpt lat="48.16494" lon="-2.64182">
        <ele>89</ele>
        <time>2021-10-15T10:52:26.000Z</time>
      </trkpt>
      <trkpt lat="48.16497" lon="-2.64177">
        <ele>88.800003051758</ele>
        <time>2021-10-15T10:52:27.000Z</time>
      </trkpt>
      <trkpt lat="48.16499" lon="-2.64172">
        <ele>88.800003051758</ele>
        <time>2021-10-15T10:52:28.000Z</time>
      </trkpt>
      <trkpt lat="48.16502" lon="-2.64166">
        <ele>88.599998474121</ele>
        <time>2021-10-15T10:52:29.000Z</time>
      </trkpt>
      <trkpt lat="48.16505" lon="-2.64159">
        <ele>88.599998474121</ele>
        <time>2021-10-15T10:52:30.000Z</time>
      </trkpt>
      <trkpt lat="48.16508" lon="-2.64153">
        <ele>88.599998474121</ele>
        <time>2021-10-15T10:52:31.000Z</time>
      </trkpt>
      <trkpt lat="48.16512" lon="-2.64146">
        <ele>88.599998474121</ele>
        <time>2021-10-15T10:52:32.000Z</time>
      </trkpt>
      <trkpt lat="48.16515" lon="-2.6414">
        <ele>88.599998474121</ele>
        <time>2021-10-15T10:52:33.000Z</time>
      </trkpt>
      <trkpt lat="48.16519" lon="-2.64133">
        <ele>88.599998474121</ele>
        <time>2021-10-15T10:52:34.000Z</time>
      </trkpt>
      <trkpt lat="48.16522" lon="-2.64127">
        <ele>88.599998474121</ele>
        <time>2021-10-15T10:52:35.000Z</time>
      </trkpt>
      <trkpt lat="48.16526" lon="-2.6412">
        <ele>88.400001525879</ele>
        <time>2021-10-15T10:52:36.000Z</time>
      </trkpt>
      <trkpt lat="48.16529" lon="-2.64114">
        <ele>88.400001525879</ele>
        <time>2021-10-15T10:52:37.000Z</time>
      </trkpt>
      <trkpt lat="48.16532" lon="-2.64108">
        <ele>88.199996948242</ele>
        <time>2021-10-15T10:52:38.000Z</time>
      </trkpt>
      <trkpt lat="48.16536" lon="-2.64102">
        <ele>88.199996948242</ele>
        <time>2021-10-15T10:52:39.000Z</time>
      </trkpt>
      <trkpt lat="48.16539" lon="-2.64096">
        <ele>88</ele>
        <time>2021-10-15T10:52:40.000Z</time>
      </trkpt>
      <trkpt lat="48.16542" lon="-2.64091">
        <ele>88</ele>
        <time>2021-10-15T10:52:41.000Z</time>
      </trkpt>
      <trkpt lat="48.16545" lon="-2.64085">
        <ele>87.800003051758</ele>
        <time>2021-10-15T10:52:42.000Z</time>
      </trkpt>
      <trkpt lat="48.16548" lon="-2.64079">
        <ele>87.800003051758</ele>
        <time>2021-10-15T10:52:43.000Z</time>
      </trkpt>
      <trkpt lat="48.16552" lon="-2.64073">
        <ele>87.400001525879</ele>
        <time>2021-10-15T10:52:44.000Z</time>
      </trkpt>
      <trkpt lat="48.16555" lon="-2.64067">
        <ele>87.199996948242</ele>
        <time>2021-10-15T10:52:45.000Z</time>
      </trkpt>
      <trkpt lat="48.16558" lon="-2.64061">
        <ele>87</ele>
        <time>2021-10-15T10:52:46.000Z</time>
      </trkpt>
      <trkpt lat="48.16562" lon="-2.64055">
        <ele>86.800003051758</ele>
        <time>2021-10-15T10:52:47.000Z</time>
      </trkpt>
      <trkpt lat="48.16565" lon="-2.64048">
        <ele>86.599998474121</ele>
        <time>2021-10-15T10:52:48.000Z</time>
      </trkpt>
      <trkpt lat="48.16568" lon="-2.64042">
        <ele>86.400001525879</ele>
        <time>2021-10-15T10:52:49.000Z</time>
      </trkpt>
      <trkpt lat="48.16571" lon="-2.64036">
        <ele>86.199996948242</ele>
        <time>2021-10-15T10:52:50.000Z</time>
      </trkpt>
      <trkpt lat="48.16574" lon="-2.64031">
        <ele>86</ele>
        <time>2021-10-15T10:52:51.000Z</time>
      </trkpt>
      <trkpt lat="48.16578" lon="-2.64025">
        <ele>86</ele>
        <time>2021-10-15T10:52:52.000Z</time>
      </trkpt>
      <trkpt lat="48.16581" lon="-2.64019">
        <ele>86</ele>
        <time>2021-10-15T10:52:53.000Z</time>
      </trkpt>
      <trkpt lat="48.16583" lon="-2.64014">
        <ele>86</ele>
        <time>2021-10-15T10:52:54.000Z</time>
      </trkpt>
      <trkpt lat="48.16586" lon="-2.64008">
        <ele>86</ele>
        <time>2021-10-15T10:52:55.000Z</time>
      </trkpt>
      <trkpt lat="48.16589" lon="-2.64003">
        <ele>86</ele>
        <time>2021-10-15T10:52:56.000Z</time>
      </trkpt>
      <trkpt lat="48.16592" lon="-2.63998">
        <ele>86</ele>
        <time>2021-10-15T10:52:57.000Z</time>
      </trkpt>
      <trkpt lat="48.16594" lon="-2.63993">
        <ele>86</ele>
        <time>2021-10-15T10:52:58.000Z</time>
      </trkpt>
      <trkpt lat="48.16597" lon="-2.63989">
        <ele>86</ele>
        <time>2021-10-15T10:52:59.000Z</time>
      </trkpt>
      <trkpt lat="48.16599" lon="-2.63985">
        <ele>86</ele>
        <time>2021-10-15T10:53:00.000Z</time>
      </trkpt>
      <trkpt lat="48.16601" lon="-2.6398">
        <ele>86</ele>
        <time>2021-10-15T10:53:01.000Z</time>
      </trkpt>
      <trkpt lat="48.16604" lon="-2.63976">
        <ele>86</ele>
        <time>2021-10-15T10:53:02.000Z</time>
      </trkpt>
      <trkpt lat="48.16606" lon="-2.63972">
        <ele>86.199996948242</ele>
        <time>2021-10-15T10:53:03.000Z</time>
      </trkpt>
      <trkpt lat="48.16609" lon="-2.63968">
        <ele>86.199996948242</ele>
        <time>2021-10-15T10:53:04.000Z</time>
      </trkpt>
      <trkpt lat="48.1661" lon="-2.63964">
        <ele>86.199996948242</ele>
        <time>2021-10-15T10:53:05.000Z</time>
      </trkpt>
      <trkpt lat="48.16612" lon="-2.63961">
        <ele>86.199996948242</ele>
        <time>2021-10-15T10:53:06.000Z</time>
      </trkpt>
      <trkpt lat="48.16614" lon="-2.63958">
        <ele>86.199996948242</ele>
        <time>2021-10-15T10:53:07.000Z</time>
      </trkpt>
      <trkpt lat="48.16615" lon="-2.63956">
        <ele>86.199996948242</ele>
        <time>2021-10-15T10:53:08.000Z</time>
      </trkpt>
      <trkpt lat="48.16616" lon="-2.63954">
        <ele>86.199996948242</ele>
        <time>2021-10-15T10:53:09.000Z</time>
      </trkpt>
      <trkpt lat="48.16618" lon="-2.63952">
        <ele>86.199996948242</ele>
        <time>2021-10-15T10:53:10.000Z</time>
      </trkpt>
      <trkpt lat="48.1662" lon="-2.63952">
        <ele>86.400001525879</ele>
        <time>2021-10-15T10:53:11.000Z</time>
      </trkpt>
      <trkpt lat="48.16621" lon="-2.63952">
        <ele>86.599998474121</ele>
        <time>2021-10-15T10:53:12.000Z</time>
      </trkpt>
      <trkpt lat="48.16623" lon="-2.63953">
        <ele>86.800003051758</ele>
        <time>2021-10-15T10:53:13.000Z</time>
      </trkpt>
      <trkpt lat="48.16625" lon="-2.63955">
        <ele>86.800003051758</ele>
        <time>2021-10-15T10:53:14.000Z</time>
      </trkpt>
      <trkpt lat="48.16627" lon="-2.63957">
        <ele>87</ele>
        <time>2021-10-15T10:53:15.000Z</time>
      </trkpt>
      <trkpt lat="48.16629" lon="-2.63959">
        <ele>87</ele>
        <time>2021-10-15T10:53:16.000Z</time>
      </trkpt>
      <trkpt lat="48.1663" lon="-2.63961">
        <ele>87</ele>
        <time>2021-10-15T10:53:17.000Z</time>
      </trkpt>
      <trkpt lat="48.16632" lon="-2.63963">
        <ele>87</ele>
        <time>2021-10-15T10:53:18.000Z</time>
      </trkpt>
      <trkpt lat="48.16633" lon="-2.63966">
        <ele>87</ele>
        <time>2021-10-15T10:53:19.000Z</time>
      </trkpt>
      <trkpt lat="48.16634" lon="-2.63968">
        <ele>87</ele>
        <time>2021-10-15T10:53:20.000Z</time>
      </trkpt>
      <trkpt lat="48.16636" lon="-2.6397">
        <ele>87</ele>
        <time>2021-10-15T10:53:21.000Z</time>
      </trkpt>
      <trkpt lat="48.16638" lon="-2.63973">
        <ele>87.199996948242</ele>
        <time>2021-10-15T10:53:22.000Z</time>
      </trkpt>
      <trkpt lat="48.16641" lon="-2.63976">
        <ele>87.400001525879</ele>
        <time>2021-10-15T10:53:23.000Z</time>
      </trkpt>
      <trkpt lat="48.16643" lon="-2.6398">
        <ele>87.400001525879</ele>
        <time>2021-10-15T10:53:24.000Z</time>
      </trkpt>
      <trkpt lat="48.16645" lon="-2.63984">
        <ele>87.599998474121</ele>
        <time>2021-10-15T10:53:25.000Z</time>
      </trkpt>
      <trkpt lat="48.16648" lon="-2.63987">
        <ele>87.599998474121</ele>
        <time>2021-10-15T10:53:26.000Z</time>
      </trkpt>
      <trkpt lat="48.16651" lon="-2.63991">
        <ele>87.800003051758</ele>
        <time>2021-10-15T10:53:27.000Z</time>
      </trkpt>
      <trkpt lat="48.16653" lon="-2.63995">
        <ele>87.800003051758</ele>
        <time>2021-10-15T10:53:28.000Z</time>
      </trkpt>
      <trkpt lat="48.16656" lon="-2.63999">
        <ele>88</ele>
        <time>2021-10-15T10:53:29.000Z</time>
      </trkpt>
      <trkpt lat="48.16658" lon="-2.64003">
        <ele>88</ele>
        <time>2021-10-15T10:53:30.000Z</time>
      </trkpt>
      <trkpt lat="48.16661" lon="-2.64007">
        <ele>88</ele>
        <time>2021-10-15T10:53:31.000Z</time>
      </trkpt>
      <trkpt lat="48.16663" lon="-2.64011">
        <ele>88</ele>
        <time>2021-10-15T10:53:32.000Z</time>
      </trkpt>
      <trkpt lat="48.16665" lon="-2.64015">
        <ele>88</ele>
        <time>2021-10-15T10:53:33.000Z</time>
      </trkpt>
      <trkpt lat="48.16668" lon="-2.64019">
        <ele>88</ele>
        <time>2021-10-15T10:53:34.000Z</time>
      </trkpt>
      <trkpt lat="48.1667" lon="-2.64023">
        <ele>88</ele>
        <time>2021-10-15T10:53:35.000Z</time>
      </trkpt>
      <trkpt lat="48.16672" lon="-2.64028">
        <ele>88</ele>
        <time>2021-10-15T10:53:36.000Z</time>
      </trkpt>
      <trkpt lat="48.16674" lon="-2.64032">
        <ele>88</ele>
        <time>2021-10-15T10:53:37.000Z</time>
      </trkpt>
      <trkpt lat="48.16676" lon="-2.64037">
        <ele>88.400001525879</ele>
        <time>2021-10-15T10:53:38.000Z</time>
      </trkpt>
      <trkpt lat="48.16678" lon="-2.64041">
        <ele>88.599998474121</ele>
        <time>2021-10-15T10:53:39.000Z</time>
      </trkpt>
      <trkpt lat="48.1668" lon="-2.64045">
        <ele>88.599998474121</ele>
        <time>2021-10-15T10:53:40.000Z</time>
      </trkpt>
      <trkpt lat="48.16682" lon="-2.6405">
        <ele>88.800003051758</ele>
        <time>2021-10-15T10:53:41.000Z</time>
      </trkpt>
      <trkpt lat="48.16684" lon="-2.64055">
        <ele>88.800003051758</ele>
        <time>2021-10-15T10:53:42.000Z</time>
      </trkpt>
      <trkpt lat="48.16686" lon="-2.6406">
        <ele>89</ele>
        <time>2021-10-15T10:53:43.000Z</time>
      </trkpt>
      <trkpt lat="48.16687" lon="-2.64065">
        <ele>89.400001525879</ele>
        <time>2021-10-15T10:53:44.000Z</time>
      </trkpt>
      <trkpt lat="48.16689" lon="-2.6407">
        <ele>89.800003051758</ele>
        <time>2021-10-15T10:53:45.000Z</time>
      </trkpt>
      <trkpt lat="48.16691" lon="-2.64076">
        <ele>90.199996948242</ele>
        <time>2021-10-15T10:53:46.000Z</time>
      </trkpt>
      <trkpt lat="48.16692" lon="-2.64081">
        <ele>90.599998474121</ele>
        <time>2021-10-15T10:53:47.000Z</time>
      </trkpt>
      <trkpt lat="48.16693" lon="-2.64087">
        <ele>91</ele>
        <time>2021-10-15T10:53:48.000Z</time>
      </trkpt>
      <trkpt lat="48.16695" lon="-2.64092">
        <ele>91.599998474121</ele>
        <time>2021-10-15T10:53:49.000Z</time>
      </trkpt>
      <trkpt lat="48.16696" lon="-2.64098">
        <ele>92.199996948242</ele>
        <time>2021-10-15T10:53:50.000Z</time>
      </trkpt>
      <trkpt lat="48.16698" lon="-2.64104">
        <ele>92.800003051758</ele>
        <time>2021-10-15T10:53:51.000Z</time>
      </trkpt>
      <trkpt lat="48.16699" lon="-2.6411">
        <ele>93.199996948242</ele>
        <time>2021-10-15T10:53:52.000Z</time>
      </trkpt>
      <trkpt lat="48.167" lon="-2.64116">
        <ele>93.599998474121</ele>
        <time>2021-10-15T10:53:53.000Z</time>
      </trkpt>
      <trkpt lat="48.16701" lon="-2.64122">
        <ele>94</ele>
        <time>2021-10-15T10:53:54.000Z</time>
      </trkpt>
      <trkpt lat="48.16703" lon="-2.64128">
        <ele>94.400001525879</ele>
        <time>2021-10-15T10:53:55.000Z</time>
      </trkpt>
      <trkpt lat="48.16704" lon="-2.64134">
        <ele>94.599998474121</ele>
        <time>2021-10-15T10:53:56.000Z</time>
      </trkpt>
      <trkpt lat="48.16706" lon="-2.6414">
        <ele>95</ele>
        <time>2021-10-15T10:53:57.000Z</time>
      </trkpt>
      <trkpt lat="48.16707" lon="-2.64146">
        <ele>95.400001525879</ele>
        <time>2021-10-15T10:53:58.000Z</time>
      </trkpt>
      <trkpt lat="48.16708" lon="-2.64152">
        <ele>95.599998474121</ele>
        <time>2021-10-15T10:53:59.000Z</time>
      </trkpt>
      <trkpt lat="48.16709" lon="-2.64157">
        <ele>95.599998474121</ele>
        <time>2021-10-15T10:54:00.000Z</time>
      </trkpt>
      <trkpt lat="48.1671" lon="-2.64163">
        <ele>95.800003051758</ele>
        <time>2021-10-15T10:54:01.000Z</time>
      </trkpt>
      <trkpt lat="48.16711" lon="-2.64168">
        <ele>96</ele>
        <time>2021-10-15T10:54:02.000Z</time>
      </trkpt>
      <trkpt lat="48.16712" lon="-2.64174">
        <ele>96</ele>
        <time>2021-10-15T10:54:03.000Z</time>
      </trkpt>
      <trkpt lat="48.16713" lon="-2.64179">
        <ele>96</ele>
        <time>2021-10-15T10:54:04.000Z</time>
      </trkpt>
      <trkpt lat="48.16715" lon="-2.64184">
        <ele>95.800003051758</ele>
        <time>2021-10-15T10:54:05.000Z</time>
      </trkpt>
      <trkpt lat="48.16717" lon="-2.6419">
        <ele>95.599998474121</ele>
        <time>2021-10-15T10:54:06.000Z</time>
      </trkpt>
      <trkpt lat="48.16719" lon="-2.64194">
        <ele>95.400001525879</ele>
        <time>2021-10-15T10:54:07.000Z</time>
      </trkpt>
      <trkpt lat="48.16722" lon="-2.64198">
        <ele>95.400001525879</ele>
        <time>2021-10-15T10:54:08.000Z</time>
      </trkpt>
      <trkpt lat="48.16726" lon="-2.642">
        <ele>95</ele>
        <time>2021-10-15T10:54:09.000Z</time>
      </trkpt>
      <trkpt lat="48.1673" lon="-2.642">
        <ele>94.800003051758</ele>
        <time>2021-10-15T10:54:10.000Z</time>
      </trkpt>
      <trkpt lat="48.16734" lon="-2.64198">
        <ele>94.400001525879</ele>
        <time>2021-10-15T10:54:11.000Z</time>
      </trkpt>
      <trkpt lat="48.16738" lon="-2.64195">
        <ele>94</ele>
        <time>2021-10-15T10:54:12.000Z</time>
      </trkpt>
      <trkpt lat="48.16742" lon="-2.64191">
        <ele>93.800003051758</ele>
        <time>2021-10-15T10:54:13.000Z</time>
      </trkpt>
      <trkpt lat="48.16745" lon="-2.64185">
        <ele>93.599998474121</ele>
        <time>2021-10-15T10:54:14.000Z</time>
      </trkpt>
      <trkpt lat="48.16748" lon="-2.64179">
        <ele>93.199996948242</ele>
        <time>2021-10-15T10:54:15.000Z</time>
      </trkpt>
      <trkpt lat="48.1675" lon="-2.64171">
        <ele>93</ele>
        <time>2021-10-15T10:54:16.000Z</time>
      </trkpt>
      <trkpt lat="48.16752" lon="-2.64163">
        <ele>92.800003051758</ele>
        <time>2021-10-15T10:54:17.000Z</time>
      </trkpt>
      <trkpt lat="48.16754" lon="-2.64155">
        <ele>92.400001525879</ele>
        <time>2021-10-15T10:54:18.000Z</time>
      </trkpt>
      <trkpt lat="48.16757" lon="-2.64148">
        <ele>92.199996948242</ele>
        <time>2021-10-15T10:54:19.000Z</time>
      </trkpt>
      <trkpt lat="48.1676" lon="-2.64141">
        <ele>91.800003051758</ele>
        <time>2021-10-15T10:54:20.000Z</time>
      </trkpt>
      <trkpt lat="48.16764" lon="-2.64134">
        <ele>91.400001525879</ele>
        <time>2021-10-15T10:54:21.000Z</time>
      </trkpt>
      <trkpt lat="48.16769" lon="-2.64129">
        <ele>91</ele>
        <time>2021-10-15T10:54:22.000Z</time>
      </trkpt>
      <trkpt lat="48.16774" lon="-2.64124">
        <ele>91</ele>
        <time>2021-10-15T10:54:23.000Z</time>
      </trkpt>
      <trkpt lat="48.16779" lon="-2.64119">
        <ele>91</ele>
        <time>2021-10-15T10:54:24.000Z</time>
      </trkpt>
      <trkpt lat="48.16785" lon="-2.64115">
        <ele>91.199996948242</ele>
        <time>2021-10-15T10:54:25.000Z</time>
      </trkpt>
      <trkpt lat="48.16791" lon="-2.64112">
        <ele>91.400001525879</ele>
        <time>2021-10-15T10:54:26.000Z</time>
      </trkpt>
      <trkpt lat="48.16796" lon="-2.64109">
        <ele>91.800003051758</ele>
        <time>2021-10-15T10:54:27.000Z</time>
      </trkpt>
      <trkpt lat="48.16802" lon="-2.64106">
        <ele>92.199996948242</ele>
        <time>2021-10-15T10:54:28.000Z</time>
      </trkpt>
      <trkpt lat="48.16808" lon="-2.64103">
        <ele>92.400001525879</ele>
        <time>2021-10-15T10:54:29.000Z</time>
      </trkpt>
      <trkpt lat="48.16813" lon="-2.641">
        <ele>92.800003051758</ele>
        <time>2021-10-15T10:54:30.000Z</time>
      </trkpt>
      <trkpt lat="48.16819" lon="-2.64097">
        <ele>93.199996948242</ele>
        <time>2021-10-15T10:54:31.000Z</time>
      </trkpt>
      <trkpt lat="48.16825" lon="-2.64094">
        <ele>93.800003051758</ele>
        <time>2021-10-15T10:54:32.000Z</time>
      </trkpt>
      <trkpt lat="48.16829" lon="-2.64091">
        <ele>93.400001525879</ele>
        <time>2021-10-15T10:54:33.000Z</time>
      </trkpt>
      <trkpt lat="48.16834" lon="-2.64088">
        <ele>93.199996948242</ele>
        <time>2021-10-15T10:54:34.000Z</time>
      </trkpt>
      <trkpt lat="48.16839" lon="-2.64085">
        <ele>92.599998474121</ele>
        <time>2021-10-15T10:54:35.000Z</time>
      </trkpt>
      <trkpt lat="48.16843" lon="-2.64081">
        <ele>92.199996948242</ele>
        <time>2021-10-15T10:54:36.000Z</time>
      </trkpt>
      <trkpt lat="48.16848" lon="-2.64077">
        <ele>91.599998474121</ele>
        <time>2021-10-15T10:54:37.000Z</time>
      </trkpt>
      <trkpt lat="48.16852" lon="-2.64072">
        <ele>90.800003051758</ele>
        <time>2021-10-15T10:54:38.000Z</time>
      </trkpt>
      <trkpt lat="48.16856" lon="-2.64067">
        <ele>90</ele>
        <time>2021-10-15T10:54:39.000Z</time>
      </trkpt>
      <trkpt lat="48.16859" lon="-2.6406">
        <ele>89.199996948242</ele>
        <time>2021-10-15T10:54:40.000Z</time>
      </trkpt>
      <trkpt lat="48.16862" lon="-2.64054">
        <ele>88.599998474121</ele>
        <time>2021-10-15T10:54:41.000Z</time>
      </trkpt>
      <trkpt lat="48.16864" lon="-2.64047">
        <ele>88</ele>
        <time>2021-10-15T10:54:42.000Z</time>
      </trkpt>
      <trkpt lat="48.16866" lon="-2.6404">
        <ele>87.599998474121</ele>
        <time>2021-10-15T10:54:43.000Z</time>
      </trkpt>
      <trkpt lat="48.16868" lon="-2.64033">
        <ele>87</ele>
        <time>2021-10-15T10:54:44.000Z</time>
      </trkpt>
      <trkpt lat="48.16869" lon="-2.64026">
        <ele>86.800003051758</ele>
        <time>2021-10-15T10:54:45.000Z</time>
      </trkpt>
      <trkpt lat="48.16869" lon="-2.64019">
        <ele>86.599998474121</ele>
        <time>2021-10-15T10:54:46.000Z</time>
      </trkpt>
      <trkpt lat="48.1687" lon="-2.64012">
        <ele>86.199996948242</ele>
        <time>2021-10-15T10:54:47.000Z</time>
      </trkpt>
      <trkpt lat="48.16871" lon="-2.64005">
        <ele>86</ele>
        <time>2021-10-15T10:54:48.000Z</time>
      </trkpt>
      <trkpt lat="48.16871" lon="-2.63998">
        <ele>86</ele>
        <time>2021-10-15T10:54:49.000Z</time>
      </trkpt>
      <trkpt lat="48.16872" lon="-2.63992">
        <ele>86</ele>
        <time>2021-10-15T10:54:50.000Z</time>
      </trkpt>
      <trkpt lat="48.16873" lon="-2.63985">
        <ele>86</ele>
        <time>2021-10-15T10:54:51.000Z</time>
      </trkpt>
      <trkpt lat="48.16874" lon="-2.63979">
        <ele>86</ele>
        <time>2021-10-15T10:54:52.000Z</time>
      </trkpt>
      <trkpt lat="48.16876" lon="-2.63974">
        <ele>86</ele>
        <time>2021-10-15T10:54:53.000Z</time>
      </trkpt>
      <trkpt lat="48.16877" lon="-2.63968">
        <ele>86.199996948242</ele>
        <time>2021-10-15T10:54:54.000Z</time>
      </trkpt>
      <trkpt lat="48.16877" lon="-2.63962">
        <ele>86.599998474121</ele>
        <time>2021-10-15T10:54:55.000Z</time>
      </trkpt>
      <trkpt lat="48.16877" lon="-2.63957">
        <ele>86.800003051758</ele>
        <time>2021-10-15T10:54:56.000Z</time>
      </trkpt>
      <trkpt lat="48.16876" lon="-2.63952">
        <ele>86.800003051758</ele>
        <time>2021-10-15T10:54:57.000Z</time>
      </trkpt>
      <trkpt lat="48.16874" lon="-2.63949">
        <ele>86.800003051758</ele>
        <time>2021-10-15T10:54:58.000Z</time>
      </trkpt>
      <trkpt lat="48.16871" lon="-2.63945">
        <ele>86.599998474121</ele>
        <time>2021-10-15T10:54:59.000Z</time>
      </trkpt>
      <trkpt lat="48.16868" lon="-2.63943">
        <ele>86.599998474121</ele>
        <time>2021-10-15T10:55:00.000Z</time>
      </trkpt>
      <trkpt lat="48.16865" lon="-2.6394">
        <ele>86.400001525879</ele>
        <time>2021-10-15T10:55:01.000Z</time>
      </trkpt>
      <trkpt lat="48.16862" lon="-2.63937">
        <ele>86.400001525879</ele>
        <time>2021-10-15T10:55:02.000Z</time>
      </trkpt>
      <trkpt lat="48.16859" lon="-2.63934">
        <ele>86.599998474121</ele>
        <time>2021-10-15T10:55:03.000Z</time>
      </trkpt>
      <trkpt lat="48.16856" lon="-2.6393">
        <ele>86.599998474121</ele>
        <time>2021-10-15T10:55:04.000Z</time>
      </trkpt>
      <trkpt lat="48.16853" lon="-2.63926">
        <ele>86.800003051758</ele>
        <time>2021-10-15T10:55:05.000Z</time>
      </trkpt>
      <trkpt lat="48.16851" lon="-2.63921">
        <ele>87</ele>
        <time>2021-10-15T10:55:06.000Z</time>
      </trkpt>
      <trkpt lat="48.16848" lon="-2.63916">
        <ele>87.199996948242</ele>
        <time>2021-10-15T10:55:07.000Z</time>
      </trkpt>
      <trkpt lat="48.16847" lon="-2.63911">
        <ele>87.199996948242</ele>
        <time>2021-10-15T10:55:08.000Z</time>
      </trkpt>
      <trkpt lat="48.16846" lon="-2.63906">
        <ele>87.199996948242</ele>
        <time>2021-10-15T10:55:09.000Z</time>
      </trkpt>
      <trkpt lat="48.16845" lon="-2.63901">
        <ele>87.199996948242</ele>
        <time>2021-10-15T10:55:10.000Z</time>
      </trkpt>
      <trkpt lat="48.16845" lon="-2.63895">
        <ele>87.199996948242</ele>
        <time>2021-10-15T10:55:11.000Z</time>
      </trkpt>
      <trkpt lat="48.16845" lon="-2.6389">
        <ele>87.199996948242</ele>
        <time>2021-10-15T10:55:12.000Z</time>
      </trkpt>
      <trkpt lat="48.16845" lon="-2.63884">
        <ele>87</ele>
        <time>2021-10-15T10:55:13.000Z</time>
      </trkpt>
      <trkpt lat="48.16845" lon="-2.63878">
        <ele>86.800003051758</ele>
        <time>2021-10-15T10:55:14.000Z</time>
      </trkpt>
      <trkpt lat="48.16845" lon="-2.63872">
        <ele>86.400001525879</ele>
        <time>2021-10-15T10:55:15.000Z</time>
      </trkpt>
      <trkpt lat="48.16846" lon="-2.63866">
        <ele>86.199996948242</ele>
        <time>2021-10-15T10:55:16.000Z</time>
      </trkpt>
      <trkpt lat="48.16846" lon="-2.63859">
        <ele>86.199996948242</ele>
        <time>2021-10-15T10:55:17.000Z</time>
      </trkpt>
      <trkpt lat="48.16846" lon="-2.63852">
        <ele>86.199996948242</ele>
        <time>2021-10-15T10:55:18.000Z</time>
      </trkpt>
      <trkpt lat="48.16847" lon="-2.63845">
        <ele>86.199996948242</ele>
        <time>2021-10-15T10:55:19.000Z</time>
      </trkpt>
      <trkpt lat="48.16848" lon="-2.63838">
        <ele>86</ele>
        <time>2021-10-15T10:55:20.000Z</time>
      </trkpt>
      <trkpt lat="48.16848" lon="-2.6383">
        <ele>85.800003051758</ele>
        <time>2021-10-15T10:55:21.000Z</time>
      </trkpt>
      <trkpt lat="48.16849" lon="-2.63823">
        <ele>85.400001525879</ele>
        <time>2021-10-15T10:55:22.000Z</time>
      </trkpt>
      <trkpt lat="48.16851" lon="-2.63815">
        <ele>85.199996948242</ele>
        <time>2021-10-15T10:55:23.000Z</time>
      </trkpt>
      <trkpt lat="48.16853" lon="-2.63807">
        <ele>85</ele>
        <time>2021-10-15T10:55:24.000Z</time>
      </trkpt>
      <trkpt lat="48.16855" lon="-2.638">
        <ele>84.800003051758</ele>
        <time>2021-10-15T10:55:25.000Z</time>
      </trkpt>
      <trkpt lat="48.16858" lon="-2.63792">
        <ele>84.800003051758</ele>
        <time>2021-10-15T10:55:26.000Z</time>
      </trkpt>
      <trkpt lat="48.16859" lon="-2.63784">
        <ele>84.599998474121</ele>
        <time>2021-10-15T10:55:27.000Z</time>
      </trkpt>
      <trkpt lat="48.16861" lon="-2.63776">
        <ele>84.400001525879</ele>
        <time>2021-10-15T10:55:28.000Z</time>
      </trkpt>
      <trkpt lat="48.16862" lon="-2.63768">
        <ele>84.400001525879</ele>
        <time>2021-10-15T10:55:29.000Z</time>
      </trkpt>
      <trkpt lat="48.16864" lon="-2.6376">
        <ele>84.400001525879</ele>
        <time>2021-10-15T10:55:30.000Z</time>
      </trkpt>
      <trkpt lat="48.16865" lon="-2.63752">
        <ele>84.400001525879</ele>
        <time>2021-10-15T10:55:31.000Z</time>
      </trkpt>
      <trkpt lat="48.16865" lon="-2.63744">
        <ele>84.199996948242</ele>
        <time>2021-10-15T10:55:32.000Z</time>
      </trkpt>
      <trkpt lat="48.16866" lon="-2.63736">
        <ele>84</ele>
        <time>2021-10-15T10:55:33.000Z</time>
      </trkpt>
      <trkpt lat="48.16867" lon="-2.63729">
        <ele>84</ele>
        <time>2021-10-15T10:55:34.000Z</time>
      </trkpt>
      <trkpt lat="48.16868" lon="-2.63721">
        <ele>84</ele>
        <time>2021-10-15T10:55:35.000Z</time>
      </trkpt>
      <trkpt lat="48.16868" lon="-2.63714">
        <ele>84</ele>
        <time>2021-10-15T10:55:36.000Z</time>
      </trkpt>
      <trkpt lat="48.16869" lon="-2.63706">
        <ele>84</ele>
        <time>2021-10-15T10:55:37.000Z</time>
      </trkpt>
      <trkpt lat="48.1687" lon="-2.637">
        <ele>84</ele>
        <time>2021-10-15T10:55:38.000Z</time>
      </trkpt>
      <trkpt lat="48.1687" lon="-2.63693">
        <ele>84</ele>
        <time>2021-10-15T10:55:39.000Z</time>
      </trkpt>
      <trkpt lat="48.16871" lon="-2.63686">
        <ele>84</ele>
        <time>2021-10-15T10:55:40.000Z</time>
      </trkpt>
      <trkpt lat="48.16872" lon="-2.6368">
        <ele>84</ele>
        <time>2021-10-15T10:55:41.000Z</time>
      </trkpt>
      <trkpt lat="48.16872" lon="-2.63674">
        <ele>84.199996948242</ele>
        <time>2021-10-15T10:55:42.000Z</time>
      </trkpt>
      <trkpt lat="48.16874" lon="-2.63669">
        <ele>84.199996948242</ele>
        <time>2021-10-15T10:55:43.000Z</time>
      </trkpt>
      <trkpt lat="48.16876" lon="-2.63665">
        <ele>84.400001525879</ele>
        <time>2021-10-15T10:55:44.000Z</time>
      </trkpt>
      <trkpt lat="48.16878" lon="-2.63663">
        <ele>84.400001525879</ele>
        <time>2021-10-15T10:55:45.000Z</time>
      </trkpt>
      <trkpt lat="48.16881" lon="-2.63661">
        <ele>84.400001525879</ele>
        <time>2021-10-15T10:55:46.000Z</time>
      </trkpt>
      <trkpt lat="48.16884" lon="-2.63659">
        <ele>84.400001525879</ele>
        <time>2021-10-15T10:55:47.000Z</time>
      </trkpt>
      <trkpt lat="48.16887" lon="-2.63659">
        <ele>84.400001525879</ele>
        <time>2021-10-15T10:55:48.000Z</time>
      </trkpt>
      <trkpt lat="48.1689" lon="-2.63658">
        <ele>84.400001525879</ele>
        <time>2021-10-15T10:55:49.000Z</time>
      </trkpt>
      <trkpt lat="48.16894" lon="-2.63657">
        <ele>84.400001525879</ele>
        <time>2021-10-15T10:55:50.000Z</time>
      </trkpt>
      <trkpt lat="48.16897" lon="-2.63657">
        <ele>84.400001525879</ele>
        <time>2021-10-15T10:55:51.000Z</time>
      </trkpt>
      <trkpt lat="48.169" lon="-2.63656">
        <ele>84.599998474121</ele>
        <time>2021-10-15T10:55:52.000Z</time>
      </trkpt>
      <trkpt lat="48.16904" lon="-2.63655">
        <ele>84.599998474121</ele>
        <time>2021-10-15T10:55:53.000Z</time>
      </trkpt>
      <trkpt lat="48.16907" lon="-2.63654">
        <ele>84.599998474121</ele>
        <time>2021-10-15T10:55:54.000Z</time>
      </trkpt>
      <trkpt lat="48.16911" lon="-2.63654">
        <ele>84.599998474121</ele>
        <time>2021-10-15T10:55:55.000Z</time>
      </trkpt>
      <trkpt lat="48.16914" lon="-2.63653">
        <ele>84.599998474121</ele>
        <time>2021-10-15T10:55:56.000Z</time>
      </trkpt>
      <trkpt lat="48.16918" lon="-2.63652">
        <ele>84.599998474121</ele>
        <time>2021-10-15T10:55:57.000Z</time>
      </trkpt>
      <trkpt lat="48.16921" lon="-2.63651">
        <ele>84.800003051758</ele>
        <time>2021-10-15T10:55:58.000Z</time>
      </trkpt>
      <trkpt lat="48.16924" lon="-2.6365">
        <ele>84.800003051758</ele>
        <time>2021-10-15T10:55:59.000Z</time>
      </trkpt>
      <trkpt lat="48.16928" lon="-2.63649">
        <ele>84.800003051758</ele>
        <time>2021-10-15T10:56:00.000Z</time>
      </trkpt>
      <trkpt lat="48.16931" lon="-2.63648">
        <ele>84.800003051758</ele>
        <time>2021-10-15T10:56:01.000Z</time>
      </trkpt>
      <trkpt lat="48.16935" lon="-2.63647">
        <ele>84.800003051758</ele>
        <time>2021-10-15T10:56:02.000Z</time>
      </trkpt>
      <trkpt lat="48.16939" lon="-2.63646">
        <ele>84.800003051758</ele>
        <time>2021-10-15T10:56:03.000Z</time>
      </trkpt>
      <trkpt lat="48.16944" lon="-2.63644">
        <ele>85</ele>
        <time>2021-10-15T10:56:04.000Z</time>
      </trkpt>
      <trkpt lat="48.16948" lon="-2.63643">
        <ele>85</ele>
        <time>2021-10-15T10:56:05.000Z</time>
      </trkpt>
      <trkpt lat="48.16953" lon="-2.63642">
        <ele>85</ele>
        <time>2021-10-15T10:56:06.000Z</time>
      </trkpt>
      <trkpt lat="48.16957" lon="-2.6364">
        <ele>85</ele>
        <time>2021-10-15T10:56:07.000Z</time>
      </trkpt>
      <trkpt lat="48.16962" lon="-2.63638">
        <ele>85.199996948242</ele>
        <time>2021-10-15T10:56:08.000Z</time>
      </trkpt>
      <trkpt lat="48.16966" lon="-2.63636">
        <ele>85.400001525879</ele>
        <time>2021-10-15T10:56:09.000Z</time>
      </trkpt>
      <trkpt lat="48.16971" lon="-2.63635">
        <ele>85.599998474121</ele>
        <time>2021-10-15T10:56:10.000Z</time>
      </trkpt>
      <trkpt lat="48.16975" lon="-2.63634">
        <ele>85.599998474121</ele>
        <time>2021-10-15T10:56:11.000Z</time>
      </trkpt>
      <trkpt lat="48.1698" lon="-2.63633">
        <ele>85.800003051758</ele>
        <time>2021-10-15T10:56:12.000Z</time>
      </trkpt>
      <trkpt lat="48.16984" lon="-2.63632">
        <ele>85.800003051758</ele>
        <time>2021-10-15T10:56:13.000Z</time>
      </trkpt>
      <trkpt lat="48.16988" lon="-2.63631">
        <ele>85.800003051758</ele>
        <time>2021-10-15T10:56:14.000Z</time>
      </trkpt>
      <trkpt lat="48.16992" lon="-2.6363">
        <ele>86</ele>
        <time>2021-10-15T10:56:15.000Z</time>
      </trkpt>
      <trkpt lat="48.16996" lon="-2.63628">
        <ele>86.199996948242</ele>
        <time>2021-10-15T10:56:16.000Z</time>
      </trkpt>
      <trkpt lat="48.17" lon="-2.63627">
        <ele>86.400001525879</ele>
        <time>2021-10-15T10:56:17.000Z</time>
      </trkpt>
      <trkpt lat="48.17003" lon="-2.63626">
        <ele>86.599998474121</ele>
        <time>2021-10-15T10:56:18.000Z</time>
      </trkpt>
      <trkpt lat="48.17005" lon="-2.63625">
        <ele>86.800003051758</ele>
        <time>2021-10-15T10:56:19.000Z</time>
      </trkpt>
      <trkpt lat="48.17006" lon="-2.63624">
        <ele>86.800003051758</ele>
        <time>2021-10-15T10:56:20.000Z</time>
      </trkpt>
      <trkpt lat="48.17007" lon="-2.63624">
        <ele>87</ele>
        <time>2021-10-15T10:56:21.000Z</time>
      </trkpt>
      <trkpt lat="48.17007" lon="-2.63624">
        <ele>87</ele>
        <time>2021-10-15T10:56:22.000Z</time>
      </trkpt>
      <trkpt lat="48.17007" lon="-2.63624">
        <ele>87</ele>
        <time>2021-10-15T10:56:23.000Z</time>
      </trkpt>
      <trkpt lat="48.17007" lon="-2.63624">
        <ele>87</ele>
        <time>2021-10-15T10:56:24.000Z</time>
      </trkpt>
      <trkpt lat="48.17007" lon="-2.63624">
        <ele>87</ele>
        <time>2021-10-15T10:56:25.000Z</time>
      </trkpt>
      <trkpt lat="48.17007" lon="-2.63624">
        <ele>87</ele>
        <time>2021-10-15T10:56:26.000Z</time>
      </trkpt>
      <trkpt lat="48.17007" lon="-2.63624">
        <ele>87</ele>
        <time>2021-10-15T10:56:27.000Z</time>
      </trkpt>
      <trkpt lat="48.17007" lon="-2.63623">
        <ele>87</ele>
        <time>2021-10-15T10:56:28.000Z</time>
      </trkpt>
      <trkpt lat="48.17007" lon="-2.63623">
        <ele>87</ele>
        <time>2021-10-15T10:56:29.000Z</time>
      </trkpt>
      <trkpt lat="48.17007" lon="-2.63623">
        <ele>87</ele>
        <time>2021-10-15T10:56:30.000Z</time>
      </trkpt>
      <trkpt lat="48.17007" lon="-2.63623">
        <ele>87</ele>
        <time>2021-10-15T10:56:31.000Z</time>
      </trkpt>
      <trkpt lat="48.17007" lon="-2.63623">
        <ele>87</ele>
        <time>2021-10-15T10:56:32.000Z</time>
      </trkpt>
      <trkpt lat="48.17007" lon="-2.63623">
        <ele>87</ele>
        <time>2021-10-15T10:56:33.000Z</time>
      </trkpt>
      <trkpt lat="48.17007" lon="-2.63623">
        <ele>87</ele>
        <time>2021-10-15T10:56:34.000Z</time>
      </trkpt>
      <trkpt lat="48.17007" lon="-2.63623">
        <ele>87</ele>
        <time>2021-10-15T10:56:35.000Z</time>
      </trkpt>
      <trkpt lat="48.17007" lon="-2.63623">
        <ele>87</ele>
        <time>2021-10-15T10:56:36.000Z</time>
      </trkpt>
      <trkpt lat="48.17007" lon="-2.63622">
        <ele>87</ele>
        <time>2021-10-15T10:56:37.000Z</time>
      </trkpt>
      <trkpt lat="48.17007" lon="-2.63622">
        <ele>87</ele>
        <time>2021-10-15T10:56:38.000Z</time>
      </trkpt>
      <trkpt lat="48.17007" lon="-2.63622">
        <ele>87</ele>
        <time>2021-10-15T10:56:39.000Z</time>
      </trkpt>
      <trkpt lat="48.17007" lon="-2.63622">
        <ele>87</ele>
        <time>2021-10-15T10:56:40.000Z</time>
      </trkpt>
      <trkpt lat="48.17007" lon="-2.63622">
        <ele>87</ele>
        <time>2021-10-15T10:56:41.000Z</time>
      </trkpt>
      <trkpt lat="48.17007" lon="-2.63622">
        <ele>87</ele>
        <time>2021-10-15T10:56:42.000Z</time>
      </trkpt>
      <trkpt lat="48.17007" lon="-2.63622">
        <ele>87</ele>
        <time>2021-10-15T10:56:43.000Z</time>
      </trkpt>
      <trkpt lat="48.17007" lon="-2.63622">
        <ele>87</ele>
        <time>2021-10-15T10:56:44.000Z</time>
      </trkpt>
      <trkpt lat="48.17007" lon="-2.63622">
        <ele>87</ele>
        <time>2021-10-15T10:56:45.000Z</time>
      </trkpt>
      <trkpt lat="48.17007" lon="-2.63622">
        <ele>87</ele>
        <time>2021-10-15T10:56:46.000Z</time>
      </trkpt>
      <trkpt lat="48.17007" lon="-2.63622">
        <ele>87</ele>
        <time>2021-10-15T10:56:47.000Z</time>
      </trkpt>
      <trkpt lat="48.17007" lon="-2.63622">
        <ele>87</ele>
        <time>2021-10-15T10:56:48.000Z</time>
      </trkpt>
      <trkpt lat="48.17007" lon="-2.63622">
        <ele>87</ele>
        <time>2021-10-15T10:56:49.000Z</time>
      </trkpt>
      <trkpt lat="48.17007" lon="-2.63622">
        <ele>87</ele>
        <time>2021-10-15T10:56:50.000Z</time>
      </trkpt>
      <trkpt lat="48.17007" lon="-2.63622">
        <ele>87</ele>
        <time>2021-10-15T10:56:51.000Z</time>
      </trkpt>
      <trkpt lat="48.17007" lon="-2.63622">
        <ele>87</ele>
        <time>2021-10-15T10:56:52.000Z</time>
      </trkpt>
      <trkpt lat="48.17007" lon="-2.63622">
        <ele>87</ele>
        <time>2021-10-15T10:56:53.000Z</time>
      </trkpt>
      <trkpt lat="48.17007" lon="-2.63622">
        <ele>87</ele>
        <time>2021-10-15T10:56:54.000Z</time>
      </trkpt>
      <trkpt lat="48.17007" lon="-2.63622">
        <ele>87</ele>
        <time>2021-10-15T10:56:55.000Z</time>
      </trkpt>
      <trkpt lat="48.17008" lon="-2.63622">
        <ele>87</ele>
        <time>2021-10-15T10:56:56.000Z</time>
      </trkpt>
      <trkpt lat="48.17007" lon="-2.63622">
        <ele>87</ele>
        <time>2021-10-15T10:56:57.000Z</time>
      </trkpt>
      <trkpt lat="48.17007" lon="-2.63622">
        <ele>87</ele>
        <time>2021-10-15T10:56:58.000Z</time>
      </trkpt>
      <trkpt lat="48.17007" lon="-2.63622">
        <ele>87</ele>
        <time>2021-10-15T10:56:59.000Z</time>
      </trkpt>
      <trkpt lat="48.17007" lon="-2.63622">
        <ele>87</ele>
        <time>2021-10-15T10:57:00.000Z</time>
      </trkpt>
      <trkpt lat="48.17007" lon="-2.63622">
        <ele>87</ele>
        <time>2021-10-15T10:57:01.000Z</time>
      </trkpt>
      <trkpt lat="48.17007" lon="-2.63622">
        <ele>87</ele>
        <time>2021-10-15T10:57:02.000Z</time>
      </trkpt>
      <trkpt lat="48.17007" lon="-2.63622">
        <ele>87</ele>
        <time>2021-10-15T10:57:03.000Z</time>
      </trkpt>
      <trkpt lat="48.17008" lon="-2.63622">
        <ele>87</ele>
        <time>2021-10-15T10:57:04.000Z</time>
      </trkpt>
      <trkpt lat="48.17008" lon="-2.63622">
        <ele>87</ele>
        <time>2021-10-15T10:57:05.000Z</time>
      </trkpt>
      <trkpt lat="48.17008" lon="-2.63622">
        <ele>87.199996948242</ele>
        <time>2021-10-15T10:57:06.000Z</time>
      </trkpt>
      <trkpt lat="48.17008" lon="-2.63621">
        <ele>87.199996948242</ele>
        <time>2021-10-15T10:57:07.000Z</time>
      </trkpt>
      <trkpt lat="48.17008" lon="-2.63621">
        <ele>87.199996948242</ele>
        <time>2021-10-15T10:57:08.000Z</time>
      </trkpt>
      <trkpt lat="48.17008" lon="-2.63621">
        <ele>87.199996948242</ele>
        <time>2021-10-15T10:57:09.000Z</time>
      </trkpt>
      <trkpt lat="48.17008" lon="-2.63621">
        <ele>87.199996948242</ele>
        <time>2021-10-15T10:57:10.000Z</time>
      </trkpt>
      <trkpt lat="48.17008" lon="-2.63621">
        <ele>87.199996948242</ele>
        <time>2021-10-15T10:57:11.000Z</time>
      </trkpt>
      <trkpt lat="48.17008" lon="-2.63621">
        <ele>87.199996948242</ele>
        <time>2021-10-15T10:57:12.000Z</time>
      </trkpt>
      <trkpt lat="48.17008" lon="-2.63621">
        <ele>87.199996948242</ele>
        <time>2021-10-15T10:57:13.000Z</time>
      </trkpt>
      <trkpt lat="48.17008" lon="-2.63621">
        <ele>87.199996948242</ele>
        <time>2021-10-15T10:57:14.000Z</time>
      </trkpt>
      <trkpt lat="48.17008" lon="-2.63621">
        <ele>87.199996948242</ele>
        <time>2021-10-15T10:57:15.000Z</time>
      </trkpt>
      <trkpt lat="48.17008" lon="-2.63621">
        <ele>87.199996948242</ele>
        <time>2021-10-15T10:57:16.000Z</time>
      </trkpt>
      <trkpt lat="48.17007" lon="-2.63621">
        <ele>87.199996948242</ele>
        <time>2021-10-15T10:57:17.000Z</time>
      </trkpt>
      <trkpt lat="48.17008" lon="-2.63621">
        <ele>87.199996948242</ele>
        <time>2021-10-15T10:57:18.000Z</time>
      </trkpt>
      <trkpt lat="48.17008" lon="-2.63621">
        <ele>87.199996948242</ele>
        <time>2021-10-15T10:57:19.000Z</time>
      </trkpt>
      <trkpt lat="48.17008" lon="-2.63621">
        <ele>87.199996948242</ele>
        <time>2021-10-15T10:57:20.000Z</time>
      </trkpt>
      <trkpt lat="48.17008" lon="-2.63621">
        <ele>87.199996948242</ele>
        <time>2021-10-15T10:57:21.000Z</time>
      </trkpt>
      <trkpt lat="48.17008" lon="-2.63621">
        <ele>87.199996948242</ele>
        <time>2021-10-15T10:57:22.000Z</time>
      </trkpt>
      <trkpt lat="48.17008" lon="-2.63621">
        <ele>87.199996948242</ele>
        <time>2021-10-15T10:57:23.000Z</time>
      </trkpt>
      <trkpt lat="48.17008" lon="-2.63621">
        <ele>87.199996948242</ele>
        <time>2021-10-15T10:57:24.000Z</time>
      </trkpt>
      <trkpt lat="48.17008" lon="-2.63621">
        <ele>87.199996948242</ele>
        <time>2021-10-15T10:57:25.000Z</time>
      </trkpt>
      <trkpt lat="48.17008" lon="-2.63621">
        <ele>87.199996948242</ele>
        <time>2021-10-15T10:57:26.000Z</time>
      </trkpt>
      <trkpt lat="48.17008" lon="-2.63621">
        <ele>87.199996948242</ele>
        <time>2021-10-15T10:57:27.000Z</time>
      </trkpt>
      <trkpt lat="48.17008" lon="-2.63621">
        <ele>87.199996948242</ele>
        <time>2021-10-15T10:57:28.000Z</time>
      </trkpt>
      <trkpt lat="48.17008" lon="-2.63621">
        <ele>87.199996948242</ele>
        <time>2021-10-15T10:57:29.000Z</time>
      </trkpt>
      <trkpt lat="48.17008" lon="-2.63621">
        <ele>87.199996948242</ele>
        <time>2021-10-15T10:57:30.000Z</time>
      </trkpt>
      <trkpt lat="48.17008" lon="-2.63621">
        <ele>87.199996948242</ele>
        <time>2021-10-15T10:57:31.000Z</time>
      </trkpt>
      <trkpt lat="48.17008" lon="-2.63621">
        <ele>87.199996948242</ele>
        <time>2021-10-15T10:57:32.000Z</time>
      </trkpt>
      <trkpt lat="48.17008" lon="-2.63621">
        <ele>87.199996948242</ele>
        <time>2021-10-15T10:57:33.000Z</time>
      </trkpt>
      <trkpt lat="48.17008" lon="-2.63621">
        <ele>87.199996948242</ele>
        <time>2021-10-15T10:57:34.000Z</time>
      </trkpt>
      <trkpt lat="48.17008" lon="-2.63621">
        <ele>87.199996948242</ele>
        <time>2021-10-15T10:57:35.000Z</time>
      </trkpt>
      <trkpt lat="48.17008" lon="-2.63621">
        <ele>87.199996948242</ele>
        <time>2021-10-15T10:57:36.000Z</time>
      </trkpt>
      <trkpt lat="48.17008" lon="-2.63621">
        <ele>87.199996948242</ele>
        <time>2021-10-15T10:57:37.000Z</time>
      </trkpt>
      <trkpt lat="48.17009" lon="-2.63621">
        <ele>87.199996948242</ele>
        <time>2021-10-15T10:57:38.000Z</time>
      </trkpt>
      <trkpt lat="48.17009" lon="-2.63621">
        <ele>87.199996948242</ele>
        <time>2021-10-15T10:57:39.000Z</time>
      </trkpt>
      <trkpt lat="48.17009" lon="-2.63621">
        <ele>87.199996948242</ele>
        <time>2021-10-15T10:57:40.000Z</time>
      </trkpt>
      <trkpt lat="48.17009" lon="-2.63621">
        <ele>87.199996948242</ele>
        <time>2021-10-15T10:57:41.000Z</time>
      </trkpt>
      <trkpt lat="48.17009" lon="-2.63621">
        <ele>87.199996948242</ele>
        <time>2021-10-15T10:57:42.000Z</time>
      </trkpt>
      <trkpt lat="48.17009" lon="-2.63621">
        <ele>87.199996948242</ele>
        <time>2021-10-15T10:57:43.000Z</time>
      </trkpt>
      <trkpt lat="48.17009" lon="-2.63621">
        <ele>87.199996948242</ele>
        <time>2021-10-15T10:57:44.000Z</time>
      </trkpt>
      <trkpt lat="48.17009" lon="-2.63621">
        <ele>87.199996948242</ele>
        <time>2021-10-15T10:57:45.000Z</time>
      </trkpt>
      <trkpt lat="48.17009" lon="-2.63621">
        <ele>87.199996948242</ele>
        <time>2021-10-15T10:57:46.000Z</time>
      </trkpt>
      <trkpt lat="48.17009" lon="-2.63621">
        <ele>87.199996948242</ele>
        <time>2021-10-15T10:57:47.000Z</time>
      </trkpt>
      <trkpt lat="48.17009" lon="-2.63621">
        <ele>87.199996948242</ele>
        <time>2021-10-15T10:57:48.000Z</time>
      </trkpt>
      <trkpt lat="48.17009" lon="-2.63621">
        <ele>87.199996948242</ele>
        <time>2021-10-15T10:57:49.000Z</time>
      </trkpt>
      <trkpt lat="48.17009" lon="-2.63621">
        <ele>87.199996948242</ele>
        <time>2021-10-15T10:57:50.000Z</time>
      </trkpt>
      <trkpt lat="48.17009" lon="-2.63621">
        <ele>87.199996948242</ele>
        <time>2021-10-15T10:57:51.000Z</time>
      </trkpt>
      <trkpt lat="48.17009" lon="-2.63621">
        <ele>87.199996948242</ele>
        <time>2021-10-15T10:57:52.000Z</time>
      </trkpt>
      <trkpt lat="48.17009" lon="-2.63621">
        <ele>87.199996948242</ele>
        <time>2021-10-15T10:57:53.000Z</time>
      </trkpt>
      <trkpt lat="48.17009" lon="-2.63621">
        <ele>87.199996948242</ele>
        <time>2021-10-15T10:57:54.000Z</time>
      </trkpt>
      <trkpt lat="48.17009" lon="-2.6362">
        <ele>87.199996948242</ele>
        <time>2021-10-15T10:57:55.000Z</time>
      </trkpt>
      <trkpt lat="48.17009" lon="-2.6362">
        <ele>87.199996948242</ele>
        <time>2021-10-15T10:57:56.000Z</time>
      </trkpt>
      <trkpt lat="48.17009" lon="-2.63621">
        <ele>87.199996948242</ele>
        <time>2021-10-15T10:57:57.000Z</time>
      </trkpt>
      <trkpt lat="48.17009" lon="-2.63621">
        <ele>87.199996948242</ele>
        <time>2021-10-15T10:57:58.000Z</time>
      </trkpt>
      <trkpt lat="48.17009" lon="-2.63621">
        <ele>87.199996948242</ele>
        <time>2021-10-15T10:57:59.000Z</time>
      </trkpt>
      <trkpt lat="48.17009" lon="-2.6362">
        <ele>87.199996948242</ele>
        <time>2021-10-15T10:58:00.000Z</time>
      </trkpt>
      <trkpt lat="48.17009" lon="-2.6362">
        <ele>87.199996948242</ele>
        <time>2021-10-15T10:58:01.000Z</time>
      </trkpt>
      <trkpt lat="48.17009" lon="-2.6362">
        <ele>87.199996948242</ele>
        <time>2021-10-15T10:58:02.000Z</time>
      </trkpt>
      <trkpt lat="48.17009" lon="-2.6362">
        <ele>87.199996948242</ele>
        <time>2021-10-15T10:58:03.000Z</time>
      </trkpt>
      <trkpt lat="48.17009" lon="-2.63621">
        <ele>87.199996948242</ele>
        <time>2021-10-15T10:58:04.000Z</time>
      </trkpt>
      <trkpt lat="48.17009" lon="-2.63621">
        <ele>87.199996948242</ele>
        <time>2021-10-15T10:58:05.000Z</time>
      </trkpt>
      <trkpt lat="48.17009" lon="-2.63621">
        <ele>87.199996948242</ele>
        <time>2021-10-15T10:58:06.000Z</time>
      </trkpt>
      <trkpt lat="48.17009" lon="-2.63621">
        <ele>87.199996948242</ele>
        <time>2021-10-15T10:58:07.000Z</time>
      </trkpt>
      <trkpt lat="48.17009" lon="-2.63621">
        <ele>87.199996948242</ele>
        <time>2021-10-15T10:58:08.000Z</time>
      </trkpt>
      <trkpt lat="48.17009" lon="-2.63621">
        <ele>87.199996948242</ele>
        <time>2021-10-15T10:58:09.000Z</time>
      </trkpt>
      <trkpt lat="48.17009" lon="-2.63621">
        <ele>87.199996948242</ele>
        <time>2021-10-15T10:58:10.000Z</time>
      </trkpt>
      <trkpt lat="48.17009" lon="-2.63621">
        <ele>87.199996948242</ele>
        <time>2021-10-15T10:58:11.000Z</time>
      </trkpt>
      <trkpt lat="48.17009" lon="-2.63621">
        <ele>87.199996948242</ele>
        <time>2021-10-15T10:58:12.000Z</time>
      </trkpt>
      <trkpt lat="48.17009" lon="-2.63621">
        <ele>87.199996948242</ele>
        <time>2021-10-15T10:58:13.000Z</time>
      </trkpt>
      <trkpt lat="48.17009" lon="-2.63621">
        <ele>87.199996948242</ele>
        <time>2021-10-15T10:58:14.000Z</time>
      </trkpt>
      <trkpt lat="48.17009" lon="-2.63621">
        <ele>87.199996948242</ele>
        <time>2021-10-15T10:58:15.000Z</time>
      </trkpt>
      <trkpt lat="48.17009" lon="-2.63621">
        <ele>87.199996948242</ele>
        <time>2021-10-15T10:58:16.000Z</time>
      </trkpt>
      <trkpt lat="48.17009" lon="-2.63621">
        <ele>87.199996948242</ele>
        <time>2021-10-15T10:58:17.000Z</time>
      </trkpt>
      <trkpt lat="48.17009" lon="-2.63621">
        <ele>87.199996948242</ele>
        <time>2021-10-15T10:58:18.000Z</time>
      </trkpt>
      <trkpt lat="48.17009" lon="-2.63621">
        <ele>87.199996948242</ele>
        <time>2021-10-15T10:58:19.000Z</time>
      </trkpt>
      <trkpt lat="48.17009" lon="-2.63621">
        <ele>87.199996948242</ele>
        <time>2021-10-15T10:58:20.000Z</time>
      </trkpt>
      <trkpt lat="48.17009" lon="-2.63621">
        <ele>87.199996948242</ele>
        <time>2021-10-15T10:58:21.000Z</time>
      </trkpt>
      <trkpt lat="48.17009" lon="-2.63621">
        <ele>87.199996948242</ele>
        <time>2021-10-15T10:58:22.000Z</time>
      </trkpt>
      <trkpt lat="48.17009" lon="-2.63621">
        <ele>87.199996948242</ele>
        <time>2021-10-15T10:58:23.000Z</time>
      </trkpt>
      <trkpt lat="48.17009" lon="-2.63621">
        <ele>87.199996948242</ele>
        <time>2021-10-15T10:58:24.000Z</time>
      </trkpt>
      <trkpt lat="48.17009" lon="-2.63621">
        <ele>87.199996948242</ele>
        <time>2021-10-15T10:58:25.000Z</time>
      </trkpt>
      <trkpt lat="48.17009" lon="-2.63621">
        <ele>87.199996948242</ele>
        <time>2021-10-15T10:58:26.000Z</time>
      </trkpt>
      <trkpt lat="48.17009" lon="-2.6362">
        <ele>87.199996948242</ele>
        <time>2021-10-15T10:58:27.000Z</time>
      </trkpt>
      <trkpt lat="48.17009" lon="-2.6362">
        <ele>87.199996948242</ele>
        <time>2021-10-15T10:58:28.000Z</time>
      </trkpt>
      <trkpt lat="48.17009" lon="-2.6362">
        <ele>87.199996948242</ele>
        <time>2021-10-15T10:58:29.000Z</time>
      </trkpt>
      <trkpt lat="48.17009" lon="-2.6362">
        <ele>87.400001525879</ele>
        <time>2021-10-15T10:58:30.000Z</time>
      </trkpt>
      <trkpt lat="48.17009" lon="-2.63619">
        <ele>87.400001525879</ele>
        <time>2021-10-15T10:58:31.000Z</time>
      </trkpt>
      <trkpt lat="48.17009" lon="-2.63619">
        <ele>87.400001525879</ele>
        <time>2021-10-15T10:58:32.000Z</time>
      </trkpt>
      <trkpt lat="48.17009" lon="-2.63619">
        <ele>87.400001525879</ele>
        <time>2021-10-15T10:58:33.000Z</time>
      </trkpt>
      <trkpt lat="48.17009" lon="-2.63619">
        <ele>87.400001525879</ele>
        <time>2021-10-15T10:58:34.000Z</time>
      </trkpt>
      <trkpt lat="48.17009" lon="-2.63618">
        <ele>87.400001525879</ele>
        <time>2021-10-15T10:58:35.000Z</time>
      </trkpt>
      <trkpt lat="48.17008" lon="-2.63619">
        <ele>87.400001525879</ele>
        <time>2021-10-15T10:58:36.000Z</time>
      </trkpt>
      <trkpt lat="48.17008" lon="-2.63618">
        <ele>87.400001525879</ele>
        <time>2021-10-15T10:58:37.000Z</time>
      </trkpt>
      <trkpt lat="48.17008" lon="-2.63618">
        <ele>87.400001525879</ele>
        <time>2021-10-15T10:58:38.000Z</time>
      </trkpt>
      <trkpt lat="48.17008" lon="-2.63618">
        <ele>87.400001525879</ele>
        <time>2021-10-15T10:58:39.000Z</time>
      </trkpt>
      <trkpt lat="48.17008" lon="-2.63618">
        <ele>87.400001525879</ele>
        <time>2021-10-15T10:58:40.000Z</time>
      </trkpt>
      <trkpt lat="48.17008" lon="-2.63618">
        <ele>87.400001525879</ele>
        <time>2021-10-15T10:58:41.000Z</time>
      </trkpt>
      <trkpt lat="48.17008" lon="-2.63618">
        <ele>87.400001525879</ele>
        <time>2021-10-15T10:58:42.000Z</time>
      </trkpt>
      <trkpt lat="48.17008" lon="-2.63618">
        <ele>87.400001525879</ele>
        <time>2021-10-15T10:58:43.000Z</time>
      </trkpt>
      <trkpt lat="48.17008" lon="-2.63618">
        <ele>87.400001525879</ele>
        <time>2021-10-15T10:58:44.000Z</time>
      </trkpt>
      <trkpt lat="48.17008" lon="-2.63618">
        <ele>87.400001525879</ele>
        <time>2021-10-15T10:58:45.000Z</time>
      </trkpt>
      <trkpt lat="48.17008" lon="-2.63618">
        <ele>87.400001525879</ele>
        <time>2021-10-15T10:58:46.000Z</time>
      </trkpt>
      <trkpt lat="48.17007" lon="-2.63618">
        <ele>87.400001525879</ele>
        <time>2021-10-15T10:58:47.000Z</time>
      </trkpt>
      <trkpt lat="48.17007" lon="-2.63618">
        <ele>87.400001525879</ele>
        <time>2021-10-15T10:58:48.000Z</time>
      </trkpt>
      <trkpt lat="48.17007" lon="-2.63618">
        <ele>87.400001525879</ele>
        <time>2021-10-15T10:58:49.000Z</time>
      </trkpt>
      <trkpt lat="48.17007" lon="-2.63618">
        <ele>87.400001525879</ele>
        <time>2021-10-15T10:58:50.000Z</time>
      </trkpt>
      <trkpt lat="48.17007" lon="-2.63618">
        <ele>87.400001525879</ele>
        <time>2021-10-15T10:58:51.000Z</time>
      </trkpt>
      <trkpt lat="48.17007" lon="-2.63618">
        <ele>87.400001525879</ele>
        <time>2021-10-15T10:58:52.000Z</time>
      </trkpt>
      <trkpt lat="48.17007" lon="-2.63618">
        <ele>87.400001525879</ele>
        <time>2021-10-15T10:58:53.000Z</time>
      </trkpt>
      <trkpt lat="48.17007" lon="-2.63618">
        <ele>87.400001525879</ele>
        <time>2021-10-15T10:58:54.000Z</time>
      </trkpt>
      <trkpt lat="48.17007" lon="-2.63619">
        <ele>87.400001525879</ele>
        <time>2021-10-15T10:58:55.000Z</time>
      </trkpt>
      <trkpt lat="48.17007" lon="-2.63619">
        <ele>87.400001525879</ele>
        <time>2021-10-15T10:58:56.000Z</time>
      </trkpt>
      <trkpt lat="48.17007" lon="-2.63619">
        <ele>87.199996948242</ele>
        <time>2021-10-15T10:58:57.000Z</time>
      </trkpt>
      <trkpt lat="48.17007" lon="-2.63619">
        <ele>87.199996948242</ele>
        <time>2021-10-15T10:58:58.000Z</time>
      </trkpt>
      <trkpt lat="48.17007" lon="-2.63619">
        <ele>87.199996948242</ele>
        <time>2021-10-15T10:58:59.000Z</time>
      </trkpt>
      <trkpt lat="48.17007" lon="-2.6362">
        <ele>87.199996948242</ele>
        <time>2021-10-15T10:59:00.000Z</time>
      </trkpt>
      <trkpt lat="48.17007" lon="-2.6362">
        <ele>87.199996948242</ele>
        <time>2021-10-15T10:59:01.000Z</time>
      </trkpt>
      <trkpt lat="48.17007" lon="-2.63619">
        <ele>87.199996948242</ele>
        <time>2021-10-15T10:59:02.000Z</time>
      </trkpt>
      <trkpt lat="48.17007" lon="-2.63619">
        <ele>87.199996948242</ele>
        <time>2021-10-15T10:59:03.000Z</time>
      </trkpt>
      <trkpt lat="48.17007" lon="-2.63619">
        <ele>87.199996948242</ele>
        <time>2021-10-15T10:59:04.000Z</time>
      </trkpt>
      <trkpt lat="48.17007" lon="-2.63619">
        <ele>87.199996948242</ele>
        <time>2021-10-15T10:59:05.000Z</time>
      </trkpt>
      <trkpt lat="48.17007" lon="-2.63619">
        <ele>87.199996948242</ele>
        <time>2021-10-15T10:59:06.000Z</time>
      </trkpt>
      <trkpt lat="48.17007" lon="-2.63619">
        <ele>87.199996948242</ele>
        <time>2021-10-15T10:59:07.000Z</time>
      </trkpt>
      <trkpt lat="48.17007" lon="-2.63619">
        <ele>87.199996948242</ele>
        <time>2021-10-15T10:59:08.000Z</time>
      </trkpt>
      <trkpt lat="48.17007" lon="-2.63619">
        <ele>87.199996948242</ele>
        <time>2021-10-15T10:59:09.000Z</time>
      </trkpt>
      <trkpt lat="48.17007" lon="-2.63619">
        <ele>87.199996948242</ele>
        <time>2021-10-15T10:59:10.000Z</time>
      </trkpt>
      <trkpt lat="48.17007" lon="-2.63619">
        <ele>87.400001525879</ele>
        <time>2021-10-15T10:59:11.000Z</time>
      </trkpt>
      <trkpt lat="48.17008" lon="-2.63619">
        <ele>87.400001525879</ele>
        <time>2021-10-15T10:59:12.000Z</time>
      </trkpt>
      <trkpt lat="48.17009" lon="-2.63619">
        <ele>87.400001525879</ele>
        <time>2021-10-15T10:59:13.000Z</time>
      </trkpt>
      <trkpt lat="48.1701" lon="-2.63619">
        <ele>87.400001525879</ele>
        <time>2021-10-15T10:59:14.000Z</time>
      </trkpt>
      <trkpt lat="48.17012" lon="-2.63618">
        <ele>87.400001525879</ele>
        <time>2021-10-15T10:59:15.000Z</time>
      </trkpt>
      <trkpt lat="48.17013" lon="-2.63618">
        <ele>87.599998474121</ele>
        <time>2021-10-15T10:59:16.000Z</time>
      </trkpt>
      <trkpt lat="48.17015" lon="-2.63618">
        <ele>87.599998474121</ele>
        <time>2021-10-15T10:59:17.000Z</time>
      </trkpt>
      <trkpt lat="48.17017" lon="-2.63617">
        <ele>87.800003051758</ele>
        <time>2021-10-15T10:59:18.000Z</time>
      </trkpt>
      <trkpt lat="48.17019" lon="-2.63616">
        <ele>88</ele>
        <time>2021-10-15T10:59:19.000Z</time>
      </trkpt>
      <trkpt lat="48.17021" lon="-2.63615">
        <ele>88</ele>
        <time>2021-10-15T10:59:20.000Z</time>
      </trkpt>
      <trkpt lat="48.17023" lon="-2.63615">
        <ele>88</ele>
        <time>2021-10-15T10:59:21.000Z</time>
      </trkpt>
      <trkpt lat="48.17025" lon="-2.63614">
        <ele>88</ele>
        <time>2021-10-15T10:59:22.000Z</time>
      </trkpt>
      <trkpt lat="48.17028" lon="-2.63613">
        <ele>88</ele>
        <time>2021-10-15T10:59:23.000Z</time>
      </trkpt>
      <trkpt lat="48.17031" lon="-2.63612">
        <ele>88</ele>
        <time>2021-10-15T10:59:24.000Z</time>
      </trkpt>
      <trkpt lat="48.17034" lon="-2.63611">
        <ele>88.199996948242</ele>
        <time>2021-10-15T10:59:25.000Z</time>
      </trkpt>
      <trkpt lat="48.17036" lon="-2.6361">
        <ele>88.199996948242</ele>
        <time>2021-10-15T10:59:26.000Z</time>
      </trkpt>
      <trkpt lat="48.1704" lon="-2.63609">
        <ele>88.199996948242</ele>
        <time>2021-10-15T10:59:27.000Z</time>
      </trkpt>
      <trkpt lat="48.17043" lon="-2.63608">
        <ele>88.199996948242</ele>
        <time>2021-10-15T10:59:28.000Z</time>
      </trkpt>
      <trkpt lat="48.17047" lon="-2.63607">
        <ele>88.199996948242</ele>
        <time>2021-10-15T10:59:29.000Z</time>
      </trkpt>
      <trkpt lat="48.1705" lon="-2.63607">
        <ele>88.199996948242</ele>
        <time>2021-10-15T10:59:30.000Z</time>
      </trkpt>
      <trkpt lat="48.17053" lon="-2.63606">
        <ele>88.400001525879</ele>
        <time>2021-10-15T10:59:31.000Z</time>
      </trkpt>
      <trkpt lat="48.17057" lon="-2.63604">
        <ele>88.400001525879</ele>
        <time>2021-10-15T10:59:32.000Z</time>
      </trkpt>
      <trkpt lat="48.17061" lon="-2.63603">
        <ele>88.400001525879</ele>
        <time>2021-10-15T10:59:33.000Z</time>
      </trkpt>
      <trkpt lat="48.17065" lon="-2.63601">
        <ele>88.400001525879</ele>
        <time>2021-10-15T10:59:34.000Z</time>
      </trkpt>
      <trkpt lat="48.17069" lon="-2.636">
        <ele>88.599998474121</ele>
        <time>2021-10-15T10:59:35.000Z</time>
      </trkpt>
      <trkpt lat="48.17073" lon="-2.63598">
        <ele>88.599998474121</ele>
        <time>2021-10-15T10:59:36.000Z</time>
      </trkpt>
      <trkpt lat="48.17077" lon="-2.63597">
        <ele>88.599998474121</ele>
        <time>2021-10-15T10:59:37.000Z</time>
      </trkpt>
      <trkpt lat="48.17081" lon="-2.63595">
        <ele>88.400001525879</ele>
        <time>2021-10-15T10:59:38.000Z</time>
      </trkpt>
      <trkpt lat="48.17085" lon="-2.63594">
        <ele>88.400001525879</ele>
        <time>2021-10-15T10:59:39.000Z</time>
      </trkpt>
      <trkpt lat="48.1709" lon="-2.63592">
        <ele>88.199996948242</ele>
        <time>2021-10-15T10:59:40.000Z</time>
      </trkpt>
      <trkpt lat="48.17094" lon="-2.6359">
        <ele>88.199996948242</ele>
        <time>2021-10-15T10:59:41.000Z</time>
      </trkpt>
      <trkpt lat="48.17098" lon="-2.63589">
        <ele>88</ele>
        <time>2021-10-15T10:59:42.000Z</time>
      </trkpt>
      <trkpt lat="48.17102" lon="-2.63587">
        <ele>88</ele>
        <time>2021-10-15T10:59:43.000Z</time>
      </trkpt>
      <trkpt lat="48.17106" lon="-2.63586">
        <ele>87.800003051758</ele>
        <time>2021-10-15T10:59:44.000Z</time>
      </trkpt>
      <trkpt lat="48.17111" lon="-2.63585">
        <ele>87.800003051758</ele>
        <time>2021-10-15T10:59:45.000Z</time>
      </trkpt>
      <trkpt lat="48.17115" lon="-2.63584">
        <ele>87.599998474121</ele>
        <time>2021-10-15T10:59:46.000Z</time>
      </trkpt>
      <trkpt lat="48.1712" lon="-2.63582">
        <ele>87.599998474121</ele>
        <time>2021-10-15T10:59:47.000Z</time>
      </trkpt>
      <trkpt lat="48.17125" lon="-2.6358">
        <ele>87.400001525879</ele>
        <time>2021-10-15T10:59:48.000Z</time>
      </trkpt>
      <trkpt lat="48.17129" lon="-2.63578">
        <ele>87.400001525879</ele>
        <time>2021-10-15T10:59:49.000Z</time>
      </trkpt>
      <trkpt lat="48.17133" lon="-2.63576">
        <ele>87.400001525879</ele>
        <time>2021-10-15T10:59:50.000Z</time>
      </trkpt>
      <trkpt lat="48.17138" lon="-2.63575">
        <ele>87.400001525879</ele>
        <time>2021-10-15T10:59:51.000Z</time>
      </trkpt>
      <trkpt lat="48.17142" lon="-2.63573">
        <ele>87.599998474121</ele>
        <time>2021-10-15T10:59:52.000Z</time>
      </trkpt>
      <trkpt lat="48.17146" lon="-2.63572">
        <ele>87.599998474121</ele>
        <time>2021-10-15T10:59:53.000Z</time>
      </trkpt>
      <trkpt lat="48.17151" lon="-2.6357">
        <ele>87.599998474121</ele>
        <time>2021-10-15T10:59:54.000Z</time>
      </trkpt>
      <trkpt lat="48.17155" lon="-2.63569">
        <ele>87.599998474121</ele>
        <time>2021-10-15T10:59:55.000Z</time>
      </trkpt>
      <trkpt lat="48.1716" lon="-2.63567">
        <ele>87.800003051758</ele>
        <time>2021-10-15T10:59:56.000Z</time>
      </trkpt>
      <trkpt lat="48.17164" lon="-2.63566">
        <ele>88</ele>
        <time>2021-10-15T10:59:57.000Z</time>
      </trkpt>
      <trkpt lat="48.17168" lon="-2.63565">
        <ele>88.199996948242</ele>
        <time>2021-10-15T10:59:58.000Z</time>
      </trkpt>
      <trkpt lat="48.17172" lon="-2.63564">
        <ele>88.400001525879</ele>
        <time>2021-10-15T10:59:59.000Z</time>
      </trkpt>
      <trkpt lat="48.17176" lon="-2.63562">
        <ele>88.599998474121</ele>
        <time>2021-10-15T11:00:00.000Z</time>
      </trkpt>
      <trkpt lat="48.17181" lon="-2.6356">
        <ele>88.800003051758</ele>
        <time>2021-10-15T11:00:01.000Z</time>
      </trkpt>
      <trkpt lat="48.17185" lon="-2.63559">
        <ele>89</ele>
        <time>2021-10-15T11:00:02.000Z</time>
      </trkpt>
      <trkpt lat="48.17189" lon="-2.63557">
        <ele>89</ele>
        <time>2021-10-15T11:00:03.000Z</time>
      </trkpt>
      <trkpt lat="48.17192" lon="-2.63556">
        <ele>89.199996948242</ele>
        <time>2021-10-15T11:00:04.000Z</time>
      </trkpt>
      <trkpt lat="48.17196" lon="-2.63554">
        <ele>89.199996948242</ele>
        <time>2021-10-15T11:00:05.000Z</time>
      </trkpt>
      <trkpt lat="48.172" lon="-2.63553">
        <ele>89.199996948242</ele>
        <time>2021-10-15T11:00:06.000Z</time>
      </trkpt>
      <trkpt lat="48.17204" lon="-2.63552">
        <ele>89.199996948242</ele>
        <time>2021-10-15T11:00:07.000Z</time>
      </trkpt>
      <trkpt lat="48.17208" lon="-2.63551">
        <ele>89.199996948242</ele>
        <time>2021-10-15T11:00:08.000Z</time>
      </trkpt>
      <trkpt lat="48.17212" lon="-2.6355">
        <ele>89.400001525879</ele>
        <time>2021-10-15T11:00:09.000Z</time>
      </trkpt>
      <trkpt lat="48.17216" lon="-2.63548">
        <ele>89.400001525879</ele>
        <time>2021-10-15T11:00:10.000Z</time>
      </trkpt>
      <trkpt lat="48.1722" lon="-2.63547">
        <ele>89.199996948242</ele>
        <time>2021-10-15T11:00:11.000Z</time>
      </trkpt>
      <trkpt lat="48.17224" lon="-2.63546">
        <ele>89</ele>
        <time>2021-10-15T11:00:12.000Z</time>
      </trkpt>
      <trkpt lat="48.17229" lon="-2.63544">
        <ele>89</ele>
        <time>2021-10-15T11:00:13.000Z</time>
      </trkpt>
      <trkpt lat="48.17234" lon="-2.63543">
        <ele>88.800003051758</ele>
        <time>2021-10-15T11:00:14.000Z</time>
      </trkpt>
      <trkpt lat="48.17238" lon="-2.63541">
        <ele>88.800003051758</ele>
        <time>2021-10-15T11:00:15.000Z</time>
      </trkpt>
      <trkpt lat="48.17242" lon="-2.63539">
        <ele>88.599998474121</ele>
        <time>2021-10-15T11:00:16.000Z</time>
      </trkpt>
      <trkpt lat="48.17247" lon="-2.63537">
        <ele>88.599998474121</ele>
        <time>2021-10-15T11:00:17.000Z</time>
      </trkpt>
      <trkpt lat="48.17252" lon="-2.63535">
        <ele>88.400001525879</ele>
        <time>2021-10-15T11:00:18.000Z</time>
      </trkpt>
      <trkpt lat="48.17257" lon="-2.63533">
        <ele>88.400001525879</ele>
        <time>2021-10-15T11:00:19.000Z</time>
      </trkpt>
      <trkpt lat="48.17261" lon="-2.63532">
        <ele>88.199996948242</ele>
        <time>2021-10-15T11:00:20.000Z</time>
      </trkpt>
      <trkpt lat="48.17266" lon="-2.6353">
        <ele>88.199996948242</ele>
        <time>2021-10-15T11:00:21.000Z</time>
      </trkpt>
      <trkpt lat="48.1727" lon="-2.63529">
        <ele>88</ele>
        <time>2021-10-15T11:00:22.000Z</time>
      </trkpt>
      <trkpt lat="48.17274" lon="-2.63527">
        <ele>88</ele>
        <time>2021-10-15T11:00:23.000Z</time>
      </trkpt>
      <trkpt lat="48.17279" lon="-2.63526">
        <ele>87.800003051758</ele>
        <time>2021-10-15T11:00:24.000Z</time>
      </trkpt>
      <trkpt lat="48.17283" lon="-2.63524">
        <ele>87.800003051758</ele>
        <time>2021-10-15T11:00:25.000Z</time>
      </trkpt>
      <trkpt lat="48.17287" lon="-2.63523">
        <ele>87.599998474121</ele>
        <time>2021-10-15T11:00:26.000Z</time>
      </trkpt>
      <trkpt lat="48.17292" lon="-2.63521">
        <ele>87.599998474121</ele>
        <time>2021-10-15T11:00:27.000Z</time>
      </trkpt>
      <trkpt lat="48.17296" lon="-2.63519">
        <ele>87.400001525879</ele>
        <time>2021-10-15T11:00:28.000Z</time>
      </trkpt>
      <trkpt lat="48.17301" lon="-2.63518">
        <ele>87.199996948242</ele>
        <time>2021-10-15T11:00:29.000Z</time>
      </trkpt>
      <trkpt lat="48.17305" lon="-2.63516">
        <ele>87</ele>
        <time>2021-10-15T11:00:30.000Z</time>
      </trkpt>
      <trkpt lat="48.17309" lon="-2.63514">
        <ele>86.599998474121</ele>
        <time>2021-10-15T11:00:31.000Z</time>
      </trkpt>
      <trkpt lat="48.17314" lon="-2.63512">
        <ele>86.400001525879</ele>
        <time>2021-10-15T11:00:32.000Z</time>
      </trkpt>
      <trkpt lat="48.17318" lon="-2.63509">
        <ele>86.199996948242</ele>
        <time>2021-10-15T11:00:33.000Z</time>
      </trkpt>
      <trkpt lat="48.17322" lon="-2.63506">
        <ele>86</ele>
        <time>2021-10-15T11:00:34.000Z</time>
      </trkpt>
      <trkpt lat="48.17326" lon="-2.63503">
        <ele>86</ele>
        <time>2021-10-15T11:00:35.000Z</time>
      </trkpt>
      <trkpt lat="48.17331" lon="-2.63499">
        <ele>85.800003051758</ele>
        <time>2021-10-15T11:00:36.000Z</time>
      </trkpt>
      <trkpt lat="48.17335" lon="-2.63495">
        <ele>85.800003051758</ele>
        <time>2021-10-15T11:00:37.000Z</time>
      </trkpt>
      <trkpt lat="48.17339" lon="-2.6349">
        <ele>86</ele>
        <time>2021-10-15T11:00:38.000Z</time>
      </trkpt>
      <trkpt lat="48.17343" lon="-2.63485">
        <ele>86</ele>
        <time>2021-10-15T11:00:39.000Z</time>
      </trkpt>
      <trkpt lat="48.17347" lon="-2.63481">
        <ele>86</ele>
        <time>2021-10-15T11:00:40.000Z</time>
      </trkpt>
      <trkpt lat="48.17351" lon="-2.63477">
        <ele>86</ele>
        <time>2021-10-15T11:00:41.000Z</time>
      </trkpt>
      <trkpt lat="48.17355" lon="-2.63472">
        <ele>86.199996948242</ele>
        <time>2021-10-15T11:00:42.000Z</time>
      </trkpt>
      <trkpt lat="48.17359" lon="-2.63468">
        <ele>86.599998474121</ele>
        <time>2021-10-15T11:00:43.000Z</time>
      </trkpt>
      <trkpt lat="48.17363" lon="-2.63463">
        <ele>87</ele>
        <time>2021-10-15T11:00:44.000Z</time>
      </trkpt>
      <trkpt lat="48.17368" lon="-2.63458">
        <ele>87.199996948242</ele>
        <time>2021-10-15T11:00:45.000Z</time>
      </trkpt>
      <trkpt lat="48.17372" lon="-2.63454">
        <ele>87.599998474121</ele>
        <time>2021-10-15T11:00:46.000Z</time>
      </trkpt>
      <trkpt lat="48.17375" lon="-2.63449">
        <ele>88</ele>
        <time>2021-10-15T11:00:47.000Z</time>
      </trkpt>
      <trkpt lat="48.17379" lon="-2.63445">
        <ele>88.199996948242</ele>
        <time>2021-10-15T11:00:48.000Z</time>
      </trkpt>
      <trkpt lat="48.17382" lon="-2.6344">
        <ele>88.400001525879</ele>
        <time>2021-10-15T11:00:49.000Z</time>
      </trkpt>
      <trkpt lat="48.17385" lon="-2.63436">
        <ele>88.599998474121</ele>
        <time>2021-10-15T11:00:50.000Z</time>
      </trkpt>
      <trkpt lat="48.17389" lon="-2.63431">
        <ele>88.800003051758</ele>
        <time>2021-10-15T11:00:51.000Z</time>
      </trkpt>
      <trkpt lat="48.17392" lon="-2.63426">
        <ele>89.199996948242</ele>
        <time>2021-10-15T11:00:52.000Z</time>
      </trkpt>
      <trkpt lat="48.17395" lon="-2.63421">
        <ele>89.400001525879</ele>
        <time>2021-10-15T11:00:53.000Z</time>
      </trkpt>
      <trkpt lat="48.17398" lon="-2.63416">
        <ele>89.599998474121</ele>
        <time>2021-10-15T11:00:54.000Z</time>
      </trkpt>
      <trkpt lat="48.17401" lon="-2.63411">
        <ele>90</ele>
        <time>2021-10-15T11:00:55.000Z</time>
      </trkpt>
      <trkpt lat="48.17403" lon="-2.63406">
        <ele>90.199996948242</ele>
        <time>2021-10-15T11:00:56.000Z</time>
      </trkpt>
      <trkpt lat="48.17406" lon="-2.63401">
        <ele>90.400001525879</ele>
        <time>2021-10-15T11:00:57.000Z</time>
      </trkpt>
      <trkpt lat="48.17408" lon="-2.63396">
        <ele>90.599998474121</ele>
        <time>2021-10-15T11:00:58.000Z</time>
      </trkpt>
      <trkpt lat="48.1741" lon="-2.63392">
        <ele>90.800003051758</ele>
        <time>2021-10-15T11:00:59.000Z</time>
      </trkpt>
      <trkpt lat="48.17412" lon="-2.63388">
        <ele>90.599998474121</ele>
        <time>2021-10-15T11:01:00.000Z</time>
      </trkpt>
      <trkpt lat="48.17413" lon="-2.63384">
        <ele>90.599998474121</ele>
        <time>2021-10-15T11:01:01.000Z</time>
      </trkpt>
      <trkpt lat="48.17415" lon="-2.63379">
        <ele>90.400001525879</ele>
        <time>2021-10-15T11:01:02.000Z</time>
      </trkpt>
      <trkpt lat="48.17417" lon="-2.63373">
        <ele>90.400001525879</ele>
        <time>2021-10-15T11:01:03.000Z</time>
      </trkpt>
      <trkpt lat="48.17419" lon="-2.63367">
        <ele>90.400001525879</ele>
        <time>2021-10-15T11:01:04.000Z</time>
      </trkpt>
      <trkpt lat="48.1742" lon="-2.63361">
        <ele>90.199996948242</ele>
        <time>2021-10-15T11:01:05.000Z</time>
      </trkpt>
      <trkpt lat="48.17422" lon="-2.63354">
        <ele>90.400001525879</ele>
        <time>2021-10-15T11:01:06.000Z</time>
      </trkpt>
      <trkpt lat="48.17423" lon="-2.63347">
        <ele>90.400001525879</ele>
        <time>2021-10-15T11:01:07.000Z</time>
      </trkpt>
      <trkpt lat="48.17424" lon="-2.63341">
        <ele>90.599998474121</ele>
        <time>2021-10-15T11:01:08.000Z</time>
      </trkpt>
      <trkpt lat="48.17425" lon="-2.63335">
        <ele>90.599998474121</ele>
        <time>2021-10-15T11:01:09.000Z</time>
      </trkpt>
      <trkpt lat="48.17425" lon="-2.63328">
        <ele>91</ele>
        <time>2021-10-15T11:01:10.000Z</time>
      </trkpt>
      <trkpt lat="48.17426" lon="-2.63321">
        <ele>91.599998474121</ele>
        <time>2021-10-15T11:01:11.000Z</time>
      </trkpt>
      <trkpt lat="48.17427" lon="-2.63313">
        <ele>92</ele>
        <time>2021-10-15T11:01:12.000Z</time>
      </trkpt>
      <trkpt lat="48.17427" lon="-2.63307">
        <ele>92.400001525879</ele>
        <time>2021-10-15T11:01:13.000Z</time>
      </trkpt>
      <trkpt lat="48.17428" lon="-2.633">
        <ele>92.800003051758</ele>
        <time>2021-10-15T11:01:14.000Z</time>
      </trkpt>
      <trkpt lat="48.17428" lon="-2.63293">
        <ele>93.199996948242</ele>
        <time>2021-10-15T11:01:15.000Z</time>
      </trkpt>
      <trkpt lat="48.17429" lon="-2.63286">
        <ele>93.599998474121</ele>
        <time>2021-10-15T11:01:16.000Z</time>
      </trkpt>
      <trkpt lat="48.1743" lon="-2.63278">
        <ele>94</ele>
        <time>2021-10-15T11:01:17.000Z</time>
      </trkpt>
      <trkpt lat="48.17431" lon="-2.63271">
        <ele>94.400001525879</ele>
        <time>2021-10-15T11:01:18.000Z</time>
      </trkpt>
      <trkpt lat="48.17432" lon="-2.63265">
        <ele>94.800003051758</ele>
        <time>2021-10-15T11:01:19.000Z</time>
      </trkpt>
      <trkpt lat="48.17433" lon="-2.63259">
        <ele>95</ele>
        <time>2021-10-15T11:01:20.000Z</time>
      </trkpt>
      <trkpt lat="48.17434" lon="-2.63253">
        <ele>95.199996948242</ele>
        <time>2021-10-15T11:01:21.000Z</time>
      </trkpt>
      <trkpt lat="48.17435" lon="-2.63247">
        <ele>95.400001525879</ele>
        <time>2021-10-15T11:01:22.000Z</time>
      </trkpt>
      <trkpt lat="48.17435" lon="-2.6324">
        <ele>95.599998474121</ele>
        <time>2021-10-15T11:01:23.000Z</time>
      </trkpt>
      <trkpt lat="48.17436" lon="-2.63233">
        <ele>95.599998474121</ele>
        <time>2021-10-15T11:01:24.000Z</time>
      </trkpt>
      <trkpt lat="48.17436" lon="-2.63225">
        <ele>95.800003051758</ele>
        <time>2021-10-15T11:01:25.000Z</time>
      </trkpt>
      <trkpt lat="48.17437" lon="-2.63218">
        <ele>96</ele>
        <time>2021-10-15T11:01:26.000Z</time>
      </trkpt>
      <trkpt lat="48.17437" lon="-2.6321">
        <ele>96.199996948242</ele>
        <time>2021-10-15T11:01:27.000Z</time>
      </trkpt>
      <trkpt lat="48.17438" lon="-2.63203">
        <ele>96.400001525879</ele>
        <time>2021-10-15T11:01:28.000Z</time>
      </trkpt>
      <trkpt lat="48.17438" lon="-2.63196">
        <ele>96.599998474121</ele>
        <time>2021-10-15T11:01:29.000Z</time>
      </trkpt>
      <trkpt lat="48.17438" lon="-2.6319">
        <ele>97</ele>
        <time>2021-10-15T11:01:30.000Z</time>
      </trkpt>
      <trkpt lat="48.17439" lon="-2.63183">
        <ele>97.199996948242</ele>
        <time>2021-10-15T11:01:31.000Z</time>
      </trkpt>
      <trkpt lat="48.1744" lon="-2.63176">
        <ele>97.599998474121</ele>
        <time>2021-10-15T11:01:32.000Z</time>
      </trkpt>
      <trkpt lat="48.17441" lon="-2.63169">
        <ele>98</ele>
        <time>2021-10-15T11:01:33.000Z</time>
      </trkpt>
      <trkpt lat="48.17442" lon="-2.63163">
        <ele>98.400001525879</ele>
        <time>2021-10-15T11:01:34.000Z</time>
      </trkpt>
      <trkpt lat="48.17444" lon="-2.63157">
        <ele>98.400001525879</ele>
        <time>2021-10-15T11:01:35.000Z</time>
      </trkpt>
      <trkpt lat="48.17446" lon="-2.6315">
        <ele>98.199996948242</ele>
        <time>2021-10-15T11:01:36.000Z</time>
      </trkpt>
      <trkpt lat="48.17447" lon="-2.63144">
        <ele>98.199996948242</ele>
        <time>2021-10-15T11:01:37.000Z</time>
      </trkpt>
      <trkpt lat="48.17449" lon="-2.63138">
        <ele>98.400001525879</ele>
        <time>2021-10-15T11:01:38.000Z</time>
      </trkpt>
      <trkpt lat="48.1745" lon="-2.63132">
        <ele>98.599998474121</ele>
        <time>2021-10-15T11:01:39.000Z</time>
      </trkpt>
      <trkpt lat="48.17453" lon="-2.63126">
        <ele>98.800003051758</ele>
        <time>2021-10-15T11:01:40.000Z</time>
      </trkpt>
      <trkpt lat="48.17455" lon="-2.6312">
        <ele>98.800003051758</ele>
        <time>2021-10-15T11:01:41.000Z</time>
      </trkpt>
      <trkpt lat="48.17456" lon="-2.63114">
        <ele>98.800003051758</ele>
        <time>2021-10-15T11:01:42.000Z</time>
      </trkpt>
      <trkpt lat="48.17458" lon="-2.63107">
        <ele>98.800003051758</ele>
        <time>2021-10-15T11:01:43.000Z</time>
      </trkpt>
      <trkpt lat="48.1746" lon="-2.63101">
        <ele>98.800003051758</ele>
        <time>2021-10-15T11:01:44.000Z</time>
      </trkpt>
      <trkpt lat="48.17462" lon="-2.63095">
        <ele>98.800003051758</ele>
        <time>2021-10-15T11:01:45.000Z</time>
      </trkpt>
      <trkpt lat="48.17465" lon="-2.6309">
        <ele>98.599998474121</ele>
        <time>2021-10-15T11:01:46.000Z</time>
      </trkpt>
      <trkpt lat="48.17467" lon="-2.63085">
        <ele>98.599998474121</ele>
        <time>2021-10-15T11:01:47.000Z</time>
      </trkpt>
      <trkpt lat="48.1747" lon="-2.63079">
        <ele>98.599998474121</ele>
        <time>2021-10-15T11:01:48.000Z</time>
      </trkpt>
      <trkpt lat="48.17473" lon="-2.63074">
        <ele>98.599998474121</ele>
        <time>2021-10-15T11:01:49.000Z</time>
      </trkpt>
      <trkpt lat="48.17476" lon="-2.63068">
        <ele>98.599998474121</ele>
        <time>2021-10-15T11:01:50.000Z</time>
      </trkpt>
      <trkpt lat="48.17478" lon="-2.63062">
        <ele>98.599998474121</ele>
        <time>2021-10-15T11:01:51.000Z</time>
      </trkpt>
      <trkpt lat="48.17481" lon="-2.63057">
        <ele>98.599998474121</ele>
        <time>2021-10-15T11:01:52.000Z</time>
      </trkpt>
      <trkpt lat="48.17483" lon="-2.6305">
        <ele>98.400001525879</ele>
        <time>2021-10-15T11:01:53.000Z</time>
      </trkpt>
      <trkpt lat="48.17485" lon="-2.63045">
        <ele>98.400001525879</ele>
        <time>2021-10-15T11:01:54.000Z</time>
      </trkpt>
      <trkpt lat="48.17486" lon="-2.63039">
        <ele>98.400001525879</ele>
        <time>2021-10-15T11:01:55.000Z</time>
      </trkpt>
      <trkpt lat="48.17488" lon="-2.63033">
        <ele>98.400001525879</ele>
        <time>2021-10-15T11:01:56.000Z</time>
      </trkpt>
      <trkpt lat="48.17489" lon="-2.63028">
        <ele>98.400001525879</ele>
        <time>2021-10-15T11:01:57.000Z</time>
      </trkpt>
      <trkpt lat="48.17491" lon="-2.63023">
        <ele>98.400001525879</ele>
        <time>2021-10-15T11:01:58.000Z</time>
      </trkpt>
      <trkpt lat="48.17493" lon="-2.63017">
        <ele>98</ele>
        <time>2021-10-15T11:01:59.000Z</time>
      </trkpt>
      <trkpt lat="48.17495" lon="-2.63011">
        <ele>97.599998474121</ele>
        <time>2021-10-15T11:02:00.000Z</time>
      </trkpt>
      <trkpt lat="48.17498" lon="-2.63005">
        <ele>97.199996948242</ele>
        <time>2021-10-15T11:02:01.000Z</time>
      </trkpt>
      <trkpt lat="48.17501" lon="-2.62999">
        <ele>96.800003051758</ele>
        <time>2021-10-15T11:02:02.000Z</time>
      </trkpt>
      <trkpt lat="48.17503" lon="-2.62992">
        <ele>96.800003051758</ele>
        <time>2021-10-15T11:02:03.000Z</time>
      </trkpt>
      <trkpt lat="48.17506" lon="-2.62985">
        <ele>96.400001525879</ele>
        <time>2021-10-15T11:02:04.000Z</time>
      </trkpt>
      <trkpt lat="48.17509" lon="-2.62979">
        <ele>96</ele>
        <time>2021-10-15T11:02:05.000Z</time>
      </trkpt>
      <trkpt lat="48.17511" lon="-2.62973">
        <ele>96</ele>
        <time>2021-10-15T11:02:06.000Z</time>
      </trkpt>
      <trkpt lat="48.17514" lon="-2.62967">
        <ele>96</ele>
        <time>2021-10-15T11:02:07.000Z</time>
      </trkpt>
      <trkpt lat="48.17517" lon="-2.6296">
        <ele>96</ele>
        <time>2021-10-15T11:02:08.000Z</time>
      </trkpt>
      <trkpt lat="48.1752" lon="-2.62954">
        <ele>96.199996948242</ele>
        <time>2021-10-15T11:02:09.000Z</time>
      </trkpt>
      <trkpt lat="48.17523" lon="-2.62948">
        <ele>96.400001525879</ele>
        <time>2021-10-15T11:02:10.000Z</time>
      </trkpt>
      <trkpt lat="48.17525" lon="-2.62941">
        <ele>96.599998474121</ele>
        <time>2021-10-15T11:02:11.000Z</time>
      </trkpt>
      <trkpt lat="48.17528" lon="-2.62936">
        <ele>96.800003051758</ele>
        <time>2021-10-15T11:02:12.000Z</time>
      </trkpt>
      <trkpt lat="48.1753" lon="-2.6293">
        <ele>97.199996948242</ele>
        <time>2021-10-15T11:02:13.000Z</time>
      </trkpt>
      <trkpt lat="48.17532" lon="-2.62924">
        <ele>97.599998474121</ele>
        <time>2021-10-15T11:02:14.000Z</time>
      </trkpt>
      <trkpt lat="48.17534" lon="-2.62918">
        <ele>97.800003051758</ele>
        <time>2021-10-15T11:02:15.000Z</time>
      </trkpt>
      <trkpt lat="48.17536" lon="-2.62911">
        <ele>97.800003051758</ele>
        <time>2021-10-15T11:02:16.000Z</time>
      </trkpt>
      <trkpt lat="48.17539" lon="-2.62904">
        <ele>97.800003051758</ele>
        <time>2021-10-15T11:02:17.000Z</time>
      </trkpt>
      <trkpt lat="48.17541" lon="-2.62898">
        <ele>97.800003051758</ele>
        <time>2021-10-15T11:02:18.000Z</time>
      </trkpt>
      <trkpt lat="48.17543" lon="-2.62892">
        <ele>97.599998474121</ele>
        <time>2021-10-15T11:02:19.000Z</time>
      </trkpt>
      <trkpt lat="48.17546" lon="-2.62886">
        <ele>97.400001525879</ele>
        <time>2021-10-15T11:02:20.000Z</time>
      </trkpt>
      <trkpt lat="48.17549" lon="-2.6288">
        <ele>97</ele>
        <time>2021-10-15T11:02:21.000Z</time>
      </trkpt>
      <trkpt lat="48.17552" lon="-2.62875">
        <ele>96.400001525879</ele>
        <time>2021-10-15T11:02:22.000Z</time>
      </trkpt>
      <trkpt lat="48.17554" lon="-2.62869">
        <ele>95.800003051758</ele>
        <time>2021-10-15T11:02:23.000Z</time>
      </trkpt>
      <trkpt lat="48.17557" lon="-2.62864">
        <ele>95.400001525879</ele>
        <time>2021-10-15T11:02:24.000Z</time>
      </trkpt>
      <trkpt lat="48.17561" lon="-2.62858">
        <ele>95.199996948242</ele>
        <time>2021-10-15T11:02:25.000Z</time>
      </trkpt>
      <trkpt lat="48.17563" lon="-2.62853">
        <ele>95</ele>
        <time>2021-10-15T11:02:26.000Z</time>
      </trkpt>
      <trkpt lat="48.17566" lon="-2.62848">
        <ele>94.800003051758</ele>
        <time>2021-10-15T11:02:27.000Z</time>
      </trkpt>
      <trkpt lat="48.1757" lon="-2.62843">
        <ele>94.400001525879</ele>
        <time>2021-10-15T11:02:28.000Z</time>
      </trkpt>
      <trkpt lat="48.17573" lon="-2.62838">
        <ele>94.199996948242</ele>
        <time>2021-10-15T11:02:29.000Z</time>
      </trkpt>
      <trkpt lat="48.17576" lon="-2.62834">
        <ele>94</ele>
        <time>2021-10-15T11:02:30.000Z</time>
      </trkpt>
      <trkpt lat="48.17578" lon="-2.62828">
        <ele>94.199996948242</ele>
        <time>2021-10-15T11:02:31.000Z</time>
      </trkpt>
      <trkpt lat="48.17581" lon="-2.62823">
        <ele>94.199996948242</ele>
        <time>2021-10-15T11:02:32.000Z</time>
      </trkpt>
      <trkpt lat="48.17584" lon="-2.62817">
        <ele>94.400001525879</ele>
        <time>2021-10-15T11:02:33.000Z</time>
      </trkpt>
      <trkpt lat="48.17586" lon="-2.62811">
        <ele>94.599998474121</ele>
        <time>2021-10-15T11:02:34.000Z</time>
      </trkpt>
      <trkpt lat="48.17589" lon="-2.62805">
        <ele>94.800003051758</ele>
        <time>2021-10-15T11:02:35.000Z</time>
      </trkpt>
      <trkpt lat="48.17592" lon="-2.62799">
        <ele>94.800003051758</ele>
        <time>2021-10-15T11:02:36.000Z</time>
      </trkpt>
      <trkpt lat="48.17596" lon="-2.62793">
        <ele>94.800003051758</ele>
        <time>2021-10-15T11:02:37.000Z</time>
      </trkpt>
      <trkpt lat="48.17599" lon="-2.62788">
        <ele>94.800003051758</ele>
        <time>2021-10-15T11:02:38.000Z</time>
      </trkpt>
      <trkpt lat="48.17603" lon="-2.62784">
        <ele>94.800003051758</ele>
        <time>2021-10-15T11:02:39.000Z</time>
      </trkpt>
      <trkpt lat="48.17607" lon="-2.6278">
        <ele>94.800003051758</ele>
        <time>2021-10-15T11:02:40.000Z</time>
      </trkpt>
      <trkpt lat="48.17612" lon="-2.62776">
        <ele>94.599998474121</ele>
        <time>2021-10-15T11:02:41.000Z</time>
      </trkpt>
      <trkpt lat="48.17616" lon="-2.62773">
        <ele>94.599998474121</ele>
        <time>2021-10-15T11:02:42.000Z</time>
      </trkpt>
      <trkpt lat="48.17621" lon="-2.62768">
        <ele>94.599998474121</ele>
        <time>2021-10-15T11:02:43.000Z</time>
      </trkpt>
      <trkpt lat="48.17625" lon="-2.62764">
        <ele>94.599998474121</ele>
        <time>2021-10-15T11:02:44.000Z</time>
      </trkpt>
      <trkpt lat="48.1763" lon="-2.6276">
        <ele>94.599998474121</ele>
        <time>2021-10-15T11:02:45.000Z</time>
      </trkpt>
      <trkpt lat="48.17634" lon="-2.62756">
        <ele>94.599998474121</ele>
        <time>2021-10-15T11:02:46.000Z</time>
      </trkpt>
      <trkpt lat="48.17638" lon="-2.62752">
        <ele>94.800003051758</ele>
        <time>2021-10-15T11:02:47.000Z</time>
      </trkpt>
      <trkpt lat="48.17643" lon="-2.62748">
        <ele>95</ele>
        <time>2021-10-15T11:02:48.000Z</time>
      </trkpt>
      <trkpt lat="48.17647" lon="-2.62745">
        <ele>95</ele>
        <time>2021-10-15T11:02:49.000Z</time>
      </trkpt>
      <trkpt lat="48.17651" lon="-2.62741">
        <ele>95.199996948242</ele>
        <time>2021-10-15T11:02:50.000Z</time>
      </trkpt>
      <trkpt lat="48.17655" lon="-2.62738">
        <ele>95.199996948242</ele>
        <time>2021-10-15T11:02:51.000Z</time>
      </trkpt>
      <trkpt lat="48.1766" lon="-2.62734">
        <ele>95.199996948242</ele>
        <time>2021-10-15T11:02:52.000Z</time>
      </trkpt>
      <trkpt lat="48.17664" lon="-2.62731">
        <ele>95.199996948242</ele>
        <time>2021-10-15T11:02:53.000Z</time>
      </trkpt>
      <trkpt lat="48.17669" lon="-2.62728">
        <ele>95</ele>
        <time>2021-10-15T11:02:54.000Z</time>
      </trkpt>
      <trkpt lat="48.17673" lon="-2.62726">
        <ele>94.800003051758</ele>
        <time>2021-10-15T11:02:55.000Z</time>
      </trkpt>
      <trkpt lat="48.17678" lon="-2.62723">
        <ele>95</ele>
        <time>2021-10-15T11:02:56.000Z</time>
      </trkpt>
      <trkpt lat="48.17683" lon="-2.62721">
        <ele>95.199996948242</ele>
        <time>2021-10-15T11:02:57.000Z</time>
      </trkpt>
      <trkpt lat="48.17688" lon="-2.62719">
        <ele>95</ele>
        <time>2021-10-15T11:02:58.000Z</time>
      </trkpt>
      <trkpt lat="48.17692" lon="-2.62717">
        <ele>94.599998474121</ele>
        <time>2021-10-15T11:02:59.000Z</time>
      </trkpt>
      <trkpt lat="48.17697" lon="-2.62715">
        <ele>94.400001525879</ele>
        <time>2021-10-15T11:03:00.000Z</time>
      </trkpt>
      <trkpt lat="48.17701" lon="-2.62713">
        <ele>94.199996948242</ele>
        <time>2021-10-15T11:03:01.000Z</time>
      </trkpt>
      <trkpt lat="48.17705" lon="-2.62711">
        <ele>94</ele>
        <time>2021-10-15T11:03:02.000Z</time>
      </trkpt>
      <trkpt lat="48.1771" lon="-2.62708">
        <ele>94</ele>
        <time>2021-10-15T11:03:03.000Z</time>
      </trkpt>
      <trkpt lat="48.17714" lon="-2.62704">
        <ele>94</ele>
        <time>2021-10-15T11:03:04.000Z</time>
      </trkpt>
      <trkpt lat="48.17719" lon="-2.62702">
        <ele>93.400001525879</ele>
        <time>2021-10-15T11:03:05.000Z</time>
      </trkpt>
      <trkpt lat="48.17723" lon="-2.62699">
        <ele>93</ele>
        <time>2021-10-15T11:03:06.000Z</time>
      </trkpt>
      <trkpt lat="48.17728" lon="-2.62696">
        <ele>92.800003051758</ele>
        <time>2021-10-15T11:03:07.000Z</time>
      </trkpt>
      <trkpt lat="48.17734" lon="-2.62693">
        <ele>92.199996948242</ele>
        <time>2021-10-15T11:03:08.000Z</time>
      </trkpt>
      <trkpt lat="48.17739" lon="-2.62691">
        <ele>91.800003051758</ele>
        <time>2021-10-15T11:03:09.000Z</time>
      </trkpt>
      <trkpt lat="48.17745" lon="-2.62689">
        <ele>91.199996948242</ele>
        <time>2021-10-15T11:03:10.000Z</time>
      </trkpt>
      <trkpt lat="48.17752" lon="-2.62686">
        <ele>91</ele>
        <time>2021-10-15T11:03:11.000Z</time>
      </trkpt>
      <trkpt lat="48.17756" lon="-2.62684">
        <ele>91</ele>
        <time>2021-10-15T11:03:12.000Z</time>
      </trkpt>
      <trkpt lat="48.17761" lon="-2.62681">
        <ele>91</ele>
        <time>2021-10-15T11:03:13.000Z</time>
      </trkpt>
      <trkpt lat="48.17766" lon="-2.62678">
        <ele>91.199996948242</ele>
        <time>2021-10-15T11:03:14.000Z</time>
      </trkpt>
      <trkpt lat="48.1777" lon="-2.62676">
        <ele>91.199996948242</ele>
        <time>2021-10-15T11:03:15.000Z</time>
      </trkpt>
      <trkpt lat="48.17775" lon="-2.62673">
        <ele>91</ele>
        <time>2021-10-15T11:03:16.000Z</time>
      </trkpt>
      <trkpt lat="48.17779" lon="-2.6267">
        <ele>90.800003051758</ele>
        <time>2021-10-15T11:03:17.000Z</time>
      </trkpt>
      <trkpt lat="48.17784" lon="-2.62667">
        <ele>90.599998474121</ele>
        <time>2021-10-15T11:03:18.000Z</time>
      </trkpt>
      <trkpt lat="48.17789" lon="-2.62663">
        <ele>90.400001525879</ele>
        <time>2021-10-15T11:03:19.000Z</time>
      </trkpt>
      <trkpt lat="48.17794" lon="-2.62658">
        <ele>90.199996948242</ele>
        <time>2021-10-15T11:03:20.000Z</time>
      </trkpt>
      <trkpt lat="48.17799" lon="-2.62655">
        <ele>90</ele>
        <time>2021-10-15T11:03:21.000Z</time>
      </trkpt>
      <trkpt lat="48.17803" lon="-2.62649">
        <ele>90.199996948242</ele>
        <time>2021-10-15T11:03:22.000Z</time>
      </trkpt>
      <trkpt lat="48.17808" lon="-2.62645">
        <ele>90.400001525879</ele>
        <time>2021-10-15T11:03:23.000Z</time>
      </trkpt>
      <trkpt lat="48.17813" lon="-2.62641">
        <ele>90.400001525879</ele>
        <time>2021-10-15T11:03:24.000Z</time>
      </trkpt>
      <trkpt lat="48.1782" lon="-2.6263">
        <ele>90.599998474121</ele>
        <time>2021-10-15T11:03:25.000Z</time>
      </trkpt>
      <trkpt lat="48.17826" lon="-2.62618">
        <ele>90.800003051758</ele>
        <time>2021-10-15T11:03:26.000Z</time>
      </trkpt>
      <trkpt lat="48.17832" lon="-2.62609">
        <ele>90.800003051758</ele>
        <time>2021-10-15T11:03:27.000Z</time>
      </trkpt>
      <trkpt lat="48.17837" lon="-2.62602">
        <ele>91</ele>
        <time>2021-10-15T11:03:28.000Z</time>
      </trkpt>
      <trkpt lat="48.17843" lon="-2.62596">
        <ele>91</ele>
        <time>2021-10-15T11:03:29.000Z</time>
      </trkpt>
      <trkpt lat="48.17848" lon="-2.62588">
        <ele>91.400001525879</ele>
        <time>2021-10-15T11:03:30.000Z</time>
      </trkpt>
      <trkpt lat="48.17853" lon="-2.62582">
        <ele>91.199996948242</ele>
        <time>2021-10-15T11:03:31.000Z</time>
      </trkpt>
      <trkpt lat="48.17858" lon="-2.62575">
        <ele>91.199996948242</ele>
        <time>2021-10-15T11:03:32.000Z</time>
      </trkpt>
      <trkpt lat="48.17862" lon="-2.6257">
        <ele>91.199996948242</ele>
        <time>2021-10-15T11:03:33.000Z</time>
      </trkpt>
      <trkpt lat="48.17867" lon="-2.62566">
        <ele>91.199996948242</ele>
        <time>2021-10-15T11:03:34.000Z</time>
      </trkpt>
      <trkpt lat="48.17871" lon="-2.62561">
        <ele>91.199996948242</ele>
        <time>2021-10-15T11:03:35.000Z</time>
      </trkpt>
      <trkpt lat="48.17876" lon="-2.62556">
        <ele>91.199996948242</ele>
        <time>2021-10-15T11:03:36.000Z</time>
      </trkpt>
      <trkpt lat="48.1788" lon="-2.62553">
        <ele>91.199996948242</ele>
        <time>2021-10-15T11:03:37.000Z</time>
      </trkpt>
      <trkpt lat="48.17885" lon="-2.6255">
        <ele>91.199996948242</ele>
        <time>2021-10-15T11:03:38.000Z</time>
      </trkpt>
      <trkpt lat="48.17889" lon="-2.62546">
        <ele>91.199996948242</ele>
        <time>2021-10-15T11:03:39.000Z</time>
      </trkpt>
      <trkpt lat="48.17894" lon="-2.62543">
        <ele>91</ele>
        <time>2021-10-15T11:03:40.000Z</time>
      </trkpt>
      <trkpt lat="48.17899" lon="-2.6254">
        <ele>91</ele>
        <time>2021-10-15T11:03:41.000Z</time>
      </trkpt>
      <trkpt lat="48.17904" lon="-2.62537">
        <ele>91</ele>
        <time>2021-10-15T11:03:42.000Z</time>
      </trkpt>
      <trkpt lat="48.17909" lon="-2.62534">
        <ele>90.800003051758</ele>
        <time>2021-10-15T11:03:43.000Z</time>
      </trkpt>
      <trkpt lat="48.17913" lon="-2.62531">
        <ele>90.800003051758</ele>
        <time>2021-10-15T11:03:44.000Z</time>
      </trkpt>
      <trkpt lat="48.17917" lon="-2.62528">
        <ele>90.800003051758</ele>
        <time>2021-10-15T11:03:45.000Z</time>
      </trkpt>
      <trkpt lat="48.17921" lon="-2.62526">
        <ele>91</ele>
        <time>2021-10-15T11:03:46.000Z</time>
      </trkpt>
      <trkpt lat="48.17925" lon="-2.62523">
        <ele>91</ele>
        <time>2021-10-15T11:03:47.000Z</time>
      </trkpt>
      <trkpt lat="48.17929" lon="-2.62521">
        <ele>91</ele>
        <time>2021-10-15T11:03:48.000Z</time>
      </trkpt>
      <trkpt lat="48.17932" lon="-2.62518">
        <ele>91</ele>
        <time>2021-10-15T11:03:49.000Z</time>
      </trkpt>
      <trkpt lat="48.17936" lon="-2.62515">
        <ele>91.199996948242</ele>
        <time>2021-10-15T11:03:50.000Z</time>
      </trkpt>
      <trkpt lat="48.1794" lon="-2.62512">
        <ele>91</ele>
        <time>2021-10-15T11:03:51.000Z</time>
      </trkpt>
      <trkpt lat="48.17944" lon="-2.62509">
        <ele>91</ele>
        <time>2021-10-15T11:03:52.000Z</time>
      </trkpt>
      <trkpt lat="48.17948" lon="-2.62506">
        <ele>91</ele>
        <time>2021-10-15T11:03:53.000Z</time>
      </trkpt>
      <trkpt lat="48.17952" lon="-2.62503">
        <ele>91</ele>
        <time>2021-10-15T11:03:54.000Z</time>
      </trkpt>
      <trkpt lat="48.17956" lon="-2.62499">
        <ele>90.800003051758</ele>
        <time>2021-10-15T11:03:55.000Z</time>
      </trkpt>
      <trkpt lat="48.17959" lon="-2.62496">
        <ele>90.800003051758</ele>
        <time>2021-10-15T11:03:56.000Z</time>
      </trkpt>
      <trkpt lat="48.17963" lon="-2.62493">
        <ele>90.800003051758</ele>
        <time>2021-10-15T11:03:57.000Z</time>
      </trkpt>
      <trkpt lat="48.17967" lon="-2.62491">
        <ele>90.599998474121</ele>
        <time>2021-10-15T11:03:58.000Z</time>
      </trkpt>
      <trkpt lat="48.1797" lon="-2.62489">
        <ele>90.599998474121</ele>
        <time>2021-10-15T11:03:59.000Z</time>
      </trkpt>
      <trkpt lat="48.17972" lon="-2.62487">
        <ele>90.599998474121</ele>
        <time>2021-10-15T11:04:00.000Z</time>
      </trkpt>
      <trkpt lat="48.17974" lon="-2.62486">
        <ele>90.400001525879</ele>
        <time>2021-10-15T11:04:01.000Z</time>
      </trkpt>
      <trkpt lat="48.17977" lon="-2.62485">
        <ele>90.400001525879</ele>
        <time>2021-10-15T11:04:02.000Z</time>
      </trkpt>
      <trkpt lat="48.17979" lon="-2.62484">
        <ele>90.400001525879</ele>
        <time>2021-10-15T11:04:03.000Z</time>
      </trkpt>
      <trkpt lat="48.1798" lon="-2.62483">
        <ele>90.199996948242</ele>
        <time>2021-10-15T11:04:04.000Z</time>
      </trkpt>
      <trkpt lat="48.17982" lon="-2.62481">
        <ele>90.199996948242</ele>
        <time>2021-10-15T11:04:05.000Z</time>
      </trkpt>
      <trkpt lat="48.17983" lon="-2.6248">
        <ele>90.199996948242</ele>
        <time>2021-10-15T11:04:06.000Z</time>
      </trkpt>
      <trkpt lat="48.17985" lon="-2.62479">
        <ele>90.199996948242</ele>
        <time>2021-10-15T11:04:07.000Z</time>
      </trkpt>
      <trkpt lat="48.17986" lon="-2.62478">
        <ele>90.199996948242</ele>
        <time>2021-10-15T11:04:08.000Z</time>
      </trkpt>
      <trkpt lat="48.17988" lon="-2.62477">
        <ele>90.199996948242</ele>
        <time>2021-10-15T11:04:09.000Z</time>
      </trkpt>
      <trkpt lat="48.1799" lon="-2.62476">
        <ele>90.199996948242</ele>
        <time>2021-10-15T11:04:10.000Z</time>
      </trkpt>
      <trkpt lat="48.17991" lon="-2.62475">
        <ele>90</ele>
        <time>2021-10-15T11:04:11.000Z</time>
      </trkpt>
      <trkpt lat="48.17991" lon="-2.62475">
        <ele>90</ele>
        <time>2021-10-15T11:04:12.000Z</time>
      </trkpt>
      <trkpt lat="48.17991" lon="-2.62476">
        <ele>90</ele>
        <time>2021-10-15T11:04:13.000Z</time>
      </trkpt>
      <trkpt lat="48.17991" lon="-2.62476">
        <ele>90</ele>
        <time>2021-10-15T11:04:14.000Z</time>
      </trkpt>
      <trkpt lat="48.17991" lon="-2.62476">
        <ele>90</ele>
        <time>2021-10-15T11:04:15.000Z</time>
      </trkpt>
      <trkpt lat="48.17991" lon="-2.62476">
        <ele>90</ele>
        <time>2021-10-15T11:04:16.000Z</time>
      </trkpt>
      <trkpt lat="48.17991" lon="-2.62475">
        <ele>90</ele>
        <time>2021-10-15T11:04:17.000Z</time>
      </trkpt>
      <trkpt lat="48.17993" lon="-2.62474">
        <ele>90</ele>
        <time>2021-10-15T11:04:18.000Z</time>
      </trkpt>
      <trkpt lat="48.17994" lon="-2.62473">
        <ele>90.199996948242</ele>
        <time>2021-10-15T11:04:19.000Z</time>
      </trkpt>
      <trkpt lat="48.17995" lon="-2.62471">
        <ele>90.199996948242</ele>
        <time>2021-10-15T11:04:20.000Z</time>
      </trkpt>
      <trkpt lat="48.17997" lon="-2.6247">
        <ele>90.199996948242</ele>
        <time>2021-10-15T11:04:21.000Z</time>
      </trkpt>
      <trkpt lat="48.17999" lon="-2.62468">
        <ele>90.199996948242</ele>
        <time>2021-10-15T11:04:22.000Z</time>
      </trkpt>
      <trkpt lat="48.18002" lon="-2.62466">
        <ele>90.400001525879</ele>
        <time>2021-10-15T11:04:23.000Z</time>
      </trkpt>
      <trkpt lat="48.18004" lon="-2.62464">
        <ele>90.400001525879</ele>
        <time>2021-10-15T11:04:24.000Z</time>
      </trkpt>
      <trkpt lat="48.18006" lon="-2.62462">
        <ele>90.400001525879</ele>
        <time>2021-10-15T11:04:25.000Z</time>
      </trkpt>
      <trkpt lat="48.18008" lon="-2.6246">
        <ele>90.599998474121</ele>
        <time>2021-10-15T11:04:26.000Z</time>
      </trkpt>
      <trkpt lat="48.1801" lon="-2.62459">
        <ele>90.599998474121</ele>
        <time>2021-10-15T11:04:27.000Z</time>
      </trkpt>
      <trkpt lat="48.18012" lon="-2.62458">
        <ele>90.599998474121</ele>
        <time>2021-10-15T11:04:28.000Z</time>
      </trkpt>
      <trkpt lat="48.18015" lon="-2.62456">
        <ele>90.800003051758</ele>
        <time>2021-10-15T11:04:29.000Z</time>
      </trkpt>
      <trkpt lat="48.18017" lon="-2.62455">
        <ele>90.800003051758</ele>
        <time>2021-10-15T11:04:30.000Z</time>
      </trkpt>
      <trkpt lat="48.1802" lon="-2.62453">
        <ele>90.800003051758</ele>
        <time>2021-10-15T11:04:31.000Z</time>
      </trkpt>
      <trkpt lat="48.18022" lon="-2.62452">
        <ele>90.800003051758</ele>
        <time>2021-10-15T11:04:32.000Z</time>
      </trkpt>
      <trkpt lat="48.18024" lon="-2.6245">
        <ele>91</ele>
        <time>2021-10-15T11:04:33.000Z</time>
      </trkpt>
      <trkpt lat="48.18026" lon="-2.62449">
        <ele>91</ele>
        <time>2021-10-15T11:04:34.000Z</time>
      </trkpt>
      <trkpt lat="48.18028" lon="-2.62447">
        <ele>91</ele>
        <time>2021-10-15T11:04:35.000Z</time>
      </trkpt>
      <trkpt lat="48.18031" lon="-2.62446">
        <ele>91</ele>
        <time>2021-10-15T11:04:36.000Z</time>
      </trkpt>
      <trkpt lat="48.18033" lon="-2.62444">
        <ele>91.199996948242</ele>
        <time>2021-10-15T11:04:37.000Z</time>
      </trkpt>
      <trkpt lat="48.18035" lon="-2.62442">
        <ele>91.199996948242</ele>
        <time>2021-10-15T11:04:38.000Z</time>
      </trkpt>
      <trkpt lat="48.18037" lon="-2.6244">
        <ele>91.199996948242</ele>
        <time>2021-10-15T11:04:39.000Z</time>
      </trkpt>
      <trkpt lat="48.1804" lon="-2.62438">
        <ele>91.400001525879</ele>
        <time>2021-10-15T11:04:40.000Z</time>
      </trkpt>
      <trkpt lat="48.18043" lon="-2.62437">
        <ele>91.400001525879</ele>
        <time>2021-10-15T11:04:41.000Z</time>
      </trkpt>
      <trkpt lat="48.18046" lon="-2.62435">
        <ele>91.400001525879</ele>
        <time>2021-10-15T11:04:42.000Z</time>
      </trkpt>
      <trkpt lat="48.18049" lon="-2.62433">
        <ele>91.599998474121</ele>
        <time>2021-10-15T11:04:43.000Z</time>
      </trkpt>
      <trkpt lat="48.18052" lon="-2.62431">
        <ele>91.599998474121</ele>
        <time>2021-10-15T11:04:44.000Z</time>
      </trkpt>
      <trkpt lat="48.18055" lon="-2.62429">
        <ele>91.599998474121</ele>
        <time>2021-10-15T11:04:45.000Z</time>
      </trkpt>
      <trkpt lat="48.18059" lon="-2.62426">
        <ele>91.800003051758</ele>
        <time>2021-10-15T11:04:46.000Z</time>
      </trkpt>
      <trkpt lat="48.18062" lon="-2.62425">
        <ele>91.800003051758</ele>
        <time>2021-10-15T11:04:47.000Z</time>
      </trkpt>
      <trkpt lat="48.18065" lon="-2.62423">
        <ele>92</ele>
        <time>2021-10-15T11:04:48.000Z</time>
      </trkpt>
      <trkpt lat="48.18068" lon="-2.62421">
        <ele>92</ele>
        <time>2021-10-15T11:04:49.000Z</time>
      </trkpt>
      <trkpt lat="48.18072" lon="-2.62419">
        <ele>92</ele>
        <time>2021-10-15T11:04:50.000Z</time>
      </trkpt>
      <trkpt lat="48.18075" lon="-2.62418">
        <ele>92</ele>
        <time>2021-10-15T11:04:51.000Z</time>
      </trkpt>
      <trkpt lat="48.18079" lon="-2.62417">
        <ele>92</ele>
        <time>2021-10-15T11:04:52.000Z</time>
      </trkpt>
      <trkpt lat="48.18082" lon="-2.62415">
        <ele>92</ele>
        <time>2021-10-15T11:04:53.000Z</time>
      </trkpt>
      <trkpt lat="48.18084" lon="-2.62413">
        <ele>92</ele>
        <time>2021-10-15T11:04:54.000Z</time>
      </trkpt>
      <trkpt lat="48.18087" lon="-2.62412">
        <ele>92</ele>
        <time>2021-10-15T11:04:55.000Z</time>
      </trkpt>
      <trkpt lat="48.1809" lon="-2.6241">
        <ele>92</ele>
        <time>2021-10-15T11:04:56.000Z</time>
      </trkpt>
      <trkpt lat="48.18094" lon="-2.62409">
        <ele>92</ele>
        <time>2021-10-15T11:04:57.000Z</time>
      </trkpt>
      <trkpt lat="48.18097" lon="-2.62408">
        <ele>92</ele>
        <time>2021-10-15T11:04:58.000Z</time>
      </trkpt>
      <trkpt lat="48.18099" lon="-2.62406">
        <ele>92</ele>
        <time>2021-10-15T11:04:59.000Z</time>
      </trkpt>
      <trkpt lat="48.18102" lon="-2.62405">
        <ele>92</ele>
        <time>2021-10-15T11:05:00.000Z</time>
      </trkpt>
      <trkpt lat="48.18105" lon="-2.62403">
        <ele>92</ele>
        <time>2021-10-15T11:05:01.000Z</time>
      </trkpt>
      <trkpt lat="48.18108" lon="-2.62402">
        <ele>92.199996948242</ele>
        <time>2021-10-15T11:05:02.000Z</time>
      </trkpt>
      <trkpt lat="48.1811" lon="-2.62402">
        <ele>92.199996948242</ele>
        <time>2021-10-15T11:05:03.000Z</time>
      </trkpt>
      <trkpt lat="48.18113" lon="-2.62401">
        <ele>92.400001525879</ele>
        <time>2021-10-15T11:05:04.000Z</time>
      </trkpt>
      <trkpt lat="48.18116" lon="-2.62401">
        <ele>92.599998474121</ele>
        <time>2021-10-15T11:05:05.000Z</time>
      </trkpt>
      <trkpt lat="48.1812" lon="-2.624">
        <ele>92.599998474121</ele>
        <time>2021-10-15T11:05:06.000Z</time>
      </trkpt>
      <trkpt lat="48.18123" lon="-2.62399">
        <ele>92.800003051758</ele>
        <time>2021-10-15T11:05:07.000Z</time>
      </trkpt>
      <trkpt lat="48.18126" lon="-2.62399">
        <ele>92.800003051758</ele>
        <time>2021-10-15T11:05:08.000Z</time>
      </trkpt>
      <trkpt lat="48.1813" lon="-2.62399">
        <ele>92.800003051758</ele>
        <time>2021-10-15T11:05:09.000Z</time>
      </trkpt>
      <trkpt lat="48.18133" lon="-2.62398">
        <ele>92.800003051758</ele>
        <time>2021-10-15T11:05:10.000Z</time>
      </trkpt>
      <trkpt lat="48.18137" lon="-2.62398">
        <ele>93</ele>
        <time>2021-10-15T11:05:11.000Z</time>
      </trkpt>
      <trkpt lat="48.1814" lon="-2.62398">
        <ele>93.199996948242</ele>
        <time>2021-10-15T11:05:12.000Z</time>
      </trkpt>
      <trkpt lat="48.18144" lon="-2.62398">
        <ele>93.400001525879</ele>
        <time>2021-10-15T11:05:13.000Z</time>
      </trkpt>
      <trkpt lat="48.18148" lon="-2.62398">
        <ele>93.400001525879</ele>
        <time>2021-10-15T11:05:14.000Z</time>
      </trkpt>
      <trkpt lat="48.18152" lon="-2.62397">
        <ele>93.599998474121</ele>
        <time>2021-10-15T11:05:15.000Z</time>
      </trkpt>
      <trkpt lat="48.18155" lon="-2.62395">
        <ele>93.800003051758</ele>
        <time>2021-10-15T11:05:16.000Z</time>
      </trkpt>
      <trkpt lat="48.18158" lon="-2.62394">
        <ele>93.800003051758</ele>
        <time>2021-10-15T11:05:17.000Z</time>
      </trkpt>
      <trkpt lat="48.18162" lon="-2.62394">
        <ele>94</ele>
        <time>2021-10-15T11:05:18.000Z</time>
      </trkpt>
      <trkpt lat="48.18165" lon="-2.62394">
        <ele>94.199996948242</ele>
        <time>2021-10-15T11:05:19.000Z</time>
      </trkpt>
      <trkpt lat="48.18169" lon="-2.62393">
        <ele>94.400001525879</ele>
        <time>2021-10-15T11:05:20.000Z</time>
      </trkpt>
      <trkpt lat="48.18173" lon="-2.62393">
        <ele>94.400001525879</ele>
        <time>2021-10-15T11:05:21.000Z</time>
      </trkpt>
      <trkpt lat="48.18176" lon="-2.62393">
        <ele>94.599998474121</ele>
        <time>2021-10-15T11:05:22.000Z</time>
      </trkpt>
      <trkpt lat="48.18181" lon="-2.62392">
        <ele>94.800003051758</ele>
        <time>2021-10-15T11:05:23.000Z</time>
      </trkpt>
      <trkpt lat="48.18184" lon="-2.62392">
        <ele>95</ele>
        <time>2021-10-15T11:05:24.000Z</time>
      </trkpt>
      <trkpt lat="48.18188" lon="-2.62392">
        <ele>95</ele>
        <time>2021-10-15T11:05:25.000Z</time>
      </trkpt>
      <trkpt lat="48.18192" lon="-2.62391">
        <ele>94.800003051758</ele>
        <time>2021-10-15T11:05:26.000Z</time>
      </trkpt>
      <trkpt lat="48.18196" lon="-2.62391">
        <ele>94.800003051758</ele>
        <time>2021-10-15T11:05:27.000Z</time>
      </trkpt>
      <trkpt lat="48.182" lon="-2.6239">
        <ele>94.599998474121</ele>
        <time>2021-10-15T11:05:28.000Z</time>
      </trkpt>
      <trkpt lat="48.18203" lon="-2.62389">
        <ele>94.599998474121</ele>
        <time>2021-10-15T11:05:29.000Z</time>
      </trkpt>
      <trkpt lat="48.18207" lon="-2.62388">
        <ele>94.599998474121</ele>
        <time>2021-10-15T11:05:30.000Z</time>
      </trkpt>
      <trkpt lat="48.18211" lon="-2.62387">
        <ele>94.400001525879</ele>
        <time>2021-10-15T11:05:31.000Z</time>
      </trkpt>
      <trkpt lat="48.18215" lon="-2.62386">
        <ele>94.400001525879</ele>
        <time>2021-10-15T11:05:32.000Z</time>
      </trkpt>
      <trkpt lat="48.18219" lon="-2.62386">
        <ele>94.199996948242</ele>
        <time>2021-10-15T11:05:33.000Z</time>
      </trkpt>
      <trkpt lat="48.18223" lon="-2.62386">
        <ele>94.199996948242</ele>
        <time>2021-10-15T11:05:34.000Z</time>
      </trkpt>
      <trkpt lat="48.18228" lon="-2.62385">
        <ele>94.199996948242</ele>
        <time>2021-10-15T11:05:35.000Z</time>
      </trkpt>
      <trkpt lat="48.18233" lon="-2.62384">
        <ele>94.400001525879</ele>
        <time>2021-10-15T11:05:36.000Z</time>
      </trkpt>
      <trkpt lat="48.18239" lon="-2.62384">
        <ele>94.400001525879</ele>
        <time>2021-10-15T11:05:37.000Z</time>
      </trkpt>
      <trkpt lat="48.18244" lon="-2.62383">
        <ele>94.199996948242</ele>
        <time>2021-10-15T11:05:38.000Z</time>
      </trkpt>
      <trkpt lat="48.18248" lon="-2.62382">
        <ele>94.199996948242</ele>
        <time>2021-10-15T11:05:39.000Z</time>
      </trkpt>
      <trkpt lat="48.18253" lon="-2.62381">
        <ele>94</ele>
        <time>2021-10-15T11:05:40.000Z</time>
      </trkpt>
      <trkpt lat="48.18257" lon="-2.6238">
        <ele>93.800003051758</ele>
        <time>2021-10-15T11:05:41.000Z</time>
      </trkpt>
      <trkpt lat="48.18261" lon="-2.62378">
        <ele>93.800003051758</ele>
        <time>2021-10-15T11:05:42.000Z</time>
      </trkpt>
      <trkpt lat="48.18264" lon="-2.62376">
        <ele>93.800003051758</ele>
        <time>2021-10-15T11:05:43.000Z</time>
      </trkpt>
      <trkpt lat="48.18268" lon="-2.62374">
        <ele>93.800003051758</ele>
        <time>2021-10-15T11:05:44.000Z</time>
      </trkpt>
      <trkpt lat="48.18271" lon="-2.62372">
        <ele>93.800003051758</ele>
        <time>2021-10-15T11:05:45.000Z</time>
      </trkpt>
      <trkpt lat="48.18273" lon="-2.6237">
        <ele>93.800003051758</ele>
        <time>2021-10-15T11:05:46.000Z</time>
      </trkpt>
      <trkpt lat="48.18275" lon="-2.6237">
        <ele>93.800003051758</ele>
        <time>2021-10-15T11:05:47.000Z</time>
      </trkpt>
      <trkpt lat="48.18276" lon="-2.6237">
        <ele>93.800003051758</ele>
        <time>2021-10-15T11:05:48.000Z</time>
      </trkpt>
      <trkpt lat="48.18277" lon="-2.6237">
        <ele>93.800003051758</ele>
        <time>2021-10-15T11:05:49.000Z</time>
      </trkpt>
      <trkpt lat="48.18278" lon="-2.62369">
        <ele>93.800003051758</ele>
        <time>2021-10-15T11:05:50.000Z</time>
      </trkpt>
      <trkpt lat="48.18279" lon="-2.62369">
        <ele>93.800003051758</ele>
        <time>2021-10-15T11:05:51.000Z</time>
      </trkpt>
      <trkpt lat="48.1828" lon="-2.62369">
        <ele>93.800003051758</ele>
        <time>2021-10-15T11:05:52.000Z</time>
      </trkpt>
      <trkpt lat="48.1828" lon="-2.6237">
        <ele>93.800003051758</ele>
        <time>2021-10-15T11:05:53.000Z</time>
      </trkpt>
      <trkpt lat="48.1828" lon="-2.6237">
        <ele>93.800003051758</ele>
        <time>2021-10-15T11:05:54.000Z</time>
      </trkpt>
      <trkpt lat="48.1828" lon="-2.62371">
        <ele>93.800003051758</ele>
        <time>2021-10-15T11:05:55.000Z</time>
      </trkpt>
      <trkpt lat="48.18281" lon="-2.62371">
        <ele>93.800003051758</ele>
        <time>2021-10-15T11:05:56.000Z</time>
      </trkpt>
      <trkpt lat="48.18281" lon="-2.62371">
        <ele>93.800003051758</ele>
        <time>2021-10-15T11:05:57.000Z</time>
      </trkpt>
      <trkpt lat="48.18281" lon="-2.62372">
        <ele>93.800003051758</ele>
        <time>2021-10-15T11:05:58.000Z</time>
      </trkpt>
      <trkpt lat="48.18279" lon="-2.62372">
        <ele>93.800003051758</ele>
        <time>2021-10-15T11:05:59.000Z</time>
      </trkpt>
      <trkpt lat="48.18278" lon="-2.62372">
        <ele>93.800003051758</ele>
        <time>2021-10-15T11:06:00.000Z</time>
      </trkpt>
      <trkpt lat="48.18277" lon="-2.62372">
        <ele>93.800003051758</ele>
        <time>2021-10-15T11:06:01.000Z</time>
      </trkpt>
      <trkpt lat="48.18275" lon="-2.62373">
        <ele>93.599998474121</ele>
        <time>2021-10-15T11:06:02.000Z</time>
      </trkpt>
      <trkpt lat="48.18273" lon="-2.62373">
        <ele>93.599998474121</ele>
        <time>2021-10-15T11:06:03.000Z</time>
      </trkpt>
      <trkpt lat="48.18271" lon="-2.62374">
        <ele>93.599998474121</ele>
        <time>2021-10-15T11:06:04.000Z</time>
      </trkpt>
      <trkpt lat="48.18269" lon="-2.62375">
        <ele>93.599998474121</ele>
        <time>2021-10-15T11:06:05.000Z</time>
      </trkpt>
      <trkpt lat="48.18266" lon="-2.62376">
        <ele>93.599998474121</ele>
        <time>2021-10-15T11:06:06.000Z</time>
      </trkpt>
      <trkpt lat="48.18264" lon="-2.62377">
        <ele>93.800003051758</ele>
        <time>2021-10-15T11:06:07.000Z</time>
      </trkpt>
      <trkpt lat="48.18262" lon="-2.62378">
        <ele>93.800003051758</ele>
        <time>2021-10-15T11:06:08.000Z</time>
      </trkpt>
      <trkpt lat="48.1826" lon="-2.6238">
        <ele>93.800003051758</ele>
        <time>2021-10-15T11:06:09.000Z</time>
      </trkpt>
      <trkpt lat="48.18257" lon="-2.62382">
        <ele>93.800003051758</ele>
        <time>2021-10-15T11:06:10.000Z</time>
      </trkpt>
      <trkpt lat="48.18255" lon="-2.62383">
        <ele>93.800003051758</ele>
        <time>2021-10-15T11:06:11.000Z</time>
      </trkpt>
      <trkpt lat="48.18253" lon="-2.62385">
        <ele>93.800003051758</ele>
        <time>2021-10-15T11:06:12.000Z</time>
      </trkpt>
      <trkpt lat="48.18251" lon="-2.62388">
        <ele>93.800003051758</ele>
        <time>2021-10-15T11:06:13.000Z</time>
      </trkpt>
      <trkpt lat="48.18249" lon="-2.6239">
        <ele>93.800003051758</ele>
        <time>2021-10-15T11:06:14.000Z</time>
      </trkpt>
      <trkpt lat="48.18248" lon="-2.62392">
        <ele>93.800003051758</ele>
        <time>2021-10-15T11:06:15.000Z</time>
      </trkpt>
      <trkpt lat="48.18246" lon="-2.62395">
        <ele>93.800003051758</ele>
        <time>2021-10-15T11:06:16.000Z</time>
      </trkpt>
      <trkpt lat="48.18244" lon="-2.62398">
        <ele>93.800003051758</ele>
        <time>2021-10-15T11:06:17.000Z</time>
      </trkpt>
      <trkpt lat="48.18241" lon="-2.624">
        <ele>93.800003051758</ele>
        <time>2021-10-15T11:06:18.000Z</time>
      </trkpt>
      <trkpt lat="48.18239" lon="-2.62402">
        <ele>93.599998474121</ele>
        <time>2021-10-15T11:06:19.000Z</time>
      </trkpt>
      <trkpt lat="48.18237" lon="-2.62405">
        <ele>93.599998474121</ele>
        <time>2021-10-15T11:06:20.000Z</time>
      </trkpt>
      <trkpt lat="48.18236" lon="-2.62407">
        <ele>93.400001525879</ele>
        <time>2021-10-15T11:06:21.000Z</time>
      </trkpt>
      <trkpt lat="48.18234" lon="-2.62408">
        <ele>93.400001525879</ele>
        <time>2021-10-15T11:06:22.000Z</time>
      </trkpt>
      <trkpt lat="48.18233" lon="-2.6241">
        <ele>93.400001525879</ele>
        <time>2021-10-15T11:06:23.000Z</time>
      </trkpt>
      <trkpt lat="48.18232" lon="-2.62411">
        <ele>93.400001525879</ele>
        <time>2021-10-15T11:06:24.000Z</time>
      </trkpt>
      <trkpt lat="48.18232" lon="-2.62412">
        <ele>93.400001525879</ele>
        <time>2021-10-15T11:06:25.000Z</time>
      </trkpt>
      <trkpt lat="48.18232" lon="-2.62412">
        <ele>93.199996948242</ele>
        <time>2021-10-15T11:06:26.000Z</time>
      </trkpt>
      <trkpt lat="48.18232" lon="-2.62412">
        <ele>93.199996948242</ele>
        <time>2021-10-15T11:06:27.000Z</time>
      </trkpt>
      <trkpt lat="48.18232" lon="-2.62412">
        <ele>93.199996948242</ele>
        <time>2021-10-15T11:06:28.000Z</time>
      </trkpt>
      <trkpt lat="48.18231" lon="-2.62411">
        <ele>93.400001525879</ele>
        <time>2021-10-15T11:06:29.000Z</time>
      </trkpt>
      <trkpt lat="48.1823" lon="-2.62411">
        <ele>93.400001525879</ele>
        <time>2021-10-15T11:06:30.000Z</time>
      </trkpt>
      <trkpt lat="48.1823" lon="-2.6241">
        <ele>93.400001525879</ele>
        <time>2021-10-15T11:06:31.000Z</time>
      </trkpt>
      <trkpt lat="48.1823" lon="-2.6241">
        <ele>93.400001525879</ele>
        <time>2021-10-15T11:06:32.000Z</time>
      </trkpt>
      <trkpt lat="48.1823" lon="-2.6241">
        <ele>93.400001525879</ele>
        <time>2021-10-15T11:06:33.000Z</time>
      </trkpt>
      <trkpt lat="48.1823" lon="-2.6241">
        <ele>93.400001525879</ele>
        <time>2021-10-15T11:06:34.000Z</time>
      </trkpt>
      <trkpt lat="48.1823" lon="-2.62409">
        <ele>93.400001525879</ele>
        <time>2021-10-15T11:06:35.000Z</time>
      </trkpt>
      <trkpt lat="48.1823" lon="-2.6241">
        <ele>93.400001525879</ele>
        <time>2021-10-15T11:06:36.000Z</time>
      </trkpt>
      <trkpt lat="48.1823" lon="-2.6241">
        <ele>93.400001525879</ele>
        <time>2021-10-15T11:06:37.000Z</time>
      </trkpt>
      <trkpt lat="48.1823" lon="-2.6241">
        <ele>93.400001525879</ele>
        <time>2021-10-15T11:06:38.000Z</time>
      </trkpt>
      <trkpt lat="48.1823" lon="-2.6241">
        <ele>93.400001525879</ele>
        <time>2021-10-15T11:06:39.000Z</time>
      </trkpt>
      <trkpt lat="48.1823" lon="-2.6241">
        <ele>93.400001525879</ele>
        <time>2021-10-15T11:06:40.000Z</time>
      </trkpt>
      <trkpt lat="48.1823" lon="-2.6241">
        <ele>93.400001525879</ele>
        <time>2021-10-15T11:06:41.000Z</time>
      </trkpt>
      <trkpt lat="48.1823" lon="-2.6241">
        <ele>93.400001525879</ele>
        <time>2021-10-15T11:06:42.000Z</time>
      </trkpt>
      <trkpt lat="48.18229" lon="-2.6241">
        <ele>93.400001525879</ele>
        <time>2021-10-15T11:06:43.000Z</time>
      </trkpt>
      <trkpt lat="48.18229" lon="-2.6241">
        <ele>93.400001525879</ele>
        <time>2021-10-15T11:06:44.000Z</time>
      </trkpt>
      <trkpt lat="48.18229" lon="-2.6241">
        <ele>93.400001525879</ele>
        <time>2021-10-15T11:06:45.000Z</time>
      </trkpt>
      <trkpt lat="48.18229" lon="-2.62411">
        <ele>93.400001525879</ele>
        <time>2021-10-15T11:06:46.000Z</time>
      </trkpt>
      <trkpt lat="48.18229" lon="-2.62411">
        <ele>93.400001525879</ele>
        <time>2021-10-15T11:06:47.000Z</time>
      </trkpt>
      <trkpt lat="48.18229" lon="-2.62411">
        <ele>93.400001525879</ele>
        <time>2021-10-15T11:06:48.000Z</time>
      </trkpt>
      <trkpt lat="48.18229" lon="-2.62411">
        <ele>93.400001525879</ele>
        <time>2021-10-15T11:06:49.000Z</time>
      </trkpt>
      <trkpt lat="48.18229" lon="-2.62411">
        <ele>93.400001525879</ele>
        <time>2021-10-15T11:06:50.000Z</time>
      </trkpt>
      <trkpt lat="48.18229" lon="-2.62411">
        <ele>93.400001525879</ele>
        <time>2021-10-15T11:06:51.000Z</time>
      </trkpt>
      <trkpt lat="48.18228" lon="-2.62411">
        <ele>93.400001525879</ele>
        <time>2021-10-15T11:06:52.000Z</time>
      </trkpt>
      <trkpt lat="48.18228" lon="-2.62411">
        <ele>93.400001525879</ele>
        <time>2021-10-15T11:06:53.000Z</time>
      </trkpt>
      <trkpt lat="48.18228" lon="-2.62411">
        <ele>93.400001525879</ele>
        <time>2021-10-15T11:06:54.000Z</time>
      </trkpt>
      <trkpt lat="48.18228" lon="-2.62411">
        <ele>93.400001525879</ele>
        <time>2021-10-15T11:06:55.000Z</time>
      </trkpt>
      <trkpt lat="48.18228" lon="-2.62411">
        <ele>93.400001525879</ele>
        <time>2021-10-15T11:06:56.000Z</time>
      </trkpt>
      <trkpt lat="48.18228" lon="-2.6241">
        <ele>93.400001525879</ele>
        <time>2021-10-15T11:06:57.000Z</time>
      </trkpt>
      <trkpt lat="48.18228" lon="-2.6241">
        <ele>93.400001525879</ele>
        <time>2021-10-15T11:06:58.000Z</time>
      </trkpt>
      <trkpt lat="48.18228" lon="-2.6241">
        <ele>93.400001525879</ele>
        <time>2021-10-15T11:06:59.000Z</time>
      </trkpt>
      <trkpt lat="48.18228" lon="-2.6241">
        <ele>93.400001525879</ele>
        <time>2021-10-15T11:07:00.000Z</time>
      </trkpt>
      <trkpt lat="48.18227" lon="-2.62411">
        <ele>93.400001525879</ele>
        <time>2021-10-15T11:07:01.000Z</time>
      </trkpt>
      <trkpt lat="48.18227" lon="-2.6241">
        <ele>93.400001525879</ele>
        <time>2021-10-15T11:07:02.000Z</time>
      </trkpt>
      <trkpt lat="48.18227" lon="-2.6241">
        <ele>93.400001525879</ele>
        <time>2021-10-15T11:07:03.000Z</time>
      </trkpt>
      <trkpt lat="48.18227" lon="-2.6241">
        <ele>93.400001525879</ele>
        <time>2021-10-15T11:07:04.000Z</time>
      </trkpt>
      <trkpt lat="48.18227" lon="-2.6241">
        <ele>93.400001525879</ele>
        <time>2021-10-15T11:07:05.000Z</time>
      </trkpt>
      <trkpt lat="48.18227" lon="-2.6241">
        <ele>93.400001525879</ele>
        <time>2021-10-15T11:07:06.000Z</time>
      </trkpt>
      <trkpt lat="48.18227" lon="-2.6241">
        <ele>93.400001525879</ele>
        <time>2021-10-15T11:07:07.000Z</time>
      </trkpt>
      <trkpt lat="48.18227" lon="-2.6241">
        <ele>93.400001525879</ele>
        <time>2021-10-15T11:07:08.000Z</time>
      </trkpt>
      <trkpt lat="48.18227" lon="-2.6241">
        <ele>93.400001525879</ele>
        <time>2021-10-15T11:07:09.000Z</time>
      </trkpt>
      <trkpt lat="48.18227" lon="-2.6241">
        <ele>93.400001525879</ele>
        <time>2021-10-15T11:07:10.000Z</time>
      </trkpt>
      <trkpt lat="48.18227" lon="-2.6241">
        <ele>93.400001525879</ele>
        <time>2021-10-15T11:07:11.000Z</time>
      </trkpt>
      <trkpt lat="48.18227" lon="-2.62411">
        <ele>93.400001525879</ele>
        <time>2021-10-15T11:07:12.000Z</time>
      </trkpt>
      <trkpt lat="48.18227" lon="-2.62411">
        <ele>93.400001525879</ele>
        <time>2021-10-15T11:07:13.000Z</time>
      </trkpt>
      <trkpt lat="48.18227" lon="-2.6241">
        <ele>93.400001525879</ele>
        <time>2021-10-15T11:07:14.000Z</time>
      </trkpt>
      <trkpt lat="48.18227" lon="-2.62411">
        <ele>93.400001525879</ele>
        <time>2021-10-15T11:07:15.000Z</time>
      </trkpt>
      <trkpt lat="48.18227" lon="-2.62411">
        <ele>93.400001525879</ele>
        <time>2021-10-15T11:07:16.000Z</time>
      </trkpt>
      <trkpt lat="48.18227" lon="-2.62411">
        <ele>93.400001525879</ele>
        <time>2021-10-15T11:07:17.000Z</time>
      </trkpt>
      <trkpt lat="48.18227" lon="-2.62411">
        <ele>93.400001525879</ele>
        <time>2021-10-15T11:07:18.000Z</time>
      </trkpt>
      <trkpt lat="48.18227" lon="-2.62411">
        <ele>93.400001525879</ele>
        <time>2021-10-15T11:07:19.000Z</time>
      </trkpt>
      <trkpt lat="48.18227" lon="-2.62411">
        <ele>93.400001525879</ele>
        <time>2021-10-15T11:07:20.000Z</time>
      </trkpt>
      <trkpt lat="48.18227" lon="-2.62411">
        <ele>93.400001525879</ele>
        <time>2021-10-15T11:07:21.000Z</time>
      </trkpt>
      <trkpt lat="48.18227" lon="-2.62411">
        <ele>93.400001525879</ele>
        <time>2021-10-15T11:07:22.000Z</time>
      </trkpt>
      <trkpt lat="48.18219" lon="-2.62386">
        <ele>94.199996948242</ele>
        <time>2021-10-15T11:54:53.000Z</time>
      </trkpt>
      <trkpt lat="48.18219" lon="-2.62386">
        <ele>94.199996948242</ele>
        <time>2021-10-15T11:54:54.000Z</time>
      </trkpt>
      <trkpt lat="48.1822" lon="-2.6239">
        <ele>94.199996948242</ele>
        <time>2021-10-15T11:54:55.000Z</time>
      </trkpt>
      <trkpt lat="48.18224" lon="-2.62399">
        <ele>93.800003051758</ele>
        <time>2021-10-15T11:54:56.000Z</time>
      </trkpt>
      <trkpt lat="48.18229" lon="-2.62407">
        <ele>93.400001525879</ele>
        <time>2021-10-15T11:54:57.000Z</time>
      </trkpt>
      <trkpt lat="48.1823" lon="-2.6241">
        <ele>93.400001525879</ele>
        <time>2021-10-15T11:54:58.000Z</time>
      </trkpt>
      <trkpt lat="48.18231" lon="-2.62413">
        <ele>93.199996948242</ele>
        <time>2021-10-15T11:54:59.000Z</time>
      </trkpt>
      <trkpt lat="48.18232" lon="-2.62414">
        <ele>93.199996948242</ele>
        <time>2021-10-15T11:55:00.000Z</time>
      </trkpt>
      <trkpt lat="48.18232" lon="-2.62415">
        <ele>93.199996948242</ele>
        <time>2021-10-15T11:55:01.000Z</time>
      </trkpt>
      <trkpt lat="48.18233" lon="-2.62416">
        <ele>93.199996948242</ele>
        <time>2021-10-15T11:55:02.000Z</time>
      </trkpt>
      <trkpt lat="48.18232" lon="-2.62415">
        <ele>93.199996948242</ele>
        <time>2021-10-15T11:55:03.000Z</time>
      </trkpt>
      <trkpt lat="48.18233" lon="-2.62416">
        <ele>93.199996948242</ele>
        <time>2021-10-15T11:55:05.000Z</time>
      </trkpt>
      <trkpt lat="48.18233" lon="-2.62417">
        <ele>93.199996948242</ele>
        <time>2021-10-15T11:55:06.000Z</time>
      </trkpt>
      <trkpt lat="48.18233" lon="-2.62417">
        <ele>93.199996948242</ele>
        <time>2021-10-15T11:55:07.000Z</time>
      </trkpt>
      <trkpt lat="48.18233" lon="-2.62417">
        <ele>93</ele>
        <time>2021-10-15T11:55:08.000Z</time>
      </trkpt>
      <trkpt lat="48.18233" lon="-2.62418">
        <ele>93</ele>
        <time>2021-10-15T11:55:09.000Z</time>
      </trkpt>
      <trkpt lat="48.18233" lon="-2.62418">
        <ele>93</ele>
        <time>2021-10-15T11:55:10.000Z</time>
      </trkpt>
      <trkpt lat="48.18233" lon="-2.62418">
        <ele>93</ele>
        <time>2021-10-15T11:55:11.000Z</time>
      </trkpt>
      <trkpt lat="48.18233" lon="-2.62418">
        <ele>93</ele>
        <time>2021-10-15T11:55:12.000Z</time>
      </trkpt>
      <trkpt lat="48.18233" lon="-2.62419">
        <ele>93</ele>
        <time>2021-10-15T11:55:13.000Z</time>
      </trkpt>
      <trkpt lat="48.18233" lon="-2.62418">
        <ele>93</ele>
        <time>2021-10-15T11:55:14.000Z</time>
      </trkpt>
      <trkpt lat="48.18233" lon="-2.62418">
        <ele>93</ele>
        <time>2021-10-15T11:55:15.000Z</time>
      </trkpt>
      <trkpt lat="48.18233" lon="-2.62418">
        <ele>93</ele>
        <time>2021-10-15T11:55:16.000Z</time>
      </trkpt>
      <trkpt lat="48.18233" lon="-2.62418">
        <ele>93</ele>
        <time>2021-10-15T11:55:17.000Z</time>
      </trkpt>
      <trkpt lat="48.18233" lon="-2.62417">
        <ele>93.199996948242</ele>
        <time>2021-10-15T11:55:18.000Z</time>
      </trkpt>
      <trkpt lat="48.18233" lon="-2.62417">
        <ele>93.199996948242</ele>
        <time>2021-10-15T11:55:19.000Z</time>
      </trkpt>
      <trkpt lat="48.18233" lon="-2.62416">
        <ele>93.199996948242</ele>
        <time>2021-10-15T11:55:20.000Z</time>
      </trkpt>
      <trkpt lat="48.18233" lon="-2.62416">
        <ele>93.199996948242</ele>
        <time>2021-10-15T11:55:21.000Z</time>
      </trkpt>
      <trkpt lat="48.18233" lon="-2.62416">
        <ele>93.199996948242</ele>
        <time>2021-10-15T11:55:22.000Z</time>
      </trkpt>
      <trkpt lat="48.18233" lon="-2.62415">
        <ele>93.199996948242</ele>
        <time>2021-10-15T11:55:23.000Z</time>
      </trkpt>
      <trkpt lat="48.18233" lon="-2.62415">
        <ele>93.199996948242</ele>
        <time>2021-10-15T11:55:24.000Z</time>
      </trkpt>
      <trkpt lat="48.18233" lon="-2.62415">
        <ele>93.199996948242</ele>
        <time>2021-10-15T11:55:25.000Z</time>
      </trkpt>
      <trkpt lat="48.18233" lon="-2.62415">
        <ele>93.199996948242</ele>
        <time>2021-10-15T11:55:26.000Z</time>
      </trkpt>
      <trkpt lat="48.18233" lon="-2.62415">
        <ele>93.199996948242</ele>
        <time>2021-10-15T11:55:27.000Z</time>
      </trkpt>
      <trkpt lat="48.18232" lon="-2.62415">
        <ele>93.199996948242</ele>
        <time>2021-10-15T11:55:28.000Z</time>
      </trkpt>
      <trkpt lat="48.18233" lon="-2.62415">
        <ele>93.199996948242</ele>
        <time>2021-10-15T11:55:29.000Z</time>
      </trkpt>
      <trkpt lat="48.18233" lon="-2.62415">
        <ele>93.199996948242</ele>
        <time>2021-10-15T11:55:30.000Z</time>
      </trkpt>
      <trkpt lat="48.18233" lon="-2.62414">
        <ele>93.199996948242</ele>
        <time>2021-10-15T11:55:31.000Z</time>
      </trkpt>
      <trkpt lat="48.18233" lon="-2.62413">
        <ele>93.199996948242</ele>
        <time>2021-10-15T11:55:32.000Z</time>
      </trkpt>
      <trkpt lat="48.18233" lon="-2.62413">
        <ele>93.199996948242</ele>
        <time>2021-10-15T11:55:33.000Z</time>
      </trkpt>
      <trkpt lat="48.18234" lon="-2.62412">
        <ele>93.199996948242</ele>
        <time>2021-10-15T11:55:34.000Z</time>
      </trkpt>
      <trkpt lat="48.18234" lon="-2.62412">
        <ele>93.400001525879</ele>
        <time>2021-10-15T11:55:35.000Z</time>
      </trkpt>
      <trkpt lat="48.18234" lon="-2.62411">
        <ele>93.400001525879</ele>
        <time>2021-10-15T11:55:36.000Z</time>
      </trkpt>
      <trkpt lat="48.18234" lon="-2.62411">
        <ele>93.400001525879</ele>
        <time>2021-10-15T11:55:37.000Z</time>
      </trkpt>
      <trkpt lat="48.18234" lon="-2.6241">
        <ele>93.400001525879</ele>
        <time>2021-10-15T11:55:38.000Z</time>
      </trkpt>
      <trkpt lat="48.18234" lon="-2.6241">
        <ele>93.400001525879</ele>
        <time>2021-10-15T11:55:39.000Z</time>
      </trkpt>
      <trkpt lat="48.18233" lon="-2.6241">
        <ele>93.400001525879</ele>
        <time>2021-10-15T11:55:40.000Z</time>
      </trkpt>
      <trkpt lat="48.18233" lon="-2.62409">
        <ele>93.400001525879</ele>
        <time>2021-10-15T11:55:41.000Z</time>
      </trkpt>
      <trkpt lat="48.18233" lon="-2.62409">
        <ele>93.400001525879</ele>
        <time>2021-10-15T11:55:42.000Z</time>
      </trkpt>
      <trkpt lat="48.18233" lon="-2.62409">
        <ele>93.400001525879</ele>
        <time>2021-10-15T11:55:43.000Z</time>
      </trkpt>
      <trkpt lat="48.18233" lon="-2.62409">
        <ele>93.400001525879</ele>
        <time>2021-10-15T11:55:44.000Z</time>
      </trkpt>
      <trkpt lat="48.18233" lon="-2.62409">
        <ele>93.400001525879</ele>
        <time>2021-10-15T11:55:45.000Z</time>
      </trkpt>
      <trkpt lat="48.18233" lon="-2.62409">
        <ele>93.400001525879</ele>
        <time>2021-10-15T11:55:46.000Z</time>
      </trkpt>
      <trkpt lat="48.18233" lon="-2.62409">
        <ele>93.400001525879</ele>
        <time>2021-10-15T11:55:47.000Z</time>
      </trkpt>
      <trkpt lat="48.18233" lon="-2.62409">
        <ele>93.400001525879</ele>
        <time>2021-10-15T11:55:48.000Z</time>
      </trkpt>
      <trkpt lat="48.18233" lon="-2.62409">
        <ele>93.400001525879</ele>
        <time>2021-10-15T11:55:49.000Z</time>
      </trkpt>
      <trkpt lat="48.18233" lon="-2.62409">
        <ele>93.400001525879</ele>
        <time>2021-10-15T11:55:50.000Z</time>
      </trkpt>
      <trkpt lat="48.18233" lon="-2.62409">
        <ele>93.400001525879</ele>
        <time>2021-10-15T11:55:51.000Z</time>
      </trkpt>
      <trkpt lat="48.18233" lon="-2.62408">
        <ele>93.400001525879</ele>
        <time>2021-10-15T11:55:52.000Z</time>
      </trkpt>
      <trkpt lat="48.18233" lon="-2.62408">
        <ele>93.400001525879</ele>
        <time>2021-10-15T11:55:53.000Z</time>
      </trkpt>
      <trkpt lat="48.18233" lon="-2.62408">
        <ele>93.400001525879</ele>
        <time>2021-10-15T11:55:54.000Z</time>
      </trkpt>
      <trkpt lat="48.18233" lon="-2.62408">
        <ele>93.400001525879</ele>
        <time>2021-10-15T11:55:55.000Z</time>
      </trkpt>
      <trkpt lat="48.18233" lon="-2.62408">
        <ele>93.400001525879</ele>
        <time>2021-10-15T11:55:56.000Z</time>
      </trkpt>
      <trkpt lat="48.18233" lon="-2.62408">
        <ele>93.400001525879</ele>
        <time>2021-10-15T11:55:57.000Z</time>
      </trkpt>
      <trkpt lat="48.18233" lon="-2.62408">
        <ele>93.400001525879</ele>
        <time>2021-10-15T11:55:58.000Z</time>
      </trkpt>
      <trkpt lat="48.18233" lon="-2.62408">
        <ele>93.400001525879</ele>
        <time>2021-10-15T11:55:59.000Z</time>
      </trkpt>
      <trkpt lat="48.18233" lon="-2.62408">
        <ele>93.400001525879</ele>
        <time>2021-10-15T11:56:00.000Z</time>
      </trkpt>
      <trkpt lat="48.18233" lon="-2.62408">
        <ele>93.400001525879</ele>
        <time>2021-10-15T11:56:01.000Z</time>
      </trkpt>
      <trkpt lat="48.18233" lon="-2.62408">
        <ele>93.400001525879</ele>
        <time>2021-10-15T11:56:02.000Z</time>
      </trkpt>
      <trkpt lat="48.18233" lon="-2.62408">
        <ele>93.400001525879</ele>
        <time>2021-10-15T11:56:03.000Z</time>
      </trkpt>
      <trkpt lat="48.18233" lon="-2.62408">
        <ele>93.400001525879</ele>
        <time>2021-10-15T11:56:04.000Z</time>
      </trkpt>
      <trkpt lat="48.18233" lon="-2.62408">
        <ele>93.400001525879</ele>
        <time>2021-10-15T11:56:05.000Z</time>
      </trkpt>
      <trkpt lat="48.18233" lon="-2.62408">
        <ele>93.400001525879</ele>
        <time>2021-10-15T11:56:06.000Z</time>
      </trkpt>
      <trkpt lat="48.18233" lon="-2.62408">
        <ele>93.400001525879</ele>
        <time>2021-10-15T11:56:07.000Z</time>
      </trkpt>
      <trkpt lat="48.18233" lon="-2.62408">
        <ele>93.400001525879</ele>
        <time>2021-10-15T11:56:08.000Z</time>
      </trkpt>
      <trkpt lat="48.18233" lon="-2.62407">
        <ele>93.400001525879</ele>
        <time>2021-10-15T11:56:09.000Z</time>
      </trkpt>
      <trkpt lat="48.18233" lon="-2.62407">
        <ele>93.400001525879</ele>
        <time>2021-10-15T11:56:10.000Z</time>
      </trkpt>
      <trkpt lat="48.18234" lon="-2.62407">
        <ele>93.400001525879</ele>
        <time>2021-10-15T11:56:11.000Z</time>
      </trkpt>
      <trkpt lat="48.18234" lon="-2.62407">
        <ele>93.400001525879</ele>
        <time>2021-10-15T11:56:12.000Z</time>
      </trkpt>
      <trkpt lat="48.18234" lon="-2.62407">
        <ele>93.400001525879</ele>
        <time>2021-10-15T11:56:13.000Z</time>
      </trkpt>
      <trkpt lat="48.18234" lon="-2.62407">
        <ele>93.400001525879</ele>
        <time>2021-10-15T11:56:14.000Z</time>
      </trkpt>
      <trkpt lat="48.18234" lon="-2.62407">
        <ele>93.400001525879</ele>
        <time>2021-10-15T11:56:15.000Z</time>
      </trkpt>
      <trkpt lat="48.18234" lon="-2.62406">
        <ele>93.400001525879</ele>
        <time>2021-10-15T11:56:16.000Z</time>
      </trkpt>
      <trkpt lat="48.18234" lon="-2.62406">
        <ele>93.400001525879</ele>
        <time>2021-10-15T11:56:17.000Z</time>
      </trkpt>
      <trkpt lat="48.18234" lon="-2.62406">
        <ele>93.400001525879</ele>
        <time>2021-10-15T11:56:18.000Z</time>
      </trkpt>
      <trkpt lat="48.18234" lon="-2.62406">
        <ele>93.400001525879</ele>
        <time>2021-10-15T11:56:19.000Z</time>
      </trkpt>
      <trkpt lat="48.18234" lon="-2.62406">
        <ele>93.400001525879</ele>
        <time>2021-10-15T11:56:20.000Z</time>
      </trkpt>
      <trkpt lat="48.18234" lon="-2.62406">
        <ele>93.400001525879</ele>
        <time>2021-10-15T11:56:21.000Z</time>
      </trkpt>
      <trkpt lat="48.18234" lon="-2.62406">
        <ele>93.400001525879</ele>
        <time>2021-10-15T11:56:22.000Z</time>
      </trkpt>
      <trkpt lat="48.18234" lon="-2.62406">
        <ele>93.400001525879</ele>
        <time>2021-10-15T11:56:23.000Z</time>
      </trkpt>
      <trkpt lat="48.18234" lon="-2.62406">
        <ele>93.400001525879</ele>
        <time>2021-10-15T11:56:24.000Z</time>
      </trkpt>
      <trkpt lat="48.18235" lon="-2.62406">
        <ele>93.400001525879</ele>
        <time>2021-10-15T11:56:25.000Z</time>
      </trkpt>
      <trkpt lat="48.18235" lon="-2.62406">
        <ele>93.599998474121</ele>
        <time>2021-10-15T11:56:26.000Z</time>
      </trkpt>
      <trkpt lat="48.18235" lon="-2.62406">
        <ele>93.599998474121</ele>
        <time>2021-10-15T11:56:27.000Z</time>
      </trkpt>
      <trkpt lat="48.18235" lon="-2.62406">
        <ele>93.599998474121</ele>
        <time>2021-10-15T11:56:28.000Z</time>
      </trkpt>
      <trkpt lat="48.18235" lon="-2.62406">
        <ele>93.599998474121</ele>
        <time>2021-10-15T11:56:29.000Z</time>
      </trkpt>
      <trkpt lat="48.18235" lon="-2.62406">
        <ele>93.599998474121</ele>
        <time>2021-10-15T11:56:30.000Z</time>
      </trkpt>
      <trkpt lat="48.18235" lon="-2.62406">
        <ele>93.599998474121</ele>
        <time>2021-10-15T11:56:31.000Z</time>
      </trkpt>
      <trkpt lat="48.18236" lon="-2.62406">
        <ele>93.599998474121</ele>
        <time>2021-10-15T11:56:32.000Z</time>
      </trkpt>
      <trkpt lat="48.18236" lon="-2.62406">
        <ele>93.599998474121</ele>
        <time>2021-10-15T11:56:33.000Z</time>
      </trkpt>
      <trkpt lat="48.18236" lon="-2.62406">
        <ele>93.599998474121</ele>
        <time>2021-10-15T11:56:34.000Z</time>
      </trkpt>
      <trkpt lat="48.18235" lon="-2.62406">
        <ele>93.599998474121</ele>
        <time>2021-10-15T11:56:35.000Z</time>
      </trkpt>
      <trkpt lat="48.18235" lon="-2.62407">
        <ele>93.400001525879</ele>
        <time>2021-10-15T11:56:36.000Z</time>
      </trkpt>
      <trkpt lat="48.18235" lon="-2.62408">
        <ele>93.400001525879</ele>
        <time>2021-10-15T11:56:37.000Z</time>
      </trkpt>
      <trkpt lat="48.18235" lon="-2.62408">
        <ele>93.400001525879</ele>
        <time>2021-10-15T11:56:38.000Z</time>
      </trkpt>
      <trkpt lat="48.18234" lon="-2.62408">
        <ele>93.400001525879</ele>
        <time>2021-10-15T11:56:39.000Z</time>
      </trkpt>
      <trkpt lat="48.18235" lon="-2.62408">
        <ele>93.400001525879</ele>
        <time>2021-10-15T11:56:40.000Z</time>
      </trkpt>
      <trkpt lat="48.18235" lon="-2.62408">
        <ele>93.400001525879</ele>
        <time>2021-10-15T11:56:41.000Z</time>
      </trkpt>
      <trkpt lat="48.18235" lon="-2.62408">
        <ele>93.400001525879</ele>
        <time>2021-10-15T11:56:42.000Z</time>
      </trkpt>
      <trkpt lat="48.18235" lon="-2.62408">
        <ele>93.400001525879</ele>
        <time>2021-10-15T11:56:43.000Z</time>
      </trkpt>
      <trkpt lat="48.18235" lon="-2.62408">
        <ele>93.400001525879</ele>
        <time>2021-10-15T11:56:44.000Z</time>
      </trkpt>
      <trkpt lat="48.18235" lon="-2.62407">
        <ele>93.400001525879</ele>
        <time>2021-10-15T11:56:45.000Z</time>
      </trkpt>
      <trkpt lat="48.18235" lon="-2.62407">
        <ele>93.400001525879</ele>
        <time>2021-10-15T11:56:46.000Z</time>
      </trkpt>
      <trkpt lat="48.18235" lon="-2.62407">
        <ele>93.400001525879</ele>
        <time>2021-10-15T11:56:47.000Z</time>
      </trkpt>
      <trkpt lat="48.18235" lon="-2.62407">
        <ele>93.400001525879</ele>
        <time>2021-10-15T11:56:48.000Z</time>
      </trkpt>
      <trkpt lat="48.18236" lon="-2.62407">
        <ele>93.400001525879</ele>
        <time>2021-10-15T11:56:49.000Z</time>
      </trkpt>
      <trkpt lat="48.18236" lon="-2.62407">
        <ele>93.400001525879</ele>
        <time>2021-10-15T11:56:50.000Z</time>
      </trkpt>
      <trkpt lat="48.18236" lon="-2.62406">
        <ele>93.400001525879</ele>
        <time>2021-10-15T11:56:51.000Z</time>
      </trkpt>
      <trkpt lat="48.18235" lon="-2.62406">
        <ele>93.400001525879</ele>
        <time>2021-10-15T11:56:52.000Z</time>
      </trkpt>
      <trkpt lat="48.18235" lon="-2.62406">
        <ele>93.400001525879</ele>
        <time>2021-10-15T11:56:53.000Z</time>
      </trkpt>
      <trkpt lat="48.18236" lon="-2.62406">
        <ele>93.599998474121</ele>
        <time>2021-10-15T11:56:54.000Z</time>
      </trkpt>
      <trkpt lat="48.18236" lon="-2.62406">
        <ele>93.400001525879</ele>
        <time>2021-10-15T11:56:55.000Z</time>
      </trkpt>
      <trkpt lat="48.18236" lon="-2.62406">
        <ele>93.400001525879</ele>
        <time>2021-10-15T11:56:56.000Z</time>
      </trkpt>
      <trkpt lat="48.18236" lon="-2.62406">
        <ele>93.400001525879</ele>
        <time>2021-10-15T11:56:57.000Z</time>
      </trkpt>
      <trkpt lat="48.18236" lon="-2.62407">
        <ele>93.400001525879</ele>
        <time>2021-10-15T11:56:58.000Z</time>
      </trkpt>
      <trkpt lat="48.18236" lon="-2.62406">
        <ele>93.400001525879</ele>
        <time>2021-10-15T11:56:59.000Z</time>
      </trkpt>
      <trkpt lat="48.18235" lon="-2.62406">
        <ele>93.400001525879</ele>
        <time>2021-10-15T11:57:00.000Z</time>
      </trkpt>
      <trkpt lat="48.18235" lon="-2.62406">
        <ele>93.599998474121</ele>
        <time>2021-10-15T11:57:01.000Z</time>
      </trkpt>
      <trkpt lat="48.18235" lon="-2.62406">
        <ele>93.599998474121</ele>
        <time>2021-10-15T11:57:02.000Z</time>
      </trkpt>
      <trkpt lat="48.18235" lon="-2.62406">
        <ele>93.599998474121</ele>
        <time>2021-10-15T11:57:03.000Z</time>
      </trkpt>
      <trkpt lat="48.18235" lon="-2.62406">
        <ele>93.599998474121</ele>
        <time>2021-10-15T11:57:04.000Z</time>
      </trkpt>
      <trkpt lat="48.18235" lon="-2.62406">
        <ele>93.599998474121</ele>
        <time>2021-10-15T11:57:05.000Z</time>
      </trkpt>
      <trkpt lat="48.18235" lon="-2.62406">
        <ele>93.599998474121</ele>
        <time>2021-10-15T11:57:06.000Z</time>
      </trkpt>
      <trkpt lat="48.18235" lon="-2.62406">
        <ele>93.599998474121</ele>
        <time>2021-10-15T11:57:07.000Z</time>
      </trkpt>
      <trkpt lat="48.18235" lon="-2.62406">
        <ele>93.599998474121</ele>
        <time>2021-10-15T11:57:08.000Z</time>
      </trkpt>
      <trkpt lat="48.18235" lon="-2.62406">
        <ele>93.599998474121</ele>
        <time>2021-10-15T11:57:09.000Z</time>
      </trkpt>
      <trkpt lat="48.18235" lon="-2.62406">
        <ele>93.400001525879</ele>
        <time>2021-10-15T11:57:10.000Z</time>
      </trkpt>
      <trkpt lat="48.18235" lon="-2.62406">
        <ele>93.599998474121</ele>
        <time>2021-10-15T11:57:11.000Z</time>
      </trkpt>
      <trkpt lat="48.18235" lon="-2.62406">
        <ele>93.400001525879</ele>
        <time>2021-10-15T11:57:12.000Z</time>
      </trkpt>
      <trkpt lat="48.18234" lon="-2.62407">
        <ele>93.400001525879</ele>
        <time>2021-10-15T11:57:13.000Z</time>
      </trkpt>
      <trkpt lat="48.18234" lon="-2.62408">
        <ele>93.400001525879</ele>
        <time>2021-10-15T11:57:14.000Z</time>
      </trkpt>
      <trkpt lat="48.18233" lon="-2.62408">
        <ele>93.400001525879</ele>
        <time>2021-10-15T11:57:15.000Z</time>
      </trkpt>
      <trkpt lat="48.18233" lon="-2.62408">
        <ele>93.400001525879</ele>
        <time>2021-10-15T11:57:16.000Z</time>
      </trkpt>
      <trkpt lat="48.18233" lon="-2.62409">
        <ele>93.400001525879</ele>
        <time>2021-10-15T11:57:17.000Z</time>
      </trkpt>
      <trkpt lat="48.18232" lon="-2.62409">
        <ele>93.400001525879</ele>
        <time>2021-10-15T11:57:18.000Z</time>
      </trkpt>
      <trkpt lat="48.18232" lon="-2.6241">
        <ele>93.400001525879</ele>
        <time>2021-10-15T11:57:19.000Z</time>
      </trkpt>
      <trkpt lat="48.18232" lon="-2.6241">
        <ele>93.400001525879</ele>
        <time>2021-10-15T11:57:20.000Z</time>
      </trkpt>
      <trkpt lat="48.18232" lon="-2.62411">
        <ele>93.400001525879</ele>
        <time>2021-10-15T11:57:21.000Z</time>
      </trkpt>
      <trkpt lat="48.18232" lon="-2.62411">
        <ele>93.400001525879</ele>
        <time>2021-10-15T11:57:22.000Z</time>
      </trkpt>
      <trkpt lat="48.18232" lon="-2.62411">
        <ele>93.400001525879</ele>
        <time>2021-10-15T11:57:23.000Z</time>
      </trkpt>
      <trkpt lat="48.18232" lon="-2.62411">
        <ele>93.400001525879</ele>
        <time>2021-10-15T11:57:24.000Z</time>
      </trkpt>
      <trkpt lat="48.18232" lon="-2.62411">
        <ele>93.400001525879</ele>
        <time>2021-10-15T11:57:25.000Z</time>
      </trkpt>
      <trkpt lat="48.18232" lon="-2.62411">
        <ele>93.400001525879</ele>
        <time>2021-10-15T11:57:26.000Z</time>
      </trkpt>
      <trkpt lat="48.18232" lon="-2.62411">
        <ele>93.400001525879</ele>
        <time>2021-10-15T11:57:27.000Z</time>
      </trkpt>
      <trkpt lat="48.18232" lon="-2.62412">
        <ele>93.400001525879</ele>
        <time>2021-10-15T11:57:28.000Z</time>
      </trkpt>
      <trkpt lat="48.18232" lon="-2.62412">
        <ele>93.199996948242</ele>
        <time>2021-10-15T11:57:29.000Z</time>
      </trkpt>
      <trkpt lat="48.18232" lon="-2.62412">
        <ele>93.199996948242</ele>
        <time>2021-10-15T11:57:30.000Z</time>
      </trkpt>
      <trkpt lat="48.18232" lon="-2.62412">
        <ele>93.199996948242</ele>
        <time>2021-10-15T11:57:31.000Z</time>
      </trkpt>
      <trkpt lat="48.18232" lon="-2.62412">
        <ele>93.199996948242</ele>
        <time>2021-10-15T11:57:32.000Z</time>
      </trkpt>
      <trkpt lat="48.18232" lon="-2.62412">
        <ele>93.199996948242</ele>
        <time>2021-10-15T11:57:33.000Z</time>
      </trkpt>
      <trkpt lat="48.18232" lon="-2.62412">
        <ele>93.199996948242</ele>
        <time>2021-10-15T11:57:34.000Z</time>
      </trkpt>
      <trkpt lat="48.18233" lon="-2.62412">
        <ele>93.199996948242</ele>
        <time>2021-10-15T11:57:35.000Z</time>
      </trkpt>
      <trkpt lat="48.18233" lon="-2.62413">
        <ele>93.199996948242</ele>
        <time>2021-10-15T11:57:36.000Z</time>
      </trkpt>
      <trkpt lat="48.18233" lon="-2.62412">
        <ele>93.199996948242</ele>
        <time>2021-10-15T11:57:37.000Z</time>
      </trkpt>
      <trkpt lat="48.18232" lon="-2.62412">
        <ele>93.199996948242</ele>
        <time>2021-10-15T11:57:38.000Z</time>
      </trkpt>
      <trkpt lat="48.18232" lon="-2.62412">
        <ele>93.199996948242</ele>
        <time>2021-10-15T11:57:39.000Z</time>
      </trkpt>
      <trkpt lat="48.18232" lon="-2.62412">
        <ele>93.199996948242</ele>
        <time>2021-10-15T11:57:40.000Z</time>
      </trkpt>
      <trkpt lat="48.18232" lon="-2.62412">
        <ele>93.199996948242</ele>
        <time>2021-10-15T11:57:41.000Z</time>
      </trkpt>
      <trkpt lat="48.18232" lon="-2.62412">
        <ele>93.199996948242</ele>
        <time>2021-10-15T11:57:42.000Z</time>
      </trkpt>
      <trkpt lat="48.18232" lon="-2.62412">
        <ele>93.199996948242</ele>
        <time>2021-10-15T11:57:43.000Z</time>
      </trkpt>
      <trkpt lat="48.18231" lon="-2.62412">
        <ele>93.199996948242</ele>
        <time>2021-10-15T11:57:44.000Z</time>
      </trkpt>
      <trkpt lat="48.18231" lon="-2.62412">
        <ele>93.199996948242</ele>
        <time>2021-10-15T11:57:45.000Z</time>
      </trkpt>
      <trkpt lat="48.18231" lon="-2.62413">
        <ele>93.199996948242</ele>
        <time>2021-10-15T11:57:46.000Z</time>
      </trkpt>
      <trkpt lat="48.18232" lon="-2.62414">
        <ele>93.199996948242</ele>
        <time>2021-10-15T11:57:47.000Z</time>
      </trkpt>
      <trkpt lat="48.18233" lon="-2.62414">
        <ele>93.199996948242</ele>
        <time>2021-10-15T11:57:48.000Z</time>
      </trkpt>
      <trkpt lat="48.18234" lon="-2.62413">
        <ele>93.199996948242</ele>
        <time>2021-10-15T11:57:49.000Z</time>
      </trkpt>
      <trkpt lat="48.18234" lon="-2.62413">
        <ele>93.199996948242</ele>
        <time>2021-10-15T11:57:50.000Z</time>
      </trkpt>
      <trkpt lat="48.18234" lon="-2.62412">
        <ele>93.199996948242</ele>
        <time>2021-10-15T11:57:51.000Z</time>
      </trkpt>
      <trkpt lat="48.18234" lon="-2.62412">
        <ele>93.400001525879</ele>
        <time>2021-10-15T11:57:52.000Z</time>
      </trkpt>
      <trkpt lat="48.18234" lon="-2.62411">
        <ele>93.400001525879</ele>
        <time>2021-10-15T11:57:53.000Z</time>
      </trkpt>
      <trkpt lat="48.18234" lon="-2.62411">
        <ele>93.400001525879</ele>
        <time>2021-10-15T11:57:54.000Z</time>
      </trkpt>
      <trkpt lat="48.18234" lon="-2.62411">
        <ele>93.400001525879</ele>
        <time>2021-10-15T11:57:55.000Z</time>
      </trkpt>
      <trkpt lat="48.18233" lon="-2.62411">
        <ele>93.400001525879</ele>
        <time>2021-10-15T11:57:56.000Z</time>
      </trkpt>
      <trkpt lat="48.18233" lon="-2.62411">
        <ele>93.400001525879</ele>
        <time>2021-10-15T11:57:57.000Z</time>
      </trkpt>
      <trkpt lat="48.18233" lon="-2.62411">
        <ele>93.400001525879</ele>
        <time>2021-10-15T11:57:58.000Z</time>
      </trkpt>
      <trkpt lat="48.18234" lon="-2.62411">
        <ele>93.400001525879</ele>
        <time>2021-10-15T11:57:59.000Z</time>
      </trkpt>
      <trkpt lat="48.18234" lon="-2.62411">
        <ele>93.400001525879</ele>
        <time>2021-10-15T11:58:00.000Z</time>
      </trkpt>
      <trkpt lat="48.18236" lon="-2.6241">
        <ele>93.400001525879</ele>
        <time>2021-10-15T11:58:01.000Z</time>
      </trkpt>
      <trkpt lat="48.18236" lon="-2.6241">
        <ele>93.400001525879</ele>
        <time>2021-10-15T11:58:02.000Z</time>
      </trkpt>
      <trkpt lat="48.18236" lon="-2.62409">
        <ele>93.400001525879</ele>
        <time>2021-10-15T11:58:03.000Z</time>
      </trkpt>
      <trkpt lat="48.18237" lon="-2.62409">
        <ele>93.400001525879</ele>
        <time>2021-10-15T11:58:04.000Z</time>
      </trkpt>
      <trkpt lat="48.18238" lon="-2.62409">
        <ele>93.400001525879</ele>
        <time>2021-10-15T11:58:05.000Z</time>
      </trkpt>
      <trkpt lat="48.18238" lon="-2.62409">
        <ele>93.400001525879</ele>
        <time>2021-10-15T11:58:06.000Z</time>
      </trkpt>
      <trkpt lat="48.18238" lon="-2.62408">
        <ele>93.400001525879</ele>
        <time>2021-10-15T11:58:07.000Z</time>
      </trkpt>
      <trkpt lat="48.18239" lon="-2.62406">
        <ele>93.400001525879</ele>
        <time>2021-10-15T11:58:08.000Z</time>
      </trkpt>
      <trkpt lat="48.18239" lon="-2.62405">
        <ele>93.599998474121</ele>
        <time>2021-10-15T11:58:09.000Z</time>
      </trkpt>
      <trkpt lat="48.1824" lon="-2.62404">
        <ele>93.599998474121</ele>
        <time>2021-10-15T11:58:10.000Z</time>
      </trkpt>
      <trkpt lat="48.1824" lon="-2.62402">
        <ele>93.599998474121</ele>
        <time>2021-10-15T11:58:11.000Z</time>
      </trkpt>
      <trkpt lat="48.18241" lon="-2.62401">
        <ele>93.599998474121</ele>
        <time>2021-10-15T11:58:12.000Z</time>
      </trkpt>
      <trkpt lat="48.18242" lon="-2.624">
        <ele>93.599998474121</ele>
        <time>2021-10-15T11:58:13.000Z</time>
      </trkpt>
      <trkpt lat="48.18243" lon="-2.62398">
        <ele>93.800003051758</ele>
        <time>2021-10-15T11:58:14.000Z</time>
      </trkpt>
      <trkpt lat="48.18244" lon="-2.62397">
        <ele>93.800003051758</ele>
        <time>2021-10-15T11:58:15.000Z</time>
      </trkpt>
      <trkpt lat="48.18245" lon="-2.62396">
        <ele>93.800003051758</ele>
        <time>2021-10-15T11:58:16.000Z</time>
      </trkpt>
      <trkpt lat="48.18246" lon="-2.62394">
        <ele>93.800003051758</ele>
        <time>2021-10-15T11:58:17.000Z</time>
      </trkpt>
      <trkpt lat="48.18248" lon="-2.62392">
        <ele>93.800003051758</ele>
        <time>2021-10-15T11:58:18.000Z</time>
      </trkpt>
      <trkpt lat="48.18249" lon="-2.6239">
        <ele>93.800003051758</ele>
        <time>2021-10-15T11:58:19.000Z</time>
      </trkpt>
      <trkpt lat="48.1825" lon="-2.62389">
        <ele>93.800003051758</ele>
        <time>2021-10-15T11:58:20.000Z</time>
      </trkpt>
      <trkpt lat="48.18251" lon="-2.62387">
        <ele>93.800003051758</ele>
        <time>2021-10-15T11:58:21.000Z</time>
      </trkpt>
      <trkpt lat="48.18252" lon="-2.62386">
        <ele>93.800003051758</ele>
        <time>2021-10-15T11:58:22.000Z</time>
      </trkpt>
      <trkpt lat="48.18254" lon="-2.62384">
        <ele>93.800003051758</ele>
        <time>2021-10-15T11:58:23.000Z</time>
      </trkpt>
      <trkpt lat="48.18255" lon="-2.62382">
        <ele>93.800003051758</ele>
        <time>2021-10-15T11:58:24.000Z</time>
      </trkpt>
      <trkpt lat="48.18257" lon="-2.6238">
        <ele>93.800003051758</ele>
        <time>2021-10-15T11:58:25.000Z</time>
      </trkpt>
      <trkpt lat="48.1826" lon="-2.62379">
        <ele>93.800003051758</ele>
        <time>2021-10-15T11:58:26.000Z</time>
      </trkpt>
      <trkpt lat="48.18262" lon="-2.62378">
        <ele>93.800003051758</ele>
        <time>2021-10-15T11:58:27.000Z</time>
      </trkpt>
      <trkpt lat="48.18264" lon="-2.62378">
        <ele>93.599998474121</ele>
        <time>2021-10-15T11:58:28.000Z</time>
      </trkpt>
      <trkpt lat="48.18267" lon="-2.62377">
        <ele>93.599998474121</ele>
        <time>2021-10-15T11:58:29.000Z</time>
      </trkpt>
      <trkpt lat="48.1827" lon="-2.62376">
        <ele>93.599998474121</ele>
        <time>2021-10-15T11:58:30.000Z</time>
      </trkpt>
      <trkpt lat="48.18273" lon="-2.62375">
        <ele>93.599998474121</ele>
        <time>2021-10-15T11:58:31.000Z</time>
      </trkpt>
      <trkpt lat="48.18276" lon="-2.62375">
        <ele>93.599998474121</ele>
        <time>2021-10-15T11:58:32.000Z</time>
      </trkpt>
      <trkpt lat="48.18279" lon="-2.62374">
        <ele>93.599998474121</ele>
        <time>2021-10-15T11:58:33.000Z</time>
      </trkpt>
      <trkpt lat="48.18282" lon="-2.62374">
        <ele>93.599998474121</ele>
        <time>2021-10-15T11:58:34.000Z</time>
      </trkpt>
      <trkpt lat="48.18285" lon="-2.62373">
        <ele>93.599998474121</ele>
        <time>2021-10-15T11:58:35.000Z</time>
      </trkpt>
      <trkpt lat="48.18288" lon="-2.62372">
        <ele>93.800003051758</ele>
        <time>2021-10-15T11:58:36.000Z</time>
      </trkpt>
      <trkpt lat="48.18292" lon="-2.62371">
        <ele>93.800003051758</ele>
        <time>2021-10-15T11:58:37.000Z</time>
      </trkpt>
      <trkpt lat="48.18295" lon="-2.6237">
        <ele>93.800003051758</ele>
        <time>2021-10-15T11:58:38.000Z</time>
      </trkpt>
      <trkpt lat="48.18298" lon="-2.6237">
        <ele>93.800003051758</ele>
        <time>2021-10-15T11:58:39.000Z</time>
      </trkpt>
      <trkpt lat="48.18302" lon="-2.62369">
        <ele>93.599998474121</ele>
        <time>2021-10-15T11:58:40.000Z</time>
      </trkpt>
      <trkpt lat="48.18305" lon="-2.62369">
        <ele>93.599998474121</ele>
        <time>2021-10-15T11:58:41.000Z</time>
      </trkpt>
      <trkpt lat="48.18308" lon="-2.62369">
        <ele>93.400001525879</ele>
        <time>2021-10-15T11:58:42.000Z</time>
      </trkpt>
      <trkpt lat="48.18312" lon="-2.62368">
        <ele>93.400001525879</ele>
        <time>2021-10-15T11:58:43.000Z</time>
      </trkpt>
      <trkpt lat="48.18315" lon="-2.62368">
        <ele>93.199996948242</ele>
        <time>2021-10-15T11:58:44.000Z</time>
      </trkpt>
      <trkpt lat="48.18318" lon="-2.62367">
        <ele>93.199996948242</ele>
        <time>2021-10-15T11:58:45.000Z</time>
      </trkpt>
      <trkpt lat="48.18322" lon="-2.62367">
        <ele>93</ele>
        <time>2021-10-15T11:58:46.000Z</time>
      </trkpt>
      <trkpt lat="48.18325" lon="-2.62367">
        <ele>93</ele>
        <time>2021-10-15T11:58:47.000Z</time>
      </trkpt>
      <trkpt lat="48.18329" lon="-2.62366">
        <ele>93</ele>
        <time>2021-10-15T11:58:48.000Z</time>
      </trkpt>
      <trkpt lat="48.18332" lon="-2.62365">
        <ele>93.199996948242</ele>
        <time>2021-10-15T11:58:49.000Z</time>
      </trkpt>
      <trkpt lat="48.18336" lon="-2.62364">
        <ele>93.400001525879</ele>
        <time>2021-10-15T11:58:50.000Z</time>
      </trkpt>
      <trkpt lat="48.1834" lon="-2.62363">
        <ele>93.599998474121</ele>
        <time>2021-10-15T11:58:51.000Z</time>
      </trkpt>
      <trkpt lat="48.18346" lon="-2.62362">
        <ele>94</ele>
        <time>2021-10-15T11:58:52.000Z</time>
      </trkpt>
      <trkpt lat="48.18346" lon="-2.62362">
        <ele>94</ele>
        <time>2021-10-15T11:58:53.000Z</time>
      </trkpt>
      <trkpt lat="48.18349" lon="-2.62362">
        <ele>94</ele>
        <time>2021-10-15T11:58:54.000Z</time>
      </trkpt>
      <trkpt lat="48.18352" lon="-2.62361">
        <ele>94.199996948242</ele>
        <time>2021-10-15T11:58:55.000Z</time>
      </trkpt>
      <trkpt lat="48.18354" lon="-2.6236">
        <ele>94.199996948242</ele>
        <time>2021-10-15T11:58:56.000Z</time>
      </trkpt>
      <trkpt lat="48.18357" lon="-2.6236">
        <ele>94.199996948242</ele>
        <time>2021-10-15T11:58:57.000Z</time>
      </trkpt>
      <trkpt lat="48.1836" lon="-2.62359">
        <ele>94.199996948242</ele>
        <time>2021-10-15T11:58:58.000Z</time>
      </trkpt>
      <trkpt lat="48.18363" lon="-2.62359">
        <ele>94.199996948242</ele>
        <time>2021-10-15T11:58:59.000Z</time>
      </trkpt>
      <trkpt lat="48.18366" lon="-2.62358">
        <ele>94.199996948242</ele>
        <time>2021-10-15T11:59:00.000Z</time>
      </trkpt>
      <trkpt lat="48.18369" lon="-2.62358">
        <ele>94.199996948242</ele>
        <time>2021-10-15T11:59:01.000Z</time>
      </trkpt>
      <trkpt lat="48.18373" lon="-2.62357">
        <ele>94.199996948242</ele>
        <time>2021-10-15T11:59:02.000Z</time>
      </trkpt>
      <trkpt lat="48.18376" lon="-2.62356">
        <ele>94.400001525879</ele>
        <time>2021-10-15T11:59:03.000Z</time>
      </trkpt>
      <trkpt lat="48.1838" lon="-2.62355">
        <ele>94.400001525879</ele>
        <time>2021-10-15T11:59:04.000Z</time>
      </trkpt>
      <trkpt lat="48.18384" lon="-2.62354">
        <ele>94.400001525879</ele>
        <time>2021-10-15T11:59:05.000Z</time>
      </trkpt>
      <trkpt lat="48.18388" lon="-2.62353">
        <ele>94.599998474121</ele>
        <time>2021-10-15T11:59:06.000Z</time>
      </trkpt>
      <trkpt lat="48.18393" lon="-2.62352">
        <ele>94.800003051758</ele>
        <time>2021-10-15T11:59:07.000Z</time>
      </trkpt>
      <trkpt lat="48.18397" lon="-2.62352">
        <ele>95</ele>
        <time>2021-10-15T11:59:08.000Z</time>
      </trkpt>
      <trkpt lat="48.18401" lon="-2.62351">
        <ele>95</ele>
        <time>2021-10-15T11:59:09.000Z</time>
      </trkpt>
      <trkpt lat="48.18405" lon="-2.62351">
        <ele>95</ele>
        <time>2021-10-15T11:59:10.000Z</time>
      </trkpt>
      <trkpt lat="48.18409" lon="-2.62351">
        <ele>95</ele>
        <time>2021-10-15T11:59:11.000Z</time>
      </trkpt>
      <trkpt lat="48.18411" lon="-2.6235">
        <ele>95.199996948242</ele>
        <time>2021-10-15T11:59:12.000Z</time>
      </trkpt>
      <trkpt lat="48.18414" lon="-2.62351">
        <ele>95.199996948242</ele>
        <time>2021-10-15T11:59:13.000Z</time>
      </trkpt>
      <trkpt lat="48.18418" lon="-2.6235">
        <ele>95.400001525879</ele>
        <time>2021-10-15T11:59:14.000Z</time>
      </trkpt>
      <trkpt lat="48.18421" lon="-2.62351">
        <ele>95.400001525879</ele>
        <time>2021-10-15T11:59:15.000Z</time>
      </trkpt>
      <trkpt lat="48.18424" lon="-2.62351">
        <ele>95.599998474121</ele>
        <time>2021-10-15T11:59:16.000Z</time>
      </trkpt>
      <trkpt lat="48.18428" lon="-2.62351">
        <ele>95.599998474121</ele>
        <time>2021-10-15T11:59:17.000Z</time>
      </trkpt>
      <trkpt lat="48.18432" lon="-2.62351">
        <ele>95.800003051758</ele>
        <time>2021-10-15T11:59:18.000Z</time>
      </trkpt>
      <trkpt lat="48.18436" lon="-2.62352">
        <ele>96</ele>
        <time>2021-10-15T11:59:19.000Z</time>
      </trkpt>
      <trkpt lat="48.1844" lon="-2.62353">
        <ele>96.199996948242</ele>
        <time>2021-10-15T11:59:20.000Z</time>
      </trkpt>
      <trkpt lat="48.18444" lon="-2.62354">
        <ele>96.400001525879</ele>
        <time>2021-10-15T11:59:21.000Z</time>
      </trkpt>
      <trkpt lat="48.18449" lon="-2.62355">
        <ele>96.800003051758</ele>
        <time>2021-10-15T11:59:22.000Z</time>
      </trkpt>
      <trkpt lat="48.18453" lon="-2.62356">
        <ele>97.199996948242</ele>
        <time>2021-10-15T11:59:23.000Z</time>
      </trkpt>
      <trkpt lat="48.18457" lon="-2.62357">
        <ele>97.599998474121</ele>
        <time>2021-10-15T11:59:24.000Z</time>
      </trkpt>
      <trkpt lat="48.18461" lon="-2.62357">
        <ele>98</ele>
        <time>2021-10-15T11:59:25.000Z</time>
      </trkpt>
      <trkpt lat="48.18466" lon="-2.62358">
        <ele>98.400001525879</ele>
        <time>2021-10-15T11:59:26.000Z</time>
      </trkpt>
      <trkpt lat="48.18469" lon="-2.6236">
        <ele>98.800003051758</ele>
        <time>2021-10-15T11:59:27.000Z</time>
      </trkpt>
      <trkpt lat="48.18473" lon="-2.62361">
        <ele>99</ele>
        <time>2021-10-15T11:59:28.000Z</time>
      </trkpt>
      <trkpt lat="48.18477" lon="-2.62362">
        <ele>99.199996948242</ele>
        <time>2021-10-15T11:59:29.000Z</time>
      </trkpt>
      <trkpt lat="48.18481" lon="-2.62363">
        <ele>99.400001525879</ele>
        <time>2021-10-15T11:59:30.000Z</time>
      </trkpt>
      <trkpt lat="48.18485" lon="-2.62363">
        <ele>99.599998474121</ele>
        <time>2021-10-15T11:59:31.000Z</time>
      </trkpt>
      <trkpt lat="48.18489" lon="-2.62364">
        <ele>99.800003051758</ele>
        <time>2021-10-15T11:59:32.000Z</time>
      </trkpt>
      <trkpt lat="48.18493" lon="-2.62365">
        <ele>100</ele>
        <time>2021-10-15T11:59:33.000Z</time>
      </trkpt>
      <trkpt lat="48.18497" lon="-2.62366">
        <ele>100.19999694824</ele>
        <time>2021-10-15T11:59:34.000Z</time>
      </trkpt>
      <trkpt lat="48.18501" lon="-2.62367">
        <ele>100.59999847412</ele>
        <time>2021-10-15T11:59:35.000Z</time>
      </trkpt>
      <trkpt lat="48.18504" lon="-2.62368">
        <ele>100.80000305176</ele>
        <time>2021-10-15T11:59:36.000Z</time>
      </trkpt>
      <trkpt lat="48.18508" lon="-2.62368">
        <ele>101</ele>
        <time>2021-10-15T11:59:37.000Z</time>
      </trkpt>
      <trkpt lat="48.18511" lon="-2.62368">
        <ele>101.19999694824</ele>
        <time>2021-10-15T11:59:38.000Z</time>
      </trkpt>
      <trkpt lat="48.18515" lon="-2.62369">
        <ele>101.40000152588</ele>
        <time>2021-10-15T11:59:39.000Z</time>
      </trkpt>
      <trkpt lat="48.18519" lon="-2.62371">
        <ele>101.40000152588</ele>
        <time>2021-10-15T11:59:40.000Z</time>
      </trkpt>
      <trkpt lat="48.18522" lon="-2.62372">
        <ele>101.19999694824</ele>
        <time>2021-10-15T11:59:41.000Z</time>
      </trkpt>
      <trkpt lat="48.18526" lon="-2.62374">
        <ele>101.19999694824</ele>
        <time>2021-10-15T11:59:42.000Z</time>
      </trkpt>
      <trkpt lat="48.1853" lon="-2.62375">
        <ele>101.19999694824</ele>
        <time>2021-10-15T11:59:43.000Z</time>
      </trkpt>
      <trkpt lat="48.18534" lon="-2.62376">
        <ele>101.40000152588</ele>
        <time>2021-10-15T11:59:44.000Z</time>
      </trkpt>
      <trkpt lat="48.18538" lon="-2.62377">
        <ele>101.40000152588</ele>
        <time>2021-10-15T11:59:45.000Z</time>
      </trkpt>
      <trkpt lat="48.18541" lon="-2.62377">
        <ele>101.40000152588</ele>
        <time>2021-10-15T11:59:46.000Z</time>
      </trkpt>
      <trkpt lat="48.18545" lon="-2.62378">
        <ele>101.40000152588</ele>
        <time>2021-10-15T11:59:47.000Z</time>
      </trkpt>
      <trkpt lat="48.18549" lon="-2.62379">
        <ele>101.40000152588</ele>
        <time>2021-10-15T11:59:48.000Z</time>
      </trkpt>
      <trkpt lat="48.18553" lon="-2.6238">
        <ele>101.59999847412</ele>
        <time>2021-10-15T11:59:49.000Z</time>
      </trkpt>
      <trkpt lat="48.18556" lon="-2.62381">
        <ele>101.59999847412</ele>
        <time>2021-10-15T11:59:50.000Z</time>
      </trkpt>
      <trkpt lat="48.1856" lon="-2.62383">
        <ele>101.59999847412</ele>
        <time>2021-10-15T11:59:51.000Z</time>
      </trkpt>
      <trkpt lat="48.18564" lon="-2.62384">
        <ele>101.80000305176</ele>
        <time>2021-10-15T11:59:52.000Z</time>
      </trkpt>
      <trkpt lat="48.18568" lon="-2.62386">
        <ele>102</ele>
        <time>2021-10-15T11:59:53.000Z</time>
      </trkpt>
      <trkpt lat="48.18572" lon="-2.62388">
        <ele>102.19999694824</ele>
        <time>2021-10-15T11:59:54.000Z</time>
      </trkpt>
      <trkpt lat="48.18575" lon="-2.62389">
        <ele>102.19999694824</ele>
        <time>2021-10-15T11:59:55.000Z</time>
      </trkpt>
      <trkpt lat="48.18579" lon="-2.6239">
        <ele>102.19999694824</ele>
        <time>2021-10-15T11:59:56.000Z</time>
      </trkpt>
      <trkpt lat="48.18583" lon="-2.62391">
        <ele>102</ele>
        <time>2021-10-15T11:59:57.000Z</time>
      </trkpt>
      <trkpt lat="48.18586" lon="-2.62393">
        <ele>101.80000305176</ele>
        <time>2021-10-15T11:59:58.000Z</time>
      </trkpt>
      <trkpt lat="48.1859" lon="-2.62395">
        <ele>101.59999847412</ele>
        <time>2021-10-15T11:59:59.000Z</time>
      </trkpt>
      <trkpt lat="48.18593" lon="-2.62397">
        <ele>101.19999694824</ele>
        <time>2021-10-15T12:00:00.000Z</time>
      </trkpt>
      <trkpt lat="48.18596" lon="-2.62398">
        <ele>101</ele>
        <time>2021-10-15T12:00:01.000Z</time>
      </trkpt>
      <trkpt lat="48.18599" lon="-2.62399">
        <ele>101</ele>
        <time>2021-10-15T12:00:02.000Z</time>
      </trkpt>
      <trkpt lat="48.18602" lon="-2.62399">
        <ele>101</ele>
        <time>2021-10-15T12:00:03.000Z</time>
      </trkpt>
      <trkpt lat="48.18605" lon="-2.62398">
        <ele>101.19999694824</ele>
        <time>2021-10-15T12:00:04.000Z</time>
      </trkpt>
      <trkpt lat="48.18608" lon="-2.62398">
        <ele>101.40000152588</ele>
        <time>2021-10-15T12:00:05.000Z</time>
      </trkpt>
      <trkpt lat="48.18611" lon="-2.62398">
        <ele>101.59999847412</ele>
        <time>2021-10-15T12:00:06.000Z</time>
      </trkpt>
      <trkpt lat="48.18614" lon="-2.62399">
        <ele>101.59999847412</ele>
        <time>2021-10-15T12:00:07.000Z</time>
      </trkpt>
      <trkpt lat="48.18618" lon="-2.62399">
        <ele>101.59999847412</ele>
        <time>2021-10-15T12:00:08.000Z</time>
      </trkpt>
      <trkpt lat="48.18621" lon="-2.624">
        <ele>101.59999847412</ele>
        <time>2021-10-15T12:00:09.000Z</time>
      </trkpt>
      <trkpt lat="48.18625" lon="-2.62401">
        <ele>101.59999847412</ele>
        <time>2021-10-15T12:00:10.000Z</time>
      </trkpt>
      <trkpt lat="48.18629" lon="-2.62402">
        <ele>101.80000305176</ele>
        <time>2021-10-15T12:00:11.000Z</time>
      </trkpt>
      <trkpt lat="48.18632" lon="-2.62402">
        <ele>102</ele>
        <time>2021-10-15T12:00:12.000Z</time>
      </trkpt>
      <trkpt lat="48.18636" lon="-2.62403">
        <ele>101.80000305176</ele>
        <time>2021-10-15T12:00:13.000Z</time>
      </trkpt>
      <trkpt lat="48.1864" lon="-2.62403">
        <ele>101.80000305176</ele>
        <time>2021-10-15T12:00:14.000Z</time>
      </trkpt>
      <trkpt lat="48.18644" lon="-2.62404">
        <ele>101.80000305176</ele>
        <time>2021-10-15T12:00:15.000Z</time>
      </trkpt>
      <trkpt lat="48.18648" lon="-2.62405">
        <ele>101.80000305176</ele>
        <time>2021-10-15T12:00:16.000Z</time>
      </trkpt>
      <trkpt lat="48.18651" lon="-2.62405">
        <ele>101.80000305176</ele>
        <time>2021-10-15T12:00:17.000Z</time>
      </trkpt>
      <trkpt lat="48.18656" lon="-2.62406">
        <ele>102</ele>
        <time>2021-10-15T12:00:18.000Z</time>
      </trkpt>
      <trkpt lat="48.18661" lon="-2.62406">
        <ele>102.19999694824</ele>
        <time>2021-10-15T12:00:19.000Z</time>
      </trkpt>
      <trkpt lat="48.18664" lon="-2.62407">
        <ele>102.40000152588</ele>
        <time>2021-10-15T12:00:20.000Z</time>
      </trkpt>
      <trkpt lat="48.18668" lon="-2.62407">
        <ele>102.59999847412</ele>
        <time>2021-10-15T12:00:21.000Z</time>
      </trkpt>
      <trkpt lat="48.18672" lon="-2.62408">
        <ele>102.80000305176</ele>
        <time>2021-10-15T12:00:22.000Z</time>
      </trkpt>
      <trkpt lat="48.18676" lon="-2.62408">
        <ele>103</ele>
        <time>2021-10-15T12:00:23.000Z</time>
      </trkpt>
      <trkpt lat="48.18679" lon="-2.62408">
        <ele>103</ele>
        <time>2021-10-15T12:00:24.000Z</time>
      </trkpt>
      <trkpt lat="48.18682" lon="-2.62408">
        <ele>103.19999694824</ele>
        <time>2021-10-15T12:00:25.000Z</time>
      </trkpt>
      <trkpt lat="48.18687" lon="-2.62409">
        <ele>103.40000152588</ele>
        <time>2021-10-15T12:00:26.000Z</time>
      </trkpt>
      <trkpt lat="48.18691" lon="-2.62409">
        <ele>103.59999847412</ele>
        <time>2021-10-15T12:00:27.000Z</time>
      </trkpt>
      <trkpt lat="48.18695" lon="-2.62409">
        <ele>104</ele>
        <time>2021-10-15T12:00:28.000Z</time>
      </trkpt>
      <trkpt lat="48.18699" lon="-2.62408">
        <ele>104.19999694824</ele>
        <time>2021-10-15T12:00:29.000Z</time>
      </trkpt>
      <trkpt lat="48.18702" lon="-2.62408">
        <ele>104.59999847412</ele>
        <time>2021-10-15T12:00:30.000Z</time>
      </trkpt>
      <trkpt lat="48.18706" lon="-2.62408">
        <ele>104.80000305176</ele>
        <time>2021-10-15T12:00:31.000Z</time>
      </trkpt>
      <trkpt lat="48.1871" lon="-2.62408">
        <ele>105</ele>
        <time>2021-10-15T12:00:32.000Z</time>
      </trkpt>
      <trkpt lat="48.18713" lon="-2.62408">
        <ele>105.19999694824</ele>
        <time>2021-10-15T12:00:33.000Z</time>
      </trkpt>
      <trkpt lat="48.18717" lon="-2.62408">
        <ele>105.19999694824</ele>
        <time>2021-10-15T12:00:34.000Z</time>
      </trkpt>
      <trkpt lat="48.1872" lon="-2.62409">
        <ele>105.19999694824</ele>
        <time>2021-10-15T12:00:35.000Z</time>
      </trkpt>
      <trkpt lat="48.18723" lon="-2.62409">
        <ele>105.19999694824</ele>
        <time>2021-10-15T12:00:36.000Z</time>
      </trkpt>
      <trkpt lat="48.18728" lon="-2.6241">
        <ele>104.80000305176</ele>
        <time>2021-10-15T12:00:37.000Z</time>
      </trkpt>
      <trkpt lat="48.18732" lon="-2.62411">
        <ele>104.59999847412</ele>
        <time>2021-10-15T12:00:38.000Z</time>
      </trkpt>
      <trkpt lat="48.18737" lon="-2.62412">
        <ele>104.40000152588</ele>
        <time>2021-10-15T12:00:39.000Z</time>
      </trkpt>
      <trkpt lat="48.18742" lon="-2.62414">
        <ele>104</ele>
        <time>2021-10-15T12:00:40.000Z</time>
      </trkpt>
      <trkpt lat="48.18747" lon="-2.62415">
        <ele>103.80000305176</ele>
        <time>2021-10-15T12:00:41.000Z</time>
      </trkpt>
      <trkpt lat="48.18751" lon="-2.62415">
        <ele>103.80000305176</ele>
        <time>2021-10-15T12:00:42.000Z</time>
      </trkpt>
      <trkpt lat="48.18756" lon="-2.62417">
        <ele>104</ele>
        <time>2021-10-15T12:00:43.000Z</time>
      </trkpt>
      <trkpt lat="48.18761" lon="-2.62418">
        <ele>104</ele>
        <time>2021-10-15T12:00:44.000Z</time>
      </trkpt>
      <trkpt lat="48.18767" lon="-2.6242">
        <ele>104</ele>
        <time>2021-10-15T12:00:45.000Z</time>
      </trkpt>
      <trkpt lat="48.18771" lon="-2.6242">
        <ele>104</ele>
        <time>2021-10-15T12:00:46.000Z</time>
      </trkpt>
      <trkpt lat="48.18775" lon="-2.62422">
        <ele>103.80000305176</ele>
        <time>2021-10-15T12:00:47.000Z</time>
      </trkpt>
      <trkpt lat="48.1878" lon="-2.62422">
        <ele>103.59999847412</ele>
        <time>2021-10-15T12:00:48.000Z</time>
      </trkpt>
      <trkpt lat="48.18785" lon="-2.62424">
        <ele>103.40000152588</ele>
        <time>2021-10-15T12:00:49.000Z</time>
      </trkpt>
      <trkpt lat="48.1879" lon="-2.62425">
        <ele>103.19999694824</ele>
        <time>2021-10-15T12:00:50.000Z</time>
      </trkpt>
      <trkpt lat="48.18795" lon="-2.62425">
        <ele>103.19999694824</ele>
        <time>2021-10-15T12:00:51.000Z</time>
      </trkpt>
      <trkpt lat="48.18803" lon="-2.62427">
        <ele>102.80000305176</ele>
        <time>2021-10-15T12:00:52.000Z</time>
      </trkpt>
      <trkpt lat="48.18803" lon="-2.62427">
        <ele>102.80000305176</ele>
        <time>2021-10-15T12:00:53.000Z</time>
      </trkpt>
      <trkpt lat="48.18807" lon="-2.62428">
        <ele>102.59999847412</ele>
        <time>2021-10-15T12:00:54.000Z</time>
      </trkpt>
      <trkpt lat="48.18812" lon="-2.62429">
        <ele>102.19999694824</ele>
        <time>2021-10-15T12:00:55.000Z</time>
      </trkpt>
      <trkpt lat="48.18817" lon="-2.6243">
        <ele>102</ele>
        <time>2021-10-15T12:00:56.000Z</time>
      </trkpt>
      <trkpt lat="48.18821" lon="-2.6243">
        <ele>101.80000305176</ele>
        <time>2021-10-15T12:00:57.000Z</time>
      </trkpt>
      <trkpt lat="48.18826" lon="-2.62429">
        <ele>101.80000305176</ele>
        <time>2021-10-15T12:00:58.000Z</time>
      </trkpt>
      <trkpt lat="48.1883" lon="-2.62429">
        <ele>101.80000305176</ele>
        <time>2021-10-15T12:00:59.000Z</time>
      </trkpt>
      <trkpt lat="48.18835" lon="-2.62428">
        <ele>101.80000305176</ele>
        <time>2021-10-15T12:01:00.000Z</time>
      </trkpt>
      <trkpt lat="48.18843" lon="-2.62427">
        <ele>102</ele>
        <time>2021-10-15T12:01:01.000Z</time>
      </trkpt>
      <trkpt lat="48.18843" lon="-2.62427">
        <ele>102</ele>
        <time>2021-10-15T12:01:02.000Z</time>
      </trkpt>
      <trkpt lat="48.18848" lon="-2.62425">
        <ele>102.40000152588</ele>
        <time>2021-10-15T12:01:03.000Z</time>
      </trkpt>
      <trkpt lat="48.18853" lon="-2.62424">
        <ele>102.59999847412</ele>
        <time>2021-10-15T12:01:04.000Z</time>
      </trkpt>
      <trkpt lat="48.18858" lon="-2.62421">
        <ele>103</ele>
        <time>2021-10-15T12:01:05.000Z</time>
      </trkpt>
      <trkpt lat="48.18862" lon="-2.6242">
        <ele>103.40000152588</ele>
        <time>2021-10-15T12:01:06.000Z</time>
      </trkpt>
      <trkpt lat="48.18867" lon="-2.62419">
        <ele>103.59999847412</ele>
        <time>2021-10-15T12:01:07.000Z</time>
      </trkpt>
      <trkpt lat="48.18871" lon="-2.62418">
        <ele>103.80000305176</ele>
        <time>2021-10-15T12:01:08.000Z</time>
      </trkpt>
      <trkpt lat="48.18876" lon="-2.62416">
        <ele>104.19999694824</ele>
        <time>2021-10-15T12:01:09.000Z</time>
      </trkpt>
      <trkpt lat="48.18881" lon="-2.62414">
        <ele>104.40000152588</ele>
        <time>2021-10-15T12:01:10.000Z</time>
      </trkpt>
      <trkpt lat="48.18885" lon="-2.62413">
        <ele>104.80000305176</ele>
        <time>2021-10-15T12:01:11.000Z</time>
      </trkpt>
      <trkpt lat="48.1889" lon="-2.62411">
        <ele>105</ele>
        <time>2021-10-15T12:01:12.000Z</time>
      </trkpt>
      <trkpt lat="48.18894" lon="-2.6241">
        <ele>105.19999694824</ele>
        <time>2021-10-15T12:01:13.000Z</time>
      </trkpt>
      <trkpt lat="48.18899" lon="-2.62408">
        <ele>105.59999847412</ele>
        <time>2021-10-15T12:01:14.000Z</time>
      </trkpt>
      <trkpt lat="48.18904" lon="-2.62407">
        <ele>105.80000305176</ele>
        <time>2021-10-15T12:01:15.000Z</time>
      </trkpt>
      <trkpt lat="48.18908" lon="-2.62405">
        <ele>106</ele>
        <time>2021-10-15T12:01:16.000Z</time>
      </trkpt>
      <trkpt lat="48.18912" lon="-2.62403">
        <ele>106</ele>
        <time>2021-10-15T12:01:17.000Z</time>
      </trkpt>
      <trkpt lat="48.18917" lon="-2.62401">
        <ele>106</ele>
        <time>2021-10-15T12:01:18.000Z</time>
      </trkpt>
      <trkpt lat="48.18922" lon="-2.62398">
        <ele>106.19999694824</ele>
        <time>2021-10-15T12:01:19.000Z</time>
      </trkpt>
      <trkpt lat="48.18926" lon="-2.62395">
        <ele>106.19999694824</ele>
        <time>2021-10-15T12:01:20.000Z</time>
      </trkpt>
      <trkpt lat="48.1893" lon="-2.62392">
        <ele>106.19999694824</ele>
        <time>2021-10-15T12:01:21.000Z</time>
      </trkpt>
      <trkpt lat="48.18934" lon="-2.6239">
        <ele>106.19999694824</ele>
        <time>2021-10-15T12:01:22.000Z</time>
      </trkpt>
      <trkpt lat="48.18938" lon="-2.62387">
        <ele>106.40000152588</ele>
        <time>2021-10-15T12:01:23.000Z</time>
      </trkpt>
      <trkpt lat="48.18941" lon="-2.62384">
        <ele>106.40000152588</ele>
        <time>2021-10-15T12:01:24.000Z</time>
      </trkpt>
      <trkpt lat="48.18945" lon="-2.62382">
        <ele>106.40000152588</ele>
        <time>2021-10-15T12:01:25.000Z</time>
      </trkpt>
      <trkpt lat="48.18949" lon="-2.62378">
        <ele>106.59999847412</ele>
        <time>2021-10-15T12:01:26.000Z</time>
      </trkpt>
      <trkpt lat="48.18953" lon="-2.62376">
        <ele>106.59999847412</ele>
        <time>2021-10-15T12:01:27.000Z</time>
      </trkpt>
      <trkpt lat="48.18957" lon="-2.62373">
        <ele>106.59999847412</ele>
        <time>2021-10-15T12:01:28.000Z</time>
      </trkpt>
      <trkpt lat="48.18961" lon="-2.62371">
        <ele>106.59999847412</ele>
        <time>2021-10-15T12:01:29.000Z</time>
      </trkpt>
      <trkpt lat="48.18965" lon="-2.62368">
        <ele>106.80000305176</ele>
        <time>2021-10-15T12:01:30.000Z</time>
      </trkpt>
      <trkpt lat="48.18968" lon="-2.62364">
        <ele>107</ele>
        <time>2021-10-15T12:01:31.000Z</time>
      </trkpt>
      <trkpt lat="48.18971" lon="-2.6236">
        <ele>107.40000152588</ele>
        <time>2021-10-15T12:01:32.000Z</time>
      </trkpt>
      <trkpt lat="48.18975" lon="-2.62356">
        <ele>107.59999847412</ele>
        <time>2021-10-15T12:01:33.000Z</time>
      </trkpt>
      <trkpt lat="48.18979" lon="-2.6235">
        <ele>108</ele>
        <time>2021-10-15T12:01:34.000Z</time>
      </trkpt>
      <trkpt lat="48.18982" lon="-2.62345">
        <ele>108.40000152588</ele>
        <time>2021-10-15T12:01:35.000Z</time>
      </trkpt>
      <trkpt lat="48.18984" lon="-2.62341">
        <ele>108.80000305176</ele>
        <time>2021-10-15T12:01:36.000Z</time>
      </trkpt>
      <trkpt lat="48.18987" lon="-2.62335">
        <ele>109.19999694824</ele>
        <time>2021-10-15T12:01:37.000Z</time>
      </trkpt>
      <trkpt lat="48.18991" lon="-2.6233">
        <ele>109.80000305176</ele>
        <time>2021-10-15T12:01:38.000Z</time>
      </trkpt>
      <trkpt lat="48.18994" lon="-2.62326">
        <ele>110</ele>
        <time>2021-10-15T12:01:39.000Z</time>
      </trkpt>
      <trkpt lat="48.18998" lon="-2.62321">
        <ele>110.40000152588</ele>
        <time>2021-10-15T12:01:40.000Z</time>
      </trkpt>
      <trkpt lat="48.19001" lon="-2.62316">
        <ele>110.59999847412</ele>
        <time>2021-10-15T12:01:41.000Z</time>
      </trkpt>
      <trkpt lat="48.19003" lon="-2.62311">
        <ele>111</ele>
        <time>2021-10-15T12:01:42.000Z</time>
      </trkpt>
      <trkpt lat="48.19006" lon="-2.62306">
        <ele>111.19999694824</ele>
        <time>2021-10-15T12:01:43.000Z</time>
      </trkpt>
      <trkpt lat="48.19008" lon="-2.62301">
        <ele>111.40000152588</ele>
        <time>2021-10-15T12:01:44.000Z</time>
      </trkpt>
      <trkpt lat="48.19011" lon="-2.62297">
        <ele>111.40000152588</ele>
        <time>2021-10-15T12:01:45.000Z</time>
      </trkpt>
      <trkpt lat="48.19013" lon="-2.62292">
        <ele>111.59999847412</ele>
        <time>2021-10-15T12:01:46.000Z</time>
      </trkpt>
      <trkpt lat="48.19015" lon="-2.62287">
        <ele>111.80000305176</ele>
        <time>2021-10-15T12:01:47.000Z</time>
      </trkpt>
      <trkpt lat="48.19017" lon="-2.62282">
        <ele>112.19999694824</ele>
        <time>2021-10-15T12:01:48.000Z</time>
      </trkpt>
      <trkpt lat="48.19021" lon="-2.62271">
        <ele>113</ele>
        <time>2021-10-15T12:01:49.000Z</time>
      </trkpt>
      <trkpt lat="48.19021" lon="-2.62271">
        <ele>113</ele>
        <time>2021-10-15T12:01:50.000Z</time>
      </trkpt>
      <trkpt lat="48.19022" lon="-2.62266">
        <ele>113.19999694824</ele>
        <time>2021-10-15T12:01:51.000Z</time>
      </trkpt>
      <trkpt lat="48.19023" lon="-2.62262">
        <ele>113.59999847412</ele>
        <time>2021-10-15T12:01:52.000Z</time>
      </trkpt>
      <trkpt lat="48.19025" lon="-2.62257">
        <ele>114</ele>
        <time>2021-10-15T12:01:53.000Z</time>
      </trkpt>
      <trkpt lat="48.19026" lon="-2.62252">
        <ele>114.40000152588</ele>
        <time>2021-10-15T12:01:54.000Z</time>
      </trkpt>
      <trkpt lat="48.19027" lon="-2.62247">
        <ele>114.59999847412</ele>
        <time>2021-10-15T12:01:55.000Z</time>
      </trkpt>
      <trkpt lat="48.19028" lon="-2.62243">
        <ele>114.80000305176</ele>
        <time>2021-10-15T12:01:56.000Z</time>
      </trkpt>
      <trkpt lat="48.19029" lon="-2.62238">
        <ele>115.40000152588</ele>
        <time>2021-10-15T12:01:57.000Z</time>
      </trkpt>
      <trkpt lat="48.19029" lon="-2.62233">
        <ele>115.59999847412</ele>
        <time>2021-10-15T12:01:58.000Z</time>
      </trkpt>
      <trkpt lat="48.1903" lon="-2.62228">
        <ele>116.19999694824</ele>
        <time>2021-10-15T12:01:59.000Z</time>
      </trkpt>
      <trkpt lat="48.19031" lon="-2.62224">
        <ele>116.40000152588</ele>
        <time>2021-10-15T12:02:00.000Z</time>
      </trkpt>
      <trkpt lat="48.19032" lon="-2.62218">
        <ele>116.59999847412</ele>
        <time>2021-10-15T12:02:01.000Z</time>
      </trkpt>
      <trkpt lat="48.19033" lon="-2.62212">
        <ele>117</ele>
        <time>2021-10-15T12:02:02.000Z</time>
      </trkpt>
      <trkpt lat="48.19033" lon="-2.62206">
        <ele>117.40000152588</ele>
        <time>2021-10-15T12:02:03.000Z</time>
      </trkpt>
      <trkpt lat="48.19033" lon="-2.622">
        <ele>117.80000305176</ele>
        <time>2021-10-15T12:02:04.000Z</time>
      </trkpt>
      <trkpt lat="48.19034" lon="-2.62194">
        <ele>118.19999694824</ele>
        <time>2021-10-15T12:02:05.000Z</time>
      </trkpt>
      <trkpt lat="48.19035" lon="-2.62187">
        <ele>118.59999847412</ele>
        <time>2021-10-15T12:02:06.000Z</time>
      </trkpt>
      <trkpt lat="48.19035" lon="-2.6218">
        <ele>119</ele>
        <time>2021-10-15T12:02:07.000Z</time>
      </trkpt>
      <trkpt lat="48.19037" lon="-2.62172">
        <ele>119.59999847412</ele>
        <time>2021-10-15T12:02:08.000Z</time>
      </trkpt>
      <trkpt lat="48.19038" lon="-2.62165">
        <ele>119.59999847412</ele>
        <time>2021-10-15T12:02:09.000Z</time>
      </trkpt>
      <trkpt lat="48.1904" lon="-2.62158">
        <ele>119.19999694824</ele>
        <time>2021-10-15T12:02:10.000Z</time>
      </trkpt>
      <trkpt lat="48.1904" lon="-2.62151">
        <ele>119.19999694824</ele>
        <time>2021-10-15T12:02:11.000Z</time>
      </trkpt>
      <trkpt lat="48.19041" lon="-2.62142">
        <ele>119.40000152588</ele>
        <time>2021-10-15T12:02:12.000Z</time>
      </trkpt>
      <trkpt lat="48.19041" lon="-2.62135">
        <ele>118.59999847412</ele>
        <time>2021-10-15T12:02:13.000Z</time>
      </trkpt>
      <trkpt lat="48.19042" lon="-2.62128">
        <ele>118.19999694824</ele>
        <time>2021-10-15T12:02:14.000Z</time>
      </trkpt>
      <trkpt lat="48.19042" lon="-2.62121">
        <ele>117.40000152588</ele>
        <time>2021-10-15T12:02:15.000Z</time>
      </trkpt>
      <trkpt lat="48.19044" lon="-2.62115">
        <ele>117.19999694824</ele>
        <time>2021-10-15T12:02:16.000Z</time>
      </trkpt>
      <trkpt lat="48.19044" lon="-2.62108">
        <ele>117</ele>
        <time>2021-10-15T12:02:17.000Z</time>
      </trkpt>
      <trkpt lat="48.19045" lon="-2.62101">
        <ele>116.59999847412</ele>
        <time>2021-10-15T12:02:18.000Z</time>
      </trkpt>
      <trkpt lat="48.19046" lon="-2.62094">
        <ele>116.40000152588</ele>
        <time>2021-10-15T12:02:19.000Z</time>
      </trkpt>
      <trkpt lat="48.19046" lon="-2.62085">
        <ele>116.19999694824</ele>
        <time>2021-10-15T12:02:20.000Z</time>
      </trkpt>
      <trkpt lat="48.19047" lon="-2.62078">
        <ele>116.40000152588</ele>
        <time>2021-10-15T12:02:21.000Z</time>
      </trkpt>
      <trkpt lat="48.19048" lon="-2.62071">
        <ele>116.19999694824</ele>
        <time>2021-10-15T12:02:22.000Z</time>
      </trkpt>
      <trkpt lat="48.1905" lon="-2.62063">
        <ele>115.80000305176</ele>
        <time>2021-10-15T12:02:23.000Z</time>
      </trkpt>
      <trkpt lat="48.19052" lon="-2.62056">
        <ele>115.59999847412</ele>
        <time>2021-10-15T12:02:24.000Z</time>
      </trkpt>
      <trkpt lat="48.19053" lon="-2.62049">
        <ele>115.59999847412</ele>
        <time>2021-10-15T12:02:25.000Z</time>
      </trkpt>
      <trkpt lat="48.19055" lon="-2.62043">
        <ele>115.19999694824</ele>
        <time>2021-10-15T12:02:26.000Z</time>
      </trkpt>
      <trkpt lat="48.19057" lon="-2.62036">
        <ele>115</ele>
        <time>2021-10-15T12:02:27.000Z</time>
      </trkpt>
      <trkpt lat="48.19059" lon="-2.62029">
        <ele>114.80000305176</ele>
        <time>2021-10-15T12:02:28.000Z</time>
      </trkpt>
      <trkpt lat="48.1906" lon="-2.62023">
        <ele>115</ele>
        <time>2021-10-15T12:02:29.000Z</time>
      </trkpt>
      <trkpt lat="48.19063" lon="-2.62016">
        <ele>115</ele>
        <time>2021-10-15T12:02:30.000Z</time>
      </trkpt>
      <trkpt lat="48.19065" lon="-2.6201">
        <ele>114.59999847412</ele>
        <time>2021-10-15T12:02:31.000Z</time>
      </trkpt>
      <trkpt lat="48.19068" lon="-2.62003">
        <ele>114.19999694824</ele>
        <time>2021-10-15T12:02:32.000Z</time>
      </trkpt>
      <trkpt lat="48.19071" lon="-2.61997">
        <ele>114</ele>
        <time>2021-10-15T12:02:33.000Z</time>
      </trkpt>
      <trkpt lat="48.19074" lon="-2.6199">
        <ele>113.59999847412</ele>
        <time>2021-10-15T12:02:34.000Z</time>
      </trkpt>
      <trkpt lat="48.19076" lon="-2.61984">
        <ele>113.40000152588</ele>
        <time>2021-10-15T12:02:35.000Z</time>
      </trkpt>
      <trkpt lat="48.19078" lon="-2.61977">
        <ele>113.19999694824</ele>
        <time>2021-10-15T12:02:36.000Z</time>
      </trkpt>
      <trkpt lat="48.19081" lon="-2.61971">
        <ele>113.19999694824</ele>
        <time>2021-10-15T12:02:37.000Z</time>
      </trkpt>
      <trkpt lat="48.19083" lon="-2.61965">
        <ele>113.19999694824</ele>
        <time>2021-10-15T12:02:38.000Z</time>
      </trkpt>
      <trkpt lat="48.19087" lon="-2.61959">
        <ele>112.80000305176</ele>
        <time>2021-10-15T12:02:39.000Z</time>
      </trkpt>
      <trkpt lat="48.1909" lon="-2.61954">
        <ele>112.59999847412</ele>
        <time>2021-10-15T12:02:40.000Z</time>
      </trkpt>
      <trkpt lat="48.19094" lon="-2.61948">
        <ele>112.19999694824</ele>
        <time>2021-10-15T12:02:41.000Z</time>
      </trkpt>
      <trkpt lat="48.19098" lon="-2.61943">
        <ele>111.80000305176</ele>
        <time>2021-10-15T12:02:42.000Z</time>
      </trkpt>
      <trkpt lat="48.19102" lon="-2.61938">
        <ele>111.40000152588</ele>
        <time>2021-10-15T12:02:43.000Z</time>
      </trkpt>
      <trkpt lat="48.19107" lon="-2.61934">
        <ele>111</ele>
        <time>2021-10-15T12:02:44.000Z</time>
      </trkpt>
      <trkpt lat="48.19111" lon="-2.61929">
        <ele>110.40000152588</ele>
        <time>2021-10-15T12:02:45.000Z</time>
      </trkpt>
      <trkpt lat="48.19115" lon="-2.61925">
        <ele>110</ele>
        <time>2021-10-15T12:02:46.000Z</time>
      </trkpt>
      <trkpt lat="48.1912" lon="-2.61921">
        <ele>109.40000152588</ele>
        <time>2021-10-15T12:02:47.000Z</time>
      </trkpt>
      <trkpt lat="48.19124" lon="-2.61917">
        <ele>109</ele>
        <time>2021-10-15T12:02:48.000Z</time>
      </trkpt>
      <trkpt lat="48.19129" lon="-2.61914">
        <ele>108.59999847412</ele>
        <time>2021-10-15T12:02:49.000Z</time>
      </trkpt>
      <trkpt lat="48.19133" lon="-2.6191">
        <ele>108.19999694824</ele>
        <time>2021-10-15T12:02:50.000Z</time>
      </trkpt>
      <trkpt lat="48.19138" lon="-2.61907">
        <ele>107.80000305176</ele>
        <time>2021-10-15T12:02:51.000Z</time>
      </trkpt>
      <trkpt lat="48.19147" lon="-2.61901">
        <ele>107</ele>
        <time>2021-10-15T12:02:52.000Z</time>
      </trkpt>
      <trkpt lat="48.19147" lon="-2.61901">
        <ele>107</ele>
        <time>2021-10-15T12:02:53.000Z</time>
      </trkpt>
      <trkpt lat="48.19152" lon="-2.61898">
        <ele>106.40000152588</ele>
        <time>2021-10-15T12:02:54.000Z</time>
      </trkpt>
      <trkpt lat="48.19157" lon="-2.61895">
        <ele>106</ele>
        <time>2021-10-15T12:02:55.000Z</time>
      </trkpt>
      <trkpt lat="48.19161" lon="-2.61892">
        <ele>105.59999847412</ele>
        <time>2021-10-15T12:02:56.000Z</time>
      </trkpt>
      <trkpt lat="48.19166" lon="-2.61889">
        <ele>105.40000152588</ele>
        <time>2021-10-15T12:02:57.000Z</time>
      </trkpt>
      <trkpt lat="48.19171" lon="-2.61887">
        <ele>105.19999694824</ele>
        <time>2021-10-15T12:02:58.000Z</time>
      </trkpt>
      <trkpt lat="48.19175" lon="-2.61885">
        <ele>105</ele>
        <time>2021-10-15T12:02:59.000Z</time>
      </trkpt>
      <trkpt lat="48.19179" lon="-2.61882">
        <ele>104.80000305176</ele>
        <time>2021-10-15T12:03:00.000Z</time>
      </trkpt>
      <trkpt lat="48.19184" lon="-2.61881">
        <ele>104.40000152588</ele>
        <time>2021-10-15T12:03:01.000Z</time>
      </trkpt>
      <trkpt lat="48.19189" lon="-2.61879">
        <ele>104.19999694824</ele>
        <time>2021-10-15T12:03:02.000Z</time>
      </trkpt>
      <trkpt lat="48.19193" lon="-2.61878">
        <ele>104.40000152588</ele>
        <time>2021-10-15T12:03:03.000Z</time>
      </trkpt>
      <trkpt lat="48.19197" lon="-2.61876">
        <ele>104.40000152588</ele>
        <time>2021-10-15T12:03:04.000Z</time>
      </trkpt>
      <trkpt lat="48.19201" lon="-2.61876">
        <ele>104.19999694824</ele>
        <time>2021-10-15T12:03:05.000Z</time>
      </trkpt>
      <trkpt lat="48.19205" lon="-2.61875">
        <ele>104.19999694824</ele>
        <time>2021-10-15T12:03:06.000Z</time>
      </trkpt>
      <trkpt lat="48.19209" lon="-2.61874">
        <ele>104</ele>
        <time>2021-10-15T12:03:07.000Z</time>
      </trkpt>
      <trkpt lat="48.19213" lon="-2.61875">
        <ele>104</ele>
        <time>2021-10-15T12:03:08.000Z</time>
      </trkpt>
      <trkpt lat="48.19216" lon="-2.61875">
        <ele>104</ele>
        <time>2021-10-15T12:03:09.000Z</time>
      </trkpt>
      <trkpt lat="48.1922" lon="-2.61875">
        <ele>104.19999694824</ele>
        <time>2021-10-15T12:03:10.000Z</time>
      </trkpt>
      <trkpt lat="48.19223" lon="-2.61875">
        <ele>104.19999694824</ele>
        <time>2021-10-15T12:03:11.000Z</time>
      </trkpt>
      <trkpt lat="48.19227" lon="-2.61875">
        <ele>104.19999694824</ele>
        <time>2021-10-15T12:03:12.000Z</time>
      </trkpt>
      <trkpt lat="48.1923" lon="-2.61876">
        <ele>104.40000152588</ele>
        <time>2021-10-15T12:03:13.000Z</time>
      </trkpt>
      <trkpt lat="48.19233" lon="-2.61877">
        <ele>104.59999847412</ele>
        <time>2021-10-15T12:03:14.000Z</time>
      </trkpt>
      <trkpt lat="48.19237" lon="-2.61878">
        <ele>104.59999847412</ele>
        <time>2021-10-15T12:03:15.000Z</time>
      </trkpt>
      <trkpt lat="48.19239" lon="-2.61879">
        <ele>104.80000305176</ele>
        <time>2021-10-15T12:03:16.000Z</time>
      </trkpt>
      <trkpt lat="48.19242" lon="-2.6188">
        <ele>104.80000305176</ele>
        <time>2021-10-15T12:03:17.000Z</time>
      </trkpt>
      <trkpt lat="48.19244" lon="-2.61882">
        <ele>105</ele>
        <time>2021-10-15T12:03:18.000Z</time>
      </trkpt>
      <trkpt lat="48.19249" lon="-2.61885">
        <ele>105.40000152588</ele>
        <time>2021-10-15T12:03:19.000Z</time>
      </trkpt>
      <trkpt lat="48.19249" lon="-2.61885">
        <ele>105.40000152588</ele>
        <time>2021-10-15T12:03:20.000Z</time>
      </trkpt>
      <trkpt lat="48.19252" lon="-2.61887">
        <ele>105.59999847412</ele>
        <time>2021-10-15T12:03:21.000Z</time>
      </trkpt>
      <trkpt lat="48.19256" lon="-2.61888">
        <ele>105.80000305176</ele>
        <time>2021-10-15T12:03:22.000Z</time>
      </trkpt>
      <trkpt lat="48.1926" lon="-2.6189">
        <ele>106.19999694824</ele>
        <time>2021-10-15T12:03:23.000Z</time>
      </trkpt>
      <trkpt lat="48.19264" lon="-2.61893">
        <ele>106.40000152588</ele>
        <time>2021-10-15T12:03:24.000Z</time>
      </trkpt>
      <trkpt lat="48.19268" lon="-2.61895">
        <ele>106.59999847412</ele>
        <time>2021-10-15T12:03:25.000Z</time>
      </trkpt>
      <trkpt lat="48.19272" lon="-2.61898">
        <ele>106.80000305176</ele>
        <time>2021-10-15T12:03:26.000Z</time>
      </trkpt>
      <trkpt lat="48.19276" lon="-2.61901">
        <ele>106.80000305176</ele>
        <time>2021-10-15T12:03:27.000Z</time>
      </trkpt>
      <trkpt lat="48.1928" lon="-2.61903">
        <ele>107</ele>
        <time>2021-10-15T12:03:28.000Z</time>
      </trkpt>
      <trkpt lat="48.19284" lon="-2.61905">
        <ele>107.19999694824</ele>
        <time>2021-10-15T12:03:29.000Z</time>
      </trkpt>
      <trkpt lat="48.19288" lon="-2.61907">
        <ele>107</ele>
        <time>2021-10-15T12:03:30.000Z</time>
      </trkpt>
      <trkpt lat="48.19293" lon="-2.61909">
        <ele>107</ele>
        <time>2021-10-15T12:03:31.000Z</time>
      </trkpt>
      <trkpt lat="48.19297" lon="-2.61911">
        <ele>107</ele>
        <time>2021-10-15T12:03:32.000Z</time>
      </trkpt>
      <trkpt lat="48.19302" lon="-2.61913">
        <ele>106.59999847412</ele>
        <time>2021-10-15T12:03:33.000Z</time>
      </trkpt>
      <trkpt lat="48.19306" lon="-2.61915">
        <ele>106.40000152588</ele>
        <time>2021-10-15T12:03:34.000Z</time>
      </trkpt>
      <trkpt lat="48.1931" lon="-2.61917">
        <ele>106.19999694824</ele>
        <time>2021-10-15T12:03:35.000Z</time>
      </trkpt>
      <trkpt lat="48.19315" lon="-2.61919">
        <ele>106</ele>
        <time>2021-10-15T12:03:36.000Z</time>
      </trkpt>
      <trkpt lat="48.19319" lon="-2.61921">
        <ele>106</ele>
        <time>2021-10-15T12:03:37.000Z</time>
      </trkpt>
      <trkpt lat="48.19324" lon="-2.61923">
        <ele>105.59999847412</ele>
        <time>2021-10-15T12:03:38.000Z</time>
      </trkpt>
      <trkpt lat="48.19328" lon="-2.61926">
        <ele>105.40000152588</ele>
        <time>2021-10-15T12:03:39.000Z</time>
      </trkpt>
      <trkpt lat="48.19333" lon="-2.61929">
        <ele>105</ele>
        <time>2021-10-15T12:03:40.000Z</time>
      </trkpt>
      <trkpt lat="48.19337" lon="-2.61932">
        <ele>104.80000305176</ele>
        <time>2021-10-15T12:03:41.000Z</time>
      </trkpt>
      <trkpt lat="48.19341" lon="-2.61935">
        <ele>104.59999847412</ele>
        <time>2021-10-15T12:03:42.000Z</time>
      </trkpt>
      <trkpt lat="48.19345" lon="-2.61937">
        <ele>104.59999847412</ele>
        <time>2021-10-15T12:03:43.000Z</time>
      </trkpt>
      <trkpt lat="48.1935" lon="-2.61939">
        <ele>104.59999847412</ele>
        <time>2021-10-15T12:03:44.000Z</time>
      </trkpt>
      <trkpt lat="48.19354" lon="-2.61942">
        <ele>104.40000152588</ele>
        <time>2021-10-15T12:03:45.000Z</time>
      </trkpt>
      <trkpt lat="48.19358" lon="-2.61945">
        <ele>104.19999694824</ele>
        <time>2021-10-15T12:03:46.000Z</time>
      </trkpt>
      <trkpt lat="48.19362" lon="-2.61947">
        <ele>104</ele>
        <time>2021-10-15T12:03:47.000Z</time>
      </trkpt>
      <trkpt lat="48.19366" lon="-2.61949">
        <ele>104</ele>
        <time>2021-10-15T12:03:48.000Z</time>
      </trkpt>
      <trkpt lat="48.1937" lon="-2.61951">
        <ele>103.80000305176</ele>
        <time>2021-10-15T12:03:49.000Z</time>
      </trkpt>
      <trkpt lat="48.19374" lon="-2.61952">
        <ele>103.59999847412</ele>
        <time>2021-10-15T12:03:50.000Z</time>
      </trkpt>
      <trkpt lat="48.19378" lon="-2.61954">
        <ele>103.40000152588</ele>
        <time>2021-10-15T12:03:51.000Z</time>
      </trkpt>
      <trkpt lat="48.19382" lon="-2.61955">
        <ele>103.19999694824</ele>
        <time>2021-10-15T12:03:52.000Z</time>
      </trkpt>
      <trkpt lat="48.19386" lon="-2.61955">
        <ele>103</ele>
        <time>2021-10-15T12:03:53.000Z</time>
      </trkpt>
      <trkpt lat="48.1939" lon="-2.61955">
        <ele>102.80000305176</ele>
        <time>2021-10-15T12:03:54.000Z</time>
      </trkpt>
      <trkpt lat="48.19395" lon="-2.61955">
        <ele>102.59999847412</ele>
        <time>2021-10-15T12:03:55.000Z</time>
      </trkpt>
      <trkpt lat="48.19399" lon="-2.61954">
        <ele>102.59999847412</ele>
        <time>2021-10-15T12:03:56.000Z</time>
      </trkpt>
      <trkpt lat="48.19403" lon="-2.61953">
        <ele>102.59999847412</ele>
        <time>2021-10-15T12:03:57.000Z</time>
      </trkpt>
      <trkpt lat="48.19409" lon="-2.6195">
        <ele>102.59999847412</ele>
        <time>2021-10-15T12:03:58.000Z</time>
      </trkpt>
      <trkpt lat="48.19409" lon="-2.6195">
        <ele>102.59999847412</ele>
        <time>2021-10-15T12:03:59.000Z</time>
      </trkpt>
      <trkpt lat="48.19412" lon="-2.61948">
        <ele>102.59999847412</ele>
        <time>2021-10-15T12:04:00.000Z</time>
      </trkpt>
      <trkpt lat="48.19416" lon="-2.61946">
        <ele>102.59999847412</ele>
        <time>2021-10-15T12:04:01.000Z</time>
      </trkpt>
      <trkpt lat="48.1942" lon="-2.61944">
        <ele>102.40000152588</ele>
        <time>2021-10-15T12:04:02.000Z</time>
      </trkpt>
      <trkpt lat="48.19424" lon="-2.61941">
        <ele>102.19999694824</ele>
        <time>2021-10-15T12:04:03.000Z</time>
      </trkpt>
      <trkpt lat="48.19428" lon="-2.61938">
        <ele>102</ele>
        <time>2021-10-15T12:04:04.000Z</time>
      </trkpt>
      <trkpt lat="48.19433" lon="-2.61935">
        <ele>101.80000305176</ele>
        <time>2021-10-15T12:04:05.000Z</time>
      </trkpt>
      <trkpt lat="48.19437" lon="-2.61931">
        <ele>101.59999847412</ele>
        <time>2021-10-15T12:04:06.000Z</time>
      </trkpt>
      <trkpt lat="48.19441" lon="-2.61927">
        <ele>101.59999847412</ele>
        <time>2021-10-15T12:04:07.000Z</time>
      </trkpt>
      <trkpt lat="48.19446" lon="-2.61922">
        <ele>101.59999847412</ele>
        <time>2021-10-15T12:04:08.000Z</time>
      </trkpt>
      <trkpt lat="48.19451" lon="-2.61917">
        <ele>101.59999847412</ele>
        <time>2021-10-15T12:04:09.000Z</time>
      </trkpt>
      <trkpt lat="48.19456" lon="-2.61912">
        <ele>101.80000305176</ele>
        <time>2021-10-15T12:04:10.000Z</time>
      </trkpt>
      <trkpt lat="48.19461" lon="-2.61907">
        <ele>102</ele>
        <time>2021-10-15T12:04:11.000Z</time>
      </trkpt>
      <trkpt lat="48.19465" lon="-2.61903">
        <ele>102.19999694824</ele>
        <time>2021-10-15T12:04:12.000Z</time>
      </trkpt>
      <trkpt lat="48.1947" lon="-2.61897">
        <ele>102.19999694824</ele>
        <time>2021-10-15T12:04:13.000Z</time>
      </trkpt>
      <trkpt lat="48.19476" lon="-2.61892">
        <ele>102.19999694824</ele>
        <time>2021-10-15T12:04:14.000Z</time>
      </trkpt>
      <trkpt lat="48.19481" lon="-2.61887">
        <ele>102.40000152588</ele>
        <time>2021-10-15T12:04:15.000Z</time>
      </trkpt>
      <trkpt lat="48.19487" lon="-2.61881">
        <ele>102.59999847412</ele>
        <time>2021-10-15T12:04:16.000Z</time>
      </trkpt>
      <trkpt lat="48.19492" lon="-2.61876">
        <ele>102.59999847412</ele>
        <time>2021-10-15T12:04:17.000Z</time>
      </trkpt>
      <trkpt lat="48.19496" lon="-2.61873">
        <ele>103</ele>
        <time>2021-10-15T12:04:18.000Z</time>
      </trkpt>
      <trkpt lat="48.19499" lon="-2.61869">
        <ele>103.19999694824</ele>
        <time>2021-10-15T12:04:19.000Z</time>
      </trkpt>
      <trkpt lat="48.19503" lon="-2.61865">
        <ele>103.59999847412</ele>
        <time>2021-10-15T12:04:20.000Z</time>
      </trkpt>
      <trkpt lat="48.19506" lon="-2.6186">
        <ele>103.80000305176</ele>
        <time>2021-10-15T12:04:21.000Z</time>
      </trkpt>
      <trkpt lat="48.1951" lon="-2.61856">
        <ele>104</ele>
        <time>2021-10-15T12:04:22.000Z</time>
      </trkpt>
      <trkpt lat="48.19513" lon="-2.61853">
        <ele>104</ele>
        <time>2021-10-15T12:04:23.000Z</time>
      </trkpt>
      <trkpt lat="48.19517" lon="-2.61848">
        <ele>104.19999694824</ele>
        <time>2021-10-15T12:04:24.000Z</time>
      </trkpt>
      <trkpt lat="48.1952" lon="-2.61845">
        <ele>104.40000152588</ele>
        <time>2021-10-15T12:04:25.000Z</time>
      </trkpt>
      <trkpt lat="48.19523" lon="-2.61841">
        <ele>104.40000152588</ele>
        <time>2021-10-15T12:04:26.000Z</time>
      </trkpt>
      <trkpt lat="48.19526" lon="-2.61839">
        <ele>104.40000152588</ele>
        <time>2021-10-15T12:04:27.000Z</time>
      </trkpt>
      <trkpt lat="48.19528" lon="-2.61837">
        <ele>104.40000152588</ele>
        <time>2021-10-15T12:04:28.000Z</time>
      </trkpt>
      <trkpt lat="48.19531" lon="-2.61834">
        <ele>104.19999694824</ele>
        <time>2021-10-15T12:04:29.000Z</time>
      </trkpt>
      <trkpt lat="48.19533" lon="-2.61832">
        <ele>104.19999694824</ele>
        <time>2021-10-15T12:04:30.000Z</time>
      </trkpt>
      <trkpt lat="48.19536" lon="-2.6183">
        <ele>104</ele>
        <time>2021-10-15T12:04:31.000Z</time>
      </trkpt>
      <trkpt lat="48.19538" lon="-2.61828">
        <ele>104</ele>
        <time>2021-10-15T12:04:32.000Z</time>
      </trkpt>
      <trkpt lat="48.19541" lon="-2.61825">
        <ele>103.80000305176</ele>
        <time>2021-10-15T12:04:33.000Z</time>
      </trkpt>
      <trkpt lat="48.19544" lon="-2.61822">
        <ele>103.80000305176</ele>
        <time>2021-10-15T12:04:34.000Z</time>
      </trkpt>
      <trkpt lat="48.19547" lon="-2.6182">
        <ele>103.59999847412</ele>
        <time>2021-10-15T12:04:35.000Z</time>
      </trkpt>
      <trkpt lat="48.19551" lon="-2.61818">
        <ele>103.19999694824</ele>
        <time>2021-10-15T12:04:36.000Z</time>
      </trkpt>
      <trkpt lat="48.19553" lon="-2.61816">
        <ele>102.80000305176</ele>
        <time>2021-10-15T12:04:37.000Z</time>
      </trkpt>
      <trkpt lat="48.19555" lon="-2.61814">
        <ele>102.59999847412</ele>
        <time>2021-10-15T12:04:38.000Z</time>
      </trkpt>
      <trkpt lat="48.19558" lon="-2.61812">
        <ele>102.40000152588</ele>
        <time>2021-10-15T12:04:39.000Z</time>
      </trkpt>
      <trkpt lat="48.1956" lon="-2.61809">
        <ele>102.19999694824</ele>
        <time>2021-10-15T12:04:40.000Z</time>
      </trkpt>
      <trkpt lat="48.19562" lon="-2.61807">
        <ele>102</ele>
        <time>2021-10-15T12:04:41.000Z</time>
      </trkpt>
      <trkpt lat="48.19564" lon="-2.61805">
        <ele>101.80000305176</ele>
        <time>2021-10-15T12:04:42.000Z</time>
      </trkpt>
      <trkpt lat="48.19566" lon="-2.61804">
        <ele>101.59999847412</ele>
        <time>2021-10-15T12:04:43.000Z</time>
      </trkpt>
      <trkpt lat="48.19569" lon="-2.61802">
        <ele>101.40000152588</ele>
        <time>2021-10-15T12:04:44.000Z</time>
      </trkpt>
      <trkpt lat="48.19572" lon="-2.61801">
        <ele>101</ele>
        <time>2021-10-15T12:04:45.000Z</time>
      </trkpt>
      <trkpt lat="48.19575" lon="-2.61799">
        <ele>100.80000305176</ele>
        <time>2021-10-15T12:04:46.000Z</time>
      </trkpt>
      <trkpt lat="48.19579" lon="-2.61798">
        <ele>100.59999847412</ele>
        <time>2021-10-15T12:04:47.000Z</time>
      </trkpt>
      <trkpt lat="48.19582" lon="-2.61796">
        <ele>100.40000152588</ele>
        <time>2021-10-15T12:04:48.000Z</time>
      </trkpt>
      <trkpt lat="48.19586" lon="-2.61793">
        <ele>100.40000152588</ele>
        <time>2021-10-15T12:04:49.000Z</time>
      </trkpt>
      <trkpt lat="48.19589" lon="-2.61789">
        <ele>100.40000152588</ele>
        <time>2021-10-15T12:04:50.000Z</time>
      </trkpt>
      <trkpt lat="48.19592" lon="-2.61785">
        <ele>100.59999847412</ele>
        <time>2021-10-15T12:04:51.000Z</time>
      </trkpt>
      <trkpt lat="48.19597" lon="-2.61776">
        <ele>100.80000305176</ele>
        <time>2021-10-15T12:04:52.000Z</time>
      </trkpt>
      <trkpt lat="48.19597" lon="-2.61776">
        <ele>100.80000305176</ele>
        <time>2021-10-15T12:04:53.000Z</time>
      </trkpt>
      <trkpt lat="48.196" lon="-2.61772">
        <ele>100.80000305176</ele>
        <time>2021-10-15T12:04:54.000Z</time>
      </trkpt>
      <trkpt lat="48.19602" lon="-2.61768">
        <ele>101</ele>
        <time>2021-10-15T12:04:55.000Z</time>
      </trkpt>
      <trkpt lat="48.19605" lon="-2.61764">
        <ele>101.40000152588</ele>
        <time>2021-10-15T12:04:56.000Z</time>
      </trkpt>
      <trkpt lat="48.19607" lon="-2.6176">
        <ele>101.80000305176</ele>
        <time>2021-10-15T12:04:57.000Z</time>
      </trkpt>
      <trkpt lat="48.19609" lon="-2.61757">
        <ele>102.19999694824</ele>
        <time>2021-10-15T12:04:58.000Z</time>
      </trkpt>
      <trkpt lat="48.19611" lon="-2.61753">
        <ele>102.59999847412</ele>
        <time>2021-10-15T12:04:59.000Z</time>
      </trkpt>
      <trkpt lat="48.19613" lon="-2.6175">
        <ele>103</ele>
        <time>2021-10-15T12:05:00.000Z</time>
      </trkpt>
      <trkpt lat="48.19616" lon="-2.61743">
        <ele>103.80000305176</ele>
        <time>2021-10-15T12:05:01.000Z</time>
      </trkpt>
      <trkpt lat="48.19616" lon="-2.61743">
        <ele>103.80000305176</ele>
        <time>2021-10-15T12:05:02.000Z</time>
      </trkpt>
      <trkpt lat="48.19618" lon="-2.6174">
        <ele>104</ele>
        <time>2021-10-15T12:05:03.000Z</time>
      </trkpt>
      <trkpt lat="48.1962" lon="-2.61737">
        <ele>104.40000152588</ele>
        <time>2021-10-15T12:05:04.000Z</time>
      </trkpt>
      <trkpt lat="48.19621" lon="-2.61734">
        <ele>104.80000305176</ele>
        <time>2021-10-15T12:05:05.000Z</time>
      </trkpt>
      <trkpt lat="48.19623" lon="-2.6173">
        <ele>105.19999694824</ele>
        <time>2021-10-15T12:05:06.000Z</time>
      </trkpt>
      <trkpt lat="48.19625" lon="-2.61728">
        <ele>105.40000152588</ele>
        <time>2021-10-15T12:05:07.000Z</time>
      </trkpt>
      <trkpt lat="48.19626" lon="-2.61725">
        <ele>105.80000305176</ele>
        <time>2021-10-15T12:05:08.000Z</time>
      </trkpt>
      <trkpt lat="48.19627" lon="-2.61721">
        <ele>106.19999694824</ele>
        <time>2021-10-15T12:05:09.000Z</time>
      </trkpt>
      <trkpt lat="48.19627" lon="-2.61718">
        <ele>106.59999847412</ele>
        <time>2021-10-15T12:05:10.000Z</time>
      </trkpt>
      <trkpt lat="48.19627" lon="-2.61714">
        <ele>107</ele>
        <time>2021-10-15T12:05:11.000Z</time>
      </trkpt>
      <trkpt lat="48.19627" lon="-2.61711">
        <ele>107.19999694824</ele>
        <time>2021-10-15T12:05:12.000Z</time>
      </trkpt>
      <trkpt lat="48.19626" lon="-2.61708">
        <ele>107.59999847412</ele>
        <time>2021-10-15T12:05:13.000Z</time>
      </trkpt>
      <trkpt lat="48.19625" lon="-2.61706">
        <ele>107.80000305176</ele>
        <time>2021-10-15T12:05:14.000Z</time>
      </trkpt>
      <trkpt lat="48.19624" lon="-2.61703">
        <ele>108</ele>
        <time>2021-10-15T12:05:15.000Z</time>
      </trkpt>
      <trkpt lat="48.19624" lon="-2.617">
        <ele>108</ele>
        <time>2021-10-15T12:05:16.000Z</time>
      </trkpt>
      <trkpt lat="48.19623" lon="-2.61697">
        <ele>108</ele>
        <time>2021-10-15T12:05:17.000Z</time>
      </trkpt>
      <trkpt lat="48.19623" lon="-2.61694">
        <ele>108</ele>
        <time>2021-10-15T12:05:18.000Z</time>
      </trkpt>
      <trkpt lat="48.19623" lon="-2.61691">
        <ele>108.19999694824</ele>
        <time>2021-10-15T12:05:19.000Z</time>
      </trkpt>
      <trkpt lat="48.19624" lon="-2.61688">
        <ele>108.40000152588</ele>
        <time>2021-10-15T12:05:20.000Z</time>
      </trkpt>
      <trkpt lat="48.19625" lon="-2.61686">
        <ele>108.59999847412</ele>
        <time>2021-10-15T12:05:21.000Z</time>
      </trkpt>
      <trkpt lat="48.19627" lon="-2.61685">
        <ele>109</ele>
        <time>2021-10-15T12:05:22.000Z</time>
      </trkpt>
      <trkpt lat="48.19629" lon="-2.61683">
        <ele>109.19999694824</ele>
        <time>2021-10-15T12:05:23.000Z</time>
      </trkpt>
      <trkpt lat="48.19631" lon="-2.61682">
        <ele>109.59999847412</ele>
        <time>2021-10-15T12:05:24.000Z</time>
      </trkpt>
      <trkpt lat="48.19633" lon="-2.61682">
        <ele>109.80000305176</ele>
        <time>2021-10-15T12:05:25.000Z</time>
      </trkpt>
      <trkpt lat="48.19635" lon="-2.61682">
        <ele>110</ele>
        <time>2021-10-15T12:05:26.000Z</time>
      </trkpt>
      <trkpt lat="48.19639" lon="-2.61682">
        <ele>110.59999847412</ele>
        <time>2021-10-15T12:05:27.000Z</time>
      </trkpt>
      <trkpt lat="48.19639" lon="-2.61682">
        <ele>110.59999847412</ele>
        <time>2021-10-15T12:05:28.000Z</time>
      </trkpt>
      <trkpt lat="48.19642" lon="-2.61682">
        <ele>110.80000305176</ele>
        <time>2021-10-15T12:05:29.000Z</time>
      </trkpt>
      <trkpt lat="48.19644" lon="-2.61683">
        <ele>111</ele>
        <time>2021-10-15T12:05:30.000Z</time>
      </trkpt>
      <trkpt lat="48.19647" lon="-2.61683">
        <ele>111.19999694824</ele>
        <time>2021-10-15T12:05:31.000Z</time>
      </trkpt>
      <trkpt lat="48.19649" lon="-2.61683">
        <ele>111.59999847412</ele>
        <time>2021-10-15T12:05:32.000Z</time>
      </trkpt>
      <trkpt lat="48.19652" lon="-2.61683">
        <ele>111.80000305176</ele>
        <time>2021-10-15T12:05:33.000Z</time>
      </trkpt>
      <trkpt lat="48.19655" lon="-2.61682">
        <ele>112.19999694824</ele>
        <time>2021-10-15T12:05:34.000Z</time>
      </trkpt>
      <trkpt lat="48.19657" lon="-2.6168">
        <ele>112.59999847412</ele>
        <time>2021-10-15T12:05:35.000Z</time>
      </trkpt>
      <trkpt lat="48.19659" lon="-2.61679">
        <ele>112.80000305176</ele>
        <time>2021-10-15T12:05:36.000Z</time>
      </trkpt>
      <trkpt lat="48.19662" lon="-2.61677">
        <ele>112.80000305176</ele>
        <time>2021-10-15T12:05:37.000Z</time>
      </trkpt>
      <trkpt lat="48.19664" lon="-2.61674">
        <ele>113</ele>
        <time>2021-10-15T12:05:38.000Z</time>
      </trkpt>
      <trkpt lat="48.19666" lon="-2.61672">
        <ele>113.19999694824</ele>
        <time>2021-10-15T12:05:39.000Z</time>
      </trkpt>
      <trkpt lat="48.19668" lon="-2.61669">
        <ele>113.40000152588</ele>
        <time>2021-10-15T12:05:40.000Z</time>
      </trkpt>
      <trkpt lat="48.1967" lon="-2.61666">
        <ele>113.80000305176</ele>
        <time>2021-10-15T12:05:41.000Z</time>
      </trkpt>
      <trkpt lat="48.19673" lon="-2.61663">
        <ele>114.19999694824</ele>
        <time>2021-10-15T12:05:42.000Z</time>
      </trkpt>
      <trkpt lat="48.19675" lon="-2.61661">
        <ele>114.59999847412</ele>
        <time>2021-10-15T12:05:43.000Z</time>
      </trkpt>
      <trkpt lat="48.19677" lon="-2.61657">
        <ele>115</ele>
        <time>2021-10-15T12:05:44.000Z</time>
      </trkpt>
      <trkpt lat="48.19679" lon="-2.61654">
        <ele>115.40000152588</ele>
        <time>2021-10-15T12:05:45.000Z</time>
      </trkpt>
      <trkpt lat="48.19682" lon="-2.61652">
        <ele>115.80000305176</ele>
        <time>2021-10-15T12:05:46.000Z</time>
      </trkpt>
      <trkpt lat="48.19683" lon="-2.61649">
        <ele>116.19999694824</ele>
        <time>2021-10-15T12:05:47.000Z</time>
      </trkpt>
      <trkpt lat="48.19684" lon="-2.61645">
        <ele>116.59999847412</ele>
        <time>2021-10-15T12:05:48.000Z</time>
      </trkpt>
      <trkpt lat="48.19685" lon="-2.61641">
        <ele>116.80000305176</ele>
        <time>2021-10-15T12:05:49.000Z</time>
      </trkpt>
      <trkpt lat="48.19685" lon="-2.61638">
        <ele>117.19999694824</ele>
        <time>2021-10-15T12:05:50.000Z</time>
      </trkpt>
      <trkpt lat="48.19684" lon="-2.61634">
        <ele>117.40000152588</ele>
        <time>2021-10-15T12:05:51.000Z</time>
      </trkpt>
      <trkpt lat="48.19683" lon="-2.6163">
        <ele>117.59999847412</ele>
        <time>2021-10-15T12:05:52.000Z</time>
      </trkpt>
      <trkpt lat="48.19681" lon="-2.61622">
        <ele>117.80000305176</ele>
        <time>2021-10-15T12:05:53.000Z</time>
      </trkpt>
      <trkpt lat="48.19681" lon="-2.61622">
        <ele>117.80000305176</ele>
        <time>2021-10-15T12:05:54.000Z</time>
      </trkpt>
      <trkpt lat="48.1968" lon="-2.61618">
        <ele>118</ele>
        <time>2021-10-15T12:05:55.000Z</time>
      </trkpt>
      <trkpt lat="48.19678" lon="-2.61614">
        <ele>117.80000305176</ele>
        <time>2021-10-15T12:05:56.000Z</time>
      </trkpt>
      <trkpt lat="48.19677" lon="-2.6161">
        <ele>117.80000305176</ele>
        <time>2021-10-15T12:05:57.000Z</time>
      </trkpt>
      <trkpt lat="48.19676" lon="-2.61606">
        <ele>117.80000305176</ele>
        <time>2021-10-15T12:05:58.000Z</time>
      </trkpt>
      <trkpt lat="48.19676" lon="-2.61603">
        <ele>118</ele>
        <time>2021-10-15T12:05:59.000Z</time>
      </trkpt>
      <trkpt lat="48.19677" lon="-2.61599">
        <ele>118.19999694824</ele>
        <time>2021-10-15T12:06:00.000Z</time>
      </trkpt>
      <trkpt lat="48.19678" lon="-2.61597">
        <ele>118.59999847412</ele>
        <time>2021-10-15T12:06:01.000Z</time>
      </trkpt>
      <trkpt lat="48.1968" lon="-2.61594">
        <ele>118.80000305176</ele>
        <time>2021-10-15T12:06:02.000Z</time>
      </trkpt>
      <trkpt lat="48.19683" lon="-2.61593">
        <ele>119.19999694824</ele>
        <time>2021-10-15T12:06:03.000Z</time>
      </trkpt>
      <trkpt lat="48.19685" lon="-2.61592">
        <ele>119.80000305176</ele>
        <time>2021-10-15T12:06:04.000Z</time>
      </trkpt>
      <trkpt lat="48.19688" lon="-2.6159">
        <ele>120.19999694824</ele>
        <time>2021-10-15T12:06:05.000Z</time>
      </trkpt>
      <trkpt lat="48.19691" lon="-2.61589">
        <ele>120.59999847412</ele>
        <time>2021-10-15T12:06:06.000Z</time>
      </trkpt>
      <trkpt lat="48.19693" lon="-2.61587">
        <ele>121</ele>
        <time>2021-10-15T12:06:07.000Z</time>
      </trkpt>
      <trkpt lat="48.19695" lon="-2.61586">
        <ele>121.40000152588</ele>
        <time>2021-10-15T12:06:08.000Z</time>
      </trkpt>
      <trkpt lat="48.19697" lon="-2.61584">
        <ele>121.59999847412</ele>
        <time>2021-10-15T12:06:09.000Z</time>
      </trkpt>
      <trkpt lat="48.19699" lon="-2.61582">
        <ele>121.80000305176</ele>
        <time>2021-10-15T12:06:10.000Z</time>
      </trkpt>
      <trkpt lat="48.19701" lon="-2.6158">
        <ele>122.19999694824</ele>
        <time>2021-10-15T12:06:11.000Z</time>
      </trkpt>
      <trkpt lat="48.19703" lon="-2.61579">
        <ele>122.40000152588</ele>
        <time>2021-10-15T12:06:12.000Z</time>
      </trkpt>
      <trkpt lat="48.19705" lon="-2.61577">
        <ele>122.80000305176</ele>
        <time>2021-10-15T12:06:13.000Z</time>
      </trkpt>
      <trkpt lat="48.19707" lon="-2.61575">
        <ele>123</ele>
        <time>2021-10-15T12:06:14.000Z</time>
      </trkpt>
      <trkpt lat="48.19709" lon="-2.61573">
        <ele>123.19999694824</ele>
        <time>2021-10-15T12:06:15.000Z</time>
      </trkpt>
      <trkpt lat="48.19711" lon="-2.61572">
        <ele>123.59999847412</ele>
        <time>2021-10-15T12:06:16.000Z</time>
      </trkpt>
      <trkpt lat="48.19712" lon="-2.61569">
        <ele>123.80000305176</ele>
        <time>2021-10-15T12:06:17.000Z</time>
      </trkpt>
      <trkpt lat="48.19714" lon="-2.61567">
        <ele>124</ele>
        <time>2021-10-15T12:06:18.000Z</time>
      </trkpt>
      <trkpt lat="48.19715" lon="-2.61564">
        <ele>124.19999694824</ele>
        <time>2021-10-15T12:06:19.000Z</time>
      </trkpt>
      <trkpt lat="48.19717" lon="-2.61562">
        <ele>124.59999847412</ele>
        <time>2021-10-15T12:06:20.000Z</time>
      </trkpt>
      <trkpt lat="48.19718" lon="-2.6156">
        <ele>124.80000305176</ele>
        <time>2021-10-15T12:06:21.000Z</time>
      </trkpt>
      <trkpt lat="48.1972" lon="-2.61558">
        <ele>125.19999694824</ele>
        <time>2021-10-15T12:06:22.000Z</time>
      </trkpt>
      <trkpt lat="48.19722" lon="-2.61556">
        <ele>125.40000152588</ele>
        <time>2021-10-15T12:06:23.000Z</time>
      </trkpt>
      <trkpt lat="48.19724" lon="-2.61555">
        <ele>125.59999847412</ele>
        <time>2021-10-15T12:06:24.000Z</time>
      </trkpt>
      <trkpt lat="48.19726" lon="-2.61554">
        <ele>126</ele>
        <time>2021-10-15T12:06:25.000Z</time>
      </trkpt>
      <trkpt lat="48.19728" lon="-2.61553">
        <ele>126.40000152588</ele>
        <time>2021-10-15T12:06:26.000Z</time>
      </trkpt>
      <trkpt lat="48.1973" lon="-2.61552">
        <ele>126.59999847412</ele>
        <time>2021-10-15T12:06:27.000Z</time>
      </trkpt>
      <trkpt lat="48.19732" lon="-2.61552">
        <ele>127</ele>
        <time>2021-10-15T12:06:28.000Z</time>
      </trkpt>
      <trkpt lat="48.19734" lon="-2.61552">
        <ele>127.40000152588</ele>
        <time>2021-10-15T12:06:29.000Z</time>
      </trkpt>
      <trkpt lat="48.19737" lon="-2.61552">
        <ele>127.80000305176</ele>
        <time>2021-10-15T12:06:30.000Z</time>
      </trkpt>
      <trkpt lat="48.19739" lon="-2.61553">
        <ele>128.39999389648</ele>
        <time>2021-10-15T12:06:31.000Z</time>
      </trkpt>
      <trkpt lat="48.19741" lon="-2.61553">
        <ele>128.80000305176</ele>
        <time>2021-10-15T12:06:32.000Z</time>
      </trkpt>
      <trkpt lat="48.19743" lon="-2.61554">
        <ele>129</ele>
        <time>2021-10-15T12:06:33.000Z</time>
      </trkpt>
      <trkpt lat="48.19746" lon="-2.61554">
        <ele>129.19999694824</ele>
        <time>2021-10-15T12:06:34.000Z</time>
      </trkpt>
      <trkpt lat="48.19748" lon="-2.61555">
        <ele>129.60000610352</ele>
        <time>2021-10-15T12:06:35.000Z</time>
      </trkpt>
      <trkpt lat="48.1975" lon="-2.61555">
        <ele>129.80000305176</ele>
        <time>2021-10-15T12:06:36.000Z</time>
      </trkpt>
      <trkpt lat="48.19753" lon="-2.61556">
        <ele>130.19999694824</ele>
        <time>2021-10-15T12:06:37.000Z</time>
      </trkpt>
      <trkpt lat="48.19755" lon="-2.61557">
        <ele>130.39999389648</ele>
        <time>2021-10-15T12:06:38.000Z</time>
      </trkpt>
      <trkpt lat="48.19757" lon="-2.61558">
        <ele>130.60000610352</ele>
        <time>2021-10-15T12:06:39.000Z</time>
      </trkpt>
      <trkpt lat="48.1976" lon="-2.61559">
        <ele>131</ele>
        <time>2021-10-15T12:06:40.000Z</time>
      </trkpt>
      <trkpt lat="48.19762" lon="-2.61559">
        <ele>131.19999694824</ele>
        <time>2021-10-15T12:06:41.000Z</time>
      </trkpt>
      <trkpt lat="48.19764" lon="-2.6156">
        <ele>131.39999389648</ele>
        <time>2021-10-15T12:06:42.000Z</time>
      </trkpt>
      <trkpt lat="48.19766" lon="-2.61561">
        <ele>131.60000610352</ele>
        <time>2021-10-15T12:06:43.000Z</time>
      </trkpt>
      <trkpt lat="48.19769" lon="-2.61561">
        <ele>132</ele>
        <time>2021-10-15T12:06:44.000Z</time>
      </trkpt>
      <trkpt lat="48.19771" lon="-2.61562">
        <ele>132.19999694824</ele>
        <time>2021-10-15T12:06:45.000Z</time>
      </trkpt>
      <trkpt lat="48.19773" lon="-2.61562">
        <ele>132.19999694824</ele>
        <time>2021-10-15T12:06:46.000Z</time>
      </trkpt>
      <trkpt lat="48.19775" lon="-2.61563">
        <ele>132.39999389648</ele>
        <time>2021-10-15T12:06:47.000Z</time>
      </trkpt>
      <trkpt lat="48.19778" lon="-2.61563">
        <ele>132.60000610352</ele>
        <time>2021-10-15T12:06:48.000Z</time>
      </trkpt>
      <trkpt lat="48.1978" lon="-2.61564">
        <ele>132.80000305176</ele>
        <time>2021-10-15T12:06:49.000Z</time>
      </trkpt>
      <trkpt lat="48.19782" lon="-2.61564">
        <ele>132.80000305176</ele>
        <time>2021-10-15T12:06:50.000Z</time>
      </trkpt>
      <trkpt lat="48.19784" lon="-2.61564">
        <ele>133</ele>
        <time>2021-10-15T12:06:51.000Z</time>
      </trkpt>
      <trkpt lat="48.19788" lon="-2.61565">
        <ele>133.39999389648</ele>
        <time>2021-10-15T12:06:52.000Z</time>
      </trkpt>
      <trkpt lat="48.19788" lon="-2.61565">
        <ele>133.39999389648</ele>
        <time>2021-10-15T12:06:53.000Z</time>
      </trkpt>
      <trkpt lat="48.1979" lon="-2.61565">
        <ele>133.60000610352</ele>
        <time>2021-10-15T12:06:54.000Z</time>
      </trkpt>
      <trkpt lat="48.19792" lon="-2.61566">
        <ele>133.80000305176</ele>
        <time>2021-10-15T12:06:55.000Z</time>
      </trkpt>
      <trkpt lat="48.19795" lon="-2.61566">
        <ele>134</ele>
        <time>2021-10-15T12:06:56.000Z</time>
      </trkpt>
      <trkpt lat="48.19797" lon="-2.61567">
        <ele>134.19999694824</ele>
        <time>2021-10-15T12:06:57.000Z</time>
      </trkpt>
      <trkpt lat="48.19799" lon="-2.61567">
        <ele>134.39999389648</ele>
        <time>2021-10-15T12:06:58.000Z</time>
      </trkpt>
      <trkpt lat="48.19801" lon="-2.61567">
        <ele>134.60000610352</ele>
        <time>2021-10-15T12:06:59.000Z</time>
      </trkpt>
      <trkpt lat="48.19804" lon="-2.61568">
        <ele>134.80000305176</ele>
        <time>2021-10-15T12:07:00.000Z</time>
      </trkpt>
      <trkpt lat="48.19806" lon="-2.61568">
        <ele>135</ele>
        <time>2021-10-15T12:07:01.000Z</time>
      </trkpt>
      <trkpt lat="48.19809" lon="-2.61569">
        <ele>135.19999694824</ele>
        <time>2021-10-15T12:07:02.000Z</time>
      </trkpt>
      <trkpt lat="48.19811" lon="-2.6157">
        <ele>135.39999389648</ele>
        <time>2021-10-15T12:07:03.000Z</time>
      </trkpt>
      <trkpt lat="48.19813" lon="-2.61571">
        <ele>135.60000610352</ele>
        <time>2021-10-15T12:07:04.000Z</time>
      </trkpt>
      <trkpt lat="48.19816" lon="-2.61572">
        <ele>135.80000305176</ele>
        <time>2021-10-15T12:07:05.000Z</time>
      </trkpt>
      <trkpt lat="48.19818" lon="-2.61572">
        <ele>136</ele>
        <time>2021-10-15T12:07:06.000Z</time>
      </trkpt>
      <trkpt lat="48.1982" lon="-2.61573">
        <ele>136.19999694824</ele>
        <time>2021-10-15T12:07:07.000Z</time>
      </trkpt>
      <trkpt lat="48.19822" lon="-2.61574">
        <ele>136.39999389648</ele>
        <time>2021-10-15T12:07:08.000Z</time>
      </trkpt>
      <trkpt lat="48.19824" lon="-2.61575">
        <ele>136.60000610352</ele>
        <time>2021-10-15T12:07:09.000Z</time>
      </trkpt>
      <trkpt lat="48.19827" lon="-2.61575">
        <ele>136.80000305176</ele>
        <time>2021-10-15T12:07:10.000Z</time>
      </trkpt>
      <trkpt lat="48.19829" lon="-2.61576">
        <ele>136.80000305176</ele>
        <time>2021-10-15T12:07:11.000Z</time>
      </trkpt>
      <trkpt lat="48.1983" lon="-2.61576">
        <ele>137</ele>
        <time>2021-10-15T12:07:12.000Z</time>
      </trkpt>
      <trkpt lat="48.19832" lon="-2.61577">
        <ele>137.19999694824</ele>
        <time>2021-10-15T12:07:13.000Z</time>
      </trkpt>
      <trkpt lat="48.19834" lon="-2.61578">
        <ele>137.39999389648</ele>
        <time>2021-10-15T12:07:14.000Z</time>
      </trkpt>
      <trkpt lat="48.19835" lon="-2.61578">
        <ele>137.39999389648</ele>
        <time>2021-10-15T12:07:15.000Z</time>
      </trkpt>
      <trkpt lat="48.19837" lon="-2.61579">
        <ele>137.39999389648</ele>
        <time>2021-10-15T12:07:16.000Z</time>
      </trkpt>
      <trkpt lat="48.19839" lon="-2.61579">
        <ele>137.60000610352</ele>
        <time>2021-10-15T12:07:17.000Z</time>
      </trkpt>
      <trkpt lat="48.19841" lon="-2.61579">
        <ele>137.60000610352</ele>
        <time>2021-10-15T12:07:18.000Z</time>
      </trkpt>
      <trkpt lat="48.19843" lon="-2.61579">
        <ele>137.60000610352</ele>
        <time>2021-10-15T12:07:19.000Z</time>
      </trkpt>
      <trkpt lat="48.19848" lon="-2.61579">
        <ele>137.80000305176</ele>
        <time>2021-10-15T12:07:20.000Z</time>
      </trkpt>
      <trkpt lat="48.19848" lon="-2.61579">
        <ele>137.80000305176</ele>
        <time>2021-10-15T12:07:21.000Z</time>
      </trkpt>
      <trkpt lat="48.1985" lon="-2.61579">
        <ele>137.80000305176</ele>
        <time>2021-10-15T12:07:22.000Z</time>
      </trkpt>
      <trkpt lat="48.19852" lon="-2.61579">
        <ele>138</ele>
        <time>2021-10-15T12:07:23.000Z</time>
      </trkpt>
      <trkpt lat="48.19854" lon="-2.61579">
        <ele>138</ele>
        <time>2021-10-15T12:07:24.000Z</time>
      </trkpt>
      <trkpt lat="48.19856" lon="-2.6158">
        <ele>138.19999694824</ele>
        <time>2021-10-15T12:07:25.000Z</time>
      </trkpt>
      <trkpt lat="48.19858" lon="-2.6158">
        <ele>138.39999389648</ele>
        <time>2021-10-15T12:07:26.000Z</time>
      </trkpt>
      <trkpt lat="48.19861" lon="-2.61581">
        <ele>138.60000610352</ele>
        <time>2021-10-15T12:07:27.000Z</time>
      </trkpt>
      <trkpt lat="48.19863" lon="-2.61581">
        <ele>138.80000305176</ele>
        <time>2021-10-15T12:07:28.000Z</time>
      </trkpt>
      <trkpt lat="48.19865" lon="-2.61583">
        <ele>139</ele>
        <time>2021-10-15T12:07:29.000Z</time>
      </trkpt>
      <trkpt lat="48.19868" lon="-2.61584">
        <ele>139.19999694824</ele>
        <time>2021-10-15T12:07:30.000Z</time>
      </trkpt>
      <trkpt lat="48.19871" lon="-2.61587">
        <ele>139.39999389648</ele>
        <time>2021-10-15T12:07:31.000Z</time>
      </trkpt>
      <trkpt lat="48.19874" lon="-2.61589">
        <ele>139.39999389648</ele>
        <time>2021-10-15T12:07:32.000Z</time>
      </trkpt>
      <trkpt lat="48.19877" lon="-2.61592">
        <ele>139.60000610352</ele>
        <time>2021-10-15T12:07:33.000Z</time>
      </trkpt>
      <trkpt lat="48.1988" lon="-2.61593">
        <ele>140</ele>
        <time>2021-10-15T12:07:34.000Z</time>
      </trkpt>
      <trkpt lat="48.19882" lon="-2.61595">
        <ele>140</ele>
        <time>2021-10-15T12:07:35.000Z</time>
      </trkpt>
      <trkpt lat="48.19885" lon="-2.61596">
        <ele>140.19999694824</ele>
        <time>2021-10-15T12:07:36.000Z</time>
      </trkpt>
      <trkpt lat="48.19887" lon="-2.61597">
        <ele>140.19999694824</ele>
        <time>2021-10-15T12:07:37.000Z</time>
      </trkpt>
      <trkpt lat="48.19889" lon="-2.61598">
        <ele>140.19999694824</ele>
        <time>2021-10-15T12:07:38.000Z</time>
      </trkpt>
      <trkpt lat="48.19891" lon="-2.61599">
        <ele>140.39999389648</ele>
        <time>2021-10-15T12:07:39.000Z</time>
      </trkpt>
      <trkpt lat="48.19893" lon="-2.616">
        <ele>140.39999389648</ele>
        <time>2021-10-15T12:07:40.000Z</time>
      </trkpt>
      <trkpt lat="48.19895" lon="-2.61602">
        <ele>140.60000610352</ele>
        <time>2021-10-15T12:07:41.000Z</time>
      </trkpt>
      <trkpt lat="48.19897" lon="-2.61603">
        <ele>140.60000610352</ele>
        <time>2021-10-15T12:07:42.000Z</time>
      </trkpt>
      <trkpt lat="48.19899" lon="-2.61603">
        <ele>140.60000610352</ele>
        <time>2021-10-15T12:07:43.000Z</time>
      </trkpt>
      <trkpt lat="48.199" lon="-2.61604">
        <ele>140.80000305176</ele>
        <time>2021-10-15T12:07:44.000Z</time>
      </trkpt>
      <trkpt lat="48.19902" lon="-2.61605">
        <ele>140.80000305176</ele>
        <time>2021-10-15T12:07:45.000Z</time>
      </trkpt>
      <trkpt lat="48.19903" lon="-2.61605">
        <ele>140.80000305176</ele>
        <time>2021-10-15T12:07:46.000Z</time>
      </trkpt>
      <trkpt lat="48.19903" lon="-2.61606">
        <ele>140.80000305176</ele>
        <time>2021-10-15T12:07:47.000Z</time>
      </trkpt>
      <trkpt lat="48.19903" lon="-2.61606">
        <ele>140.80000305176</ele>
        <time>2021-10-15T12:07:48.000Z</time>
      </trkpt>
      <trkpt lat="48.19903" lon="-2.61606">
        <ele>140.80000305176</ele>
        <time>2021-10-15T12:07:49.000Z</time>
      </trkpt>
      <trkpt lat="48.19904" lon="-2.61606">
        <ele>140.80000305176</ele>
        <time>2021-10-15T12:07:50.000Z</time>
      </trkpt>
      <trkpt lat="48.19904" lon="-2.61606">
        <ele>140.80000305176</ele>
        <time>2021-10-15T12:07:51.000Z</time>
      </trkpt>
      <trkpt lat="48.19904" lon="-2.61606">
        <ele>140.80000305176</ele>
        <time>2021-10-15T12:07:52.000Z</time>
      </trkpt>
      <trkpt lat="48.19904" lon="-2.61606">
        <ele>140.80000305176</ele>
        <time>2021-10-15T12:07:53.000Z</time>
      </trkpt>
      <trkpt lat="48.19904" lon="-2.61606">
        <ele>140.80000305176</ele>
        <time>2021-10-15T12:07:54.000Z</time>
      </trkpt>
      <trkpt lat="48.19904" lon="-2.61606">
        <ele>140.80000305176</ele>
        <time>2021-10-15T12:07:55.000Z</time>
      </trkpt>
      <trkpt lat="48.19904" lon="-2.61606">
        <ele>140.80000305176</ele>
        <time>2021-10-15T12:07:56.000Z</time>
      </trkpt>
      <trkpt lat="48.19904" lon="-2.61606">
        <ele>140.80000305176</ele>
        <time>2021-10-15T12:07:57.000Z</time>
      </trkpt>
      <trkpt lat="48.19904" lon="-2.61607">
        <ele>140.80000305176</ele>
        <time>2021-10-15T12:07:58.000Z</time>
      </trkpt>
      <trkpt lat="48.19904" lon="-2.61607">
        <ele>140.80000305176</ele>
        <time>2021-10-15T12:07:59.000Z</time>
      </trkpt>
      <trkpt lat="48.19904" lon="-2.61608">
        <ele>140.80000305176</ele>
        <time>2021-10-15T12:08:00.000Z</time>
      </trkpt>
      <trkpt lat="48.19904" lon="-2.61608">
        <ele>140.80000305176</ele>
        <time>2021-10-15T12:08:01.000Z</time>
      </trkpt>
      <trkpt lat="48.19904" lon="-2.61608">
        <ele>140.80000305176</ele>
        <time>2021-10-15T12:08:02.000Z</time>
      </trkpt>
      <trkpt lat="48.19904" lon="-2.61608">
        <ele>140.80000305176</ele>
        <time>2021-10-15T12:08:03.000Z</time>
      </trkpt>
      <trkpt lat="48.19904" lon="-2.61608">
        <ele>140.80000305176</ele>
        <time>2021-10-15T12:08:04.000Z</time>
      </trkpt>
      <trkpt lat="48.19904" lon="-2.61608">
        <ele>140.80000305176</ele>
        <time>2021-10-15T12:08:05.000Z</time>
      </trkpt>
      <trkpt lat="48.19904" lon="-2.61608">
        <ele>140.80000305176</ele>
        <time>2021-10-15T12:08:06.000Z</time>
      </trkpt>
      <trkpt lat="48.19904" lon="-2.61608">
        <ele>140.80000305176</ele>
        <time>2021-10-15T12:08:07.000Z</time>
      </trkpt>
      <trkpt lat="48.19904" lon="-2.61608">
        <ele>140.80000305176</ele>
        <time>2021-10-15T12:08:08.000Z</time>
      </trkpt>
      <trkpt lat="48.19904" lon="-2.61608">
        <ele>140.80000305176</ele>
        <time>2021-10-15T12:08:09.000Z</time>
      </trkpt>
      <trkpt lat="48.19904" lon="-2.61608">
        <ele>140.80000305176</ele>
        <time>2021-10-15T12:08:10.000Z</time>
      </trkpt>
      <trkpt lat="48.19904" lon="-2.61608">
        <ele>140.80000305176</ele>
        <time>2021-10-15T12:08:11.000Z</time>
      </trkpt>
      <trkpt lat="48.19904" lon="-2.61608">
        <ele>140.80000305176</ele>
        <time>2021-10-15T12:08:12.000Z</time>
      </trkpt>
      <trkpt lat="48.19904" lon="-2.61608">
        <ele>140.80000305176</ele>
        <time>2021-10-15T12:08:13.000Z</time>
      </trkpt>
      <trkpt lat="48.19904" lon="-2.61608">
        <ele>140.80000305176</ele>
        <time>2021-10-15T12:08:14.000Z</time>
      </trkpt>
      <trkpt lat="48.19904" lon="-2.61608">
        <ele>140.80000305176</ele>
        <time>2021-10-15T12:08:15.000Z</time>
      </trkpt>
      <trkpt lat="48.19904" lon="-2.61608">
        <ele>140.80000305176</ele>
        <time>2021-10-15T12:08:16.000Z</time>
      </trkpt>
      <trkpt lat="48.19904" lon="-2.61607">
        <ele>140.80000305176</ele>
        <time>2021-10-15T12:08:17.000Z</time>
      </trkpt>
      <trkpt lat="48.19903" lon="-2.61607">
        <ele>140.80000305176</ele>
        <time>2021-10-15T12:08:18.000Z</time>
      </trkpt>
      <trkpt lat="48.19902" lon="-2.61606">
        <ele>140.80000305176</ele>
        <time>2021-10-15T12:08:19.000Z</time>
      </trkpt>
      <trkpt lat="48.19902" lon="-2.61605">
        <ele>140.80000305176</ele>
        <time>2021-10-15T12:08:20.000Z</time>
      </trkpt>
      <trkpt lat="48.19901" lon="-2.61605">
        <ele>140.80000305176</ele>
        <time>2021-10-15T12:08:21.000Z</time>
      </trkpt>
      <trkpt lat="48.199" lon="-2.61605">
        <ele>140.60000610352</ele>
        <time>2021-10-15T12:08:22.000Z</time>
      </trkpt>
      <trkpt lat="48.19899" lon="-2.61604">
        <ele>140.60000610352</ele>
        <time>2021-10-15T12:08:23.000Z</time>
      </trkpt>
      <trkpt lat="48.19898" lon="-2.61604">
        <ele>140.60000610352</ele>
        <time>2021-10-15T12:08:24.000Z</time>
      </trkpt>
      <trkpt lat="48.19896" lon="-2.61603">
        <ele>140.60000610352</ele>
        <time>2021-10-15T12:08:25.000Z</time>
      </trkpt>
      <trkpt lat="48.19896" lon="-2.61603">
        <ele>140.60000610352</ele>
        <time>2021-10-15T12:08:26.000Z</time>
      </trkpt>
      <trkpt lat="48.19895" lon="-2.61602">
        <ele>140.60000610352</ele>
        <time>2021-10-15T12:08:27.000Z</time>
      </trkpt>
      <trkpt lat="48.19894" lon="-2.61602">
        <ele>140.39999389648</ele>
        <time>2021-10-15T12:08:28.000Z</time>
      </trkpt>
      <trkpt lat="48.19893" lon="-2.61601">
        <ele>140.39999389648</ele>
        <time>2021-10-15T12:08:29.000Z</time>
      </trkpt>
      <trkpt lat="48.19892" lon="-2.61601">
        <ele>140.39999389648</ele>
        <time>2021-10-15T12:08:30.000Z</time>
      </trkpt>
      <trkpt lat="48.19892" lon="-2.61601">
        <ele>140.39999389648</ele>
        <time>2021-10-15T12:08:31.000Z</time>
      </trkpt>
      <trkpt lat="48.19891" lon="-2.61601">
        <ele>140.39999389648</ele>
        <time>2021-10-15T12:08:32.000Z</time>
      </trkpt>
      <trkpt lat="48.19891" lon="-2.616">
        <ele>140.39999389648</ele>
        <time>2021-10-15T12:08:33.000Z</time>
      </trkpt>
      <trkpt lat="48.1989" lon="-2.616">
        <ele>140.39999389648</ele>
        <time>2021-10-15T12:08:34.000Z</time>
      </trkpt>
      <trkpt lat="48.1989" lon="-2.616">
        <ele>140.39999389648</ele>
        <time>2021-10-15T12:08:35.000Z</time>
      </trkpt>
      <trkpt lat="48.19889" lon="-2.61599">
        <ele>140.39999389648</ele>
        <time>2021-10-15T12:08:36.000Z</time>
      </trkpt>
      <trkpt lat="48.19889" lon="-2.61599">
        <ele>140.19999694824</ele>
        <time>2021-10-15T12:08:37.000Z</time>
      </trkpt>
      <trkpt lat="48.19888" lon="-2.61599">
        <ele>140.19999694824</ele>
        <time>2021-10-15T12:08:38.000Z</time>
      </trkpt>
      <trkpt lat="48.19887" lon="-2.61598">
        <ele>140.19999694824</ele>
        <time>2021-10-15T12:08:39.000Z</time>
      </trkpt>
      <trkpt lat="48.19887" lon="-2.61598">
        <ele>140.19999694824</ele>
        <time>2021-10-15T12:08:40.000Z</time>
      </trkpt>
      <trkpt lat="48.19886" lon="-2.61598">
        <ele>140.19999694824</ele>
        <time>2021-10-15T12:08:41.000Z</time>
      </trkpt>
      <trkpt lat="48.19886" lon="-2.61597">
        <ele>140.19999694824</ele>
        <time>2021-10-15T12:08:42.000Z</time>
      </trkpt>
      <trkpt lat="48.19887" lon="-2.61599">
        <ele>140.19999694824</ele>
        <time>2021-10-15T12:08:43.000Z</time>
      </trkpt>
      <trkpt lat="48.19887" lon="-2.61599">
        <ele>140.19999694824</ele>
        <time>2021-10-15T12:08:44.000Z</time>
      </trkpt>
      <trkpt lat="48.19887" lon="-2.61599">
        <ele>140.19999694824</ele>
        <time>2021-10-15T12:08:45.000Z</time>
      </trkpt>
      <trkpt lat="48.19886" lon="-2.61599">
        <ele>140.19999694824</ele>
        <time>2021-10-15T12:08:46.000Z</time>
      </trkpt>
      <trkpt lat="48.19886" lon="-2.61599">
        <ele>140.19999694824</ele>
        <time>2021-10-15T12:08:47.000Z</time>
      </trkpt>
      <trkpt lat="48.19887" lon="-2.61599">
        <ele>140.19999694824</ele>
        <time>2021-10-15T12:08:48.000Z</time>
      </trkpt>
      <trkpt lat="48.19887" lon="-2.61599">
        <ele>140.19999694824</ele>
        <time>2021-10-15T12:08:49.000Z</time>
      </trkpt>
      <trkpt lat="48.19887" lon="-2.61599">
        <ele>140.19999694824</ele>
        <time>2021-10-15T12:08:50.000Z</time>
      </trkpt>
      <trkpt lat="48.19888" lon="-2.616">
        <ele>140.19999694824</ele>
        <time>2021-10-15T12:08:51.000Z</time>
      </trkpt>
      <trkpt lat="48.19889" lon="-2.61601">
        <ele>140.39999389648</ele>
        <time>2021-10-15T12:08:52.000Z</time>
      </trkpt>
      <trkpt lat="48.19889" lon="-2.61601">
        <ele>140.39999389648</ele>
        <time>2021-10-15T12:08:53.000Z</time>
      </trkpt>
      <trkpt lat="48.1989" lon="-2.61601">
        <ele>140.39999389648</ele>
        <time>2021-10-15T12:08:54.000Z</time>
      </trkpt>
      <trkpt lat="48.1989" lon="-2.61601">
        <ele>140.39999389648</ele>
        <time>2021-10-15T12:08:55.000Z</time>
      </trkpt>
      <trkpt lat="48.19891" lon="-2.61602">
        <ele>140.39999389648</ele>
        <time>2021-10-15T12:08:56.000Z</time>
      </trkpt>
      <trkpt lat="48.19891" lon="-2.61602">
        <ele>140.39999389648</ele>
        <time>2021-10-15T12:08:57.000Z</time>
      </trkpt>
      <trkpt lat="48.19892" lon="-2.61603">
        <ele>140.39999389648</ele>
        <time>2021-10-15T12:08:58.000Z</time>
      </trkpt>
      <trkpt lat="48.19892" lon="-2.61603">
        <ele>140.39999389648</ele>
        <time>2021-10-15T12:08:59.000Z</time>
      </trkpt>
      <trkpt lat="48.19893" lon="-2.61604">
        <ele>140.39999389648</ele>
        <time>2021-10-15T12:09:00.000Z</time>
      </trkpt>
      <trkpt lat="48.19894" lon="-2.61604">
        <ele>140.39999389648</ele>
        <time>2021-10-15T12:09:01.000Z</time>
      </trkpt>
      <trkpt lat="48.19894" lon="-2.61605">
        <ele>140.39999389648</ele>
        <time>2021-10-15T12:09:02.000Z</time>
      </trkpt>
      <trkpt lat="48.19895" lon="-2.61605">
        <ele>140.60000610352</ele>
        <time>2021-10-15T12:09:03.000Z</time>
      </trkpt>
      <trkpt lat="48.19895" lon="-2.61606">
        <ele>140.60000610352</ele>
        <time>2021-10-15T12:09:04.000Z</time>
      </trkpt>
      <trkpt lat="48.19896" lon="-2.61606">
        <ele>140.60000610352</ele>
        <time>2021-10-15T12:09:05.000Z</time>
      </trkpt>
      <trkpt lat="48.19897" lon="-2.61607">
        <ele>140.60000610352</ele>
        <time>2021-10-15T12:09:06.000Z</time>
      </trkpt>
      <trkpt lat="48.19897" lon="-2.61607">
        <ele>140.60000610352</ele>
        <time>2021-10-15T12:09:07.000Z</time>
      </trkpt>
      <trkpt lat="48.19898" lon="-2.61607">
        <ele>140.60000610352</ele>
        <time>2021-10-15T12:09:08.000Z</time>
      </trkpt>
      <trkpt lat="48.19899" lon="-2.61608">
        <ele>140.60000610352</ele>
        <time>2021-10-15T12:09:09.000Z</time>
      </trkpt>
      <trkpt lat="48.19899" lon="-2.61608">
        <ele>140.60000610352</ele>
        <time>2021-10-15T12:09:10.000Z</time>
      </trkpt>
      <trkpt lat="48.199" lon="-2.61608">
        <ele>140.60000610352</ele>
        <time>2021-10-15T12:09:11.000Z</time>
      </trkpt>
      <trkpt lat="48.19901" lon="-2.61608">
        <ele>140.80000305176</ele>
        <time>2021-10-15T12:09:12.000Z</time>
      </trkpt>
      <trkpt lat="48.19901" lon="-2.61608">
        <ele>140.80000305176</ele>
        <time>2021-10-15T12:09:13.000Z</time>
      </trkpt>
      <trkpt lat="48.19901" lon="-2.61608">
        <ele>140.80000305176</ele>
        <time>2021-10-15T12:09:14.000Z</time>
      </trkpt>
      <trkpt lat="48.19901" lon="-2.61609">
        <ele>140.80000305176</ele>
        <time>2021-10-15T12:09:15.000Z</time>
      </trkpt>
      <trkpt lat="48.19902" lon="-2.61609">
        <ele>140.80000305176</ele>
        <time>2021-10-15T12:09:16.000Z</time>
      </trkpt>
      <trkpt lat="48.19902" lon="-2.61609">
        <ele>140.80000305176</ele>
        <time>2021-10-15T12:09:17.000Z</time>
      </trkpt>
      <trkpt lat="48.19903" lon="-2.61608">
        <ele>140.80000305176</ele>
        <time>2021-10-15T12:09:18.000Z</time>
      </trkpt>
      <trkpt lat="48.19903" lon="-2.61608">
        <ele>140.80000305176</ele>
        <time>2021-10-15T12:09:19.000Z</time>
      </trkpt>
      <trkpt lat="48.19903" lon="-2.61608">
        <ele>140.80000305176</ele>
        <time>2021-10-15T12:09:20.000Z</time>
      </trkpt>
      <trkpt lat="48.19903" lon="-2.61608">
        <ele>140.80000305176</ele>
        <time>2021-10-15T12:09:21.000Z</time>
      </trkpt>
      <trkpt lat="48.19904" lon="-2.61608">
        <ele>140.80000305176</ele>
        <time>2021-10-15T12:09:22.000Z</time>
      </trkpt>
      <trkpt lat="48.19904" lon="-2.61608">
        <ele>140.80000305176</ele>
        <time>2021-10-15T12:09:23.000Z</time>
      </trkpt>
      <trkpt lat="48.19904" lon="-2.61608">
        <ele>140.80000305176</ele>
        <time>2021-10-15T12:09:24.000Z</time>
      </trkpt>
      <trkpt lat="48.19904" lon="-2.61608">
        <ele>140.80000305176</ele>
        <time>2021-10-15T12:09:25.000Z</time>
      </trkpt>
      <trkpt lat="48.19904" lon="-2.61608">
        <ele>140.80000305176</ele>
        <time>2021-10-15T12:09:26.000Z</time>
      </trkpt>
      <trkpt lat="48.19904" lon="-2.61608">
        <ele>140.80000305176</ele>
        <time>2021-10-15T12:09:27.000Z</time>
      </trkpt>
      <trkpt lat="48.19904" lon="-2.61608">
        <ele>140.80000305176</ele>
        <time>2021-10-15T12:09:28.000Z</time>
      </trkpt>
      <trkpt lat="48.19904" lon="-2.61608">
        <ele>140.80000305176</ele>
        <time>2021-10-15T12:09:29.000Z</time>
      </trkpt>
      <trkpt lat="48.19904" lon="-2.61608">
        <ele>140.80000305176</ele>
        <time>2021-10-15T12:09:30.000Z</time>
      </trkpt>
      <trkpt lat="48.19904" lon="-2.61608">
        <ele>140.80000305176</ele>
        <time>2021-10-15T12:09:31.000Z</time>
      </trkpt>
      <trkpt lat="48.19904" lon="-2.61608">
        <ele>140.80000305176</ele>
        <time>2021-10-15T12:09:32.000Z</time>
      </trkpt>
      <trkpt lat="48.19904" lon="-2.61608">
        <ele>140.80000305176</ele>
        <time>2021-10-15T12:09:33.000Z</time>
      </trkpt>
      <trkpt lat="48.19904" lon="-2.61608">
        <ele>140.80000305176</ele>
        <time>2021-10-15T12:09:34.000Z</time>
      </trkpt>
      <trkpt lat="48.19904" lon="-2.61608">
        <ele>140.80000305176</ele>
        <time>2021-10-15T12:09:35.000Z</time>
      </trkpt>
      <trkpt lat="48.19904" lon="-2.61608">
        <ele>140.80000305176</ele>
        <time>2021-10-15T12:09:36.000Z</time>
      </trkpt>
      <trkpt lat="48.19904" lon="-2.61608">
        <ele>140.80000305176</ele>
        <time>2021-10-15T12:09:37.000Z</time>
      </trkpt>
      <trkpt lat="48.19904" lon="-2.61608">
        <ele>140.80000305176</ele>
        <time>2021-10-15T12:09:38.000Z</time>
      </trkpt>
      <trkpt lat="48.19904" lon="-2.61608">
        <ele>140.80000305176</ele>
        <time>2021-10-15T12:09:39.000Z</time>
      </trkpt>
      <trkpt lat="48.19904" lon="-2.61608">
        <ele>140.80000305176</ele>
        <time>2021-10-15T12:09:40.000Z</time>
      </trkpt>
      <trkpt lat="48.19904" lon="-2.61608">
        <ele>140.80000305176</ele>
        <time>2021-10-15T12:09:41.000Z</time>
      </trkpt>
      <trkpt lat="48.19904" lon="-2.61608">
        <ele>140.80000305176</ele>
        <time>2021-10-15T12:09:42.000Z</time>
      </trkpt>
      <trkpt lat="48.19904" lon="-2.61608">
        <ele>140.80000305176</ele>
        <time>2021-10-15T12:09:43.000Z</time>
      </trkpt>
      <trkpt lat="48.19904" lon="-2.61608">
        <ele>140.80000305176</ele>
        <time>2021-10-15T12:09:44.000Z</time>
      </trkpt>
      <trkpt lat="48.19904" lon="-2.61607">
        <ele>140.80000305176</ele>
        <time>2021-10-15T12:09:45.000Z</time>
      </trkpt>
      <trkpt lat="48.19904" lon="-2.61607">
        <ele>140.80000305176</ele>
        <time>2021-10-15T12:09:46.000Z</time>
      </trkpt>
      <trkpt lat="48.19904" lon="-2.61607">
        <ele>140.80000305176</ele>
        <time>2021-10-15T12:09:47.000Z</time>
      </trkpt>
      <trkpt lat="48.19904" lon="-2.61607">
        <ele>140.80000305176</ele>
        <time>2021-10-15T12:09:48.000Z</time>
      </trkpt>
      <trkpt lat="48.19904" lon="-2.61607">
        <ele>140.80000305176</ele>
        <time>2021-10-15T12:09:49.000Z</time>
      </trkpt>
      <trkpt lat="48.19903" lon="-2.61607">
        <ele>140.80000305176</ele>
        <time>2021-10-15T12:09:50.000Z</time>
      </trkpt>
      <trkpt lat="48.19903" lon="-2.61607">
        <ele>140.80000305176</ele>
        <time>2021-10-15T12:09:51.000Z</time>
      </trkpt>
      <trkpt lat="48.19902" lon="-2.61606">
        <ele>140.80000305176</ele>
        <time>2021-10-15T12:09:52.000Z</time>
      </trkpt>
      <trkpt lat="48.19901" lon="-2.61606">
        <ele>140.80000305176</ele>
        <time>2021-10-15T12:09:53.000Z</time>
      </trkpt>
      <trkpt lat="48.199" lon="-2.61606">
        <ele>140.60000610352</ele>
        <time>2021-10-15T12:09:54.000Z</time>
      </trkpt>
      <trkpt lat="48.19899" lon="-2.61605">
        <ele>140.60000610352</ele>
        <time>2021-10-15T12:09:55.000Z</time>
      </trkpt>
      <trkpt lat="48.19898" lon="-2.61605">
        <ele>140.60000610352</ele>
        <time>2021-10-15T12:09:56.000Z</time>
      </trkpt>
      <trkpt lat="48.19897" lon="-2.61604">
        <ele>140.60000610352</ele>
        <time>2021-10-15T12:09:57.000Z</time>
      </trkpt>
      <trkpt lat="48.19897" lon="-2.61604">
        <ele>140.60000610352</ele>
        <time>2021-10-15T12:09:58.000Z</time>
      </trkpt>
      <trkpt lat="48.19896" lon="-2.61603">
        <ele>140.60000610352</ele>
        <time>2021-10-15T12:09:59.000Z</time>
      </trkpt>
      <trkpt lat="48.19895" lon="-2.61603">
        <ele>140.60000610352</ele>
        <time>2021-10-15T12:10:00.000Z</time>
      </trkpt>
      <trkpt lat="48.19895" lon="-2.61603">
        <ele>140.60000610352</ele>
        <time>2021-10-15T12:10:01.000Z</time>
      </trkpt>
      <trkpt lat="48.19894" lon="-2.61602">
        <ele>140.39999389648</ele>
        <time>2021-10-15T12:10:02.000Z</time>
      </trkpt>
      <trkpt lat="48.19894" lon="-2.61602">
        <ele>140.39999389648</ele>
        <time>2021-10-15T12:10:03.000Z</time>
      </trkpt>
      <trkpt lat="48.19893" lon="-2.61602">
        <ele>140.39999389648</ele>
        <time>2021-10-15T12:10:04.000Z</time>
      </trkpt>
      <trkpt lat="48.19893" lon="-2.61601">
        <ele>140.39999389648</ele>
        <time>2021-10-15T12:10:05.000Z</time>
      </trkpt>
      <trkpt lat="48.19892" lon="-2.61601">
        <ele>140.39999389648</ele>
        <time>2021-10-15T12:10:06.000Z</time>
      </trkpt>
      <trkpt lat="48.19891" lon="-2.616">
        <ele>140.39999389648</ele>
        <time>2021-10-15T12:10:07.000Z</time>
      </trkpt>
      <trkpt lat="48.1989" lon="-2.616">
        <ele>140.39999389648</ele>
        <time>2021-10-15T12:10:08.000Z</time>
      </trkpt>
      <trkpt lat="48.19889" lon="-2.616">
        <ele>140.39999389648</ele>
        <time>2021-10-15T12:10:09.000Z</time>
      </trkpt>
      <trkpt lat="48.19889" lon="-2.61599">
        <ele>140.19999694824</ele>
        <time>2021-10-15T12:10:10.000Z</time>
      </trkpt>
      <trkpt lat="48.19888" lon="-2.61599">
        <ele>140.19999694824</ele>
        <time>2021-10-15T12:10:11.000Z</time>
      </trkpt>
      <trkpt lat="48.19887" lon="-2.61598">
        <ele>140.19999694824</ele>
        <time>2021-10-15T12:10:12.000Z</time>
      </trkpt>
      <trkpt lat="48.19887" lon="-2.61598">
        <ele>140.19999694824</ele>
        <time>2021-10-15T12:10:13.000Z</time>
      </trkpt>
      <trkpt lat="48.19886" lon="-2.61597">
        <ele>140.19999694824</ele>
        <time>2021-10-15T12:10:14.000Z</time>
      </trkpt>
      <trkpt lat="48.19886" lon="-2.61597">
        <ele>140.19999694824</ele>
        <time>2021-10-15T12:10:15.000Z</time>
      </trkpt>
      <trkpt lat="48.19885" lon="-2.61597">
        <ele>140.19999694824</ele>
        <time>2021-10-15T12:10:16.000Z</time>
      </trkpt>
      <trkpt lat="48.19885" lon="-2.61596">
        <ele>140.19999694824</ele>
        <time>2021-10-15T12:10:17.000Z</time>
      </trkpt>
      <trkpt lat="48.19885" lon="-2.61596">
        <ele>140.19999694824</ele>
        <time>2021-10-15T12:10:18.000Z</time>
      </trkpt>
      <trkpt lat="48.19885" lon="-2.61596">
        <ele>140.19999694824</ele>
        <time>2021-10-15T12:10:19.000Z</time>
      </trkpt>
      <trkpt lat="48.19885" lon="-2.61596">
        <ele>140.19999694824</ele>
        <time>2021-10-15T12:10:20.000Z</time>
      </trkpt>
      <trkpt lat="48.19884" lon="-2.61596">
        <ele>140.19999694824</ele>
        <time>2021-10-15T12:10:21.000Z</time>
      </trkpt>
      <trkpt lat="48.19884" lon="-2.61596">
        <ele>140.19999694824</ele>
        <time>2021-10-15T12:10:22.000Z</time>
      </trkpt>
      <trkpt lat="48.19884" lon="-2.61597">
        <ele>140.19999694824</ele>
        <time>2021-10-15T12:10:23.000Z</time>
      </trkpt>
      <trkpt lat="48.19884" lon="-2.61597">
        <ele>140.19999694824</ele>
        <time>2021-10-15T12:10:24.000Z</time>
      </trkpt>
      <trkpt lat="48.19884" lon="-2.61598">
        <ele>140.19999694824</ele>
        <time>2021-10-15T12:10:25.000Z</time>
      </trkpt>
      <trkpt lat="48.19885" lon="-2.61598">
        <ele>140.19999694824</ele>
        <time>2021-10-15T12:10:26.000Z</time>
      </trkpt>
      <trkpt lat="48.19885" lon="-2.61598">
        <ele>140.19999694824</ele>
        <time>2021-10-15T12:10:27.000Z</time>
      </trkpt>
      <trkpt lat="48.19885" lon="-2.61598">
        <ele>140.19999694824</ele>
        <time>2021-10-15T12:10:28.000Z</time>
      </trkpt>
      <trkpt lat="48.19885" lon="-2.61598">
        <ele>140.19999694824</ele>
        <time>2021-10-15T12:10:29.000Z</time>
      </trkpt>
      <trkpt lat="48.19885" lon="-2.61598">
        <ele>140.19999694824</ele>
        <time>2021-10-15T12:10:30.000Z</time>
      </trkpt>
      <trkpt lat="48.19885" lon="-2.61598">
        <ele>140.19999694824</ele>
        <time>2021-10-15T12:10:31.000Z</time>
      </trkpt>
      <trkpt lat="48.19885" lon="-2.61598">
        <ele>140.19999694824</ele>
        <time>2021-10-15T12:10:32.000Z</time>
      </trkpt>
      <trkpt lat="48.19885" lon="-2.61599">
        <ele>140.19999694824</ele>
        <time>2021-10-15T12:10:33.000Z</time>
      </trkpt>
      <trkpt lat="48.19885" lon="-2.61599">
        <ele>140.19999694824</ele>
        <time>2021-10-15T12:10:34.000Z</time>
      </trkpt>
      <trkpt lat="48.19885" lon="-2.61599">
        <ele>140.19999694824</ele>
        <time>2021-10-15T12:10:35.000Z</time>
      </trkpt>
      <trkpt lat="48.19885" lon="-2.616">
        <ele>140.19999694824</ele>
        <time>2021-10-15T12:10:36.000Z</time>
      </trkpt>
      <trkpt lat="48.19885" lon="-2.616">
        <ele>140.19999694824</ele>
        <time>2021-10-15T12:10:37.000Z</time>
      </trkpt>
      <trkpt lat="48.19885" lon="-2.616">
        <ele>140.19999694824</ele>
        <time>2021-10-15T12:10:38.000Z</time>
      </trkpt>
      <trkpt lat="48.19886" lon="-2.616">
        <ele>140.19999694824</ele>
        <time>2021-10-15T12:10:39.000Z</time>
      </trkpt>
      <trkpt lat="48.19886" lon="-2.616">
        <ele>140.19999694824</ele>
        <time>2021-10-15T12:10:40.000Z</time>
      </trkpt>
      <trkpt lat="48.19887" lon="-2.616">
        <ele>140.19999694824</ele>
        <time>2021-10-15T12:10:41.000Z</time>
      </trkpt>
      <trkpt lat="48.19887" lon="-2.616">
        <ele>140.19999694824</ele>
        <time>2021-10-15T12:10:42.000Z</time>
      </trkpt>
      <trkpt lat="48.19888" lon="-2.616">
        <ele>140.19999694824</ele>
        <time>2021-10-15T12:10:43.000Z</time>
      </trkpt>
      <trkpt lat="48.19889" lon="-2.616">
        <ele>140.39999389648</ele>
        <time>2021-10-15T12:10:44.000Z</time>
      </trkpt>
      <trkpt lat="48.1989" lon="-2.61601">
        <ele>140.39999389648</ele>
        <time>2021-10-15T12:10:45.000Z</time>
      </trkpt>
      <trkpt lat="48.19891" lon="-2.61601">
        <ele>140.39999389648</ele>
        <time>2021-10-15T12:10:46.000Z</time>
      </trkpt>
      <trkpt lat="48.19891" lon="-2.61601">
        <ele>140.39999389648</ele>
        <time>2021-10-15T12:10:47.000Z</time>
      </trkpt>
      <trkpt lat="48.19892" lon="-2.61602">
        <ele>140.39999389648</ele>
        <time>2021-10-15T12:10:48.000Z</time>
      </trkpt>
      <trkpt lat="48.19893" lon="-2.61602">
        <ele>140.39999389648</ele>
        <time>2021-10-15T12:10:49.000Z</time>
      </trkpt>
      <trkpt lat="48.19894" lon="-2.61602">
        <ele>140.39999389648</ele>
        <time>2021-10-15T12:10:50.000Z</time>
      </trkpt>
      <trkpt lat="48.19894" lon="-2.61603">
        <ele>140.39999389648</ele>
        <time>2021-10-15T12:10:51.000Z</time>
      </trkpt>
      <trkpt lat="48.19896" lon="-2.61604">
        <ele>140.60000610352</ele>
        <time>2021-10-15T12:10:52.000Z</time>
      </trkpt>
      <trkpt lat="48.19896" lon="-2.61604">
        <ele>140.60000610352</ele>
        <time>2021-10-15T12:10:53.000Z</time>
      </trkpt>
      <trkpt lat="48.19896" lon="-2.61604">
        <ele>140.60000610352</ele>
        <time>2021-10-15T12:10:54.000Z</time>
      </trkpt>
      <trkpt lat="48.19897" lon="-2.61605">
        <ele>140.60000610352</ele>
        <time>2021-10-15T12:10:55.000Z</time>
      </trkpt>
      <trkpt lat="48.19898" lon="-2.61605">
        <ele>140.60000610352</ele>
        <time>2021-10-15T12:10:56.000Z</time>
      </trkpt>
      <trkpt lat="48.19899" lon="-2.61605">
        <ele>140.60000610352</ele>
        <time>2021-10-15T12:10:57.000Z</time>
      </trkpt>
      <trkpt lat="48.199" lon="-2.61605">
        <ele>140.60000610352</ele>
        <time>2021-10-15T12:10:58.000Z</time>
      </trkpt>
      <trkpt lat="48.199" lon="-2.61606">
        <ele>140.80000305176</ele>
        <time>2021-10-15T12:10:59.000Z</time>
      </trkpt>
      <trkpt lat="48.19901" lon="-2.61606">
        <ele>140.80000305176</ele>
        <time>2021-10-15T12:11:00.000Z</time>
      </trkpt>
      <trkpt lat="48.19902" lon="-2.61606">
        <ele>140.80000305176</ele>
        <time>2021-10-15T12:11:01.000Z</time>
      </trkpt>
      <trkpt lat="48.19902" lon="-2.61606">
        <ele>140.80000305176</ele>
        <time>2021-10-15T12:11:02.000Z</time>
      </trkpt>
      <trkpt lat="48.19903" lon="-2.61606">
        <ele>140.80000305176</ele>
        <time>2021-10-15T12:11:03.000Z</time>
      </trkpt>
      <trkpt lat="48.19904" lon="-2.61607">
        <ele>140.80000305176</ele>
        <time>2021-10-15T12:11:04.000Z</time>
      </trkpt>
      <trkpt lat="48.19904" lon="-2.61607">
        <ele>140.80000305176</ele>
        <time>2021-10-15T12:11:05.000Z</time>
      </trkpt>
      <trkpt lat="48.19905" lon="-2.61607">
        <ele>140.80000305176</ele>
        <time>2021-10-15T12:11:06.000Z</time>
      </trkpt>
      <trkpt lat="48.19905" lon="-2.61607">
        <ele>140.80000305176</ele>
        <time>2021-10-15T12:11:07.000Z</time>
      </trkpt>
      <trkpt lat="48.19905" lon="-2.61606">
        <ele>140.80000305176</ele>
        <time>2021-10-15T12:11:08.000Z</time>
      </trkpt>
      <trkpt lat="48.19905" lon="-2.61606">
        <ele>140.80000305176</ele>
        <time>2021-10-15T12:11:09.000Z</time>
      </trkpt>
      <trkpt lat="48.19905" lon="-2.61606">
        <ele>140.80000305176</ele>
        <time>2021-10-15T12:11:10.000Z</time>
      </trkpt>
      <trkpt lat="48.19906" lon="-2.61606">
        <ele>141</ele>
        <time>2021-10-15T12:11:11.000Z</time>
      </trkpt>
      <trkpt lat="48.19906" lon="-2.61606">
        <ele>141</ele>
        <time>2021-10-15T12:11:12.000Z</time>
      </trkpt>
      <trkpt lat="48.19906" lon="-2.61606">
        <ele>141</ele>
        <time>2021-10-15T12:11:13.000Z</time>
      </trkpt>
      <trkpt lat="48.19906" lon="-2.61605">
        <ele>141</ele>
        <time>2021-10-15T12:11:14.000Z</time>
      </trkpt>
      <trkpt lat="48.19905" lon="-2.61605">
        <ele>140.80000305176</ele>
        <time>2021-10-15T12:11:15.000Z</time>
      </trkpt>
      <trkpt lat="48.19905" lon="-2.61605">
        <ele>140.80000305176</ele>
        <time>2021-10-15T12:11:16.000Z</time>
      </trkpt>
      <trkpt lat="48.19905" lon="-2.61605">
        <ele>140.80000305176</ele>
        <time>2021-10-15T12:11:17.000Z</time>
      </trkpt>
      <trkpt lat="48.19905" lon="-2.61605">
        <ele>140.80000305176</ele>
        <time>2021-10-15T12:11:18.000Z</time>
      </trkpt>
      <trkpt lat="48.19905" lon="-2.61605">
        <ele>140.80000305176</ele>
        <time>2021-10-15T12:11:19.000Z</time>
      </trkpt>
      <trkpt lat="48.19905" lon="-2.61605">
        <ele>140.80000305176</ele>
        <time>2021-10-15T12:11:20.000Z</time>
      </trkpt>
      <trkpt lat="48.19905" lon="-2.61605">
        <ele>140.80000305176</ele>
        <time>2021-10-15T12:11:21.000Z</time>
      </trkpt>
      <trkpt lat="48.19905" lon="-2.61605">
        <ele>140.80000305176</ele>
        <time>2021-10-15T12:11:22.000Z</time>
      </trkpt>
      <trkpt lat="48.19905" lon="-2.61605">
        <ele>140.80000305176</ele>
        <time>2021-10-15T12:11:23.000Z</time>
      </trkpt>
      <trkpt lat="48.19905" lon="-2.61605">
        <ele>140.80000305176</ele>
        <time>2021-10-15T12:11:24.000Z</time>
      </trkpt>
      <trkpt lat="48.19905" lon="-2.61605">
        <ele>140.80000305176</ele>
        <time>2021-10-15T12:11:25.000Z</time>
      </trkpt>
      <trkpt lat="48.19906" lon="-2.61606">
        <ele>141</ele>
        <time>2021-10-15T12:11:26.000Z</time>
      </trkpt>
      <trkpt lat="48.19906" lon="-2.61606">
        <ele>141</ele>
        <time>2021-10-15T12:11:27.000Z</time>
      </trkpt>
      <trkpt lat="48.19905" lon="-2.61606">
        <ele>140.80000305176</ele>
        <time>2021-10-15T12:11:28.000Z</time>
      </trkpt>
      <trkpt lat="48.19905" lon="-2.61606">
        <ele>140.80000305176</ele>
        <time>2021-10-15T12:11:29.000Z</time>
      </trkpt>
      <trkpt lat="48.19905" lon="-2.61606">
        <ele>140.80000305176</ele>
        <time>2021-10-15T12:11:30.000Z</time>
      </trkpt>
      <trkpt lat="48.19905" lon="-2.61606">
        <ele>140.80000305176</ele>
        <time>2021-10-15T12:11:31.000Z</time>
      </trkpt>
      <trkpt lat="48.19905" lon="-2.61606">
        <ele>140.80000305176</ele>
        <time>2021-10-15T12:11:32.000Z</time>
      </trkpt>
      <trkpt lat="48.19905" lon="-2.61606">
        <ele>140.80000305176</ele>
        <time>2021-10-15T12:11:33.000Z</time>
      </trkpt>
      <trkpt lat="48.19905" lon="-2.61606">
        <ele>140.80000305176</ele>
        <time>2021-10-15T12:11:34.000Z</time>
      </trkpt>
      <trkpt lat="48.19905" lon="-2.61606">
        <ele>140.80000305176</ele>
        <time>2021-10-15T12:11:35.000Z</time>
      </trkpt>
      <trkpt lat="48.19905" lon="-2.61606">
        <ele>140.80000305176</ele>
        <time>2021-10-15T12:11:36.000Z</time>
      </trkpt>
      <trkpt lat="48.19905" lon="-2.61606">
        <ele>140.80000305176</ele>
        <time>2021-10-15T12:11:37.000Z</time>
      </trkpt>
      <trkpt lat="48.19905" lon="-2.61606">
        <ele>140.80000305176</ele>
        <time>2021-10-15T12:11:38.000Z</time>
      </trkpt>
      <trkpt lat="48.19906" lon="-2.61606">
        <ele>140.80000305176</ele>
        <time>2021-10-15T12:11:39.000Z</time>
      </trkpt>
      <trkpt lat="48.19905" lon="-2.61606">
        <ele>140.80000305176</ele>
        <time>2021-10-15T12:11:40.000Z</time>
      </trkpt>
      <trkpt lat="48.19905" lon="-2.61606">
        <ele>140.80000305176</ele>
        <time>2021-10-15T12:11:41.000Z</time>
      </trkpt>
      <trkpt lat="48.19905" lon="-2.61606">
        <ele>140.80000305176</ele>
        <time>2021-10-15T12:11:42.000Z</time>
      </trkpt>
      <trkpt lat="48.19905" lon="-2.61606">
        <ele>140.80000305176</ele>
        <time>2021-10-15T12:11:43.000Z</time>
      </trkpt>
      <trkpt lat="48.19905" lon="-2.61606">
        <ele>140.80000305176</ele>
        <time>2021-10-15T12:11:44.000Z</time>
      </trkpt>
      <trkpt lat="48.19905" lon="-2.61606">
        <ele>140.80000305176</ele>
        <time>2021-10-15T12:11:45.000Z</time>
      </trkpt>
      <trkpt lat="48.19904" lon="-2.61606">
        <ele>140.80000305176</ele>
        <time>2021-10-15T12:11:46.000Z</time>
      </trkpt>
      <trkpt lat="48.19904" lon="-2.61606">
        <ele>140.80000305176</ele>
        <time>2021-10-15T12:11:47.000Z</time>
      </trkpt>
      <trkpt lat="48.19903" lon="-2.61606">
        <ele>140.80000305176</ele>
        <time>2021-10-15T12:11:48.000Z</time>
      </trkpt>
      <trkpt lat="48.19903" lon="-2.61605">
        <ele>140.80000305176</ele>
        <time>2021-10-15T12:11:49.000Z</time>
      </trkpt>
      <trkpt lat="48.19901" lon="-2.61605">
        <ele>140.80000305176</ele>
        <time>2021-10-15T12:11:50.000Z</time>
      </trkpt>
      <trkpt lat="48.199" lon="-2.61604">
        <ele>140.80000305176</ele>
        <time>2021-10-15T12:11:51.000Z</time>
      </trkpt>
      <trkpt lat="48.19899" lon="-2.61604">
        <ele>140.60000610352</ele>
        <time>2021-10-15T12:11:52.000Z</time>
      </trkpt>
      <trkpt lat="48.19899" lon="-2.61604">
        <ele>140.60000610352</ele>
        <time>2021-10-15T12:11:53.000Z</time>
      </trkpt>
      <trkpt lat="48.19898" lon="-2.61603">
        <ele>140.60000610352</ele>
        <time>2021-10-15T12:11:54.000Z</time>
      </trkpt>
      <trkpt lat="48.19897" lon="-2.61603">
        <ele>140.60000610352</ele>
        <time>2021-10-15T12:11:55.000Z</time>
      </trkpt>
      <trkpt lat="48.19896" lon="-2.61602">
        <ele>140.60000610352</ele>
        <time>2021-10-15T12:11:56.000Z</time>
      </trkpt>
      <trkpt lat="48.19895" lon="-2.61602">
        <ele>140.60000610352</ele>
        <time>2021-10-15T12:11:57.000Z</time>
      </trkpt>
      <trkpt lat="48.19894" lon="-2.61602">
        <ele>140.39999389648</ele>
        <time>2021-10-15T12:11:58.000Z</time>
      </trkpt>
      <trkpt lat="48.19893" lon="-2.61601">
        <ele>140.39999389648</ele>
        <time>2021-10-15T12:11:59.000Z</time>
      </trkpt>
      <trkpt lat="48.19893" lon="-2.616">
        <ele>140.39999389648</ele>
        <time>2021-10-15T12:12:00.000Z</time>
      </trkpt>
      <trkpt lat="48.19892" lon="-2.616">
        <ele>140.39999389648</ele>
        <time>2021-10-15T12:12:01.000Z</time>
      </trkpt>
      <trkpt lat="48.19892" lon="-2.616">
        <ele>140.39999389648</ele>
        <time>2021-10-15T12:12:02.000Z</time>
      </trkpt>
      <trkpt lat="48.19891" lon="-2.616">
        <ele>140.39999389648</ele>
        <time>2021-10-15T12:12:03.000Z</time>
      </trkpt>
      <trkpt lat="48.19891" lon="-2.616">
        <ele>140.39999389648</ele>
        <time>2021-10-15T12:12:04.000Z</time>
      </trkpt>
      <trkpt lat="48.19891" lon="-2.616">
        <ele>140.39999389648</ele>
        <time>2021-10-15T12:12:05.000Z</time>
      </trkpt>
      <trkpt lat="48.19891" lon="-2.616">
        <ele>140.39999389648</ele>
        <time>2021-10-15T12:12:06.000Z</time>
      </trkpt>
      <trkpt lat="48.1989" lon="-2.616">
        <ele>140.39999389648</ele>
        <time>2021-10-15T12:12:07.000Z</time>
      </trkpt>
      <trkpt lat="48.1989" lon="-2.616">
        <ele>140.39999389648</ele>
        <time>2021-10-15T12:12:08.000Z</time>
      </trkpt>
      <trkpt lat="48.1989" lon="-2.616">
        <ele>140.39999389648</ele>
        <time>2021-10-15T12:12:09.000Z</time>
      </trkpt>
      <trkpt lat="48.1989" lon="-2.616">
        <ele>140.39999389648</ele>
        <time>2021-10-15T12:12:10.000Z</time>
      </trkpt>
      <trkpt lat="48.1989" lon="-2.616">
        <ele>140.39999389648</ele>
        <time>2021-10-15T12:12:11.000Z</time>
      </trkpt>
      <trkpt lat="48.1989" lon="-2.61601">
        <ele>140.39999389648</ele>
        <time>2021-10-15T12:12:12.000Z</time>
      </trkpt>
      <trkpt lat="48.19891" lon="-2.61601">
        <ele>140.39999389648</ele>
        <time>2021-10-15T12:12:13.000Z</time>
      </trkpt>
      <trkpt lat="48.19892" lon="-2.61601">
        <ele>140.39999389648</ele>
        <time>2021-10-15T12:12:14.000Z</time>
      </trkpt>
      <trkpt lat="48.19892" lon="-2.61601">
        <ele>140.39999389648</ele>
        <time>2021-10-15T12:12:15.000Z</time>
      </trkpt>
      <trkpt lat="48.19893" lon="-2.61602">
        <ele>140.39999389648</ele>
        <time>2021-10-15T12:12:16.000Z</time>
      </trkpt>
      <trkpt lat="48.19893" lon="-2.61602">
        <ele>140.39999389648</ele>
        <time>2021-10-15T12:12:17.000Z</time>
      </trkpt>
      <trkpt lat="48.19894" lon="-2.61602">
        <ele>140.39999389648</ele>
        <time>2021-10-15T12:12:18.000Z</time>
      </trkpt>
      <trkpt lat="48.19894" lon="-2.61602">
        <ele>140.39999389648</ele>
        <time>2021-10-15T12:12:19.000Z</time>
      </trkpt>
      <trkpt lat="48.19894" lon="-2.61602">
        <ele>140.39999389648</ele>
        <time>2021-10-15T12:12:20.000Z</time>
      </trkpt>
      <trkpt lat="48.19894" lon="-2.61602">
        <ele>140.39999389648</ele>
        <time>2021-10-15T12:12:21.000Z</time>
      </trkpt>
      <trkpt lat="48.19894" lon="-2.61602">
        <ele>140.39999389648</ele>
        <time>2021-10-15T12:12:22.000Z</time>
      </trkpt>
      <trkpt lat="48.19894" lon="-2.61602">
        <ele>140.39999389648</ele>
        <time>2021-10-15T12:12:23.000Z</time>
      </trkpt>
      <trkpt lat="48.19894" lon="-2.61603">
        <ele>140.39999389648</ele>
        <time>2021-10-15T12:12:24.000Z</time>
      </trkpt>
      <trkpt lat="48.19894" lon="-2.61603">
        <ele>140.39999389648</ele>
        <time>2021-10-15T12:12:25.000Z</time>
      </trkpt>
      <trkpt lat="48.19894" lon="-2.61603">
        <ele>140.39999389648</ele>
        <time>2021-10-15T12:12:26.000Z</time>
      </trkpt>
      <trkpt lat="48.19894" lon="-2.61603">
        <ele>140.39999389648</ele>
        <time>2021-10-15T12:12:27.000Z</time>
      </trkpt>
      <trkpt lat="48.19894" lon="-2.61603">
        <ele>140.39999389648</ele>
        <time>2021-10-15T12:12:28.000Z</time>
      </trkpt>
      <trkpt lat="48.19895" lon="-2.61602">
        <ele>140.60000610352</ele>
        <time>2021-10-15T12:12:29.000Z</time>
      </trkpt>
      <trkpt lat="48.19895" lon="-2.61602">
        <ele>140.60000610352</ele>
        <time>2021-10-15T12:12:30.000Z</time>
      </trkpt>
      <trkpt lat="48.19895" lon="-2.61602">
        <ele>140.60000610352</ele>
        <time>2021-10-15T12:12:31.000Z</time>
      </trkpt>
      <trkpt lat="48.19895" lon="-2.61603">
        <ele>140.60000610352</ele>
        <time>2021-10-15T12:12:32.000Z</time>
      </trkpt>
      <trkpt lat="48.19895" lon="-2.61602">
        <ele>140.60000610352</ele>
        <time>2021-10-15T12:12:33.000Z</time>
      </trkpt>
      <trkpt lat="48.19895" lon="-2.61602">
        <ele>140.60000610352</ele>
        <time>2021-10-15T12:12:34.000Z</time>
      </trkpt>
      <trkpt lat="48.19895" lon="-2.61602">
        <ele>140.60000610352</ele>
        <time>2021-10-15T12:12:35.000Z</time>
      </trkpt>
      <trkpt lat="48.19895" lon="-2.61602">
        <ele>140.60000610352</ele>
        <time>2021-10-15T12:12:36.000Z</time>
      </trkpt>
      <trkpt lat="48.19895" lon="-2.61602">
        <ele>140.60000610352</ele>
        <time>2021-10-15T12:12:37.000Z</time>
      </trkpt>
      <trkpt lat="48.19895" lon="-2.61602">
        <ele>140.60000610352</ele>
        <time>2021-10-15T12:12:38.000Z</time>
      </trkpt>
      <trkpt lat="48.19896" lon="-2.61602">
        <ele>140.60000610352</ele>
        <time>2021-10-15T12:12:39.000Z</time>
      </trkpt>
      <trkpt lat="48.19896" lon="-2.61602">
        <ele>140.60000610352</ele>
        <time>2021-10-15T12:12:40.000Z</time>
      </trkpt>
      <trkpt lat="48.19896" lon="-2.61602">
        <ele>140.60000610352</ele>
        <time>2021-10-15T12:12:41.000Z</time>
      </trkpt>
      <trkpt lat="48.19895" lon="-2.61602">
        <ele>140.60000610352</ele>
        <time>2021-10-15T12:12:42.000Z</time>
      </trkpt>
      <trkpt lat="48.19895" lon="-2.61602">
        <ele>140.60000610352</ele>
        <time>2021-10-15T12:12:43.000Z</time>
      </trkpt>
      <trkpt lat="48.19895" lon="-2.61602">
        <ele>140.60000610352</ele>
        <time>2021-10-15T12:12:44.000Z</time>
      </trkpt>
      <trkpt lat="48.19895" lon="-2.61602">
        <ele>140.60000610352</ele>
        <time>2021-10-15T12:12:45.000Z</time>
      </trkpt>
      <trkpt lat="48.19895" lon="-2.61602">
        <ele>140.60000610352</ele>
        <time>2021-10-15T12:12:46.000Z</time>
      </trkpt>
      <trkpt lat="48.19895" lon="-2.61602">
        <ele>140.60000610352</ele>
        <time>2021-10-15T12:12:47.000Z</time>
      </trkpt>
      <trkpt lat="48.19895" lon="-2.61602">
        <ele>140.60000610352</ele>
        <time>2021-10-15T12:12:48.000Z</time>
      </trkpt>
      <trkpt lat="48.19895" lon="-2.61602">
        <ele>140.60000610352</ele>
        <time>2021-10-15T12:12:49.000Z</time>
      </trkpt>
      <trkpt lat="48.19895" lon="-2.61602">
        <ele>140.60000610352</ele>
        <time>2021-10-15T12:12:50.000Z</time>
      </trkpt>
      <trkpt lat="48.19895" lon="-2.61602">
        <ele>140.60000610352</ele>
        <time>2021-10-15T12:12:51.000Z</time>
      </trkpt>
      <trkpt lat="48.19895" lon="-2.61602">
        <ele>140.60000610352</ele>
        <time>2021-10-15T12:12:52.000Z</time>
      </trkpt>
      <trkpt lat="48.19895" lon="-2.61602">
        <ele>140.60000610352</ele>
        <time>2021-10-15T12:12:53.000Z</time>
      </trkpt>
      <trkpt lat="48.19895" lon="-2.61603">
        <ele>140.60000610352</ele>
        <time>2021-10-15T12:12:54.000Z</time>
      </trkpt>
      <trkpt lat="48.19895" lon="-2.61603">
        <ele>140.60000610352</ele>
        <time>2021-10-15T12:12:55.000Z</time>
      </trkpt>
      <trkpt lat="48.19895" lon="-2.61603">
        <ele>140.60000610352</ele>
        <time>2021-10-15T12:12:56.000Z</time>
      </trkpt>
      <trkpt lat="48.19895" lon="-2.61603">
        <ele>140.60000610352</ele>
        <time>2021-10-15T12:12:57.000Z</time>
      </trkpt>
      <trkpt lat="48.19895" lon="-2.61603">
        <ele>140.60000610352</ele>
        <time>2021-10-15T12:12:58.000Z</time>
      </trkpt>
      <trkpt lat="48.19895" lon="-2.61603">
        <ele>140.60000610352</ele>
        <time>2021-10-15T12:12:59.000Z</time>
      </trkpt>
      <trkpt lat="48.19895" lon="-2.61603">
        <ele>140.60000610352</ele>
        <time>2021-10-15T12:13:00.000Z</time>
      </trkpt>
      <trkpt lat="48.19896" lon="-2.61603">
        <ele>140.60000610352</ele>
        <time>2021-10-15T12:13:01.000Z</time>
      </trkpt>
      <trkpt lat="48.19896" lon="-2.61604">
        <ele>140.60000610352</ele>
        <time>2021-10-15T12:13:02.000Z</time>
      </trkpt>
      <trkpt lat="48.19896" lon="-2.61604">
        <ele>140.60000610352</ele>
        <time>2021-10-15T12:13:03.000Z</time>
      </trkpt>
      <trkpt lat="48.19897" lon="-2.61604">
        <ele>140.60000610352</ele>
        <time>2021-10-15T12:13:04.000Z</time>
      </trkpt>
      <trkpt lat="48.19897" lon="-2.61604">
        <ele>140.60000610352</ele>
        <time>2021-10-15T12:13:05.000Z</time>
      </trkpt>
      <trkpt lat="48.19898" lon="-2.61605">
        <ele>140.60000610352</ele>
        <time>2021-10-15T12:13:06.000Z</time>
      </trkpt>
      <trkpt lat="48.19898" lon="-2.61605">
        <ele>140.60000610352</ele>
        <time>2021-10-15T12:13:07.000Z</time>
      </trkpt>
      <trkpt lat="48.19899" lon="-2.61606">
        <ele>140.60000610352</ele>
        <time>2021-10-15T12:13:08.000Z</time>
      </trkpt>
      <trkpt lat="48.199" lon="-2.61607">
        <ele>140.80000305176</ele>
        <time>2021-10-15T12:13:09.000Z</time>
      </trkpt>
      <trkpt lat="48.19901" lon="-2.61607">
        <ele>140.80000305176</ele>
        <time>2021-10-15T12:13:10.000Z</time>
      </trkpt>
      <trkpt lat="48.19904" lon="-2.61607">
        <ele>140.80000305176</ele>
        <time>2021-10-15T12:13:11.000Z</time>
      </trkpt>
      <trkpt lat="48.19904" lon="-2.61607">
        <ele>140.80000305176</ele>
        <time>2021-10-15T12:13:12.000Z</time>
      </trkpt>
      <trkpt lat="48.19904" lon="-2.61607">
        <ele>140.80000305176</ele>
        <time>2021-10-15T12:13:13.000Z</time>
      </trkpt>
      <trkpt lat="48.19905" lon="-2.61607">
        <ele>140.80000305176</ele>
        <time>2021-10-15T12:13:14.000Z</time>
      </trkpt>
      <trkpt lat="48.19905" lon="-2.61607">
        <ele>140.80000305176</ele>
        <time>2021-10-15T12:13:15.000Z</time>
      </trkpt>
      <trkpt lat="48.19906" lon="-2.61607">
        <ele>141</ele>
        <time>2021-10-15T12:13:16.000Z</time>
      </trkpt>
      <trkpt lat="48.19906" lon="-2.61607">
        <ele>141</ele>
        <time>2021-10-15T12:13:17.000Z</time>
      </trkpt>
      <trkpt lat="48.19906" lon="-2.61607">
        <ele>141</ele>
        <time>2021-10-15T12:13:18.000Z</time>
      </trkpt>
      <trkpt lat="48.19906" lon="-2.61607">
        <ele>141</ele>
        <time>2021-10-15T12:13:19.000Z</time>
      </trkpt>
      <trkpt lat="48.19906" lon="-2.61607">
        <ele>141</ele>
        <time>2021-10-15T12:13:20.000Z</time>
      </trkpt>
      <trkpt lat="48.19905" lon="-2.61607">
        <ele>140.80000305176</ele>
        <time>2021-10-15T12:13:21.000Z</time>
      </trkpt>
      <trkpt lat="48.19905" lon="-2.61607">
        <ele>140.80000305176</ele>
        <time>2021-10-15T12:13:22.000Z</time>
      </trkpt>
      <trkpt lat="48.19905" lon="-2.61607">
        <ele>140.80000305176</ele>
        <time>2021-10-15T12:13:23.000Z</time>
      </trkpt>
      <trkpt lat="48.19905" lon="-2.61607">
        <ele>140.80000305176</ele>
        <time>2021-10-15T12:13:24.000Z</time>
      </trkpt>
      <trkpt lat="48.19906" lon="-2.61606">
        <ele>141</ele>
        <time>2021-10-15T12:13:25.000Z</time>
      </trkpt>
      <trkpt lat="48.19906" lon="-2.61606">
        <ele>141</ele>
        <time>2021-10-15T12:13:26.000Z</time>
      </trkpt>
      <trkpt lat="48.19906" lon="-2.61606">
        <ele>141</ele>
        <time>2021-10-15T12:13:27.000Z</time>
      </trkpt>
      <trkpt lat="48.19906" lon="-2.61606">
        <ele>141</ele>
        <time>2021-10-15T12:13:28.000Z</time>
      </trkpt>
      <trkpt lat="48.19906" lon="-2.61606">
        <ele>141</ele>
        <time>2021-10-15T12:13:29.000Z</time>
      </trkpt>
      <trkpt lat="48.19906" lon="-2.61605">
        <ele>141</ele>
        <time>2021-10-15T12:13:30.000Z</time>
      </trkpt>
      <trkpt lat="48.19906" lon="-2.61605">
        <ele>141</ele>
        <time>2021-10-15T12:13:31.000Z</time>
      </trkpt>
      <trkpt lat="48.19907" lon="-2.61606">
        <ele>141</ele>
        <time>2021-10-15T12:13:32.000Z</time>
      </trkpt>
      <trkpt lat="48.19907" lon="-2.61606">
        <ele>141</ele>
        <time>2021-10-15T12:13:33.000Z</time>
      </trkpt>
      <trkpt lat="48.19908" lon="-2.61607">
        <ele>141</ele>
        <time>2021-10-15T12:13:34.000Z</time>
      </trkpt>
      <trkpt lat="48.19909" lon="-2.61607">
        <ele>141</ele>
        <time>2021-10-15T12:13:35.000Z</time>
      </trkpt>
      <trkpt lat="48.19911" lon="-2.61608">
        <ele>141</ele>
        <time>2021-10-15T12:13:36.000Z</time>
      </trkpt>
      <trkpt lat="48.19912" lon="-2.61608">
        <ele>140.80000305176</ele>
        <time>2021-10-15T12:13:37.000Z</time>
      </trkpt>
      <trkpt lat="48.19913" lon="-2.61609">
        <ele>140.80000305176</ele>
        <time>2021-10-15T12:13:38.000Z</time>
      </trkpt>
      <trkpt lat="48.19915" lon="-2.6161">
        <ele>140.80000305176</ele>
        <time>2021-10-15T12:13:39.000Z</time>
      </trkpt>
      <trkpt lat="48.19916" lon="-2.61611">
        <ele>140.80000305176</ele>
        <time>2021-10-15T12:13:40.000Z</time>
      </trkpt>
      <trkpt lat="48.19918" lon="-2.61612">
        <ele>140.60000610352</ele>
        <time>2021-10-15T12:13:41.000Z</time>
      </trkpt>
      <trkpt lat="48.1992" lon="-2.61613">
        <ele>140.60000610352</ele>
        <time>2021-10-15T12:13:42.000Z</time>
      </trkpt>
      <trkpt lat="48.19922" lon="-2.61614">
        <ele>140.60000610352</ele>
        <time>2021-10-15T12:13:43.000Z</time>
      </trkpt>
      <trkpt lat="48.19924" lon="-2.61615">
        <ele>140.39999389648</ele>
        <time>2021-10-15T12:13:44.000Z</time>
      </trkpt>
      <trkpt lat="48.19927" lon="-2.61616">
        <ele>140.19999694824</ele>
        <time>2021-10-15T12:13:45.000Z</time>
      </trkpt>
      <trkpt lat="48.1993" lon="-2.61617">
        <ele>140.19999694824</ele>
        <time>2021-10-15T12:13:46.000Z</time>
      </trkpt>
      <trkpt lat="48.19933" lon="-2.61619">
        <ele>140</ele>
        <time>2021-10-15T12:13:47.000Z</time>
      </trkpt>
      <trkpt lat="48.19936" lon="-2.6162">
        <ele>139.80000305176</ele>
        <time>2021-10-15T12:13:48.000Z</time>
      </trkpt>
      <trkpt lat="48.19939" lon="-2.61622">
        <ele>139.60000610352</ele>
        <time>2021-10-15T12:13:49.000Z</time>
      </trkpt>
      <trkpt lat="48.19943" lon="-2.61623">
        <ele>139.39999389648</ele>
        <time>2021-10-15T12:13:50.000Z</time>
      </trkpt>
      <trkpt lat="48.19946" lon="-2.61625">
        <ele>139.19999694824</ele>
        <time>2021-10-15T12:13:51.000Z</time>
      </trkpt>
      <trkpt lat="48.1995" lon="-2.61627">
        <ele>139</ele>
        <time>2021-10-15T12:13:52.000Z</time>
      </trkpt>
      <trkpt lat="48.19953" lon="-2.61629">
        <ele>138.80000305176</ele>
        <time>2021-10-15T12:13:53.000Z</time>
      </trkpt>
      <trkpt lat="48.19957" lon="-2.61631">
        <ele>138.60000610352</ele>
        <time>2021-10-15T12:13:54.000Z</time>
      </trkpt>
      <trkpt lat="48.19961" lon="-2.61632">
        <ele>138.39999389648</ele>
        <time>2021-10-15T12:13:55.000Z</time>
      </trkpt>
      <trkpt lat="48.19965" lon="-2.61634">
        <ele>138.19999694824</ele>
        <time>2021-10-15T12:13:56.000Z</time>
      </trkpt>
      <trkpt lat="48.19969" lon="-2.61636">
        <ele>138</ele>
        <time>2021-10-15T12:13:57.000Z</time>
      </trkpt>
      <trkpt lat="48.19972" lon="-2.61638">
        <ele>137.80000305176</ele>
        <time>2021-10-15T12:13:58.000Z</time>
      </trkpt>
      <trkpt lat="48.19976" lon="-2.6164">
        <ele>137.60000610352</ele>
        <time>2021-10-15T12:13:59.000Z</time>
      </trkpt>
      <trkpt lat="48.1998" lon="-2.61642">
        <ele>137.39999389648</ele>
        <time>2021-10-15T12:14:00.000Z</time>
      </trkpt>
      <trkpt lat="48.19984" lon="-2.61643">
        <ele>137.19999694824</ele>
        <time>2021-10-15T12:14:01.000Z</time>
      </trkpt>
      <trkpt lat="48.19989" lon="-2.61645">
        <ele>137</ele>
        <time>2021-10-15T12:14:02.000Z</time>
      </trkpt>
      <trkpt lat="48.19993" lon="-2.61647">
        <ele>136.80000305176</ele>
        <time>2021-10-15T12:14:03.000Z</time>
      </trkpt>
      <trkpt lat="48.19997" lon="-2.61649">
        <ele>136.60000610352</ele>
        <time>2021-10-15T12:14:04.000Z</time>
      </trkpt>
      <trkpt lat="48.20001" lon="-2.61651">
        <ele>136.39999389648</ele>
        <time>2021-10-15T12:14:05.000Z</time>
      </trkpt>
      <trkpt lat="48.20006" lon="-2.61653">
        <ele>136</ele>
        <time>2021-10-15T12:14:06.000Z</time>
      </trkpt>
      <trkpt lat="48.20011" lon="-2.61656">
        <ele>136</ele>
        <time>2021-10-15T12:14:07.000Z</time>
      </trkpt>
      <trkpt lat="48.20016" lon="-2.61658">
        <ele>136</ele>
        <time>2021-10-15T12:14:08.000Z</time>
      </trkpt>
      <trkpt lat="48.20021" lon="-2.61661">
        <ele>136</ele>
        <time>2021-10-15T12:14:09.000Z</time>
      </trkpt>
      <trkpt lat="48.20026" lon="-2.61664">
        <ele>136.19999694824</ele>
        <time>2021-10-15T12:14:10.000Z</time>
      </trkpt>
      <trkpt lat="48.20032" lon="-2.61667">
        <ele>136.19999694824</ele>
        <time>2021-10-15T12:14:11.000Z</time>
      </trkpt>
      <trkpt lat="48.20037" lon="-2.6167">
        <ele>136</ele>
        <time>2021-10-15T12:14:12.000Z</time>
      </trkpt>
      <trkpt lat="48.20043" lon="-2.61673">
        <ele>135.80000305176</ele>
        <time>2021-10-15T12:14:13.000Z</time>
      </trkpt>
      <trkpt lat="48.20049" lon="-2.61677">
        <ele>135.80000305176</ele>
        <time>2021-10-15T12:14:14.000Z</time>
      </trkpt>
      <trkpt lat="48.20055" lon="-2.61681">
        <ele>135.60000610352</ele>
        <time>2021-10-15T12:14:15.000Z</time>
      </trkpt>
      <trkpt lat="48.20061" lon="-2.61685">
        <ele>135.39999389648</ele>
        <time>2021-10-15T12:14:16.000Z</time>
      </trkpt>
      <trkpt lat="48.20067" lon="-2.61689">
        <ele>135.60000610352</ele>
        <time>2021-10-15T12:14:17.000Z</time>
      </trkpt>
      <trkpt lat="48.20072" lon="-2.61694">
        <ele>135.80000305176</ele>
        <time>2021-10-15T12:14:18.000Z</time>
      </trkpt>
      <trkpt lat="48.20078" lon="-2.617">
        <ele>135.60000610352</ele>
        <time>2021-10-15T12:14:19.000Z</time>
      </trkpt>
      <trkpt lat="48.20083" lon="-2.61705">
        <ele>134.80000305176</ele>
        <time>2021-10-15T12:14:20.000Z</time>
      </trkpt>
      <trkpt lat="48.20088" lon="-2.61711">
        <ele>134</ele>
        <time>2021-10-15T12:14:21.000Z</time>
      </trkpt>
      <trkpt lat="48.20094" lon="-2.61717">
        <ele>134</ele>
        <time>2021-10-15T12:14:22.000Z</time>
      </trkpt>
      <trkpt lat="48.20099" lon="-2.61723">
        <ele>134</ele>
        <time>2021-10-15T12:14:23.000Z</time>
      </trkpt>
      <trkpt lat="48.20104" lon="-2.61729">
        <ele>133.80000305176</ele>
        <time>2021-10-15T12:14:24.000Z</time>
      </trkpt>
      <trkpt lat="48.20109" lon="-2.61734">
        <ele>133.39999389648</ele>
        <time>2021-10-15T12:14:25.000Z</time>
      </trkpt>
      <trkpt lat="48.20114" lon="-2.6174">
        <ele>133</ele>
        <time>2021-10-15T12:14:26.000Z</time>
      </trkpt>
      <trkpt lat="48.20119" lon="-2.61746">
        <ele>133</ele>
        <time>2021-10-15T12:14:27.000Z</time>
      </trkpt>
      <trkpt lat="48.20123" lon="-2.61751">
        <ele>133</ele>
        <time>2021-10-15T12:14:28.000Z</time>
      </trkpt>
      <trkpt lat="48.20128" lon="-2.61757">
        <ele>133</ele>
        <time>2021-10-15T12:14:29.000Z</time>
      </trkpt>
      <trkpt lat="48.20133" lon="-2.61762">
        <ele>132.80000305176</ele>
        <time>2021-10-15T12:14:30.000Z</time>
      </trkpt>
      <trkpt lat="48.20137" lon="-2.61767">
        <ele>132.60000610352</ele>
        <time>2021-10-15T12:14:31.000Z</time>
      </trkpt>
      <trkpt lat="48.20142" lon="-2.61773">
        <ele>132.19999694824</ele>
        <time>2021-10-15T12:14:32.000Z</time>
      </trkpt>
      <trkpt lat="48.20146" lon="-2.61778">
        <ele>131.80000305176</ele>
        <time>2021-10-15T12:14:33.000Z</time>
      </trkpt>
      <trkpt lat="48.2015" lon="-2.61783">
        <ele>131.60000610352</ele>
        <time>2021-10-15T12:14:34.000Z</time>
      </trkpt>
      <trkpt lat="48.20154" lon="-2.61788">
        <ele>131.19999694824</ele>
        <time>2021-10-15T12:14:35.000Z</time>
      </trkpt>
      <trkpt lat="48.20158" lon="-2.61793">
        <ele>131.39999389648</ele>
        <time>2021-10-15T12:14:36.000Z</time>
      </trkpt>
      <trkpt lat="48.20162" lon="-2.61797">
        <ele>131.60000610352</ele>
        <time>2021-10-15T12:14:37.000Z</time>
      </trkpt>
      <trkpt lat="48.20166" lon="-2.61802">
        <ele>131.80000305176</ele>
        <time>2021-10-15T12:14:38.000Z</time>
      </trkpt>
      <trkpt lat="48.20169" lon="-2.61807">
        <ele>132</ele>
        <time>2021-10-15T12:14:39.000Z</time>
      </trkpt>
      <trkpt lat="48.20173" lon="-2.61812">
        <ele>132</ele>
        <time>2021-10-15T12:14:40.000Z</time>
      </trkpt>
      <trkpt lat="48.20176" lon="-2.61817">
        <ele>132</ele>
        <time>2021-10-15T12:14:41.000Z</time>
      </trkpt>
      <trkpt lat="48.20179" lon="-2.61822">
        <ele>132</ele>
        <time>2021-10-15T12:14:42.000Z</time>
      </trkpt>
      <trkpt lat="48.20182" lon="-2.61827">
        <ele>132</ele>
        <time>2021-10-15T12:14:43.000Z</time>
      </trkpt>
      <trkpt lat="48.20184" lon="-2.61832">
        <ele>132</ele>
        <time>2021-10-15T12:14:44.000Z</time>
      </trkpt>
      <trkpt lat="48.20187" lon="-2.61837">
        <ele>132</ele>
        <time>2021-10-15T12:14:45.000Z</time>
      </trkpt>
      <trkpt lat="48.20189" lon="-2.61842">
        <ele>131.80000305176</ele>
        <time>2021-10-15T12:14:46.000Z</time>
      </trkpt>
      <trkpt lat="48.2019" lon="-2.61847">
        <ele>131.60000610352</ele>
        <time>2021-10-15T12:14:47.000Z</time>
      </trkpt>
      <trkpt lat="48.20192" lon="-2.61852">
        <ele>131.39999389648</ele>
        <time>2021-10-15T12:14:48.000Z</time>
      </trkpt>
      <trkpt lat="48.20193" lon="-2.61857">
        <ele>131.19999694824</ele>
        <time>2021-10-15T12:14:49.000Z</time>
      </trkpt>
      <trkpt lat="48.20194" lon="-2.61862">
        <ele>131.19999694824</ele>
        <time>2021-10-15T12:14:50.000Z</time>
      </trkpt>
      <trkpt lat="48.20196" lon="-2.61865">
        <ele>131.19999694824</ele>
        <time>2021-10-15T12:14:51.000Z</time>
      </trkpt>
      <trkpt lat="48.20199" lon="-2.6187">
        <ele>131.19999694824</ele>
        <time>2021-10-15T12:14:52.000Z</time>
      </trkpt>
      <trkpt lat="48.20199" lon="-2.6187">
        <ele>131.19999694824</ele>
        <time>2021-10-15T12:14:53.000Z</time>
      </trkpt>
      <trkpt lat="48.20202" lon="-2.61871">
        <ele>131.39999389648</ele>
        <time>2021-10-15T12:14:54.000Z</time>
      </trkpt>
      <trkpt lat="48.20204" lon="-2.61872">
        <ele>131.39999389648</ele>
        <time>2021-10-15T12:14:55.000Z</time>
      </trkpt>
      <trkpt lat="48.20206" lon="-2.61871">
        <ele>131.39999389648</ele>
        <time>2021-10-15T12:14:56.000Z</time>
      </trkpt>
      <trkpt lat="48.20209" lon="-2.6187">
        <ele>131.60000610352</ele>
        <time>2021-10-15T12:14:57.000Z</time>
      </trkpt>
      <trkpt lat="48.20211" lon="-2.61869">
        <ele>131.80000305176</ele>
        <time>2021-10-15T12:14:58.000Z</time>
      </trkpt>
      <trkpt lat="48.20214" lon="-2.61868">
        <ele>131.80000305176</ele>
        <time>2021-10-15T12:14:59.000Z</time>
      </trkpt>
      <trkpt lat="48.20216" lon="-2.61867">
        <ele>131.80000305176</ele>
        <time>2021-10-15T12:15:00.000Z</time>
      </trkpt>
      <trkpt lat="48.20218" lon="-2.61866">
        <ele>132</ele>
        <time>2021-10-15T12:15:01.000Z</time>
      </trkpt>
      <trkpt lat="48.20221" lon="-2.61866">
        <ele>132</ele>
        <time>2021-10-15T12:15:02.000Z</time>
      </trkpt>
      <trkpt lat="48.20224" lon="-2.61865">
        <ele>132</ele>
        <time>2021-10-15T12:15:03.000Z</time>
      </trkpt>
      <trkpt lat="48.20226" lon="-2.61863">
        <ele>132</ele>
        <time>2021-10-15T12:15:04.000Z</time>
      </trkpt>
      <trkpt lat="48.20229" lon="-2.61862">
        <ele>132</ele>
        <time>2021-10-15T12:15:05.000Z</time>
      </trkpt>
      <trkpt lat="48.20232" lon="-2.61861">
        <ele>131.80000305176</ele>
        <time>2021-10-15T12:15:06.000Z</time>
      </trkpt>
      <trkpt lat="48.20235" lon="-2.61861">
        <ele>131.80000305176</ele>
        <time>2021-10-15T12:15:07.000Z</time>
      </trkpt>
      <trkpt lat="48.20237" lon="-2.61861">
        <ele>131.80000305176</ele>
        <time>2021-10-15T12:15:08.000Z</time>
      </trkpt>
      <trkpt lat="48.2024" lon="-2.61861">
        <ele>131.80000305176</ele>
        <time>2021-10-15T12:15:09.000Z</time>
      </trkpt>
      <trkpt lat="48.20243" lon="-2.61862">
        <ele>131.80000305176</ele>
        <time>2021-10-15T12:15:10.000Z</time>
      </trkpt>
      <trkpt lat="48.20246" lon="-2.61863">
        <ele>131.80000305176</ele>
        <time>2021-10-15T12:15:11.000Z</time>
      </trkpt>
      <trkpt lat="48.20249" lon="-2.61864">
        <ele>132</ele>
        <time>2021-10-15T12:15:12.000Z</time>
      </trkpt>
      <trkpt lat="48.20252" lon="-2.61866">
        <ele>132</ele>
        <time>2021-10-15T12:15:13.000Z</time>
      </trkpt>
      <trkpt lat="48.20255" lon="-2.61868">
        <ele>132</ele>
        <time>2021-10-15T12:15:14.000Z</time>
      </trkpt>
      <trkpt lat="48.20257" lon="-2.6187">
        <ele>132</ele>
        <time>2021-10-15T12:15:15.000Z</time>
      </trkpt>
      <trkpt lat="48.2026" lon="-2.61872">
        <ele>132</ele>
        <time>2021-10-15T12:15:16.000Z</time>
      </trkpt>
      <trkpt lat="48.20262" lon="-2.61875">
        <ele>132</ele>
        <time>2021-10-15T12:15:17.000Z</time>
      </trkpt>
      <trkpt lat="48.20265" lon="-2.61878">
        <ele>132</ele>
        <time>2021-10-15T12:15:18.000Z</time>
      </trkpt>
      <trkpt lat="48.20268" lon="-2.61881">
        <ele>132</ele>
        <time>2021-10-15T12:15:19.000Z</time>
      </trkpt>
      <trkpt lat="48.20271" lon="-2.61884">
        <ele>132</ele>
        <time>2021-10-15T12:15:20.000Z</time>
      </trkpt>
      <trkpt lat="48.20274" lon="-2.61887">
        <ele>131.60000610352</ele>
        <time>2021-10-15T12:15:21.000Z</time>
      </trkpt>
      <trkpt lat="48.20277" lon="-2.6189">
        <ele>131.60000610352</ele>
        <time>2021-10-15T12:15:22.000Z</time>
      </trkpt>
      <trkpt lat="48.2028" lon="-2.61893">
        <ele>131.60000610352</ele>
        <time>2021-10-15T12:15:23.000Z</time>
      </trkpt>
      <trkpt lat="48.20283" lon="-2.61896">
        <ele>131.39999389648</ele>
        <time>2021-10-15T12:15:24.000Z</time>
      </trkpt>
      <trkpt lat="48.20285" lon="-2.61899">
        <ele>131.19999694824</ele>
        <time>2021-10-15T12:15:25.000Z</time>
      </trkpt>
      <trkpt lat="48.20288" lon="-2.61902">
        <ele>131</ele>
        <time>2021-10-15T12:15:26.000Z</time>
      </trkpt>
      <trkpt lat="48.20291" lon="-2.61906">
        <ele>130.80000305176</ele>
        <time>2021-10-15T12:15:27.000Z</time>
      </trkpt>
      <trkpt lat="48.20294" lon="-2.61909">
        <ele>130.60000610352</ele>
        <time>2021-10-15T12:15:28.000Z</time>
      </trkpt>
      <trkpt lat="48.20297" lon="-2.61913">
        <ele>130.19999694824</ele>
        <time>2021-10-15T12:15:29.000Z</time>
      </trkpt>
      <trkpt lat="48.203" lon="-2.61916">
        <ele>130</ele>
        <time>2021-10-15T12:15:30.000Z</time>
      </trkpt>
      <trkpt lat="48.20304" lon="-2.6192">
        <ele>130</ele>
        <time>2021-10-15T12:15:31.000Z</time>
      </trkpt>
      <trkpt lat="48.20307" lon="-2.61924">
        <ele>130</ele>
        <time>2021-10-15T12:15:32.000Z</time>
      </trkpt>
      <trkpt lat="48.2031" lon="-2.61928">
        <ele>130</ele>
        <time>2021-10-15T12:15:33.000Z</time>
      </trkpt>
      <trkpt lat="48.20314" lon="-2.61932">
        <ele>130</ele>
        <time>2021-10-15T12:15:34.000Z</time>
      </trkpt>
      <trkpt lat="48.20317" lon="-2.61936">
        <ele>130.19999694824</ele>
        <time>2021-10-15T12:15:35.000Z</time>
      </trkpt>
      <trkpt lat="48.2032" lon="-2.61939">
        <ele>130.60000610352</ele>
        <time>2021-10-15T12:15:36.000Z</time>
      </trkpt>
      <trkpt lat="48.20323" lon="-2.61943">
        <ele>130.80000305176</ele>
        <time>2021-10-15T12:15:37.000Z</time>
      </trkpt>
      <trkpt lat="48.20326" lon="-2.61946">
        <ele>130.80000305176</ele>
        <time>2021-10-15T12:15:38.000Z</time>
      </trkpt>
      <trkpt lat="48.20329" lon="-2.61949">
        <ele>130.80000305176</ele>
        <time>2021-10-15T12:15:39.000Z</time>
      </trkpt>
      <trkpt lat="48.20331" lon="-2.61952">
        <ele>130.80000305176</ele>
        <time>2021-10-15T12:15:40.000Z</time>
      </trkpt>
      <trkpt lat="48.20334" lon="-2.61956">
        <ele>130.60000610352</ele>
        <time>2021-10-15T12:15:41.000Z</time>
      </trkpt>
      <trkpt lat="48.20337" lon="-2.61959">
        <ele>130.60000610352</ele>
        <time>2021-10-15T12:15:42.000Z</time>
      </trkpt>
      <trkpt lat="48.2034" lon="-2.61963">
        <ele>130.60000610352</ele>
        <time>2021-10-15T12:15:43.000Z</time>
      </trkpt>
      <trkpt lat="48.20342" lon="-2.61966">
        <ele>130.60000610352</ele>
        <time>2021-10-15T12:15:44.000Z</time>
      </trkpt>
      <trkpt lat="48.20345" lon="-2.61969">
        <ele>130.80000305176</ele>
        <time>2021-10-15T12:15:45.000Z</time>
      </trkpt>
      <trkpt lat="48.20348" lon="-2.61973">
        <ele>131</ele>
        <time>2021-10-15T12:15:46.000Z</time>
      </trkpt>
      <trkpt lat="48.2035" lon="-2.61976">
        <ele>131</ele>
        <time>2021-10-15T12:15:47.000Z</time>
      </trkpt>
      <trkpt lat="48.20353" lon="-2.6198">
        <ele>131</ele>
        <time>2021-10-15T12:15:48.000Z</time>
      </trkpt>
      <trkpt lat="48.20356" lon="-2.61983">
        <ele>130.60000610352</ele>
        <time>2021-10-15T12:15:49.000Z</time>
      </trkpt>
      <trkpt lat="48.20359" lon="-2.61986">
        <ele>130.39999389648</ele>
        <time>2021-10-15T12:15:50.000Z</time>
      </trkpt>
      <trkpt lat="48.20362" lon="-2.6199">
        <ele>130</ele>
        <time>2021-10-15T12:15:51.000Z</time>
      </trkpt>
      <trkpt lat="48.20365" lon="-2.61993">
        <ele>129.80000305176</ele>
        <time>2021-10-15T12:15:52.000Z</time>
      </trkpt>
      <trkpt lat="48.20367" lon="-2.61997">
        <ele>129.80000305176</ele>
        <time>2021-10-15T12:15:53.000Z</time>
      </trkpt>
      <trkpt lat="48.2037" lon="-2.62">
        <ele>129.60000610352</ele>
        <time>2021-10-15T12:15:54.000Z</time>
      </trkpt>
      <trkpt lat="48.20373" lon="-2.62003">
        <ele>129.60000610352</ele>
        <time>2021-10-15T12:15:55.000Z</time>
      </trkpt>
      <trkpt lat="48.20376" lon="-2.62006">
        <ele>129.39999389648</ele>
        <time>2021-10-15T12:15:56.000Z</time>
      </trkpt>
      <trkpt lat="48.20379" lon="-2.62009">
        <ele>129.19999694824</ele>
        <time>2021-10-15T12:15:57.000Z</time>
      </trkpt>
      <trkpt lat="48.20382" lon="-2.62013">
        <ele>128.80000305176</ele>
        <time>2021-10-15T12:15:58.000Z</time>
      </trkpt>
      <trkpt lat="48.20385" lon="-2.62016">
        <ele>128.19999694824</ele>
        <time>2021-10-15T12:15:59.000Z</time>
      </trkpt>
      <trkpt lat="48.20388" lon="-2.62019">
        <ele>127.80000305176</ele>
        <time>2021-10-15T12:16:00.000Z</time>
      </trkpt>
      <trkpt lat="48.2039" lon="-2.62022">
        <ele>127.19999694824</ele>
        <time>2021-10-15T12:16:01.000Z</time>
      </trkpt>
      <trkpt lat="48.20393" lon="-2.62025">
        <ele>127.19999694824</ele>
        <time>2021-10-15T12:16:02.000Z</time>
      </trkpt>
      <trkpt lat="48.20396" lon="-2.62028">
        <ele>127.19999694824</ele>
        <time>2021-10-15T12:16:03.000Z</time>
      </trkpt>
      <trkpt lat="48.20399" lon="-2.62031">
        <ele>127</ele>
        <time>2021-10-15T12:16:04.000Z</time>
      </trkpt>
      <trkpt lat="48.20402" lon="-2.62034">
        <ele>126.59999847412</ele>
        <time>2021-10-15T12:16:05.000Z</time>
      </trkpt>
      <trkpt lat="48.20405" lon="-2.62038">
        <ele>126.40000152588</ele>
        <time>2021-10-15T12:16:06.000Z</time>
      </trkpt>
      <trkpt lat="48.20408" lon="-2.62041">
        <ele>126</ele>
        <time>2021-10-15T12:16:07.000Z</time>
      </trkpt>
      <trkpt lat="48.20411" lon="-2.62044">
        <ele>125.40000152588</ele>
        <time>2021-10-15T12:16:08.000Z</time>
      </trkpt>
      <trkpt lat="48.20414" lon="-2.62047">
        <ele>124.80000305176</ele>
        <time>2021-10-15T12:16:09.000Z</time>
      </trkpt>
      <trkpt lat="48.20417" lon="-2.62051">
        <ele>124.19999694824</ele>
        <time>2021-10-15T12:16:10.000Z</time>
      </trkpt>
      <trkpt lat="48.20419" lon="-2.62055">
        <ele>124.19999694824</ele>
        <time>2021-10-15T12:16:11.000Z</time>
      </trkpt>
      <trkpt lat="48.20422" lon="-2.62059">
        <ele>124</ele>
        <time>2021-10-15T12:16:12.000Z</time>
      </trkpt>
      <trkpt lat="48.20424" lon="-2.62063">
        <ele>123.80000305176</ele>
        <time>2021-10-15T12:16:13.000Z</time>
      </trkpt>
      <trkpt lat="48.20427" lon="-2.62067">
        <ele>123.59999847412</ele>
        <time>2021-10-15T12:16:14.000Z</time>
      </trkpt>
      <trkpt lat="48.20429" lon="-2.62071">
        <ele>123.40000152588</ele>
        <time>2021-10-15T12:16:15.000Z</time>
      </trkpt>
      <trkpt lat="48.20432" lon="-2.62075">
        <ele>123.19999694824</ele>
        <time>2021-10-15T12:16:16.000Z</time>
      </trkpt>
      <trkpt lat="48.20434" lon="-2.6208">
        <ele>123</ele>
        <time>2021-10-15T12:16:17.000Z</time>
      </trkpt>
      <trkpt lat="48.20436" lon="-2.62084">
        <ele>122.80000305176</ele>
        <time>2021-10-15T12:16:18.000Z</time>
      </trkpt>
      <trkpt lat="48.20438" lon="-2.62088">
        <ele>122.59999847412</ele>
        <time>2021-10-15T12:16:19.000Z</time>
      </trkpt>
      <trkpt lat="48.20441" lon="-2.62092">
        <ele>122.40000152588</ele>
        <time>2021-10-15T12:16:20.000Z</time>
      </trkpt>
      <trkpt lat="48.20443" lon="-2.62096">
        <ele>122.19999694824</ele>
        <time>2021-10-15T12:16:21.000Z</time>
      </trkpt>
      <trkpt lat="48.20445" lon="-2.62099">
        <ele>122</ele>
        <time>2021-10-15T12:16:22.000Z</time>
      </trkpt>
      <trkpt lat="48.20446" lon="-2.62102">
        <ele>121.80000305176</ele>
        <time>2021-10-15T12:16:23.000Z</time>
      </trkpt>
      <trkpt lat="48.20448" lon="-2.62105">
        <ele>121.59999847412</ele>
        <time>2021-10-15T12:16:24.000Z</time>
      </trkpt>
      <trkpt lat="48.20451" lon="-2.62108">
        <ele>121.40000152588</ele>
        <time>2021-10-15T12:16:25.000Z</time>
      </trkpt>
      <trkpt lat="48.20453" lon="-2.62112">
        <ele>121.40000152588</ele>
        <time>2021-10-15T12:16:26.000Z</time>
      </trkpt>
      <trkpt lat="48.20454" lon="-2.62116">
        <ele>121.19999694824</ele>
        <time>2021-10-15T12:16:27.000Z</time>
      </trkpt>
      <trkpt lat="48.20456" lon="-2.6212">
        <ele>120.80000305176</ele>
        <time>2021-10-15T12:16:28.000Z</time>
      </trkpt>
      <trkpt lat="48.20458" lon="-2.62123">
        <ele>120.80000305176</ele>
        <time>2021-10-15T12:16:29.000Z</time>
      </trkpt>
      <trkpt lat="48.20459" lon="-2.62127">
        <ele>121</ele>
        <time>2021-10-15T12:16:30.000Z</time>
      </trkpt>
      <trkpt lat="48.20461" lon="-2.62131">
        <ele>121.19999694824</ele>
        <time>2021-10-15T12:16:31.000Z</time>
      </trkpt>
      <trkpt lat="48.20462" lon="-2.62135">
        <ele>121.40000152588</ele>
        <time>2021-10-15T12:16:32.000Z</time>
      </trkpt>
      <trkpt lat="48.20464" lon="-2.62139">
        <ele>121.59999847412</ele>
        <time>2021-10-15T12:16:33.000Z</time>
      </trkpt>
      <trkpt lat="48.20466" lon="-2.62142">
        <ele>121.59999847412</ele>
        <time>2021-10-15T12:16:34.000Z</time>
      </trkpt>
      <trkpt lat="48.20468" lon="-2.62145">
        <ele>121.40000152588</ele>
        <time>2021-10-15T12:16:35.000Z</time>
      </trkpt>
      <trkpt lat="48.2047" lon="-2.62149">
        <ele>121.19999694824</ele>
        <time>2021-10-15T12:16:36.000Z</time>
      </trkpt>
      <trkpt lat="48.20472" lon="-2.62152">
        <ele>121</ele>
        <time>2021-10-15T12:16:37.000Z</time>
      </trkpt>
      <trkpt lat="48.20474" lon="-2.62156">
        <ele>120.80000305176</ele>
        <time>2021-10-15T12:16:38.000Z</time>
      </trkpt>
      <trkpt lat="48.20477" lon="-2.62159">
        <ele>120.59999847412</ele>
        <time>2021-10-15T12:16:39.000Z</time>
      </trkpt>
      <trkpt lat="48.20479" lon="-2.62163">
        <ele>120.59999847412</ele>
        <time>2021-10-15T12:16:40.000Z</time>
      </trkpt>
      <trkpt lat="48.20481" lon="-2.62167">
        <ele>120.59999847412</ele>
        <time>2021-10-15T12:16:41.000Z</time>
      </trkpt>
      <trkpt lat="48.20483" lon="-2.62171">
        <ele>120.59999847412</ele>
        <time>2021-10-15T12:16:42.000Z</time>
      </trkpt>
      <trkpt lat="48.20485" lon="-2.62173">
        <ele>120.19999694824</ele>
        <time>2021-10-15T12:16:43.000Z</time>
      </trkpt>
      <trkpt lat="48.20486" lon="-2.62177">
        <ele>120</ele>
        <time>2021-10-15T12:16:44.000Z</time>
      </trkpt>
      <trkpt lat="48.20487" lon="-2.6218">
        <ele>120.19999694824</ele>
        <time>2021-10-15T12:16:45.000Z</time>
      </trkpt>
      <trkpt lat="48.20489" lon="-2.62182">
        <ele>120.19999694824</ele>
        <time>2021-10-15T12:16:46.000Z</time>
      </trkpt>
      <trkpt lat="48.2049" lon="-2.62185">
        <ele>120.19999694824</ele>
        <time>2021-10-15T12:16:47.000Z</time>
      </trkpt>
      <trkpt lat="48.20492" lon="-2.62191">
        <ele>120.40000152588</ele>
        <time>2021-10-15T12:16:48.000Z</time>
      </trkpt>
      <trkpt lat="48.20493" lon="-2.62194">
        <ele>120.40000152588</ele>
        <time>2021-10-15T12:16:49.000Z</time>
      </trkpt>
      <trkpt lat="48.20495" lon="-2.62197">
        <ele>120.40000152588</ele>
        <time>2021-10-15T12:16:50.000Z</time>
      </trkpt>
      <trkpt lat="48.20496" lon="-2.622">
        <ele>120.19999694824</ele>
        <time>2021-10-15T12:16:51.000Z</time>
      </trkpt>
      <trkpt lat="48.20499" lon="-2.62207">
        <ele>119.59999847412</ele>
        <time>2021-10-15T12:16:52.000Z</time>
      </trkpt>
      <trkpt lat="48.20499" lon="-2.62207">
        <ele>119.59999847412</ele>
        <time>2021-10-15T12:16:53.000Z</time>
      </trkpt>
      <trkpt lat="48.20501" lon="-2.6221">
        <ele>119.40000152588</ele>
        <time>2021-10-15T12:16:54.000Z</time>
      </trkpt>
      <trkpt lat="48.20503" lon="-2.62213">
        <ele>119</ele>
        <time>2021-10-15T12:16:55.000Z</time>
      </trkpt>
      <trkpt lat="48.20505" lon="-2.62218">
        <ele>118.80000305176</ele>
        <time>2021-10-15T12:16:56.000Z</time>
      </trkpt>
      <trkpt lat="48.20508" lon="-2.62221">
        <ele>118.59999847412</ele>
        <time>2021-10-15T12:16:57.000Z</time>
      </trkpt>
      <trkpt lat="48.20511" lon="-2.62223">
        <ele>118.19999694824</ele>
        <time>2021-10-15T12:16:58.000Z</time>
      </trkpt>
      <trkpt lat="48.20513" lon="-2.62226">
        <ele>118</ele>
        <time>2021-10-15T12:16:59.000Z</time>
      </trkpt>
      <trkpt lat="48.20516" lon="-2.62229">
        <ele>117.40000152588</ele>
        <time>2021-10-15T12:17:00.000Z</time>
      </trkpt>
      <trkpt lat="48.20519" lon="-2.62232">
        <ele>117.40000152588</ele>
        <time>2021-10-15T12:17:01.000Z</time>
      </trkpt>
      <trkpt lat="48.20521" lon="-2.62235">
        <ele>117.19999694824</ele>
        <time>2021-10-15T12:17:02.000Z</time>
      </trkpt>
      <trkpt lat="48.20523" lon="-2.62237">
        <ele>117</ele>
        <time>2021-10-15T12:17:03.000Z</time>
      </trkpt>
      <trkpt lat="48.20525" lon="-2.6224">
        <ele>116.80000305176</ele>
        <time>2021-10-15T12:17:04.000Z</time>
      </trkpt>
      <trkpt lat="48.20527" lon="-2.62243">
        <ele>116.59999847412</ele>
        <time>2021-10-15T12:17:05.000Z</time>
      </trkpt>
      <trkpt lat="48.2053" lon="-2.62246">
        <ele>116.40000152588</ele>
        <time>2021-10-15T12:17:06.000Z</time>
      </trkpt>
      <trkpt lat="48.20532" lon="-2.62249">
        <ele>116.40000152588</ele>
        <time>2021-10-15T12:17:07.000Z</time>
      </trkpt>
      <trkpt lat="48.20535" lon="-2.62253">
        <ele>116.40000152588</ele>
        <time>2021-10-15T12:17:08.000Z</time>
      </trkpt>
      <trkpt lat="48.20536" lon="-2.62256">
        <ele>116.19999694824</ele>
        <time>2021-10-15T12:17:09.000Z</time>
      </trkpt>
      <trkpt lat="48.20538" lon="-2.62259">
        <ele>116</ele>
        <time>2021-10-15T12:17:10.000Z</time>
      </trkpt>
      <trkpt lat="48.2054" lon="-2.62263">
        <ele>115.80000305176</ele>
        <time>2021-10-15T12:17:11.000Z</time>
      </trkpt>
      <trkpt lat="48.20542" lon="-2.62266">
        <ele>115.80000305176</ele>
        <time>2021-10-15T12:17:12.000Z</time>
      </trkpt>
      <trkpt lat="48.20544" lon="-2.62269">
        <ele>115.80000305176</ele>
        <time>2021-10-15T12:17:13.000Z</time>
      </trkpt>
      <trkpt lat="48.20548" lon="-2.62273">
        <ele>115.59999847412</ele>
        <time>2021-10-15T12:17:14.000Z</time>
      </trkpt>
      <trkpt lat="48.2055" lon="-2.62275">
        <ele>115.40000152588</ele>
        <time>2021-10-15T12:17:15.000Z</time>
      </trkpt>
      <trkpt lat="48.20552" lon="-2.62277">
        <ele>115</ele>
        <time>2021-10-15T12:17:16.000Z</time>
      </trkpt>
      <trkpt lat="48.20553" lon="-2.62279">
        <ele>114.80000305176</ele>
        <time>2021-10-15T12:17:17.000Z</time>
      </trkpt>
      <trkpt lat="48.20556" lon="-2.62283">
        <ele>114.19999694824</ele>
        <time>2021-10-15T12:17:18.000Z</time>
      </trkpt>
      <trkpt lat="48.20558" lon="-2.62287">
        <ele>113.59999847412</ele>
        <time>2021-10-15T12:17:19.000Z</time>
      </trkpt>
      <trkpt lat="48.20561" lon="-2.62292">
        <ele>113</ele>
        <time>2021-10-15T12:17:20.000Z</time>
      </trkpt>
      <trkpt lat="48.20563" lon="-2.62296">
        <ele>112.40000152588</ele>
        <time>2021-10-15T12:17:21.000Z</time>
      </trkpt>
      <trkpt lat="48.20566" lon="-2.62299">
        <ele>111.80000305176</ele>
        <time>2021-10-15T12:17:22.000Z</time>
      </trkpt>
      <trkpt lat="48.20567" lon="-2.62301">
        <ele>111.19999694824</ele>
        <time>2021-10-15T12:17:23.000Z</time>
      </trkpt>
      <trkpt lat="48.20569" lon="-2.62304">
        <ele>110.80000305176</ele>
        <time>2021-10-15T12:17:24.000Z</time>
      </trkpt>
      <trkpt lat="48.20571" lon="-2.62308">
        <ele>110</ele>
        <time>2021-10-15T12:17:25.000Z</time>
      </trkpt>
      <trkpt lat="48.20573" lon="-2.62312">
        <ele>109.40000152588</ele>
        <time>2021-10-15T12:17:26.000Z</time>
      </trkpt>
      <trkpt lat="48.20574" lon="-2.62315">
        <ele>108.80000305176</ele>
        <time>2021-10-15T12:17:27.000Z</time>
      </trkpt>
      <trkpt lat="48.20576" lon="-2.62318">
        <ele>108.19999694824</ele>
        <time>2021-10-15T12:17:28.000Z</time>
      </trkpt>
      <trkpt lat="48.20579" lon="-2.6232">
        <ele>107.59999847412</ele>
        <time>2021-10-15T12:17:29.000Z</time>
      </trkpt>
      <trkpt lat="48.20581" lon="-2.62323">
        <ele>107</ele>
        <time>2021-10-15T12:17:30.000Z</time>
      </trkpt>
      <trkpt lat="48.20582" lon="-2.62325">
        <ele>106.59999847412</ele>
        <time>2021-10-15T12:17:31.000Z</time>
      </trkpt>
      <trkpt lat="48.20585" lon="-2.62329">
        <ele>105.80000305176</ele>
        <time>2021-10-15T12:17:32.000Z</time>
      </trkpt>
      <trkpt lat="48.20587" lon="-2.62332">
        <ele>105.40000152588</ele>
        <time>2021-10-15T12:17:33.000Z</time>
      </trkpt>
      <trkpt lat="48.20589" lon="-2.62334">
        <ele>104.80000305176</ele>
        <time>2021-10-15T12:17:34.000Z</time>
      </trkpt>
      <trkpt lat="48.2059" lon="-2.62336">
        <ele>104.40000152588</ele>
        <time>2021-10-15T12:17:35.000Z</time>
      </trkpt>
      <trkpt lat="48.20592" lon="-2.62339">
        <ele>104</ele>
        <time>2021-10-15T12:17:36.000Z</time>
      </trkpt>
      <trkpt lat="48.20594" lon="-2.62341">
        <ele>103.40000152588</ele>
        <time>2021-10-15T12:17:37.000Z</time>
      </trkpt>
      <trkpt lat="48.20596" lon="-2.62344">
        <ele>103</ele>
        <time>2021-10-15T12:17:38.000Z</time>
      </trkpt>
      <trkpt lat="48.20597" lon="-2.62346">
        <ele>102.59999847412</ele>
        <time>2021-10-15T12:17:39.000Z</time>
      </trkpt>
      <trkpt lat="48.20598" lon="-2.62348">
        <ele>102.40000152588</ele>
        <time>2021-10-15T12:17:40.000Z</time>
      </trkpt>
      <trkpt lat="48.20599" lon="-2.6235">
        <ele>102.19999694824</ele>
        <time>2021-10-15T12:17:41.000Z</time>
      </trkpt>
      <trkpt lat="48.20599" lon="-2.62353">
        <ele>102.19999694824</ele>
        <time>2021-10-15T12:17:42.000Z</time>
      </trkpt>
      <trkpt lat="48.20599" lon="-2.62356">
        <ele>102</ele>
        <time>2021-10-15T12:17:43.000Z</time>
      </trkpt>
      <trkpt lat="48.20599" lon="-2.62358">
        <ele>102</ele>
        <time>2021-10-15T12:17:44.000Z</time>
      </trkpt>
      <trkpt lat="48.20598" lon="-2.62362">
        <ele>102</ele>
        <time>2021-10-15T12:17:45.000Z</time>
      </trkpt>
      <trkpt lat="48.20598" lon="-2.62365">
        <ele>101.80000305176</ele>
        <time>2021-10-15T12:17:46.000Z</time>
      </trkpt>
      <trkpt lat="48.20598" lon="-2.62368">
        <ele>101.59999847412</ele>
        <time>2021-10-15T12:17:47.000Z</time>
      </trkpt>
      <trkpt lat="48.20598" lon="-2.62372">
        <ele>101.59999847412</ele>
        <time>2021-10-15T12:17:48.000Z</time>
      </trkpt>
      <trkpt lat="48.20598" lon="-2.62375">
        <ele>101.59999847412</ele>
        <time>2021-10-15T12:17:49.000Z</time>
      </trkpt>
      <trkpt lat="48.20598" lon="-2.62378">
        <ele>101.59999847412</ele>
        <time>2021-10-15T12:17:50.000Z</time>
      </trkpt>
      <trkpt lat="48.20598" lon="-2.62381">
        <ele>101.59999847412</ele>
        <time>2021-10-15T12:17:51.000Z</time>
      </trkpt>
      <trkpt lat="48.20598" lon="-2.62385">
        <ele>101.59999847412</ele>
        <time>2021-10-15T12:17:52.000Z</time>
      </trkpt>
      <trkpt lat="48.20597" lon="-2.62388">
        <ele>101.59999847412</ele>
        <time>2021-10-15T12:17:53.000Z</time>
      </trkpt>
      <trkpt lat="48.20597" lon="-2.62391">
        <ele>101.59999847412</ele>
        <time>2021-10-15T12:17:54.000Z</time>
      </trkpt>
      <trkpt lat="48.20597" lon="-2.62394">
        <ele>101.40000152588</ele>
        <time>2021-10-15T12:17:55.000Z</time>
      </trkpt>
      <trkpt lat="48.20597" lon="-2.62398">
        <ele>101.19999694824</ele>
        <time>2021-10-15T12:17:56.000Z</time>
      </trkpt>
      <trkpt lat="48.20596" lon="-2.62402">
        <ele>101.19999694824</ele>
        <time>2021-10-15T12:17:57.000Z</time>
      </trkpt>
      <trkpt lat="48.20596" lon="-2.62406">
        <ele>101</ele>
        <time>2021-10-15T12:17:58.000Z</time>
      </trkpt>
      <trkpt lat="48.20596" lon="-2.6241">
        <ele>100.80000305176</ele>
        <time>2021-10-15T12:17:59.000Z</time>
      </trkpt>
      <trkpt lat="48.20597" lon="-2.62414">
        <ele>100.59999847412</ele>
        <time>2021-10-15T12:18:00.000Z</time>
      </trkpt>
      <trkpt lat="48.20599" lon="-2.62417">
        <ele>100.40000152588</ele>
        <time>2021-10-15T12:18:01.000Z</time>
      </trkpt>
      <trkpt lat="48.206" lon="-2.62421">
        <ele>100.19999694824</ele>
        <time>2021-10-15T12:18:02.000Z</time>
      </trkpt>
      <trkpt lat="48.20601" lon="-2.62424">
        <ele>99.800003051758</ele>
        <time>2021-10-15T12:18:03.000Z</time>
      </trkpt>
      <trkpt lat="48.20602" lon="-2.62426">
        <ele>99.599998474121</ele>
        <time>2021-10-15T12:18:04.000Z</time>
      </trkpt>
      <trkpt lat="48.20604" lon="-2.62428">
        <ele>99.400001525879</ele>
        <time>2021-10-15T12:18:05.000Z</time>
      </trkpt>
      <trkpt lat="48.20606" lon="-2.62431">
        <ele>99.199996948242</ele>
        <time>2021-10-15T12:18:06.000Z</time>
      </trkpt>
      <trkpt lat="48.20607" lon="-2.62433">
        <ele>99</ele>
        <time>2021-10-15T12:18:07.000Z</time>
      </trkpt>
      <trkpt lat="48.20609" lon="-2.62435">
        <ele>98.800003051758</ele>
        <time>2021-10-15T12:18:08.000Z</time>
      </trkpt>
      <trkpt lat="48.2061" lon="-2.62436">
        <ele>98.599998474121</ele>
        <time>2021-10-15T12:18:09.000Z</time>
      </trkpt>
      <trkpt lat="48.20612" lon="-2.62437">
        <ele>98.400001525879</ele>
        <time>2021-10-15T12:18:10.000Z</time>
      </trkpt>
      <trkpt lat="48.20614" lon="-2.62438">
        <ele>98.400001525879</ele>
        <time>2021-10-15T12:18:11.000Z</time>
      </trkpt>
      <trkpt lat="48.20616" lon="-2.62439">
        <ele>98.400001525879</ele>
        <time>2021-10-15T12:18:12.000Z</time>
      </trkpt>
      <trkpt lat="48.20618" lon="-2.62439">
        <ele>98.400001525879</ele>
        <time>2021-10-15T12:18:13.000Z</time>
      </trkpt>
      <trkpt lat="48.2062" lon="-2.62439">
        <ele>98.400001525879</ele>
        <time>2021-10-15T12:18:14.000Z</time>
      </trkpt>
      <trkpt lat="48.20623" lon="-2.62438">
        <ele>98.400001525879</ele>
        <time>2021-10-15T12:18:15.000Z</time>
      </trkpt>
      <trkpt lat="48.20625" lon="-2.62437">
        <ele>98.400001525879</ele>
        <time>2021-10-15T12:18:16.000Z</time>
      </trkpt>
      <trkpt lat="48.20628" lon="-2.62436">
        <ele>98.400001525879</ele>
        <time>2021-10-15T12:18:17.000Z</time>
      </trkpt>
      <trkpt lat="48.2063" lon="-2.62434">
        <ele>98.599998474121</ele>
        <time>2021-10-15T12:18:18.000Z</time>
      </trkpt>
      <trkpt lat="48.20633" lon="-2.62432">
        <ele>98.599998474121</ele>
        <time>2021-10-15T12:18:19.000Z</time>
      </trkpt>
      <trkpt lat="48.20636" lon="-2.6243">
        <ele>98.400001525879</ele>
        <time>2021-10-15T12:18:20.000Z</time>
      </trkpt>
      <trkpt lat="48.20639" lon="-2.62428">
        <ele>98.400001525879</ele>
        <time>2021-10-15T12:18:21.000Z</time>
      </trkpt>
      <trkpt lat="48.20642" lon="-2.62427">
        <ele>98.400001525879</ele>
        <time>2021-10-15T12:18:22.000Z</time>
      </trkpt>
      <trkpt lat="48.20645" lon="-2.62425">
        <ele>98.199996948242</ele>
        <time>2021-10-15T12:18:23.000Z</time>
      </trkpt>
      <trkpt lat="48.20649" lon="-2.62424">
        <ele>98.199996948242</ele>
        <time>2021-10-15T12:18:24.000Z</time>
      </trkpt>
      <trkpt lat="48.20652" lon="-2.62422">
        <ele>98.199996948242</ele>
        <time>2021-10-15T12:18:25.000Z</time>
      </trkpt>
      <trkpt lat="48.20655" lon="-2.6242">
        <ele>98.199996948242</ele>
        <time>2021-10-15T12:18:26.000Z</time>
      </trkpt>
      <trkpt lat="48.20658" lon="-2.62418">
        <ele>98.199996948242</ele>
        <time>2021-10-15T12:18:27.000Z</time>
      </trkpt>
      <trkpt lat="48.20661" lon="-2.62416">
        <ele>98.400001525879</ele>
        <time>2021-10-15T12:18:28.000Z</time>
      </trkpt>
      <trkpt lat="48.20664" lon="-2.62413">
        <ele>98.400001525879</ele>
        <time>2021-10-15T12:18:29.000Z</time>
      </trkpt>
      <trkpt lat="48.20667" lon="-2.6241">
        <ele>98.599998474121</ele>
        <time>2021-10-15T12:18:30.000Z</time>
      </trkpt>
      <trkpt lat="48.2067" lon="-2.62407">
        <ele>99</ele>
        <time>2021-10-15T12:18:31.000Z</time>
      </trkpt>
      <trkpt lat="48.20672" lon="-2.62403">
        <ele>99.199996948242</ele>
        <time>2021-10-15T12:18:32.000Z</time>
      </trkpt>
      <trkpt lat="48.20674" lon="-2.62399">
        <ele>99.599998474121</ele>
        <time>2021-10-15T12:18:33.000Z</time>
      </trkpt>
      <trkpt lat="48.20675" lon="-2.62395">
        <ele>99.800003051758</ele>
        <time>2021-10-15T12:18:34.000Z</time>
      </trkpt>
      <trkpt lat="48.20676" lon="-2.6239">
        <ele>100.19999694824</ele>
        <time>2021-10-15T12:18:35.000Z</time>
      </trkpt>
      <trkpt lat="48.20677" lon="-2.62386">
        <ele>100.59999847412</ele>
        <time>2021-10-15T12:18:36.000Z</time>
      </trkpt>
      <trkpt lat="48.20677" lon="-2.62382">
        <ele>101.19999694824</ele>
        <time>2021-10-15T12:18:37.000Z</time>
      </trkpt>
      <trkpt lat="48.20677" lon="-2.62378">
        <ele>101.59999847412</ele>
        <time>2021-10-15T12:18:38.000Z</time>
      </trkpt>
      <trkpt lat="48.20676" lon="-2.62374">
        <ele>102</ele>
        <time>2021-10-15T12:18:39.000Z</time>
      </trkpt>
      <trkpt lat="48.20675" lon="-2.6237">
        <ele>102</ele>
        <time>2021-10-15T12:18:40.000Z</time>
      </trkpt>
      <trkpt lat="48.20674" lon="-2.62367">
        <ele>102</ele>
        <time>2021-10-15T12:18:41.000Z</time>
      </trkpt>
      <trkpt lat="48.20673" lon="-2.62363">
        <ele>102.19999694824</ele>
        <time>2021-10-15T12:18:42.000Z</time>
      </trkpt>
      <trkpt lat="48.20672" lon="-2.6236">
        <ele>102.40000152588</ele>
        <time>2021-10-15T12:18:43.000Z</time>
      </trkpt>
      <trkpt lat="48.2067" lon="-2.62356">
        <ele>102.80000305176</ele>
        <time>2021-10-15T12:18:44.000Z</time>
      </trkpt>
      <trkpt lat="48.20669" lon="-2.62353">
        <ele>103</ele>
        <time>2021-10-15T12:18:45.000Z</time>
      </trkpt>
      <trkpt lat="48.20668" lon="-2.62349">
        <ele>103</ele>
        <time>2021-10-15T12:18:46.000Z</time>
      </trkpt>
      <trkpt lat="48.20666" lon="-2.62346">
        <ele>103.19999694824</ele>
        <time>2021-10-15T12:18:47.000Z</time>
      </trkpt>
      <trkpt lat="48.20665" lon="-2.62342">
        <ele>103.40000152588</ele>
        <time>2021-10-15T12:18:48.000Z</time>
      </trkpt>
      <trkpt lat="48.20664" lon="-2.62339">
        <ele>103.40000152588</ele>
        <time>2021-10-15T12:18:49.000Z</time>
      </trkpt>
      <trkpt lat="48.20662" lon="-2.62335">
        <ele>103.59999847412</ele>
        <time>2021-10-15T12:18:50.000Z</time>
      </trkpt>
      <trkpt lat="48.20661" lon="-2.62331">
        <ele>103.80000305176</ele>
        <time>2021-10-15T12:18:51.000Z</time>
      </trkpt>
      <trkpt lat="48.20659" lon="-2.62323">
        <ele>104.59999847412</ele>
        <time>2021-10-15T12:18:52.000Z</time>
      </trkpt>
      <trkpt lat="48.20659" lon="-2.62318">
        <ele>105</ele>
        <time>2021-10-15T12:18:53.000Z</time>
      </trkpt>
      <trkpt lat="48.20659" lon="-2.62318">
        <ele>105</ele>
        <time>2021-10-15T12:18:54.000Z</time>
      </trkpt>
      <trkpt lat="48.20658" lon="-2.62314">
        <ele>105.40000152588</ele>
        <time>2021-10-15T12:18:55.000Z</time>
      </trkpt>
      <trkpt lat="48.20657" lon="-2.6231">
        <ele>105.80000305176</ele>
        <time>2021-10-15T12:18:56.000Z</time>
      </trkpt>
      <trkpt lat="48.20657" lon="-2.62306">
        <ele>106.19999694824</ele>
        <time>2021-10-15T12:18:57.000Z</time>
      </trkpt>
      <trkpt lat="48.20657" lon="-2.62301">
        <ele>107</ele>
        <time>2021-10-15T12:18:58.000Z</time>
      </trkpt>
      <trkpt lat="48.20657" lon="-2.62297">
        <ele>107.59999847412</ele>
        <time>2021-10-15T12:18:59.000Z</time>
      </trkpt>
      <trkpt lat="48.20657" lon="-2.62293">
        <ele>108.19999694824</ele>
        <time>2021-10-15T12:19:00.000Z</time>
      </trkpt>
      <trkpt lat="48.20657" lon="-2.62288">
        <ele>108.80000305176</ele>
        <time>2021-10-15T12:19:01.000Z</time>
      </trkpt>
      <trkpt lat="48.20656" lon="-2.62284">
        <ele>109.40000152588</ele>
        <time>2021-10-15T12:19:02.000Z</time>
      </trkpt>
      <trkpt lat="48.20656" lon="-2.6228">
        <ele>110</ele>
        <time>2021-10-15T12:19:03.000Z</time>
      </trkpt>
      <trkpt lat="48.20656" lon="-2.62275">
        <ele>110.40000152588</ele>
        <time>2021-10-15T12:19:04.000Z</time>
      </trkpt>
      <trkpt lat="48.20656" lon="-2.62271">
        <ele>110.80000305176</ele>
        <time>2021-10-15T12:19:05.000Z</time>
      </trkpt>
      <trkpt lat="48.20656" lon="-2.62266">
        <ele>111.40000152588</ele>
        <time>2021-10-15T12:19:06.000Z</time>
      </trkpt>
      <trkpt lat="48.20656" lon="-2.62261">
        <ele>111.80000305176</ele>
        <time>2021-10-15T12:19:07.000Z</time>
      </trkpt>
      <trkpt lat="48.20655" lon="-2.62257">
        <ele>112.19999694824</ele>
        <time>2021-10-15T12:19:08.000Z</time>
      </trkpt>
      <trkpt lat="48.20654" lon="-2.62252">
        <ele>112.80000305176</ele>
        <time>2021-10-15T12:19:09.000Z</time>
      </trkpt>
      <trkpt lat="48.20654" lon="-2.62248">
        <ele>113.19999694824</ele>
        <time>2021-10-15T12:19:10.000Z</time>
      </trkpt>
      <trkpt lat="48.20652" lon="-2.62244">
        <ele>113.59999847412</ele>
        <time>2021-10-15T12:19:11.000Z</time>
      </trkpt>
      <trkpt lat="48.20651" lon="-2.6224">
        <ele>113.80000305176</ele>
        <time>2021-10-15T12:19:12.000Z</time>
      </trkpt>
      <trkpt lat="48.20649" lon="-2.62237">
        <ele>114.19999694824</ele>
        <time>2021-10-15T12:19:13.000Z</time>
      </trkpt>
      <trkpt lat="48.20648" lon="-2.62233">
        <ele>114.40000152588</ele>
        <time>2021-10-15T12:19:14.000Z</time>
      </trkpt>
      <trkpt lat="48.20646" lon="-2.6223">
        <ele>114.59999847412</ele>
        <time>2021-10-15T12:19:15.000Z</time>
      </trkpt>
      <trkpt lat="48.20644" lon="-2.62228">
        <ele>114.59999847412</ele>
        <time>2021-10-15T12:19:16.000Z</time>
      </trkpt>
      <trkpt lat="48.20642" lon="-2.62226">
        <ele>114.80000305176</ele>
        <time>2021-10-15T12:19:17.000Z</time>
      </trkpt>
      <trkpt lat="48.2064" lon="-2.62223">
        <ele>114.80000305176</ele>
        <time>2021-10-15T12:19:18.000Z</time>
      </trkpt>
      <trkpt lat="48.20637" lon="-2.62221">
        <ele>114.80000305176</ele>
        <time>2021-10-15T12:19:19.000Z</time>
      </trkpt>
      <trkpt lat="48.20635" lon="-2.62219">
        <ele>114.80000305176</ele>
        <time>2021-10-15T12:19:20.000Z</time>
      </trkpt>
      <trkpt lat="48.20633" lon="-2.62217">
        <ele>114.80000305176</ele>
        <time>2021-10-15T12:19:21.000Z</time>
      </trkpt>
      <trkpt lat="48.20631" lon="-2.62214">
        <ele>115</ele>
        <time>2021-10-15T12:19:22.000Z</time>
      </trkpt>
      <trkpt lat="48.20629" lon="-2.62211">
        <ele>114.80000305176</ele>
        <time>2021-10-15T12:19:23.000Z</time>
      </trkpt>
      <trkpt lat="48.20627" lon="-2.62209">
        <ele>114.80000305176</ele>
        <time>2021-10-15T12:19:24.000Z</time>
      </trkpt>
      <trkpt lat="48.20625" lon="-2.62207">
        <ele>114.80000305176</ele>
        <time>2021-10-15T12:19:25.000Z</time>
      </trkpt>
      <trkpt lat="48.20623" lon="-2.62204">
        <ele>114.59999847412</ele>
        <time>2021-10-15T12:19:26.000Z</time>
      </trkpt>
      <trkpt lat="48.20621" lon="-2.62202">
        <ele>114.59999847412</ele>
        <time>2021-10-15T12:19:27.000Z</time>
      </trkpt>
      <trkpt lat="48.2062" lon="-2.62199">
        <ele>114.40000152588</ele>
        <time>2021-10-15T12:19:28.000Z</time>
      </trkpt>
      <trkpt lat="48.20618" lon="-2.62197">
        <ele>114.19999694824</ele>
        <time>2021-10-15T12:19:29.000Z</time>
      </trkpt>
      <trkpt lat="48.20617" lon="-2.62194">
        <ele>114.19999694824</ele>
        <time>2021-10-15T12:19:30.000Z</time>
      </trkpt>
      <trkpt lat="48.20616" lon="-2.62192">
        <ele>114.19999694824</ele>
        <time>2021-10-15T12:19:31.000Z</time>
      </trkpt>
      <trkpt lat="48.20614" lon="-2.62189">
        <ele>114.19999694824</ele>
        <time>2021-10-15T12:19:32.000Z</time>
      </trkpt>
      <trkpt lat="48.20613" lon="-2.62186">
        <ele>114.40000152588</ele>
        <time>2021-10-15T12:19:33.000Z</time>
      </trkpt>
      <trkpt lat="48.20611" lon="-2.62182">
        <ele>114.59999847412</ele>
        <time>2021-10-15T12:19:34.000Z</time>
      </trkpt>
      <trkpt lat="48.20609" lon="-2.62179">
        <ele>114.59999847412</ele>
        <time>2021-10-15T12:19:35.000Z</time>
      </trkpt>
      <trkpt lat="48.20607" lon="-2.62175">
        <ele>114.80000305176</ele>
        <time>2021-10-15T12:19:36.000Z</time>
      </trkpt>
      <trkpt lat="48.20605" lon="-2.62172">
        <ele>115</ele>
        <time>2021-10-15T12:19:37.000Z</time>
      </trkpt>
      <trkpt lat="48.20602" lon="-2.62168">
        <ele>115.19999694824</ele>
        <time>2021-10-15T12:19:38.000Z</time>
      </trkpt>
      <trkpt lat="48.206" lon="-2.62164">
        <ele>115.40000152588</ele>
        <time>2021-10-15T12:19:39.000Z</time>
      </trkpt>
      <trkpt lat="48.20598" lon="-2.6216">
        <ele>115.59999847412</ele>
        <time>2021-10-15T12:19:40.000Z</time>
      </trkpt>
      <trkpt lat="48.20597" lon="-2.62156">
        <ele>115.80000305176</ele>
        <time>2021-10-15T12:19:41.000Z</time>
      </trkpt>
      <trkpt lat="48.20594" lon="-2.62152">
        <ele>116</ele>
        <time>2021-10-15T12:19:42.000Z</time>
      </trkpt>
      <trkpt lat="48.20592" lon="-2.62147">
        <ele>116</ele>
        <time>2021-10-15T12:19:43.000Z</time>
      </trkpt>
      <trkpt lat="48.2059" lon="-2.62142">
        <ele>116.19999694824</ele>
        <time>2021-10-15T12:19:44.000Z</time>
      </trkpt>
      <trkpt lat="48.20588" lon="-2.62138">
        <ele>116.19999694824</ele>
        <time>2021-10-15T12:19:45.000Z</time>
      </trkpt>
      <trkpt lat="48.20587" lon="-2.62133">
        <ele>116.40000152588</ele>
        <time>2021-10-15T12:19:46.000Z</time>
      </trkpt>
      <trkpt lat="48.20585" lon="-2.62129">
        <ele>116.40000152588</ele>
        <time>2021-10-15T12:19:47.000Z</time>
      </trkpt>
      <trkpt lat="48.20583" lon="-2.62123">
        <ele>116.59999847412</ele>
        <time>2021-10-15T12:19:48.000Z</time>
      </trkpt>
      <trkpt lat="48.20582" lon="-2.62118">
        <ele>116.59999847412</ele>
        <time>2021-10-15T12:19:49.000Z</time>
      </trkpt>
      <trkpt lat="48.2058" lon="-2.62114">
        <ele>116.80000305176</ele>
        <time>2021-10-15T12:19:50.000Z</time>
      </trkpt>
      <trkpt lat="48.20579" lon="-2.62109">
        <ele>116.80000305176</ele>
        <time>2021-10-15T12:19:51.000Z</time>
      </trkpt>
      <trkpt lat="48.20577" lon="-2.62105">
        <ele>116.80000305176</ele>
        <time>2021-10-15T12:19:52.000Z</time>
      </trkpt>
      <trkpt lat="48.20574" lon="-2.621">
        <ele>117</ele>
        <time>2021-10-15T12:19:53.000Z</time>
      </trkpt>
      <trkpt lat="48.20572" lon="-2.62096">
        <ele>117</ele>
        <time>2021-10-15T12:19:54.000Z</time>
      </trkpt>
      <trkpt lat="48.2057" lon="-2.62092">
        <ele>117.19999694824</ele>
        <time>2021-10-15T12:19:55.000Z</time>
      </trkpt>
      <trkpt lat="48.20568" lon="-2.62088">
        <ele>117</ele>
        <time>2021-10-15T12:19:56.000Z</time>
      </trkpt>
      <trkpt lat="48.20567" lon="-2.62083">
        <ele>117</ele>
        <time>2021-10-15T12:19:57.000Z</time>
      </trkpt>
      <trkpt lat="48.20565" lon="-2.62079">
        <ele>117</ele>
        <time>2021-10-15T12:19:58.000Z</time>
      </trkpt>
      <trkpt lat="48.20563" lon="-2.62075">
        <ele>117.19999694824</ele>
        <time>2021-10-15T12:19:59.000Z</time>
      </trkpt>
      <trkpt lat="48.20561" lon="-2.6207">
        <ele>117.19999694824</ele>
        <time>2021-10-15T12:20:00.000Z</time>
      </trkpt>
      <trkpt lat="48.2056" lon="-2.62065">
        <ele>117</ele>
        <time>2021-10-15T12:20:01.000Z</time>
      </trkpt>
      <trkpt lat="48.20558" lon="-2.6206">
        <ele>116.80000305176</ele>
        <time>2021-10-15T12:20:02.000Z</time>
      </trkpt>
      <trkpt lat="48.20556" lon="-2.62054">
        <ele>116.80000305176</ele>
        <time>2021-10-15T12:20:03.000Z</time>
      </trkpt>
      <trkpt lat="48.20555" lon="-2.62049">
        <ele>116.80000305176</ele>
        <time>2021-10-15T12:20:04.000Z</time>
      </trkpt>
      <trkpt lat="48.20553" lon="-2.62043">
        <ele>117</ele>
        <time>2021-10-15T12:20:05.000Z</time>
      </trkpt>
      <trkpt lat="48.20551" lon="-2.62037">
        <ele>117.19999694824</ele>
        <time>2021-10-15T12:20:06.000Z</time>
      </trkpt>
      <trkpt lat="48.20549" lon="-2.62031">
        <ele>117.19999694824</ele>
        <time>2021-10-15T12:20:07.000Z</time>
      </trkpt>
      <trkpt lat="48.20548" lon="-2.62026">
        <ele>117.40000152588</ele>
        <time>2021-10-15T12:20:08.000Z</time>
      </trkpt>
      <trkpt lat="48.20546" lon="-2.62021">
        <ele>117.59999847412</ele>
        <time>2021-10-15T12:20:09.000Z</time>
      </trkpt>
      <trkpt lat="48.20545" lon="-2.62016">
        <ele>117.80000305176</ele>
        <time>2021-10-15T12:20:10.000Z</time>
      </trkpt>
      <trkpt lat="48.20544" lon="-2.6201">
        <ele>118</ele>
        <time>2021-10-15T12:20:11.000Z</time>
      </trkpt>
      <trkpt lat="48.20543" lon="-2.62004">
        <ele>118.19999694824</ele>
        <time>2021-10-15T12:20:12.000Z</time>
      </trkpt>
      <trkpt lat="48.20543" lon="-2.61999">
        <ele>118.80000305176</ele>
        <time>2021-10-15T12:20:13.000Z</time>
      </trkpt>
      <trkpt lat="48.20544" lon="-2.61994">
        <ele>119.19999694824</ele>
        <time>2021-10-15T12:20:14.000Z</time>
      </trkpt>
      <trkpt lat="48.20546" lon="-2.6199">
        <ele>119.80000305176</ele>
        <time>2021-10-15T12:20:15.000Z</time>
      </trkpt>
      <trkpt lat="48.20547" lon="-2.61988">
        <ele>120.19999694824</ele>
        <time>2021-10-15T12:20:16.000Z</time>
      </trkpt>
      <trkpt lat="48.20549" lon="-2.61985">
        <ele>120.59999847412</ele>
        <time>2021-10-15T12:20:17.000Z</time>
      </trkpt>
      <trkpt lat="48.20551" lon="-2.61983">
        <ele>121</ele>
        <time>2021-10-15T12:20:18.000Z</time>
      </trkpt>
      <trkpt lat="48.20554" lon="-2.61981">
        <ele>121.59999847412</ele>
        <time>2021-10-15T12:20:19.000Z</time>
      </trkpt>
      <trkpt lat="48.20557" lon="-2.61979">
        <ele>122</ele>
        <time>2021-10-15T12:20:20.000Z</time>
      </trkpt>
      <trkpt lat="48.20559" lon="-2.61977">
        <ele>122.59999847412</ele>
        <time>2021-10-15T12:20:21.000Z</time>
      </trkpt>
      <trkpt lat="48.20562" lon="-2.61975">
        <ele>123.19999694824</ele>
        <time>2021-10-15T12:20:22.000Z</time>
      </trkpt>
      <trkpt lat="48.20565" lon="-2.61974">
        <ele>123.59999847412</ele>
        <time>2021-10-15T12:20:23.000Z</time>
      </trkpt>
      <trkpt lat="48.20567" lon="-2.61973">
        <ele>124</ele>
        <time>2021-10-15T12:20:24.000Z</time>
      </trkpt>
      <trkpt lat="48.2057" lon="-2.61972">
        <ele>124.40000152588</ele>
        <time>2021-10-15T12:20:25.000Z</time>
      </trkpt>
      <trkpt lat="48.20573" lon="-2.61972">
        <ele>124.80000305176</ele>
        <time>2021-10-15T12:20:26.000Z</time>
      </trkpt>
      <trkpt lat="48.20576" lon="-2.61972">
        <ele>125.19999694824</ele>
        <time>2021-10-15T12:20:27.000Z</time>
      </trkpt>
      <trkpt lat="48.20579" lon="-2.61972">
        <ele>125.40000152588</ele>
        <time>2021-10-15T12:20:28.000Z</time>
      </trkpt>
      <trkpt lat="48.20582" lon="-2.61973">
        <ele>125.80000305176</ele>
        <time>2021-10-15T12:20:29.000Z</time>
      </trkpt>
      <trkpt lat="48.20584" lon="-2.61973">
        <ele>126</ele>
        <time>2021-10-15T12:20:30.000Z</time>
      </trkpt>
      <trkpt lat="48.20584" lon="-2.61974">
        <ele>126</ele>
        <time>2021-10-15T12:20:31.000Z</time>
      </trkpt>
      <trkpt lat="48.20584" lon="-2.61975">
        <ele>126</ele>
        <time>2021-10-15T12:20:32.000Z</time>
      </trkpt>
      <trkpt lat="48.20584" lon="-2.61974">
        <ele>126</ele>
        <time>2021-10-15T12:20:33.000Z</time>
      </trkpt>
      <trkpt lat="48.20583" lon="-2.61974">
        <ele>125.80000305176</ele>
        <time>2021-10-15T12:20:34.000Z</time>
      </trkpt>
      <trkpt lat="48.20582" lon="-2.61973">
        <ele>125.80000305176</ele>
        <time>2021-10-15T12:20:35.000Z</time>
      </trkpt>
      <trkpt lat="48.2058" lon="-2.61973">
        <ele>125.59999847412</ele>
        <time>2021-10-15T12:20:36.000Z</time>
      </trkpt>
      <trkpt lat="48.20578" lon="-2.61972">
        <ele>125.40000152588</ele>
        <time>2021-10-15T12:20:37.000Z</time>
      </trkpt>
      <trkpt lat="48.20576" lon="-2.61972">
        <ele>125.19999694824</ele>
        <time>2021-10-15T12:20:38.000Z</time>
      </trkpt>
      <trkpt lat="48.20573" lon="-2.61972">
        <ele>124.80000305176</ele>
        <time>2021-10-15T12:20:39.000Z</time>
      </trkpt>
      <trkpt lat="48.2057" lon="-2.61972">
        <ele>124.40000152588</ele>
        <time>2021-10-15T12:20:40.000Z</time>
      </trkpt>
      <trkpt lat="48.20567" lon="-2.61973">
        <ele>123.80000305176</ele>
        <time>2021-10-15T12:20:41.000Z</time>
      </trkpt>
      <trkpt lat="48.20563" lon="-2.61973">
        <ele>123.40000152588</ele>
        <time>2021-10-15T12:20:42.000Z</time>
      </trkpt>
      <trkpt lat="48.2056" lon="-2.61974">
        <ele>122.80000305176</ele>
        <time>2021-10-15T12:20:43.000Z</time>
      </trkpt>
      <trkpt lat="48.20557" lon="-2.61975">
        <ele>122.40000152588</ele>
        <time>2021-10-15T12:20:44.000Z</time>
      </trkpt>
      <trkpt lat="48.20555" lon="-2.61976">
        <ele>122</ele>
        <time>2021-10-15T12:20:45.000Z</time>
      </trkpt>
      <trkpt lat="48.20552" lon="-2.61978">
        <ele>121.40000152588</ele>
        <time>2021-10-15T12:20:46.000Z</time>
      </trkpt>
      <trkpt lat="48.2055" lon="-2.61979">
        <ele>121</ele>
        <time>2021-10-15T12:20:47.000Z</time>
      </trkpt>
      <trkpt lat="48.20548" lon="-2.61981">
        <ele>120.59999847412</ele>
        <time>2021-10-15T12:20:48.000Z</time>
      </trkpt>
      <trkpt lat="48.20546" lon="-2.61982">
        <ele>120.19999694824</ele>
        <time>2021-10-15T12:20:49.000Z</time>
      </trkpt>
      <trkpt lat="48.20543" lon="-2.61983">
        <ele>119.80000305176</ele>
        <time>2021-10-15T12:20:50.000Z</time>
      </trkpt>
      <trkpt lat="48.20541" lon="-2.61984">
        <ele>119.40000152588</ele>
        <time>2021-10-15T12:20:51.000Z</time>
      </trkpt>
      <trkpt lat="48.20539" lon="-2.61985">
        <ele>119.19999694824</ele>
        <time>2021-10-15T12:20:52.000Z</time>
      </trkpt>
      <trkpt lat="48.20537" lon="-2.61985">
        <ele>118.80000305176</ele>
        <time>2021-10-15T12:20:53.000Z</time>
      </trkpt>
      <trkpt lat="48.20533" lon="-2.61983">
        <ele>118.19999694824</ele>
        <time>2021-10-15T12:20:54.000Z</time>
      </trkpt>
      <trkpt lat="48.20533" lon="-2.61983">
        <ele>118.19999694824</ele>
        <time>2021-10-15T12:20:55.000Z</time>
      </trkpt>
      <trkpt lat="48.20532" lon="-2.61982">
        <ele>118</ele>
        <time>2021-10-15T12:20:56.000Z</time>
      </trkpt>
      <trkpt lat="48.2053" lon="-2.61981">
        <ele>117.80000305176</ele>
        <time>2021-10-15T12:20:57.000Z</time>
      </trkpt>
      <trkpt lat="48.20529" lon="-2.61979">
        <ele>117.40000152588</ele>
        <time>2021-10-15T12:20:58.000Z</time>
      </trkpt>
      <trkpt lat="48.20527" lon="-2.61977">
        <ele>117.19999694824</ele>
        <time>2021-10-15T12:20:59.000Z</time>
      </trkpt>
      <trkpt lat="48.20525" lon="-2.61976">
        <ele>117</ele>
        <time>2021-10-15T12:21:00.000Z</time>
      </trkpt>
      <trkpt lat="48.20524" lon="-2.61975">
        <ele>116.80000305176</ele>
        <time>2021-10-15T12:21:01.000Z</time>
      </trkpt>
      <trkpt lat="48.20523" lon="-2.61975">
        <ele>116.80000305176</ele>
        <time>2021-10-15T12:21:02.000Z</time>
      </trkpt>
      <trkpt lat="48.20523" lon="-2.61975">
        <ele>116.59999847412</ele>
        <time>2021-10-15T12:21:03.000Z</time>
      </trkpt>
      <trkpt lat="48.20523" lon="-2.61974">
        <ele>116.59999847412</ele>
        <time>2021-10-15T12:21:04.000Z</time>
      </trkpt>
      <trkpt lat="48.20523" lon="-2.61974">
        <ele>116.59999847412</ele>
        <time>2021-10-15T12:21:05.000Z</time>
      </trkpt>
      <trkpt lat="48.20523" lon="-2.61974">
        <ele>116.59999847412</ele>
        <time>2021-10-15T12:21:06.000Z</time>
      </trkpt>
      <trkpt lat="48.20524" lon="-2.61974">
        <ele>116.80000305176</ele>
        <time>2021-10-15T12:21:07.000Z</time>
      </trkpt>
      <trkpt lat="48.20525" lon="-2.61975">
        <ele>117</ele>
        <time>2021-10-15T12:21:08.000Z</time>
      </trkpt>
      <trkpt lat="48.20526" lon="-2.61976">
        <ele>117</ele>
        <time>2021-10-15T12:21:09.000Z</time>
      </trkpt>
      <trkpt lat="48.20527" lon="-2.61977">
        <ele>117.19999694824</ele>
        <time>2021-10-15T12:21:10.000Z</time>
      </trkpt>
      <trkpt lat="48.20528" lon="-2.61978">
        <ele>117.40000152588</ele>
        <time>2021-10-15T12:21:11.000Z</time>
      </trkpt>
      <trkpt lat="48.20528" lon="-2.61979">
        <ele>117.40000152588</ele>
        <time>2021-10-15T12:21:12.000Z</time>
      </trkpt>
      <trkpt lat="48.2053" lon="-2.6198">
        <ele>117.59999847412</ele>
        <time>2021-10-15T12:21:13.000Z</time>
      </trkpt>
      <trkpt lat="48.2053" lon="-2.61981">
        <ele>117.80000305176</ele>
        <time>2021-10-15T12:21:14.000Z</time>
      </trkpt>
      <trkpt lat="48.20531" lon="-2.61982">
        <ele>117.80000305176</ele>
        <time>2021-10-15T12:21:15.000Z</time>
      </trkpt>
      <trkpt lat="48.20531" lon="-2.61982">
        <ele>117.80000305176</ele>
        <time>2021-10-15T12:21:16.000Z</time>
      </trkpt>
      <trkpt lat="48.20531" lon="-2.61983">
        <ele>117.80000305176</ele>
        <time>2021-10-15T12:21:17.000Z</time>
      </trkpt>
      <trkpt lat="48.20532" lon="-2.61983">
        <ele>117.80000305176</ele>
        <time>2021-10-15T12:21:18.000Z</time>
      </trkpt>
      <trkpt lat="48.20532" lon="-2.61983">
        <ele>118</ele>
        <time>2021-10-15T12:21:19.000Z</time>
      </trkpt>
      <trkpt lat="48.20532" lon="-2.61984">
        <ele>118</ele>
        <time>2021-10-15T12:21:20.000Z</time>
      </trkpt>
      <trkpt lat="48.20532" lon="-2.61984">
        <ele>118</ele>
        <time>2021-10-15T12:21:21.000Z</time>
      </trkpt>
      <trkpt lat="48.20532" lon="-2.61983">
        <ele>118</ele>
        <time>2021-10-15T12:21:22.000Z</time>
      </trkpt>
      <trkpt lat="48.20532" lon="-2.61983">
        <ele>118</ele>
        <time>2021-10-15T12:21:23.000Z</time>
      </trkpt>
      <trkpt lat="48.20532" lon="-2.61982">
        <ele>118</ele>
        <time>2021-10-15T12:21:24.000Z</time>
      </trkpt>
      <trkpt lat="48.20532" lon="-2.61982">
        <ele>118</ele>
        <time>2021-10-15T12:21:25.000Z</time>
      </trkpt>
      <trkpt lat="48.20532" lon="-2.61982">
        <ele>118</ele>
        <time>2021-10-15T12:21:26.000Z</time>
      </trkpt>
      <trkpt lat="48.20532" lon="-2.61982">
        <ele>118</ele>
        <time>2021-10-15T12:21:27.000Z</time>
      </trkpt>
      <trkpt lat="48.20532" lon="-2.61982">
        <ele>118</ele>
        <time>2021-10-15T12:21:28.000Z</time>
      </trkpt>
      <trkpt lat="48.20532" lon="-2.61982">
        <ele>118</ele>
        <time>2021-10-15T12:21:29.000Z</time>
      </trkpt>
      <trkpt lat="48.20532" lon="-2.61982">
        <ele>118</ele>
        <time>2021-10-15T12:21:30.000Z</time>
      </trkpt>
      <trkpt lat="48.20532" lon="-2.61983">
        <ele>118</ele>
        <time>2021-10-15T12:21:31.000Z</time>
      </trkpt>
      <trkpt lat="48.20532" lon="-2.61983">
        <ele>118</ele>
        <time>2021-10-15T12:21:32.000Z</time>
      </trkpt>
      <trkpt lat="48.20532" lon="-2.61983">
        <ele>118</ele>
        <time>2021-10-15T12:21:33.000Z</time>
      </trkpt>
      <trkpt lat="48.20532" lon="-2.61984">
        <ele>118</ele>
        <time>2021-10-15T12:21:34.000Z</time>
      </trkpt>
      <trkpt lat="48.20532" lon="-2.61985">
        <ele>117.80000305176</ele>
        <time>2021-10-15T12:21:35.000Z</time>
      </trkpt>
      <trkpt lat="48.20532" lon="-2.61985">
        <ele>117.80000305176</ele>
        <time>2021-10-15T12:21:36.000Z</time>
      </trkpt>
      <trkpt lat="48.20532" lon="-2.61985">
        <ele>117.80000305176</ele>
        <time>2021-10-15T12:21:37.000Z</time>
      </trkpt>
      <trkpt lat="48.20532" lon="-2.61986">
        <ele>118</ele>
        <time>2021-10-15T12:21:38.000Z</time>
      </trkpt>
      <trkpt lat="48.20532" lon="-2.61986">
        <ele>117.80000305176</ele>
        <time>2021-10-15T12:21:39.000Z</time>
      </trkpt>
      <trkpt lat="48.20532" lon="-2.61985">
        <ele>117.80000305176</ele>
        <time>2021-10-15T12:21:40.000Z</time>
      </trkpt>
      <trkpt lat="48.20532" lon="-2.61985">
        <ele>117.80000305176</ele>
        <time>2021-10-15T12:21:41.000Z</time>
      </trkpt>
      <trkpt lat="48.20532" lon="-2.61985">
        <ele>117.80000305176</ele>
        <time>2021-10-15T12:21:42.000Z</time>
      </trkpt>
      <trkpt lat="48.20532" lon="-2.61984">
        <ele>118</ele>
        <time>2021-10-15T12:21:43.000Z</time>
      </trkpt>
      <trkpt lat="48.20532" lon="-2.61984">
        <ele>117.80000305176</ele>
        <time>2021-10-15T12:21:44.000Z</time>
      </trkpt>
      <trkpt lat="48.20532" lon="-2.61984">
        <ele>117.80000305176</ele>
        <time>2021-10-15T12:21:45.000Z</time>
      </trkpt>
      <trkpt lat="48.20532" lon="-2.61985">
        <ele>117.80000305176</ele>
        <time>2021-10-15T12:21:46.000Z</time>
      </trkpt>
      <trkpt lat="48.20532" lon="-2.61984">
        <ele>117.80000305176</ele>
        <time>2021-10-15T12:21:47.000Z</time>
      </trkpt>
      <trkpt lat="48.20532" lon="-2.61984">
        <ele>118</ele>
        <time>2021-10-15T12:21:48.000Z</time>
      </trkpt>
      <trkpt lat="48.20532" lon="-2.61984">
        <ele>118</ele>
        <time>2021-10-15T12:21:49.000Z</time>
      </trkpt>
      <trkpt lat="48.20532" lon="-2.61984">
        <ele>118</ele>
        <time>2021-10-15T12:21:50.000Z</time>
      </trkpt>
      <trkpt lat="48.20532" lon="-2.61985">
        <ele>117.80000305176</ele>
        <time>2021-10-15T12:21:51.000Z</time>
      </trkpt>
      <trkpt lat="48.20531" lon="-2.61986">
        <ele>117.80000305176</ele>
        <time>2021-10-15T12:21:52.000Z</time>
      </trkpt>
      <trkpt lat="48.20531" lon="-2.61986">
        <ele>117.80000305176</ele>
        <time>2021-10-15T12:21:53.000Z</time>
      </trkpt>
      <trkpt lat="48.20531" lon="-2.61986">
        <ele>117.59999847412</ele>
        <time>2021-10-15T12:21:54.000Z</time>
      </trkpt>
      <trkpt lat="48.20531" lon="-2.61987">
        <ele>117.59999847412</ele>
        <time>2021-10-15T12:21:55.000Z</time>
      </trkpt>
      <trkpt lat="48.2053" lon="-2.61986">
        <ele>117.59999847412</ele>
        <time>2021-10-15T12:21:56.000Z</time>
      </trkpt>
      <trkpt lat="48.2053" lon="-2.61986">
        <ele>117.59999847412</ele>
        <time>2021-10-15T12:21:57.000Z</time>
      </trkpt>
      <trkpt lat="48.20531" lon="-2.61986">
        <ele>117.59999847412</ele>
        <time>2021-10-15T12:21:58.000Z</time>
      </trkpt>
      <trkpt lat="48.20531" lon="-2.61986">
        <ele>117.59999847412</ele>
        <time>2021-10-15T12:21:59.000Z</time>
      </trkpt>
      <trkpt lat="48.20531" lon="-2.61986">
        <ele>117.59999847412</ele>
        <time>2021-10-15T12:22:00.000Z</time>
      </trkpt>
      <trkpt lat="48.20531" lon="-2.61986">
        <ele>117.59999847412</ele>
        <time>2021-10-15T12:22:01.000Z</time>
      </trkpt>
      <trkpt lat="48.20531" lon="-2.61986">
        <ele>117.59999847412</ele>
        <time>2021-10-15T12:22:02.000Z</time>
      </trkpt>
      <trkpt lat="48.20531" lon="-2.61986">
        <ele>117.59999847412</ele>
        <time>2021-10-15T12:22:03.000Z</time>
      </trkpt>
      <trkpt lat="48.20531" lon="-2.61986">
        <ele>117.59999847412</ele>
        <time>2021-10-15T12:22:04.000Z</time>
      </trkpt>
      <trkpt lat="48.20531" lon="-2.61986">
        <ele>117.59999847412</ele>
        <time>2021-10-15T12:22:05.000Z</time>
      </trkpt>
      <trkpt lat="48.2053" lon="-2.61986">
        <ele>117.59999847412</ele>
        <time>2021-10-15T12:22:06.000Z</time>
      </trkpt>
      <trkpt lat="48.2053" lon="-2.61986">
        <ele>117.59999847412</ele>
        <time>2021-10-15T12:22:07.000Z</time>
      </trkpt>
      <trkpt lat="48.2053" lon="-2.61986">
        <ele>117.40000152588</ele>
        <time>2021-10-15T12:22:08.000Z</time>
      </trkpt>
      <trkpt lat="48.20529" lon="-2.61986">
        <ele>117.40000152588</ele>
        <time>2021-10-15T12:22:09.000Z</time>
      </trkpt>
      <trkpt lat="48.20529" lon="-2.61986">
        <ele>117.19999694824</ele>
        <time>2021-10-15T12:22:10.000Z</time>
      </trkpt>
      <trkpt lat="48.20529" lon="-2.61987">
        <ele>117.19999694824</ele>
        <time>2021-10-15T12:22:11.000Z</time>
      </trkpt>
      <trkpt lat="48.20528" lon="-2.61987">
        <ele>117.19999694824</ele>
        <time>2021-10-15T12:22:12.000Z</time>
      </trkpt>
      <trkpt lat="48.20528" lon="-2.61987">
        <ele>117</ele>
        <time>2021-10-15T12:22:13.000Z</time>
      </trkpt>
      <trkpt lat="48.20528" lon="-2.61987">
        <ele>117</ele>
        <time>2021-10-15T12:22:14.000Z</time>
      </trkpt>
      <trkpt lat="48.20528" lon="-2.61987">
        <ele>117</ele>
        <time>2021-10-15T12:22:15.000Z</time>
      </trkpt>
      <trkpt lat="48.20528" lon="-2.61987">
        <ele>117</ele>
        <time>2021-10-15T12:22:16.000Z</time>
      </trkpt>
      <trkpt lat="48.20527" lon="-2.61988">
        <ele>117</ele>
        <time>2021-10-15T12:22:17.000Z</time>
      </trkpt>
      <trkpt lat="48.20527" lon="-2.61988">
        <ele>117</ele>
        <time>2021-10-15T12:22:18.000Z</time>
      </trkpt>
      <trkpt lat="48.20527" lon="-2.61988">
        <ele>117</ele>
        <time>2021-10-15T12:22:19.000Z</time>
      </trkpt>
      <trkpt lat="48.20527" lon="-2.61988">
        <ele>117</ele>
        <time>2021-10-15T12:22:20.000Z</time>
      </trkpt>
      <trkpt lat="48.20527" lon="-2.61988">
        <ele>117</ele>
        <time>2021-10-15T12:22:21.000Z</time>
      </trkpt>
      <trkpt lat="48.20528" lon="-2.61988">
        <ele>117</ele>
        <time>2021-10-15T12:22:22.000Z</time>
      </trkpt>
      <trkpt lat="48.20527" lon="-2.61988">
        <ele>117</ele>
        <time>2021-10-15T12:22:23.000Z</time>
      </trkpt>
      <trkpt lat="48.20528" lon="-2.61988">
        <ele>117</ele>
        <time>2021-10-15T12:22:24.000Z</time>
      </trkpt>
      <trkpt lat="48.20528" lon="-2.61988">
        <ele>117</ele>
        <time>2021-10-15T12:22:25.000Z</time>
      </trkpt>
      <trkpt lat="48.20528" lon="-2.61988">
        <ele>117</ele>
        <time>2021-10-15T12:22:26.000Z</time>
      </trkpt>
      <trkpt lat="48.20528" lon="-2.61988">
        <ele>117</ele>
        <time>2021-10-15T12:22:27.000Z</time>
      </trkpt>
      <trkpt lat="48.20527" lon="-2.61988">
        <ele>117</ele>
        <time>2021-10-15T12:22:28.000Z</time>
      </trkpt>
      <trkpt lat="48.20528" lon="-2.61988">
        <ele>117</ele>
        <time>2021-10-15T12:22:29.000Z</time>
      </trkpt>
      <trkpt lat="48.20528" lon="-2.61987">
        <ele>117</ele>
        <time>2021-10-15T12:22:30.000Z</time>
      </trkpt>
      <trkpt lat="48.20528" lon="-2.61987">
        <ele>117</ele>
        <time>2021-10-15T12:22:31.000Z</time>
      </trkpt>
      <trkpt lat="48.20528" lon="-2.61987">
        <ele>117</ele>
        <time>2021-10-15T12:22:32.000Z</time>
      </trkpt>
      <trkpt lat="48.20528" lon="-2.61987">
        <ele>117</ele>
        <time>2021-10-15T12:22:33.000Z</time>
      </trkpt>
      <trkpt lat="48.20528" lon="-2.61987">
        <ele>117</ele>
        <time>2021-10-15T12:22:34.000Z</time>
      </trkpt>
      <trkpt lat="48.20528" lon="-2.61987">
        <ele>117</ele>
        <time>2021-10-15T12:22:35.000Z</time>
      </trkpt>
      <trkpt lat="48.20528" lon="-2.61987">
        <ele>117</ele>
        <time>2021-10-15T12:22:36.000Z</time>
      </trkpt>
      <trkpt lat="48.20528" lon="-2.61987">
        <ele>117</ele>
        <time>2021-10-15T12:22:37.000Z</time>
      </trkpt>
      <trkpt lat="48.20528" lon="-2.61987">
        <ele>117</ele>
        <time>2021-10-15T12:22:38.000Z</time>
      </trkpt>
      <trkpt lat="48.20528" lon="-2.61988">
        <ele>117</ele>
        <time>2021-10-15T12:22:39.000Z</time>
      </trkpt>
      <trkpt lat="48.20528" lon="-2.61988">
        <ele>117</ele>
        <time>2021-10-15T12:22:40.000Z</time>
      </trkpt>
      <trkpt lat="48.20528" lon="-2.61988">
        <ele>117</ele>
        <time>2021-10-15T12:22:41.000Z</time>
      </trkpt>
      <trkpt lat="48.20528" lon="-2.61988">
        <ele>117</ele>
        <time>2021-10-15T12:22:42.000Z</time>
      </trkpt>
      <trkpt lat="48.20528" lon="-2.61988">
        <ele>117</ele>
        <time>2021-10-15T12:22:43.000Z</time>
      </trkpt>
      <trkpt lat="48.20528" lon="-2.61988">
        <ele>117</ele>
        <time>2021-10-15T12:22:44.000Z</time>
      </trkpt>
      <trkpt lat="48.20528" lon="-2.61988">
        <ele>117</ele>
        <time>2021-10-15T12:22:45.000Z</time>
      </trkpt>
      <trkpt lat="48.20528" lon="-2.61989">
        <ele>117</ele>
        <time>2021-10-15T12:22:46.000Z</time>
      </trkpt>
      <trkpt lat="48.20528" lon="-2.61989">
        <ele>117</ele>
        <time>2021-10-15T12:22:47.000Z</time>
      </trkpt>
      <trkpt lat="48.20528" lon="-2.61989">
        <ele>117</ele>
        <time>2021-10-15T12:22:48.000Z</time>
      </trkpt>
      <trkpt lat="48.20528" lon="-2.61989">
        <ele>117</ele>
        <time>2021-10-15T12:22:49.000Z</time>
      </trkpt>
      <trkpt lat="48.20528" lon="-2.61989">
        <ele>117</ele>
        <time>2021-10-15T12:22:50.000Z</time>
      </trkpt>
      <trkpt lat="48.20528" lon="-2.61989">
        <ele>117</ele>
        <time>2021-10-15T12:22:51.000Z</time>
      </trkpt>
      <trkpt lat="48.20528" lon="-2.6199">
        <ele>117</ele>
        <time>2021-10-15T12:22:52.000Z</time>
      </trkpt>
      <trkpt lat="48.20528" lon="-2.6199">
        <ele>117</ele>
        <time>2021-10-15T12:22:53.000Z</time>
      </trkpt>
      <trkpt lat="48.20528" lon="-2.6199">
        <ele>117</ele>
        <time>2021-10-15T12:22:54.000Z</time>
      </trkpt>
      <trkpt lat="48.20528" lon="-2.6199">
        <ele>117</ele>
        <time>2021-10-15T12:22:55.000Z</time>
      </trkpt>
      <trkpt lat="48.20528" lon="-2.6199">
        <ele>117</ele>
        <time>2021-10-15T12:22:56.000Z</time>
      </trkpt>
      <trkpt lat="48.20529" lon="-2.6199">
        <ele>117</ele>
        <time>2021-10-15T12:22:57.000Z</time>
      </trkpt>
      <trkpt lat="48.20529" lon="-2.6199">
        <ele>117</ele>
        <time>2021-10-15T12:22:58.000Z</time>
      </trkpt>
      <trkpt lat="48.20529" lon="-2.6199">
        <ele>117.19999694824</ele>
        <time>2021-10-15T12:22:59.000Z</time>
      </trkpt>
      <trkpt lat="48.20528" lon="-2.61991">
        <ele>117</ele>
        <time>2021-10-15T12:23:00.000Z</time>
      </trkpt>
      <trkpt lat="48.20528" lon="-2.61991">
        <ele>117</ele>
        <time>2021-10-15T12:23:01.000Z</time>
      </trkpt>
      <trkpt lat="48.20529" lon="-2.61991">
        <ele>117</ele>
        <time>2021-10-15T12:23:02.000Z</time>
      </trkpt>
      <trkpt lat="48.20528" lon="-2.61991">
        <ele>117</ele>
        <time>2021-10-15T12:23:03.000Z</time>
      </trkpt>
      <trkpt lat="48.20528" lon="-2.61991">
        <ele>117</ele>
        <time>2021-10-15T12:23:04.000Z</time>
      </trkpt>
      <trkpt lat="48.20529" lon="-2.61991">
        <ele>117</ele>
        <time>2021-10-15T12:23:05.000Z</time>
      </trkpt>
      <trkpt lat="48.20529" lon="-2.6199">
        <ele>117.19999694824</ele>
        <time>2021-10-15T12:23:06.000Z</time>
      </trkpt>
      <trkpt lat="48.20529" lon="-2.6199">
        <ele>117.19999694824</ele>
        <time>2021-10-15T12:23:07.000Z</time>
      </trkpt>
      <trkpt lat="48.2053" lon="-2.6199">
        <ele>117.40000152588</ele>
        <time>2021-10-15T12:23:08.000Z</time>
      </trkpt>
      <trkpt lat="48.2053" lon="-2.6199">
        <ele>117.40000152588</ele>
        <time>2021-10-15T12:23:09.000Z</time>
      </trkpt>
      <trkpt lat="48.2053" lon="-2.61989">
        <ele>117.40000152588</ele>
        <time>2021-10-15T12:23:10.000Z</time>
      </trkpt>
      <trkpt lat="48.2053" lon="-2.61989">
        <ele>117.40000152588</ele>
        <time>2021-10-15T12:23:11.000Z</time>
      </trkpt>
      <trkpt lat="48.2053" lon="-2.61989">
        <ele>117.40000152588</ele>
        <time>2021-10-15T12:23:12.000Z</time>
      </trkpt>
      <trkpt lat="48.2053" lon="-2.61989">
        <ele>117.40000152588</ele>
        <time>2021-10-15T12:23:13.000Z</time>
      </trkpt>
      <trkpt lat="48.2053" lon="-2.6199">
        <ele>117.40000152588</ele>
        <time>2021-10-15T12:23:14.000Z</time>
      </trkpt>
      <trkpt lat="48.2053" lon="-2.6199">
        <ele>117.40000152588</ele>
        <time>2021-10-15T12:23:15.000Z</time>
      </trkpt>
      <trkpt lat="48.2053" lon="-2.6199">
        <ele>117.40000152588</ele>
        <time>2021-10-15T12:23:16.000Z</time>
      </trkpt>
      <trkpt lat="48.20529" lon="-2.6199">
        <ele>117.19999694824</ele>
        <time>2021-10-15T12:23:17.000Z</time>
      </trkpt>
      <trkpt lat="48.20529" lon="-2.6199">
        <ele>117.19999694824</ele>
        <time>2021-10-15T12:23:18.000Z</time>
      </trkpt>
      <trkpt lat="48.20529" lon="-2.6199">
        <ele>117.19999694824</ele>
        <time>2021-10-15T12:23:19.000Z</time>
      </trkpt>
      <trkpt lat="48.20529" lon="-2.6199">
        <ele>117</ele>
        <time>2021-10-15T12:23:20.000Z</time>
      </trkpt>
      <trkpt lat="48.20529" lon="-2.61991">
        <ele>117</ele>
        <time>2021-10-15T12:23:21.000Z</time>
      </trkpt>
      <trkpt lat="48.20529" lon="-2.61991">
        <ele>117</ele>
        <time>2021-10-15T12:23:22.000Z</time>
      </trkpt>
      <trkpt lat="48.20529" lon="-2.61991">
        <ele>117</ele>
        <time>2021-10-15T12:23:23.000Z</time>
      </trkpt>
      <trkpt lat="48.20529" lon="-2.61991">
        <ele>117</ele>
        <time>2021-10-15T12:23:24.000Z</time>
      </trkpt>
      <trkpt lat="48.20529" lon="-2.61991">
        <ele>117</ele>
        <time>2021-10-15T12:23:25.000Z</time>
      </trkpt>
      <trkpt lat="48.20529" lon="-2.61991">
        <ele>117</ele>
        <time>2021-10-15T12:23:26.000Z</time>
      </trkpt>
      <trkpt lat="48.20529" lon="-2.61991">
        <ele>117</ele>
        <time>2021-10-15T12:23:27.000Z</time>
      </trkpt>
      <trkpt lat="48.20529" lon="-2.61991">
        <ele>117</ele>
        <time>2021-10-15T12:23:28.000Z</time>
      </trkpt>
      <trkpt lat="48.20529" lon="-2.61991">
        <ele>117</ele>
        <time>2021-10-15T12:23:29.000Z</time>
      </trkpt>
      <trkpt lat="48.20529" lon="-2.61991">
        <ele>117</ele>
        <time>2021-10-15T12:23:30.000Z</time>
      </trkpt>
      <trkpt lat="48.20529" lon="-2.61991">
        <ele>117</ele>
        <time>2021-10-15T12:23:31.000Z</time>
      </trkpt>
      <trkpt lat="48.20529" lon="-2.6199">
        <ele>117.19999694824</ele>
        <time>2021-10-15T12:23:32.000Z</time>
      </trkpt>
      <trkpt lat="48.20529" lon="-2.61991">
        <ele>117.19999694824</ele>
        <time>2021-10-15T12:23:33.000Z</time>
      </trkpt>
      <trkpt lat="48.20529" lon="-2.61991">
        <ele>117.19999694824</ele>
        <time>2021-10-15T12:23:34.000Z</time>
      </trkpt>
      <trkpt lat="48.20529" lon="-2.61991">
        <ele>117.19999694824</ele>
        <time>2021-10-15T12:23:35.000Z</time>
      </trkpt>
      <trkpt lat="48.20529" lon="-2.61991">
        <ele>117.19999694824</ele>
        <time>2021-10-15T12:23:36.000Z</time>
      </trkpt>
      <trkpt lat="48.20529" lon="-2.61992">
        <ele>117</ele>
        <time>2021-10-15T12:23:37.000Z</time>
      </trkpt>
      <trkpt lat="48.20529" lon="-2.61992">
        <ele>117.19999694824</ele>
        <time>2021-10-15T12:23:38.000Z</time>
      </trkpt>
      <trkpt lat="48.20529" lon="-2.61992">
        <ele>117.19999694824</ele>
        <time>2021-10-15T12:23:39.000Z</time>
      </trkpt>
      <trkpt lat="48.20529" lon="-2.61992">
        <ele>117.19999694824</ele>
        <time>2021-10-15T12:23:40.000Z</time>
      </trkpt>
      <trkpt lat="48.20529" lon="-2.61993">
        <ele>117.19999694824</ele>
        <time>2021-10-15T12:23:41.000Z</time>
      </trkpt>
      <trkpt lat="48.20529" lon="-2.61993">
        <ele>117.19999694824</ele>
        <time>2021-10-15T12:23:42.000Z</time>
      </trkpt>
      <trkpt lat="48.20529" lon="-2.61993">
        <ele>117</ele>
        <time>2021-10-15T12:23:43.000Z</time>
      </trkpt>
      <trkpt lat="48.20529" lon="-2.61993">
        <ele>117</ele>
        <time>2021-10-15T12:23:44.000Z</time>
      </trkpt>
      <trkpt lat="48.20529" lon="-2.61994">
        <ele>117</ele>
        <time>2021-10-15T12:23:45.000Z</time>
      </trkpt>
      <trkpt lat="48.20529" lon="-2.61994">
        <ele>117</ele>
        <time>2021-10-15T12:23:46.000Z</time>
      </trkpt>
      <trkpt lat="48.20529" lon="-2.61994">
        <ele>117</ele>
        <time>2021-10-15T12:23:47.000Z</time>
      </trkpt>
      <trkpt lat="48.20529" lon="-2.61994">
        <ele>117</ele>
        <time>2021-10-15T12:23:48.000Z</time>
      </trkpt>
      <trkpt lat="48.20529" lon="-2.61994">
        <ele>117</ele>
        <time>2021-10-15T12:23:49.000Z</time>
      </trkpt>
      <trkpt lat="48.20529" lon="-2.61994">
        <ele>117</ele>
        <time>2021-10-15T12:23:50.000Z</time>
      </trkpt>
      <trkpt lat="48.20529" lon="-2.61995">
        <ele>117</ele>
        <time>2021-10-15T12:23:51.000Z</time>
      </trkpt>
      <trkpt lat="48.20528" lon="-2.61995">
        <ele>116.80000305176</ele>
        <time>2021-10-15T12:23:52.000Z</time>
      </trkpt>
      <trkpt lat="48.20528" lon="-2.61995">
        <ele>116.80000305176</ele>
        <time>2021-10-15T12:23:53.000Z</time>
      </trkpt>
      <trkpt lat="48.20528" lon="-2.61995">
        <ele>116.80000305176</ele>
        <time>2021-10-15T12:23:54.000Z</time>
      </trkpt>
      <trkpt lat="48.20528" lon="-2.61995">
        <ele>116.80000305176</ele>
        <time>2021-10-15T12:23:55.000Z</time>
      </trkpt>
      <trkpt lat="48.20528" lon="-2.61995">
        <ele>116.80000305176</ele>
        <time>2021-10-15T12:23:56.000Z</time>
      </trkpt>
      <trkpt lat="48.20528" lon="-2.61995">
        <ele>116.80000305176</ele>
        <time>2021-10-15T12:23:57.000Z</time>
      </trkpt>
      <trkpt lat="48.20528" lon="-2.61995">
        <ele>116.80000305176</ele>
        <time>2021-10-15T12:23:58.000Z</time>
      </trkpt>
      <trkpt lat="48.20528" lon="-2.61995">
        <ele>116.80000305176</ele>
        <time>2021-10-15T12:23:59.000Z</time>
      </trkpt>
      <trkpt lat="48.20528" lon="-2.61995">
        <ele>116.80000305176</ele>
        <time>2021-10-15T12:24:00.000Z</time>
      </trkpt>
      <trkpt lat="48.20528" lon="-2.61994">
        <ele>116.80000305176</ele>
        <time>2021-10-15T12:24:01.000Z</time>
      </trkpt>
      <trkpt lat="48.20528" lon="-2.61994">
        <ele>116.80000305176</ele>
        <time>2021-10-15T12:24:02.000Z</time>
      </trkpt>
      <trkpt lat="48.20528" lon="-2.61994">
        <ele>117</ele>
        <time>2021-10-15T12:24:03.000Z</time>
      </trkpt>
      <trkpt lat="48.20528" lon="-2.61994">
        <ele>117</ele>
        <time>2021-10-15T12:24:04.000Z</time>
      </trkpt>
      <trkpt lat="48.20528" lon="-2.61994">
        <ele>116.80000305176</ele>
        <time>2021-10-15T12:24:05.000Z</time>
      </trkpt>
      <trkpt lat="48.20528" lon="-2.61994">
        <ele>116.80000305176</ele>
        <time>2021-10-15T12:24:06.000Z</time>
      </trkpt>
      <trkpt lat="48.20528" lon="-2.61993">
        <ele>116.80000305176</ele>
        <time>2021-10-15T12:24:07.000Z</time>
      </trkpt>
      <trkpt lat="48.20528" lon="-2.61993">
        <ele>117</ele>
        <time>2021-10-15T12:24:08.000Z</time>
      </trkpt>
      <trkpt lat="48.20528" lon="-2.61993">
        <ele>117</ele>
        <time>2021-10-15T12:24:09.000Z</time>
      </trkpt>
      <trkpt lat="48.20528" lon="-2.61993">
        <ele>117</ele>
        <time>2021-10-15T12:24:10.000Z</time>
      </trkpt>
      <trkpt lat="48.20529" lon="-2.61993">
        <ele>117</ele>
        <time>2021-10-15T12:24:11.000Z</time>
      </trkpt>
      <trkpt lat="48.20529" lon="-2.61993">
        <ele>117</ele>
        <time>2021-10-15T12:24:12.000Z</time>
      </trkpt>
      <trkpt lat="48.20529" lon="-2.61993">
        <ele>117</ele>
        <time>2021-10-15T12:24:13.000Z</time>
      </trkpt>
      <trkpt lat="48.20529" lon="-2.61993">
        <ele>117</ele>
        <time>2021-10-15T12:24:14.000Z</time>
      </trkpt>
      <trkpt lat="48.20528" lon="-2.61993">
        <ele>117</ele>
        <time>2021-10-15T12:24:15.000Z</time>
      </trkpt>
      <trkpt lat="48.20528" lon="-2.61992">
        <ele>117</ele>
        <time>2021-10-15T12:24:16.000Z</time>
      </trkpt>
      <trkpt lat="48.20528" lon="-2.61993">
        <ele>116.80000305176</ele>
        <time>2021-10-15T12:24:17.000Z</time>
      </trkpt>
      <trkpt lat="48.20527" lon="-2.61993">
        <ele>116.80000305176</ele>
        <time>2021-10-15T12:24:18.000Z</time>
      </trkpt>
      <trkpt lat="48.20527" lon="-2.61993">
        <ele>116.80000305176</ele>
        <time>2021-10-15T12:24:19.000Z</time>
      </trkpt>
      <trkpt lat="48.20527" lon="-2.61993">
        <ele>116.59999847412</ele>
        <time>2021-10-15T12:24:20.000Z</time>
      </trkpt>
      <trkpt lat="48.20526" lon="-2.61993">
        <ele>116.59999847412</ele>
        <time>2021-10-15T12:24:21.000Z</time>
      </trkpt>
      <trkpt lat="48.20526" lon="-2.61993">
        <ele>116.59999847412</ele>
        <time>2021-10-15T12:24:22.000Z</time>
      </trkpt>
      <trkpt lat="48.20526" lon="-2.61993">
        <ele>116.40000152588</ele>
        <time>2021-10-15T12:24:23.000Z</time>
      </trkpt>
      <trkpt lat="48.20526" lon="-2.61993">
        <ele>116.40000152588</ele>
        <time>2021-10-15T12:24:24.000Z</time>
      </trkpt>
      <trkpt lat="48.20526" lon="-2.61993">
        <ele>116.59999847412</ele>
        <time>2021-10-15T12:24:25.000Z</time>
      </trkpt>
      <trkpt lat="48.20526" lon="-2.61992">
        <ele>116.59999847412</ele>
        <time>2021-10-15T12:24:26.000Z</time>
      </trkpt>
      <trkpt lat="48.20526" lon="-2.61992">
        <ele>116.59999847412</ele>
        <time>2021-10-15T12:24:27.000Z</time>
      </trkpt>
      <trkpt lat="48.20526" lon="-2.61992">
        <ele>116.59999847412</ele>
        <time>2021-10-15T12:24:28.000Z</time>
      </trkpt>
      <trkpt lat="48.20527" lon="-2.61992">
        <ele>116.80000305176</ele>
        <time>2021-10-15T12:24:29.000Z</time>
      </trkpt>
      <trkpt lat="48.20527" lon="-2.61992">
        <ele>116.80000305176</ele>
        <time>2021-10-15T12:24:30.000Z</time>
      </trkpt>
      <trkpt lat="48.20527" lon="-2.61992">
        <ele>116.80000305176</ele>
        <time>2021-10-15T12:24:31.000Z</time>
      </trkpt>
      <trkpt lat="48.20529" lon="-2.6199">
        <ele>117.19999694824</ele>
        <time>2021-10-15T12:24:32.000Z</time>
      </trkpt>
      <trkpt lat="48.2053" lon="-2.61989">
        <ele>117.40000152588</ele>
        <time>2021-10-15T12:24:33.000Z</time>
      </trkpt>
      <trkpt lat="48.20531" lon="-2.61987">
        <ele>117.59999847412</ele>
        <time>2021-10-15T12:24:34.000Z</time>
      </trkpt>
      <trkpt lat="48.20531" lon="-2.61987">
        <ele>117.59999847412</ele>
        <time>2021-10-15T12:24:35.000Z</time>
      </trkpt>
      <trkpt lat="48.20531" lon="-2.61987">
        <ele>117.59999847412</ele>
        <time>2021-10-15T12:24:36.000Z</time>
      </trkpt>
      <trkpt lat="48.20531" lon="-2.61987">
        <ele>117.59999847412</ele>
        <time>2021-10-15T12:24:37.000Z</time>
      </trkpt>
      <trkpt lat="48.20531" lon="-2.61987">
        <ele>117.59999847412</ele>
        <time>2021-10-15T12:24:38.000Z</time>
      </trkpt>
      <trkpt lat="48.20531" lon="-2.61987">
        <ele>117.59999847412</ele>
        <time>2021-10-15T12:24:39.000Z</time>
      </trkpt>
      <trkpt lat="48.20531" lon="-2.61987">
        <ele>117.59999847412</ele>
        <time>2021-10-15T12:24:40.000Z</time>
      </trkpt>
      <trkpt lat="48.20531" lon="-2.61987">
        <ele>117.59999847412</ele>
        <time>2021-10-15T12:24:41.000Z</time>
      </trkpt>
      <trkpt lat="48.20531" lon="-2.61987">
        <ele>117.59999847412</ele>
        <time>2021-10-15T12:24:42.000Z</time>
      </trkpt>
      <trkpt lat="48.20531" lon="-2.61987">
        <ele>117.59999847412</ele>
        <time>2021-10-15T12:24:43.000Z</time>
      </trkpt>
      <trkpt lat="48.20531" lon="-2.61987">
        <ele>117.59999847412</ele>
        <time>2021-10-15T12:24:44.000Z</time>
      </trkpt>
      <trkpt lat="48.20531" lon="-2.61987">
        <ele>117.59999847412</ele>
        <time>2021-10-15T12:24:45.000Z</time>
      </trkpt>
      <trkpt lat="48.20531" lon="-2.61987">
        <ele>117.59999847412</ele>
        <time>2021-10-15T12:24:46.000Z</time>
      </trkpt>
      <trkpt lat="48.20532" lon="-2.61988">
        <ele>117.80000305176</ele>
        <time>2021-10-15T12:24:47.000Z</time>
      </trkpt>
      <trkpt lat="48.20532" lon="-2.61988">
        <ele>117.80000305176</ele>
        <time>2021-10-15T12:24:48.000Z</time>
      </trkpt>
      <trkpt lat="48.20532" lon="-2.61988">
        <ele>117.80000305176</ele>
        <time>2021-10-15T12:24:49.000Z</time>
      </trkpt>
      <trkpt lat="48.20532" lon="-2.61988">
        <ele>117.80000305176</ele>
        <time>2021-10-15T12:24:50.000Z</time>
      </trkpt>
      <trkpt lat="48.20532" lon="-2.61988">
        <ele>117.80000305176</ele>
        <time>2021-10-15T12:24:51.000Z</time>
      </trkpt>
      <trkpt lat="48.20532" lon="-2.61987">
        <ele>117.80000305176</ele>
        <time>2021-10-15T12:24:52.000Z</time>
      </trkpt>
      <trkpt lat="48.20532" lon="-2.61987">
        <ele>117.80000305176</ele>
        <time>2021-10-15T12:24:53.000Z</time>
      </trkpt>
      <trkpt lat="48.20533" lon="-2.61987">
        <ele>118</ele>
        <time>2021-10-15T12:24:54.000Z</time>
      </trkpt>
      <trkpt lat="48.20533" lon="-2.61986">
        <ele>118</ele>
        <time>2021-10-15T12:24:55.000Z</time>
      </trkpt>
      <trkpt lat="48.20533" lon="-2.61987">
        <ele>118</ele>
        <time>2021-10-15T12:24:56.000Z</time>
      </trkpt>
      <trkpt lat="48.20533" lon="-2.61986">
        <ele>118</ele>
        <time>2021-10-15T12:24:57.000Z</time>
      </trkpt>
      <trkpt lat="48.20533" lon="-2.61986">
        <ele>118</ele>
        <time>2021-10-15T12:24:58.000Z</time>
      </trkpt>
      <trkpt lat="48.20533" lon="-2.61986">
        <ele>118</ele>
        <time>2021-10-15T12:24:59.000Z</time>
      </trkpt>
      <trkpt lat="48.20533" lon="-2.61986">
        <ele>118</ele>
        <time>2021-10-15T12:25:00.000Z</time>
      </trkpt>
      <trkpt lat="48.20533" lon="-2.61986">
        <ele>118.19999694824</ele>
        <time>2021-10-15T12:25:01.000Z</time>
      </trkpt>
      <trkpt lat="48.20533" lon="-2.61985">
        <ele>118.19999694824</ele>
        <time>2021-10-15T12:25:02.000Z</time>
      </trkpt>
      <trkpt lat="48.20534" lon="-2.61985">
        <ele>118.19999694824</ele>
        <time>2021-10-15T12:25:03.000Z</time>
      </trkpt>
      <trkpt lat="48.20534" lon="-2.61985">
        <ele>118.19999694824</ele>
        <time>2021-10-15T12:25:04.000Z</time>
      </trkpt>
      <trkpt lat="48.20534" lon="-2.61986">
        <ele>118.19999694824</ele>
        <time>2021-10-15T12:25:05.000Z</time>
      </trkpt>
      <trkpt lat="48.20534" lon="-2.61986">
        <ele>118.19999694824</ele>
        <time>2021-10-15T12:25:06.000Z</time>
      </trkpt>
      <trkpt lat="48.20534" lon="-2.61986">
        <ele>118.19999694824</ele>
        <time>2021-10-15T12:25:07.000Z</time>
      </trkpt>
      <trkpt lat="48.20534" lon="-2.61986">
        <ele>118.19999694824</ele>
        <time>2021-10-15T12:25:08.000Z</time>
      </trkpt>
      <trkpt lat="48.20533" lon="-2.61987">
        <ele>118</ele>
        <time>2021-10-15T12:25:09.000Z</time>
      </trkpt>
      <trkpt lat="48.20533" lon="-2.61987">
        <ele>118</ele>
        <time>2021-10-15T12:25:10.000Z</time>
      </trkpt>
      <trkpt lat="48.20533" lon="-2.61987">
        <ele>118</ele>
        <time>2021-10-15T12:25:11.000Z</time>
      </trkpt>
      <trkpt lat="48.20532" lon="-2.61987">
        <ele>117.80000305176</ele>
        <time>2021-10-15T12:25:12.000Z</time>
      </trkpt>
      <trkpt lat="48.20532" lon="-2.61987">
        <ele>117.80000305176</ele>
        <time>2021-10-15T12:25:13.000Z</time>
      </trkpt>
      <trkpt lat="48.20532" lon="-2.61987">
        <ele>117.80000305176</ele>
        <time>2021-10-15T12:25:14.000Z</time>
      </trkpt>
      <trkpt lat="48.20533" lon="-2.61987">
        <ele>118</ele>
        <time>2021-10-15T12:25:15.000Z</time>
      </trkpt>
      <trkpt lat="48.20533" lon="-2.61987">
        <ele>118</ele>
        <time>2021-10-15T12:25:16.000Z</time>
      </trkpt>
      <trkpt lat="48.20533" lon="-2.61987">
        <ele>118</ele>
        <time>2021-10-15T12:25:17.000Z</time>
      </trkpt>
      <trkpt lat="48.20533" lon="-2.61987">
        <ele>118</ele>
        <time>2021-10-15T12:25:18.000Z</time>
      </trkpt>
      <trkpt lat="48.20533" lon="-2.61987">
        <ele>118</ele>
        <time>2021-10-15T12:25:19.000Z</time>
      </trkpt>
      <trkpt lat="48.20532" lon="-2.61987">
        <ele>118</ele>
        <time>2021-10-15T12:25:20.000Z</time>
      </trkpt>
      <trkpt lat="48.20532" lon="-2.61987">
        <ele>117.80000305176</ele>
        <time>2021-10-15T12:25:21.000Z</time>
      </trkpt>
      <trkpt lat="48.20532" lon="-2.61987">
        <ele>117.80000305176</ele>
        <time>2021-10-15T12:25:22.000Z</time>
      </trkpt>
      <trkpt lat="48.20533" lon="-2.61988">
        <ele>117.80000305176</ele>
        <time>2021-10-15T12:25:23.000Z</time>
      </trkpt>
      <trkpt lat="48.20533" lon="-2.61988">
        <ele>118</ele>
        <time>2021-10-15T12:25:24.000Z</time>
      </trkpt>
      <trkpt lat="48.20533" lon="-2.61988">
        <ele>118</ele>
        <time>2021-10-15T12:25:25.000Z</time>
      </trkpt>
      <trkpt lat="48.20533" lon="-2.61987">
        <ele>118</ele>
        <time>2021-10-15T12:25:26.000Z</time>
      </trkpt>
      <trkpt lat="48.20532" lon="-2.61987">
        <ele>118</ele>
        <time>2021-10-15T12:25:27.000Z</time>
      </trkpt>
      <trkpt lat="48.20532" lon="-2.61987">
        <ele>117.80000305176</ele>
        <time>2021-10-15T12:25:28.000Z</time>
      </trkpt>
      <trkpt lat="48.20531" lon="-2.61986">
        <ele>117.59999847412</ele>
        <time>2021-10-15T12:25:29.000Z</time>
      </trkpt>
      <trkpt lat="48.20531" lon="-2.61985">
        <ele>117.59999847412</ele>
        <time>2021-10-15T12:25:30.000Z</time>
      </trkpt>
      <trkpt lat="48.20529" lon="-2.61984">
        <ele>117.40000152588</ele>
        <time>2021-10-15T12:25:31.000Z</time>
      </trkpt>
      <trkpt lat="48.20528" lon="-2.61983">
        <ele>117.40000152588</ele>
        <time>2021-10-15T12:25:32.000Z</time>
      </trkpt>
      <trkpt lat="48.20527" lon="-2.61983">
        <ele>117.19999694824</ele>
        <time>2021-10-15T12:25:33.000Z</time>
      </trkpt>
      <trkpt lat="48.20527" lon="-2.61982">
        <ele>117</ele>
        <time>2021-10-15T12:25:34.000Z</time>
      </trkpt>
      <trkpt lat="48.20526" lon="-2.61981">
        <ele>117</ele>
        <time>2021-10-15T12:25:35.000Z</time>
      </trkpt>
      <trkpt lat="48.20525" lon="-2.61981">
        <ele>116.80000305176</ele>
        <time>2021-10-15T12:25:36.000Z</time>
      </trkpt>
      <trkpt lat="48.20525" lon="-2.61979">
        <ele>116.80000305176</ele>
        <time>2021-10-15T12:25:37.000Z</time>
      </trkpt>
      <trkpt lat="48.20525" lon="-2.61978">
        <ele>116.80000305176</ele>
        <time>2021-10-15T12:25:38.000Z</time>
      </trkpt>
      <trkpt lat="48.20525" lon="-2.61977">
        <ele>116.80000305176</ele>
        <time>2021-10-15T12:25:39.000Z</time>
      </trkpt>
      <trkpt lat="48.20525" lon="-2.61976">
        <ele>116.80000305176</ele>
        <time>2021-10-15T12:25:40.000Z</time>
      </trkpt>
      <trkpt lat="48.20524" lon="-2.61975">
        <ele>116.80000305176</ele>
        <time>2021-10-15T12:25:41.000Z</time>
      </trkpt>
      <trkpt lat="48.20524" lon="-2.61975">
        <ele>117</ele>
        <time>2021-10-15T12:25:42.000Z</time>
      </trkpt>
      <trkpt lat="48.20525" lon="-2.61974">
        <ele>117</ele>
        <time>2021-10-15T12:25:43.000Z</time>
      </trkpt>
      <trkpt lat="48.20524" lon="-2.61974">
        <ele>117</ele>
        <time>2021-10-15T12:25:44.000Z</time>
      </trkpt>
      <trkpt lat="48.20524" lon="-2.61974">
        <ele>116.80000305176</ele>
        <time>2021-10-15T12:25:45.000Z</time>
      </trkpt>
      <trkpt lat="48.20524" lon="-2.61974">
        <ele>116.80000305176</ele>
        <time>2021-10-15T12:25:46.000Z</time>
      </trkpt>
      <trkpt lat="48.20524" lon="-2.61973">
        <ele>116.80000305176</ele>
        <time>2021-10-15T12:25:47.000Z</time>
      </trkpt>
      <trkpt lat="48.20524" lon="-2.61974">
        <ele>116.80000305176</ele>
        <time>2021-10-15T12:25:48.000Z</time>
      </trkpt>
      <trkpt lat="48.20524" lon="-2.61973">
        <ele>116.80000305176</ele>
        <time>2021-10-15T12:25:49.000Z</time>
      </trkpt>
      <trkpt lat="48.20524" lon="-2.61973">
        <ele>116.80000305176</ele>
        <time>2021-10-15T12:25:50.000Z</time>
      </trkpt>
      <trkpt lat="48.20523" lon="-2.61974">
        <ele>116.80000305176</ele>
        <time>2021-10-15T12:25:51.000Z</time>
      </trkpt>
      <trkpt lat="48.20523" lon="-2.61974">
        <ele>116.59999847412</ele>
        <time>2021-10-15T12:25:52.000Z</time>
      </trkpt>
      <trkpt lat="48.20523" lon="-2.61975">
        <ele>116.59999847412</ele>
        <time>2021-10-15T12:25:53.000Z</time>
      </trkpt>
      <trkpt lat="48.20523" lon="-2.61975">
        <ele>116.59999847412</ele>
        <time>2021-10-15T12:25:54.000Z</time>
      </trkpt>
      <trkpt lat="48.20523" lon="-2.61975">
        <ele>116.59999847412</ele>
        <time>2021-10-15T12:25:55.000Z</time>
      </trkpt>
      <trkpt lat="48.20523" lon="-2.61975">
        <ele>116.59999847412</ele>
        <time>2021-10-15T12:25:56.000Z</time>
      </trkpt>
      <trkpt lat="48.20523" lon="-2.61975">
        <ele>116.59999847412</ele>
        <time>2021-10-15T12:25:57.000Z</time>
      </trkpt>
      <trkpt lat="48.20523" lon="-2.61975">
        <ele>116.59999847412</ele>
        <time>2021-10-15T12:25:58.000Z</time>
      </trkpt>
      <trkpt lat="48.20523" lon="-2.61975">
        <ele>116.59999847412</ele>
        <time>2021-10-15T12:25:59.000Z</time>
      </trkpt>
      <trkpt lat="48.20523" lon="-2.61975">
        <ele>116.59999847412</ele>
        <time>2021-10-15T12:26:00.000Z</time>
      </trkpt>
      <trkpt lat="48.20522" lon="-2.61975">
        <ele>116.59999847412</ele>
        <time>2021-10-15T12:26:01.000Z</time>
      </trkpt>
      <trkpt lat="48.20522" lon="-2.61975">
        <ele>116.59999847412</ele>
        <time>2021-10-15T12:26:02.000Z</time>
      </trkpt>
      <trkpt lat="48.20522" lon="-2.61975">
        <ele>116.40000152588</ele>
        <time>2021-10-15T12:26:03.000Z</time>
      </trkpt>
      <trkpt lat="48.20522" lon="-2.61976">
        <ele>116.40000152588</ele>
        <time>2021-10-15T12:26:04.000Z</time>
      </trkpt>
      <trkpt lat="48.20522" lon="-2.61976">
        <ele>116.40000152588</ele>
        <time>2021-10-15T12:26:05.000Z</time>
      </trkpt>
      <trkpt lat="48.20521" lon="-2.61976">
        <ele>116.40000152588</ele>
        <time>2021-10-15T12:26:06.000Z</time>
      </trkpt>
      <trkpt lat="48.20521" lon="-2.61976">
        <ele>116.40000152588</ele>
        <time>2021-10-15T12:26:07.000Z</time>
      </trkpt>
      <trkpt lat="48.20521" lon="-2.61976">
        <ele>116.40000152588</ele>
        <time>2021-10-15T12:26:08.000Z</time>
      </trkpt>
      <trkpt lat="48.20521" lon="-2.61976">
        <ele>116.40000152588</ele>
        <time>2021-10-15T12:26:09.000Z</time>
      </trkpt>
      <trkpt lat="48.20521" lon="-2.61976">
        <ele>116.19999694824</ele>
        <time>2021-10-15T12:26:10.000Z</time>
      </trkpt>
      <trkpt lat="48.20521" lon="-2.61975">
        <ele>116.40000152588</ele>
        <time>2021-10-15T12:26:11.000Z</time>
      </trkpt>
      <trkpt lat="48.20521" lon="-2.61975">
        <ele>116.40000152588</ele>
        <time>2021-10-15T12:26:12.000Z</time>
      </trkpt>
      <trkpt lat="48.20522" lon="-2.61975">
        <ele>116.40000152588</ele>
        <time>2021-10-15T12:26:13.000Z</time>
      </trkpt>
      <trkpt lat="48.20522" lon="-2.61975">
        <ele>116.40000152588</ele>
        <time>2021-10-15T12:26:14.000Z</time>
      </trkpt>
      <trkpt lat="48.20522" lon="-2.61975">
        <ele>116.40000152588</ele>
        <time>2021-10-15T12:26:15.000Z</time>
      </trkpt>
      <trkpt lat="48.20523" lon="-2.61976">
        <ele>116.59999847412</ele>
        <time>2021-10-15T12:26:16.000Z</time>
      </trkpt>
      <trkpt lat="48.20523" lon="-2.61976">
        <ele>116.80000305176</ele>
        <time>2021-10-15T12:26:17.000Z</time>
      </trkpt>
      <trkpt lat="48.20524" lon="-2.61975">
        <ele>116.80000305176</ele>
        <time>2021-10-15T12:26:18.000Z</time>
      </trkpt>
      <trkpt lat="48.20524" lon="-2.61974">
        <ele>116.80000305176</ele>
        <time>2021-10-15T12:26:19.000Z</time>
      </trkpt>
      <trkpt lat="48.20524" lon="-2.61974">
        <ele>116.80000305176</ele>
        <time>2021-10-15T12:26:20.000Z</time>
      </trkpt>
      <trkpt lat="48.20524" lon="-2.61974">
        <ele>116.80000305176</ele>
        <time>2021-10-15T12:26:21.000Z</time>
      </trkpt>
      <trkpt lat="48.20524" lon="-2.61974">
        <ele>116.80000305176</ele>
        <time>2021-10-15T12:26:22.000Z</time>
      </trkpt>
      <trkpt lat="48.20524" lon="-2.61975">
        <ele>116.80000305176</ele>
        <time>2021-10-15T12:26:23.000Z</time>
      </trkpt>
      <trkpt lat="48.20523" lon="-2.61975">
        <ele>116.59999847412</ele>
        <time>2021-10-15T12:26:24.000Z</time>
      </trkpt>
      <trkpt lat="48.20523" lon="-2.61976">
        <ele>116.59999847412</ele>
        <time>2021-10-15T12:26:25.000Z</time>
      </trkpt>
      <trkpt lat="48.20523" lon="-2.61976">
        <ele>116.59999847412</ele>
        <time>2021-10-15T12:26:26.000Z</time>
      </trkpt>
      <trkpt lat="48.20523" lon="-2.61977">
        <ele>116.59999847412</ele>
        <time>2021-10-15T12:26:27.000Z</time>
      </trkpt>
      <trkpt lat="48.20522" lon="-2.61977">
        <ele>116.40000152588</ele>
        <time>2021-10-15T12:26:28.000Z</time>
      </trkpt>
      <trkpt lat="48.20522" lon="-2.61976">
        <ele>116.40000152588</ele>
        <time>2021-10-15T12:26:29.000Z</time>
      </trkpt>
      <trkpt lat="48.20521" lon="-2.61976">
        <ele>116.19999694824</ele>
        <time>2021-10-15T12:26:30.000Z</time>
      </trkpt>
      <trkpt lat="48.20521" lon="-2.61976">
        <ele>116.19999694824</ele>
        <time>2021-10-15T12:26:31.000Z</time>
      </trkpt>
      <trkpt lat="48.20521" lon="-2.61976">
        <ele>116.19999694824</ele>
        <time>2021-10-15T12:26:32.000Z</time>
      </trkpt>
      <trkpt lat="48.20521" lon="-2.61975">
        <ele>116.19999694824</ele>
        <time>2021-10-15T12:26:33.000Z</time>
      </trkpt>
      <trkpt lat="48.20521" lon="-2.61975">
        <ele>116.19999694824</ele>
        <time>2021-10-15T12:26:34.000Z</time>
      </trkpt>
      <trkpt lat="48.2052" lon="-2.61975">
        <ele>116.19999694824</ele>
        <time>2021-10-15T12:26:35.000Z</time>
      </trkpt>
      <trkpt lat="48.2052" lon="-2.61975">
        <ele>116.19999694824</ele>
        <time>2021-10-15T12:26:36.000Z</time>
      </trkpt>
      <trkpt lat="48.2052" lon="-2.61974">
        <ele>116</ele>
        <time>2021-10-15T12:26:37.000Z</time>
      </trkpt>
      <trkpt lat="48.2052" lon="-2.61974">
        <ele>116</ele>
        <time>2021-10-15T12:26:38.000Z</time>
      </trkpt>
      <trkpt lat="48.2052" lon="-2.61974">
        <ele>116</ele>
        <time>2021-10-15T12:26:39.000Z</time>
      </trkpt>
      <trkpt lat="48.2052" lon="-2.61974">
        <ele>116</ele>
        <time>2021-10-15T12:26:40.000Z</time>
      </trkpt>
      <trkpt lat="48.2052" lon="-2.61974">
        <ele>116</ele>
        <time>2021-10-15T12:26:41.000Z</time>
      </trkpt>
      <trkpt lat="48.20519" lon="-2.61973">
        <ele>116</ele>
        <time>2021-10-15T12:26:42.000Z</time>
      </trkpt>
      <trkpt lat="48.20519" lon="-2.61972">
        <ele>115.80000305176</ele>
        <time>2021-10-15T12:26:43.000Z</time>
      </trkpt>
      <trkpt lat="48.20518" lon="-2.61971">
        <ele>115.80000305176</ele>
        <time>2021-10-15T12:26:44.000Z</time>
      </trkpt>
      <trkpt lat="48.20517" lon="-2.6197">
        <ele>115.59999847412</ele>
        <time>2021-10-15T12:26:45.000Z</time>
      </trkpt>
      <trkpt lat="48.20516" lon="-2.61967">
        <ele>115.40000152588</ele>
        <time>2021-10-15T12:26:46.000Z</time>
      </trkpt>
      <trkpt lat="48.20515" lon="-2.61965">
        <ele>115.19999694824</ele>
        <time>2021-10-15T12:26:47.000Z</time>
      </trkpt>
      <trkpt lat="48.20513" lon="-2.61963">
        <ele>115.19999694824</ele>
        <time>2021-10-15T12:26:48.000Z</time>
      </trkpt>
      <trkpt lat="48.20512" lon="-2.6196">
        <ele>114.80000305176</ele>
        <time>2021-10-15T12:26:49.000Z</time>
      </trkpt>
      <trkpt lat="48.20511" lon="-2.61957">
        <ele>114.80000305176</ele>
        <time>2021-10-15T12:26:50.000Z</time>
      </trkpt>
      <trkpt lat="48.20509" lon="-2.61953">
        <ele>114.59999847412</ele>
        <time>2021-10-15T12:26:51.000Z</time>
      </trkpt>
      <trkpt lat="48.20507" lon="-2.61946">
        <ele>114.19999694824</ele>
        <time>2021-10-15T12:26:52.000Z</time>
      </trkpt>
      <trkpt lat="48.20507" lon="-2.61946">
        <ele>114.19999694824</ele>
        <time>2021-10-15T12:26:53.000Z</time>
      </trkpt>
      <trkpt lat="48.20506" lon="-2.61942">
        <ele>114.19999694824</ele>
        <time>2021-10-15T12:26:54.000Z</time>
      </trkpt>
      <trkpt lat="48.20506" lon="-2.61939">
        <ele>114</ele>
        <time>2021-10-15T12:26:55.000Z</time>
      </trkpt>
      <trkpt lat="48.20505" lon="-2.61935">
        <ele>113.80000305176</ele>
        <time>2021-10-15T12:26:56.000Z</time>
      </trkpt>
      <trkpt lat="48.20504" lon="-2.61931">
        <ele>113.80000305176</ele>
        <time>2021-10-15T12:26:57.000Z</time>
      </trkpt>
      <trkpt lat="48.20503" lon="-2.61928">
        <ele>114</ele>
        <time>2021-10-15T12:26:58.000Z</time>
      </trkpt>
      <trkpt lat="48.20502" lon="-2.61924">
        <ele>114</ele>
        <time>2021-10-15T12:26:59.000Z</time>
      </trkpt>
      <trkpt lat="48.20501" lon="-2.6192">
        <ele>114</ele>
        <time>2021-10-15T12:27:00.000Z</time>
      </trkpt>
      <trkpt lat="48.20501" lon="-2.61916">
        <ele>114</ele>
        <time>2021-10-15T12:27:01.000Z</time>
      </trkpt>
      <trkpt lat="48.20499" lon="-2.61912">
        <ele>114</ele>
        <time>2021-10-15T12:27:02.000Z</time>
      </trkpt>
      <trkpt lat="48.20497" lon="-2.61908">
        <ele>114</ele>
        <time>2021-10-15T12:27:03.000Z</time>
      </trkpt>
      <trkpt lat="48.20495" lon="-2.61903">
        <ele>114</ele>
        <time>2021-10-15T12:27:04.000Z</time>
      </trkpt>
      <trkpt lat="48.20492" lon="-2.61899">
        <ele>113.80000305176</ele>
        <time>2021-10-15T12:27:05.000Z</time>
      </trkpt>
      <trkpt lat="48.20489" lon="-2.61896">
        <ele>113.80000305176</ele>
        <time>2021-10-15T12:27:06.000Z</time>
      </trkpt>
      <trkpt lat="48.20486" lon="-2.61892">
        <ele>113.80000305176</ele>
        <time>2021-10-15T12:27:07.000Z</time>
      </trkpt>
      <trkpt lat="48.20482" lon="-2.61888">
        <ele>114</ele>
        <time>2021-10-15T12:27:08.000Z</time>
      </trkpt>
      <trkpt lat="48.20479" lon="-2.61884">
        <ele>114.19999694824</ele>
        <time>2021-10-15T12:27:09.000Z</time>
      </trkpt>
      <trkpt lat="48.20476" lon="-2.6188">
        <ele>114.19999694824</ele>
        <time>2021-10-15T12:27:10.000Z</time>
      </trkpt>
      <trkpt lat="48.20473" lon="-2.61875">
        <ele>114.19999694824</ele>
        <time>2021-10-15T12:27:11.000Z</time>
      </trkpt>
      <trkpt lat="48.2047" lon="-2.6187">
        <ele>114.19999694824</ele>
        <time>2021-10-15T12:27:12.000Z</time>
      </trkpt>
      <trkpt lat="48.20469" lon="-2.61865">
        <ele>114.40000152588</ele>
        <time>2021-10-15T12:27:13.000Z</time>
      </trkpt>
      <trkpt lat="48.20467" lon="-2.61859">
        <ele>114.40000152588</ele>
        <time>2021-10-15T12:27:14.000Z</time>
      </trkpt>
      <trkpt lat="48.20466" lon="-2.61855">
        <ele>114.40000152588</ele>
        <time>2021-10-15T12:27:15.000Z</time>
      </trkpt>
      <trkpt lat="48.20465" lon="-2.6185">
        <ele>114.59999847412</ele>
        <time>2021-10-15T12:27:16.000Z</time>
      </trkpt>
      <trkpt lat="48.20464" lon="-2.61846">
        <ele>114.59999847412</ele>
        <time>2021-10-15T12:27:17.000Z</time>
      </trkpt>
      <trkpt lat="48.20463" lon="-2.61842">
        <ele>114.80000305176</ele>
        <time>2021-10-15T12:27:18.000Z</time>
      </trkpt>
      <trkpt lat="48.20462" lon="-2.61837">
        <ele>114.80000305176</ele>
        <time>2021-10-15T12:27:19.000Z</time>
      </trkpt>
      <trkpt lat="48.20461" lon="-2.61832">
        <ele>115</ele>
        <time>2021-10-15T12:27:20.000Z</time>
      </trkpt>
      <trkpt lat="48.20459" lon="-2.61827">
        <ele>115</ele>
        <time>2021-10-15T12:27:21.000Z</time>
      </trkpt>
      <trkpt lat="48.20459" lon="-2.61822">
        <ele>115.19999694824</ele>
        <time>2021-10-15T12:27:22.000Z</time>
      </trkpt>
      <trkpt lat="48.20458" lon="-2.61817">
        <ele>115.19999694824</ele>
        <time>2021-10-15T12:27:23.000Z</time>
      </trkpt>
      <trkpt lat="48.20457" lon="-2.61812">
        <ele>115.19999694824</ele>
        <time>2021-10-15T12:27:24.000Z</time>
      </trkpt>
      <trkpt lat="48.20456" lon="-2.61807">
        <ele>115.19999694824</ele>
        <time>2021-10-15T12:27:25.000Z</time>
      </trkpt>
      <trkpt lat="48.20456" lon="-2.61803">
        <ele>115.59999847412</ele>
        <time>2021-10-15T12:27:26.000Z</time>
      </trkpt>
      <trkpt lat="48.20455" lon="-2.61798">
        <ele>115.80000305176</ele>
        <time>2021-10-15T12:27:27.000Z</time>
      </trkpt>
      <trkpt lat="48.20454" lon="-2.61793">
        <ele>116</ele>
        <time>2021-10-15T12:27:28.000Z</time>
      </trkpt>
      <trkpt lat="48.20453" lon="-2.61789">
        <ele>116.19999694824</ele>
        <time>2021-10-15T12:27:29.000Z</time>
      </trkpt>
      <trkpt lat="48.20452" lon="-2.61784">
        <ele>116.59999847412</ele>
        <time>2021-10-15T12:27:30.000Z</time>
      </trkpt>
      <trkpt lat="48.20452" lon="-2.6178">
        <ele>116.80000305176</ele>
        <time>2021-10-15T12:27:31.000Z</time>
      </trkpt>
      <trkpt lat="48.20452" lon="-2.61776">
        <ele>117</ele>
        <time>2021-10-15T12:27:32.000Z</time>
      </trkpt>
      <trkpt lat="48.20452" lon="-2.61772">
        <ele>117.40000152588</ele>
        <time>2021-10-15T12:27:33.000Z</time>
      </trkpt>
      <trkpt lat="48.20451" lon="-2.61768">
        <ele>117.59999847412</ele>
        <time>2021-10-15T12:27:34.000Z</time>
      </trkpt>
      <trkpt lat="48.20452" lon="-2.61764">
        <ele>118</ele>
        <time>2021-10-15T12:27:35.000Z</time>
      </trkpt>
      <trkpt lat="48.20452" lon="-2.6176">
        <ele>118.19999694824</ele>
        <time>2021-10-15T12:27:36.000Z</time>
      </trkpt>
      <trkpt lat="48.20453" lon="-2.61756">
        <ele>118.59999847412</ele>
        <time>2021-10-15T12:27:37.000Z</time>
      </trkpt>
      <trkpt lat="48.20453" lon="-2.61752">
        <ele>119</ele>
        <time>2021-10-15T12:27:38.000Z</time>
      </trkpt>
      <trkpt lat="48.20454" lon="-2.61747">
        <ele>119.40000152588</ele>
        <time>2021-10-15T12:27:39.000Z</time>
      </trkpt>
      <trkpt lat="48.20455" lon="-2.61743">
        <ele>119.80000305176</ele>
        <time>2021-10-15T12:27:40.000Z</time>
      </trkpt>
      <trkpt lat="48.20456" lon="-2.61738">
        <ele>120.19999694824</ele>
        <time>2021-10-15T12:27:41.000Z</time>
      </trkpt>
      <trkpt lat="48.20457" lon="-2.61734">
        <ele>120.59999847412</ele>
        <time>2021-10-15T12:27:42.000Z</time>
      </trkpt>
      <trkpt lat="48.20458" lon="-2.6173">
        <ele>121</ele>
        <time>2021-10-15T12:27:43.000Z</time>
      </trkpt>
      <trkpt lat="48.20458" lon="-2.61725">
        <ele>121.40000152588</ele>
        <time>2021-10-15T12:27:44.000Z</time>
      </trkpt>
      <trkpt lat="48.20459" lon="-2.61721">
        <ele>121.80000305176</ele>
        <time>2021-10-15T12:27:45.000Z</time>
      </trkpt>
      <trkpt lat="48.20459" lon="-2.61717">
        <ele>122.19999694824</ele>
        <time>2021-10-15T12:27:46.000Z</time>
      </trkpt>
      <trkpt lat="48.20459" lon="-2.61712">
        <ele>122.40000152588</ele>
        <time>2021-10-15T12:27:47.000Z</time>
      </trkpt>
      <trkpt lat="48.20459" lon="-2.61708">
        <ele>122.59999847412</ele>
        <time>2021-10-15T12:27:48.000Z</time>
      </trkpt>
      <trkpt lat="48.20458" lon="-2.61704">
        <ele>123</ele>
        <time>2021-10-15T12:27:49.000Z</time>
      </trkpt>
      <trkpt lat="48.20458" lon="-2.617">
        <ele>123.19999694824</ele>
        <time>2021-10-15T12:27:50.000Z</time>
      </trkpt>
      <trkpt lat="48.20458" lon="-2.61696">
        <ele>123.40000152588</ele>
        <time>2021-10-15T12:27:51.000Z</time>
      </trkpt>
      <trkpt lat="48.20458" lon="-2.61691">
        <ele>123.59999847412</ele>
        <time>2021-10-15T12:27:52.000Z</time>
      </trkpt>
      <trkpt lat="48.20458" lon="-2.61687">
        <ele>123.80000305176</ele>
        <time>2021-10-15T12:27:53.000Z</time>
      </trkpt>
      <trkpt lat="48.20459" lon="-2.61682">
        <ele>124</ele>
        <time>2021-10-15T12:27:54.000Z</time>
      </trkpt>
      <trkpt lat="48.20459" lon="-2.61678">
        <ele>124.19999694824</ele>
        <time>2021-10-15T12:27:55.000Z</time>
      </trkpt>
      <trkpt lat="48.20459" lon="-2.61673">
        <ele>124.40000152588</ele>
        <time>2021-10-15T12:27:56.000Z</time>
      </trkpt>
      <trkpt lat="48.20459" lon="-2.61668">
        <ele>124.59999847412</ele>
        <time>2021-10-15T12:27:57.000Z</time>
      </trkpt>
      <trkpt lat="48.2046" lon="-2.61664">
        <ele>124.59999847412</ele>
        <time>2021-10-15T12:27:58.000Z</time>
      </trkpt>
      <trkpt lat="48.2046" lon="-2.61659">
        <ele>124.59999847412</ele>
        <time>2021-10-15T12:27:59.000Z</time>
      </trkpt>
      <trkpt lat="48.2046" lon="-2.61655">
        <ele>124.59999847412</ele>
        <time>2021-10-15T12:28:00.000Z</time>
      </trkpt>
      <trkpt lat="48.2046" lon="-2.61651">
        <ele>124.59999847412</ele>
        <time>2021-10-15T12:28:01.000Z</time>
      </trkpt>
      <trkpt lat="48.20461" lon="-2.61646">
        <ele>124.59999847412</ele>
        <time>2021-10-15T12:28:02.000Z</time>
      </trkpt>
      <trkpt lat="48.20461" lon="-2.61641">
        <ele>124.80000305176</ele>
        <time>2021-10-15T12:28:03.000Z</time>
      </trkpt>
      <trkpt lat="48.20461" lon="-2.61636">
        <ele>125</ele>
        <time>2021-10-15T12:28:04.000Z</time>
      </trkpt>
      <trkpt lat="48.20462" lon="-2.61631">
        <ele>125.19999694824</ele>
        <time>2021-10-15T12:28:05.000Z</time>
      </trkpt>
      <trkpt lat="48.20463" lon="-2.61626">
        <ele>125.40000152588</ele>
        <time>2021-10-15T12:28:06.000Z</time>
      </trkpt>
      <trkpt lat="48.20464" lon="-2.61621">
        <ele>125.80000305176</ele>
        <time>2021-10-15T12:28:07.000Z</time>
      </trkpt>
      <trkpt lat="48.20465" lon="-2.61615">
        <ele>126</ele>
        <time>2021-10-15T12:28:08.000Z</time>
      </trkpt>
      <trkpt lat="48.20466" lon="-2.6161">
        <ele>126</ele>
        <time>2021-10-15T12:28:09.000Z</time>
      </trkpt>
      <trkpt lat="48.20468" lon="-2.61604">
        <ele>125.80000305176</ele>
        <time>2021-10-15T12:28:10.000Z</time>
      </trkpt>
      <trkpt lat="48.2047" lon="-2.61599">
        <ele>125.59999847412</ele>
        <time>2021-10-15T12:28:11.000Z</time>
      </trkpt>
      <trkpt lat="48.20472" lon="-2.61593">
        <ele>125.59999847412</ele>
        <time>2021-10-15T12:28:12.000Z</time>
      </trkpt>
      <trkpt lat="48.20474" lon="-2.61589">
        <ele>125.40000152588</ele>
        <time>2021-10-15T12:28:13.000Z</time>
      </trkpt>
      <trkpt lat="48.20475" lon="-2.61584">
        <ele>125.40000152588</ele>
        <time>2021-10-15T12:28:14.000Z</time>
      </trkpt>
      <trkpt lat="48.20478" lon="-2.61581">
        <ele>125.19999694824</ele>
        <time>2021-10-15T12:28:15.000Z</time>
      </trkpt>
      <trkpt lat="48.2048" lon="-2.61579">
        <ele>125.40000152588</ele>
        <time>2021-10-15T12:28:16.000Z</time>
      </trkpt>
      <trkpt lat="48.20483" lon="-2.61578">
        <ele>125.40000152588</ele>
        <time>2021-10-15T12:28:17.000Z</time>
      </trkpt>
      <trkpt lat="48.20487" lon="-2.61578">
        <ele>125.59999847412</ele>
        <time>2021-10-15T12:28:18.000Z</time>
      </trkpt>
      <trkpt lat="48.20491" lon="-2.61578">
        <ele>125.59999847412</ele>
        <time>2021-10-15T12:28:19.000Z</time>
      </trkpt>
      <trkpt lat="48.20494" lon="-2.61577">
        <ele>125.80000305176</ele>
        <time>2021-10-15T12:28:20.000Z</time>
      </trkpt>
      <trkpt lat="48.20497" lon="-2.61574">
        <ele>126</ele>
        <time>2021-10-15T12:28:21.000Z</time>
      </trkpt>
      <trkpt lat="48.205" lon="-2.61571">
        <ele>126</ele>
        <time>2021-10-15T12:28:22.000Z</time>
      </trkpt>
      <trkpt lat="48.20502" lon="-2.61566">
        <ele>126</ele>
        <time>2021-10-15T12:28:23.000Z</time>
      </trkpt>
      <trkpt lat="48.20505" lon="-2.61562">
        <ele>126</ele>
        <time>2021-10-15T12:28:24.000Z</time>
      </trkpt>
      <trkpt lat="48.20507" lon="-2.61558">
        <ele>126</ele>
        <time>2021-10-15T12:28:25.000Z</time>
      </trkpt>
      <trkpt lat="48.20509" lon="-2.61553">
        <ele>126.19999694824</ele>
        <time>2021-10-15T12:28:26.000Z</time>
      </trkpt>
      <trkpt lat="48.20511" lon="-2.61549">
        <ele>126.40000152588</ele>
        <time>2021-10-15T12:28:27.000Z</time>
      </trkpt>
      <trkpt lat="48.20513" lon="-2.61545">
        <ele>126.59999847412</ele>
        <time>2021-10-15T12:28:28.000Z</time>
      </trkpt>
      <trkpt lat="48.20515" lon="-2.6154">
        <ele>126.59999847412</ele>
        <time>2021-10-15T12:28:29.000Z</time>
      </trkpt>
      <trkpt lat="48.20518" lon="-2.61536">
        <ele>126.80000305176</ele>
        <time>2021-10-15T12:28:30.000Z</time>
      </trkpt>
      <trkpt lat="48.2052" lon="-2.61531">
        <ele>127</ele>
        <time>2021-10-15T12:28:31.000Z</time>
      </trkpt>
      <trkpt lat="48.20522" lon="-2.61525">
        <ele>127</ele>
        <time>2021-10-15T12:28:32.000Z</time>
      </trkpt>
      <trkpt lat="48.20525" lon="-2.6152">
        <ele>127.19999694824</ele>
        <time>2021-10-15T12:28:33.000Z</time>
      </trkpt>
      <trkpt lat="48.20527" lon="-2.61514">
        <ele>127.19999694824</ele>
        <time>2021-10-15T12:28:34.000Z</time>
      </trkpt>
      <trkpt lat="48.20529" lon="-2.61508">
        <ele>127.19999694824</ele>
        <time>2021-10-15T12:28:35.000Z</time>
      </trkpt>
      <trkpt lat="48.20532" lon="-2.61502">
        <ele>127.19999694824</ele>
        <time>2021-10-15T12:28:36.000Z</time>
      </trkpt>
      <trkpt lat="48.20534" lon="-2.61496">
        <ele>127.19999694824</ele>
        <time>2021-10-15T12:28:37.000Z</time>
      </trkpt>
      <trkpt lat="48.20537" lon="-2.6149">
        <ele>127.40000152588</ele>
        <time>2021-10-15T12:28:38.000Z</time>
      </trkpt>
      <trkpt lat="48.20539" lon="-2.61484">
        <ele>127.40000152588</ele>
        <time>2021-10-15T12:28:39.000Z</time>
      </trkpt>
      <trkpt lat="48.20542" lon="-2.61479">
        <ele>127.59999847412</ele>
        <time>2021-10-15T12:28:40.000Z</time>
      </trkpt>
      <trkpt lat="48.20544" lon="-2.61475">
        <ele>127.80000305176</ele>
        <time>2021-10-15T12:28:41.000Z</time>
      </trkpt>
      <trkpt lat="48.20547" lon="-2.61472">
        <ele>128.19999694824</ele>
        <time>2021-10-15T12:28:42.000Z</time>
      </trkpt>
      <trkpt lat="48.20551" lon="-2.6147">
        <ele>128.19999694824</ele>
        <time>2021-10-15T12:28:43.000Z</time>
      </trkpt>
      <trkpt lat="48.20554" lon="-2.61469">
        <ele>128.39999389648</ele>
        <time>2021-10-15T12:28:44.000Z</time>
      </trkpt>
      <trkpt lat="48.20557" lon="-2.61468">
        <ele>128.80000305176</ele>
        <time>2021-10-15T12:28:45.000Z</time>
      </trkpt>
      <trkpt lat="48.2056" lon="-2.61468">
        <ele>129</ele>
        <time>2021-10-15T12:28:46.000Z</time>
      </trkpt>
      <trkpt lat="48.20563" lon="-2.61467">
        <ele>129.39999389648</ele>
        <time>2021-10-15T12:28:47.000Z</time>
      </trkpt>
      <trkpt lat="48.20566" lon="-2.61467">
        <ele>129.80000305176</ele>
        <time>2021-10-15T12:28:48.000Z</time>
      </trkpt>
      <trkpt lat="48.20569" lon="-2.61467">
        <ele>130</ele>
        <time>2021-10-15T12:28:49.000Z</time>
      </trkpt>
      <trkpt lat="48.20572" lon="-2.61468">
        <ele>130.39999389648</ele>
        <time>2021-10-15T12:28:50.000Z</time>
      </trkpt>
      <trkpt lat="48.20575" lon="-2.61469">
        <ele>130.80000305176</ele>
        <time>2021-10-15T12:28:51.000Z</time>
      </trkpt>
      <trkpt lat="48.20582" lon="-2.61472">
        <ele>131.39999389648</ele>
        <time>2021-10-15T12:28:52.000Z</time>
      </trkpt>
      <trkpt lat="48.20582" lon="-2.61472">
        <ele>131.39999389648</ele>
        <time>2021-10-15T12:28:53.000Z</time>
      </trkpt>
      <trkpt lat="48.20586" lon="-2.61475">
        <ele>131.80000305176</ele>
        <time>2021-10-15T12:28:54.000Z</time>
      </trkpt>
      <trkpt lat="48.2059" lon="-2.61477">
        <ele>132</ele>
        <time>2021-10-15T12:28:55.000Z</time>
      </trkpt>
      <trkpt lat="48.20594" lon="-2.6148">
        <ele>132.39999389648</ele>
        <time>2021-10-15T12:28:56.000Z</time>
      </trkpt>
      <trkpt lat="48.20598" lon="-2.61483">
        <ele>132.60000610352</ele>
        <time>2021-10-15T12:28:57.000Z</time>
      </trkpt>
      <trkpt lat="48.20602" lon="-2.61485">
        <ele>133</ele>
        <time>2021-10-15T12:28:58.000Z</time>
      </trkpt>
      <trkpt lat="48.20606" lon="-2.61488">
        <ele>133.19999694824</ele>
        <time>2021-10-15T12:28:59.000Z</time>
      </trkpt>
      <trkpt lat="48.2061" lon="-2.6149">
        <ele>133.19999694824</ele>
        <time>2021-10-15T12:29:00.000Z</time>
      </trkpt>
      <trkpt lat="48.20614" lon="-2.61492">
        <ele>133.39999389648</ele>
        <time>2021-10-15T12:29:01.000Z</time>
      </trkpt>
      <trkpt lat="48.20617" lon="-2.61493">
        <ele>133.60000610352</ele>
        <time>2021-10-15T12:29:02.000Z</time>
      </trkpt>
      <trkpt lat="48.20621" lon="-2.61495">
        <ele>133.60000610352</ele>
        <time>2021-10-15T12:29:03.000Z</time>
      </trkpt>
      <trkpt lat="48.20624" lon="-2.61496">
        <ele>133.80000305176</ele>
        <time>2021-10-15T12:29:04.000Z</time>
      </trkpt>
      <trkpt lat="48.20627" lon="-2.61498">
        <ele>133.80000305176</ele>
        <time>2021-10-15T12:29:05.000Z</time>
      </trkpt>
      <trkpt lat="48.2063" lon="-2.615">
        <ele>134</ele>
        <time>2021-10-15T12:29:06.000Z</time>
      </trkpt>
      <trkpt lat="48.20633" lon="-2.61503">
        <ele>134.19999694824</ele>
        <time>2021-10-15T12:29:07.000Z</time>
      </trkpt>
      <trkpt lat="48.20637" lon="-2.61505">
        <ele>134.39999389648</ele>
        <time>2021-10-15T12:29:08.000Z</time>
      </trkpt>
      <trkpt lat="48.2064" lon="-2.61507">
        <ele>134.60000610352</ele>
        <time>2021-10-15T12:29:09.000Z</time>
      </trkpt>
      <trkpt lat="48.20644" lon="-2.61509">
        <ele>135</ele>
        <time>2021-10-15T12:29:10.000Z</time>
      </trkpt>
      <trkpt lat="48.20647" lon="-2.61511">
        <ele>135.19999694824</ele>
        <time>2021-10-15T12:29:11.000Z</time>
      </trkpt>
      <trkpt lat="48.2065" lon="-2.61514">
        <ele>135.39999389648</ele>
        <time>2021-10-15T12:29:12.000Z</time>
      </trkpt>
      <trkpt lat="48.20654" lon="-2.61516">
        <ele>135.39999389648</ele>
        <time>2021-10-15T12:29:13.000Z</time>
      </trkpt>
      <trkpt lat="48.20657" lon="-2.61519">
        <ele>135.39999389648</ele>
        <time>2021-10-15T12:29:14.000Z</time>
      </trkpt>
      <trkpt lat="48.2066" lon="-2.61522">
        <ele>135.39999389648</ele>
        <time>2021-10-15T12:29:15.000Z</time>
      </trkpt>
      <trkpt lat="48.20664" lon="-2.61525">
        <ele>135.60000610352</ele>
        <time>2021-10-15T12:29:16.000Z</time>
      </trkpt>
      <trkpt lat="48.20667" lon="-2.61527">
        <ele>135.80000305176</ele>
        <time>2021-10-15T12:29:17.000Z</time>
      </trkpt>
      <trkpt lat="48.20671" lon="-2.61531">
        <ele>136</ele>
        <time>2021-10-15T12:29:18.000Z</time>
      </trkpt>
      <trkpt lat="48.20674" lon="-2.61534">
        <ele>136.19999694824</ele>
        <time>2021-10-15T12:29:19.000Z</time>
      </trkpt>
      <trkpt lat="48.20678" lon="-2.61538">
        <ele>136.60000610352</ele>
        <time>2021-10-15T12:29:20.000Z</time>
      </trkpt>
      <trkpt lat="48.20681" lon="-2.61542">
        <ele>136.80000305176</ele>
        <time>2021-10-15T12:29:21.000Z</time>
      </trkpt>
      <trkpt lat="48.20684" lon="-2.61546">
        <ele>137</ele>
        <time>2021-10-15T12:29:22.000Z</time>
      </trkpt>
      <trkpt lat="48.20687" lon="-2.6155">
        <ele>137</ele>
        <time>2021-10-15T12:29:23.000Z</time>
      </trkpt>
      <trkpt lat="48.2069" lon="-2.61554">
        <ele>137.19999694824</ele>
        <time>2021-10-15T12:29:24.000Z</time>
      </trkpt>
      <trkpt lat="48.20694" lon="-2.61558">
        <ele>137.19999694824</ele>
        <time>2021-10-15T12:29:25.000Z</time>
      </trkpt>
      <trkpt lat="48.20696" lon="-2.61562">
        <ele>137.39999389648</ele>
        <time>2021-10-15T12:29:26.000Z</time>
      </trkpt>
      <trkpt lat="48.20699" lon="-2.61567">
        <ele>137.80000305176</ele>
        <time>2021-10-15T12:29:27.000Z</time>
      </trkpt>
      <trkpt lat="48.20702" lon="-2.61571">
        <ele>138</ele>
        <time>2021-10-15T12:29:28.000Z</time>
      </trkpt>
      <trkpt lat="48.20705" lon="-2.61575">
        <ele>138.19999694824</ele>
        <time>2021-10-15T12:29:29.000Z</time>
      </trkpt>
      <trkpt lat="48.20708" lon="-2.6158">
        <ele>138.60000610352</ele>
        <time>2021-10-15T12:29:30.000Z</time>
      </trkpt>
      <trkpt lat="48.20714" lon="-2.61588">
        <ele>139</ele>
        <time>2021-10-15T12:29:31.000Z</time>
      </trkpt>
      <trkpt lat="48.20714" lon="-2.61588">
        <ele>139</ele>
        <time>2021-10-15T12:29:32.000Z</time>
      </trkpt>
      <trkpt lat="48.20717" lon="-2.61592">
        <ele>139</ele>
        <time>2021-10-15T12:29:33.000Z</time>
      </trkpt>
      <trkpt lat="48.2072" lon="-2.61596">
        <ele>139</ele>
        <time>2021-10-15T12:29:34.000Z</time>
      </trkpt>
      <trkpt lat="48.20723" lon="-2.61599">
        <ele>139</ele>
        <time>2021-10-15T12:29:35.000Z</time>
      </trkpt>
      <trkpt lat="48.20726" lon="-2.61602">
        <ele>139</ele>
        <time>2021-10-15T12:29:36.000Z</time>
      </trkpt>
      <trkpt lat="48.20729" lon="-2.61605">
        <ele>139</ele>
        <time>2021-10-15T12:29:37.000Z</time>
      </trkpt>
      <trkpt lat="48.20731" lon="-2.61608">
        <ele>139</ele>
        <time>2021-10-15T12:29:38.000Z</time>
      </trkpt>
      <trkpt lat="48.20734" lon="-2.6161">
        <ele>139</ele>
        <time>2021-10-15T12:29:39.000Z</time>
      </trkpt>
      <trkpt lat="48.20737" lon="-2.61613">
        <ele>139</ele>
        <time>2021-10-15T12:29:40.000Z</time>
      </trkpt>
      <trkpt lat="48.2074" lon="-2.61616">
        <ele>139</ele>
        <time>2021-10-15T12:29:41.000Z</time>
      </trkpt>
      <trkpt lat="48.20743" lon="-2.61619">
        <ele>139</ele>
        <time>2021-10-15T12:29:42.000Z</time>
      </trkpt>
      <trkpt lat="48.20746" lon="-2.61623">
        <ele>139</ele>
        <time>2021-10-15T12:29:43.000Z</time>
      </trkpt>
      <trkpt lat="48.2075" lon="-2.61626">
        <ele>139</ele>
        <time>2021-10-15T12:29:44.000Z</time>
      </trkpt>
      <trkpt lat="48.20753" lon="-2.6163">
        <ele>139</ele>
        <time>2021-10-15T12:29:45.000Z</time>
      </trkpt>
      <trkpt lat="48.20756" lon="-2.61633">
        <ele>138.80000305176</ele>
        <time>2021-10-15T12:29:46.000Z</time>
      </trkpt>
      <trkpt lat="48.2076" lon="-2.61637">
        <ele>138.60000610352</ele>
        <time>2021-10-15T12:29:47.000Z</time>
      </trkpt>
      <trkpt lat="48.20763" lon="-2.6164">
        <ele>138.19999694824</ele>
        <time>2021-10-15T12:29:48.000Z</time>
      </trkpt>
      <trkpt lat="48.20767" lon="-2.61644">
        <ele>138</ele>
        <time>2021-10-15T12:29:49.000Z</time>
      </trkpt>
      <trkpt lat="48.20771" lon="-2.61647">
        <ele>137.80000305176</ele>
        <time>2021-10-15T12:29:50.000Z</time>
      </trkpt>
      <trkpt lat="48.20775" lon="-2.61651">
        <ele>137.60000610352</ele>
        <time>2021-10-15T12:29:51.000Z</time>
      </trkpt>
      <trkpt lat="48.20778" lon="-2.61655">
        <ele>137.60000610352</ele>
        <time>2021-10-15T12:29:52.000Z</time>
      </trkpt>
      <trkpt lat="48.20782" lon="-2.61659">
        <ele>137.39999389648</ele>
        <time>2021-10-15T12:29:53.000Z</time>
      </trkpt>
      <trkpt lat="48.20786" lon="-2.61663">
        <ele>137.60000610352</ele>
        <time>2021-10-15T12:29:54.000Z</time>
      </trkpt>
      <trkpt lat="48.2079" lon="-2.61668">
        <ele>137.80000305176</ele>
        <time>2021-10-15T12:29:55.000Z</time>
      </trkpt>
      <trkpt lat="48.20794" lon="-2.61672">
        <ele>137.80000305176</ele>
        <time>2021-10-15T12:29:56.000Z</time>
      </trkpt>
      <trkpt lat="48.20798" lon="-2.61676">
        <ele>137.80000305176</ele>
        <time>2021-10-15T12:29:57.000Z</time>
      </trkpt>
      <trkpt lat="48.20802" lon="-2.6168">
        <ele>138</ele>
        <time>2021-10-15T12:29:58.000Z</time>
      </trkpt>
      <trkpt lat="48.20807" lon="-2.61685">
        <ele>138.19999694824</ele>
        <time>2021-10-15T12:29:59.000Z</time>
      </trkpt>
      <trkpt lat="48.20811" lon="-2.61689">
        <ele>138.39999389648</ele>
        <time>2021-10-15T12:30:00.000Z</time>
      </trkpt>
      <trkpt lat="48.20816" lon="-2.61692">
        <ele>139</ele>
        <time>2021-10-15T12:30:01.000Z</time>
      </trkpt>
      <trkpt lat="48.20821" lon="-2.61696">
        <ele>139.60000610352</ele>
        <time>2021-10-15T12:30:02.000Z</time>
      </trkpt>
      <trkpt lat="48.20827" lon="-2.61699">
        <ele>139.80000305176</ele>
        <time>2021-10-15T12:30:03.000Z</time>
      </trkpt>
      <trkpt lat="48.20833" lon="-2.617">
        <ele>139.39999389648</ele>
        <time>2021-10-15T12:30:04.000Z</time>
      </trkpt>
      <trkpt lat="48.20839" lon="-2.617">
        <ele>139</ele>
        <time>2021-10-15T12:30:05.000Z</time>
      </trkpt>
      <trkpt lat="48.20846" lon="-2.61699">
        <ele>138.39999389648</ele>
        <time>2021-10-15T12:30:06.000Z</time>
      </trkpt>
      <trkpt lat="48.20854" lon="-2.61696">
        <ele>138</ele>
        <time>2021-10-15T12:30:07.000Z</time>
      </trkpt>
      <trkpt lat="48.20861" lon="-2.61692">
        <ele>137</ele>
        <time>2021-10-15T12:30:08.000Z</time>
      </trkpt>
      <trkpt lat="48.20869" lon="-2.61686">
        <ele>136.19999694824</ele>
        <time>2021-10-15T12:30:09.000Z</time>
      </trkpt>
      <trkpt lat="48.20876" lon="-2.61679">
        <ele>135.39999389648</ele>
        <time>2021-10-15T12:30:10.000Z</time>
      </trkpt>
      <trkpt lat="48.20882" lon="-2.61671">
        <ele>134.80000305176</ele>
        <time>2021-10-15T12:30:11.000Z</time>
      </trkpt>
      <trkpt lat="48.20889" lon="-2.61663">
        <ele>134</ele>
        <time>2021-10-15T12:30:12.000Z</time>
      </trkpt>
      <trkpt lat="48.20895" lon="-2.61656">
        <ele>133.39999389648</ele>
        <time>2021-10-15T12:30:13.000Z</time>
      </trkpt>
      <trkpt lat="48.20901" lon="-2.61648">
        <ele>132.80000305176</ele>
        <time>2021-10-15T12:30:14.000Z</time>
      </trkpt>
      <trkpt lat="48.20907" lon="-2.61641">
        <ele>132.39999389648</ele>
        <time>2021-10-15T12:30:15.000Z</time>
      </trkpt>
      <trkpt lat="48.20912" lon="-2.61634">
        <ele>132.19999694824</ele>
        <time>2021-10-15T12:30:16.000Z</time>
      </trkpt>
      <trkpt lat="48.20917" lon="-2.61628">
        <ele>132.19999694824</ele>
        <time>2021-10-15T12:30:17.000Z</time>
      </trkpt>
      <trkpt lat="48.20923" lon="-2.61621">
        <ele>132</ele>
        <time>2021-10-15T12:30:18.000Z</time>
      </trkpt>
      <trkpt lat="48.20928" lon="-2.61615">
        <ele>131.80000305176</ele>
        <time>2021-10-15T12:30:19.000Z</time>
      </trkpt>
      <trkpt lat="48.20934" lon="-2.61609">
        <ele>131.39999389648</ele>
        <time>2021-10-15T12:30:20.000Z</time>
      </trkpt>
      <trkpt lat="48.20939" lon="-2.61604">
        <ele>131.19999694824</ele>
        <time>2021-10-15T12:30:21.000Z</time>
      </trkpt>
      <trkpt lat="48.20944" lon="-2.616">
        <ele>131.19999694824</ele>
        <time>2021-10-15T12:30:22.000Z</time>
      </trkpt>
      <trkpt lat="48.20948" lon="-2.61597">
        <ele>131.19999694824</ele>
        <time>2021-10-15T12:30:23.000Z</time>
      </trkpt>
      <trkpt lat="48.20952" lon="-2.61596">
        <ele>131.19999694824</ele>
        <time>2021-10-15T12:30:24.000Z</time>
      </trkpt>
      <trkpt lat="48.20955" lon="-2.61596">
        <ele>131</ele>
        <time>2021-10-15T12:30:25.000Z</time>
      </trkpt>
      <trkpt lat="48.20958" lon="-2.61597">
        <ele>131</ele>
        <time>2021-10-15T12:30:26.000Z</time>
      </trkpt>
      <trkpt lat="48.20961" lon="-2.616">
        <ele>131</ele>
        <time>2021-10-15T12:30:27.000Z</time>
      </trkpt>
      <trkpt lat="48.20964" lon="-2.61603">
        <ele>131</ele>
        <time>2021-10-15T12:30:28.000Z</time>
      </trkpt>
      <trkpt lat="48.20966" lon="-2.61606">
        <ele>131.19999694824</ele>
        <time>2021-10-15T12:30:29.000Z</time>
      </trkpt>
      <trkpt lat="48.20968" lon="-2.61609">
        <ele>131.19999694824</ele>
        <time>2021-10-15T12:30:30.000Z</time>
      </trkpt>
      <trkpt lat="48.2097" lon="-2.61613">
        <ele>131.60000610352</ele>
        <time>2021-10-15T12:30:31.000Z</time>
      </trkpt>
      <trkpt lat="48.20972" lon="-2.61618">
        <ele>131.80000305176</ele>
        <time>2021-10-15T12:30:32.000Z</time>
      </trkpt>
      <trkpt lat="48.20974" lon="-2.61622">
        <ele>131.80000305176</ele>
        <time>2021-10-15T12:30:33.000Z</time>
      </trkpt>
      <trkpt lat="48.20975" lon="-2.61627">
        <ele>131.80000305176</ele>
        <time>2021-10-15T12:30:34.000Z</time>
      </trkpt>
      <trkpt lat="48.20976" lon="-2.61631">
        <ele>131.60000610352</ele>
        <time>2021-10-15T12:30:35.000Z</time>
      </trkpt>
      <trkpt lat="48.20978" lon="-2.61636">
        <ele>131.60000610352</ele>
        <time>2021-10-15T12:30:36.000Z</time>
      </trkpt>
      <trkpt lat="48.2098" lon="-2.61645">
        <ele>131.80000305176</ele>
        <time>2021-10-15T12:30:37.000Z</time>
      </trkpt>
      <trkpt lat="48.2098" lon="-2.61645">
        <ele>131.80000305176</ele>
        <time>2021-10-15T12:30:38.000Z</time>
      </trkpt>
      <trkpt lat="48.20982" lon="-2.6165">
        <ele>132</ele>
        <time>2021-10-15T12:30:39.000Z</time>
      </trkpt>
      <trkpt lat="48.20984" lon="-2.61654">
        <ele>132.19999694824</ele>
        <time>2021-10-15T12:30:40.000Z</time>
      </trkpt>
      <trkpt lat="48.20985" lon="-2.61658">
        <ele>132.19999694824</ele>
        <time>2021-10-15T12:30:41.000Z</time>
      </trkpt>
      <trkpt lat="48.20986" lon="-2.61662">
        <ele>132.39999389648</ele>
        <time>2021-10-15T12:30:42.000Z</time>
      </trkpt>
      <trkpt lat="48.20987" lon="-2.61666">
        <ele>132.39999389648</ele>
        <time>2021-10-15T12:30:43.000Z</time>
      </trkpt>
      <trkpt lat="48.20988" lon="-2.6167">
        <ele>132.60000610352</ele>
        <time>2021-10-15T12:30:44.000Z</time>
      </trkpt>
      <trkpt lat="48.2099" lon="-2.61674">
        <ele>132.80000305176</ele>
        <time>2021-10-15T12:30:45.000Z</time>
      </trkpt>
      <trkpt lat="48.20992" lon="-2.61678">
        <ele>133.39999389648</ele>
        <time>2021-10-15T12:30:46.000Z</time>
      </trkpt>
      <trkpt lat="48.20995" lon="-2.6168">
        <ele>133.80000305176</ele>
        <time>2021-10-15T12:30:47.000Z</time>
      </trkpt>
      <trkpt lat="48.20998" lon="-2.61682">
        <ele>134.39999389648</ele>
        <time>2021-10-15T12:30:48.000Z</time>
      </trkpt>
      <trkpt lat="48.21" lon="-2.61682">
        <ele>135</ele>
        <time>2021-10-15T12:30:49.000Z</time>
      </trkpt>
      <trkpt lat="48.21003" lon="-2.61682">
        <ele>135.39999389648</ele>
        <time>2021-10-15T12:30:50.000Z</time>
      </trkpt>
      <trkpt lat="48.21006" lon="-2.61681">
        <ele>136</ele>
        <time>2021-10-15T12:30:51.000Z</time>
      </trkpt>
      <trkpt lat="48.21012" lon="-2.61681">
        <ele>136.80000305176</ele>
        <time>2021-10-15T12:30:52.000Z</time>
      </trkpt>
      <trkpt lat="48.21012" lon="-2.61681">
        <ele>136.80000305176</ele>
        <time>2021-10-15T12:30:53.000Z</time>
      </trkpt>
      <trkpt lat="48.21015" lon="-2.6168">
        <ele>137.19999694824</ele>
        <time>2021-10-15T12:30:54.000Z</time>
      </trkpt>
      <trkpt lat="48.21017" lon="-2.61679">
        <ele>137.39999389648</ele>
        <time>2021-10-15T12:30:55.000Z</time>
      </trkpt>
      <trkpt lat="48.21023" lon="-2.6168">
        <ele>137.80000305176</ele>
        <time>2021-10-15T12:30:56.000Z</time>
      </trkpt>
      <trkpt lat="48.21023" lon="-2.6168">
        <ele>137.80000305176</ele>
        <time>2021-10-15T12:30:57.000Z</time>
      </trkpt>
      <trkpt lat="48.21025" lon="-2.61681">
        <ele>137.80000305176</ele>
        <time>2021-10-15T12:30:58.000Z</time>
      </trkpt>
      <trkpt lat="48.21027" lon="-2.61683">
        <ele>137.80000305176</ele>
        <time>2021-10-15T12:30:59.000Z</time>
      </trkpt>
      <trkpt lat="48.21029" lon="-2.61685">
        <ele>137.80000305176</ele>
        <time>2021-10-15T12:31:00.000Z</time>
      </trkpt>
      <trkpt lat="48.21031" lon="-2.61688">
        <ele>137.80000305176</ele>
        <time>2021-10-15T12:31:01.000Z</time>
      </trkpt>
      <trkpt lat="48.21032" lon="-2.61691">
        <ele>138</ele>
        <time>2021-10-15T12:31:02.000Z</time>
      </trkpt>
      <trkpt lat="48.21034" lon="-2.61694">
        <ele>138</ele>
        <time>2021-10-15T12:31:03.000Z</time>
      </trkpt>
      <trkpt lat="48.21036" lon="-2.61698">
        <ele>138.19999694824</ele>
        <time>2021-10-15T12:31:04.000Z</time>
      </trkpt>
      <trkpt lat="48.21037" lon="-2.61701">
        <ele>138.19999694824</ele>
        <time>2021-10-15T12:31:05.000Z</time>
      </trkpt>
      <trkpt lat="48.21039" lon="-2.61704">
        <ele>138.39999389648</ele>
        <time>2021-10-15T12:31:06.000Z</time>
      </trkpt>
      <trkpt lat="48.2104" lon="-2.61708">
        <ele>138.39999389648</ele>
        <time>2021-10-15T12:31:07.000Z</time>
      </trkpt>
      <trkpt lat="48.21041" lon="-2.61711">
        <ele>138.60000610352</ele>
        <time>2021-10-15T12:31:08.000Z</time>
      </trkpt>
      <trkpt lat="48.21042" lon="-2.61715">
        <ele>138.60000610352</ele>
        <time>2021-10-15T12:31:09.000Z</time>
      </trkpt>
      <trkpt lat="48.21043" lon="-2.61719">
        <ele>138.60000610352</ele>
        <time>2021-10-15T12:31:10.000Z</time>
      </trkpt>
      <trkpt lat="48.21044" lon="-2.61722">
        <ele>138.80000305176</ele>
        <time>2021-10-15T12:31:11.000Z</time>
      </trkpt>
      <trkpt lat="48.21045" lon="-2.61726">
        <ele>138.80000305176</ele>
        <time>2021-10-15T12:31:12.000Z</time>
      </trkpt>
      <trkpt lat="48.21045" lon="-2.6173">
        <ele>139</ele>
        <time>2021-10-15T12:31:13.000Z</time>
      </trkpt>
      <trkpt lat="48.21046" lon="-2.61734">
        <ele>139</ele>
        <time>2021-10-15T12:31:14.000Z</time>
      </trkpt>
      <trkpt lat="48.21048" lon="-2.61739">
        <ele>139</ele>
        <time>2021-10-15T12:31:15.000Z</time>
      </trkpt>
      <trkpt lat="48.21049" lon="-2.61743">
        <ele>139</ele>
        <time>2021-10-15T12:31:16.000Z</time>
      </trkpt>
      <trkpt lat="48.2105" lon="-2.61747">
        <ele>139.19999694824</ele>
        <time>2021-10-15T12:31:17.000Z</time>
      </trkpt>
      <trkpt lat="48.21051" lon="-2.61751">
        <ele>139.19999694824</ele>
        <time>2021-10-15T12:31:18.000Z</time>
      </trkpt>
      <trkpt lat="48.21053" lon="-2.61755">
        <ele>139.39999389648</ele>
        <time>2021-10-15T12:31:19.000Z</time>
      </trkpt>
      <trkpt lat="48.21054" lon="-2.61758">
        <ele>139.60000610352</ele>
        <time>2021-10-15T12:31:20.000Z</time>
      </trkpt>
      <trkpt lat="48.21056" lon="-2.61761">
        <ele>140</ele>
        <time>2021-10-15T12:31:21.000Z</time>
      </trkpt>
      <trkpt lat="48.21058" lon="-2.61764">
        <ele>140.19999694824</ele>
        <time>2021-10-15T12:31:22.000Z</time>
      </trkpt>
      <trkpt lat="48.2106" lon="-2.61768">
        <ele>140.39999389648</ele>
        <time>2021-10-15T12:31:23.000Z</time>
      </trkpt>
      <trkpt lat="48.21063" lon="-2.6177">
        <ele>140.60000610352</ele>
        <time>2021-10-15T12:31:24.000Z</time>
      </trkpt>
      <trkpt lat="48.21065" lon="-2.61773">
        <ele>140.60000610352</ele>
        <time>2021-10-15T12:31:25.000Z</time>
      </trkpt>
      <trkpt lat="48.21068" lon="-2.61775">
        <ele>140.80000305176</ele>
        <time>2021-10-15T12:31:26.000Z</time>
      </trkpt>
      <trkpt lat="48.2107" lon="-2.61777">
        <ele>140.80000305176</ele>
        <time>2021-10-15T12:31:27.000Z</time>
      </trkpt>
      <trkpt lat="48.21073" lon="-2.61779">
        <ele>141</ele>
        <time>2021-10-15T12:31:28.000Z</time>
      </trkpt>
      <trkpt lat="48.21076" lon="-2.61781">
        <ele>141</ele>
        <time>2021-10-15T12:31:29.000Z</time>
      </trkpt>
      <trkpt lat="48.21078" lon="-2.61782">
        <ele>141.19999694824</ele>
        <time>2021-10-15T12:31:30.000Z</time>
      </trkpt>
      <trkpt lat="48.21081" lon="-2.61783">
        <ele>141.39999389648</ele>
        <time>2021-10-15T12:31:31.000Z</time>
      </trkpt>
      <trkpt lat="48.21084" lon="-2.61785">
        <ele>141.60000610352</ele>
        <time>2021-10-15T12:31:32.000Z</time>
      </trkpt>
      <trkpt lat="48.21086" lon="-2.61786">
        <ele>141.80000305176</ele>
        <time>2021-10-15T12:31:33.000Z</time>
      </trkpt>
      <trkpt lat="48.21088" lon="-2.61786">
        <ele>142</ele>
        <time>2021-10-15T12:31:34.000Z</time>
      </trkpt>
      <trkpt lat="48.21091" lon="-2.61787">
        <ele>142.19999694824</ele>
        <time>2021-10-15T12:31:35.000Z</time>
      </trkpt>
      <trkpt lat="48.21093" lon="-2.61788">
        <ele>142.19999694824</ele>
        <time>2021-10-15T12:31:36.000Z</time>
      </trkpt>
      <trkpt lat="48.21096" lon="-2.61789">
        <ele>142.39999389648</ele>
        <time>2021-10-15T12:31:37.000Z</time>
      </trkpt>
      <trkpt lat="48.21098" lon="-2.6179">
        <ele>142.39999389648</ele>
        <time>2021-10-15T12:31:38.000Z</time>
      </trkpt>
      <trkpt lat="48.211" lon="-2.61791">
        <ele>142.60000610352</ele>
        <time>2021-10-15T12:31:39.000Z</time>
      </trkpt>
      <trkpt lat="48.21103" lon="-2.61791">
        <ele>142.60000610352</ele>
        <time>2021-10-15T12:31:40.000Z</time>
      </trkpt>
      <trkpt lat="48.21105" lon="-2.61792">
        <ele>142.60000610352</ele>
        <time>2021-10-15T12:31:41.000Z</time>
      </trkpt>
      <trkpt lat="48.21107" lon="-2.61793">
        <ele>142.80000305176</ele>
        <time>2021-10-15T12:31:42.000Z</time>
      </trkpt>
      <trkpt lat="48.2111" lon="-2.61794">
        <ele>142.80000305176</ele>
        <time>2021-10-15T12:31:43.000Z</time>
      </trkpt>
      <trkpt lat="48.21112" lon="-2.61794">
        <ele>142.80000305176</ele>
        <time>2021-10-15T12:31:44.000Z</time>
      </trkpt>
      <trkpt lat="48.21115" lon="-2.61795">
        <ele>143</ele>
        <time>2021-10-15T12:31:45.000Z</time>
      </trkpt>
      <trkpt lat="48.21117" lon="-2.61796">
        <ele>143</ele>
        <time>2021-10-15T12:31:46.000Z</time>
      </trkpt>
      <trkpt lat="48.2112" lon="-2.61796">
        <ele>143</ele>
        <time>2021-10-15T12:31:47.000Z</time>
      </trkpt>
      <trkpt lat="48.21122" lon="-2.61797">
        <ele>143.19999694824</ele>
        <time>2021-10-15T12:31:48.000Z</time>
      </trkpt>
      <trkpt lat="48.21125" lon="-2.61797">
        <ele>143.19999694824</ele>
        <time>2021-10-15T12:31:49.000Z</time>
      </trkpt>
      <trkpt lat="48.21128" lon="-2.61798">
        <ele>143.19999694824</ele>
        <time>2021-10-15T12:31:50.000Z</time>
      </trkpt>
      <trkpt lat="48.2113" lon="-2.61798">
        <ele>143.39999389648</ele>
        <time>2021-10-15T12:31:51.000Z</time>
      </trkpt>
      <trkpt lat="48.21133" lon="-2.61799">
        <ele>143.39999389648</ele>
        <time>2021-10-15T12:31:52.000Z</time>
      </trkpt>
      <trkpt lat="48.21135" lon="-2.61799">
        <ele>143.60000610352</ele>
        <time>2021-10-15T12:31:53.000Z</time>
      </trkpt>
      <trkpt lat="48.21138" lon="-2.618">
        <ele>143.80000305176</ele>
        <time>2021-10-15T12:31:54.000Z</time>
      </trkpt>
      <trkpt lat="48.21141" lon="-2.618">
        <ele>144</ele>
        <time>2021-10-15T12:31:55.000Z</time>
      </trkpt>
      <trkpt lat="48.21143" lon="-2.61801">
        <ele>144.19999694824</ele>
        <time>2021-10-15T12:31:56.000Z</time>
      </trkpt>
      <trkpt lat="48.21146" lon="-2.61801">
        <ele>144.39999389648</ele>
        <time>2021-10-15T12:31:57.000Z</time>
      </trkpt>
      <trkpt lat="48.21148" lon="-2.61802">
        <ele>144.60000610352</ele>
        <time>2021-10-15T12:31:58.000Z</time>
      </trkpt>
      <trkpt lat="48.21151" lon="-2.61803">
        <ele>144.60000610352</ele>
        <time>2021-10-15T12:31:59.000Z</time>
      </trkpt>
      <trkpt lat="48.21154" lon="-2.61803">
        <ele>144.80000305176</ele>
        <time>2021-10-15T12:32:00.000Z</time>
      </trkpt>
      <trkpt lat="48.21157" lon="-2.61804">
        <ele>145</ele>
        <time>2021-10-15T12:32:01.000Z</time>
      </trkpt>
      <trkpt lat="48.2116" lon="-2.61804">
        <ele>145.19999694824</ele>
        <time>2021-10-15T12:32:02.000Z</time>
      </trkpt>
      <trkpt lat="48.21163" lon="-2.61805">
        <ele>145.39999389648</ele>
        <time>2021-10-15T12:32:03.000Z</time>
      </trkpt>
      <trkpt lat="48.21165" lon="-2.61805">
        <ele>145.80000305176</ele>
        <time>2021-10-15T12:32:04.000Z</time>
      </trkpt>
      <trkpt lat="48.21168" lon="-2.61806">
        <ele>146.39999389648</ele>
        <time>2021-10-15T12:32:05.000Z</time>
      </trkpt>
      <trkpt lat="48.21172" lon="-2.61806">
        <ele>146.80000305176</ele>
        <time>2021-10-15T12:32:06.000Z</time>
      </trkpt>
      <trkpt lat="48.21175" lon="-2.61807">
        <ele>147.39999389648</ele>
        <time>2021-10-15T12:32:07.000Z</time>
      </trkpt>
      <trkpt lat="48.21179" lon="-2.61807">
        <ele>147.80000305176</ele>
        <time>2021-10-15T12:32:08.000Z</time>
      </trkpt>
      <trkpt lat="48.21182" lon="-2.61807">
        <ele>148.19999694824</ele>
        <time>2021-10-15T12:32:09.000Z</time>
      </trkpt>
      <trkpt lat="48.21185" lon="-2.61808">
        <ele>148.80000305176</ele>
        <time>2021-10-15T12:32:10.000Z</time>
      </trkpt>
      <trkpt lat="48.21189" lon="-2.61808">
        <ele>149.19999694824</ele>
        <time>2021-10-15T12:32:11.000Z</time>
      </trkpt>
      <trkpt lat="48.21192" lon="-2.61808">
        <ele>149.39999389648</ele>
        <time>2021-10-15T12:32:12.000Z</time>
      </trkpt>
      <trkpt lat="48.21196" lon="-2.61808">
        <ele>149.60000610352</ele>
        <time>2021-10-15T12:32:13.000Z</time>
      </trkpt>
      <trkpt lat="48.212" lon="-2.61808">
        <ele>150</ele>
        <time>2021-10-15T12:32:14.000Z</time>
      </trkpt>
      <trkpt lat="48.21203" lon="-2.61808">
        <ele>150.19999694824</ele>
        <time>2021-10-15T12:32:15.000Z</time>
      </trkpt>
      <trkpt lat="48.21207" lon="-2.61809">
        <ele>150.60000610352</ele>
        <time>2021-10-15T12:32:16.000Z</time>
      </trkpt>
      <trkpt lat="48.21211" lon="-2.61809">
        <ele>150.80000305176</ele>
        <time>2021-10-15T12:32:17.000Z</time>
      </trkpt>
      <trkpt lat="48.21215" lon="-2.6181">
        <ele>151</ele>
        <time>2021-10-15T12:32:18.000Z</time>
      </trkpt>
      <trkpt lat="48.21219" lon="-2.6181">
        <ele>150.80000305176</ele>
        <time>2021-10-15T12:32:19.000Z</time>
      </trkpt>
      <trkpt lat="48.21223" lon="-2.61811">
        <ele>150.80000305176</ele>
        <time>2021-10-15T12:32:20.000Z</time>
      </trkpt>
      <trkpt lat="48.21227" lon="-2.61811">
        <ele>150.80000305176</ele>
        <time>2021-10-15T12:32:21.000Z</time>
      </trkpt>
      <trkpt lat="48.21231" lon="-2.61812">
        <ele>150.80000305176</ele>
        <time>2021-10-15T12:32:22.000Z</time>
      </trkpt>
      <trkpt lat="48.21235" lon="-2.61813">
        <ele>150.80000305176</ele>
        <time>2021-10-15T12:32:23.000Z</time>
      </trkpt>
      <trkpt lat="48.21239" lon="-2.61814">
        <ele>150.60000610352</ele>
        <time>2021-10-15T12:32:24.000Z</time>
      </trkpt>
      <trkpt lat="48.21242" lon="-2.61815">
        <ele>150.60000610352</ele>
        <time>2021-10-15T12:32:25.000Z</time>
      </trkpt>
      <trkpt lat="48.21246" lon="-2.61817">
        <ele>150.39999389648</ele>
        <time>2021-10-15T12:32:26.000Z</time>
      </trkpt>
      <trkpt lat="48.2125" lon="-2.61818">
        <ele>150</ele>
        <time>2021-10-15T12:32:27.000Z</time>
      </trkpt>
      <trkpt lat="48.21254" lon="-2.61819">
        <ele>149.80000305176</ele>
        <time>2021-10-15T12:32:28.000Z</time>
      </trkpt>
      <trkpt lat="48.21257" lon="-2.61821">
        <ele>149.60000610352</ele>
        <time>2021-10-15T12:32:29.000Z</time>
      </trkpt>
      <trkpt lat="48.21262" lon="-2.61823">
        <ele>149.19999694824</ele>
        <time>2021-10-15T12:32:30.000Z</time>
      </trkpt>
      <trkpt lat="48.21266" lon="-2.61825">
        <ele>149</ele>
        <time>2021-10-15T12:32:31.000Z</time>
      </trkpt>
      <trkpt lat="48.2127" lon="-2.61826">
        <ele>148.80000305176</ele>
        <time>2021-10-15T12:32:32.000Z</time>
      </trkpt>
      <trkpt lat="48.21274" lon="-2.61828">
        <ele>148.60000610352</ele>
        <time>2021-10-15T12:32:33.000Z</time>
      </trkpt>
      <trkpt lat="48.21278" lon="-2.6183">
        <ele>148.39999389648</ele>
        <time>2021-10-15T12:32:34.000Z</time>
      </trkpt>
      <trkpt lat="48.21282" lon="-2.61832">
        <ele>148</ele>
        <time>2021-10-15T12:32:35.000Z</time>
      </trkpt>
      <trkpt lat="48.21286" lon="-2.61834">
        <ele>147.80000305176</ele>
        <time>2021-10-15T12:32:36.000Z</time>
      </trkpt>
      <trkpt lat="48.21291" lon="-2.61836">
        <ele>147.39999389648</ele>
        <time>2021-10-15T12:32:37.000Z</time>
      </trkpt>
      <trkpt lat="48.21296" lon="-2.61838">
        <ele>146.80000305176</ele>
        <time>2021-10-15T12:32:38.000Z</time>
      </trkpt>
      <trkpt lat="48.21302" lon="-2.6184">
        <ele>146.80000305176</ele>
        <time>2021-10-15T12:32:39.000Z</time>
      </trkpt>
      <trkpt lat="48.21308" lon="-2.61843">
        <ele>147</ele>
        <time>2021-10-15T12:32:40.000Z</time>
      </trkpt>
      <trkpt lat="48.21316" lon="-2.61845">
        <ele>147</ele>
        <time>2021-10-15T12:32:41.000Z</time>
      </trkpt>
      <trkpt lat="48.21324" lon="-2.61848">
        <ele>146.80000305176</ele>
        <time>2021-10-15T12:32:42.000Z</time>
      </trkpt>
      <trkpt lat="48.21331" lon="-2.61852">
        <ele>146.39999389648</ele>
        <time>2021-10-15T12:32:43.000Z</time>
      </trkpt>
      <trkpt lat="48.21339" lon="-2.61857">
        <ele>146</ele>
        <time>2021-10-15T12:32:44.000Z</time>
      </trkpt>
      <trkpt lat="48.21347" lon="-2.61864">
        <ele>145.80000305176</ele>
        <time>2021-10-15T12:32:45.000Z</time>
      </trkpt>
      <trkpt lat="48.21354" lon="-2.61872">
        <ele>145.60000610352</ele>
        <time>2021-10-15T12:32:46.000Z</time>
      </trkpt>
      <trkpt lat="48.21361" lon="-2.6188">
        <ele>145.39999389648</ele>
        <time>2021-10-15T12:32:47.000Z</time>
      </trkpt>
      <trkpt lat="48.21367" lon="-2.61887">
        <ele>145.60000610352</ele>
        <time>2021-10-15T12:32:48.000Z</time>
      </trkpt>
      <trkpt lat="48.21373" lon="-2.61895">
        <ele>146</ele>
        <time>2021-10-15T12:32:49.000Z</time>
      </trkpt>
      <trkpt lat="48.21378" lon="-2.61901">
        <ele>146</ele>
        <time>2021-10-15T12:32:50.000Z</time>
      </trkpt>
      <trkpt lat="48.21383" lon="-2.61908">
        <ele>146</ele>
        <time>2021-10-15T12:32:51.000Z</time>
      </trkpt>
      <trkpt lat="48.21387" lon="-2.61915">
        <ele>145.80000305176</ele>
        <time>2021-10-15T12:32:52.000Z</time>
      </trkpt>
      <trkpt lat="48.21391" lon="-2.61923">
        <ele>146</ele>
        <time>2021-10-15T12:32:53.000Z</time>
      </trkpt>
      <trkpt lat="48.21394" lon="-2.6193">
        <ele>146</ele>
        <time>2021-10-15T12:32:54.000Z</time>
      </trkpt>
      <trkpt lat="48.21397" lon="-2.61937">
        <ele>146.19999694824</ele>
        <time>2021-10-15T12:32:55.000Z</time>
      </trkpt>
      <trkpt lat="48.214" lon="-2.61944">
        <ele>146.19999694824</ele>
        <time>2021-10-15T12:32:56.000Z</time>
      </trkpt>
      <trkpt lat="48.21406" lon="-2.6196">
        <ele>146.19999694824</ele>
        <time>2021-10-15T12:32:57.000Z</time>
      </trkpt>
      <trkpt lat="48.21406" lon="-2.6196">
        <ele>146.19999694824</ele>
        <time>2021-10-15T12:32:58.000Z</time>
      </trkpt>
      <trkpt lat="48.21409" lon="-2.61968">
        <ele>146.19999694824</ele>
        <time>2021-10-15T12:32:59.000Z</time>
      </trkpt>
      <trkpt lat="48.21411" lon="-2.61976">
        <ele>146.19999694824</ele>
        <time>2021-10-15T12:33:00.000Z</time>
      </trkpt>
      <trkpt lat="48.21414" lon="-2.61984">
        <ele>146</ele>
        <time>2021-10-15T12:33:01.000Z</time>
      </trkpt>
      <trkpt lat="48.21417" lon="-2.61992">
        <ele>146</ele>
        <time>2021-10-15T12:33:02.000Z</time>
      </trkpt>
      <trkpt lat="48.21419" lon="-2.62001">
        <ele>145.80000305176</ele>
        <time>2021-10-15T12:33:03.000Z</time>
      </trkpt>
      <trkpt lat="48.21422" lon="-2.62009">
        <ele>146</ele>
        <time>2021-10-15T12:33:04.000Z</time>
      </trkpt>
      <trkpt lat="48.21424" lon="-2.62018">
        <ele>146.19999694824</ele>
        <time>2021-10-15T12:33:05.000Z</time>
      </trkpt>
      <trkpt lat="48.21425" lon="-2.62027">
        <ele>146.19999694824</ele>
        <time>2021-10-15T12:33:06.000Z</time>
      </trkpt>
      <trkpt lat="48.21426" lon="-2.62036">
        <ele>146.19999694824</ele>
        <time>2021-10-15T12:33:07.000Z</time>
      </trkpt>
      <trkpt lat="48.21426" lon="-2.62043">
        <ele>146.19999694824</ele>
        <time>2021-10-15T12:33:08.000Z</time>
      </trkpt>
      <trkpt lat="48.21426" lon="-2.62051">
        <ele>146.19999694824</ele>
        <time>2021-10-15T12:33:09.000Z</time>
      </trkpt>
      <trkpt lat="48.21425" lon="-2.62059">
        <ele>146.19999694824</ele>
        <time>2021-10-15T12:33:10.000Z</time>
      </trkpt>
      <trkpt lat="48.21425" lon="-2.62068">
        <ele>145.80000305176</ele>
        <time>2021-10-15T12:33:11.000Z</time>
      </trkpt>
      <trkpt lat="48.21424" lon="-2.62076">
        <ele>145.39999389648</ele>
        <time>2021-10-15T12:33:12.000Z</time>
      </trkpt>
      <trkpt lat="48.21424" lon="-2.62084">
        <ele>144.80000305176</ele>
        <time>2021-10-15T12:33:13.000Z</time>
      </trkpt>
      <trkpt lat="48.21425" lon="-2.62093">
        <ele>144</ele>
        <time>2021-10-15T12:33:14.000Z</time>
      </trkpt>
      <trkpt lat="48.21425" lon="-2.62102">
        <ele>143.39999389648</ele>
        <time>2021-10-15T12:33:15.000Z</time>
      </trkpt>
      <trkpt lat="48.21427" lon="-2.62112">
        <ele>142.80000305176</ele>
        <time>2021-10-15T12:33:16.000Z</time>
      </trkpt>
      <trkpt lat="48.21428" lon="-2.62121">
        <ele>142.19999694824</ele>
        <time>2021-10-15T12:33:17.000Z</time>
      </trkpt>
      <trkpt lat="48.2143" lon="-2.62131">
        <ele>141.60000610352</ele>
        <time>2021-10-15T12:33:18.000Z</time>
      </trkpt>
      <trkpt lat="48.21432" lon="-2.62141">
        <ele>141</ele>
        <time>2021-10-15T12:33:19.000Z</time>
      </trkpt>
      <trkpt lat="48.21434" lon="-2.62151">
        <ele>140.19999694824</ele>
        <time>2021-10-15T12:33:20.000Z</time>
      </trkpt>
      <trkpt lat="48.21435" lon="-2.62162">
        <ele>139.60000610352</ele>
        <time>2021-10-15T12:33:21.000Z</time>
      </trkpt>
      <trkpt lat="48.21437" lon="-2.62173">
        <ele>139</ele>
        <time>2021-10-15T12:33:22.000Z</time>
      </trkpt>
      <trkpt lat="48.21439" lon="-2.62183">
        <ele>138.60000610352</ele>
        <time>2021-10-15T12:33:23.000Z</time>
      </trkpt>
      <trkpt lat="48.21441" lon="-2.62193">
        <ele>138.39999389648</ele>
        <time>2021-10-15T12:33:24.000Z</time>
      </trkpt>
      <trkpt lat="48.21443" lon="-2.62203">
        <ele>137.80000305176</ele>
        <time>2021-10-15T12:33:25.000Z</time>
      </trkpt>
      <trkpt lat="48.21445" lon="-2.62212">
        <ele>136.80000305176</ele>
        <time>2021-10-15T12:33:26.000Z</time>
      </trkpt>
      <trkpt lat="48.21446" lon="-2.62222">
        <ele>136</ele>
        <time>2021-10-15T12:33:27.000Z</time>
      </trkpt>
      <trkpt lat="48.21446" lon="-2.62231">
        <ele>135.39999389648</ele>
        <time>2021-10-15T12:33:28.000Z</time>
      </trkpt>
      <trkpt lat="48.21446" lon="-2.62241">
        <ele>134.60000610352</ele>
        <time>2021-10-15T12:33:29.000Z</time>
      </trkpt>
      <trkpt lat="48.21445" lon="-2.62251">
        <ele>133.80000305176</ele>
        <time>2021-10-15T12:33:30.000Z</time>
      </trkpt>
      <trkpt lat="48.21442" lon="-2.62262">
        <ele>132.80000305176</ele>
        <time>2021-10-15T12:33:31.000Z</time>
      </trkpt>
      <trkpt lat="48.2144" lon="-2.62272">
        <ele>132</ele>
        <time>2021-10-15T12:33:32.000Z</time>
      </trkpt>
      <trkpt lat="48.21437" lon="-2.62281">
        <ele>131</ele>
        <time>2021-10-15T12:33:33.000Z</time>
      </trkpt>
      <trkpt lat="48.21434" lon="-2.62291">
        <ele>130.39999389648</ele>
        <time>2021-10-15T12:33:34.000Z</time>
      </trkpt>
      <trkpt lat="48.21431" lon="-2.62301">
        <ele>129.80000305176</ele>
        <time>2021-10-15T12:33:35.000Z</time>
      </trkpt>
      <trkpt lat="48.21428" lon="-2.6231">
        <ele>129.39999389648</ele>
        <time>2021-10-15T12:33:36.000Z</time>
      </trkpt>
      <trkpt lat="48.21425" lon="-2.62319">
        <ele>128.80000305176</ele>
        <time>2021-10-15T12:33:37.000Z</time>
      </trkpt>
      <trkpt lat="48.21423" lon="-2.62328">
        <ele>128.60000610352</ele>
        <time>2021-10-15T12:33:38.000Z</time>
      </trkpt>
      <trkpt lat="48.21421" lon="-2.62336">
        <ele>128.39999389648</ele>
        <time>2021-10-15T12:33:39.000Z</time>
      </trkpt>
      <trkpt lat="48.21419" lon="-2.62344">
        <ele>127.80000305176</ele>
        <time>2021-10-15T12:33:40.000Z</time>
      </trkpt>
      <trkpt lat="48.21417" lon="-2.62352">
        <ele>127.40000152588</ele>
        <time>2021-10-15T12:33:41.000Z</time>
      </trkpt>
      <trkpt lat="48.21416" lon="-2.6236">
        <ele>127</ele>
        <time>2021-10-15T12:33:42.000Z</time>
      </trkpt>
      <trkpt lat="48.21415" lon="-2.62368">
        <ele>126.40000152588</ele>
        <time>2021-10-15T12:33:43.000Z</time>
      </trkpt>
      <trkpt lat="48.21413" lon="-2.62376">
        <ele>126</ele>
        <time>2021-10-15T12:33:44.000Z</time>
      </trkpt>
      <trkpt lat="48.21412" lon="-2.62384">
        <ele>125.59999847412</ele>
        <time>2021-10-15T12:33:45.000Z</time>
      </trkpt>
      <trkpt lat="48.21411" lon="-2.62392">
        <ele>125.19999694824</ele>
        <time>2021-10-15T12:33:46.000Z</time>
      </trkpt>
      <trkpt lat="48.21411" lon="-2.62399">
        <ele>124.80000305176</ele>
        <time>2021-10-15T12:33:47.000Z</time>
      </trkpt>
      <trkpt lat="48.2141" lon="-2.62406">
        <ele>124.59999847412</ele>
        <time>2021-10-15T12:33:48.000Z</time>
      </trkpt>
      <trkpt lat="48.21409" lon="-2.62414">
        <ele>124.19999694824</ele>
        <time>2021-10-15T12:33:49.000Z</time>
      </trkpt>
      <trkpt lat="48.21408" lon="-2.62421">
        <ele>124</ele>
        <time>2021-10-15T12:33:50.000Z</time>
      </trkpt>
      <trkpt lat="48.21407" lon="-2.62427">
        <ele>123.59999847412</ele>
        <time>2021-10-15T12:33:51.000Z</time>
      </trkpt>
      <trkpt lat="48.21407" lon="-2.62433">
        <ele>123.40000152588</ele>
        <time>2021-10-15T12:33:52.000Z</time>
      </trkpt>
      <trkpt lat="48.21406" lon="-2.62439">
        <ele>123.19999694824</ele>
        <time>2021-10-15T12:33:53.000Z</time>
      </trkpt>
      <trkpt lat="48.21406" lon="-2.62444">
        <ele>123</ele>
        <time>2021-10-15T12:33:54.000Z</time>
      </trkpt>
      <trkpt lat="48.21406" lon="-2.62449">
        <ele>123</ele>
        <time>2021-10-15T12:33:55.000Z</time>
      </trkpt>
      <trkpt lat="48.21405" lon="-2.62454">
        <ele>123</ele>
        <time>2021-10-15T12:33:56.000Z</time>
      </trkpt>
      <trkpt lat="48.21405" lon="-2.62458">
        <ele>123</ele>
        <time>2021-10-15T12:33:57.000Z</time>
      </trkpt>
      <trkpt lat="48.21404" lon="-2.62462">
        <ele>123</ele>
        <time>2021-10-15T12:33:58.000Z</time>
      </trkpt>
      <trkpt lat="48.21404" lon="-2.62467">
        <ele>123</ele>
        <time>2021-10-15T12:33:59.000Z</time>
      </trkpt>
      <trkpt lat="48.21404" lon="-2.62471">
        <ele>123</ele>
        <time>2021-10-15T12:34:00.000Z</time>
      </trkpt>
      <trkpt lat="48.21405" lon="-2.62475">
        <ele>123</ele>
        <time>2021-10-15T12:34:01.000Z</time>
      </trkpt>
      <trkpt lat="48.21404" lon="-2.62478">
        <ele>123</ele>
        <time>2021-10-15T12:34:02.000Z</time>
      </trkpt>
      <trkpt lat="48.21404" lon="-2.62481">
        <ele>123</ele>
        <time>2021-10-15T12:34:03.000Z</time>
      </trkpt>
      <trkpt lat="48.21403" lon="-2.62484">
        <ele>123</ele>
        <time>2021-10-15T12:34:04.000Z</time>
      </trkpt>
      <trkpt lat="48.21402" lon="-2.62486">
        <ele>123</ele>
        <time>2021-10-15T12:34:05.000Z</time>
      </trkpt>
      <trkpt lat="48.214" lon="-2.62488">
        <ele>123</ele>
        <time>2021-10-15T12:34:06.000Z</time>
      </trkpt>
      <trkpt lat="48.21398" lon="-2.62489">
        <ele>123</ele>
        <time>2021-10-15T12:34:07.000Z</time>
      </trkpt>
      <trkpt lat="48.21396" lon="-2.6249">
        <ele>123</ele>
        <time>2021-10-15T12:34:08.000Z</time>
      </trkpt>
      <trkpt lat="48.21392" lon="-2.62491">
        <ele>123</ele>
        <time>2021-10-15T12:34:09.000Z</time>
      </trkpt>
      <trkpt lat="48.21389" lon="-2.62491">
        <ele>123</ele>
        <time>2021-10-15T12:34:10.000Z</time>
      </trkpt>
      <trkpt lat="48.21385" lon="-2.6249">
        <ele>123</ele>
        <time>2021-10-15T12:34:11.000Z</time>
      </trkpt>
      <trkpt lat="48.2138" lon="-2.6249">
        <ele>123</ele>
        <time>2021-10-15T12:34:12.000Z</time>
      </trkpt>
      <trkpt lat="48.21375" lon="-2.62489">
        <ele>122.59999847412</ele>
        <time>2021-10-15T12:34:13.000Z</time>
      </trkpt>
      <trkpt lat="48.2137" lon="-2.62488">
        <ele>122.19999694824</ele>
        <time>2021-10-15T12:34:14.000Z</time>
      </trkpt>
      <trkpt lat="48.21363" lon="-2.62486">
        <ele>121.80000305176</ele>
        <time>2021-10-15T12:34:15.000Z</time>
      </trkpt>
      <trkpt lat="48.21357" lon="-2.62484">
        <ele>121.19999694824</ele>
        <time>2021-10-15T12:34:16.000Z</time>
      </trkpt>
      <trkpt lat="48.21349" lon="-2.62481">
        <ele>120.40000152588</ele>
        <time>2021-10-15T12:34:17.000Z</time>
      </trkpt>
      <trkpt lat="48.21341" lon="-2.62478">
        <ele>119.19999694824</ele>
        <time>2021-10-15T12:34:18.000Z</time>
      </trkpt>
      <trkpt lat="48.2133" lon="-2.62473">
        <ele>117.59999847412</ele>
        <time>2021-10-15T12:34:19.000Z</time>
      </trkpt>
      <trkpt lat="48.2132" lon="-2.62467">
        <ele>116.40000152588</ele>
        <time>2021-10-15T12:34:20.000Z</time>
      </trkpt>
      <trkpt lat="48.2131" lon="-2.62462">
        <ele>115.40000152588</ele>
        <time>2021-10-15T12:34:21.000Z</time>
      </trkpt>
      <trkpt lat="48.21301" lon="-2.62457">
        <ele>113.80000305176</ele>
        <time>2021-10-15T12:34:22.000Z</time>
      </trkpt>
      <trkpt lat="48.21292" lon="-2.62453">
        <ele>112.40000152588</ele>
        <time>2021-10-15T12:34:23.000Z</time>
      </trkpt>
      <trkpt lat="48.21283" lon="-2.62449">
        <ele>111.40000152588</ele>
        <time>2021-10-15T12:34:24.000Z</time>
      </trkpt>
      <trkpt lat="48.21276" lon="-2.62445">
        <ele>110.59999847412</ele>
        <time>2021-10-15T12:34:25.000Z</time>
      </trkpt>
      <trkpt lat="48.2127" lon="-2.62443">
        <ele>110.19999694824</ele>
        <time>2021-10-15T12:34:26.000Z</time>
      </trkpt>
      <trkpt lat="48.21264" lon="-2.62443">
        <ele>109.40000152588</ele>
        <time>2021-10-15T12:34:27.000Z</time>
      </trkpt>
      <trkpt lat="48.2126" lon="-2.62444">
        <ele>108.59999847412</ele>
        <time>2021-10-15T12:34:28.000Z</time>
      </trkpt>
      <trkpt lat="48.21255" lon="-2.62449">
        <ele>107.80000305176</ele>
        <time>2021-10-15T12:34:29.000Z</time>
      </trkpt>
      <trkpt lat="48.21252" lon="-2.62456">
        <ele>107.40000152588</ele>
        <time>2021-10-15T12:34:30.000Z</time>
      </trkpt>
      <trkpt lat="48.2125" lon="-2.62465">
        <ele>107.19999694824</ele>
        <time>2021-10-15T12:34:31.000Z</time>
      </trkpt>
      <trkpt lat="48.2125" lon="-2.62475">
        <ele>107.19999694824</ele>
        <time>2021-10-15T12:34:32.000Z</time>
      </trkpt>
      <trkpt lat="48.21251" lon="-2.62485">
        <ele>107</ele>
        <time>2021-10-15T12:34:33.000Z</time>
      </trkpt>
      <trkpt lat="48.21252" lon="-2.62495">
        <ele>106.80000305176</ele>
        <time>2021-10-15T12:34:34.000Z</time>
      </trkpt>
      <trkpt lat="48.21253" lon="-2.62505">
        <ele>106.59999847412</ele>
        <time>2021-10-15T12:34:35.000Z</time>
      </trkpt>
      <trkpt lat="48.21254" lon="-2.62516">
        <ele>106.19999694824</ele>
        <time>2021-10-15T12:34:36.000Z</time>
      </trkpt>
      <trkpt lat="48.21255" lon="-2.62526">
        <ele>106.40000152588</ele>
        <time>2021-10-15T12:34:37.000Z</time>
      </trkpt>
      <trkpt lat="48.21257" lon="-2.62536">
        <ele>106.59999847412</ele>
        <time>2021-10-15T12:34:38.000Z</time>
      </trkpt>
      <trkpt lat="48.21259" lon="-2.62546">
        <ele>107</ele>
        <time>2021-10-15T12:34:39.000Z</time>
      </trkpt>
      <trkpt lat="48.21262" lon="-2.62556">
        <ele>107</ele>
        <time>2021-10-15T12:34:40.000Z</time>
      </trkpt>
      <trkpt lat="48.21264" lon="-2.62564">
        <ele>107.19999694824</ele>
        <time>2021-10-15T12:34:41.000Z</time>
      </trkpt>
      <trkpt lat="48.21267" lon="-2.62572">
        <ele>107.59999847412</ele>
        <time>2021-10-15T12:34:42.000Z</time>
      </trkpt>
      <trkpt lat="48.2127" lon="-2.6258">
        <ele>108</ele>
        <time>2021-10-15T12:34:43.000Z</time>
      </trkpt>
      <trkpt lat="48.21272" lon="-2.62587">
        <ele>108.59999847412</ele>
        <time>2021-10-15T12:34:44.000Z</time>
      </trkpt>
      <trkpt lat="48.21275" lon="-2.62595">
        <ele>108.80000305176</ele>
        <time>2021-10-15T12:34:45.000Z</time>
      </trkpt>
      <trkpt lat="48.21278" lon="-2.62602">
        <ele>109.19999694824</ele>
        <time>2021-10-15T12:34:46.000Z</time>
      </trkpt>
      <trkpt lat="48.2128" lon="-2.62609">
        <ele>109.19999694824</ele>
        <time>2021-10-15T12:34:47.000Z</time>
      </trkpt>
      <trkpt lat="48.21282" lon="-2.62615">
        <ele>109.19999694824</ele>
        <time>2021-10-15T12:34:48.000Z</time>
      </trkpt>
      <trkpt lat="48.21285" lon="-2.62622">
        <ele>109.40000152588</ele>
        <time>2021-10-15T12:34:49.000Z</time>
      </trkpt>
      <trkpt lat="48.21287" lon="-2.62628">
        <ele>109.40000152588</ele>
        <time>2021-10-15T12:34:50.000Z</time>
      </trkpt>
      <trkpt lat="48.21289" lon="-2.62634">
        <ele>109.40000152588</ele>
        <time>2021-10-15T12:34:51.000Z</time>
      </trkpt>
      <trkpt lat="48.21294" lon="-2.62645">
        <ele>109.40000152588</ele>
        <time>2021-10-15T12:34:52.000Z</time>
      </trkpt>
      <trkpt lat="48.21294" lon="-2.62645">
        <ele>109.40000152588</ele>
        <time>2021-10-15T12:34:53.000Z</time>
      </trkpt>
      <trkpt lat="48.21296" lon="-2.62649">
        <ele>109.40000152588</ele>
        <time>2021-10-15T12:34:54.000Z</time>
      </trkpt>
      <trkpt lat="48.21297" lon="-2.62652">
        <ele>109.40000152588</ele>
        <time>2021-10-15T12:34:55.000Z</time>
      </trkpt>
      <trkpt lat="48.21298" lon="-2.62654">
        <ele>109.40000152588</ele>
        <time>2021-10-15T12:34:56.000Z</time>
      </trkpt>
      <trkpt lat="48.213" lon="-2.62655">
        <ele>109.59999847412</ele>
        <time>2021-10-15T12:34:57.000Z</time>
      </trkpt>
      <trkpt lat="48.21301" lon="-2.62656">
        <ele>109.59999847412</ele>
        <time>2021-10-15T12:34:58.000Z</time>
      </trkpt>
      <trkpt lat="48.21302" lon="-2.62658">
        <ele>109.80000305176</ele>
        <time>2021-10-15T12:34:59.000Z</time>
      </trkpt>
      <trkpt lat="48.21302" lon="-2.6266">
        <ele>109.80000305176</ele>
        <time>2021-10-15T12:35:00.000Z</time>
      </trkpt>
      <trkpt lat="48.21302" lon="-2.62661">
        <ele>109.80000305176</ele>
        <time>2021-10-15T12:35:01.000Z</time>
      </trkpt>
      <trkpt lat="48.21303" lon="-2.62662">
        <ele>109.80000305176</ele>
        <time>2021-10-15T12:35:02.000Z</time>
      </trkpt>
      <trkpt lat="48.21304" lon="-2.62664">
        <ele>109.80000305176</ele>
        <time>2021-10-15T12:35:03.000Z</time>
      </trkpt>
      <trkpt lat="48.21304" lon="-2.62666">
        <ele>109.80000305176</ele>
        <time>2021-10-15T12:35:04.000Z</time>
      </trkpt>
      <trkpt lat="48.21305" lon="-2.62668">
        <ele>109.80000305176</ele>
        <time>2021-10-15T12:35:05.000Z</time>
      </trkpt>
      <trkpt lat="48.21306" lon="-2.6267">
        <ele>109.80000305176</ele>
        <time>2021-10-15T12:35:06.000Z</time>
      </trkpt>
      <trkpt lat="48.21307" lon="-2.62673">
        <ele>109.80000305176</ele>
        <time>2021-10-15T12:35:07.000Z</time>
      </trkpt>
      <trkpt lat="48.21308" lon="-2.62675">
        <ele>109.80000305176</ele>
        <time>2021-10-15T12:35:08.000Z</time>
      </trkpt>
      <trkpt lat="48.21309" lon="-2.62679">
        <ele>109.80000305176</ele>
        <time>2021-10-15T12:35:09.000Z</time>
      </trkpt>
      <trkpt lat="48.2131" lon="-2.62682">
        <ele>109.80000305176</ele>
        <time>2021-10-15T12:35:10.000Z</time>
      </trkpt>
      <trkpt lat="48.21311" lon="-2.62685">
        <ele>109.80000305176</ele>
        <time>2021-10-15T12:35:11.000Z</time>
      </trkpt>
      <trkpt lat="48.21312" lon="-2.62689">
        <ele>110</ele>
        <time>2021-10-15T12:35:12.000Z</time>
      </trkpt>
      <trkpt lat="48.21313" lon="-2.62692">
        <ele>110.19999694824</ele>
        <time>2021-10-15T12:35:13.000Z</time>
      </trkpt>
      <trkpt lat="48.21313" lon="-2.62697">
        <ele>110</ele>
        <time>2021-10-15T12:35:14.000Z</time>
      </trkpt>
      <trkpt lat="48.21313" lon="-2.62701">
        <ele>109.80000305176</ele>
        <time>2021-10-15T12:35:15.000Z</time>
      </trkpt>
      <trkpt lat="48.21312" lon="-2.62704">
        <ele>109.59999847412</ele>
        <time>2021-10-15T12:35:16.000Z</time>
      </trkpt>
      <trkpt lat="48.21311" lon="-2.62707">
        <ele>109.40000152588</ele>
        <time>2021-10-15T12:35:17.000Z</time>
      </trkpt>
      <trkpt lat="48.21309" lon="-2.62711">
        <ele>108.80000305176</ele>
        <time>2021-10-15T12:35:18.000Z</time>
      </trkpt>
      <trkpt lat="48.21307" lon="-2.62713">
        <ele>108.19999694824</ele>
        <time>2021-10-15T12:35:19.000Z</time>
      </trkpt>
      <trkpt lat="48.21303" lon="-2.62716">
        <ele>107.40000152588</ele>
        <time>2021-10-15T12:35:20.000Z</time>
      </trkpt>
      <trkpt lat="48.21301" lon="-2.62718">
        <ele>106.80000305176</ele>
        <time>2021-10-15T12:35:21.000Z</time>
      </trkpt>
      <trkpt lat="48.21298" lon="-2.6272">
        <ele>106</ele>
        <time>2021-10-15T12:35:22.000Z</time>
      </trkpt>
      <trkpt lat="48.21295" lon="-2.62722">
        <ele>105.59999847412</ele>
        <time>2021-10-15T12:35:23.000Z</time>
      </trkpt>
      <trkpt lat="48.21292" lon="-2.62724">
        <ele>105.40000152588</ele>
        <time>2021-10-15T12:35:24.000Z</time>
      </trkpt>
      <trkpt lat="48.21288" lon="-2.62727">
        <ele>105</ele>
        <time>2021-10-15T12:35:25.000Z</time>
      </trkpt>
      <trkpt lat="48.21285" lon="-2.62728">
        <ele>104.59999847412</ele>
        <time>2021-10-15T12:35:26.000Z</time>
      </trkpt>
      <trkpt lat="48.21282" lon="-2.6273">
        <ele>104.40000152588</ele>
        <time>2021-10-15T12:35:27.000Z</time>
      </trkpt>
      <trkpt lat="48.21276" lon="-2.62734">
        <ele>103.59999847412</ele>
        <time>2021-10-15T12:35:28.000Z</time>
      </trkpt>
      <trkpt lat="48.21276" lon="-2.62734">
        <ele>103.59999847412</ele>
        <time>2021-10-15T12:35:29.000Z</time>
      </trkpt>
      <trkpt lat="48.21273" lon="-2.62736">
        <ele>103.40000152588</ele>
        <time>2021-10-15T12:35:30.000Z</time>
      </trkpt>
      <trkpt lat="48.2127" lon="-2.62738">
        <ele>103</ele>
        <time>2021-10-15T12:35:31.000Z</time>
      </trkpt>
      <trkpt lat="48.21266" lon="-2.62741">
        <ele>102.80000305176</ele>
        <time>2021-10-15T12:35:32.000Z</time>
      </trkpt>
      <trkpt lat="48.21263" lon="-2.62744">
        <ele>102.80000305176</ele>
        <time>2021-10-15T12:35:33.000Z</time>
      </trkpt>
      <trkpt lat="48.2126" lon="-2.62747">
        <ele>102.59999847412</ele>
        <time>2021-10-15T12:35:34.000Z</time>
      </trkpt>
      <trkpt lat="48.21256" lon="-2.62749">
        <ele>102.59999847412</ele>
        <time>2021-10-15T12:35:35.000Z</time>
      </trkpt>
      <trkpt lat="48.21253" lon="-2.62751">
        <ele>102.40000152588</ele>
        <time>2021-10-15T12:35:36.000Z</time>
      </trkpt>
      <trkpt lat="48.2125" lon="-2.62754">
        <ele>102.19999694824</ele>
        <time>2021-10-15T12:35:37.000Z</time>
      </trkpt>
      <trkpt lat="48.21247" lon="-2.62756">
        <ele>102</ele>
        <time>2021-10-15T12:35:38.000Z</time>
      </trkpt>
      <trkpt lat="48.21244" lon="-2.62759">
        <ele>101.80000305176</ele>
        <time>2021-10-15T12:35:39.000Z</time>
      </trkpt>
      <trkpt lat="48.21242" lon="-2.62762">
        <ele>101.80000305176</ele>
        <time>2021-10-15T12:35:40.000Z</time>
      </trkpt>
      <trkpt lat="48.2124" lon="-2.62763">
        <ele>101.59999847412</ele>
        <time>2021-10-15T12:35:41.000Z</time>
      </trkpt>
      <trkpt lat="48.21238" lon="-2.62764">
        <ele>101.59999847412</ele>
        <time>2021-10-15T12:35:42.000Z</time>
      </trkpt>
      <trkpt lat="48.21237" lon="-2.62765">
        <ele>101.59999847412</ele>
        <time>2021-10-15T12:35:43.000Z</time>
      </trkpt>
      <trkpt lat="48.21237" lon="-2.62766">
        <ele>101.59999847412</ele>
        <time>2021-10-15T12:35:44.000Z</time>
      </trkpt>
      <trkpt lat="48.21236" lon="-2.62766">
        <ele>101.59999847412</ele>
        <time>2021-10-15T12:35:45.000Z</time>
      </trkpt>
      <trkpt lat="48.21236" lon="-2.62767">
        <ele>101.59999847412</ele>
        <time>2021-10-15T12:35:46.000Z</time>
      </trkpt>
      <trkpt lat="48.21236" lon="-2.62767">
        <ele>101.59999847412</ele>
        <time>2021-10-15T12:35:47.000Z</time>
      </trkpt>
      <trkpt lat="48.21236" lon="-2.62767">
        <ele>101.59999847412</ele>
        <time>2021-10-15T12:35:48.000Z</time>
      </trkpt>
      <trkpt lat="48.21236" lon="-2.62767">
        <ele>101.59999847412</ele>
        <time>2021-10-15T12:35:49.000Z</time>
      </trkpt>
      <trkpt lat="48.21236" lon="-2.62767">
        <ele>101.59999847412</ele>
        <time>2021-10-15T12:35:50.000Z</time>
      </trkpt>
      <trkpt lat="48.21236" lon="-2.62767">
        <ele>101.59999847412</ele>
        <time>2021-10-15T12:35:51.000Z</time>
      </trkpt>
      <trkpt lat="48.21236" lon="-2.62767">
        <ele>101.59999847412</ele>
        <time>2021-10-15T12:35:52.000Z</time>
      </trkpt>
      <trkpt lat="48.21236" lon="-2.62767">
        <ele>101.59999847412</ele>
        <time>2021-10-15T12:35:53.000Z</time>
      </trkpt>
      <trkpt lat="48.21236" lon="-2.62767">
        <ele>101.59999847412</ele>
        <time>2021-10-15T12:35:54.000Z</time>
      </trkpt>
      <trkpt lat="48.21236" lon="-2.62767">
        <ele>101.59999847412</ele>
        <time>2021-10-15T12:35:55.000Z</time>
      </trkpt>
      <trkpt lat="48.21236" lon="-2.62767">
        <ele>101.59999847412</ele>
        <time>2021-10-15T12:35:56.000Z</time>
      </trkpt>
      <trkpt lat="48.21236" lon="-2.62767">
        <ele>101.59999847412</ele>
        <time>2021-10-15T12:35:57.000Z</time>
      </trkpt>
      <trkpt lat="48.21236" lon="-2.62767">
        <ele>101.59999847412</ele>
        <time>2021-10-15T12:35:58.000Z</time>
      </trkpt>
      <trkpt lat="48.21236" lon="-2.62767">
        <ele>101.59999847412</ele>
        <time>2021-10-15T12:35:59.000Z</time>
      </trkpt>
      <trkpt lat="48.21236" lon="-2.62767">
        <ele>101.59999847412</ele>
        <time>2021-10-15T12:36:00.000Z</time>
      </trkpt>
      <trkpt lat="48.21236" lon="-2.62767">
        <ele>101.59999847412</ele>
        <time>2021-10-15T12:36:01.000Z</time>
      </trkpt>
      <trkpt lat="48.21236" lon="-2.62767">
        <ele>101.59999847412</ele>
        <time>2021-10-15T12:36:02.000Z</time>
      </trkpt>
      <trkpt lat="48.21236" lon="-2.62767">
        <ele>101.59999847412</ele>
        <time>2021-10-15T12:36:03.000Z</time>
      </trkpt>
      <trkpt lat="48.21236" lon="-2.62767">
        <ele>101.59999847412</ele>
        <time>2021-10-15T12:36:04.000Z</time>
      </trkpt>
      <trkpt lat="48.21236" lon="-2.62767">
        <ele>101.59999847412</ele>
        <time>2021-10-15T12:36:05.000Z</time>
      </trkpt>
      <trkpt lat="48.21236" lon="-2.62767">
        <ele>101.59999847412</ele>
        <time>2021-10-15T12:36:06.000Z</time>
      </trkpt>
      <trkpt lat="48.21236" lon="-2.62767">
        <ele>101.59999847412</ele>
        <time>2021-10-15T12:36:07.000Z</time>
      </trkpt>
      <trkpt lat="48.21236" lon="-2.62767">
        <ele>101.59999847412</ele>
        <time>2021-10-15T12:36:08.000Z</time>
      </trkpt>
      <trkpt lat="48.21236" lon="-2.62767">
        <ele>101.59999847412</ele>
        <time>2021-10-15T12:36:09.000Z</time>
      </trkpt>
      <trkpt lat="48.21236" lon="-2.62767">
        <ele>101.59999847412</ele>
        <time>2021-10-15T12:36:10.000Z</time>
      </trkpt>
      <trkpt lat="48.21236" lon="-2.62767">
        <ele>101.59999847412</ele>
        <time>2021-10-15T12:36:11.000Z</time>
      </trkpt>
      <trkpt lat="48.21236" lon="-2.62767">
        <ele>101.59999847412</ele>
        <time>2021-10-15T12:36:12.000Z</time>
      </trkpt>
      <trkpt lat="48.21236" lon="-2.62767">
        <ele>101.59999847412</ele>
        <time>2021-10-15T12:36:13.000Z</time>
      </trkpt>
      <trkpt lat="48.21236" lon="-2.62767">
        <ele>101.59999847412</ele>
        <time>2021-10-15T12:36:14.000Z</time>
      </trkpt>
      <trkpt lat="48.21236" lon="-2.62767">
        <ele>101.59999847412</ele>
        <time>2021-10-15T12:36:15.000Z</time>
      </trkpt>
      <trkpt lat="48.21236" lon="-2.62767">
        <ele>101.59999847412</ele>
        <time>2021-10-15T12:36:16.000Z</time>
      </trkpt>
      <trkpt lat="48.21236" lon="-2.62767">
        <ele>101.59999847412</ele>
        <time>2021-10-15T12:36:17.000Z</time>
      </trkpt>
      <trkpt lat="48.21236" lon="-2.62767">
        <ele>101.59999847412</ele>
        <time>2021-10-15T12:36:18.000Z</time>
      </trkpt>
      <trkpt lat="48.21236" lon="-2.62767">
        <ele>101.59999847412</ele>
        <time>2021-10-15T12:36:19.000Z</time>
      </trkpt>
      <trkpt lat="48.21236" lon="-2.62767">
        <ele>101.59999847412</ele>
        <time>2021-10-15T12:36:20.000Z</time>
      </trkpt>
      <trkpt lat="48.21236" lon="-2.62767">
        <ele>101.59999847412</ele>
        <time>2021-10-15T12:36:21.000Z</time>
      </trkpt>
      <trkpt lat="48.21236" lon="-2.62767">
        <ele>101.59999847412</ele>
        <time>2021-10-15T12:36:22.000Z</time>
      </trkpt>
      <trkpt lat="48.21236" lon="-2.62767">
        <ele>101.59999847412</ele>
        <time>2021-10-15T12:36:23.000Z</time>
      </trkpt>
      <trkpt lat="48.21236" lon="-2.62767">
        <ele>101.59999847412</ele>
        <time>2021-10-15T12:36:24.000Z</time>
      </trkpt>
      <trkpt lat="48.21236" lon="-2.62767">
        <ele>101.59999847412</ele>
        <time>2021-10-15T12:36:25.000Z</time>
      </trkpt>
      <trkpt lat="48.21236" lon="-2.62767">
        <ele>101.59999847412</ele>
        <time>2021-10-15T12:36:26.000Z</time>
      </trkpt>
      <trkpt lat="48.21236" lon="-2.62767">
        <ele>101.59999847412</ele>
        <time>2021-10-15T12:36:27.000Z</time>
      </trkpt>
      <trkpt lat="48.21236" lon="-2.62767">
        <ele>101.59999847412</ele>
        <time>2021-10-15T12:36:28.000Z</time>
      </trkpt>
      <trkpt lat="48.21236" lon="-2.62767">
        <ele>101.59999847412</ele>
        <time>2021-10-15T12:36:29.000Z</time>
      </trkpt>
      <trkpt lat="48.21236" lon="-2.62767">
        <ele>101.59999847412</ele>
        <time>2021-10-15T12:36:30.000Z</time>
      </trkpt>
      <trkpt lat="48.21236" lon="-2.62767">
        <ele>101.59999847412</ele>
        <time>2021-10-15T12:36:31.000Z</time>
      </trkpt>
      <trkpt lat="48.21236" lon="-2.62767">
        <ele>101.59999847412</ele>
        <time>2021-10-15T12:36:32.000Z</time>
      </trkpt>
      <trkpt lat="48.21236" lon="-2.62767">
        <ele>101.59999847412</ele>
        <time>2021-10-15T12:36:33.000Z</time>
      </trkpt>
      <trkpt lat="48.21236" lon="-2.62767">
        <ele>101.59999847412</ele>
        <time>2021-10-15T12:36:34.000Z</time>
      </trkpt>
      <trkpt lat="48.21236" lon="-2.62767">
        <ele>101.59999847412</ele>
        <time>2021-10-15T12:36:35.000Z</time>
      </trkpt>
      <trkpt lat="48.21236" lon="-2.62767">
        <ele>101.59999847412</ele>
        <time>2021-10-15T12:36:36.000Z</time>
      </trkpt>
      <trkpt lat="48.21236" lon="-2.62767">
        <ele>101.59999847412</ele>
        <time>2021-10-15T12:36:37.000Z</time>
      </trkpt>
      <trkpt lat="48.21236" lon="-2.62767">
        <ele>101.59999847412</ele>
        <time>2021-10-15T12:36:38.000Z</time>
      </trkpt>
      <trkpt lat="48.21236" lon="-2.62767">
        <ele>101.59999847412</ele>
        <time>2021-10-15T12:36:39.000Z</time>
      </trkpt>
      <trkpt lat="48.21236" lon="-2.62767">
        <ele>101.59999847412</ele>
        <time>2021-10-15T12:36:40.000Z</time>
      </trkpt>
      <trkpt lat="48.21236" lon="-2.62767">
        <ele>101.59999847412</ele>
        <time>2021-10-15T12:36:41.000Z</time>
      </trkpt>
      <trkpt lat="48.21236" lon="-2.62767">
        <ele>101.59999847412</ele>
        <time>2021-10-15T12:36:42.000Z</time>
      </trkpt>
      <trkpt lat="48.21236" lon="-2.62767">
        <ele>101.59999847412</ele>
        <time>2021-10-15T12:36:43.000Z</time>
      </trkpt>
      <trkpt lat="48.21236" lon="-2.62768">
        <ele>101.40000152588</ele>
        <time>2021-10-15T12:36:44.000Z</time>
      </trkpt>
      <trkpt lat="48.21236" lon="-2.62768">
        <ele>101.40000152588</ele>
        <time>2021-10-15T12:36:45.000Z</time>
      </trkpt>
      <trkpt lat="48.21236" lon="-2.62768">
        <ele>101.40000152588</ele>
        <time>2021-10-15T12:36:46.000Z</time>
      </trkpt>
      <trkpt lat="48.21236" lon="-2.62768">
        <ele>101.40000152588</ele>
        <time>2021-10-15T12:36:47.000Z</time>
      </trkpt>
      <trkpt lat="48.21236" lon="-2.62768">
        <ele>101.40000152588</ele>
        <time>2021-10-15T12:36:48.000Z</time>
      </trkpt>
      <trkpt lat="48.21236" lon="-2.62768">
        <ele>101.40000152588</ele>
        <time>2021-10-15T12:36:49.000Z</time>
      </trkpt>
      <trkpt lat="48.21236" lon="-2.62768">
        <ele>101.40000152588</ele>
        <time>2021-10-15T12:36:50.000Z</time>
      </trkpt>
      <trkpt lat="48.21236" lon="-2.62768">
        <ele>101.40000152588</ele>
        <time>2021-10-15T12:36:51.000Z</time>
      </trkpt>
      <trkpt lat="48.21236" lon="-2.62768">
        <ele>101.40000152588</ele>
        <time>2021-10-15T12:36:52.000Z</time>
      </trkpt>
      <trkpt lat="48.21236" lon="-2.62768">
        <ele>101.40000152588</ele>
        <time>2021-10-15T12:36:53.000Z</time>
      </trkpt>
      <trkpt lat="48.21236" lon="-2.62768">
        <ele>101.40000152588</ele>
        <time>2021-10-15T12:36:54.000Z</time>
      </trkpt>
      <trkpt lat="48.21236" lon="-2.62768">
        <ele>101.40000152588</ele>
        <time>2021-10-15T12:36:55.000Z</time>
      </trkpt>
      <trkpt lat="48.21236" lon="-2.62768">
        <ele>101.40000152588</ele>
        <time>2021-10-15T12:36:56.000Z</time>
      </trkpt>
      <trkpt lat="48.21236" lon="-2.62768">
        <ele>101.40000152588</ele>
        <time>2021-10-15T12:36:57.000Z</time>
      </trkpt>
      <trkpt lat="48.21236" lon="-2.62768">
        <ele>101.40000152588</ele>
        <time>2021-10-15T12:36:58.000Z</time>
      </trkpt>
      <trkpt lat="48.21236" lon="-2.62768">
        <ele>101.40000152588</ele>
        <time>2021-10-15T12:36:59.000Z</time>
      </trkpt>
      <trkpt lat="48.21236" lon="-2.62768">
        <ele>101.40000152588</ele>
        <time>2021-10-15T12:37:00.000Z</time>
      </trkpt>
      <trkpt lat="48.21236" lon="-2.62768">
        <ele>101.40000152588</ele>
        <time>2021-10-15T12:37:01.000Z</time>
      </trkpt>
      <trkpt lat="48.21236" lon="-2.62768">
        <ele>101.40000152588</ele>
        <time>2021-10-15T12:37:02.000Z</time>
      </trkpt>
      <trkpt lat="48.21236" lon="-2.62767">
        <ele>101.59999847412</ele>
        <time>2021-10-15T12:37:03.000Z</time>
      </trkpt>
      <trkpt lat="48.21236" lon="-2.62767">
        <ele>101.59999847412</ele>
        <time>2021-10-15T12:37:04.000Z</time>
      </trkpt>
      <trkpt lat="48.21236" lon="-2.62767">
        <ele>101.59999847412</ele>
        <time>2021-10-15T12:37:05.000Z</time>
      </trkpt>
      <trkpt lat="48.21236" lon="-2.62767">
        <ele>101.59999847412</ele>
        <time>2021-10-15T12:37:06.000Z</time>
      </trkpt>
      <trkpt lat="48.21237" lon="-2.62766">
        <ele>101.59999847412</ele>
        <time>2021-10-15T12:37:07.000Z</time>
      </trkpt>
      <trkpt lat="48.21237" lon="-2.62766">
        <ele>101.59999847412</ele>
        <time>2021-10-15T12:37:08.000Z</time>
      </trkpt>
      <trkpt lat="48.21237" lon="-2.62766">
        <ele>101.59999847412</ele>
        <time>2021-10-15T12:37:09.000Z</time>
      </trkpt>
      <trkpt lat="48.21237" lon="-2.62766">
        <ele>101.59999847412</ele>
        <time>2021-10-15T12:37:10.000Z</time>
      </trkpt>
      <trkpt lat="48.21237" lon="-2.62765">
        <ele>101.59999847412</ele>
        <time>2021-10-15T12:37:11.000Z</time>
      </trkpt>
      <trkpt lat="48.21238" lon="-2.62764">
        <ele>101.59999847412</ele>
        <time>2021-10-15T12:37:12.000Z</time>
      </trkpt>
      <trkpt lat="48.21239" lon="-2.62764">
        <ele>101.59999847412</ele>
        <time>2021-10-15T12:37:13.000Z</time>
      </trkpt>
      <trkpt lat="48.2124" lon="-2.62763">
        <ele>101.59999847412</ele>
        <time>2021-10-15T12:37:14.000Z</time>
      </trkpt>
      <trkpt lat="48.21241" lon="-2.62762">
        <ele>101.59999847412</ele>
        <time>2021-10-15T12:37:15.000Z</time>
      </trkpt>
      <trkpt lat="48.21242" lon="-2.62761">
        <ele>101.80000305176</ele>
        <time>2021-10-15T12:37:16.000Z</time>
      </trkpt>
      <trkpt lat="48.21244" lon="-2.6276">
        <ele>101.80000305176</ele>
        <time>2021-10-15T12:37:17.000Z</time>
      </trkpt>
      <trkpt lat="48.21245" lon="-2.62759">
        <ele>102</ele>
        <time>2021-10-15T12:37:18.000Z</time>
      </trkpt>
      <trkpt lat="48.21247" lon="-2.62757">
        <ele>102</ele>
        <time>2021-10-15T12:37:19.000Z</time>
      </trkpt>
      <trkpt lat="48.21248" lon="-2.62756">
        <ele>102.19999694824</ele>
        <time>2021-10-15T12:37:20.000Z</time>
      </trkpt>
      <trkpt lat="48.2125" lon="-2.62754">
        <ele>102.19999694824</ele>
        <time>2021-10-15T12:37:21.000Z</time>
      </trkpt>
      <trkpt lat="48.21251" lon="-2.62753">
        <ele>102.40000152588</ele>
        <time>2021-10-15T12:37:22.000Z</time>
      </trkpt>
      <trkpt lat="48.21253" lon="-2.62752">
        <ele>102.40000152588</ele>
        <time>2021-10-15T12:37:23.000Z</time>
      </trkpt>
      <trkpt lat="48.21254" lon="-2.62751">
        <ele>102.40000152588</ele>
        <time>2021-10-15T12:37:24.000Z</time>
      </trkpt>
      <trkpt lat="48.21256" lon="-2.6275">
        <ele>102.40000152588</ele>
        <time>2021-10-15T12:37:25.000Z</time>
      </trkpt>
      <trkpt lat="48.21257" lon="-2.62749">
        <ele>102.59999847412</ele>
        <time>2021-10-15T12:37:26.000Z</time>
      </trkpt>
      <trkpt lat="48.21259" lon="-2.62748">
        <ele>102.59999847412</ele>
        <time>2021-10-15T12:37:27.000Z</time>
      </trkpt>
      <trkpt lat="48.21261" lon="-2.62746">
        <ele>102.59999847412</ele>
        <time>2021-10-15T12:37:28.000Z</time>
      </trkpt>
      <trkpt lat="48.21263" lon="-2.62745">
        <ele>102.80000305176</ele>
        <time>2021-10-15T12:37:29.000Z</time>
      </trkpt>
      <trkpt lat="48.21264" lon="-2.62744">
        <ele>102.80000305176</ele>
        <time>2021-10-15T12:37:30.000Z</time>
      </trkpt>
      <trkpt lat="48.21266" lon="-2.62742">
        <ele>102.80000305176</ele>
        <time>2021-10-15T12:37:31.000Z</time>
      </trkpt>
      <trkpt lat="48.21268" lon="-2.62741">
        <ele>103</ele>
        <time>2021-10-15T12:37:32.000Z</time>
      </trkpt>
      <trkpt lat="48.2127" lon="-2.6274">
        <ele>103</ele>
        <time>2021-10-15T12:37:33.000Z</time>
      </trkpt>
      <trkpt lat="48.21272" lon="-2.62738">
        <ele>103.19999694824</ele>
        <time>2021-10-15T12:37:34.000Z</time>
      </trkpt>
      <trkpt lat="48.21273" lon="-2.62737">
        <ele>103.40000152588</ele>
        <time>2021-10-15T12:37:35.000Z</time>
      </trkpt>
      <trkpt lat="48.21275" lon="-2.62736">
        <ele>103.59999847412</ele>
        <time>2021-10-15T12:37:36.000Z</time>
      </trkpt>
      <trkpt lat="48.21275" lon="-2.62736">
        <ele>103.59999847412</ele>
        <time>2021-10-15T12:37:37.000Z</time>
      </trkpt>
      <trkpt lat="48.21276" lon="-2.62736">
        <ele>103.59999847412</ele>
        <time>2021-10-15T12:37:38.000Z</time>
      </trkpt>
      <trkpt lat="48.21276" lon="-2.62736">
        <ele>103.59999847412</ele>
        <time>2021-10-15T12:37:39.000Z</time>
      </trkpt>
      <trkpt lat="48.21276" lon="-2.62736">
        <ele>103.59999847412</ele>
        <time>2021-10-15T12:37:40.000Z</time>
      </trkpt>
      <trkpt lat="48.21276" lon="-2.62735">
        <ele>103.59999847412</ele>
        <time>2021-10-15T12:37:41.000Z</time>
      </trkpt>
      <trkpt lat="48.21277" lon="-2.62735">
        <ele>103.80000305176</ele>
        <time>2021-10-15T12:37:42.000Z</time>
      </trkpt>
      <trkpt lat="48.21278" lon="-2.62734">
        <ele>103.80000305176</ele>
        <time>2021-10-15T12:37:43.000Z</time>
      </trkpt>
      <trkpt lat="48.21279" lon="-2.62732">
        <ele>104</ele>
        <time>2021-10-15T12:37:44.000Z</time>
      </trkpt>
      <trkpt lat="48.2128" lon="-2.62731">
        <ele>104</ele>
        <time>2021-10-15T12:37:45.000Z</time>
      </trkpt>
      <trkpt lat="48.21281" lon="-2.62729">
        <ele>104.19999694824</ele>
        <time>2021-10-15T12:37:46.000Z</time>
      </trkpt>
      <trkpt lat="48.21283" lon="-2.62727">
        <ele>104.40000152588</ele>
        <time>2021-10-15T12:37:47.000Z</time>
      </trkpt>
      <trkpt lat="48.21284" lon="-2.62725">
        <ele>104.59999847412</ele>
        <time>2021-10-15T12:37:48.000Z</time>
      </trkpt>
      <trkpt lat="48.21285" lon="-2.62723">
        <ele>104.59999847412</ele>
        <time>2021-10-15T12:37:49.000Z</time>
      </trkpt>
      <trkpt lat="48.21287" lon="-2.62721">
        <ele>104.80000305176</ele>
        <time>2021-10-15T12:37:50.000Z</time>
      </trkpt>
      <trkpt lat="48.21288" lon="-2.6272">
        <ele>105</ele>
        <time>2021-10-15T12:37:51.000Z</time>
      </trkpt>
      <trkpt lat="48.21289" lon="-2.62719">
        <ele>105</ele>
        <time>2021-10-15T12:37:52.000Z</time>
      </trkpt>
      <trkpt lat="48.2129" lon="-2.62718">
        <ele>105.19999694824</ele>
        <time>2021-10-15T12:37:53.000Z</time>
      </trkpt>
      <trkpt lat="48.21292" lon="-2.62717">
        <ele>105.40000152588</ele>
        <time>2021-10-15T12:37:54.000Z</time>
      </trkpt>
      <trkpt lat="48.21293" lon="-2.62716">
        <ele>105.40000152588</ele>
        <time>2021-10-15T12:37:55.000Z</time>
      </trkpt>
      <trkpt lat="48.21294" lon="-2.62715">
        <ele>105.59999847412</ele>
        <time>2021-10-15T12:37:56.000Z</time>
      </trkpt>
      <trkpt lat="48.21295" lon="-2.62715">
        <ele>105.80000305176</ele>
        <time>2021-10-15T12:37:57.000Z</time>
      </trkpt>
      <trkpt lat="48.21296" lon="-2.62714">
        <ele>105.80000305176</ele>
        <time>2021-10-15T12:37:58.000Z</time>
      </trkpt>
      <trkpt lat="48.21297" lon="-2.62713">
        <ele>106</ele>
        <time>2021-10-15T12:37:59.000Z</time>
      </trkpt>
      <trkpt lat="48.21298" lon="-2.62712">
        <ele>106.19999694824</ele>
        <time>2021-10-15T12:38:00.000Z</time>
      </trkpt>
      <trkpt lat="48.213" lon="-2.62711">
        <ele>106.59999847412</ele>
        <time>2021-10-15T12:38:01.000Z</time>
      </trkpt>
      <trkpt lat="48.21301" lon="-2.6271">
        <ele>106.80000305176</ele>
        <time>2021-10-15T12:38:02.000Z</time>
      </trkpt>
      <trkpt lat="48.21302" lon="-2.62709">
        <ele>107</ele>
        <time>2021-10-15T12:38:03.000Z</time>
      </trkpt>
      <trkpt lat="48.21303" lon="-2.62708">
        <ele>107.19999694824</ele>
        <time>2021-10-15T12:38:04.000Z</time>
      </trkpt>
      <trkpt lat="48.21303" lon="-2.62707">
        <ele>107.40000152588</ele>
        <time>2021-10-15T12:38:05.000Z</time>
      </trkpt>
      <trkpt lat="48.21304" lon="-2.62706">
        <ele>107.59999847412</ele>
        <time>2021-10-15T12:38:06.000Z</time>
      </trkpt>
      <trkpt lat="48.21304" lon="-2.62705">
        <ele>107.59999847412</ele>
        <time>2021-10-15T12:38:07.000Z</time>
      </trkpt>
      <trkpt lat="48.21305" lon="-2.62704">
        <ele>107.80000305176</ele>
        <time>2021-10-15T12:38:08.000Z</time>
      </trkpt>
      <trkpt lat="48.21305" lon="-2.62703">
        <ele>107.80000305176</ele>
        <time>2021-10-15T12:38:09.000Z</time>
      </trkpt>
      <trkpt lat="48.21305" lon="-2.62701">
        <ele>107.80000305176</ele>
        <time>2021-10-15T12:38:10.000Z</time>
      </trkpt>
      <trkpt lat="48.21305" lon="-2.62699">
        <ele>108</ele>
        <time>2021-10-15T12:38:11.000Z</time>
      </trkpt>
      <trkpt lat="48.21305" lon="-2.62697">
        <ele>108</ele>
        <time>2021-10-15T12:38:12.000Z</time>
      </trkpt>
      <trkpt lat="48.21306" lon="-2.62695">
        <ele>108.19999694824</ele>
        <time>2021-10-15T12:38:13.000Z</time>
      </trkpt>
      <trkpt lat="48.21306" lon="-2.62693">
        <ele>108.19999694824</ele>
        <time>2021-10-15T12:38:14.000Z</time>
      </trkpt>
      <trkpt lat="48.21306" lon="-2.62691">
        <ele>108.19999694824</ele>
        <time>2021-10-15T12:38:15.000Z</time>
      </trkpt>
      <trkpt lat="48.21306" lon="-2.62689">
        <ele>108.40000152588</ele>
        <time>2021-10-15T12:38:16.000Z</time>
      </trkpt>
      <trkpt lat="48.21305" lon="-2.62689">
        <ele>108.40000152588</ele>
        <time>2021-10-15T12:38:17.000Z</time>
      </trkpt>
      <trkpt lat="48.21305" lon="-2.62689">
        <ele>108.40000152588</ele>
        <time>2021-10-15T12:38:18.000Z</time>
      </trkpt>
      <trkpt lat="48.21305" lon="-2.62689">
        <ele>108.19999694824</ele>
        <time>2021-10-15T12:38:19.000Z</time>
      </trkpt>
      <trkpt lat="48.21305" lon="-2.62689">
        <ele>108.19999694824</ele>
        <time>2021-10-15T12:38:20.000Z</time>
      </trkpt>
      <trkpt lat="48.21305" lon="-2.6269">
        <ele>108.19999694824</ele>
        <time>2021-10-15T12:38:21.000Z</time>
      </trkpt>
      <trkpt lat="48.21305" lon="-2.6269">
        <ele>108.19999694824</ele>
        <time>2021-10-15T12:38:22.000Z</time>
      </trkpt>
      <trkpt lat="48.21305" lon="-2.6269">
        <ele>108.19999694824</ele>
        <time>2021-10-15T12:38:23.000Z</time>
      </trkpt>
      <trkpt lat="48.21305" lon="-2.6269">
        <ele>108.19999694824</ele>
        <time>2021-10-15T12:38:24.000Z</time>
      </trkpt>
      <trkpt lat="48.21305" lon="-2.6269">
        <ele>108</ele>
        <time>2021-10-15T12:38:25.000Z</time>
      </trkpt>
      <trkpt lat="48.21305" lon="-2.6269">
        <ele>108</ele>
        <time>2021-10-15T12:38:26.000Z</time>
      </trkpt>
      <trkpt lat="48.21305" lon="-2.6269">
        <ele>108</ele>
        <time>2021-10-15T12:38:27.000Z</time>
      </trkpt>
      <trkpt lat="48.21305" lon="-2.6269">
        <ele>108</ele>
        <time>2021-10-15T12:38:28.000Z</time>
      </trkpt>
      <trkpt lat="48.21305" lon="-2.6269">
        <ele>108</ele>
        <time>2021-10-15T12:38:29.000Z</time>
      </trkpt>
      <trkpt lat="48.21305" lon="-2.6269">
        <ele>108</ele>
        <time>2021-10-15T12:38:30.000Z</time>
      </trkpt>
      <trkpt lat="48.21305" lon="-2.6269">
        <ele>108</ele>
        <time>2021-10-15T12:38:31.000Z</time>
      </trkpt>
      <trkpt lat="48.21305" lon="-2.6269">
        <ele>108</ele>
        <time>2021-10-15T12:38:32.000Z</time>
      </trkpt>
      <trkpt lat="48.21305" lon="-2.6269">
        <ele>108.19999694824</ele>
        <time>2021-10-15T12:38:33.000Z</time>
      </trkpt>
      <trkpt lat="48.21305" lon="-2.62688">
        <ele>108.19999694824</ele>
        <time>2021-10-15T12:38:34.000Z</time>
      </trkpt>
      <trkpt lat="48.21304" lon="-2.62687">
        <ele>108.40000152588</ele>
        <time>2021-10-15T12:38:35.000Z</time>
      </trkpt>
      <trkpt lat="48.21304" lon="-2.62685">
        <ele>108.40000152588</ele>
        <time>2021-10-15T12:38:36.000Z</time>
      </trkpt>
      <trkpt lat="48.21304" lon="-2.62683">
        <ele>108.40000152588</ele>
        <time>2021-10-15T12:38:37.000Z</time>
      </trkpt>
      <trkpt lat="48.21303" lon="-2.62682">
        <ele>108.40000152588</ele>
        <time>2021-10-15T12:38:38.000Z</time>
      </trkpt>
      <trkpt lat="48.21303" lon="-2.6268">
        <ele>108.40000152588</ele>
        <time>2021-10-15T12:38:39.000Z</time>
      </trkpt>
      <trkpt lat="48.21302" lon="-2.62679">
        <ele>108.40000152588</ele>
        <time>2021-10-15T12:38:40.000Z</time>
      </trkpt>
      <trkpt lat="48.21302" lon="-2.62677">
        <ele>108.40000152588</ele>
        <time>2021-10-15T12:38:41.000Z</time>
      </trkpt>
      <trkpt lat="48.21301" lon="-2.62675">
        <ele>108.40000152588</ele>
        <time>2021-10-15T12:38:42.000Z</time>
      </trkpt>
      <trkpt lat="48.213" lon="-2.62674">
        <ele>108.19999694824</ele>
        <time>2021-10-15T12:38:43.000Z</time>
      </trkpt>
      <trkpt lat="48.21299" lon="-2.62672">
        <ele>108.19999694824</ele>
        <time>2021-10-15T12:38:44.000Z</time>
      </trkpt>
      <trkpt lat="48.21298" lon="-2.6267">
        <ele>108.19999694824</ele>
        <time>2021-10-15T12:38:45.000Z</time>
      </trkpt>
      <trkpt lat="48.21297" lon="-2.62668">
        <ele>108.19999694824</ele>
        <time>2021-10-15T12:38:46.000Z</time>
      </trkpt>
      <trkpt lat="48.21297" lon="-2.62666">
        <ele>108.19999694824</ele>
        <time>2021-10-15T12:38:47.000Z</time>
      </trkpt>
      <trkpt lat="48.21296" lon="-2.62664">
        <ele>108.19999694824</ele>
        <time>2021-10-15T12:38:48.000Z</time>
      </trkpt>
      <trkpt lat="48.21295" lon="-2.62662">
        <ele>108.40000152588</ele>
        <time>2021-10-15T12:38:49.000Z</time>
      </trkpt>
      <trkpt lat="48.21295" lon="-2.6266">
        <ele>108.40000152588</ele>
        <time>2021-10-15T12:38:50.000Z</time>
      </trkpt>
      <trkpt lat="48.21294" lon="-2.62658">
        <ele>108.40000152588</ele>
        <time>2021-10-15T12:38:51.000Z</time>
      </trkpt>
      <trkpt lat="48.21293" lon="-2.62657">
        <ele>108.40000152588</ele>
        <time>2021-10-15T12:38:52.000Z</time>
      </trkpt>
      <trkpt lat="48.21292" lon="-2.62657">
        <ele>108.40000152588</ele>
        <time>2021-10-15T12:38:53.000Z</time>
      </trkpt>
      <trkpt lat="48.21292" lon="-2.62657">
        <ele>108.19999694824</ele>
        <time>2021-10-15T12:38:54.000Z</time>
      </trkpt>
      <trkpt lat="48.21291" lon="-2.62657">
        <ele>108.19999694824</ele>
        <time>2021-10-15T12:38:55.000Z</time>
      </trkpt>
      <trkpt lat="48.21291" lon="-2.62657">
        <ele>108.19999694824</ele>
        <time>2021-10-15T12:38:56.000Z</time>
      </trkpt>
      <trkpt lat="48.21291" lon="-2.62657">
        <ele>108.19999694824</ele>
        <time>2021-10-15T12:38:57.000Z</time>
      </trkpt>
      <trkpt lat="48.21291" lon="-2.62657">
        <ele>108.19999694824</ele>
        <time>2021-10-15T12:38:58.000Z</time>
      </trkpt>
      <trkpt lat="48.21291" lon="-2.62657">
        <ele>108.19999694824</ele>
        <time>2021-10-15T12:38:59.000Z</time>
      </trkpt>
      <trkpt lat="48.21291" lon="-2.62657">
        <ele>108.19999694824</ele>
        <time>2021-10-15T12:39:00.000Z</time>
      </trkpt>
      <trkpt lat="48.21291" lon="-2.62657">
        <ele>108.19999694824</ele>
        <time>2021-10-15T12:39:01.000Z</time>
      </trkpt>
      <trkpt lat="48.21291" lon="-2.62657">
        <ele>108.19999694824</ele>
        <time>2021-10-15T12:39:02.000Z</time>
      </trkpt>
      <trkpt lat="48.21291" lon="-2.62657">
        <ele>108.19999694824</ele>
        <time>2021-10-15T12:39:03.000Z</time>
      </trkpt>
      <trkpt lat="48.21291" lon="-2.62657">
        <ele>108.19999694824</ele>
        <time>2021-10-15T12:39:04.000Z</time>
      </trkpt>
      <trkpt lat="48.21291" lon="-2.62657">
        <ele>108.19999694824</ele>
        <time>2021-10-15T12:39:05.000Z</time>
      </trkpt>
      <trkpt lat="48.21291" lon="-2.62657">
        <ele>108.19999694824</ele>
        <time>2021-10-15T12:39:06.000Z</time>
      </trkpt>
      <trkpt lat="48.21291" lon="-2.62657">
        <ele>108.19999694824</ele>
        <time>2021-10-15T12:39:07.000Z</time>
      </trkpt>
      <trkpt lat="48.21291" lon="-2.62657">
        <ele>108.19999694824</ele>
        <time>2021-10-15T12:39:08.000Z</time>
      </trkpt>
      <trkpt lat="48.21291" lon="-2.62657">
        <ele>108.19999694824</ele>
        <time>2021-10-15T12:39:09.000Z</time>
      </trkpt>
      <trkpt lat="48.2129" lon="-2.62657">
        <ele>108.19999694824</ele>
        <time>2021-10-15T12:39:10.000Z</time>
      </trkpt>
      <trkpt lat="48.21291" lon="-2.62657">
        <ele>108.19999694824</ele>
        <time>2021-10-15T12:39:11.000Z</time>
      </trkpt>
      <trkpt lat="48.21291" lon="-2.62657">
        <ele>108.19999694824</ele>
        <time>2021-10-15T12:39:12.000Z</time>
      </trkpt>
      <trkpt lat="48.21291" lon="-2.62657">
        <ele>108.19999694824</ele>
        <time>2021-10-15T12:39:13.000Z</time>
      </trkpt>
      <trkpt lat="48.21291" lon="-2.62657">
        <ele>108.19999694824</ele>
        <time>2021-10-15T12:39:14.000Z</time>
      </trkpt>
      <trkpt lat="48.21291" lon="-2.62657">
        <ele>108.19999694824</ele>
        <time>2021-10-15T12:39:15.000Z</time>
      </trkpt>
      <trkpt lat="48.21292" lon="-2.62658">
        <ele>108.19999694824</ele>
        <time>2021-10-15T12:39:16.000Z</time>
      </trkpt>
      <trkpt lat="48.21292" lon="-2.62658">
        <ele>108.40000152588</ele>
        <time>2021-10-15T12:39:17.000Z</time>
      </trkpt>
      <trkpt lat="48.21292" lon="-2.62658">
        <ele>108.40000152588</ele>
        <time>2021-10-15T12:39:18.000Z</time>
      </trkpt>
      <trkpt lat="48.21292" lon="-2.62658">
        <ele>108.40000152588</ele>
        <time>2021-10-15T12:39:19.000Z</time>
      </trkpt>
      <trkpt lat="48.21292" lon="-2.62658">
        <ele>108.19999694824</ele>
        <time>2021-10-15T12:39:20.000Z</time>
      </trkpt>
      <trkpt lat="48.21292" lon="-2.62659">
        <ele>108.19999694824</ele>
        <time>2021-10-15T12:39:21.000Z</time>
      </trkpt>
      <trkpt lat="48.21292" lon="-2.6266">
        <ele>108.19999694824</ele>
        <time>2021-10-15T12:39:22.000Z</time>
      </trkpt>
      <trkpt lat="48.21292" lon="-2.6266">
        <ele>108.19999694824</ele>
        <time>2021-10-15T12:39:23.000Z</time>
      </trkpt>
      <trkpt lat="48.21292" lon="-2.6266">
        <ele>108.19999694824</ele>
        <time>2021-10-15T12:39:24.000Z</time>
      </trkpt>
      <trkpt lat="48.21291" lon="-2.6266">
        <ele>108</ele>
        <time>2021-10-15T12:39:25.000Z</time>
      </trkpt>
      <trkpt lat="48.21292" lon="-2.6266">
        <ele>108</ele>
        <time>2021-10-15T12:39:26.000Z</time>
      </trkpt>
      <trkpt lat="48.21292" lon="-2.62661">
        <ele>108</ele>
        <time>2021-10-15T12:39:27.000Z</time>
      </trkpt>
      <trkpt lat="48.21292" lon="-2.62662">
        <ele>108</ele>
        <time>2021-10-15T12:39:28.000Z</time>
      </trkpt>
      <trkpt lat="48.21293" lon="-2.62663">
        <ele>108</ele>
        <time>2021-10-15T12:39:29.000Z</time>
      </trkpt>
      <trkpt lat="48.21294" lon="-2.62664">
        <ele>108</ele>
        <time>2021-10-15T12:39:30.000Z</time>
      </trkpt>
      <trkpt lat="48.21295" lon="-2.62665">
        <ele>108.19999694824</ele>
        <time>2021-10-15T12:39:31.000Z</time>
      </trkpt>
      <trkpt lat="48.21296" lon="-2.62666">
        <ele>108.19999694824</ele>
        <time>2021-10-15T12:39:32.000Z</time>
      </trkpt>
      <trkpt lat="48.21297" lon="-2.62668">
        <ele>108</ele>
        <time>2021-10-15T12:39:33.000Z</time>
      </trkpt>
      <trkpt lat="48.21297" lon="-2.62669">
        <ele>108</ele>
        <time>2021-10-15T12:39:34.000Z</time>
      </trkpt>
      <trkpt lat="48.21298" lon="-2.62671">
        <ele>108.19999694824</ele>
        <time>2021-10-15T12:39:35.000Z</time>
      </trkpt>
      <trkpt lat="48.21299" lon="-2.62671">
        <ele>108.19999694824</ele>
        <time>2021-10-15T12:39:36.000Z</time>
      </trkpt>
      <trkpt lat="48.213" lon="-2.62673">
        <ele>108.19999694824</ele>
        <time>2021-10-15T12:39:37.000Z</time>
      </trkpt>
      <trkpt lat="48.21301" lon="-2.62675">
        <ele>108.40000152588</ele>
        <time>2021-10-15T12:39:38.000Z</time>
      </trkpt>
      <trkpt lat="48.21301" lon="-2.62676">
        <ele>108.40000152588</ele>
        <time>2021-10-15T12:39:39.000Z</time>
      </trkpt>
      <trkpt lat="48.21302" lon="-2.62678">
        <ele>108.40000152588</ele>
        <time>2021-10-15T12:39:40.000Z</time>
      </trkpt>
      <trkpt lat="48.21303" lon="-2.6268">
        <ele>108.40000152588</ele>
        <time>2021-10-15T12:39:41.000Z</time>
      </trkpt>
      <trkpt lat="48.21304" lon="-2.62682">
        <ele>108.40000152588</ele>
        <time>2021-10-15T12:39:42.000Z</time>
      </trkpt>
      <trkpt lat="48.21305" lon="-2.62684">
        <ele>108.59999847412</ele>
        <time>2021-10-15T12:39:43.000Z</time>
      </trkpt>
      <trkpt lat="48.21305" lon="-2.62686">
        <ele>108.59999847412</ele>
        <time>2021-10-15T12:39:44.000Z</time>
      </trkpt>
      <trkpt lat="48.21306" lon="-2.62688">
        <ele>108.59999847412</ele>
        <time>2021-10-15T12:39:45.000Z</time>
      </trkpt>
      <trkpt lat="48.21307" lon="-2.6269">
        <ele>108.59999847412</ele>
        <time>2021-10-15T12:39:46.000Z</time>
      </trkpt>
      <trkpt lat="48.21308" lon="-2.62691">
        <ele>108.80000305176</ele>
        <time>2021-10-15T12:39:47.000Z</time>
      </trkpt>
      <trkpt lat="48.21308" lon="-2.62693">
        <ele>108.80000305176</ele>
        <time>2021-10-15T12:39:48.000Z</time>
      </trkpt>
      <trkpt lat="48.21308" lon="-2.62695">
        <ele>108.80000305176</ele>
        <time>2021-10-15T12:39:49.000Z</time>
      </trkpt>
      <trkpt lat="48.21308" lon="-2.62696">
        <ele>108.80000305176</ele>
        <time>2021-10-15T12:39:50.000Z</time>
      </trkpt>
      <trkpt lat="48.21309" lon="-2.62697">
        <ele>108.80000305176</ele>
        <time>2021-10-15T12:39:51.000Z</time>
      </trkpt>
      <trkpt lat="48.21308" lon="-2.62698">
        <ele>108.80000305176</ele>
        <time>2021-10-15T12:39:52.000Z</time>
      </trkpt>
      <trkpt lat="48.21308" lon="-2.62699">
        <ele>108.59999847412</ele>
        <time>2021-10-15T12:39:53.000Z</time>
      </trkpt>
      <trkpt lat="48.21308" lon="-2.62701">
        <ele>108.59999847412</ele>
        <time>2021-10-15T12:39:54.000Z</time>
      </trkpt>
      <trkpt lat="48.21307" lon="-2.62702">
        <ele>108.40000152588</ele>
        <time>2021-10-15T12:39:55.000Z</time>
      </trkpt>
      <trkpt lat="48.21306" lon="-2.62704">
        <ele>108.19999694824</ele>
        <time>2021-10-15T12:39:56.000Z</time>
      </trkpt>
      <trkpt lat="48.21306" lon="-2.62705">
        <ele>108</ele>
        <time>2021-10-15T12:39:57.000Z</time>
      </trkpt>
      <trkpt lat="48.21305" lon="-2.62707">
        <ele>107.80000305176</ele>
        <time>2021-10-15T12:39:58.000Z</time>
      </trkpt>
      <trkpt lat="48.21305" lon="-2.62708">
        <ele>107.80000305176</ele>
        <time>2021-10-15T12:39:59.000Z</time>
      </trkpt>
      <trkpt lat="48.21305" lon="-2.6271">
        <ele>107.80000305176</ele>
        <time>2021-10-15T12:40:00.000Z</time>
      </trkpt>
      <trkpt lat="48.21304" lon="-2.62711">
        <ele>107.80000305176</ele>
        <time>2021-10-15T12:40:01.000Z</time>
      </trkpt>
      <trkpt lat="48.21305" lon="-2.62713">
        <ele>107.80000305176</ele>
        <time>2021-10-15T12:40:02.000Z</time>
      </trkpt>
      <trkpt lat="48.21304" lon="-2.62715">
        <ele>107.59999847412</ele>
        <time>2021-10-15T12:40:03.000Z</time>
      </trkpt>
      <trkpt lat="48.21303" lon="-2.62715">
        <ele>107.40000152588</ele>
        <time>2021-10-15T12:40:04.000Z</time>
      </trkpt>
      <trkpt lat="48.21303" lon="-2.62715">
        <ele>107.40000152588</ele>
        <time>2021-10-15T12:40:05.000Z</time>
      </trkpt>
      <trkpt lat="48.21303" lon="-2.62715">
        <ele>107.40000152588</ele>
        <time>2021-10-15T12:40:06.000Z</time>
      </trkpt>
      <trkpt lat="48.21303" lon="-2.62715">
        <ele>107.19999694824</ele>
        <time>2021-10-15T12:40:07.000Z</time>
      </trkpt>
      <trkpt lat="48.21303" lon="-2.62715">
        <ele>107.19999694824</ele>
        <time>2021-10-15T12:40:08.000Z</time>
      </trkpt>
      <trkpt lat="48.21302" lon="-2.62714">
        <ele>107.19999694824</ele>
        <time>2021-10-15T12:40:09.000Z</time>
      </trkpt>
      <trkpt lat="48.21302" lon="-2.62714">
        <ele>107</ele>
        <time>2021-10-15T12:40:10.000Z</time>
      </trkpt>
      <trkpt lat="48.213" lon="-2.62714">
        <ele>106.59999847412</ele>
        <time>2021-10-15T12:40:11.000Z</time>
      </trkpt>
      <trkpt lat="48.21298" lon="-2.62715">
        <ele>106.19999694824</ele>
        <time>2021-10-15T12:40:12.000Z</time>
      </trkpt>
      <trkpt lat="48.21296" lon="-2.62716">
        <ele>105.80000305176</ele>
        <time>2021-10-15T12:40:13.000Z</time>
      </trkpt>
      <trkpt lat="48.21295" lon="-2.62717">
        <ele>105.59999847412</ele>
        <time>2021-10-15T12:40:14.000Z</time>
      </trkpt>
      <trkpt lat="48.21293" lon="-2.62718">
        <ele>105.40000152588</ele>
        <time>2021-10-15T12:40:15.000Z</time>
      </trkpt>
      <trkpt lat="48.21291" lon="-2.62719">
        <ele>105.19999694824</ele>
        <time>2021-10-15T12:40:16.000Z</time>
      </trkpt>
      <trkpt lat="48.21289" lon="-2.6272">
        <ele>105.19999694824</ele>
        <time>2021-10-15T12:40:17.000Z</time>
      </trkpt>
      <trkpt lat="48.21288" lon="-2.62721">
        <ele>105</ele>
        <time>2021-10-15T12:40:18.000Z</time>
      </trkpt>
      <trkpt lat="48.21286" lon="-2.62721">
        <ele>104.80000305176</ele>
        <time>2021-10-15T12:40:19.000Z</time>
      </trkpt>
      <trkpt lat="48.21285" lon="-2.62723">
        <ele>104.59999847412</ele>
        <time>2021-10-15T12:40:20.000Z</time>
      </trkpt>
      <trkpt lat="48.21283" lon="-2.62724">
        <ele>104.40000152588</ele>
        <time>2021-10-15T12:40:21.000Z</time>
      </trkpt>
      <trkpt lat="48.21282" lon="-2.62725">
        <ele>104.19999694824</ele>
        <time>2021-10-15T12:40:22.000Z</time>
      </trkpt>
      <trkpt lat="48.2128" lon="-2.62726">
        <ele>104.19999694824</ele>
        <time>2021-10-15T12:40:23.000Z</time>
      </trkpt>
      <trkpt lat="48.21279" lon="-2.62727">
        <ele>104</ele>
        <time>2021-10-15T12:40:24.000Z</time>
      </trkpt>
      <trkpt lat="48.21277" lon="-2.62728">
        <ele>103.80000305176</ele>
        <time>2021-10-15T12:40:25.000Z</time>
      </trkpt>
      <trkpt lat="48.21276" lon="-2.62729">
        <ele>103.59999847412</ele>
        <time>2021-10-15T12:40:26.000Z</time>
      </trkpt>
      <trkpt lat="48.21274" lon="-2.6273">
        <ele>103.40000152588</ele>
        <time>2021-10-15T12:40:27.000Z</time>
      </trkpt>
      <trkpt lat="48.21273" lon="-2.62731">
        <ele>103.40000152588</ele>
        <time>2021-10-15T12:40:28.000Z</time>
      </trkpt>
      <trkpt lat="48.21271" lon="-2.62732">
        <ele>103.19999694824</ele>
        <time>2021-10-15T12:40:29.000Z</time>
      </trkpt>
      <trkpt lat="48.2127" lon="-2.62733">
        <ele>103</ele>
        <time>2021-10-15T12:40:30.000Z</time>
      </trkpt>
      <trkpt lat="48.21269" lon="-2.62734">
        <ele>103</ele>
        <time>2021-10-15T12:40:31.000Z</time>
      </trkpt>
      <trkpt lat="48.21268" lon="-2.62735">
        <ele>103</ele>
        <time>2021-10-15T12:40:32.000Z</time>
      </trkpt>
      <trkpt lat="48.21267" lon="-2.62735">
        <ele>102.80000305176</ele>
        <time>2021-10-15T12:40:33.000Z</time>
      </trkpt>
      <trkpt lat="48.21266" lon="-2.62736">
        <ele>102.80000305176</ele>
        <time>2021-10-15T12:40:34.000Z</time>
      </trkpt>
      <trkpt lat="48.21265" lon="-2.62737">
        <ele>102.80000305176</ele>
        <time>2021-10-15T12:40:35.000Z</time>
      </trkpt>
      <trkpt lat="48.21264" lon="-2.62738">
        <ele>102.80000305176</ele>
        <time>2021-10-15T12:40:36.000Z</time>
      </trkpt>
      <trkpt lat="48.21263" lon="-2.62739">
        <ele>102.80000305176</ele>
        <time>2021-10-15T12:40:37.000Z</time>
      </trkpt>
      <trkpt lat="48.21262" lon="-2.62739">
        <ele>102.80000305176</ele>
        <time>2021-10-15T12:40:38.000Z</time>
      </trkpt>
      <trkpt lat="48.21261" lon="-2.6274">
        <ele>102.59999847412</ele>
        <time>2021-10-15T12:40:39.000Z</time>
      </trkpt>
      <trkpt lat="48.2126" lon="-2.62741">
        <ele>102.59999847412</ele>
        <time>2021-10-15T12:40:40.000Z</time>
      </trkpt>
      <trkpt lat="48.21259" lon="-2.62742">
        <ele>102.59999847412</ele>
        <time>2021-10-15T12:40:41.000Z</time>
      </trkpt>
      <trkpt lat="48.21257" lon="-2.62743">
        <ele>102.59999847412</ele>
        <time>2021-10-15T12:40:42.000Z</time>
      </trkpt>
      <trkpt lat="48.21256" lon="-2.62744">
        <ele>102.59999847412</ele>
        <time>2021-10-15T12:40:43.000Z</time>
      </trkpt>
      <trkpt lat="48.21255" lon="-2.62745">
        <ele>102.40000152588</ele>
        <time>2021-10-15T12:40:44.000Z</time>
      </trkpt>
      <trkpt lat="48.21253" lon="-2.62746">
        <ele>102.40000152588</ele>
        <time>2021-10-15T12:40:45.000Z</time>
      </trkpt>
      <trkpt lat="48.21252" lon="-2.62747">
        <ele>102.40000152588</ele>
        <time>2021-10-15T12:40:46.000Z</time>
      </trkpt>
      <trkpt lat="48.21251" lon="-2.62748">
        <ele>102.40000152588</ele>
        <time>2021-10-15T12:40:47.000Z</time>
      </trkpt>
      <trkpt lat="48.21249" lon="-2.62749">
        <ele>102.19999694824</ele>
        <time>2021-10-15T12:40:48.000Z</time>
      </trkpt>
      <trkpt lat="48.21248" lon="-2.6275">
        <ele>102.19999694824</ele>
        <time>2021-10-15T12:40:49.000Z</time>
      </trkpt>
      <trkpt lat="48.21246" lon="-2.62751">
        <ele>102.19999694824</ele>
        <time>2021-10-15T12:40:50.000Z</time>
      </trkpt>
      <trkpt lat="48.21245" lon="-2.62753">
        <ele>102.19999694824</ele>
        <time>2021-10-15T12:40:51.000Z</time>
      </trkpt>
      <trkpt lat="48.21243" lon="-2.62755">
        <ele>102</ele>
        <time>2021-10-15T12:40:52.000Z</time>
      </trkpt>
      <trkpt lat="48.21243" lon="-2.62755">
        <ele>102</ele>
        <time>2021-10-15T12:40:53.000Z</time>
      </trkpt>
      <trkpt lat="48.21241" lon="-2.62756">
        <ele>101.80000305176</ele>
        <time>2021-10-15T12:40:54.000Z</time>
      </trkpt>
      <trkpt lat="48.2124" lon="-2.62758">
        <ele>101.80000305176</ele>
        <time>2021-10-15T12:40:55.000Z</time>
      </trkpt>
      <trkpt lat="48.21239" lon="-2.62759">
        <ele>101.80000305176</ele>
        <time>2021-10-15T12:40:56.000Z</time>
      </trkpt>
      <trkpt lat="48.21238" lon="-2.62761">
        <ele>101.80000305176</ele>
        <time>2021-10-15T12:40:57.000Z</time>
      </trkpt>
      <trkpt lat="48.21237" lon="-2.62762">
        <ele>101.80000305176</ele>
        <time>2021-10-15T12:40:58.000Z</time>
      </trkpt>
      <trkpt lat="48.21236" lon="-2.62763">
        <ele>101.59999847412</ele>
        <time>2021-10-15T12:40:59.000Z</time>
      </trkpt>
      <trkpt lat="48.21235" lon="-2.62764">
        <ele>101.59999847412</ele>
        <time>2021-10-15T12:41:00.000Z</time>
      </trkpt>
      <trkpt lat="48.21235" lon="-2.62764">
        <ele>101.59999847412</ele>
        <time>2021-10-15T12:41:01.000Z</time>
      </trkpt>
      <trkpt lat="48.21235" lon="-2.62764">
        <ele>101.59999847412</ele>
        <time>2021-10-15T12:41:02.000Z</time>
      </trkpt>
      <trkpt lat="48.21235" lon="-2.62764">
        <ele>101.59999847412</ele>
        <time>2021-10-15T12:41:03.000Z</time>
      </trkpt>
      <trkpt lat="48.21235" lon="-2.62765">
        <ele>101.59999847412</ele>
        <time>2021-10-15T12:41:04.000Z</time>
      </trkpt>
      <trkpt lat="48.21235" lon="-2.62765">
        <ele>101.59999847412</ele>
        <time>2021-10-15T12:41:05.000Z</time>
      </trkpt>
      <trkpt lat="48.21235" lon="-2.62765">
        <ele>101.59999847412</ele>
        <time>2021-10-15T12:41:06.000Z</time>
      </trkpt>
      <trkpt lat="48.21235" lon="-2.62765">
        <ele>101.59999847412</ele>
        <time>2021-10-15T12:41:07.000Z</time>
      </trkpt>
      <trkpt lat="48.21235" lon="-2.62766">
        <ele>101.59999847412</ele>
        <time>2021-10-15T12:41:08.000Z</time>
      </trkpt>
      <trkpt lat="48.21235" lon="-2.62767">
        <ele>101.59999847412</ele>
        <time>2021-10-15T12:41:09.000Z</time>
      </trkpt>
      <trkpt lat="48.21235" lon="-2.62767">
        <ele>101.59999847412</ele>
        <time>2021-10-15T12:41:10.000Z</time>
      </trkpt>
      <trkpt lat="48.21235" lon="-2.62768">
        <ele>101.40000152588</ele>
        <time>2021-10-15T12:41:11.000Z</time>
      </trkpt>
      <trkpt lat="48.21235" lon="-2.62768">
        <ele>101.40000152588</ele>
        <time>2021-10-15T12:41:12.000Z</time>
      </trkpt>
      <trkpt lat="48.21235" lon="-2.62768">
        <ele>101.40000152588</ele>
        <time>2021-10-15T12:41:13.000Z</time>
      </trkpt>
      <trkpt lat="48.21234" lon="-2.62768">
        <ele>101.40000152588</ele>
        <time>2021-10-15T12:41:14.000Z</time>
      </trkpt>
      <trkpt lat="48.21234" lon="-2.62768">
        <ele>101.40000152588</ele>
        <time>2021-10-15T12:41:15.000Z</time>
      </trkpt>
      <trkpt lat="48.21234" lon="-2.62768">
        <ele>101.40000152588</ele>
        <time>2021-10-15T12:41:16.000Z</time>
      </trkpt>
      <trkpt lat="48.21234" lon="-2.62768">
        <ele>101.40000152588</ele>
        <time>2021-10-15T12:41:17.000Z</time>
      </trkpt>
      <trkpt lat="48.21234" lon="-2.62768">
        <ele>101.40000152588</ele>
        <time>2021-10-15T12:41:18.000Z</time>
      </trkpt>
      <trkpt lat="48.21234" lon="-2.62768">
        <ele>101.40000152588</ele>
        <time>2021-10-15T12:41:19.000Z</time>
      </trkpt>
      <trkpt lat="48.21234" lon="-2.62768">
        <ele>101.40000152588</ele>
        <time>2021-10-15T12:41:20.000Z</time>
      </trkpt>
      <trkpt lat="48.21234" lon="-2.62768">
        <ele>101.40000152588</ele>
        <time>2021-10-15T12:41:21.000Z</time>
      </trkpt>
      <trkpt lat="48.21234" lon="-2.62768">
        <ele>101.40000152588</ele>
        <time>2021-10-15T12:41:22.000Z</time>
      </trkpt>
      <trkpt lat="48.21234" lon="-2.62768">
        <ele>101.40000152588</ele>
        <time>2021-10-15T12:41:23.000Z</time>
      </trkpt>
      <trkpt lat="48.21234" lon="-2.62768">
        <ele>101.40000152588</ele>
        <time>2021-10-15T12:41:24.000Z</time>
      </trkpt>
      <trkpt lat="48.21235" lon="-2.62767">
        <ele>101.40000152588</ele>
        <time>2021-10-15T12:41:25.000Z</time>
      </trkpt>
      <trkpt lat="48.21235" lon="-2.62767">
        <ele>101.59999847412</ele>
        <time>2021-10-15T12:41:26.000Z</time>
      </trkpt>
      <trkpt lat="48.21235" lon="-2.62767">
        <ele>101.59999847412</ele>
        <time>2021-10-15T12:41:27.000Z</time>
      </trkpt>
      <trkpt lat="48.21235" lon="-2.62767">
        <ele>101.59999847412</ele>
        <time>2021-10-15T12:41:28.000Z</time>
      </trkpt>
      <trkpt lat="48.21235" lon="-2.62767">
        <ele>101.59999847412</ele>
        <time>2021-10-15T12:41:29.000Z</time>
      </trkpt>
      <trkpt lat="48.21235" lon="-2.62767">
        <ele>101.59999847412</ele>
        <time>2021-10-15T12:41:30.000Z</time>
      </trkpt>
      <trkpt lat="48.21235" lon="-2.62767">
        <ele>101.59999847412</ele>
        <time>2021-10-15T12:41:31.000Z</time>
      </trkpt>
      <trkpt lat="48.21235" lon="-2.62767">
        <ele>101.59999847412</ele>
        <time>2021-10-15T12:41:32.000Z</time>
      </trkpt>
      <trkpt lat="48.21235" lon="-2.62767">
        <ele>101.59999847412</ele>
        <time>2021-10-15T12:41:33.000Z</time>
      </trkpt>
      <trkpt lat="48.21235" lon="-2.62767">
        <ele>101.59999847412</ele>
        <time>2021-10-15T12:41:34.000Z</time>
      </trkpt>
      <trkpt lat="48.21235" lon="-2.62767">
        <ele>101.59999847412</ele>
        <time>2021-10-15T12:41:35.000Z</time>
      </trkpt>
      <trkpt lat="48.21235" lon="-2.62767">
        <ele>101.59999847412</ele>
        <time>2021-10-15T12:41:36.000Z</time>
      </trkpt>
      <trkpt lat="48.21235" lon="-2.62767">
        <ele>101.59999847412</ele>
        <time>2021-10-15T12:41:37.000Z</time>
      </trkpt>
      <trkpt lat="48.21235" lon="-2.62767">
        <ele>101.59999847412</ele>
        <time>2021-10-15T12:41:38.000Z</time>
      </trkpt>
      <trkpt lat="48.21235" lon="-2.62767">
        <ele>101.59999847412</ele>
        <time>2021-10-15T12:41:39.000Z</time>
      </trkpt>
      <trkpt lat="48.21235" lon="-2.62767">
        <ele>101.59999847412</ele>
        <time>2021-10-15T12:41:40.000Z</time>
      </trkpt>
      <trkpt lat="48.21235" lon="-2.62767">
        <ele>101.59999847412</ele>
        <time>2021-10-15T12:41:41.000Z</time>
      </trkpt>
      <trkpt lat="48.21235" lon="-2.62767">
        <ele>101.59999847412</ele>
        <time>2021-10-15T12:41:42.000Z</time>
      </trkpt>
      <trkpt lat="48.21235" lon="-2.62767">
        <ele>101.59999847412</ele>
        <time>2021-10-15T12:41:43.000Z</time>
      </trkpt>
      <trkpt lat="48.21235" lon="-2.62767">
        <ele>101.59999847412</ele>
        <time>2021-10-15T12:41:44.000Z</time>
      </trkpt>
      <trkpt lat="48.21235" lon="-2.62767">
        <ele>101.59999847412</ele>
        <time>2021-10-15T12:41:45.000Z</time>
      </trkpt>
      <trkpt lat="48.21235" lon="-2.62767">
        <ele>101.59999847412</ele>
        <time>2021-10-15T12:41:46.000Z</time>
      </trkpt>
      <trkpt lat="48.21235" lon="-2.62767">
        <ele>101.59999847412</ele>
        <time>2021-10-15T12:41:47.000Z</time>
      </trkpt>
      <trkpt lat="48.21235" lon="-2.62767">
        <ele>101.59999847412</ele>
        <time>2021-10-15T12:41:48.000Z</time>
      </trkpt>
      <trkpt lat="48.21235" lon="-2.62767">
        <ele>101.59999847412</ele>
        <time>2021-10-15T12:41:49.000Z</time>
      </trkpt>
      <trkpt lat="48.21235" lon="-2.62767">
        <ele>101.59999847412</ele>
        <time>2021-10-15T12:41:50.000Z</time>
      </trkpt>
      <trkpt lat="48.21235" lon="-2.62767">
        <ele>101.59999847412</ele>
        <time>2021-10-15T12:41:51.000Z</time>
      </trkpt>
      <trkpt lat="48.21235" lon="-2.62767">
        <ele>101.59999847412</ele>
        <time>2021-10-15T12:41:52.000Z</time>
      </trkpt>
      <trkpt lat="48.21235" lon="-2.62767">
        <ele>101.59999847412</ele>
        <time>2021-10-15T12:41:53.000Z</time>
      </trkpt>
      <trkpt lat="48.21235" lon="-2.62767">
        <ele>101.59999847412</ele>
        <time>2021-10-15T12:41:54.000Z</time>
      </trkpt>
      <trkpt lat="48.21235" lon="-2.62768">
        <ele>101.40000152588</ele>
        <time>2021-10-15T12:41:55.000Z</time>
      </trkpt>
      <trkpt lat="48.21235" lon="-2.62768">
        <ele>101.40000152588</ele>
        <time>2021-10-15T12:41:56.000Z</time>
      </trkpt>
      <trkpt lat="48.21235" lon="-2.62768">
        <ele>101.40000152588</ele>
        <time>2021-10-15T12:41:57.000Z</time>
      </trkpt>
      <trkpt lat="48.21235" lon="-2.62768">
        <ele>101.40000152588</ele>
        <time>2021-10-15T12:41:58.000Z</time>
      </trkpt>
      <trkpt lat="48.21235" lon="-2.62768">
        <ele>101.40000152588</ele>
        <time>2021-10-15T12:41:59.000Z</time>
      </trkpt>
      <trkpt lat="48.21235" lon="-2.62768">
        <ele>101.40000152588</ele>
        <time>2021-10-15T12:42:00.000Z</time>
      </trkpt>
      <trkpt lat="48.21235" lon="-2.62768">
        <ele>101.40000152588</ele>
        <time>2021-10-15T12:42:01.000Z</time>
      </trkpt>
      <trkpt lat="48.21235" lon="-2.62768">
        <ele>101.40000152588</ele>
        <time>2021-10-15T12:42:02.000Z</time>
      </trkpt>
      <trkpt lat="48.21235" lon="-2.62768">
        <ele>101.40000152588</ele>
        <time>2021-10-15T12:42:03.000Z</time>
      </trkpt>
      <trkpt lat="48.21235" lon="-2.62768">
        <ele>101.40000152588</ele>
        <time>2021-10-15T12:42:04.000Z</time>
      </trkpt>
      <trkpt lat="48.21235" lon="-2.62768">
        <ele>101.40000152588</ele>
        <time>2021-10-15T12:42:05.000Z</time>
      </trkpt>
      <trkpt lat="48.21235" lon="-2.62768">
        <ele>101.40000152588</ele>
        <time>2021-10-15T12:42:06.000Z</time>
      </trkpt>
      <trkpt lat="48.21235" lon="-2.62768">
        <ele>101.40000152588</ele>
        <time>2021-10-15T12:42:07.000Z</time>
      </trkpt>
      <trkpt lat="48.21235" lon="-2.62768">
        <ele>101.40000152588</ele>
        <time>2021-10-15T12:42:08.000Z</time>
      </trkpt>
      <trkpt lat="48.21234" lon="-2.62768">
        <ele>101.40000152588</ele>
        <time>2021-10-15T12:42:09.000Z</time>
      </trkpt>
      <trkpt lat="48.21234" lon="-2.62768">
        <ele>101.40000152588</ele>
        <time>2021-10-15T12:42:10.000Z</time>
      </trkpt>
      <trkpt lat="48.21234" lon="-2.62768">
        <ele>101.40000152588</ele>
        <time>2021-10-15T12:42:11.000Z</time>
      </trkpt>
      <trkpt lat="48.21234" lon="-2.62768">
        <ele>101.40000152588</ele>
        <time>2021-10-15T12:42:12.000Z</time>
      </trkpt>
      <trkpt lat="48.21234" lon="-2.62768">
        <ele>101.40000152588</ele>
        <time>2021-10-15T12:42:13.000Z</time>
      </trkpt>
      <trkpt lat="48.21234" lon="-2.62768">
        <ele>101.40000152588</ele>
        <time>2021-10-15T12:42:14.000Z</time>
      </trkpt>
      <trkpt lat="48.21234" lon="-2.62768">
        <ele>101.40000152588</ele>
        <time>2021-10-15T12:42:15.000Z</time>
      </trkpt>
      <trkpt lat="48.21234" lon="-2.62768">
        <ele>101.40000152588</ele>
        <time>2021-10-15T12:42:16.000Z</time>
      </trkpt>
      <trkpt lat="48.21233" lon="-2.62769">
        <ele>101.40000152588</ele>
        <time>2021-10-15T12:42:17.000Z</time>
      </trkpt>
      <trkpt lat="48.21233" lon="-2.62769">
        <ele>101.40000152588</ele>
        <time>2021-10-15T12:42:18.000Z</time>
      </trkpt>
      <trkpt lat="48.21233" lon="-2.62769">
        <ele>101.40000152588</ele>
        <time>2021-10-15T12:42:19.000Z</time>
      </trkpt>
      <trkpt lat="48.21233" lon="-2.62769">
        <ele>101.40000152588</ele>
        <time>2021-10-15T12:42:20.000Z</time>
      </trkpt>
      <trkpt lat="48.21233" lon="-2.62769">
        <ele>101.40000152588</ele>
        <time>2021-10-15T12:42:21.000Z</time>
      </trkpt>
      <trkpt lat="48.21233" lon="-2.62769">
        <ele>101.40000152588</ele>
        <time>2021-10-15T12:42:22.000Z</time>
      </trkpt>
      <trkpt lat="48.21233" lon="-2.62769">
        <ele>101.40000152588</ele>
        <time>2021-10-15T12:42:23.000Z</time>
      </trkpt>
      <trkpt lat="48.21233" lon="-2.62768">
        <ele>101.40000152588</ele>
        <time>2021-10-15T12:42:24.000Z</time>
      </trkpt>
      <trkpt lat="48.21233" lon="-2.62768">
        <ele>101.40000152588</ele>
        <time>2021-10-15T12:42:25.000Z</time>
      </trkpt>
      <trkpt lat="48.21233" lon="-2.62768">
        <ele>101.40000152588</ele>
        <time>2021-10-15T12:42:26.000Z</time>
      </trkpt>
      <trkpt lat="48.21232" lon="-2.62769">
        <ele>101.40000152588</ele>
        <time>2021-10-15T12:42:27.000Z</time>
      </trkpt>
      <trkpt lat="48.21232" lon="-2.62769">
        <ele>101.40000152588</ele>
        <time>2021-10-15T12:42:28.000Z</time>
      </trkpt>
      <trkpt lat="48.21231" lon="-2.62769">
        <ele>101.40000152588</ele>
        <time>2021-10-15T12:42:29.000Z</time>
      </trkpt>
      <trkpt lat="48.21231" lon="-2.62769">
        <ele>101.40000152588</ele>
        <time>2021-10-15T12:42:30.000Z</time>
      </trkpt>
      <trkpt lat="48.21231" lon="-2.62769">
        <ele>101.40000152588</ele>
        <time>2021-10-15T12:42:31.000Z</time>
      </trkpt>
      <trkpt lat="48.21231" lon="-2.62769">
        <ele>101.40000152588</ele>
        <time>2021-10-15T12:42:32.000Z</time>
      </trkpt>
      <trkpt lat="48.21231" lon="-2.62769">
        <ele>101.40000152588</ele>
        <time>2021-10-15T12:42:33.000Z</time>
      </trkpt>
      <trkpt lat="48.21231" lon="-2.62768">
        <ele>101.40000152588</ele>
        <time>2021-10-15T12:42:34.000Z</time>
      </trkpt>
      <trkpt lat="48.21231" lon="-2.62768">
        <ele>101.40000152588</ele>
        <time>2021-10-15T12:42:35.000Z</time>
      </trkpt>
      <trkpt lat="48.21231" lon="-2.62768">
        <ele>101.40000152588</ele>
        <time>2021-10-15T12:42:36.000Z</time>
      </trkpt>
      <trkpt lat="48.21231" lon="-2.62768">
        <ele>101.40000152588</ele>
        <time>2021-10-15T12:42:37.000Z</time>
      </trkpt>
      <trkpt lat="48.21231" lon="-2.62768">
        <ele>101.40000152588</ele>
        <time>2021-10-15T12:42:38.000Z</time>
      </trkpt>
      <trkpt lat="48.21231" lon="-2.62768">
        <ele>101.40000152588</ele>
        <time>2021-10-15T12:42:39.000Z</time>
      </trkpt>
      <trkpt lat="48.21231" lon="-2.62769">
        <ele>101.40000152588</ele>
        <time>2021-10-15T12:42:40.000Z</time>
      </trkpt>
      <trkpt lat="48.2123" lon="-2.62771">
        <ele>101.40000152588</ele>
        <time>2021-10-15T12:42:41.000Z</time>
      </trkpt>
      <trkpt lat="48.21229" lon="-2.62773">
        <ele>101.40000152588</ele>
        <time>2021-10-15T12:42:42.000Z</time>
      </trkpt>
      <trkpt lat="48.21228" lon="-2.62774">
        <ele>101.19999694824</ele>
        <time>2021-10-15T12:42:43.000Z</time>
      </trkpt>
      <trkpt lat="48.21227" lon="-2.62775">
        <ele>101.19999694824</ele>
        <time>2021-10-15T12:42:44.000Z</time>
      </trkpt>
      <trkpt lat="48.21226" lon="-2.62777">
        <ele>101.19999694824</ele>
        <time>2021-10-15T12:42:45.000Z</time>
      </trkpt>
      <trkpt lat="48.21225" lon="-2.62778">
        <ele>101.19999694824</ele>
        <time>2021-10-15T12:42:46.000Z</time>
      </trkpt>
      <trkpt lat="48.21223" lon="-2.6278">
        <ele>101</ele>
        <time>2021-10-15T12:42:47.000Z</time>
      </trkpt>
      <trkpt lat="48.21222" lon="-2.62782">
        <ele>101</ele>
        <time>2021-10-15T12:42:48.000Z</time>
      </trkpt>
      <trkpt lat="48.21221" lon="-2.62785">
        <ele>100.80000305176</ele>
        <time>2021-10-15T12:42:49.000Z</time>
      </trkpt>
      <trkpt lat="48.21219" lon="-2.62788">
        <ele>100.59999847412</ele>
        <time>2021-10-15T12:42:50.000Z</time>
      </trkpt>
      <trkpt lat="48.21217" lon="-2.6279">
        <ele>100.40000152588</ele>
        <time>2021-10-15T12:42:51.000Z</time>
      </trkpt>
      <trkpt lat="48.21214" lon="-2.62796">
        <ele>100</ele>
        <time>2021-10-15T12:42:52.000Z</time>
      </trkpt>
      <trkpt lat="48.21214" lon="-2.62796">
        <ele>100</ele>
        <time>2021-10-15T12:42:53.000Z</time>
      </trkpt>
      <trkpt lat="48.21212" lon="-2.62799">
        <ele>99.800003051758</ele>
        <time>2021-10-15T12:42:54.000Z</time>
      </trkpt>
      <trkpt lat="48.2121" lon="-2.62803">
        <ele>99.800003051758</ele>
        <time>2021-10-15T12:42:55.000Z</time>
      </trkpt>
      <trkpt lat="48.21208" lon="-2.62806">
        <ele>99.800003051758</ele>
        <time>2021-10-15T12:42:56.000Z</time>
      </trkpt>
      <trkpt lat="48.21205" lon="-2.6281">
        <ele>99.599998474121</ele>
        <time>2021-10-15T12:42:57.000Z</time>
      </trkpt>
      <trkpt lat="48.21203" lon="-2.62813">
        <ele>99.599998474121</ele>
        <time>2021-10-15T12:42:58.000Z</time>
      </trkpt>
      <trkpt lat="48.212" lon="-2.62817">
        <ele>99.400001525879</ele>
        <time>2021-10-15T12:42:59.000Z</time>
      </trkpt>
      <trkpt lat="48.21198" lon="-2.62821">
        <ele>99.400001525879</ele>
        <time>2021-10-15T12:43:00.000Z</time>
      </trkpt>
      <trkpt lat="48.21195" lon="-2.62825">
        <ele>99.199996948242</ele>
        <time>2021-10-15T12:43:01.000Z</time>
      </trkpt>
      <trkpt lat="48.21192" lon="-2.62828">
        <ele>99.199996948242</ele>
        <time>2021-10-15T12:43:02.000Z</time>
      </trkpt>
      <trkpt lat="48.21189" lon="-2.62832">
        <ele>99.199996948242</ele>
        <time>2021-10-15T12:43:03.000Z</time>
      </trkpt>
      <trkpt lat="48.21187" lon="-2.62836">
        <ele>99</ele>
        <time>2021-10-15T12:43:04.000Z</time>
      </trkpt>
      <trkpt lat="48.21185" lon="-2.62839">
        <ele>99.199996948242</ele>
        <time>2021-10-15T12:43:05.000Z</time>
      </trkpt>
      <trkpt lat="48.21182" lon="-2.62843">
        <ele>99.199996948242</ele>
        <time>2021-10-15T12:43:06.000Z</time>
      </trkpt>
      <trkpt lat="48.2118" lon="-2.62846">
        <ele>99.400001525879</ele>
        <time>2021-10-15T12:43:07.000Z</time>
      </trkpt>
      <trkpt lat="48.21178" lon="-2.62849">
        <ele>99.599998474121</ele>
        <time>2021-10-15T12:43:08.000Z</time>
      </trkpt>
      <trkpt lat="48.21176" lon="-2.62852">
        <ele>99.800003051758</ele>
        <time>2021-10-15T12:43:09.000Z</time>
      </trkpt>
      <trkpt lat="48.21173" lon="-2.62855">
        <ele>100</ele>
        <time>2021-10-15T12:43:10.000Z</time>
      </trkpt>
      <trkpt lat="48.21171" lon="-2.62858">
        <ele>100.19999694824</ele>
        <time>2021-10-15T12:43:11.000Z</time>
      </trkpt>
      <trkpt lat="48.21168" lon="-2.6286">
        <ele>100.19999694824</ele>
        <time>2021-10-15T12:43:12.000Z</time>
      </trkpt>
      <trkpt lat="48.21166" lon="-2.62862">
        <ele>100.40000152588</ele>
        <time>2021-10-15T12:43:13.000Z</time>
      </trkpt>
      <trkpt lat="48.21163" lon="-2.62863">
        <ele>100.59999847412</ele>
        <time>2021-10-15T12:43:14.000Z</time>
      </trkpt>
      <trkpt lat="48.2116" lon="-2.62864">
        <ele>100.80000305176</ele>
        <time>2021-10-15T12:43:15.000Z</time>
      </trkpt>
      <trkpt lat="48.21157" lon="-2.62865">
        <ele>101.19999694824</ele>
        <time>2021-10-15T12:43:16.000Z</time>
      </trkpt>
      <trkpt lat="48.21155" lon="-2.62866">
        <ele>101.40000152588</ele>
        <time>2021-10-15T12:43:17.000Z</time>
      </trkpt>
      <trkpt lat="48.21152" lon="-2.62867">
        <ele>101.80000305176</ele>
        <time>2021-10-15T12:43:18.000Z</time>
      </trkpt>
      <trkpt lat="48.2115" lon="-2.62868">
        <ele>102</ele>
        <time>2021-10-15T12:43:19.000Z</time>
      </trkpt>
      <trkpt lat="48.21147" lon="-2.62869">
        <ele>102.19999694824</ele>
        <time>2021-10-15T12:43:20.000Z</time>
      </trkpt>
      <trkpt lat="48.21145" lon="-2.6287">
        <ele>102.40000152588</ele>
        <time>2021-10-15T12:43:21.000Z</time>
      </trkpt>
      <trkpt lat="48.21143" lon="-2.62871">
        <ele>102.59999847412</ele>
        <time>2021-10-15T12:43:22.000Z</time>
      </trkpt>
      <trkpt lat="48.21142" lon="-2.62874">
        <ele>102.80000305176</ele>
        <time>2021-10-15T12:43:23.000Z</time>
      </trkpt>
      <trkpt lat="48.21142" lon="-2.62878">
        <ele>102.80000305176</ele>
        <time>2021-10-15T12:43:24.000Z</time>
      </trkpt>
      <trkpt lat="48.21142" lon="-2.62882">
        <ele>102.80000305176</ele>
        <time>2021-10-15T12:43:25.000Z</time>
      </trkpt>
      <trkpt lat="48.21142" lon="-2.62886">
        <ele>102.80000305176</ele>
        <time>2021-10-15T12:43:26.000Z</time>
      </trkpt>
      <trkpt lat="48.21143" lon="-2.62889">
        <ele>102.80000305176</ele>
        <time>2021-10-15T12:43:27.000Z</time>
      </trkpt>
      <trkpt lat="48.21144" lon="-2.62893">
        <ele>102.59999847412</ele>
        <time>2021-10-15T12:43:28.000Z</time>
      </trkpt>
      <trkpt lat="48.21145" lon="-2.62898">
        <ele>102.59999847412</ele>
        <time>2021-10-15T12:43:29.000Z</time>
      </trkpt>
      <trkpt lat="48.21146" lon="-2.62902">
        <ele>102.80000305176</ele>
        <time>2021-10-15T12:43:30.000Z</time>
      </trkpt>
      <trkpt lat="48.21148" lon="-2.62912">
        <ele>102.80000305176</ele>
        <time>2021-10-15T12:43:31.000Z</time>
      </trkpt>
      <trkpt lat="48.21148" lon="-2.62912">
        <ele>102.80000305176</ele>
        <time>2021-10-15T12:43:32.000Z</time>
      </trkpt>
      <trkpt lat="48.21149" lon="-2.62917">
        <ele>103</ele>
        <time>2021-10-15T12:43:33.000Z</time>
      </trkpt>
      <trkpt lat="48.2115" lon="-2.62921">
        <ele>103.19999694824</ele>
        <time>2021-10-15T12:43:34.000Z</time>
      </trkpt>
      <trkpt lat="48.21151" lon="-2.62926">
        <ele>103.80000305176</ele>
        <time>2021-10-15T12:43:35.000Z</time>
      </trkpt>
      <trkpt lat="48.21152" lon="-2.62931">
        <ele>104</ele>
        <time>2021-10-15T12:43:36.000Z</time>
      </trkpt>
      <trkpt lat="48.21153" lon="-2.62935">
        <ele>104</ele>
        <time>2021-10-15T12:43:37.000Z</time>
      </trkpt>
      <trkpt lat="48.21154" lon="-2.6294">
        <ele>103.80000305176</ele>
        <time>2021-10-15T12:43:38.000Z</time>
      </trkpt>
      <trkpt lat="48.21155" lon="-2.62944">
        <ele>103.59999847412</ele>
        <time>2021-10-15T12:43:39.000Z</time>
      </trkpt>
      <trkpt lat="48.21157" lon="-2.62949">
        <ele>103.59999847412</ele>
        <time>2021-10-15T12:43:40.000Z</time>
      </trkpt>
      <trkpt lat="48.21158" lon="-2.62953">
        <ele>104</ele>
        <time>2021-10-15T12:43:41.000Z</time>
      </trkpt>
      <trkpt lat="48.2116" lon="-2.62958">
        <ele>104.40000152588</ele>
        <time>2021-10-15T12:43:42.000Z</time>
      </trkpt>
      <trkpt lat="48.21161" lon="-2.62964">
        <ele>105.19999694824</ele>
        <time>2021-10-15T12:43:43.000Z</time>
      </trkpt>
      <trkpt lat="48.21162" lon="-2.62969">
        <ele>105.80000305176</ele>
        <time>2021-10-15T12:43:44.000Z</time>
      </trkpt>
      <trkpt lat="48.21164" lon="-2.62974">
        <ele>106.19999694824</ele>
        <time>2021-10-15T12:43:45.000Z</time>
      </trkpt>
      <trkpt lat="48.21166" lon="-2.6298">
        <ele>106.40000152588</ele>
        <time>2021-10-15T12:43:46.000Z</time>
      </trkpt>
      <trkpt lat="48.21167" lon="-2.62985">
        <ele>106.80000305176</ele>
        <time>2021-10-15T12:43:47.000Z</time>
      </trkpt>
      <trkpt lat="48.21169" lon="-2.62991">
        <ele>107.19999694824</ele>
        <time>2021-10-15T12:43:48.000Z</time>
      </trkpt>
      <trkpt lat="48.2117" lon="-2.62997">
        <ele>107.59999847412</ele>
        <time>2021-10-15T12:43:49.000Z</time>
      </trkpt>
      <trkpt lat="48.21171" lon="-2.63003">
        <ele>107.80000305176</ele>
        <time>2021-10-15T12:43:50.000Z</time>
      </trkpt>
      <trkpt lat="48.21173" lon="-2.6301">
        <ele>108.59999847412</ele>
        <time>2021-10-15T12:43:51.000Z</time>
      </trkpt>
      <trkpt lat="48.21174" lon="-2.63016">
        <ele>109.40000152588</ele>
        <time>2021-10-15T12:43:52.000Z</time>
      </trkpt>
      <trkpt lat="48.21176" lon="-2.63023">
        <ele>109.40000152588</ele>
        <time>2021-10-15T12:43:53.000Z</time>
      </trkpt>
      <trkpt lat="48.21178" lon="-2.63029">
        <ele>109.19999694824</ele>
        <time>2021-10-15T12:43:54.000Z</time>
      </trkpt>
      <trkpt lat="48.2118" lon="-2.63035">
        <ele>109.40000152588</ele>
        <time>2021-10-15T12:43:55.000Z</time>
      </trkpt>
      <trkpt lat="48.21181" lon="-2.63041">
        <ele>109.59999847412</ele>
        <time>2021-10-15T12:43:56.000Z</time>
      </trkpt>
      <trkpt lat="48.21183" lon="-2.63047">
        <ele>109.80000305176</ele>
        <time>2021-10-15T12:43:57.000Z</time>
      </trkpt>
      <trkpt lat="48.21185" lon="-2.63054">
        <ele>110</ele>
        <time>2021-10-15T12:43:58.000Z</time>
      </trkpt>
      <trkpt lat="48.21187" lon="-2.6306">
        <ele>110</ele>
        <time>2021-10-15T12:43:59.000Z</time>
      </trkpt>
      <trkpt lat="48.21189" lon="-2.63067">
        <ele>110.40000152588</ele>
        <time>2021-10-15T12:44:00.000Z</time>
      </trkpt>
      <trkpt lat="48.21191" lon="-2.63073">
        <ele>110.59999847412</ele>
        <time>2021-10-15T12:44:01.000Z</time>
      </trkpt>
      <trkpt lat="48.21193" lon="-2.63079">
        <ele>110.80000305176</ele>
        <time>2021-10-15T12:44:02.000Z</time>
      </trkpt>
      <trkpt lat="48.21195" lon="-2.63085">
        <ele>110.59999847412</ele>
        <time>2021-10-15T12:44:03.000Z</time>
      </trkpt>
      <trkpt lat="48.21197" lon="-2.63092">
        <ele>111</ele>
        <time>2021-10-15T12:44:04.000Z</time>
      </trkpt>
      <trkpt lat="48.212" lon="-2.63099">
        <ele>111.19999694824</ele>
        <time>2021-10-15T12:44:05.000Z</time>
      </trkpt>
      <trkpt lat="48.21202" lon="-2.63106">
        <ele>111.19999694824</ele>
        <time>2021-10-15T12:44:06.000Z</time>
      </trkpt>
      <trkpt lat="48.21205" lon="-2.63113">
        <ele>111</ele>
        <time>2021-10-15T12:44:07.000Z</time>
      </trkpt>
      <trkpt lat="48.21207" lon="-2.6312">
        <ele>111</ele>
        <time>2021-10-15T12:44:08.000Z</time>
      </trkpt>
      <trkpt lat="48.2121" lon="-2.63127">
        <ele>110.19999694824</ele>
        <time>2021-10-15T12:44:09.000Z</time>
      </trkpt>
      <trkpt lat="48.21213" lon="-2.63133">
        <ele>109.40000152588</ele>
        <time>2021-10-15T12:44:10.000Z</time>
      </trkpt>
      <trkpt lat="48.21216" lon="-2.63139">
        <ele>108.59999847412</ele>
        <time>2021-10-15T12:44:11.000Z</time>
      </trkpt>
      <trkpt lat="48.21219" lon="-2.63146">
        <ele>108.40000152588</ele>
        <time>2021-10-15T12:44:12.000Z</time>
      </trkpt>
      <trkpt lat="48.21221" lon="-2.63152">
        <ele>108.40000152588</ele>
        <time>2021-10-15T12:44:13.000Z</time>
      </trkpt>
      <trkpt lat="48.21224" lon="-2.63158">
        <ele>108.40000152588</ele>
        <time>2021-10-15T12:44:14.000Z</time>
      </trkpt>
      <trkpt lat="48.21227" lon="-2.63165">
        <ele>108.40000152588</ele>
        <time>2021-10-15T12:44:15.000Z</time>
      </trkpt>
      <trkpt lat="48.2123" lon="-2.63172">
        <ele>108.19999694824</ele>
        <time>2021-10-15T12:44:16.000Z</time>
      </trkpt>
      <trkpt lat="48.21233" lon="-2.63179">
        <ele>108.19999694824</ele>
        <time>2021-10-15T12:44:17.000Z</time>
      </trkpt>
      <trkpt lat="48.21236" lon="-2.63186">
        <ele>107.80000305176</ele>
        <time>2021-10-15T12:44:18.000Z</time>
      </trkpt>
      <trkpt lat="48.21239" lon="-2.63193">
        <ele>107.40000152588</ele>
        <time>2021-10-15T12:44:19.000Z</time>
      </trkpt>
      <trkpt lat="48.21242" lon="-2.632">
        <ele>107</ele>
        <time>2021-10-15T12:44:20.000Z</time>
      </trkpt>
      <trkpt lat="48.21245" lon="-2.63206">
        <ele>106.80000305176</ele>
        <time>2021-10-15T12:44:21.000Z</time>
      </trkpt>
      <trkpt lat="48.21248" lon="-2.63212">
        <ele>106.59999847412</ele>
        <time>2021-10-15T12:44:22.000Z</time>
      </trkpt>
      <trkpt lat="48.21251" lon="-2.63218">
        <ele>106.40000152588</ele>
        <time>2021-10-15T12:44:23.000Z</time>
      </trkpt>
      <trkpt lat="48.21254" lon="-2.63225">
        <ele>105.80000305176</ele>
        <time>2021-10-15T12:44:24.000Z</time>
      </trkpt>
      <trkpt lat="48.21258" lon="-2.6323">
        <ele>105.59999847412</ele>
        <time>2021-10-15T12:44:25.000Z</time>
      </trkpt>
      <trkpt lat="48.21261" lon="-2.63237">
        <ele>105.80000305176</ele>
        <time>2021-10-15T12:44:26.000Z</time>
      </trkpt>
      <trkpt lat="48.21263" lon="-2.63243">
        <ele>105.59999847412</ele>
        <time>2021-10-15T12:44:27.000Z</time>
      </trkpt>
      <trkpt lat="48.21266" lon="-2.63249">
        <ele>105.40000152588</ele>
        <time>2021-10-15T12:44:28.000Z</time>
      </trkpt>
      <trkpt lat="48.21269" lon="-2.63256">
        <ele>105.40000152588</ele>
        <time>2021-10-15T12:44:29.000Z</time>
      </trkpt>
      <trkpt lat="48.21272" lon="-2.63262">
        <ele>105.59999847412</ele>
        <time>2021-10-15T12:44:30.000Z</time>
      </trkpt>
      <trkpt lat="48.21274" lon="-2.63269">
        <ele>106.19999694824</ele>
        <time>2021-10-15T12:44:31.000Z</time>
      </trkpt>
      <trkpt lat="48.21277" lon="-2.63275">
        <ele>106.19999694824</ele>
        <time>2021-10-15T12:44:32.000Z</time>
      </trkpt>
      <trkpt lat="48.2128" lon="-2.63281">
        <ele>105.59999847412</ele>
        <time>2021-10-15T12:44:33.000Z</time>
      </trkpt>
      <trkpt lat="48.21282" lon="-2.63288">
        <ele>105.40000152588</ele>
        <time>2021-10-15T12:44:34.000Z</time>
      </trkpt>
      <trkpt lat="48.21284" lon="-2.63293">
        <ele>105.19999694824</ele>
        <time>2021-10-15T12:44:35.000Z</time>
      </trkpt>
      <trkpt lat="48.21287" lon="-2.63299">
        <ele>105</ele>
        <time>2021-10-15T12:44:36.000Z</time>
      </trkpt>
      <trkpt lat="48.21289" lon="-2.63305">
        <ele>105</ele>
        <time>2021-10-15T12:44:37.000Z</time>
      </trkpt>
      <trkpt lat="48.2129" lon="-2.63311">
        <ele>105.19999694824</ele>
        <time>2021-10-15T12:44:38.000Z</time>
      </trkpt>
      <trkpt lat="48.21292" lon="-2.63316">
        <ele>106</ele>
        <time>2021-10-15T12:44:39.000Z</time>
      </trkpt>
      <trkpt lat="48.21294" lon="-2.63323">
        <ele>106.59999847412</ele>
        <time>2021-10-15T12:44:40.000Z</time>
      </trkpt>
      <trkpt lat="48.21295" lon="-2.6333">
        <ele>107.59999847412</ele>
        <time>2021-10-15T12:44:41.000Z</time>
      </trkpt>
      <trkpt lat="48.21296" lon="-2.63336">
        <ele>108.40000152588</ele>
        <time>2021-10-15T12:44:42.000Z</time>
      </trkpt>
      <trkpt lat="48.21298" lon="-2.63343">
        <ele>109.19999694824</ele>
        <time>2021-10-15T12:44:43.000Z</time>
      </trkpt>
      <trkpt lat="48.21299" lon="-2.6335">
        <ele>110.40000152588</ele>
        <time>2021-10-15T12:44:44.000Z</time>
      </trkpt>
      <trkpt lat="48.21299" lon="-2.63357">
        <ele>111.80000305176</ele>
        <time>2021-10-15T12:44:45.000Z</time>
      </trkpt>
      <trkpt lat="48.213" lon="-2.63363">
        <ele>112.80000305176</ele>
        <time>2021-10-15T12:44:46.000Z</time>
      </trkpt>
      <trkpt lat="48.21302" lon="-2.63369">
        <ele>113.80000305176</ele>
        <time>2021-10-15T12:44:47.000Z</time>
      </trkpt>
      <trkpt lat="48.21304" lon="-2.63375">
        <ele>114.80000305176</ele>
        <time>2021-10-15T12:44:48.000Z</time>
      </trkpt>
      <trkpt lat="48.21306" lon="-2.6338">
        <ele>115.59999847412</ele>
        <time>2021-10-15T12:44:49.000Z</time>
      </trkpt>
      <trkpt lat="48.21308" lon="-2.63384">
        <ele>116</ele>
        <time>2021-10-15T12:44:50.000Z</time>
      </trkpt>
      <trkpt lat="48.2131" lon="-2.63388">
        <ele>116</ele>
        <time>2021-10-15T12:44:51.000Z</time>
      </trkpt>
      <trkpt lat="48.21315" lon="-2.63394">
        <ele>115.59999847412</ele>
        <time>2021-10-15T12:44:52.000Z</time>
      </trkpt>
      <trkpt lat="48.21315" lon="-2.63394">
        <ele>115.59999847412</ele>
        <time>2021-10-15T12:44:53.000Z</time>
      </trkpt>
      <trkpt lat="48.21317" lon="-2.63396">
        <ele>115.19999694824</ele>
        <time>2021-10-15T12:44:54.000Z</time>
      </trkpt>
      <trkpt lat="48.2132" lon="-2.63399">
        <ele>114.80000305176</ele>
        <time>2021-10-15T12:44:55.000Z</time>
      </trkpt>
      <trkpt lat="48.21323" lon="-2.63401">
        <ele>114.40000152588</ele>
        <time>2021-10-15T12:44:56.000Z</time>
      </trkpt>
      <trkpt lat="48.21325" lon="-2.63404">
        <ele>114.19999694824</ele>
        <time>2021-10-15T12:44:57.000Z</time>
      </trkpt>
      <trkpt lat="48.21328" lon="-2.63406">
        <ele>114</ele>
        <time>2021-10-15T12:44:58.000Z</time>
      </trkpt>
      <trkpt lat="48.21331" lon="-2.63408">
        <ele>113.80000305176</ele>
        <time>2021-10-15T12:44:59.000Z</time>
      </trkpt>
      <trkpt lat="48.21334" lon="-2.6341">
        <ele>113.40000152588</ele>
        <time>2021-10-15T12:45:00.000Z</time>
      </trkpt>
      <trkpt lat="48.21336" lon="-2.63412">
        <ele>113.19999694824</ele>
        <time>2021-10-15T12:45:01.000Z</time>
      </trkpt>
      <trkpt lat="48.21339" lon="-2.63414">
        <ele>112.59999847412</ele>
        <time>2021-10-15T12:45:02.000Z</time>
      </trkpt>
      <trkpt lat="48.21342" lon="-2.63415">
        <ele>111.80000305176</ele>
        <time>2021-10-15T12:45:03.000Z</time>
      </trkpt>
      <trkpt lat="48.21346" lon="-2.63417">
        <ele>110.80000305176</ele>
        <time>2021-10-15T12:45:04.000Z</time>
      </trkpt>
      <trkpt lat="48.2135" lon="-2.63419">
        <ele>110</ele>
        <time>2021-10-15T12:45:05.000Z</time>
      </trkpt>
      <trkpt lat="48.21354" lon="-2.63422">
        <ele>109.19999694824</ele>
        <time>2021-10-15T12:45:06.000Z</time>
      </trkpt>
      <trkpt lat="48.21357" lon="-2.63425">
        <ele>109.40000152588</ele>
        <time>2021-10-15T12:45:07.000Z</time>
      </trkpt>
      <trkpt lat="48.21362" lon="-2.63428">
        <ele>109.40000152588</ele>
        <time>2021-10-15T12:45:08.000Z</time>
      </trkpt>
      <trkpt lat="48.21366" lon="-2.63431">
        <ele>109.40000152588</ele>
        <time>2021-10-15T12:45:09.000Z</time>
      </trkpt>
      <trkpt lat="48.2137" lon="-2.63435">
        <ele>109.40000152588</ele>
        <time>2021-10-15T12:45:10.000Z</time>
      </trkpt>
      <trkpt lat="48.21373" lon="-2.63439">
        <ele>109.19999694824</ele>
        <time>2021-10-15T12:45:11.000Z</time>
      </trkpt>
      <trkpt lat="48.21377" lon="-2.63442">
        <ele>109</ele>
        <time>2021-10-15T12:45:12.000Z</time>
      </trkpt>
      <trkpt lat="48.2138" lon="-2.63446">
        <ele>108.80000305176</ele>
        <time>2021-10-15T12:45:13.000Z</time>
      </trkpt>
      <trkpt lat="48.21384" lon="-2.63449">
        <ele>108.80000305176</ele>
        <time>2021-10-15T12:45:14.000Z</time>
      </trkpt>
      <trkpt lat="48.21388" lon="-2.63454">
        <ele>109</ele>
        <time>2021-10-15T12:45:15.000Z</time>
      </trkpt>
      <trkpt lat="48.21392" lon="-2.63459">
        <ele>109.40000152588</ele>
        <time>2021-10-15T12:45:16.000Z</time>
      </trkpt>
      <trkpt lat="48.21395" lon="-2.63463">
        <ele>109.59999847412</ele>
        <time>2021-10-15T12:45:17.000Z</time>
      </trkpt>
      <trkpt lat="48.21399" lon="-2.63467">
        <ele>110.19999694824</ele>
        <time>2021-10-15T12:45:18.000Z</time>
      </trkpt>
      <trkpt lat="48.21403" lon="-2.63471">
        <ele>110.59999847412</ele>
        <time>2021-10-15T12:45:19.000Z</time>
      </trkpt>
      <trkpt lat="48.21408" lon="-2.63474">
        <ele>110.80000305176</ele>
        <time>2021-10-15T12:45:20.000Z</time>
      </trkpt>
      <trkpt lat="48.21412" lon="-2.63478">
        <ele>111</ele>
        <time>2021-10-15T12:45:21.000Z</time>
      </trkpt>
      <trkpt lat="48.21418" lon="-2.63481">
        <ele>111</ele>
        <time>2021-10-15T12:45:22.000Z</time>
      </trkpt>
      <trkpt lat="48.21423" lon="-2.63483">
        <ele>110.80000305176</ele>
        <time>2021-10-15T12:45:23.000Z</time>
      </trkpt>
      <trkpt lat="48.21427" lon="-2.63485">
        <ele>110.59999847412</ele>
        <time>2021-10-15T12:45:24.000Z</time>
      </trkpt>
      <trkpt lat="48.21432" lon="-2.63486">
        <ele>110.40000152588</ele>
        <time>2021-10-15T12:45:25.000Z</time>
      </trkpt>
      <trkpt lat="48.21436" lon="-2.63488">
        <ele>110.19999694824</ele>
        <time>2021-10-15T12:45:26.000Z</time>
      </trkpt>
      <trkpt lat="48.21439" lon="-2.63489">
        <ele>110.19999694824</ele>
        <time>2021-10-15T12:45:27.000Z</time>
      </trkpt>
      <trkpt lat="48.21444" lon="-2.63491">
        <ele>110.19999694824</ele>
        <time>2021-10-15T12:45:28.000Z</time>
      </trkpt>
      <trkpt lat="48.21448" lon="-2.63492">
        <ele>110</ele>
        <time>2021-10-15T12:45:29.000Z</time>
      </trkpt>
      <trkpt lat="48.21452" lon="-2.63493">
        <ele>110.19999694824</ele>
        <time>2021-10-15T12:45:30.000Z</time>
      </trkpt>
      <trkpt lat="48.21456" lon="-2.63495">
        <ele>110.40000152588</ele>
        <time>2021-10-15T12:45:31.000Z</time>
      </trkpt>
      <trkpt lat="48.21461" lon="-2.63496">
        <ele>110.40000152588</ele>
        <time>2021-10-15T12:45:32.000Z</time>
      </trkpt>
      <trkpt lat="48.21465" lon="-2.63497">
        <ele>110.40000152588</ele>
        <time>2021-10-15T12:45:33.000Z</time>
      </trkpt>
      <trkpt lat="48.2147" lon="-2.63497">
        <ele>110.59999847412</ele>
        <time>2021-10-15T12:45:34.000Z</time>
      </trkpt>
      <trkpt lat="48.21475" lon="-2.63498">
        <ele>110.80000305176</ele>
        <time>2021-10-15T12:45:35.000Z</time>
      </trkpt>
      <trkpt lat="48.21479" lon="-2.63499">
        <ele>110.80000305176</ele>
        <time>2021-10-15T12:45:36.000Z</time>
      </trkpt>
      <trkpt lat="48.21483" lon="-2.635">
        <ele>111.19999694824</ele>
        <time>2021-10-15T12:45:37.000Z</time>
      </trkpt>
      <trkpt lat="48.21488" lon="-2.63501">
        <ele>111.40000152588</ele>
        <time>2021-10-15T12:45:38.000Z</time>
      </trkpt>
      <trkpt lat="48.21493" lon="-2.63501">
        <ele>111.40000152588</ele>
        <time>2021-10-15T12:45:39.000Z</time>
      </trkpt>
      <trkpt lat="48.21498" lon="-2.63502">
        <ele>111.59999847412</ele>
        <time>2021-10-15T12:45:40.000Z</time>
      </trkpt>
      <trkpt lat="48.21503" lon="-2.63503">
        <ele>111.80000305176</ele>
        <time>2021-10-15T12:45:41.000Z</time>
      </trkpt>
      <trkpt lat="48.21509" lon="-2.63504">
        <ele>112</ele>
        <time>2021-10-15T12:45:42.000Z</time>
      </trkpt>
      <trkpt lat="48.21514" lon="-2.63504">
        <ele>112.19999694824</ele>
        <time>2021-10-15T12:45:43.000Z</time>
      </trkpt>
      <trkpt lat="48.21519" lon="-2.63504">
        <ele>112</ele>
        <time>2021-10-15T12:45:44.000Z</time>
      </trkpt>
      <trkpt lat="48.21524" lon="-2.63503">
        <ele>112</ele>
        <time>2021-10-15T12:45:45.000Z</time>
      </trkpt>
      <trkpt lat="48.2153" lon="-2.63502">
        <ele>111.80000305176</ele>
        <time>2021-10-15T12:45:46.000Z</time>
      </trkpt>
      <trkpt lat="48.21535" lon="-2.63501">
        <ele>111.80000305176</ele>
        <time>2021-10-15T12:45:47.000Z</time>
      </trkpt>
      <trkpt lat="48.2154" lon="-2.63499">
        <ele>111.59999847412</ele>
        <time>2021-10-15T12:45:48.000Z</time>
      </trkpt>
      <trkpt lat="48.21545" lon="-2.63498">
        <ele>111.59999847412</ele>
        <time>2021-10-15T12:45:49.000Z</time>
      </trkpt>
      <trkpt lat="48.2155" lon="-2.63497">
        <ele>111.59999847412</ele>
        <time>2021-10-15T12:45:50.000Z</time>
      </trkpt>
      <trkpt lat="48.21555" lon="-2.63495">
        <ele>111.80000305176</ele>
        <time>2021-10-15T12:45:51.000Z</time>
      </trkpt>
      <trkpt lat="48.2156" lon="-2.63494">
        <ele>112</ele>
        <time>2021-10-15T12:45:52.000Z</time>
      </trkpt>
      <trkpt lat="48.21565" lon="-2.63492">
        <ele>112.19999694824</ele>
        <time>2021-10-15T12:45:53.000Z</time>
      </trkpt>
      <trkpt lat="48.2157" lon="-2.6349">
        <ele>112.19999694824</ele>
        <time>2021-10-15T12:45:54.000Z</time>
      </trkpt>
      <trkpt lat="48.21576" lon="-2.63489">
        <ele>112.40000152588</ele>
        <time>2021-10-15T12:45:55.000Z</time>
      </trkpt>
      <trkpt lat="48.21581" lon="-2.63489">
        <ele>112.59999847412</ele>
        <time>2021-10-15T12:45:56.000Z</time>
      </trkpt>
      <trkpt lat="48.21586" lon="-2.63488">
        <ele>112.59999847412</ele>
        <time>2021-10-15T12:45:57.000Z</time>
      </trkpt>
      <trkpt lat="48.21592" lon="-2.63488">
        <ele>112.80000305176</ele>
        <time>2021-10-15T12:45:58.000Z</time>
      </trkpt>
      <trkpt lat="48.21597" lon="-2.63489">
        <ele>113.19999694824</ele>
        <time>2021-10-15T12:45:59.000Z</time>
      </trkpt>
      <trkpt lat="48.21603" lon="-2.6349">
        <ele>113.59999847412</ele>
        <time>2021-10-15T12:46:00.000Z</time>
      </trkpt>
      <trkpt lat="48.21608" lon="-2.6349">
        <ele>113</ele>
        <time>2021-10-15T12:46:01.000Z</time>
      </trkpt>
      <trkpt lat="48.21619" lon="-2.63489">
        <ele>111.80000305176</ele>
        <time>2021-10-15T12:46:02.000Z</time>
      </trkpt>
      <trkpt lat="48.21619" lon="-2.63489">
        <ele>111.80000305176</ele>
        <time>2021-10-15T12:46:03.000Z</time>
      </trkpt>
      <trkpt lat="48.21624" lon="-2.63488">
        <ele>111.19999694824</ele>
        <time>2021-10-15T12:46:04.000Z</time>
      </trkpt>
      <trkpt lat="48.21629" lon="-2.63487">
        <ele>110.59999847412</ele>
        <time>2021-10-15T12:46:05.000Z</time>
      </trkpt>
      <trkpt lat="48.21634" lon="-2.63486">
        <ele>110</ele>
        <time>2021-10-15T12:46:06.000Z</time>
      </trkpt>
      <trkpt lat="48.21638" lon="-2.63485">
        <ele>109.59999847412</ele>
        <time>2021-10-15T12:46:07.000Z</time>
      </trkpt>
      <trkpt lat="48.21643" lon="-2.63485">
        <ele>109.40000152588</ele>
        <time>2021-10-15T12:46:08.000Z</time>
      </trkpt>
      <trkpt lat="48.21648" lon="-2.63485">
        <ele>109.40000152588</ele>
        <time>2021-10-15T12:46:09.000Z</time>
      </trkpt>
      <trkpt lat="48.21653" lon="-2.63485">
        <ele>109.19999694824</ele>
        <time>2021-10-15T12:46:10.000Z</time>
      </trkpt>
      <trkpt lat="48.21658" lon="-2.63486">
        <ele>109.19999694824</ele>
        <time>2021-10-15T12:46:11.000Z</time>
      </trkpt>
      <trkpt lat="48.21662" lon="-2.63486">
        <ele>109.40000152588</ele>
        <time>2021-10-15T12:46:12.000Z</time>
      </trkpt>
      <trkpt lat="48.21666" lon="-2.63486">
        <ele>109.59999847412</ele>
        <time>2021-10-15T12:46:13.000Z</time>
      </trkpt>
      <trkpt lat="48.21671" lon="-2.63486">
        <ele>109.59999847412</ele>
        <time>2021-10-15T12:46:14.000Z</time>
      </trkpt>
      <trkpt lat="48.21675" lon="-2.63486">
        <ele>109.80000305176</ele>
        <time>2021-10-15T12:46:15.000Z</time>
      </trkpt>
      <trkpt lat="48.2168" lon="-2.63486">
        <ele>110</ele>
        <time>2021-10-15T12:46:16.000Z</time>
      </trkpt>
      <trkpt lat="48.21684" lon="-2.63487">
        <ele>110.59999847412</ele>
        <time>2021-10-15T12:46:17.000Z</time>
      </trkpt>
      <trkpt lat="48.21688" lon="-2.63487">
        <ele>110.80000305176</ele>
        <time>2021-10-15T12:46:18.000Z</time>
      </trkpt>
      <trkpt lat="48.21692" lon="-2.63487">
        <ele>111</ele>
        <time>2021-10-15T12:46:19.000Z</time>
      </trkpt>
      <trkpt lat="48.21696" lon="-2.63486">
        <ele>111</ele>
        <time>2021-10-15T12:46:20.000Z</time>
      </trkpt>
      <trkpt lat="48.217" lon="-2.63486">
        <ele>111.19999694824</ele>
        <time>2021-10-15T12:46:21.000Z</time>
      </trkpt>
      <trkpt lat="48.21703" lon="-2.63486">
        <ele>111</ele>
        <time>2021-10-15T12:46:22.000Z</time>
      </trkpt>
      <trkpt lat="48.21707" lon="-2.63485">
        <ele>111</ele>
        <time>2021-10-15T12:46:23.000Z</time>
      </trkpt>
      <trkpt lat="48.21712" lon="-2.63485">
        <ele>110.59999847412</ele>
        <time>2021-10-15T12:46:24.000Z</time>
      </trkpt>
      <trkpt lat="48.21716" lon="-2.63485">
        <ele>110.59999847412</ele>
        <time>2021-10-15T12:46:25.000Z</time>
      </trkpt>
      <trkpt lat="48.21721" lon="-2.63484">
        <ele>110.40000152588</ele>
        <time>2021-10-15T12:46:26.000Z</time>
      </trkpt>
      <trkpt lat="48.21727" lon="-2.63482">
        <ele>110.19999694824</ele>
        <time>2021-10-15T12:46:27.000Z</time>
      </trkpt>
      <trkpt lat="48.21732" lon="-2.63481">
        <ele>110</ele>
        <time>2021-10-15T12:46:28.000Z</time>
      </trkpt>
      <trkpt lat="48.21737" lon="-2.63479">
        <ele>109.59999847412</ele>
        <time>2021-10-15T12:46:29.000Z</time>
      </trkpt>
      <trkpt lat="48.21742" lon="-2.63478">
        <ele>109.40000152588</ele>
        <time>2021-10-15T12:46:30.000Z</time>
      </trkpt>
      <trkpt lat="48.21747" lon="-2.63476">
        <ele>109.80000305176</ele>
        <time>2021-10-15T12:46:31.000Z</time>
      </trkpt>
      <trkpt lat="48.21752" lon="-2.63475">
        <ele>110.19999694824</ele>
        <time>2021-10-15T12:46:32.000Z</time>
      </trkpt>
      <trkpt lat="48.21757" lon="-2.63475">
        <ele>111</ele>
        <time>2021-10-15T12:46:33.000Z</time>
      </trkpt>
      <trkpt lat="48.21762" lon="-2.63476">
        <ele>111.80000305176</ele>
        <time>2021-10-15T12:46:34.000Z</time>
      </trkpt>
      <trkpt lat="48.21767" lon="-2.63477">
        <ele>112.80000305176</ele>
        <time>2021-10-15T12:46:35.000Z</time>
      </trkpt>
      <trkpt lat="48.21772" lon="-2.63478">
        <ele>113.40000152588</ele>
        <time>2021-10-15T12:46:36.000Z</time>
      </trkpt>
      <trkpt lat="48.21777" lon="-2.63479">
        <ele>113.40000152588</ele>
        <time>2021-10-15T12:46:37.000Z</time>
      </trkpt>
      <trkpt lat="48.21783" lon="-2.63483">
        <ele>113.80000305176</ele>
        <time>2021-10-15T12:46:38.000Z</time>
      </trkpt>
      <trkpt lat="48.21788" lon="-2.63484">
        <ele>113.80000305176</ele>
        <time>2021-10-15T12:46:39.000Z</time>
      </trkpt>
      <trkpt lat="48.21793" lon="-2.63484">
        <ele>113.80000305176</ele>
        <time>2021-10-15T12:46:40.000Z</time>
      </trkpt>
      <trkpt lat="48.21798" lon="-2.63484">
        <ele>113.59999847412</ele>
        <time>2021-10-15T12:46:41.000Z</time>
      </trkpt>
      <trkpt lat="48.21804" lon="-2.63486">
        <ele>113.59999847412</ele>
        <time>2021-10-15T12:46:42.000Z</time>
      </trkpt>
      <trkpt lat="48.21809" lon="-2.63487">
        <ele>113.40000152588</ele>
        <time>2021-10-15T12:46:43.000Z</time>
      </trkpt>
      <trkpt lat="48.21814" lon="-2.63487">
        <ele>113.19999694824</ele>
        <time>2021-10-15T12:46:44.000Z</time>
      </trkpt>
      <trkpt lat="48.2182" lon="-2.63488">
        <ele>112.59999847412</ele>
        <time>2021-10-15T12:46:45.000Z</time>
      </trkpt>
      <trkpt lat="48.21825" lon="-2.63487">
        <ele>111.59999847412</ele>
        <time>2021-10-15T12:46:46.000Z</time>
      </trkpt>
      <trkpt lat="48.21831" lon="-2.63487">
        <ele>111.40000152588</ele>
        <time>2021-10-15T12:46:47.000Z</time>
      </trkpt>
      <trkpt lat="48.21837" lon="-2.63486">
        <ele>111</ele>
        <time>2021-10-15T12:46:48.000Z</time>
      </trkpt>
      <trkpt lat="48.21843" lon="-2.63486">
        <ele>110.80000305176</ele>
        <time>2021-10-15T12:46:49.000Z</time>
      </trkpt>
      <trkpt lat="48.21849" lon="-2.63485">
        <ele>110.40000152588</ele>
        <time>2021-10-15T12:46:50.000Z</time>
      </trkpt>
      <trkpt lat="48.21854" lon="-2.63484">
        <ele>110.19999694824</ele>
        <time>2021-10-15T12:46:51.000Z</time>
      </trkpt>
      <trkpt lat="48.21865" lon="-2.63483">
        <ele>111.59999847412</ele>
        <time>2021-10-15T12:46:52.000Z</time>
      </trkpt>
      <trkpt lat="48.21865" lon="-2.63483">
        <ele>111.59999847412</ele>
        <time>2021-10-15T12:46:53.000Z</time>
      </trkpt>
      <trkpt lat="48.21869" lon="-2.63483">
        <ele>112.19999694824</ele>
        <time>2021-10-15T12:46:54.000Z</time>
      </trkpt>
      <trkpt lat="48.21874" lon="-2.63483">
        <ele>113</ele>
        <time>2021-10-15T12:46:55.000Z</time>
      </trkpt>
      <trkpt lat="48.21879" lon="-2.63483">
        <ele>113.80000305176</ele>
        <time>2021-10-15T12:46:56.000Z</time>
      </trkpt>
      <trkpt lat="48.21885" lon="-2.63484">
        <ele>114.40000152588</ele>
        <time>2021-10-15T12:46:57.000Z</time>
      </trkpt>
      <trkpt lat="48.2189" lon="-2.63484">
        <ele>114.80000305176</ele>
        <time>2021-10-15T12:46:58.000Z</time>
      </trkpt>
      <trkpt lat="48.21895" lon="-2.63484">
        <ele>115.19999694824</ele>
        <time>2021-10-15T12:46:59.000Z</time>
      </trkpt>
      <trkpt lat="48.219" lon="-2.63485">
        <ele>115.59999847412</ele>
        <time>2021-10-15T12:47:00.000Z</time>
      </trkpt>
      <trkpt lat="48.21905" lon="-2.63485">
        <ele>116</ele>
        <time>2021-10-15T12:47:01.000Z</time>
      </trkpt>
      <trkpt lat="48.2191" lon="-2.63486">
        <ele>116.40000152588</ele>
        <time>2021-10-15T12:47:02.000Z</time>
      </trkpt>
      <trkpt lat="48.21914" lon="-2.63485">
        <ele>116.59999847412</ele>
        <time>2021-10-15T12:47:03.000Z</time>
      </trkpt>
      <trkpt lat="48.21918" lon="-2.63485">
        <ele>116.59999847412</ele>
        <time>2021-10-15T12:47:04.000Z</time>
      </trkpt>
      <trkpt lat="48.21923" lon="-2.63484">
        <ele>116.59999847412</ele>
        <time>2021-10-15T12:47:05.000Z</time>
      </trkpt>
      <trkpt lat="48.21927" lon="-2.63483">
        <ele>116.59999847412</ele>
        <time>2021-10-15T12:47:06.000Z</time>
      </trkpt>
      <trkpt lat="48.21932" lon="-2.63481">
        <ele>116.59999847412</ele>
        <time>2021-10-15T12:47:07.000Z</time>
      </trkpt>
      <trkpt lat="48.21937" lon="-2.6348">
        <ele>116.59999847412</ele>
        <time>2021-10-15T12:47:08.000Z</time>
      </trkpt>
      <trkpt lat="48.21942" lon="-2.6348">
        <ele>116.80000305176</ele>
        <time>2021-10-15T12:47:09.000Z</time>
      </trkpt>
      <trkpt lat="48.21946" lon="-2.63479">
        <ele>116.80000305176</ele>
        <time>2021-10-15T12:47:10.000Z</time>
      </trkpt>
      <trkpt lat="48.21951" lon="-2.63477">
        <ele>116.80000305176</ele>
        <time>2021-10-15T12:47:11.000Z</time>
      </trkpt>
      <trkpt lat="48.21955" lon="-2.63475">
        <ele>116.59999847412</ele>
        <time>2021-10-15T12:47:12.000Z</time>
      </trkpt>
      <trkpt lat="48.2196" lon="-2.63472">
        <ele>116.59999847412</ele>
        <time>2021-10-15T12:47:13.000Z</time>
      </trkpt>
      <trkpt lat="48.21965" lon="-2.63468">
        <ele>116.40000152588</ele>
        <time>2021-10-15T12:47:14.000Z</time>
      </trkpt>
      <trkpt lat="48.2197" lon="-2.63464">
        <ele>116.40000152588</ele>
        <time>2021-10-15T12:47:15.000Z</time>
      </trkpt>
      <trkpt lat="48.21975" lon="-2.6346">
        <ele>116.59999847412</ele>
        <time>2021-10-15T12:47:16.000Z</time>
      </trkpt>
      <trkpt lat="48.2198" lon="-2.63455">
        <ele>116.59999847412</ele>
        <time>2021-10-15T12:47:17.000Z</time>
      </trkpt>
      <trkpt lat="48.21984" lon="-2.63451">
        <ele>116.59999847412</ele>
        <time>2021-10-15T12:47:18.000Z</time>
      </trkpt>
      <trkpt lat="48.21989" lon="-2.63447">
        <ele>116.59999847412</ele>
        <time>2021-10-15T12:47:19.000Z</time>
      </trkpt>
      <trkpt lat="48.21993" lon="-2.63443">
        <ele>116.59999847412</ele>
        <time>2021-10-15T12:47:20.000Z</time>
      </trkpt>
      <trkpt lat="48.21998" lon="-2.63439">
        <ele>116.59999847412</ele>
        <time>2021-10-15T12:47:21.000Z</time>
      </trkpt>
      <trkpt lat="48.22003" lon="-2.63435">
        <ele>116.40000152588</ele>
        <time>2021-10-15T12:47:22.000Z</time>
      </trkpt>
      <trkpt lat="48.22007" lon="-2.63431">
        <ele>116.19999694824</ele>
        <time>2021-10-15T12:47:23.000Z</time>
      </trkpt>
      <trkpt lat="48.22011" lon="-2.63427">
        <ele>116.19999694824</ele>
        <time>2021-10-15T12:47:24.000Z</time>
      </trkpt>
      <trkpt lat="48.22015" lon="-2.63423">
        <ele>116</ele>
        <time>2021-10-15T12:47:25.000Z</time>
      </trkpt>
      <trkpt lat="48.22019" lon="-2.63419">
        <ele>115.80000305176</ele>
        <time>2021-10-15T12:47:26.000Z</time>
      </trkpt>
      <trkpt lat="48.22024" lon="-2.63415">
        <ele>115.59999847412</ele>
        <time>2021-10-15T12:47:27.000Z</time>
      </trkpt>
      <trkpt lat="48.22028" lon="-2.63412">
        <ele>115.40000152588</ele>
        <time>2021-10-15T12:47:28.000Z</time>
      </trkpt>
      <trkpt lat="48.22033" lon="-2.63408">
        <ele>115.19999694824</ele>
        <time>2021-10-15T12:47:29.000Z</time>
      </trkpt>
      <trkpt lat="48.22038" lon="-2.63407">
        <ele>115.40000152588</ele>
        <time>2021-10-15T12:47:30.000Z</time>
      </trkpt>
      <trkpt lat="48.22043" lon="-2.63404">
        <ele>115.59999847412</ele>
        <time>2021-10-15T12:47:31.000Z</time>
      </trkpt>
      <trkpt lat="48.22048" lon="-2.63403">
        <ele>115.80000305176</ele>
        <time>2021-10-15T12:47:32.000Z</time>
      </trkpt>
      <trkpt lat="48.22056" lon="-2.63395">
        <ele>115.40000152588</ele>
        <time>2021-10-15T12:47:33.000Z</time>
      </trkpt>
      <trkpt lat="48.22056" lon="-2.63395">
        <ele>115.40000152588</ele>
        <time>2021-10-15T12:47:34.000Z</time>
      </trkpt>
      <trkpt lat="48.2206" lon="-2.63391">
        <ele>115</ele>
        <time>2021-10-15T12:47:35.000Z</time>
      </trkpt>
      <trkpt lat="48.22065" lon="-2.63389">
        <ele>115.19999694824</ele>
        <time>2021-10-15T12:47:36.000Z</time>
      </trkpt>
      <trkpt lat="48.22069" lon="-2.63385">
        <ele>115</ele>
        <time>2021-10-15T12:47:37.000Z</time>
      </trkpt>
      <trkpt lat="48.22074" lon="-2.63381">
        <ele>114.80000305176</ele>
        <time>2021-10-15T12:47:38.000Z</time>
      </trkpt>
      <trkpt lat="48.22079" lon="-2.63377">
        <ele>114.40000152588</ele>
        <time>2021-10-15T12:47:39.000Z</time>
      </trkpt>
      <trkpt lat="48.22084" lon="-2.63372">
        <ele>114</ele>
        <time>2021-10-15T12:47:40.000Z</time>
      </trkpt>
      <trkpt lat="48.22089" lon="-2.63369">
        <ele>113.59999847412</ele>
        <time>2021-10-15T12:47:41.000Z</time>
      </trkpt>
      <trkpt lat="48.22094" lon="-2.63365">
        <ele>113.40000152588</ele>
        <time>2021-10-15T12:47:42.000Z</time>
      </trkpt>
      <trkpt lat="48.22099" lon="-2.63361">
        <ele>113</ele>
        <time>2021-10-15T12:47:43.000Z</time>
      </trkpt>
      <trkpt lat="48.22104" lon="-2.63358">
        <ele>112.80000305176</ele>
        <time>2021-10-15T12:47:44.000Z</time>
      </trkpt>
      <trkpt lat="48.22108" lon="-2.63354">
        <ele>112.40000152588</ele>
        <time>2021-10-15T12:47:45.000Z</time>
      </trkpt>
      <trkpt lat="48.22113" lon="-2.63349">
        <ele>111.80000305176</ele>
        <time>2021-10-15T12:47:46.000Z</time>
      </trkpt>
      <trkpt lat="48.22116" lon="-2.63346">
        <ele>111.40000152588</ele>
        <time>2021-10-15T12:47:47.000Z</time>
      </trkpt>
      <trkpt lat="48.2212" lon="-2.63343">
        <ele>111.19999694824</ele>
        <time>2021-10-15T12:47:48.000Z</time>
      </trkpt>
      <trkpt lat="48.22124" lon="-2.6334">
        <ele>111</ele>
        <time>2021-10-15T12:47:49.000Z</time>
      </trkpt>
      <trkpt lat="48.22127" lon="-2.63338">
        <ele>111</ele>
        <time>2021-10-15T12:47:50.000Z</time>
      </trkpt>
      <trkpt lat="48.22131" lon="-2.63336">
        <ele>110.80000305176</ele>
        <time>2021-10-15T12:47:51.000Z</time>
      </trkpt>
      <trkpt lat="48.22135" lon="-2.63333">
        <ele>110.40000152588</ele>
        <time>2021-10-15T12:47:52.000Z</time>
      </trkpt>
      <trkpt lat="48.22139" lon="-2.6333">
        <ele>110.19999694824</ele>
        <time>2021-10-15T12:47:53.000Z</time>
      </trkpt>
      <trkpt lat="48.22143" lon="-2.63328">
        <ele>110.19999694824</ele>
        <time>2021-10-15T12:47:54.000Z</time>
      </trkpt>
      <trkpt lat="48.22147" lon="-2.63325">
        <ele>110.19999694824</ele>
        <time>2021-10-15T12:47:55.000Z</time>
      </trkpt>
      <trkpt lat="48.22151" lon="-2.63323">
        <ele>110.19999694824</ele>
        <time>2021-10-15T12:47:56.000Z</time>
      </trkpt>
      <trkpt lat="48.22155" lon="-2.63321">
        <ele>110.19999694824</ele>
        <time>2021-10-15T12:47:57.000Z</time>
      </trkpt>
      <trkpt lat="48.22159" lon="-2.63319">
        <ele>110.19999694824</ele>
        <time>2021-10-15T12:47:58.000Z</time>
      </trkpt>
      <trkpt lat="48.22163" lon="-2.63318">
        <ele>109.59999847412</ele>
        <time>2021-10-15T12:47:59.000Z</time>
      </trkpt>
      <trkpt lat="48.22167" lon="-2.63316">
        <ele>109.19999694824</ele>
        <time>2021-10-15T12:48:00.000Z</time>
      </trkpt>
      <trkpt lat="48.22171" lon="-2.63314">
        <ele>108.59999847412</ele>
        <time>2021-10-15T12:48:01.000Z</time>
      </trkpt>
      <trkpt lat="48.22175" lon="-2.63313">
        <ele>108.40000152588</ele>
        <time>2021-10-15T12:48:02.000Z</time>
      </trkpt>
      <trkpt lat="48.2218" lon="-2.63313">
        <ele>108</ele>
        <time>2021-10-15T12:48:03.000Z</time>
      </trkpt>
      <trkpt lat="48.22185" lon="-2.63312">
        <ele>107.80000305176</ele>
        <time>2021-10-15T12:48:04.000Z</time>
      </trkpt>
      <trkpt lat="48.22189" lon="-2.63312">
        <ele>107.59999847412</ele>
        <time>2021-10-15T12:48:05.000Z</time>
      </trkpt>
      <trkpt lat="48.22194" lon="-2.63311">
        <ele>107.59999847412</ele>
        <time>2021-10-15T12:48:06.000Z</time>
      </trkpt>
      <trkpt lat="48.22199" lon="-2.63311">
        <ele>107.40000152588</ele>
        <time>2021-10-15T12:48:07.000Z</time>
      </trkpt>
      <trkpt lat="48.22204" lon="-2.63312">
        <ele>107.59999847412</ele>
        <time>2021-10-15T12:48:08.000Z</time>
      </trkpt>
      <trkpt lat="48.2221" lon="-2.63311">
        <ele>107.59999847412</ele>
        <time>2021-10-15T12:48:09.000Z</time>
      </trkpt>
      <trkpt lat="48.22214" lon="-2.63311">
        <ele>107.19999694824</ele>
        <time>2021-10-15T12:48:10.000Z</time>
      </trkpt>
      <trkpt lat="48.22219" lon="-2.63311">
        <ele>107</ele>
        <time>2021-10-15T12:48:11.000Z</time>
      </trkpt>
      <trkpt lat="48.22224" lon="-2.6331">
        <ele>106.80000305176</ele>
        <time>2021-10-15T12:48:12.000Z</time>
      </trkpt>
      <trkpt lat="48.22229" lon="-2.6331">
        <ele>106.59999847412</ele>
        <time>2021-10-15T12:48:13.000Z</time>
      </trkpt>
      <trkpt lat="48.22233" lon="-2.63309">
        <ele>106.40000152588</ele>
        <time>2021-10-15T12:48:14.000Z</time>
      </trkpt>
      <trkpt lat="48.22237" lon="-2.63309">
        <ele>106.19999694824</ele>
        <time>2021-10-15T12:48:15.000Z</time>
      </trkpt>
      <trkpt lat="48.22242" lon="-2.63309">
        <ele>106</ele>
        <time>2021-10-15T12:48:16.000Z</time>
      </trkpt>
      <trkpt lat="48.22246" lon="-2.63308">
        <ele>105.80000305176</ele>
        <time>2021-10-15T12:48:17.000Z</time>
      </trkpt>
      <trkpt lat="48.22251" lon="-2.63307">
        <ele>105.59999847412</ele>
        <time>2021-10-15T12:48:18.000Z</time>
      </trkpt>
      <trkpt lat="48.22256" lon="-2.63307">
        <ele>105.40000152588</ele>
        <time>2021-10-15T12:48:19.000Z</time>
      </trkpt>
      <trkpt lat="48.22261" lon="-2.63307">
        <ele>105.19999694824</ele>
        <time>2021-10-15T12:48:20.000Z</time>
      </trkpt>
      <trkpt lat="48.22267" lon="-2.63307">
        <ele>105</ele>
        <time>2021-10-15T12:48:21.000Z</time>
      </trkpt>
      <trkpt lat="48.22272" lon="-2.63307">
        <ele>104.80000305176</ele>
        <time>2021-10-15T12:48:22.000Z</time>
      </trkpt>
      <trkpt lat="48.22278" lon="-2.63307">
        <ele>104.80000305176</ele>
        <time>2021-10-15T12:48:23.000Z</time>
      </trkpt>
      <trkpt lat="48.22283" lon="-2.63306">
        <ele>104.80000305176</ele>
        <time>2021-10-15T12:48:24.000Z</time>
      </trkpt>
      <trkpt lat="48.22288" lon="-2.63305">
        <ele>104.59999847412</ele>
        <time>2021-10-15T12:48:25.000Z</time>
      </trkpt>
      <trkpt lat="48.22294" lon="-2.63304">
        <ele>104.59999847412</ele>
        <time>2021-10-15T12:48:26.000Z</time>
      </trkpt>
      <trkpt lat="48.22298" lon="-2.63304">
        <ele>104.59999847412</ele>
        <time>2021-10-15T12:48:27.000Z</time>
      </trkpt>
      <trkpt lat="48.22304" lon="-2.63304">
        <ele>104.80000305176</ele>
        <time>2021-10-15T12:48:28.000Z</time>
      </trkpt>
      <trkpt lat="48.22309" lon="-2.63304">
        <ele>105</ele>
        <time>2021-10-15T12:48:29.000Z</time>
      </trkpt>
      <trkpt lat="48.22314" lon="-2.63303">
        <ele>105</ele>
        <time>2021-10-15T12:48:30.000Z</time>
      </trkpt>
      <trkpt lat="48.22319" lon="-2.63303">
        <ele>105.19999694824</ele>
        <time>2021-10-15T12:48:31.000Z</time>
      </trkpt>
      <trkpt lat="48.22324" lon="-2.63302">
        <ele>105.40000152588</ele>
        <time>2021-10-15T12:48:32.000Z</time>
      </trkpt>
      <trkpt lat="48.22328" lon="-2.63302">
        <ele>105.40000152588</ele>
        <time>2021-10-15T12:48:33.000Z</time>
      </trkpt>
      <trkpt lat="48.22333" lon="-2.63301">
        <ele>105.40000152588</ele>
        <time>2021-10-15T12:48:34.000Z</time>
      </trkpt>
      <trkpt lat="48.22338" lon="-2.63301">
        <ele>105.40000152588</ele>
        <time>2021-10-15T12:48:35.000Z</time>
      </trkpt>
      <trkpt lat="48.22342" lon="-2.633">
        <ele>105.59999847412</ele>
        <time>2021-10-15T12:48:36.000Z</time>
      </trkpt>
      <trkpt lat="48.22347" lon="-2.63299">
        <ele>105.59999847412</ele>
        <time>2021-10-15T12:48:37.000Z</time>
      </trkpt>
      <trkpt lat="48.22352" lon="-2.63298">
        <ele>105.80000305176</ele>
        <time>2021-10-15T12:48:38.000Z</time>
      </trkpt>
      <trkpt lat="48.22357" lon="-2.63297">
        <ele>105.59999847412</ele>
        <time>2021-10-15T12:48:39.000Z</time>
      </trkpt>
      <trkpt lat="48.22362" lon="-2.63296">
        <ele>105.59999847412</ele>
        <time>2021-10-15T12:48:40.000Z</time>
      </trkpt>
      <trkpt lat="48.22367" lon="-2.63296">
        <ele>105.59999847412</ele>
        <time>2021-10-15T12:48:41.000Z</time>
      </trkpt>
      <trkpt lat="48.22372" lon="-2.63296">
        <ele>105.59999847412</ele>
        <time>2021-10-15T12:48:42.000Z</time>
      </trkpt>
      <trkpt lat="48.22377" lon="-2.63296">
        <ele>105.59999847412</ele>
        <time>2021-10-15T12:48:43.000Z</time>
      </trkpt>
      <trkpt lat="48.22382" lon="-2.63295">
        <ele>105.40000152588</ele>
        <time>2021-10-15T12:48:44.000Z</time>
      </trkpt>
      <trkpt lat="48.22387" lon="-2.63295">
        <ele>105.40000152588</ele>
        <time>2021-10-15T12:48:45.000Z</time>
      </trkpt>
      <trkpt lat="48.22393" lon="-2.63296">
        <ele>105.59999847412</ele>
        <time>2021-10-15T12:48:46.000Z</time>
      </trkpt>
      <trkpt lat="48.22398" lon="-2.63296">
        <ele>105.80000305176</ele>
        <time>2021-10-15T12:48:47.000Z</time>
      </trkpt>
      <trkpt lat="48.22403" lon="-2.63297">
        <ele>106</ele>
        <time>2021-10-15T12:48:48.000Z</time>
      </trkpt>
      <trkpt lat="48.22409" lon="-2.63298">
        <ele>106.40000152588</ele>
        <time>2021-10-15T12:48:49.000Z</time>
      </trkpt>
      <trkpt lat="48.22414" lon="-2.63299">
        <ele>106.80000305176</ele>
        <time>2021-10-15T12:48:50.000Z</time>
      </trkpt>
      <trkpt lat="48.22418" lon="-2.633">
        <ele>107</ele>
        <time>2021-10-15T12:48:51.000Z</time>
      </trkpt>
      <trkpt lat="48.22428" lon="-2.63303">
        <ele>107.19999694824</ele>
        <time>2021-10-15T12:48:52.000Z</time>
      </trkpt>
      <trkpt lat="48.22428" lon="-2.63303">
        <ele>107.19999694824</ele>
        <time>2021-10-15T12:48:53.000Z</time>
      </trkpt>
      <trkpt lat="48.22433" lon="-2.63305">
        <ele>107.40000152588</ele>
        <time>2021-10-15T12:48:54.000Z</time>
      </trkpt>
      <trkpt lat="48.22439" lon="-2.63307">
        <ele>107.80000305176</ele>
        <time>2021-10-15T12:48:55.000Z</time>
      </trkpt>
      <trkpt lat="48.22443" lon="-2.63308">
        <ele>107.80000305176</ele>
        <time>2021-10-15T12:48:56.000Z</time>
      </trkpt>
      <trkpt lat="48.22448" lon="-2.63309">
        <ele>108</ele>
        <time>2021-10-15T12:48:57.000Z</time>
      </trkpt>
      <trkpt lat="48.22453" lon="-2.63312">
        <ele>108.40000152588</ele>
        <time>2021-10-15T12:48:58.000Z</time>
      </trkpt>
      <trkpt lat="48.22459" lon="-2.63314">
        <ele>108.80000305176</ele>
        <time>2021-10-15T12:48:59.000Z</time>
      </trkpt>
      <trkpt lat="48.22465" lon="-2.63317">
        <ele>108.80000305176</ele>
        <time>2021-10-15T12:49:00.000Z</time>
      </trkpt>
      <trkpt lat="48.2247" lon="-2.63319">
        <ele>108.80000305176</ele>
        <time>2021-10-15T12:49:01.000Z</time>
      </trkpt>
      <trkpt lat="48.22475" lon="-2.63321">
        <ele>108.80000305176</ele>
        <time>2021-10-15T12:49:02.000Z</time>
      </trkpt>
      <trkpt lat="48.2248" lon="-2.63323">
        <ele>109</ele>
        <time>2021-10-15T12:49:03.000Z</time>
      </trkpt>
      <trkpt lat="48.22486" lon="-2.63326">
        <ele>108.80000305176</ele>
        <time>2021-10-15T12:49:04.000Z</time>
      </trkpt>
      <trkpt lat="48.22492" lon="-2.63329">
        <ele>108.59999847412</ele>
        <time>2021-10-15T12:49:05.000Z</time>
      </trkpt>
      <trkpt lat="48.22498" lon="-2.63333">
        <ele>108.40000152588</ele>
        <time>2021-10-15T12:49:06.000Z</time>
      </trkpt>
      <trkpt lat="48.22503" lon="-2.63336">
        <ele>107.80000305176</ele>
        <time>2021-10-15T12:49:07.000Z</time>
      </trkpt>
      <trkpt lat="48.22509" lon="-2.63339">
        <ele>107.40000152588</ele>
        <time>2021-10-15T12:49:08.000Z</time>
      </trkpt>
      <trkpt lat="48.22515" lon="-2.63342">
        <ele>107</ele>
        <time>2021-10-15T12:49:09.000Z</time>
      </trkpt>
      <trkpt lat="48.22521" lon="-2.63345">
        <ele>106.59999847412</ele>
        <time>2021-10-15T12:49:10.000Z</time>
      </trkpt>
      <trkpt lat="48.22527" lon="-2.63348">
        <ele>107.19999694824</ele>
        <time>2021-10-15T12:49:11.000Z</time>
      </trkpt>
      <trkpt lat="48.22533" lon="-2.63351">
        <ele>107.80000305176</ele>
        <time>2021-10-15T12:49:12.000Z</time>
      </trkpt>
      <trkpt lat="48.22538" lon="-2.63353">
        <ele>108.19999694824</ele>
        <time>2021-10-15T12:49:13.000Z</time>
      </trkpt>
      <trkpt lat="48.22545" lon="-2.63355">
        <ele>108.59999847412</ele>
        <time>2021-10-15T12:49:14.000Z</time>
      </trkpt>
      <trkpt lat="48.22551" lon="-2.63357">
        <ele>108.80000305176</ele>
        <time>2021-10-15T12:49:15.000Z</time>
      </trkpt>
      <trkpt lat="48.22557" lon="-2.63358">
        <ele>108.80000305176</ele>
        <time>2021-10-15T12:49:16.000Z</time>
      </trkpt>
      <trkpt lat="48.22563" lon="-2.6336">
        <ele>109.19999694824</ele>
        <time>2021-10-15T12:49:17.000Z</time>
      </trkpt>
      <trkpt lat="48.22569" lon="-2.63361">
        <ele>109.40000152588</ele>
        <time>2021-10-15T12:49:18.000Z</time>
      </trkpt>
      <trkpt lat="48.22575" lon="-2.63361">
        <ele>109.80000305176</ele>
        <time>2021-10-15T12:49:19.000Z</time>
      </trkpt>
      <trkpt lat="48.22581" lon="-2.63361">
        <ele>109.40000152588</ele>
        <time>2021-10-15T12:49:20.000Z</time>
      </trkpt>
      <trkpt lat="48.22586" lon="-2.63361">
        <ele>109</ele>
        <time>2021-10-15T12:49:21.000Z</time>
      </trkpt>
      <trkpt lat="48.22592" lon="-2.63362">
        <ele>108.59999847412</ele>
        <time>2021-10-15T12:49:22.000Z</time>
      </trkpt>
      <trkpt lat="48.22597" lon="-2.63362">
        <ele>108.19999694824</ele>
        <time>2021-10-15T12:49:23.000Z</time>
      </trkpt>
      <trkpt lat="48.22602" lon="-2.63362">
        <ele>108</ele>
        <time>2021-10-15T12:49:24.000Z</time>
      </trkpt>
      <trkpt lat="48.22607" lon="-2.63362">
        <ele>107.40000152588</ele>
        <time>2021-10-15T12:49:25.000Z</time>
      </trkpt>
      <trkpt lat="48.22613" lon="-2.63362">
        <ele>107</ele>
        <time>2021-10-15T12:49:26.000Z</time>
      </trkpt>
      <trkpt lat="48.22618" lon="-2.63362">
        <ele>106.59999847412</ele>
        <time>2021-10-15T12:49:27.000Z</time>
      </trkpt>
      <trkpt lat="48.22623" lon="-2.63362">
        <ele>106.19999694824</ele>
        <time>2021-10-15T12:49:28.000Z</time>
      </trkpt>
      <trkpt lat="48.22628" lon="-2.63362">
        <ele>106</ele>
        <time>2021-10-15T12:49:29.000Z</time>
      </trkpt>
      <trkpt lat="48.22633" lon="-2.63363">
        <ele>105.59999847412</ele>
        <time>2021-10-15T12:49:30.000Z</time>
      </trkpt>
      <trkpt lat="48.22638" lon="-2.63363">
        <ele>105.59999847412</ele>
        <time>2021-10-15T12:49:31.000Z</time>
      </trkpt>
      <trkpt lat="48.22643" lon="-2.63364">
        <ele>105.40000152588</ele>
        <time>2021-10-15T12:49:32.000Z</time>
      </trkpt>
      <trkpt lat="48.22648" lon="-2.63365">
        <ele>105.40000152588</ele>
        <time>2021-10-15T12:49:33.000Z</time>
      </trkpt>
      <trkpt lat="48.22653" lon="-2.63366">
        <ele>105.40000152588</ele>
        <time>2021-10-15T12:49:34.000Z</time>
      </trkpt>
      <trkpt lat="48.22658" lon="-2.63366">
        <ele>105.19999694824</ele>
        <time>2021-10-15T12:49:35.000Z</time>
      </trkpt>
      <trkpt lat="48.22663" lon="-2.63367">
        <ele>105.40000152588</ele>
        <time>2021-10-15T12:49:36.000Z</time>
      </trkpt>
      <trkpt lat="48.22668" lon="-2.63368">
        <ele>105.40000152588</ele>
        <time>2021-10-15T12:49:37.000Z</time>
      </trkpt>
      <trkpt lat="48.22673" lon="-2.63368">
        <ele>105.40000152588</ele>
        <time>2021-10-15T12:49:38.000Z</time>
      </trkpt>
      <trkpt lat="48.22678" lon="-2.63369">
        <ele>105.59999847412</ele>
        <time>2021-10-15T12:49:39.000Z</time>
      </trkpt>
      <trkpt lat="48.22682" lon="-2.63369">
        <ele>105.59999847412</ele>
        <time>2021-10-15T12:49:40.000Z</time>
      </trkpt>
      <trkpt lat="48.22687" lon="-2.6337">
        <ele>105.59999847412</ele>
        <time>2021-10-15T12:49:41.000Z</time>
      </trkpt>
      <trkpt lat="48.22692" lon="-2.6337">
        <ele>105.80000305176</ele>
        <time>2021-10-15T12:49:42.000Z</time>
      </trkpt>
      <trkpt lat="48.22697" lon="-2.63371">
        <ele>105.80000305176</ele>
        <time>2021-10-15T12:49:43.000Z</time>
      </trkpt>
      <trkpt lat="48.22702" lon="-2.63372">
        <ele>106</ele>
        <time>2021-10-15T12:49:44.000Z</time>
      </trkpt>
      <trkpt lat="48.22707" lon="-2.63372">
        <ele>106</ele>
        <time>2021-10-15T12:49:45.000Z</time>
      </trkpt>
      <trkpt lat="48.22712" lon="-2.63374">
        <ele>106</ele>
        <time>2021-10-15T12:49:46.000Z</time>
      </trkpt>
      <trkpt lat="48.22716" lon="-2.63376">
        <ele>106.19999694824</ele>
        <time>2021-10-15T12:49:47.000Z</time>
      </trkpt>
      <trkpt lat="48.22719" lon="-2.63378">
        <ele>106.19999694824</ele>
        <time>2021-10-15T12:49:48.000Z</time>
      </trkpt>
      <trkpt lat="48.22723" lon="-2.63381">
        <ele>106.40000152588</ele>
        <time>2021-10-15T12:49:49.000Z</time>
      </trkpt>
      <trkpt lat="48.22726" lon="-2.63384">
        <ele>106.59999847412</ele>
        <time>2021-10-15T12:49:50.000Z</time>
      </trkpt>
      <trkpt lat="48.22729" lon="-2.63386">
        <ele>106.40000152588</ele>
        <time>2021-10-15T12:49:51.000Z</time>
      </trkpt>
      <trkpt lat="48.22733" lon="-2.63389">
        <ele>106.40000152588</ele>
        <time>2021-10-15T12:49:52.000Z</time>
      </trkpt>
      <trkpt lat="48.22739" lon="-2.63394">
        <ele>106.40000152588</ele>
        <time>2021-10-15T12:49:53.000Z</time>
      </trkpt>
      <trkpt lat="48.22739" lon="-2.63394">
        <ele>106.40000152588</ele>
        <time>2021-10-15T12:49:54.000Z</time>
      </trkpt>
      <trkpt lat="48.22743" lon="-2.63396">
        <ele>106.40000152588</ele>
        <time>2021-10-15T12:49:55.000Z</time>
      </trkpt>
      <trkpt lat="48.22746" lon="-2.63399">
        <ele>106.59999847412</ele>
        <time>2021-10-15T12:49:56.000Z</time>
      </trkpt>
      <trkpt lat="48.2275" lon="-2.63401">
        <ele>106.59999847412</ele>
        <time>2021-10-15T12:49:57.000Z</time>
      </trkpt>
      <trkpt lat="48.22754" lon="-2.63404">
        <ele>106.80000305176</ele>
        <time>2021-10-15T12:49:58.000Z</time>
      </trkpt>
      <trkpt lat="48.22757" lon="-2.63407">
        <ele>107</ele>
        <time>2021-10-15T12:49:59.000Z</time>
      </trkpt>
      <trkpt lat="48.22761" lon="-2.6341">
        <ele>107</ele>
        <time>2021-10-15T12:50:00.000Z</time>
      </trkpt>
      <trkpt lat="48.22765" lon="-2.63414">
        <ele>107</ele>
        <time>2021-10-15T12:50:01.000Z</time>
      </trkpt>
      <trkpt lat="48.22768" lon="-2.63417">
        <ele>107</ele>
        <time>2021-10-15T12:50:02.000Z</time>
      </trkpt>
      <trkpt lat="48.22772" lon="-2.63421">
        <ele>107.19999694824</ele>
        <time>2021-10-15T12:50:03.000Z</time>
      </trkpt>
      <trkpt lat="48.22775" lon="-2.63426">
        <ele>107.80000305176</ele>
        <time>2021-10-15T12:50:04.000Z</time>
      </trkpt>
      <trkpt lat="48.22778" lon="-2.6343">
        <ele>108.40000152588</ele>
        <time>2021-10-15T12:50:05.000Z</time>
      </trkpt>
      <trkpt lat="48.22782" lon="-2.63434">
        <ele>109</ele>
        <time>2021-10-15T12:50:06.000Z</time>
      </trkpt>
      <trkpt lat="48.22785" lon="-2.63439">
        <ele>109.40000152588</ele>
        <time>2021-10-15T12:50:07.000Z</time>
      </trkpt>
      <trkpt lat="48.22788" lon="-2.63444">
        <ele>109.59999847412</ele>
        <time>2021-10-15T12:50:08.000Z</time>
      </trkpt>
      <trkpt lat="48.22791" lon="-2.6345">
        <ele>110</ele>
        <time>2021-10-15T12:50:09.000Z</time>
      </trkpt>
      <trkpt lat="48.22794" lon="-2.63455">
        <ele>110</ele>
        <time>2021-10-15T12:50:10.000Z</time>
      </trkpt>
      <trkpt lat="48.22797" lon="-2.63461">
        <ele>110</ele>
        <time>2021-10-15T12:50:11.000Z</time>
      </trkpt>
      <trkpt lat="48.22801" lon="-2.63467">
        <ele>110</ele>
        <time>2021-10-15T12:50:12.000Z</time>
      </trkpt>
      <trkpt lat="48.22804" lon="-2.63474">
        <ele>110</ele>
        <time>2021-10-15T12:50:13.000Z</time>
      </trkpt>
      <trkpt lat="48.22807" lon="-2.6348">
        <ele>110</ele>
        <time>2021-10-15T12:50:14.000Z</time>
      </trkpt>
      <trkpt lat="48.2281" lon="-2.63486">
        <ele>110</ele>
        <time>2021-10-15T12:50:15.000Z</time>
      </trkpt>
      <trkpt lat="48.22813" lon="-2.63492">
        <ele>110</ele>
        <time>2021-10-15T12:50:16.000Z</time>
      </trkpt>
      <trkpt lat="48.22816" lon="-2.63498">
        <ele>109.59999847412</ele>
        <time>2021-10-15T12:50:17.000Z</time>
      </trkpt>
      <trkpt lat="48.22819" lon="-2.63504">
        <ele>109.19999694824</ele>
        <time>2021-10-15T12:50:18.000Z</time>
      </trkpt>
      <trkpt lat="48.22822" lon="-2.6351">
        <ele>108.59999847412</ele>
        <time>2021-10-15T12:50:19.000Z</time>
      </trkpt>
      <trkpt lat="48.22825" lon="-2.63515">
        <ele>108.19999694824</ele>
        <time>2021-10-15T12:50:20.000Z</time>
      </trkpt>
      <trkpt lat="48.22828" lon="-2.63521">
        <ele>107.80000305176</ele>
        <time>2021-10-15T12:50:21.000Z</time>
      </trkpt>
      <trkpt lat="48.2283" lon="-2.63528">
        <ele>107.40000152588</ele>
        <time>2021-10-15T12:50:22.000Z</time>
      </trkpt>
      <trkpt lat="48.22833" lon="-2.63534">
        <ele>107</ele>
        <time>2021-10-15T12:50:23.000Z</time>
      </trkpt>
      <trkpt lat="48.22834" lon="-2.63541">
        <ele>106.40000152588</ele>
        <time>2021-10-15T12:50:24.000Z</time>
      </trkpt>
      <trkpt lat="48.22835" lon="-2.63548">
        <ele>105.80000305176</ele>
        <time>2021-10-15T12:50:25.000Z</time>
      </trkpt>
      <trkpt lat="48.22836" lon="-2.63555">
        <ele>105.40000152588</ele>
        <time>2021-10-15T12:50:26.000Z</time>
      </trkpt>
      <trkpt lat="48.22836" lon="-2.63563">
        <ele>105</ele>
        <time>2021-10-15T12:50:27.000Z</time>
      </trkpt>
      <trkpt lat="48.22836" lon="-2.63571">
        <ele>104.40000152588</ele>
        <time>2021-10-15T12:50:28.000Z</time>
      </trkpt>
      <trkpt lat="48.22836" lon="-2.6358">
        <ele>104</ele>
        <time>2021-10-15T12:50:29.000Z</time>
      </trkpt>
      <trkpt lat="48.22835" lon="-2.63588">
        <ele>103.59999847412</ele>
        <time>2021-10-15T12:50:30.000Z</time>
      </trkpt>
      <trkpt lat="48.22834" lon="-2.63595">
        <ele>103.40000152588</ele>
        <time>2021-10-15T12:50:31.000Z</time>
      </trkpt>
      <trkpt lat="48.22833" lon="-2.63603">
        <ele>103.19999694824</ele>
        <time>2021-10-15T12:50:32.000Z</time>
      </trkpt>
      <trkpt lat="48.22832" lon="-2.63611">
        <ele>103</ele>
        <time>2021-10-15T12:50:33.000Z</time>
      </trkpt>
      <trkpt lat="48.22832" lon="-2.63619">
        <ele>103.19999694824</ele>
        <time>2021-10-15T12:50:34.000Z</time>
      </trkpt>
      <trkpt lat="48.22831" lon="-2.63628">
        <ele>103.40000152588</ele>
        <time>2021-10-15T12:50:35.000Z</time>
      </trkpt>
      <trkpt lat="48.22832" lon="-2.63635">
        <ele>103.80000305176</ele>
        <time>2021-10-15T12:50:36.000Z</time>
      </trkpt>
      <trkpt lat="48.22832" lon="-2.63642">
        <ele>103.80000305176</ele>
        <time>2021-10-15T12:50:37.000Z</time>
      </trkpt>
      <trkpt lat="48.22834" lon="-2.6365">
        <ele>104</ele>
        <time>2021-10-15T12:50:38.000Z</time>
      </trkpt>
      <trkpt lat="48.22835" lon="-2.63657">
        <ele>104.19999694824</ele>
        <time>2021-10-15T12:50:39.000Z</time>
      </trkpt>
      <trkpt lat="48.22837" lon="-2.63664">
        <ele>104.40000152588</ele>
        <time>2021-10-15T12:50:40.000Z</time>
      </trkpt>
      <trkpt lat="48.22839" lon="-2.63671">
        <ele>104.59999847412</ele>
        <time>2021-10-15T12:50:41.000Z</time>
      </trkpt>
      <trkpt lat="48.2284" lon="-2.63677">
        <ele>105</ele>
        <time>2021-10-15T12:50:42.000Z</time>
      </trkpt>
      <trkpt lat="48.22841" lon="-2.63683">
        <ele>105.40000152588</ele>
        <time>2021-10-15T12:50:43.000Z</time>
      </trkpt>
      <trkpt lat="48.22842" lon="-2.6369">
        <ele>105.40000152588</ele>
        <time>2021-10-15T12:50:44.000Z</time>
      </trkpt>
      <trkpt lat="48.22843" lon="-2.63696">
        <ele>105.59999847412</ele>
        <time>2021-10-15T12:50:45.000Z</time>
      </trkpt>
      <trkpt lat="48.22844" lon="-2.63702">
        <ele>105.59999847412</ele>
        <time>2021-10-15T12:50:46.000Z</time>
      </trkpt>
      <trkpt lat="48.22845" lon="-2.63708">
        <ele>105.59999847412</ele>
        <time>2021-10-15T12:50:47.000Z</time>
      </trkpt>
      <trkpt lat="48.22846" lon="-2.63714">
        <ele>105.80000305176</ele>
        <time>2021-10-15T12:50:48.000Z</time>
      </trkpt>
      <trkpt lat="48.22847" lon="-2.63719">
        <ele>106</ele>
        <time>2021-10-15T12:50:49.000Z</time>
      </trkpt>
      <trkpt lat="48.22848" lon="-2.63725">
        <ele>106.19999694824</ele>
        <time>2021-10-15T12:50:50.000Z</time>
      </trkpt>
      <trkpt lat="48.22849" lon="-2.6373">
        <ele>106.40000152588</ele>
        <time>2021-10-15T12:50:51.000Z</time>
      </trkpt>
      <trkpt lat="48.22851" lon="-2.63741">
        <ele>106.40000152588</ele>
        <time>2021-10-15T12:50:52.000Z</time>
      </trkpt>
      <trkpt lat="48.22851" lon="-2.63741">
        <ele>106.40000152588</ele>
        <time>2021-10-15T12:50:53.000Z</time>
      </trkpt>
      <trkpt lat="48.22852" lon="-2.63746">
        <ele>106.19999694824</ele>
        <time>2021-10-15T12:50:54.000Z</time>
      </trkpt>
      <trkpt lat="48.22852" lon="-2.63751">
        <ele>106.19999694824</ele>
        <time>2021-10-15T12:50:55.000Z</time>
      </trkpt>
      <trkpt lat="48.22853" lon="-2.63756">
        <ele>106.19999694824</ele>
        <time>2021-10-15T12:50:56.000Z</time>
      </trkpt>
      <trkpt lat="48.22854" lon="-2.6376">
        <ele>106.40000152588</ele>
        <time>2021-10-15T12:50:57.000Z</time>
      </trkpt>
      <trkpt lat="48.22855" lon="-2.63765">
        <ele>106.80000305176</ele>
        <time>2021-10-15T12:50:58.000Z</time>
      </trkpt>
      <trkpt lat="48.22856" lon="-2.6377">
        <ele>107</ele>
        <time>2021-10-15T12:50:59.000Z</time>
      </trkpt>
      <trkpt lat="48.22858" lon="-2.63775">
        <ele>107.40000152588</ele>
        <time>2021-10-15T12:51:00.000Z</time>
      </trkpt>
      <trkpt lat="48.22859" lon="-2.6378">
        <ele>107.59999847412</ele>
        <time>2021-10-15T12:51:01.000Z</time>
      </trkpt>
      <trkpt lat="48.2286" lon="-2.63785">
        <ele>107.80000305176</ele>
        <time>2021-10-15T12:51:02.000Z</time>
      </trkpt>
      <trkpt lat="48.22861" lon="-2.6379">
        <ele>108.40000152588</ele>
        <time>2021-10-15T12:51:03.000Z</time>
      </trkpt>
      <trkpt lat="48.22862" lon="-2.63795">
        <ele>108.80000305176</ele>
        <time>2021-10-15T12:51:04.000Z</time>
      </trkpt>
      <trkpt lat="48.22863" lon="-2.638">
        <ele>109.40000152588</ele>
        <time>2021-10-15T12:51:05.000Z</time>
      </trkpt>
      <trkpt lat="48.22864" lon="-2.63805">
        <ele>109.59999847412</ele>
        <time>2021-10-15T12:51:06.000Z</time>
      </trkpt>
      <trkpt lat="48.22866" lon="-2.63811">
        <ele>109.80000305176</ele>
        <time>2021-10-15T12:51:07.000Z</time>
      </trkpt>
      <trkpt lat="48.22866" lon="-2.63816">
        <ele>110.59999847412</ele>
        <time>2021-10-15T12:51:08.000Z</time>
      </trkpt>
      <trkpt lat="48.22867" lon="-2.6382">
        <ele>111.19999694824</ele>
        <time>2021-10-15T12:51:09.000Z</time>
      </trkpt>
      <trkpt lat="48.22869" lon="-2.63826">
        <ele>111.59999847412</ele>
        <time>2021-10-15T12:51:10.000Z</time>
      </trkpt>
      <trkpt lat="48.2287" lon="-2.63831">
        <ele>112</ele>
        <time>2021-10-15T12:51:11.000Z</time>
      </trkpt>
      <trkpt lat="48.22871" lon="-2.63836">
        <ele>112.40000152588</ele>
        <time>2021-10-15T12:51:12.000Z</time>
      </trkpt>
      <trkpt lat="48.22872" lon="-2.63841">
        <ele>113</ele>
        <time>2021-10-15T12:51:13.000Z</time>
      </trkpt>
      <trkpt lat="48.22874" lon="-2.63845">
        <ele>113.80000305176</ele>
        <time>2021-10-15T12:51:14.000Z</time>
      </trkpt>
      <trkpt lat="48.22875" lon="-2.6385">
        <ele>114</ele>
        <time>2021-10-15T12:51:15.000Z</time>
      </trkpt>
      <trkpt lat="48.22876" lon="-2.63855">
        <ele>114.40000152588</ele>
        <time>2021-10-15T12:51:16.000Z</time>
      </trkpt>
      <trkpt lat="48.22877" lon="-2.63859">
        <ele>114.40000152588</ele>
        <time>2021-10-15T12:51:17.000Z</time>
      </trkpt>
      <trkpt lat="48.22878" lon="-2.63864">
        <ele>114.59999847412</ele>
        <time>2021-10-15T12:51:18.000Z</time>
      </trkpt>
      <trkpt lat="48.22879" lon="-2.63869">
        <ele>115.19999694824</ele>
        <time>2021-10-15T12:51:19.000Z</time>
      </trkpt>
      <trkpt lat="48.2288" lon="-2.63874">
        <ele>115.40000152588</ele>
        <time>2021-10-15T12:51:20.000Z</time>
      </trkpt>
      <trkpt lat="48.22881" lon="-2.63879">
        <ele>115.59999847412</ele>
        <time>2021-10-15T12:51:21.000Z</time>
      </trkpt>
      <trkpt lat="48.22882" lon="-2.63884">
        <ele>116</ele>
        <time>2021-10-15T12:51:22.000Z</time>
      </trkpt>
      <trkpt lat="48.22883" lon="-2.63889">
        <ele>116.19999694824</ele>
        <time>2021-10-15T12:51:23.000Z</time>
      </trkpt>
      <trkpt lat="48.22884" lon="-2.63894">
        <ele>116.59999847412</ele>
        <time>2021-10-15T12:51:24.000Z</time>
      </trkpt>
      <trkpt lat="48.22886" lon="-2.63899">
        <ele>117.19999694824</ele>
        <time>2021-10-15T12:51:25.000Z</time>
      </trkpt>
      <trkpt lat="48.22887" lon="-2.63905">
        <ele>117.80000305176</ele>
        <time>2021-10-15T12:51:26.000Z</time>
      </trkpt>
      <trkpt lat="48.22889" lon="-2.6391">
        <ele>118.40000152588</ele>
        <time>2021-10-15T12:51:27.000Z</time>
      </trkpt>
      <trkpt lat="48.2289" lon="-2.63915">
        <ele>118.59999847412</ele>
        <time>2021-10-15T12:51:28.000Z</time>
      </trkpt>
      <trkpt lat="48.22892" lon="-2.6392">
        <ele>118.59999847412</ele>
        <time>2021-10-15T12:51:29.000Z</time>
      </trkpt>
      <trkpt lat="48.22892" lon="-2.63925">
        <ele>118.80000305176</ele>
        <time>2021-10-15T12:51:30.000Z</time>
      </trkpt>
      <trkpt lat="48.22893" lon="-2.6393">
        <ele>119.19999694824</ele>
        <time>2021-10-15T12:51:31.000Z</time>
      </trkpt>
      <trkpt lat="48.22895" lon="-2.63936">
        <ele>119.19999694824</ele>
        <time>2021-10-15T12:51:32.000Z</time>
      </trkpt>
      <trkpt lat="48.22896" lon="-2.63942">
        <ele>119.59999847412</ele>
        <time>2021-10-15T12:51:33.000Z</time>
      </trkpt>
      <trkpt lat="48.22897" lon="-2.63948">
        <ele>120</ele>
        <time>2021-10-15T12:51:34.000Z</time>
      </trkpt>
      <trkpt lat="48.22898" lon="-2.63954">
        <ele>120.19999694824</ele>
        <time>2021-10-15T12:51:35.000Z</time>
      </trkpt>
      <trkpt lat="48.22899" lon="-2.63961">
        <ele>120.40000152588</ele>
        <time>2021-10-15T12:51:36.000Z</time>
      </trkpt>
      <trkpt lat="48.229" lon="-2.63968">
        <ele>120.40000152588</ele>
        <time>2021-10-15T12:51:37.000Z</time>
      </trkpt>
      <trkpt lat="48.22901" lon="-2.63976">
        <ele>120.40000152588</ele>
        <time>2021-10-15T12:51:38.000Z</time>
      </trkpt>
      <trkpt lat="48.22902" lon="-2.63984">
        <ele>120.59999847412</ele>
        <time>2021-10-15T12:51:39.000Z</time>
      </trkpt>
      <trkpt lat="48.22902" lon="-2.63991">
        <ele>121.59999847412</ele>
        <time>2021-10-15T12:51:40.000Z</time>
      </trkpt>
      <trkpt lat="48.22903" lon="-2.63998">
        <ele>122</ele>
        <time>2021-10-15T12:51:41.000Z</time>
      </trkpt>
      <trkpt lat="48.22904" lon="-2.64005">
        <ele>122.59999847412</ele>
        <time>2021-10-15T12:51:42.000Z</time>
      </trkpt>
      <trkpt lat="48.22906" lon="-2.64011">
        <ele>123</ele>
        <time>2021-10-15T12:51:43.000Z</time>
      </trkpt>
      <trkpt lat="48.22906" lon="-2.64017">
        <ele>123.80000305176</ele>
        <time>2021-10-15T12:51:44.000Z</time>
      </trkpt>
      <trkpt lat="48.22907" lon="-2.64022">
        <ele>124.40000152588</ele>
        <time>2021-10-15T12:51:45.000Z</time>
      </trkpt>
      <trkpt lat="48.22907" lon="-2.64028">
        <ele>124.80000305176</ele>
        <time>2021-10-15T12:51:46.000Z</time>
      </trkpt>
      <trkpt lat="48.22908" lon="-2.64033">
        <ele>125.40000152588</ele>
        <time>2021-10-15T12:51:47.000Z</time>
      </trkpt>
      <trkpt lat="48.22909" lon="-2.64037">
        <ele>125.80000305176</ele>
        <time>2021-10-15T12:51:48.000Z</time>
      </trkpt>
      <trkpt lat="48.2291" lon="-2.64042">
        <ele>126.19999694824</ele>
        <time>2021-10-15T12:51:49.000Z</time>
      </trkpt>
      <trkpt lat="48.22912" lon="-2.64046">
        <ele>126.80000305176</ele>
        <time>2021-10-15T12:51:50.000Z</time>
      </trkpt>
      <trkpt lat="48.22913" lon="-2.64049">
        <ele>127.19999694824</ele>
        <time>2021-10-15T12:51:51.000Z</time>
      </trkpt>
      <trkpt lat="48.22914" lon="-2.64053">
        <ele>127.40000152588</ele>
        <time>2021-10-15T12:51:52.000Z</time>
      </trkpt>
      <trkpt lat="48.22916" lon="-2.64056">
        <ele>127.40000152588</ele>
        <time>2021-10-15T12:51:53.000Z</time>
      </trkpt>
      <trkpt lat="48.22918" lon="-2.64059">
        <ele>127.40000152588</ele>
        <time>2021-10-15T12:51:54.000Z</time>
      </trkpt>
      <trkpt lat="48.2292" lon="-2.64062">
        <ele>127.40000152588</ele>
        <time>2021-10-15T12:51:55.000Z</time>
      </trkpt>
      <trkpt lat="48.22922" lon="-2.64064">
        <ele>127.40000152588</ele>
        <time>2021-10-15T12:51:56.000Z</time>
      </trkpt>
      <trkpt lat="48.22924" lon="-2.64066">
        <ele>127.40000152588</ele>
        <time>2021-10-15T12:51:57.000Z</time>
      </trkpt>
      <trkpt lat="48.22926" lon="-2.64069">
        <ele>127.40000152588</ele>
        <time>2021-10-15T12:51:58.000Z</time>
      </trkpt>
      <trkpt lat="48.22928" lon="-2.64071">
        <ele>127.19999694824</ele>
        <time>2021-10-15T12:51:59.000Z</time>
      </trkpt>
      <trkpt lat="48.2293" lon="-2.64073">
        <ele>127.19999694824</ele>
        <time>2021-10-15T12:52:00.000Z</time>
      </trkpt>
      <trkpt lat="48.22932" lon="-2.64076">
        <ele>127.19999694824</ele>
        <time>2021-10-15T12:52:01.000Z</time>
      </trkpt>
      <trkpt lat="48.22935" lon="-2.64078">
        <ele>127.19999694824</ele>
        <time>2021-10-15T12:52:02.000Z</time>
      </trkpt>
      <trkpt lat="48.22937" lon="-2.64081">
        <ele>127.19999694824</ele>
        <time>2021-10-15T12:52:03.000Z</time>
      </trkpt>
      <trkpt lat="48.22939" lon="-2.64083">
        <ele>127.19999694824</ele>
        <time>2021-10-15T12:52:04.000Z</time>
      </trkpt>
      <trkpt lat="48.22941" lon="-2.64085">
        <ele>127</ele>
        <time>2021-10-15T12:52:05.000Z</time>
      </trkpt>
      <trkpt lat="48.22943" lon="-2.64087">
        <ele>126.80000305176</ele>
        <time>2021-10-15T12:52:06.000Z</time>
      </trkpt>
      <trkpt lat="48.22946" lon="-2.64088">
        <ele>126.59999847412</ele>
        <time>2021-10-15T12:52:07.000Z</time>
      </trkpt>
      <trkpt lat="48.22948" lon="-2.64089">
        <ele>126.40000152588</ele>
        <time>2021-10-15T12:52:08.000Z</time>
      </trkpt>
      <trkpt lat="48.22949" lon="-2.64091">
        <ele>126.40000152588</ele>
        <time>2021-10-15T12:52:09.000Z</time>
      </trkpt>
      <trkpt lat="48.22951" lon="-2.64092">
        <ele>126.19999694824</ele>
        <time>2021-10-15T12:52:10.000Z</time>
      </trkpt>
      <trkpt lat="48.22954" lon="-2.64093">
        <ele>126</ele>
        <time>2021-10-15T12:52:11.000Z</time>
      </trkpt>
      <trkpt lat="48.22956" lon="-2.64094">
        <ele>125.80000305176</ele>
        <time>2021-10-15T12:52:12.000Z</time>
      </trkpt>
      <trkpt lat="48.22958" lon="-2.64095">
        <ele>125.59999847412</ele>
        <time>2021-10-15T12:52:13.000Z</time>
      </trkpt>
      <trkpt lat="48.2296" lon="-2.64096">
        <ele>125.19999694824</ele>
        <time>2021-10-15T12:52:14.000Z</time>
      </trkpt>
      <trkpt lat="48.22963" lon="-2.64098">
        <ele>124.80000305176</ele>
        <time>2021-10-15T12:52:15.000Z</time>
      </trkpt>
      <trkpt lat="48.22966" lon="-2.64099">
        <ele>124.59999847412</ele>
        <time>2021-10-15T12:52:16.000Z</time>
      </trkpt>
      <trkpt lat="48.22968" lon="-2.641">
        <ele>124.19999694824</ele>
        <time>2021-10-15T12:52:17.000Z</time>
      </trkpt>
      <trkpt lat="48.22972" lon="-2.64102">
        <ele>123.80000305176</ele>
        <time>2021-10-15T12:52:18.000Z</time>
      </trkpt>
      <trkpt lat="48.22975" lon="-2.64104">
        <ele>123.40000152588</ele>
        <time>2021-10-15T12:52:19.000Z</time>
      </trkpt>
      <trkpt lat="48.22979" lon="-2.64105">
        <ele>122.80000305176</ele>
        <time>2021-10-15T12:52:20.000Z</time>
      </trkpt>
      <trkpt lat="48.22984" lon="-2.64108">
        <ele>122.19999694824</ele>
        <time>2021-10-15T12:52:21.000Z</time>
      </trkpt>
      <trkpt lat="48.22988" lon="-2.6411">
        <ele>121.40000152588</ele>
        <time>2021-10-15T12:52:22.000Z</time>
      </trkpt>
      <trkpt lat="48.22993" lon="-2.64113">
        <ele>120.59999847412</ele>
        <time>2021-10-15T12:52:23.000Z</time>
      </trkpt>
      <trkpt lat="48.22999" lon="-2.64115">
        <ele>120.40000152588</ele>
        <time>2021-10-15T12:52:24.000Z</time>
      </trkpt>
      <trkpt lat="48.23004" lon="-2.64118">
        <ele>120.19999694824</ele>
        <time>2021-10-15T12:52:25.000Z</time>
      </trkpt>
      <trkpt lat="48.2301" lon="-2.64121">
        <ele>120.19999694824</ele>
        <time>2021-10-15T12:52:26.000Z</time>
      </trkpt>
      <trkpt lat="48.23016" lon="-2.64124">
        <ele>119.80000305176</ele>
        <time>2021-10-15T12:52:27.000Z</time>
      </trkpt>
      <trkpt lat="48.23023" lon="-2.64127">
        <ele>119.59999847412</ele>
        <time>2021-10-15T12:52:28.000Z</time>
      </trkpt>
      <trkpt lat="48.2303" lon="-2.6413">
        <ele>119.40000152588</ele>
        <time>2021-10-15T12:52:29.000Z</time>
      </trkpt>
      <trkpt lat="48.23037" lon="-2.64133">
        <ele>119.19999694824</ele>
        <time>2021-10-15T12:52:30.000Z</time>
      </trkpt>
      <trkpt lat="48.23044" lon="-2.64135">
        <ele>118.59999847412</ele>
        <time>2021-10-15T12:52:31.000Z</time>
      </trkpt>
      <trkpt lat="48.23052" lon="-2.64139">
        <ele>118.19999694824</ele>
        <time>2021-10-15T12:52:32.000Z</time>
      </trkpt>
      <trkpt lat="48.2306" lon="-2.64142">
        <ele>117.59999847412</ele>
        <time>2021-10-15T12:52:33.000Z</time>
      </trkpt>
      <trkpt lat="48.23069" lon="-2.64145">
        <ele>117</ele>
        <time>2021-10-15T12:52:34.000Z</time>
      </trkpt>
      <trkpt lat="48.23078" lon="-2.64148">
        <ele>116.40000152588</ele>
        <time>2021-10-15T12:52:35.000Z</time>
      </trkpt>
      <trkpt lat="48.23086" lon="-2.64151">
        <ele>116</ele>
        <time>2021-10-15T12:52:36.000Z</time>
      </trkpt>
      <trkpt lat="48.23095" lon="-2.64154">
        <ele>115.80000305176</ele>
        <time>2021-10-15T12:52:37.000Z</time>
      </trkpt>
      <trkpt lat="48.23104" lon="-2.64157">
        <ele>115.40000152588</ele>
        <time>2021-10-15T12:52:38.000Z</time>
      </trkpt>
      <trkpt lat="48.23113" lon="-2.64159">
        <ele>115.19999694824</ele>
        <time>2021-10-15T12:52:39.000Z</time>
      </trkpt>
      <trkpt lat="48.23121" lon="-2.64162">
        <ele>114.80000305176</ele>
        <time>2021-10-15T12:52:40.000Z</time>
      </trkpt>
      <trkpt lat="48.2313" lon="-2.64164">
        <ele>114.40000152588</ele>
        <time>2021-10-15T12:52:41.000Z</time>
      </trkpt>
      <trkpt lat="48.23138" lon="-2.64166">
        <ele>114.19999694824</ele>
        <time>2021-10-15T12:52:42.000Z</time>
      </trkpt>
      <trkpt lat="48.23147" lon="-2.64167">
        <ele>113.59999847412</ele>
        <time>2021-10-15T12:52:43.000Z</time>
      </trkpt>
      <trkpt lat="48.23156" lon="-2.64168">
        <ele>113</ele>
        <time>2021-10-15T12:52:44.000Z</time>
      </trkpt>
      <trkpt lat="48.23165" lon="-2.64167">
        <ele>112.40000152588</ele>
        <time>2021-10-15T12:52:45.000Z</time>
      </trkpt>
      <trkpt lat="48.23173" lon="-2.64166">
        <ele>111.59999847412</ele>
        <time>2021-10-15T12:52:46.000Z</time>
      </trkpt>
      <trkpt lat="48.23181" lon="-2.64163">
        <ele>110.80000305176</ele>
        <time>2021-10-15T12:52:47.000Z</time>
      </trkpt>
      <trkpt lat="48.23189" lon="-2.6416">
        <ele>110.19999694824</ele>
        <time>2021-10-15T12:52:48.000Z</time>
      </trkpt>
      <trkpt lat="48.23197" lon="-2.64157">
        <ele>109.59999847412</ele>
        <time>2021-10-15T12:52:49.000Z</time>
      </trkpt>
      <trkpt lat="48.23205" lon="-2.64154">
        <ele>109.19999694824</ele>
        <time>2021-10-15T12:52:50.000Z</time>
      </trkpt>
      <trkpt lat="48.23213" lon="-2.6415">
        <ele>108.59999847412</ele>
        <time>2021-10-15T12:52:51.000Z</time>
      </trkpt>
      <trkpt lat="48.23228" lon="-2.64142">
        <ele>108</ele>
        <time>2021-10-15T12:52:52.000Z</time>
      </trkpt>
      <trkpt lat="48.23228" lon="-2.64142">
        <ele>108</ele>
        <time>2021-10-15T12:52:53.000Z</time>
      </trkpt>
      <trkpt lat="48.23236" lon="-2.64138">
        <ele>107.80000305176</ele>
        <time>2021-10-15T12:52:54.000Z</time>
      </trkpt>
      <trkpt lat="48.23243" lon="-2.64133">
        <ele>107.59999847412</ele>
        <time>2021-10-15T12:52:55.000Z</time>
      </trkpt>
      <trkpt lat="48.23251" lon="-2.6413">
        <ele>107.59999847412</ele>
        <time>2021-10-15T12:52:56.000Z</time>
      </trkpt>
      <trkpt lat="48.23258" lon="-2.64128">
        <ele>107.40000152588</ele>
        <time>2021-10-15T12:52:57.000Z</time>
      </trkpt>
      <trkpt lat="48.23266" lon="-2.64128">
        <ele>107.40000152588</ele>
        <time>2021-10-15T12:52:58.000Z</time>
      </trkpt>
      <trkpt lat="48.23273" lon="-2.6413">
        <ele>107.59999847412</ele>
        <time>2021-10-15T12:52:59.000Z</time>
      </trkpt>
      <trkpt lat="48.23279" lon="-2.64135">
        <ele>107.80000305176</ele>
        <time>2021-10-15T12:53:00.000Z</time>
      </trkpt>
      <trkpt lat="48.23285" lon="-2.64141">
        <ele>108</ele>
        <time>2021-10-15T12:53:01.000Z</time>
      </trkpt>
      <trkpt lat="48.2329" lon="-2.64147">
        <ele>108.40000152588</ele>
        <time>2021-10-15T12:53:02.000Z</time>
      </trkpt>
      <trkpt lat="48.23295" lon="-2.64154">
        <ele>108.80000305176</ele>
        <time>2021-10-15T12:53:03.000Z</time>
      </trkpt>
      <trkpt lat="48.233" lon="-2.64161">
        <ele>109</ele>
        <time>2021-10-15T12:53:04.000Z</time>
      </trkpt>
      <trkpt lat="48.23305" lon="-2.64167">
        <ele>109</ele>
        <time>2021-10-15T12:53:05.000Z</time>
      </trkpt>
      <trkpt lat="48.23309" lon="-2.64174">
        <ele>109</ele>
        <time>2021-10-15T12:53:06.000Z</time>
      </trkpt>
      <trkpt lat="48.23314" lon="-2.6418">
        <ele>109</ele>
        <time>2021-10-15T12:53:07.000Z</time>
      </trkpt>
      <trkpt lat="48.23318" lon="-2.64186">
        <ele>109</ele>
        <time>2021-10-15T12:53:08.000Z</time>
      </trkpt>
      <trkpt lat="48.23322" lon="-2.64192">
        <ele>109</ele>
        <time>2021-10-15T12:53:09.000Z</time>
      </trkpt>
      <trkpt lat="48.23325" lon="-2.64197">
        <ele>109</ele>
        <time>2021-10-15T12:53:10.000Z</time>
      </trkpt>
      <trkpt lat="48.23329" lon="-2.64203">
        <ele>108.80000305176</ele>
        <time>2021-10-15T12:53:11.000Z</time>
      </trkpt>
      <trkpt lat="48.23332" lon="-2.64208">
        <ele>108.80000305176</ele>
        <time>2021-10-15T12:53:12.000Z</time>
      </trkpt>
      <trkpt lat="48.23334" lon="-2.64213">
        <ele>108.59999847412</ele>
        <time>2021-10-15T12:53:13.000Z</time>
      </trkpt>
      <trkpt lat="48.23338" lon="-2.64218">
        <ele>108.59999847412</ele>
        <time>2021-10-15T12:53:14.000Z</time>
      </trkpt>
      <trkpt lat="48.23341" lon="-2.64223">
        <ele>108.59999847412</ele>
        <time>2021-10-15T12:53:15.000Z</time>
      </trkpt>
      <trkpt lat="48.23344" lon="-2.64228">
        <ele>108.80000305176</ele>
        <time>2021-10-15T12:53:16.000Z</time>
      </trkpt>
      <trkpt lat="48.23346" lon="-2.64234">
        <ele>109</ele>
        <time>2021-10-15T12:53:17.000Z</time>
      </trkpt>
      <trkpt lat="48.23348" lon="-2.64239">
        <ele>109</ele>
        <time>2021-10-15T12:53:18.000Z</time>
      </trkpt>
      <trkpt lat="48.2335" lon="-2.64245">
        <ele>109</ele>
        <time>2021-10-15T12:53:19.000Z</time>
      </trkpt>
      <trkpt lat="48.23351" lon="-2.64251">
        <ele>109.19999694824</ele>
        <time>2021-10-15T12:53:20.000Z</time>
      </trkpt>
      <trkpt lat="48.23352" lon="-2.64258">
        <ele>109.40000152588</ele>
        <time>2021-10-15T12:53:21.000Z</time>
      </trkpt>
      <trkpt lat="48.23353" lon="-2.64265">
        <ele>109.80000305176</ele>
        <time>2021-10-15T12:53:22.000Z</time>
      </trkpt>
      <trkpt lat="48.23354" lon="-2.64272">
        <ele>110.19999694824</ele>
        <time>2021-10-15T12:53:23.000Z</time>
      </trkpt>
      <trkpt lat="48.23355" lon="-2.64279">
        <ele>110.80000305176</ele>
        <time>2021-10-15T12:53:24.000Z</time>
      </trkpt>
      <trkpt lat="48.23356" lon="-2.64286">
        <ele>111.19999694824</ele>
        <time>2021-10-15T12:53:25.000Z</time>
      </trkpt>
      <trkpt lat="48.23356" lon="-2.64292">
        <ele>111.59999847412</ele>
        <time>2021-10-15T12:53:26.000Z</time>
      </trkpt>
      <trkpt lat="48.23356" lon="-2.64298">
        <ele>112</ele>
        <time>2021-10-15T12:53:27.000Z</time>
      </trkpt>
      <trkpt lat="48.23357" lon="-2.64304">
        <ele>112.40000152588</ele>
        <time>2021-10-15T12:53:28.000Z</time>
      </trkpt>
      <trkpt lat="48.23357" lon="-2.64309">
        <ele>112.80000305176</ele>
        <time>2021-10-15T12:53:29.000Z</time>
      </trkpt>
      <trkpt lat="48.23358" lon="-2.64315">
        <ele>113</ele>
        <time>2021-10-15T12:53:30.000Z</time>
      </trkpt>
      <trkpt lat="48.23357" lon="-2.6432">
        <ele>113.19999694824</ele>
        <time>2021-10-15T12:53:31.000Z</time>
      </trkpt>
      <trkpt lat="48.23357" lon="-2.64326">
        <ele>113.40000152588</ele>
        <time>2021-10-15T12:53:32.000Z</time>
      </trkpt>
      <trkpt lat="48.23357" lon="-2.64331">
        <ele>113.59999847412</ele>
        <time>2021-10-15T12:53:33.000Z</time>
      </trkpt>
      <trkpt lat="48.23357" lon="-2.64336">
        <ele>113.80000305176</ele>
        <time>2021-10-15T12:53:34.000Z</time>
      </trkpt>
      <trkpt lat="48.23356" lon="-2.64341">
        <ele>114.40000152588</ele>
        <time>2021-10-15T12:53:35.000Z</time>
      </trkpt>
      <trkpt lat="48.23356" lon="-2.64347">
        <ele>115</ele>
        <time>2021-10-15T12:53:36.000Z</time>
      </trkpt>
      <trkpt lat="48.23355" lon="-2.64351">
        <ele>115.40000152588</ele>
        <time>2021-10-15T12:53:37.000Z</time>
      </trkpt>
      <trkpt lat="48.23355" lon="-2.64356">
        <ele>116</ele>
        <time>2021-10-15T12:53:38.000Z</time>
      </trkpt>
      <trkpt lat="48.23355" lon="-2.6436">
        <ele>116.40000152588</ele>
        <time>2021-10-15T12:53:39.000Z</time>
      </trkpt>
      <trkpt lat="48.23354" lon="-2.64364">
        <ele>116.80000305176</ele>
        <time>2021-10-15T12:53:40.000Z</time>
      </trkpt>
      <trkpt lat="48.23353" lon="-2.64368">
        <ele>117.40000152588</ele>
        <time>2021-10-15T12:53:41.000Z</time>
      </trkpt>
      <trkpt lat="48.23353" lon="-2.64372">
        <ele>117.80000305176</ele>
        <time>2021-10-15T12:53:42.000Z</time>
      </trkpt>
      <trkpt lat="48.23352" lon="-2.64376">
        <ele>118.19999694824</ele>
        <time>2021-10-15T12:53:43.000Z</time>
      </trkpt>
      <trkpt lat="48.23351" lon="-2.64379">
        <ele>118.59999847412</ele>
        <time>2021-10-15T12:53:44.000Z</time>
      </trkpt>
      <trkpt lat="48.23351" lon="-2.64383">
        <ele>119.19999694824</ele>
        <time>2021-10-15T12:53:45.000Z</time>
      </trkpt>
      <trkpt lat="48.23351" lon="-2.64387">
        <ele>119.59999847412</ele>
        <time>2021-10-15T12:53:46.000Z</time>
      </trkpt>
      <trkpt lat="48.2335" lon="-2.64391">
        <ele>120</ele>
        <time>2021-10-15T12:53:47.000Z</time>
      </trkpt>
      <trkpt lat="48.2335" lon="-2.64394">
        <ele>120.40000152588</ele>
        <time>2021-10-15T12:53:48.000Z</time>
      </trkpt>
      <trkpt lat="48.23349" lon="-2.64398">
        <ele>120.59999847412</ele>
        <time>2021-10-15T12:53:49.000Z</time>
      </trkpt>
      <trkpt lat="48.23349" lon="-2.64401">
        <ele>121</ele>
        <time>2021-10-15T12:53:50.000Z</time>
      </trkpt>
      <trkpt lat="48.23349" lon="-2.64405">
        <ele>121.40000152588</ele>
        <time>2021-10-15T12:53:51.000Z</time>
      </trkpt>
      <trkpt lat="48.23348" lon="-2.64408">
        <ele>121.80000305176</ele>
        <time>2021-10-15T12:53:52.000Z</time>
      </trkpt>
      <trkpt lat="48.23348" lon="-2.64411">
        <ele>122.19999694824</ele>
        <time>2021-10-15T12:53:53.000Z</time>
      </trkpt>
      <trkpt lat="48.23347" lon="-2.64415">
        <ele>122.59999847412</ele>
        <time>2021-10-15T12:53:54.000Z</time>
      </trkpt>
      <trkpt lat="48.23347" lon="-2.64418">
        <ele>123</ele>
        <time>2021-10-15T12:53:55.000Z</time>
      </trkpt>
      <trkpt lat="48.23346" lon="-2.64421">
        <ele>123.40000152588</ele>
        <time>2021-10-15T12:53:56.000Z</time>
      </trkpt>
      <trkpt lat="48.23346" lon="-2.64425">
        <ele>123.59999847412</ele>
        <time>2021-10-15T12:53:57.000Z</time>
      </trkpt>
      <trkpt lat="48.23346" lon="-2.64429">
        <ele>123.80000305176</ele>
        <time>2021-10-15T12:53:58.000Z</time>
      </trkpt>
      <trkpt lat="48.23346" lon="-2.64433">
        <ele>124.40000152588</ele>
        <time>2021-10-15T12:53:59.000Z</time>
      </trkpt>
      <trkpt lat="48.23347" lon="-2.64436">
        <ele>125</ele>
        <time>2021-10-15T12:54:00.000Z</time>
      </trkpt>
      <trkpt lat="48.23347" lon="-2.6444">
        <ele>125.59999847412</ele>
        <time>2021-10-15T12:54:01.000Z</time>
      </trkpt>
      <trkpt lat="48.23347" lon="-2.64444">
        <ele>126</ele>
        <time>2021-10-15T12:54:02.000Z</time>
      </trkpt>
      <trkpt lat="48.23347" lon="-2.64447">
        <ele>126.59999847412</ele>
        <time>2021-10-15T12:54:03.000Z</time>
      </trkpt>
      <trkpt lat="48.23347" lon="-2.64451">
        <ele>127</ele>
        <time>2021-10-15T12:54:04.000Z</time>
      </trkpt>
      <trkpt lat="48.23347" lon="-2.64454">
        <ele>127.19999694824</ele>
        <time>2021-10-15T12:54:05.000Z</time>
      </trkpt>
      <trkpt lat="48.23347" lon="-2.64458">
        <ele>127.59999847412</ele>
        <time>2021-10-15T12:54:06.000Z</time>
      </trkpt>
      <trkpt lat="48.23347" lon="-2.64461">
        <ele>128.19999694824</ele>
        <time>2021-10-15T12:54:07.000Z</time>
      </trkpt>
      <trkpt lat="48.23347" lon="-2.64465">
        <ele>128.60000610352</ele>
        <time>2021-10-15T12:54:08.000Z</time>
      </trkpt>
      <trkpt lat="48.23347" lon="-2.64469">
        <ele>129.19999694824</ele>
        <time>2021-10-15T12:54:09.000Z</time>
      </trkpt>
      <trkpt lat="48.23347" lon="-2.64472">
        <ele>129.80000305176</ele>
        <time>2021-10-15T12:54:10.000Z</time>
      </trkpt>
      <trkpt lat="48.23348" lon="-2.64476">
        <ele>130.39999389648</ele>
        <time>2021-10-15T12:54:11.000Z</time>
      </trkpt>
      <trkpt lat="48.23348" lon="-2.64479">
        <ele>130.60000610352</ele>
        <time>2021-10-15T12:54:12.000Z</time>
      </trkpt>
      <trkpt lat="48.23348" lon="-2.64483">
        <ele>131</ele>
        <time>2021-10-15T12:54:13.000Z</time>
      </trkpt>
      <trkpt lat="48.23348" lon="-2.64486">
        <ele>131.19999694824</ele>
        <time>2021-10-15T12:54:14.000Z</time>
      </trkpt>
      <trkpt lat="48.23348" lon="-2.64489">
        <ele>131.60000610352</ele>
        <time>2021-10-15T12:54:15.000Z</time>
      </trkpt>
      <trkpt lat="48.23348" lon="-2.64492">
        <ele>131.80000305176</ele>
        <time>2021-10-15T12:54:16.000Z</time>
      </trkpt>
      <trkpt lat="48.23348" lon="-2.64495">
        <ele>132.19999694824</ele>
        <time>2021-10-15T12:54:17.000Z</time>
      </trkpt>
      <trkpt lat="48.23348" lon="-2.64498">
        <ele>132.60000610352</ele>
        <time>2021-10-15T12:54:18.000Z</time>
      </trkpt>
      <trkpt lat="48.23349" lon="-2.64502">
        <ele>133</ele>
        <time>2021-10-15T12:54:19.000Z</time>
      </trkpt>
      <trkpt lat="48.23349" lon="-2.64505">
        <ele>133.39999389648</ele>
        <time>2021-10-15T12:54:20.000Z</time>
      </trkpt>
      <trkpt lat="48.2335" lon="-2.64508">
        <ele>133.80000305176</ele>
        <time>2021-10-15T12:54:21.000Z</time>
      </trkpt>
      <trkpt lat="48.2335" lon="-2.64511">
        <ele>134.19999694824</ele>
        <time>2021-10-15T12:54:22.000Z</time>
      </trkpt>
      <trkpt lat="48.23351" lon="-2.64514">
        <ele>134.60000610352</ele>
        <time>2021-10-15T12:54:23.000Z</time>
      </trkpt>
      <trkpt lat="48.23351" lon="-2.64517">
        <ele>135</ele>
        <time>2021-10-15T12:54:24.000Z</time>
      </trkpt>
      <trkpt lat="48.23352" lon="-2.6452">
        <ele>135.39999389648</ele>
        <time>2021-10-15T12:54:25.000Z</time>
      </trkpt>
      <trkpt lat="48.23352" lon="-2.64523">
        <ele>135.80000305176</ele>
        <time>2021-10-15T12:54:26.000Z</time>
      </trkpt>
      <trkpt lat="48.23353" lon="-2.64525">
        <ele>136.19999694824</ele>
        <time>2021-10-15T12:54:27.000Z</time>
      </trkpt>
      <trkpt lat="48.23353" lon="-2.64528">
        <ele>136.60000610352</ele>
        <time>2021-10-15T12:54:28.000Z</time>
      </trkpt>
      <trkpt lat="48.23354" lon="-2.6453">
        <ele>136.80000305176</ele>
        <time>2021-10-15T12:54:29.000Z</time>
      </trkpt>
      <trkpt lat="48.23355" lon="-2.64533">
        <ele>137.19999694824</ele>
        <time>2021-10-15T12:54:30.000Z</time>
      </trkpt>
      <trkpt lat="48.23356" lon="-2.64535">
        <ele>137.60000610352</ele>
        <time>2021-10-15T12:54:31.000Z</time>
      </trkpt>
      <trkpt lat="48.23356" lon="-2.64538">
        <ele>137.80000305176</ele>
        <time>2021-10-15T12:54:32.000Z</time>
      </trkpt>
      <trkpt lat="48.23357" lon="-2.64541">
        <ele>138.19999694824</ele>
        <time>2021-10-15T12:54:33.000Z</time>
      </trkpt>
      <trkpt lat="48.23357" lon="-2.64543">
        <ele>138.39999389648</ele>
        <time>2021-10-15T12:54:34.000Z</time>
      </trkpt>
      <trkpt lat="48.23358" lon="-2.64545">
        <ele>138.80000305176</ele>
        <time>2021-10-15T12:54:35.000Z</time>
      </trkpt>
      <trkpt lat="48.23359" lon="-2.64548">
        <ele>139.19999694824</ele>
        <time>2021-10-15T12:54:36.000Z</time>
      </trkpt>
      <trkpt lat="48.23359" lon="-2.64552">
        <ele>139.60000610352</ele>
        <time>2021-10-15T12:54:37.000Z</time>
      </trkpt>
      <trkpt lat="48.23359" lon="-2.64554">
        <ele>139.80000305176</ele>
        <time>2021-10-15T12:54:38.000Z</time>
      </trkpt>
      <trkpt lat="48.2336" lon="-2.64557">
        <ele>140.19999694824</ele>
        <time>2021-10-15T12:54:39.000Z</time>
      </trkpt>
      <trkpt lat="48.2336" lon="-2.6456">
        <ele>140.39999389648</ele>
        <time>2021-10-15T12:54:40.000Z</time>
      </trkpt>
      <trkpt lat="48.23361" lon="-2.64563">
        <ele>140.60000610352</ele>
        <time>2021-10-15T12:54:41.000Z</time>
      </trkpt>
      <trkpt lat="48.23362" lon="-2.64565">
        <ele>140.80000305176</ele>
        <time>2021-10-15T12:54:42.000Z</time>
      </trkpt>
      <trkpt lat="48.23363" lon="-2.64567">
        <ele>141</ele>
        <time>2021-10-15T12:54:43.000Z</time>
      </trkpt>
      <trkpt lat="48.23364" lon="-2.6457">
        <ele>141.19999694824</ele>
        <time>2021-10-15T12:54:44.000Z</time>
      </trkpt>
      <trkpt lat="48.23365" lon="-2.64573">
        <ele>141.39999389648</ele>
        <time>2021-10-15T12:54:45.000Z</time>
      </trkpt>
      <trkpt lat="48.23366" lon="-2.64575">
        <ele>141.39999389648</ele>
        <time>2021-10-15T12:54:46.000Z</time>
      </trkpt>
      <trkpt lat="48.23367" lon="-2.64578">
        <ele>141.60000610352</ele>
        <time>2021-10-15T12:54:47.000Z</time>
      </trkpt>
      <trkpt lat="48.23368" lon="-2.64581">
        <ele>141.80000305176</ele>
        <time>2021-10-15T12:54:48.000Z</time>
      </trkpt>
      <trkpt lat="48.23369" lon="-2.64583">
        <ele>142</ele>
        <time>2021-10-15T12:54:49.000Z</time>
      </trkpt>
      <trkpt lat="48.2337" lon="-2.64585">
        <ele>142</ele>
        <time>2021-10-15T12:54:50.000Z</time>
      </trkpt>
      <trkpt lat="48.23371" lon="-2.64588">
        <ele>142.19999694824</ele>
        <time>2021-10-15T12:54:51.000Z</time>
      </trkpt>
      <trkpt lat="48.23373" lon="-2.64593">
        <ele>142.60000610352</ele>
        <time>2021-10-15T12:54:52.000Z</time>
      </trkpt>
      <trkpt lat="48.23373" lon="-2.64593">
        <ele>142.60000610352</ele>
        <time>2021-10-15T12:54:53.000Z</time>
      </trkpt>
      <trkpt lat="48.23374" lon="-2.64596">
        <ele>142.80000305176</ele>
        <time>2021-10-15T12:54:54.000Z</time>
      </trkpt>
      <trkpt lat="48.23375" lon="-2.64598">
        <ele>142.80000305176</ele>
        <time>2021-10-15T12:54:55.000Z</time>
      </trkpt>
      <trkpt lat="48.23376" lon="-2.64601">
        <ele>143</ele>
        <time>2021-10-15T12:54:56.000Z</time>
      </trkpt>
      <trkpt lat="48.23377" lon="-2.64603">
        <ele>143.19999694824</ele>
        <time>2021-10-15T12:54:57.000Z</time>
      </trkpt>
      <trkpt lat="48.23378" lon="-2.64606">
        <ele>143.39999389648</ele>
        <time>2021-10-15T12:54:58.000Z</time>
      </trkpt>
      <trkpt lat="48.23379" lon="-2.64608">
        <ele>143.60000610352</ele>
        <time>2021-10-15T12:54:59.000Z</time>
      </trkpt>
      <trkpt lat="48.2338" lon="-2.6461">
        <ele>143.80000305176</ele>
        <time>2021-10-15T12:55:00.000Z</time>
      </trkpt>
      <trkpt lat="48.23381" lon="-2.64612">
        <ele>143.80000305176</ele>
        <time>2021-10-15T12:55:01.000Z</time>
      </trkpt>
      <trkpt lat="48.23381" lon="-2.64614">
        <ele>144</ele>
        <time>2021-10-15T12:55:02.000Z</time>
      </trkpt>
      <trkpt lat="48.23382" lon="-2.64616">
        <ele>144</ele>
        <time>2021-10-15T12:55:03.000Z</time>
      </trkpt>
      <trkpt lat="48.23383" lon="-2.64618">
        <ele>144.19999694824</ele>
        <time>2021-10-15T12:55:04.000Z</time>
      </trkpt>
      <trkpt lat="48.23385" lon="-2.64622">
        <ele>144.39999389648</ele>
        <time>2021-10-15T12:55:05.000Z</time>
      </trkpt>
      <trkpt lat="48.23385" lon="-2.64622">
        <ele>144.39999389648</ele>
        <time>2021-10-15T12:55:06.000Z</time>
      </trkpt>
      <trkpt lat="48.23385" lon="-2.64624">
        <ele>144.39999389648</ele>
        <time>2021-10-15T12:55:07.000Z</time>
      </trkpt>
      <trkpt lat="48.23386" lon="-2.64626">
        <ele>144.60000610352</ele>
        <time>2021-10-15T12:55:08.000Z</time>
      </trkpt>
      <trkpt lat="48.23387" lon="-2.64628">
        <ele>144.60000610352</ele>
        <time>2021-10-15T12:55:09.000Z</time>
      </trkpt>
      <trkpt lat="48.23387" lon="-2.6463">
        <ele>144.80000305176</ele>
        <time>2021-10-15T12:55:10.000Z</time>
      </trkpt>
      <trkpt lat="48.23388" lon="-2.64632">
        <ele>144.80000305176</ele>
        <time>2021-10-15T12:55:11.000Z</time>
      </trkpt>
      <trkpt lat="48.23389" lon="-2.64634">
        <ele>145</ele>
        <time>2021-10-15T12:55:12.000Z</time>
      </trkpt>
      <trkpt lat="48.2339" lon="-2.64636">
        <ele>145</ele>
        <time>2021-10-15T12:55:13.000Z</time>
      </trkpt>
      <trkpt lat="48.23391" lon="-2.64638">
        <ele>145</ele>
        <time>2021-10-15T12:55:14.000Z</time>
      </trkpt>
      <trkpt lat="48.23391" lon="-2.6464">
        <ele>145</ele>
        <time>2021-10-15T12:55:15.000Z</time>
      </trkpt>
      <trkpt lat="48.23392" lon="-2.64642">
        <ele>145</ele>
        <time>2021-10-15T12:55:16.000Z</time>
      </trkpt>
      <trkpt lat="48.23393" lon="-2.64644">
        <ele>145</ele>
        <time>2021-10-15T12:55:17.000Z</time>
      </trkpt>
      <trkpt lat="48.23394" lon="-2.64647">
        <ele>145</ele>
        <time>2021-10-15T12:55:18.000Z</time>
      </trkpt>
      <trkpt lat="48.23395" lon="-2.64649">
        <ele>145</ele>
        <time>2021-10-15T12:55:19.000Z</time>
      </trkpt>
      <trkpt lat="48.23396" lon="-2.64651">
        <ele>145</ele>
        <time>2021-10-15T12:55:20.000Z</time>
      </trkpt>
      <trkpt lat="48.23397" lon="-2.64654">
        <ele>145</ele>
        <time>2021-10-15T12:55:21.000Z</time>
      </trkpt>
      <trkpt lat="48.23398" lon="-2.64656">
        <ele>145</ele>
        <time>2021-10-15T12:55:22.000Z</time>
      </trkpt>
      <trkpt lat="48.23398" lon="-2.64659">
        <ele>145.19999694824</ele>
        <time>2021-10-15T12:55:23.000Z</time>
      </trkpt>
      <trkpt lat="48.23399" lon="-2.64661">
        <ele>145.19999694824</ele>
        <time>2021-10-15T12:55:24.000Z</time>
      </trkpt>
      <trkpt lat="48.234" lon="-2.64663">
        <ele>145.39999389648</ele>
        <time>2021-10-15T12:55:25.000Z</time>
      </trkpt>
      <trkpt lat="48.23401" lon="-2.64666">
        <ele>145.60000610352</ele>
        <time>2021-10-15T12:55:26.000Z</time>
      </trkpt>
      <trkpt lat="48.23402" lon="-2.64668">
        <ele>145.60000610352</ele>
        <time>2021-10-15T12:55:27.000Z</time>
      </trkpt>
      <trkpt lat="48.23403" lon="-2.64671">
        <ele>145.80000305176</ele>
        <time>2021-10-15T12:55:28.000Z</time>
      </trkpt>
      <trkpt lat="48.23404" lon="-2.64673">
        <ele>145.80000305176</ele>
        <time>2021-10-15T12:55:29.000Z</time>
      </trkpt>
      <trkpt lat="48.23405" lon="-2.64676">
        <ele>145.80000305176</ele>
        <time>2021-10-15T12:55:30.000Z</time>
      </trkpt>
      <trkpt lat="48.23406" lon="-2.64679">
        <ele>146.19999694824</ele>
        <time>2021-10-15T12:55:31.000Z</time>
      </trkpt>
      <trkpt lat="48.23407" lon="-2.64681">
        <ele>146.60000610352</ele>
        <time>2021-10-15T12:55:32.000Z</time>
      </trkpt>
      <trkpt lat="48.23408" lon="-2.64684">
        <ele>146.80000305176</ele>
        <time>2021-10-15T12:55:33.000Z</time>
      </trkpt>
      <trkpt lat="48.2341" lon="-2.64687">
        <ele>147.19999694824</ele>
        <time>2021-10-15T12:55:34.000Z</time>
      </trkpt>
      <trkpt lat="48.23411" lon="-2.6469">
        <ele>147.39999389648</ele>
        <time>2021-10-15T12:55:35.000Z</time>
      </trkpt>
      <trkpt lat="48.23413" lon="-2.64696">
        <ele>148.19999694824</ele>
        <time>2021-10-15T12:55:36.000Z</time>
      </trkpt>
      <trkpt lat="48.23413" lon="-2.64696">
        <ele>148.19999694824</ele>
        <time>2021-10-15T12:55:37.000Z</time>
      </trkpt>
      <trkpt lat="48.23414" lon="-2.64699">
        <ele>148.60000610352</ele>
        <time>2021-10-15T12:55:38.000Z</time>
      </trkpt>
      <trkpt lat="48.23416" lon="-2.64702">
        <ele>148.80000305176</ele>
        <time>2021-10-15T12:55:39.000Z</time>
      </trkpt>
      <trkpt lat="48.23417" lon="-2.64705">
        <ele>149</ele>
        <time>2021-10-15T12:55:40.000Z</time>
      </trkpt>
      <trkpt lat="48.23418" lon="-2.64709">
        <ele>149.19999694824</ele>
        <time>2021-10-15T12:55:41.000Z</time>
      </trkpt>
      <trkpt lat="48.23419" lon="-2.64712">
        <ele>149.60000610352</ele>
        <time>2021-10-15T12:55:42.000Z</time>
      </trkpt>
      <trkpt lat="48.2342" lon="-2.64715">
        <ele>149.80000305176</ele>
        <time>2021-10-15T12:55:43.000Z</time>
      </trkpt>
      <trkpt lat="48.23421" lon="-2.64717">
        <ele>150</ele>
        <time>2021-10-15T12:55:44.000Z</time>
      </trkpt>
      <trkpt lat="48.23422" lon="-2.6472">
        <ele>150.39999389648</ele>
        <time>2021-10-15T12:55:45.000Z</time>
      </trkpt>
      <trkpt lat="48.23423" lon="-2.64723">
        <ele>150.80000305176</ele>
        <time>2021-10-15T12:55:46.000Z</time>
      </trkpt>
      <trkpt lat="48.23424" lon="-2.64725">
        <ele>151</ele>
        <time>2021-10-15T12:55:47.000Z</time>
      </trkpt>
      <trkpt lat="48.23425" lon="-2.64728">
        <ele>151.39999389648</ele>
        <time>2021-10-15T12:55:48.000Z</time>
      </trkpt>
      <trkpt lat="48.23425" lon="-2.6473">
        <ele>151.60000610352</ele>
        <time>2021-10-15T12:55:49.000Z</time>
      </trkpt>
      <trkpt lat="48.23426" lon="-2.64733">
        <ele>151.80000305176</ele>
        <time>2021-10-15T12:55:50.000Z</time>
      </trkpt>
      <trkpt lat="48.23427" lon="-2.64736">
        <ele>152.19999694824</ele>
        <time>2021-10-15T12:55:51.000Z</time>
      </trkpt>
      <trkpt lat="48.23427" lon="-2.64738">
        <ele>152.60000610352</ele>
        <time>2021-10-15T12:55:52.000Z</time>
      </trkpt>
      <trkpt lat="48.23428" lon="-2.64741">
        <ele>153</ele>
        <time>2021-10-15T12:55:53.000Z</time>
      </trkpt>
      <trkpt lat="48.23428" lon="-2.64744">
        <ele>153.39999389648</ele>
        <time>2021-10-15T12:55:54.000Z</time>
      </trkpt>
      <trkpt lat="48.23428" lon="-2.64747">
        <ele>153.60000610352</ele>
        <time>2021-10-15T12:55:55.000Z</time>
      </trkpt>
      <trkpt lat="48.23429" lon="-2.6475">
        <ele>154</ele>
        <time>2021-10-15T12:55:56.000Z</time>
      </trkpt>
      <trkpt lat="48.23428" lon="-2.64753">
        <ele>154.19999694824</ele>
        <time>2021-10-15T12:55:57.000Z</time>
      </trkpt>
      <trkpt lat="48.23428" lon="-2.64755">
        <ele>154.39999389648</ele>
        <time>2021-10-15T12:55:58.000Z</time>
      </trkpt>
      <trkpt lat="48.23428" lon="-2.64757">
        <ele>154.60000610352</ele>
        <time>2021-10-15T12:55:59.000Z</time>
      </trkpt>
      <trkpt lat="48.23429" lon="-2.64759">
        <ele>154.80000305176</ele>
        <time>2021-10-15T12:56:00.000Z</time>
      </trkpt>
      <trkpt lat="48.23429" lon="-2.64761">
        <ele>155</ele>
        <time>2021-10-15T12:56:01.000Z</time>
      </trkpt>
      <trkpt lat="48.2343" lon="-2.64765">
        <ele>155.39999389648</ele>
        <time>2021-10-15T12:56:02.000Z</time>
      </trkpt>
      <trkpt lat="48.2343" lon="-2.64765">
        <ele>155.39999389648</ele>
        <time>2021-10-15T12:56:03.000Z</time>
      </trkpt>
      <trkpt lat="48.2343" lon="-2.64767">
        <ele>155.60000610352</ele>
        <time>2021-10-15T12:56:04.000Z</time>
      </trkpt>
      <trkpt lat="48.2343" lon="-2.64769">
        <ele>155.80000305176</ele>
        <time>2021-10-15T12:56:05.000Z</time>
      </trkpt>
      <trkpt lat="48.2343" lon="-2.6477">
        <ele>156</ele>
        <time>2021-10-15T12:56:06.000Z</time>
      </trkpt>
      <trkpt lat="48.2343" lon="-2.64773">
        <ele>156.19999694824</ele>
        <time>2021-10-15T12:56:07.000Z</time>
      </trkpt>
      <trkpt lat="48.23431" lon="-2.64775">
        <ele>156.39999389648</ele>
        <time>2021-10-15T12:56:08.000Z</time>
      </trkpt>
      <trkpt lat="48.23431" lon="-2.64778">
        <ele>156.60000610352</ele>
        <time>2021-10-15T12:56:09.000Z</time>
      </trkpt>
      <trkpt lat="48.23431" lon="-2.64781">
        <ele>156.80000305176</ele>
        <time>2021-10-15T12:56:10.000Z</time>
      </trkpt>
      <trkpt lat="48.23431" lon="-2.64783">
        <ele>157</ele>
        <time>2021-10-15T12:56:11.000Z</time>
      </trkpt>
      <trkpt lat="48.23431" lon="-2.64786">
        <ele>157.39999389648</ele>
        <time>2021-10-15T12:56:12.000Z</time>
      </trkpt>
      <trkpt lat="48.23431" lon="-2.64789">
        <ele>157.60000610352</ele>
        <time>2021-10-15T12:56:13.000Z</time>
      </trkpt>
      <trkpt lat="48.23431" lon="-2.64792">
        <ele>157.80000305176</ele>
        <time>2021-10-15T12:56:14.000Z</time>
      </trkpt>
      <trkpt lat="48.23431" lon="-2.64795">
        <ele>158</ele>
        <time>2021-10-15T12:56:15.000Z</time>
      </trkpt>
      <trkpt lat="48.23431" lon="-2.64798">
        <ele>158.19999694824</ele>
        <time>2021-10-15T12:56:16.000Z</time>
      </trkpt>
      <trkpt lat="48.2343" lon="-2.64801">
        <ele>158.39999389648</ele>
        <time>2021-10-15T12:56:17.000Z</time>
      </trkpt>
      <trkpt lat="48.23429" lon="-2.64804">
        <ele>158.39999389648</ele>
        <time>2021-10-15T12:56:18.000Z</time>
      </trkpt>
      <trkpt lat="48.23428" lon="-2.64808">
        <ele>158.60000610352</ele>
        <time>2021-10-15T12:56:19.000Z</time>
      </trkpt>
      <trkpt lat="48.23427" lon="-2.6481">
        <ele>158.60000610352</ele>
        <time>2021-10-15T12:56:20.000Z</time>
      </trkpt>
      <trkpt lat="48.23426" lon="-2.64813">
        <ele>158.80000305176</ele>
        <time>2021-10-15T12:56:21.000Z</time>
      </trkpt>
      <trkpt lat="48.23424" lon="-2.64817">
        <ele>159</ele>
        <time>2021-10-15T12:56:22.000Z</time>
      </trkpt>
      <trkpt lat="48.23424" lon="-2.64817">
        <ele>159</ele>
        <time>2021-10-15T12:56:23.000Z</time>
      </trkpt>
      <trkpt lat="48.23424" lon="-2.64819">
        <ele>159</ele>
        <time>2021-10-15T12:56:24.000Z</time>
      </trkpt>
      <trkpt lat="48.23423" lon="-2.64821">
        <ele>159.19999694824</ele>
        <time>2021-10-15T12:56:25.000Z</time>
      </trkpt>
      <trkpt lat="48.23422" lon="-2.64824">
        <ele>159.39999389648</ele>
        <time>2021-10-15T12:56:26.000Z</time>
      </trkpt>
      <trkpt lat="48.23421" lon="-2.64826">
        <ele>159.60000610352</ele>
        <time>2021-10-15T12:56:27.000Z</time>
      </trkpt>
      <trkpt lat="48.2342" lon="-2.6483">
        <ele>159.80000305176</ele>
        <time>2021-10-15T12:56:28.000Z</time>
      </trkpt>
      <trkpt lat="48.23419" lon="-2.64833">
        <ele>160</ele>
        <time>2021-10-15T12:56:29.000Z</time>
      </trkpt>
      <trkpt lat="48.23419" lon="-2.64836">
        <ele>160.19999694824</ele>
        <time>2021-10-15T12:56:30.000Z</time>
      </trkpt>
      <trkpt lat="48.23418" lon="-2.64839">
        <ele>160.39999389648</ele>
        <time>2021-10-15T12:56:31.000Z</time>
      </trkpt>
      <trkpt lat="48.23418" lon="-2.64842">
        <ele>160.60000610352</ele>
        <time>2021-10-15T12:56:32.000Z</time>
      </trkpt>
      <trkpt lat="48.23417" lon="-2.64845">
        <ele>160.80000305176</ele>
        <time>2021-10-15T12:56:33.000Z</time>
      </trkpt>
      <trkpt lat="48.23415" lon="-2.64848">
        <ele>161</ele>
        <time>2021-10-15T12:56:34.000Z</time>
      </trkpt>
      <trkpt lat="48.23414" lon="-2.64851">
        <ele>161.19999694824</ele>
        <time>2021-10-15T12:56:35.000Z</time>
      </trkpt>
      <trkpt lat="48.23413" lon="-2.64854">
        <ele>161.39999389648</ele>
        <time>2021-10-15T12:56:36.000Z</time>
      </trkpt>
      <trkpt lat="48.23412" lon="-2.64857">
        <ele>161.39999389648</ele>
        <time>2021-10-15T12:56:37.000Z</time>
      </trkpt>
      <trkpt lat="48.23411" lon="-2.6486">
        <ele>161.60000610352</ele>
        <time>2021-10-15T12:56:38.000Z</time>
      </trkpt>
      <trkpt lat="48.2341" lon="-2.64862">
        <ele>161.80000305176</ele>
        <time>2021-10-15T12:56:39.000Z</time>
      </trkpt>
      <trkpt lat="48.23408" lon="-2.64867">
        <ele>162</ele>
        <time>2021-10-15T12:56:40.000Z</time>
      </trkpt>
      <trkpt lat="48.23408" lon="-2.64871">
        <ele>162.39999389648</ele>
        <time>2021-10-15T12:56:41.000Z</time>
      </trkpt>
      <trkpt lat="48.23408" lon="-2.64878">
        <ele>163.19999694824</ele>
        <time>2021-10-15T12:56:42.000Z</time>
      </trkpt>
      <trkpt lat="48.23407" lon="-2.64883">
        <ele>163.80000305176</ele>
        <time>2021-10-15T12:56:43.000Z</time>
      </trkpt>
      <trkpt lat="48.23407" lon="-2.64888">
        <ele>164.19999694824</ele>
        <time>2021-10-15T12:56:44.000Z</time>
      </trkpt>
      <trkpt lat="48.23407" lon="-2.64894">
        <ele>164.80000305176</ele>
        <time>2021-10-15T12:56:45.000Z</time>
      </trkpt>
      <trkpt lat="48.23406" lon="-2.64898">
        <ele>165.19999694824</ele>
        <time>2021-10-15T12:56:46.000Z</time>
      </trkpt>
      <trkpt lat="48.23406" lon="-2.64902">
        <ele>165.60000610352</ele>
        <time>2021-10-15T12:56:47.000Z</time>
      </trkpt>
      <trkpt lat="48.23405" lon="-2.64906">
        <ele>166</ele>
        <time>2021-10-15T12:56:48.000Z</time>
      </trkpt>
      <trkpt lat="48.23405" lon="-2.6491">
        <ele>166.39999389648</ele>
        <time>2021-10-15T12:56:49.000Z</time>
      </trkpt>
      <trkpt lat="48.23405" lon="-2.64915">
        <ele>166.80000305176</ele>
        <time>2021-10-15T12:56:50.000Z</time>
      </trkpt>
      <trkpt lat="48.23404" lon="-2.64919">
        <ele>167.19999694824</ele>
        <time>2021-10-15T12:56:51.000Z</time>
      </trkpt>
      <trkpt lat="48.23404" lon="-2.6493">
        <ele>167.80000305176</ele>
        <time>2021-10-15T12:56:52.000Z</time>
      </trkpt>
      <trkpt lat="48.23404" lon="-2.6493">
        <ele>167.80000305176</ele>
        <time>2021-10-15T12:56:53.000Z</time>
      </trkpt>
      <trkpt lat="48.23404" lon="-2.64935">
        <ele>168</ele>
        <time>2021-10-15T12:56:54.000Z</time>
      </trkpt>
      <trkpt lat="48.23404" lon="-2.6494">
        <ele>168</ele>
        <time>2021-10-15T12:56:55.000Z</time>
      </trkpt>
      <trkpt lat="48.23403" lon="-2.64944">
        <ele>168.19999694824</ele>
        <time>2021-10-15T12:56:56.000Z</time>
      </trkpt>
      <trkpt lat="48.23402" lon="-2.64948">
        <ele>168.19999694824</ele>
        <time>2021-10-15T12:56:57.000Z</time>
      </trkpt>
      <trkpt lat="48.23401" lon="-2.64952">
        <ele>168.19999694824</ele>
        <time>2021-10-15T12:56:58.000Z</time>
      </trkpt>
      <trkpt lat="48.23401" lon="-2.64956">
        <ele>168.39999389648</ele>
        <time>2021-10-15T12:56:59.000Z</time>
      </trkpt>
      <trkpt lat="48.23401" lon="-2.6496">
        <ele>168.60000610352</ele>
        <time>2021-10-15T12:57:00.000Z</time>
      </trkpt>
      <trkpt lat="48.234" lon="-2.64965">
        <ele>168.80000305176</ele>
        <time>2021-10-15T12:57:01.000Z</time>
      </trkpt>
      <trkpt lat="48.234" lon="-2.64969">
        <ele>169.19999694824</ele>
        <time>2021-10-15T12:57:02.000Z</time>
      </trkpt>
      <trkpt lat="48.23399" lon="-2.64972">
        <ele>169.19999694824</ele>
        <time>2021-10-15T12:57:03.000Z</time>
      </trkpt>
      <trkpt lat="48.23399" lon="-2.64976">
        <ele>169.39999389648</ele>
        <time>2021-10-15T12:57:04.000Z</time>
      </trkpt>
      <trkpt lat="48.23398" lon="-2.6498">
        <ele>169.60000610352</ele>
        <time>2021-10-15T12:57:05.000Z</time>
      </trkpt>
      <trkpt lat="48.23398" lon="-2.64984">
        <ele>169.80000305176</ele>
        <time>2021-10-15T12:57:06.000Z</time>
      </trkpt>
      <trkpt lat="48.23397" lon="-2.64988">
        <ele>170</ele>
        <time>2021-10-15T12:57:07.000Z</time>
      </trkpt>
      <trkpt lat="48.23396" lon="-2.64992">
        <ele>170.19999694824</ele>
        <time>2021-10-15T12:57:08.000Z</time>
      </trkpt>
      <trkpt lat="48.23396" lon="-2.64996">
        <ele>170.60000610352</ele>
        <time>2021-10-15T12:57:09.000Z</time>
      </trkpt>
      <trkpt lat="48.23395" lon="-2.65002">
        <ele>170.80000305176</ele>
        <time>2021-10-15T12:57:10.000Z</time>
      </trkpt>
      <trkpt lat="48.23394" lon="-2.65006">
        <ele>170.80000305176</ele>
        <time>2021-10-15T12:57:11.000Z</time>
      </trkpt>
      <trkpt lat="48.23394" lon="-2.65011">
        <ele>171</ele>
        <time>2021-10-15T12:57:12.000Z</time>
      </trkpt>
      <trkpt lat="48.23393" lon="-2.65014">
        <ele>171</ele>
        <time>2021-10-15T12:57:13.000Z</time>
      </trkpt>
      <trkpt lat="48.23393" lon="-2.65019">
        <ele>171.19999694824</ele>
        <time>2021-10-15T12:57:14.000Z</time>
      </trkpt>
      <trkpt lat="48.23392" lon="-2.65024">
        <ele>171.39999389648</ele>
        <time>2021-10-15T12:57:15.000Z</time>
      </trkpt>
      <trkpt lat="48.23392" lon="-2.6503">
        <ele>171.80000305176</ele>
        <time>2021-10-15T12:57:16.000Z</time>
      </trkpt>
      <trkpt lat="48.23391" lon="-2.65036">
        <ele>172</ele>
        <time>2021-10-15T12:57:17.000Z</time>
      </trkpt>
      <trkpt lat="48.23391" lon="-2.6504">
        <ele>172</ele>
        <time>2021-10-15T12:57:18.000Z</time>
      </trkpt>
      <trkpt lat="48.2339" lon="-2.65045">
        <ele>172</ele>
        <time>2021-10-15T12:57:19.000Z</time>
      </trkpt>
      <trkpt lat="48.23388" lon="-2.65049">
        <ele>171.80000305176</ele>
        <time>2021-10-15T12:57:20.000Z</time>
      </trkpt>
      <trkpt lat="48.23387" lon="-2.65053">
        <ele>171.80000305176</ele>
        <time>2021-10-15T12:57:21.000Z</time>
      </trkpt>
      <trkpt lat="48.23386" lon="-2.65057">
        <ele>171.60000610352</ele>
        <time>2021-10-15T12:57:22.000Z</time>
      </trkpt>
      <trkpt lat="48.23385" lon="-2.65061">
        <ele>171.39999389648</ele>
        <time>2021-10-15T12:57:23.000Z</time>
      </trkpt>
      <trkpt lat="48.23383" lon="-2.65065">
        <ele>171.19999694824</ele>
        <time>2021-10-15T12:57:24.000Z</time>
      </trkpt>
      <trkpt lat="48.23381" lon="-2.65069">
        <ele>171</ele>
        <time>2021-10-15T12:57:25.000Z</time>
      </trkpt>
      <trkpt lat="48.2338" lon="-2.65074">
        <ele>170.80000305176</ele>
        <time>2021-10-15T12:57:26.000Z</time>
      </trkpt>
      <trkpt lat="48.23379" lon="-2.65081">
        <ele>170.80000305176</ele>
        <time>2021-10-15T12:57:27.000Z</time>
      </trkpt>
      <trkpt lat="48.23379" lon="-2.65088">
        <ele>170.80000305176</ele>
        <time>2021-10-15T12:57:28.000Z</time>
      </trkpt>
      <trkpt lat="48.23378" lon="-2.65095">
        <ele>170.60000610352</ele>
        <time>2021-10-15T12:57:29.000Z</time>
      </trkpt>
      <trkpt lat="48.23377" lon="-2.65103">
        <ele>170.60000610352</ele>
        <time>2021-10-15T12:57:30.000Z</time>
      </trkpt>
      <trkpt lat="48.23376" lon="-2.65109">
        <ele>170.39999389648</ele>
        <time>2021-10-15T12:57:31.000Z</time>
      </trkpt>
      <trkpt lat="48.23375" lon="-2.65116">
        <ele>170.19999694824</ele>
        <time>2021-10-15T12:57:32.000Z</time>
      </trkpt>
      <trkpt lat="48.23374" lon="-2.65124">
        <ele>170.60000610352</ele>
        <time>2021-10-15T12:57:33.000Z</time>
      </trkpt>
      <trkpt lat="48.23373" lon="-2.65131">
        <ele>170.60000610352</ele>
        <time>2021-10-15T12:57:34.000Z</time>
      </trkpt>
      <trkpt lat="48.23371" lon="-2.65138">
        <ele>170.80000305176</ele>
        <time>2021-10-15T12:57:35.000Z</time>
      </trkpt>
      <trkpt lat="48.2337" lon="-2.65146">
        <ele>170.80000305176</ele>
        <time>2021-10-15T12:57:36.000Z</time>
      </trkpt>
      <trkpt lat="48.23368" lon="-2.65153">
        <ele>171</ele>
        <time>2021-10-15T12:57:37.000Z</time>
      </trkpt>
      <trkpt lat="48.23367" lon="-2.65162">
        <ele>171</ele>
        <time>2021-10-15T12:57:38.000Z</time>
      </trkpt>
      <trkpt lat="48.23364" lon="-2.6517">
        <ele>170.80000305176</ele>
        <time>2021-10-15T12:57:39.000Z</time>
      </trkpt>
      <trkpt lat="48.23362" lon="-2.65179">
        <ele>170.80000305176</ele>
        <time>2021-10-15T12:57:40.000Z</time>
      </trkpt>
      <trkpt lat="48.2336" lon="-2.65188">
        <ele>171</ele>
        <time>2021-10-15T12:57:41.000Z</time>
      </trkpt>
      <trkpt lat="48.23358" lon="-2.65197">
        <ele>171.19999694824</ele>
        <time>2021-10-15T12:57:42.000Z</time>
      </trkpt>
      <trkpt lat="48.23356" lon="-2.65206">
        <ele>171</ele>
        <time>2021-10-15T12:57:43.000Z</time>
      </trkpt>
      <trkpt lat="48.23354" lon="-2.65213">
        <ele>170.60000610352</ele>
        <time>2021-10-15T12:57:44.000Z</time>
      </trkpt>
      <trkpt lat="48.23352" lon="-2.65223">
        <ele>169.80000305176</ele>
        <time>2021-10-15T12:57:45.000Z</time>
      </trkpt>
      <trkpt lat="48.2335" lon="-2.6523">
        <ele>169.39999389648</ele>
        <time>2021-10-15T12:57:46.000Z</time>
      </trkpt>
      <trkpt lat="48.23348" lon="-2.65237">
        <ele>169.19999694824</ele>
        <time>2021-10-15T12:57:47.000Z</time>
      </trkpt>
      <trkpt lat="48.23347" lon="-2.65246">
        <ele>169</ele>
        <time>2021-10-15T12:57:48.000Z</time>
      </trkpt>
      <trkpt lat="48.23346" lon="-2.65263">
        <ele>169.19999694824</ele>
        <time>2021-10-15T12:57:49.000Z</time>
      </trkpt>
      <trkpt lat="48.23346" lon="-2.65263">
        <ele>169.19999694824</ele>
        <time>2021-10-15T12:57:50.000Z</time>
      </trkpt>
      <trkpt lat="48.23346" lon="-2.65272">
        <ele>169.19999694824</ele>
        <time>2021-10-15T12:57:51.000Z</time>
      </trkpt>
      <trkpt lat="48.23346" lon="-2.65291">
        <ele>169.39999389648</ele>
        <time>2021-10-15T12:57:52.000Z</time>
      </trkpt>
      <trkpt lat="48.23346" lon="-2.65291">
        <ele>169.39999389648</ele>
        <time>2021-10-15T12:57:53.000Z</time>
      </trkpt>
      <trkpt lat="48.23346" lon="-2.653">
        <ele>169.39999389648</ele>
        <time>2021-10-15T12:57:54.000Z</time>
      </trkpt>
      <trkpt lat="48.23346" lon="-2.65306">
        <ele>169.39999389648</ele>
        <time>2021-10-15T12:57:55.000Z</time>
      </trkpt>
      <trkpt lat="48.23345" lon="-2.65312">
        <ele>169.39999389648</ele>
        <time>2021-10-15T12:57:56.000Z</time>
      </trkpt>
      <trkpt lat="48.23344" lon="-2.65319">
        <ele>169.60000610352</ele>
        <time>2021-10-15T12:57:57.000Z</time>
      </trkpt>
      <trkpt lat="48.23343" lon="-2.65325">
        <ele>169.80000305176</ele>
        <time>2021-10-15T12:57:58.000Z</time>
      </trkpt>
      <trkpt lat="48.23342" lon="-2.65331">
        <ele>170</ele>
        <time>2021-10-15T12:57:59.000Z</time>
      </trkpt>
      <trkpt lat="48.23341" lon="-2.65337">
        <ele>170</ele>
        <time>2021-10-15T12:58:00.000Z</time>
      </trkpt>
      <trkpt lat="48.23341" lon="-2.65343">
        <ele>170.19999694824</ele>
        <time>2021-10-15T12:58:01.000Z</time>
      </trkpt>
      <trkpt lat="48.2334" lon="-2.65354">
        <ele>170.60000610352</ele>
        <time>2021-10-15T12:58:02.000Z</time>
      </trkpt>
      <trkpt lat="48.2334" lon="-2.65354">
        <ele>170.60000610352</ele>
        <time>2021-10-15T12:58:03.000Z</time>
      </trkpt>
      <trkpt lat="48.23339" lon="-2.65362">
        <ele>170.80000305176</ele>
        <time>2021-10-15T12:58:04.000Z</time>
      </trkpt>
      <trkpt lat="48.23338" lon="-2.65368">
        <ele>171</ele>
        <time>2021-10-15T12:58:05.000Z</time>
      </trkpt>
      <trkpt lat="48.23337" lon="-2.65376">
        <ele>171.60000610352</ele>
        <time>2021-10-15T12:58:06.000Z</time>
      </trkpt>
      <trkpt lat="48.23336" lon="-2.65384">
        <ele>172</ele>
        <time>2021-10-15T12:58:07.000Z</time>
      </trkpt>
      <trkpt lat="48.23335" lon="-2.65393">
        <ele>172.39999389648</ele>
        <time>2021-10-15T12:58:08.000Z</time>
      </trkpt>
      <trkpt lat="48.23334" lon="-2.654">
        <ele>172.60000610352</ele>
        <time>2021-10-15T12:58:09.000Z</time>
      </trkpt>
      <trkpt lat="48.23333" lon="-2.65408">
        <ele>172.80000305176</ele>
        <time>2021-10-15T12:58:10.000Z</time>
      </trkpt>
      <trkpt lat="48.23332" lon="-2.65417">
        <ele>173.19999694824</ele>
        <time>2021-10-15T12:58:11.000Z</time>
      </trkpt>
      <trkpt lat="48.2333" lon="-2.65426">
        <ele>173.60000610352</ele>
        <time>2021-10-15T12:58:12.000Z</time>
      </trkpt>
      <trkpt lat="48.23329" lon="-2.65435">
        <ele>174.19999694824</ele>
        <time>2021-10-15T12:58:13.000Z</time>
      </trkpt>
      <trkpt lat="48.23327" lon="-2.65442">
        <ele>174.60000610352</ele>
        <time>2021-10-15T12:58:14.000Z</time>
      </trkpt>
      <trkpt lat="48.23326" lon="-2.6545">
        <ele>175.19999694824</ele>
        <time>2021-10-15T12:58:15.000Z</time>
      </trkpt>
      <trkpt lat="48.23325" lon="-2.65457">
        <ele>175.60000610352</ele>
        <time>2021-10-15T12:58:16.000Z</time>
      </trkpt>
      <trkpt lat="48.23323" lon="-2.65464">
        <ele>176</ele>
        <time>2021-10-15T12:58:17.000Z</time>
      </trkpt>
      <trkpt lat="48.23322" lon="-2.6547">
        <ele>176.19999694824</ele>
        <time>2021-10-15T12:58:18.000Z</time>
      </trkpt>
      <trkpt lat="48.23321" lon="-2.65476">
        <ele>176.60000610352</ele>
        <time>2021-10-15T12:58:19.000Z</time>
      </trkpt>
      <trkpt lat="48.2332" lon="-2.65482">
        <ele>177.19999694824</ele>
        <time>2021-10-15T12:58:20.000Z</time>
      </trkpt>
      <trkpt lat="48.23319" lon="-2.65486">
        <ele>177.39999389648</ele>
        <time>2021-10-15T12:58:21.000Z</time>
      </trkpt>
      <trkpt lat="48.23318" lon="-2.6549">
        <ele>177.80000305176</ele>
        <time>2021-10-15T12:58:22.000Z</time>
      </trkpt>
      <trkpt lat="48.23317" lon="-2.65495">
        <ele>178</ele>
        <time>2021-10-15T12:58:23.000Z</time>
      </trkpt>
      <trkpt lat="48.23316" lon="-2.655">
        <ele>178.39999389648</ele>
        <time>2021-10-15T12:58:24.000Z</time>
      </trkpt>
      <trkpt lat="48.23315" lon="-2.65506">
        <ele>178.80000305176</ele>
        <time>2021-10-15T12:58:25.000Z</time>
      </trkpt>
      <trkpt lat="48.23315" lon="-2.6551">
        <ele>179</ele>
        <time>2021-10-15T12:58:26.000Z</time>
      </trkpt>
      <trkpt lat="48.23314" lon="-2.65514">
        <ele>179.19999694824</ele>
        <time>2021-10-15T12:58:27.000Z</time>
      </trkpt>
      <trkpt lat="48.23313" lon="-2.65518">
        <ele>179.60000610352</ele>
        <time>2021-10-15T12:58:28.000Z</time>
      </trkpt>
      <trkpt lat="48.23312" lon="-2.65523">
        <ele>180</ele>
        <time>2021-10-15T12:58:29.000Z</time>
      </trkpt>
      <trkpt lat="48.2331" lon="-2.65528">
        <ele>180.39999389648</ele>
        <time>2021-10-15T12:58:30.000Z</time>
      </trkpt>
      <trkpt lat="48.23309" lon="-2.65532">
        <ele>180.80000305176</ele>
        <time>2021-10-15T12:58:31.000Z</time>
      </trkpt>
      <trkpt lat="48.23309" lon="-2.65536">
        <ele>181.19999694824</ele>
        <time>2021-10-15T12:58:32.000Z</time>
      </trkpt>
      <trkpt lat="48.23308" lon="-2.6554">
        <ele>181.60000610352</ele>
        <time>2021-10-15T12:58:33.000Z</time>
      </trkpt>
      <trkpt lat="48.23307" lon="-2.65544">
        <ele>182</ele>
        <time>2021-10-15T12:58:34.000Z</time>
      </trkpt>
      <trkpt lat="48.23306" lon="-2.65547">
        <ele>182.19999694824</ele>
        <time>2021-10-15T12:58:35.000Z</time>
      </trkpt>
      <trkpt lat="48.23305" lon="-2.65551">
        <ele>182.60000610352</ele>
        <time>2021-10-15T12:58:36.000Z</time>
      </trkpt>
      <trkpt lat="48.23304" lon="-2.65554">
        <ele>182.80000305176</ele>
        <time>2021-10-15T12:58:37.000Z</time>
      </trkpt>
      <trkpt lat="48.23303" lon="-2.65557">
        <ele>183</ele>
        <time>2021-10-15T12:58:38.000Z</time>
      </trkpt>
      <trkpt lat="48.23302" lon="-2.65561">
        <ele>183.39999389648</ele>
        <time>2021-10-15T12:58:39.000Z</time>
      </trkpt>
      <trkpt lat="48.233" lon="-2.65565">
        <ele>183.60000610352</ele>
        <time>2021-10-15T12:58:40.000Z</time>
      </trkpt>
      <trkpt lat="48.23299" lon="-2.65569">
        <ele>183.80000305176</ele>
        <time>2021-10-15T12:58:41.000Z</time>
      </trkpt>
      <trkpt lat="48.23299" lon="-2.65573">
        <ele>184</ele>
        <time>2021-10-15T12:58:42.000Z</time>
      </trkpt>
      <trkpt lat="48.23298" lon="-2.65578">
        <ele>184.19999694824</ele>
        <time>2021-10-15T12:58:43.000Z</time>
      </trkpt>
      <trkpt lat="48.23297" lon="-2.65582">
        <ele>184.60000610352</ele>
        <time>2021-10-15T12:58:44.000Z</time>
      </trkpt>
      <trkpt lat="48.23296" lon="-2.65586">
        <ele>185</ele>
        <time>2021-10-15T12:58:45.000Z</time>
      </trkpt>
      <trkpt lat="48.23296" lon="-2.6559">
        <ele>185.19999694824</ele>
        <time>2021-10-15T12:58:46.000Z</time>
      </trkpt>
      <trkpt lat="48.23295" lon="-2.65594">
        <ele>185.39999389648</ele>
        <time>2021-10-15T12:58:47.000Z</time>
      </trkpt>
      <trkpt lat="48.23293" lon="-2.65598">
        <ele>185.80000305176</ele>
        <time>2021-10-15T12:58:48.000Z</time>
      </trkpt>
      <trkpt lat="48.23293" lon="-2.65603">
        <ele>186</ele>
        <time>2021-10-15T12:58:49.000Z</time>
      </trkpt>
      <trkpt lat="48.23292" lon="-2.65606">
        <ele>186.39999389648</ele>
        <time>2021-10-15T12:58:50.000Z</time>
      </trkpt>
      <trkpt lat="48.23291" lon="-2.6561">
        <ele>186.60000610352</ele>
        <time>2021-10-15T12:58:51.000Z</time>
      </trkpt>
      <trkpt lat="48.2329" lon="-2.65615">
        <ele>187</ele>
        <time>2021-10-15T12:58:52.000Z</time>
      </trkpt>
      <trkpt lat="48.23289" lon="-2.65619">
        <ele>187.39999389648</ele>
        <time>2021-10-15T12:58:53.000Z</time>
      </trkpt>
      <trkpt lat="48.23288" lon="-2.65623">
        <ele>187.80000305176</ele>
        <time>2021-10-15T12:58:54.000Z</time>
      </trkpt>
      <trkpt lat="48.23287" lon="-2.65627">
        <ele>188.19999694824</ele>
        <time>2021-10-15T12:58:55.000Z</time>
      </trkpt>
      <trkpt lat="48.23286" lon="-2.65631">
        <ele>188.80000305176</ele>
        <time>2021-10-15T12:58:56.000Z</time>
      </trkpt>
      <trkpt lat="48.23286" lon="-2.65635">
        <ele>189.19999694824</ele>
        <time>2021-10-15T12:58:57.000Z</time>
      </trkpt>
      <trkpt lat="48.23286" lon="-2.6564">
        <ele>189.60000610352</ele>
        <time>2021-10-15T12:58:58.000Z</time>
      </trkpt>
      <trkpt lat="48.23285" lon="-2.65643">
        <ele>190</ele>
        <time>2021-10-15T12:58:59.000Z</time>
      </trkpt>
      <trkpt lat="48.23285" lon="-2.65647">
        <ele>190.39999389648</ele>
        <time>2021-10-15T12:59:00.000Z</time>
      </trkpt>
      <trkpt lat="48.23284" lon="-2.65651">
        <ele>190.80000305176</ele>
        <time>2021-10-15T12:59:01.000Z</time>
      </trkpt>
      <trkpt lat="48.23283" lon="-2.65655">
        <ele>191.19999694824</ele>
        <time>2021-10-15T12:59:02.000Z</time>
      </trkpt>
      <trkpt lat="48.23281" lon="-2.65659">
        <ele>191.60000610352</ele>
        <time>2021-10-15T12:59:03.000Z</time>
      </trkpt>
      <trkpt lat="48.2328" lon="-2.65662">
        <ele>192</ele>
        <time>2021-10-15T12:59:04.000Z</time>
      </trkpt>
      <trkpt lat="48.23279" lon="-2.65666">
        <ele>192.39999389648</ele>
        <time>2021-10-15T12:59:05.000Z</time>
      </trkpt>
      <trkpt lat="48.23278" lon="-2.65675">
        <ele>193</ele>
        <time>2021-10-15T12:59:06.000Z</time>
      </trkpt>
      <trkpt lat="48.23278" lon="-2.65675">
        <ele>193</ele>
        <time>2021-10-15T12:59:07.000Z</time>
      </trkpt>
      <trkpt lat="48.23278" lon="-2.6568">
        <ele>193.39999389648</ele>
        <time>2021-10-15T12:59:08.000Z</time>
      </trkpt>
      <trkpt lat="48.23278" lon="-2.65687">
        <ele>193.80000305176</ele>
        <time>2021-10-15T12:59:09.000Z</time>
      </trkpt>
      <trkpt lat="48.23278" lon="-2.65692">
        <ele>194.19999694824</ele>
        <time>2021-10-15T12:59:10.000Z</time>
      </trkpt>
      <trkpt lat="48.23277" lon="-2.65696">
        <ele>194.60000610352</ele>
        <time>2021-10-15T12:59:11.000Z</time>
      </trkpt>
      <trkpt lat="48.23277" lon="-2.657">
        <ele>194.80000305176</ele>
        <time>2021-10-15T12:59:12.000Z</time>
      </trkpt>
      <trkpt lat="48.23276" lon="-2.65703">
        <ele>195.19999694824</ele>
        <time>2021-10-15T12:59:13.000Z</time>
      </trkpt>
      <trkpt lat="48.23275" lon="-2.65706">
        <ele>195.39999389648</ele>
        <time>2021-10-15T12:59:14.000Z</time>
      </trkpt>
      <trkpt lat="48.23274" lon="-2.65709">
        <ele>195.60000610352</ele>
        <time>2021-10-15T12:59:15.000Z</time>
      </trkpt>
      <trkpt lat="48.23273" lon="-2.65712">
        <ele>195.80000305176</ele>
        <time>2021-10-15T12:59:16.000Z</time>
      </trkpt>
      <trkpt lat="48.23272" lon="-2.65715">
        <ele>196</ele>
        <time>2021-10-15T12:59:17.000Z</time>
      </trkpt>
      <trkpt lat="48.23271" lon="-2.65718">
        <ele>196.39999389648</ele>
        <time>2021-10-15T12:59:18.000Z</time>
      </trkpt>
      <trkpt lat="48.23271" lon="-2.6572">
        <ele>196.60000610352</ele>
        <time>2021-10-15T12:59:19.000Z</time>
      </trkpt>
      <trkpt lat="48.2327" lon="-2.65723">
        <ele>196.80000305176</ele>
        <time>2021-10-15T12:59:20.000Z</time>
      </trkpt>
      <trkpt lat="48.2327" lon="-2.65726">
        <ele>197</ele>
        <time>2021-10-15T12:59:21.000Z</time>
      </trkpt>
      <trkpt lat="48.23269" lon="-2.6573">
        <ele>197.19999694824</ele>
        <time>2021-10-15T12:59:22.000Z</time>
      </trkpt>
      <trkpt lat="48.23268" lon="-2.65733">
        <ele>197.39999389648</ele>
        <time>2021-10-15T12:59:23.000Z</time>
      </trkpt>
      <trkpt lat="48.23268" lon="-2.65736">
        <ele>197.60000610352</ele>
        <time>2021-10-15T12:59:24.000Z</time>
      </trkpt>
      <trkpt lat="48.23267" lon="-2.6574">
        <ele>198</ele>
        <time>2021-10-15T12:59:25.000Z</time>
      </trkpt>
      <trkpt lat="48.23266" lon="-2.65743">
        <ele>198.19999694824</ele>
        <time>2021-10-15T12:59:26.000Z</time>
      </trkpt>
      <trkpt lat="48.23265" lon="-2.65746">
        <ele>198.39999389648</ele>
        <time>2021-10-15T12:59:27.000Z</time>
      </trkpt>
      <trkpt lat="48.23266" lon="-2.6575">
        <ele>198.80000305176</ele>
        <time>2021-10-15T12:59:28.000Z</time>
      </trkpt>
      <trkpt lat="48.23266" lon="-2.65753">
        <ele>199</ele>
        <time>2021-10-15T12:59:29.000Z</time>
      </trkpt>
      <trkpt lat="48.23266" lon="-2.65757">
        <ele>199.19999694824</ele>
        <time>2021-10-15T12:59:30.000Z</time>
      </trkpt>
      <trkpt lat="48.23266" lon="-2.6576">
        <ele>199.60000610352</ele>
        <time>2021-10-15T12:59:31.000Z</time>
      </trkpt>
      <trkpt lat="48.23266" lon="-2.65764">
        <ele>199.80000305176</ele>
        <time>2021-10-15T12:59:32.000Z</time>
      </trkpt>
      <trkpt lat="48.23265" lon="-2.65767">
        <ele>200</ele>
        <time>2021-10-15T12:59:33.000Z</time>
      </trkpt>
      <trkpt lat="48.23264" lon="-2.6577">
        <ele>200.39999389648</ele>
        <time>2021-10-15T12:59:34.000Z</time>
      </trkpt>
      <trkpt lat="48.23264" lon="-2.65773">
        <ele>200.60000610352</ele>
        <time>2021-10-15T12:59:35.000Z</time>
      </trkpt>
      <trkpt lat="48.23263" lon="-2.65776">
        <ele>200.80000305176</ele>
        <time>2021-10-15T12:59:36.000Z</time>
      </trkpt>
      <trkpt lat="48.23263" lon="-2.65779">
        <ele>201</ele>
        <time>2021-10-15T12:59:37.000Z</time>
      </trkpt>
      <trkpt lat="48.23262" lon="-2.65782">
        <ele>201.19999694824</ele>
        <time>2021-10-15T12:59:38.000Z</time>
      </trkpt>
      <trkpt lat="48.23262" lon="-2.65784">
        <ele>201.39999389648</ele>
        <time>2021-10-15T12:59:39.000Z</time>
      </trkpt>
      <trkpt lat="48.23262" lon="-2.65786">
        <ele>201.60000610352</ele>
        <time>2021-10-15T12:59:40.000Z</time>
      </trkpt>
      <trkpt lat="48.23262" lon="-2.65789">
        <ele>201.80000305176</ele>
        <time>2021-10-15T12:59:41.000Z</time>
      </trkpt>
      <trkpt lat="48.23261" lon="-2.65791">
        <ele>202</ele>
        <time>2021-10-15T12:59:42.000Z</time>
      </trkpt>
      <trkpt lat="48.23261" lon="-2.65793">
        <ele>202.19999694824</ele>
        <time>2021-10-15T12:59:43.000Z</time>
      </trkpt>
      <trkpt lat="48.23261" lon="-2.65795">
        <ele>202.19999694824</ele>
        <time>2021-10-15T12:59:44.000Z</time>
      </trkpt>
      <trkpt lat="48.2326" lon="-2.65798">
        <ele>202.39999389648</ele>
        <time>2021-10-15T12:59:45.000Z</time>
      </trkpt>
      <trkpt lat="48.2326" lon="-2.658">
        <ele>202.60000610352</ele>
        <time>2021-10-15T12:59:46.000Z</time>
      </trkpt>
      <trkpt lat="48.2326" lon="-2.65802">
        <ele>202.80000305176</ele>
        <time>2021-10-15T12:59:47.000Z</time>
      </trkpt>
      <trkpt lat="48.23259" lon="-2.65805">
        <ele>203</ele>
        <time>2021-10-15T12:59:48.000Z</time>
      </trkpt>
      <trkpt lat="48.23259" lon="-2.65807">
        <ele>203.19999694824</ele>
        <time>2021-10-15T12:59:49.000Z</time>
      </trkpt>
      <trkpt lat="48.23259" lon="-2.65808">
        <ele>203.19999694824</ele>
        <time>2021-10-15T12:59:50.000Z</time>
      </trkpt>
      <trkpt lat="48.23259" lon="-2.65811">
        <ele>203.39999389648</ele>
        <time>2021-10-15T12:59:51.000Z</time>
      </trkpt>
      <trkpt lat="48.23259" lon="-2.65815">
        <ele>203.80000305176</ele>
        <time>2021-10-15T12:59:52.000Z</time>
      </trkpt>
      <trkpt lat="48.23258" lon="-2.65817">
        <ele>204</ele>
        <time>2021-10-15T12:59:53.000Z</time>
      </trkpt>
      <trkpt lat="48.23258" lon="-2.65819">
        <ele>204.19999694824</ele>
        <time>2021-10-15T12:59:54.000Z</time>
      </trkpt>
      <trkpt lat="48.23258" lon="-2.65821">
        <ele>204.19999694824</ele>
        <time>2021-10-15T12:59:55.000Z</time>
      </trkpt>
      <trkpt lat="48.23257" lon="-2.65824">
        <ele>204.39999389648</ele>
        <time>2021-10-15T12:59:56.000Z</time>
      </trkpt>
      <trkpt lat="48.23256" lon="-2.65826">
        <ele>204.80000305176</ele>
        <time>2021-10-15T12:59:57.000Z</time>
      </trkpt>
      <trkpt lat="48.23256" lon="-2.65828">
        <ele>205</ele>
        <time>2021-10-15T12:59:58.000Z</time>
      </trkpt>
      <trkpt lat="48.23255" lon="-2.65832">
        <ele>205.39999389648</ele>
        <time>2021-10-15T12:59:59.000Z</time>
      </trkpt>
      <trkpt lat="48.23254" lon="-2.65834">
        <ele>205.60000610352</ele>
        <time>2021-10-15T13:00:00.000Z</time>
      </trkpt>
      <trkpt lat="48.23254" lon="-2.65836">
        <ele>205.80000305176</ele>
        <time>2021-10-15T13:00:01.000Z</time>
      </trkpt>
      <trkpt lat="48.23253" lon="-2.65838">
        <ele>206</ele>
        <time>2021-10-15T13:00:02.000Z</time>
      </trkpt>
      <trkpt lat="48.23252" lon="-2.65841">
        <ele>206.19999694824</ele>
        <time>2021-10-15T13:00:03.000Z</time>
      </trkpt>
      <trkpt lat="48.23251" lon="-2.65843">
        <ele>206.39999389648</ele>
        <time>2021-10-15T13:00:04.000Z</time>
      </trkpt>
      <trkpt lat="48.23251" lon="-2.65844">
        <ele>206.39999389648</ele>
        <time>2021-10-15T13:00:05.000Z</time>
      </trkpt>
      <trkpt lat="48.2325" lon="-2.65846">
        <ele>206.60000610352</ele>
        <time>2021-10-15T13:00:06.000Z</time>
      </trkpt>
      <trkpt lat="48.23249" lon="-2.65849">
        <ele>206.80000305176</ele>
        <time>2021-10-15T13:00:07.000Z</time>
      </trkpt>
      <trkpt lat="48.23248" lon="-2.65851">
        <ele>207</ele>
        <time>2021-10-15T13:00:08.000Z</time>
      </trkpt>
      <trkpt lat="48.23248" lon="-2.65854">
        <ele>207.19999694824</ele>
        <time>2021-10-15T13:00:09.000Z</time>
      </trkpt>
      <trkpt lat="48.23248" lon="-2.65854">
        <ele>207.19999694824</ele>
        <time>2021-10-15T13:00:10.000Z</time>
      </trkpt>
      <trkpt lat="48.23248" lon="-2.65857">
        <ele>207.39999389648</ele>
        <time>2021-10-15T13:00:11.000Z</time>
      </trkpt>
      <trkpt lat="48.23247" lon="-2.65859">
        <ele>207.60000610352</ele>
        <time>2021-10-15T13:00:12.000Z</time>
      </trkpt>
      <trkpt lat="48.23247" lon="-2.65861">
        <ele>207.60000610352</ele>
        <time>2021-10-15T13:00:13.000Z</time>
      </trkpt>
      <trkpt lat="48.23247" lon="-2.65864">
        <ele>207.80000305176</ele>
        <time>2021-10-15T13:00:14.000Z</time>
      </trkpt>
      <trkpt lat="48.23246" lon="-2.65866">
        <ele>208</ele>
        <time>2021-10-15T13:00:15.000Z</time>
      </trkpt>
      <trkpt lat="48.23246" lon="-2.65868">
        <ele>208</ele>
        <time>2021-10-15T13:00:16.000Z</time>
      </trkpt>
      <trkpt lat="48.23245" lon="-2.65871">
        <ele>208.19999694824</ele>
        <time>2021-10-15T13:00:17.000Z</time>
      </trkpt>
      <trkpt lat="48.23244" lon="-2.65873">
        <ele>208.19999694824</ele>
        <time>2021-10-15T13:00:18.000Z</time>
      </trkpt>
      <trkpt lat="48.23244" lon="-2.65876">
        <ele>208.39999389648</ele>
        <time>2021-10-15T13:00:19.000Z</time>
      </trkpt>
      <trkpt lat="48.23245" lon="-2.65882">
        <ele>208.60000610352</ele>
        <time>2021-10-15T13:00:20.000Z</time>
      </trkpt>
      <trkpt lat="48.23245" lon="-2.65885">
        <ele>208.80000305176</ele>
        <time>2021-10-15T13:00:21.000Z</time>
      </trkpt>
      <trkpt lat="48.23246" lon="-2.6589">
        <ele>208.80000305176</ele>
        <time>2021-10-15T13:00:22.000Z</time>
      </trkpt>
      <trkpt lat="48.23247" lon="-2.65896">
        <ele>209.39999389648</ele>
        <time>2021-10-15T13:00:23.000Z</time>
      </trkpt>
      <trkpt lat="48.23247" lon="-2.65901">
        <ele>209.60000610352</ele>
        <time>2021-10-15T13:00:24.000Z</time>
      </trkpt>
      <trkpt lat="48.23247" lon="-2.65904">
        <ele>210</ele>
        <time>2021-10-15T13:00:25.000Z</time>
      </trkpt>
      <trkpt lat="48.23246" lon="-2.65907">
        <ele>210.19999694824</ele>
        <time>2021-10-15T13:00:26.000Z</time>
      </trkpt>
      <trkpt lat="48.23245" lon="-2.65911">
        <ele>210.39999389648</ele>
        <time>2021-10-15T13:00:27.000Z</time>
      </trkpt>
      <trkpt lat="48.23245" lon="-2.65916">
        <ele>210.80000305176</ele>
        <time>2021-10-15T13:00:28.000Z</time>
      </trkpt>
      <trkpt lat="48.23244" lon="-2.65919">
        <ele>211</ele>
        <time>2021-10-15T13:00:29.000Z</time>
      </trkpt>
      <trkpt lat="48.23244" lon="-2.65923">
        <ele>211</ele>
        <time>2021-10-15T13:00:30.000Z</time>
      </trkpt>
      <trkpt lat="48.23244" lon="-2.65926">
        <ele>211.19999694824</ele>
        <time>2021-10-15T13:00:31.000Z</time>
      </trkpt>
      <trkpt lat="48.23244" lon="-2.65929">
        <ele>211.39999389648</ele>
        <time>2021-10-15T13:00:32.000Z</time>
      </trkpt>
      <trkpt lat="48.23244" lon="-2.65933">
        <ele>211.39999389648</ele>
        <time>2021-10-15T13:00:33.000Z</time>
      </trkpt>
      <trkpt lat="48.23243" lon="-2.65938">
        <ele>211.60000610352</ele>
        <time>2021-10-15T13:00:34.000Z</time>
      </trkpt>
      <trkpt lat="48.23243" lon="-2.65942">
        <ele>211.80000305176</ele>
        <time>2021-10-15T13:00:35.000Z</time>
      </trkpt>
      <trkpt lat="48.23242" lon="-2.65946">
        <ele>211.80000305176</ele>
        <time>2021-10-15T13:00:36.000Z</time>
      </trkpt>
      <trkpt lat="48.23241" lon="-2.6595">
        <ele>212</ele>
        <time>2021-10-15T13:00:37.000Z</time>
      </trkpt>
      <trkpt lat="48.2324" lon="-2.65953">
        <ele>212</ele>
        <time>2021-10-15T13:00:38.000Z</time>
      </trkpt>
      <trkpt lat="48.23239" lon="-2.65955">
        <ele>212</ele>
        <time>2021-10-15T13:00:39.000Z</time>
      </trkpt>
      <trkpt lat="48.23238" lon="-2.65957">
        <ele>212</ele>
        <time>2021-10-15T13:00:40.000Z</time>
      </trkpt>
      <trkpt lat="48.23237" lon="-2.65959">
        <ele>212</ele>
        <time>2021-10-15T13:00:41.000Z</time>
      </trkpt>
      <trkpt lat="48.23237" lon="-2.65961">
        <ele>212</ele>
        <time>2021-10-15T13:00:42.000Z</time>
      </trkpt>
      <trkpt lat="48.23236" lon="-2.65964">
        <ele>212</ele>
        <time>2021-10-15T13:00:43.000Z</time>
      </trkpt>
      <trkpt lat="48.23236" lon="-2.65965">
        <ele>212</ele>
        <time>2021-10-15T13:00:44.000Z</time>
      </trkpt>
      <trkpt lat="48.23235" lon="-2.65966">
        <ele>212</ele>
        <time>2021-10-15T13:00:45.000Z</time>
      </trkpt>
      <trkpt lat="48.23234" lon="-2.65965">
        <ele>212</ele>
        <time>2021-10-15T13:00:46.000Z</time>
      </trkpt>
      <trkpt lat="48.23233" lon="-2.65964">
        <ele>211.80000305176</ele>
        <time>2021-10-15T13:00:47.000Z</time>
      </trkpt>
      <trkpt lat="48.23233" lon="-2.65962">
        <ele>211.80000305176</ele>
        <time>2021-10-15T13:00:48.000Z</time>
      </trkpt>
      <trkpt lat="48.23232" lon="-2.6596">
        <ele>211.60000610352</ele>
        <time>2021-10-15T13:00:49.000Z</time>
      </trkpt>
      <trkpt lat="48.2323" lon="-2.65957">
        <ele>211.39999389648</ele>
        <time>2021-10-15T13:00:50.000Z</time>
      </trkpt>
      <trkpt lat="48.2323" lon="-2.65954">
        <ele>211.39999389648</ele>
        <time>2021-10-15T13:00:51.000Z</time>
      </trkpt>
      <trkpt lat="48.23228" lon="-2.65952">
        <ele>211</ele>
        <time>2021-10-15T13:00:53.000Z</time>
      </trkpt>
      <trkpt lat="48.23228" lon="-2.65952">
        <ele>211</ele>
        <time>2021-10-15T13:00:54.000Z</time>
      </trkpt>
      <trkpt lat="48.23227" lon="-2.65951">
        <ele>211</ele>
        <time>2021-10-15T13:00:55.000Z</time>
      </trkpt>
      <trkpt lat="48.23226" lon="-2.65951">
        <ele>210.80000305176</ele>
        <time>2021-10-15T13:00:56.000Z</time>
      </trkpt>
      <trkpt lat="48.23225" lon="-2.65952">
        <ele>210.80000305176</ele>
        <time>2021-10-15T13:00:57.000Z</time>
      </trkpt>
      <trkpt lat="48.23224" lon="-2.65953">
        <ele>210.80000305176</ele>
        <time>2021-10-15T13:00:58.000Z</time>
      </trkpt>
      <trkpt lat="48.23223" lon="-2.65955">
        <ele>210.80000305176</ele>
        <time>2021-10-15T13:00:59.000Z</time>
      </trkpt>
      <trkpt lat="48.23223" lon="-2.65957">
        <ele>211</ele>
        <time>2021-10-15T13:01:00.000Z</time>
      </trkpt>
      <trkpt lat="48.23223" lon="-2.65958">
        <ele>211</ele>
        <time>2021-10-15T13:01:01.000Z</time>
      </trkpt>
      <trkpt lat="48.23222" lon="-2.65958">
        <ele>210.80000305176</ele>
        <time>2021-10-15T13:01:02.000Z</time>
      </trkpt>
      <trkpt lat="48.23222" lon="-2.65958">
        <ele>210.80000305176</ele>
        <time>2021-10-15T13:01:03.000Z</time>
      </trkpt>
      <trkpt lat="48.23222" lon="-2.65958">
        <ele>210.80000305176</ele>
        <time>2021-10-15T13:01:04.000Z</time>
      </trkpt>
      <trkpt lat="48.23222" lon="-2.65958">
        <ele>210.80000305176</ele>
        <time>2021-10-15T13:01:05.000Z</time>
      </trkpt>
      <trkpt lat="48.23222" lon="-2.65958">
        <ele>210.80000305176</ele>
        <time>2021-10-15T13:01:06.000Z</time>
      </trkpt>
      <trkpt lat="48.23222" lon="-2.65958">
        <ele>210.80000305176</ele>
        <time>2021-10-15T13:01:07.000Z</time>
      </trkpt>
      <trkpt lat="48.23222" lon="-2.65958">
        <ele>210.80000305176</ele>
        <time>2021-10-15T13:01:08.000Z</time>
      </trkpt>
      <trkpt lat="48.23222" lon="-2.65958">
        <ele>210.80000305176</ele>
        <time>2021-10-15T13:01:09.000Z</time>
      </trkpt>
      <trkpt lat="48.23222" lon="-2.65958">
        <ele>210.80000305176</ele>
        <time>2021-10-15T13:01:10.000Z</time>
      </trkpt>
      <trkpt lat="48.23222" lon="-2.65958">
        <ele>210.80000305176</ele>
        <time>2021-10-15T13:01:11.000Z</time>
      </trkpt>
      <trkpt lat="48.23222" lon="-2.65958">
        <ele>210.80000305176</ele>
        <time>2021-10-15T13:01:12.000Z</time>
      </trkpt>
      <trkpt lat="48.23222" lon="-2.65958">
        <ele>210.80000305176</ele>
        <time>2021-10-15T13:01:13.000Z</time>
      </trkpt>
      <trkpt lat="48.23222" lon="-2.65958">
        <ele>210.80000305176</ele>
        <time>2021-10-15T13:01:14.000Z</time>
      </trkpt>
      <trkpt lat="48.23222" lon="-2.65958">
        <ele>210.80000305176</ele>
        <time>2021-10-15T13:01:15.000Z</time>
      </trkpt>
      <trkpt lat="48.23222" lon="-2.65958">
        <ele>210.80000305176</ele>
        <time>2021-10-15T13:01:16.000Z</time>
      </trkpt>
      <trkpt lat="48.23221" lon="-2.65958">
        <ele>210.80000305176</ele>
        <time>2021-10-15T13:01:17.000Z</time>
      </trkpt>
      <trkpt lat="48.23221" lon="-2.65958">
        <ele>210.80000305176</ele>
        <time>2021-10-15T13:01:18.000Z</time>
      </trkpt>
      <trkpt lat="48.23221" lon="-2.65958">
        <ele>210.80000305176</ele>
        <time>2021-10-15T13:01:19.000Z</time>
      </trkpt>
      <trkpt lat="48.23221" lon="-2.65958">
        <ele>210.80000305176</ele>
        <time>2021-10-15T13:01:20.000Z</time>
      </trkpt>
      <trkpt lat="48.23221" lon="-2.65958">
        <ele>210.80000305176</ele>
        <time>2021-10-15T13:01:21.000Z</time>
      </trkpt>
      <trkpt lat="48.23221" lon="-2.65958">
        <ele>210.80000305176</ele>
        <time>2021-10-15T13:01:22.000Z</time>
      </trkpt>
      <trkpt lat="48.23221" lon="-2.65958">
        <ele>210.80000305176</ele>
        <time>2021-10-15T13:01:23.000Z</time>
      </trkpt>
      <trkpt lat="48.23221" lon="-2.65958">
        <ele>210.80000305176</ele>
        <time>2021-10-15T13:01:24.000Z</time>
      </trkpt>
      <trkpt lat="48.23221" lon="-2.65958">
        <ele>210.80000305176</ele>
        <time>2021-10-15T13:01:25.000Z</time>
      </trkpt>
      <trkpt lat="48.23221" lon="-2.65958">
        <ele>210.80000305176</ele>
        <time>2021-10-15T13:01:26.000Z</time>
      </trkpt>
      <trkpt lat="48.23221" lon="-2.65958">
        <ele>210.80000305176</ele>
        <time>2021-10-15T13:01:27.000Z</time>
      </trkpt>
      <trkpt lat="48.23221" lon="-2.65958">
        <ele>210.80000305176</ele>
        <time>2021-10-15T13:01:28.000Z</time>
      </trkpt>
      <trkpt lat="48.23221" lon="-2.65958">
        <ele>210.80000305176</ele>
        <time>2021-10-15T13:01:29.000Z</time>
      </trkpt>
      <trkpt lat="48.23221" lon="-2.65958">
        <ele>210.80000305176</ele>
        <time>2021-10-15T13:01:30.000Z</time>
      </trkpt>
      <trkpt lat="48.23221" lon="-2.65958">
        <ele>210.80000305176</ele>
        <time>2021-10-15T13:01:31.000Z</time>
      </trkpt>
      <trkpt lat="48.23221" lon="-2.65958">
        <ele>210.80000305176</ele>
        <time>2021-10-15T13:01:32.000Z</time>
      </trkpt>
      <trkpt lat="48.23221" lon="-2.65958">
        <ele>210.80000305176</ele>
        <time>2021-10-15T13:01:33.000Z</time>
      </trkpt>
      <trkpt lat="48.23221" lon="-2.65958">
        <ele>210.80000305176</ele>
        <time>2021-10-15T13:01:34.000Z</time>
      </trkpt>
      <trkpt lat="48.23221" lon="-2.65958">
        <ele>210.80000305176</ele>
        <time>2021-10-15T13:01:35.000Z</time>
      </trkpt>
      <trkpt lat="48.23221" lon="-2.65958">
        <ele>210.80000305176</ele>
        <time>2021-10-15T13:01:36.000Z</time>
      </trkpt>
      <trkpt lat="48.23221" lon="-2.65958">
        <ele>210.80000305176</ele>
        <time>2021-10-15T13:01:37.000Z</time>
      </trkpt>
      <trkpt lat="48.23221" lon="-2.65958">
        <ele>210.80000305176</ele>
        <time>2021-10-15T13:01:38.000Z</time>
      </trkpt>
      <trkpt lat="48.23221" lon="-2.65958">
        <ele>210.80000305176</ele>
        <time>2021-10-15T13:01:39.000Z</time>
      </trkpt>
      <trkpt lat="48.23221" lon="-2.65958">
        <ele>210.80000305176</ele>
        <time>2021-10-15T13:01:40.000Z</time>
      </trkpt>
      <trkpt lat="48.23221" lon="-2.65958">
        <ele>210.80000305176</ele>
        <time>2021-10-15T13:01:41.000Z</time>
      </trkpt>
      <trkpt lat="48.23221" lon="-2.65958">
        <ele>210.80000305176</ele>
        <time>2021-10-15T13:01:42.000Z</time>
      </trkpt>
      <trkpt lat="48.23221" lon="-2.65958">
        <ele>210.80000305176</ele>
        <time>2021-10-15T13:01:43.000Z</time>
      </trkpt>
      <trkpt lat="48.23221" lon="-2.65958">
        <ele>210.80000305176</ele>
        <time>2021-10-15T13:01:44.000Z</time>
      </trkpt>
      <trkpt lat="48.23221" lon="-2.65958">
        <ele>210.80000305176</ele>
        <time>2021-10-15T13:01:45.000Z</time>
      </trkpt>
      <trkpt lat="48.23221" lon="-2.65958">
        <ele>210.80000305176</ele>
        <time>2021-10-15T13:01:46.000Z</time>
      </trkpt>
      <trkpt lat="48.23221" lon="-2.65958">
        <ele>210.80000305176</ele>
        <time>2021-10-15T13:01:47.000Z</time>
      </trkpt>
      <trkpt lat="48.23221" lon="-2.65958">
        <ele>210.80000305176</ele>
        <time>2021-10-15T13:01:48.000Z</time>
      </trkpt>
      <trkpt lat="48.23221" lon="-2.65958">
        <ele>210.80000305176</ele>
        <time>2021-10-15T13:01:49.000Z</time>
      </trkpt>
      <trkpt lat="48.23221" lon="-2.65958">
        <ele>210.80000305176</ele>
        <time>2021-10-15T13:01:50.000Z</time>
      </trkpt>
      <trkpt lat="48.23221" lon="-2.65958">
        <ele>210.80000305176</ele>
        <time>2021-10-15T13:01:51.000Z</time>
      </trkpt>
      <trkpt lat="48.23221" lon="-2.65958">
        <ele>210.80000305176</ele>
        <time>2021-10-15T13:01:52.000Z</time>
      </trkpt>
      <trkpt lat="48.23221" lon="-2.65958">
        <ele>210.80000305176</ele>
        <time>2021-10-15T13:01:53.000Z</time>
      </trkpt>
      <trkpt lat="48.23221" lon="-2.65958">
        <ele>210.80000305176</ele>
        <time>2021-10-15T13:01:54.000Z</time>
      </trkpt>
      <trkpt lat="48.23221" lon="-2.65958">
        <ele>210.80000305176</ele>
        <time>2021-10-15T13:01:55.000Z</time>
      </trkpt>
      <trkpt lat="48.23221" lon="-2.65958">
        <ele>210.80000305176</ele>
        <time>2021-10-15T13:01:56.000Z</time>
      </trkpt>
      <trkpt lat="48.23221" lon="-2.65958">
        <ele>210.80000305176</ele>
        <time>2021-10-15T13:01:57.000Z</time>
      </trkpt>
      <trkpt lat="48.23221" lon="-2.65958">
        <ele>210.80000305176</ele>
        <time>2021-10-15T13:01:58.000Z</time>
      </trkpt>
      <trkpt lat="48.23221" lon="-2.65958">
        <ele>210.80000305176</ele>
        <time>2021-10-15T13:01:59.000Z</time>
      </trkpt>
      <trkpt lat="48.23221" lon="-2.65958">
        <ele>210.80000305176</ele>
        <time>2021-10-15T13:02:00.000Z</time>
      </trkpt>
      <trkpt lat="48.23221" lon="-2.65958">
        <ele>210.80000305176</ele>
        <time>2021-10-15T13:02:01.000Z</time>
      </trkpt>
      <trkpt lat="48.23221" lon="-2.65958">
        <ele>210.80000305176</ele>
        <time>2021-10-15T13:02:02.000Z</time>
      </trkpt>
      <trkpt lat="48.23221" lon="-2.65958">
        <ele>210.80000305176</ele>
        <time>2021-10-15T13:02:03.000Z</time>
      </trkpt>
      <trkpt lat="48.23221" lon="-2.65958">
        <ele>210.80000305176</ele>
        <time>2021-10-15T13:02:04.000Z</time>
      </trkpt>
      <trkpt lat="48.23221" lon="-2.65958">
        <ele>210.80000305176</ele>
        <time>2021-10-15T13:02:05.000Z</time>
      </trkpt>
      <trkpt lat="48.23221" lon="-2.65958">
        <ele>210.80000305176</ele>
        <time>2021-10-15T13:02:06.000Z</time>
      </trkpt>
      <trkpt lat="48.23221" lon="-2.65958">
        <ele>210.80000305176</ele>
        <time>2021-10-15T13:02:07.000Z</time>
      </trkpt>
      <trkpt lat="48.23221" lon="-2.65958">
        <ele>210.80000305176</ele>
        <time>2021-10-15T13:02:08.000Z</time>
      </trkpt>
      <trkpt lat="48.23221" lon="-2.65958">
        <ele>210.80000305176</ele>
        <time>2021-10-15T13:02:09.000Z</time>
      </trkpt>
      <trkpt lat="48.23221" lon="-2.65958">
        <ele>210.80000305176</ele>
        <time>2021-10-15T13:02:10.000Z</time>
      </trkpt>
      <trkpt lat="48.23221" lon="-2.65958">
        <ele>210.80000305176</ele>
        <time>2021-10-15T13:02:11.000Z</time>
      </trkpt>
      <trkpt lat="48.23221" lon="-2.65958">
        <ele>210.80000305176</ele>
        <time>2021-10-15T13:02:12.000Z</time>
      </trkpt>
      <trkpt lat="48.23221" lon="-2.65958">
        <ele>210.80000305176</ele>
        <time>2021-10-15T13:02:13.000Z</time>
      </trkpt>
      <trkpt lat="48.23221" lon="-2.65958">
        <ele>210.80000305176</ele>
        <time>2021-10-15T13:02:14.000Z</time>
      </trkpt>
      <trkpt lat="48.23221" lon="-2.65958">
        <ele>210.80000305176</ele>
        <time>2021-10-15T13:02:15.000Z</time>
      </trkpt>
      <trkpt lat="48.23221" lon="-2.65958">
        <ele>210.80000305176</ele>
        <time>2021-10-15T13:02:16.000Z</time>
      </trkpt>
      <trkpt lat="48.23221" lon="-2.65958">
        <ele>210.80000305176</ele>
        <time>2021-10-15T13:02:17.000Z</time>
      </trkpt>
      <trkpt lat="48.23221" lon="-2.65958">
        <ele>210.80000305176</ele>
        <time>2021-10-15T13:02:18.000Z</time>
      </trkpt>
      <trkpt lat="48.23221" lon="-2.65958">
        <ele>210.80000305176</ele>
        <time>2021-10-15T13:02:19.000Z</time>
      </trkpt>
      <trkpt lat="48.23221" lon="-2.65958">
        <ele>210.80000305176</ele>
        <time>2021-10-15T13:02:20.000Z</time>
      </trkpt>
      <trkpt lat="48.23221" lon="-2.65958">
        <ele>210.80000305176</ele>
        <time>2021-10-15T13:02:21.000Z</time>
      </trkpt>
      <trkpt lat="48.23221" lon="-2.65958">
        <ele>210.80000305176</ele>
        <time>2021-10-15T13:02:22.000Z</time>
      </trkpt>
      <trkpt lat="48.23221" lon="-2.65958">
        <ele>210.80000305176</ele>
        <time>2021-10-15T13:02:23.000Z</time>
      </trkpt>
      <trkpt lat="48.23221" lon="-2.65958">
        <ele>210.80000305176</ele>
        <time>2021-10-15T13:02:24.000Z</time>
      </trkpt>
      <trkpt lat="48.23221" lon="-2.65958">
        <ele>210.80000305176</ele>
        <time>2021-10-15T13:02:25.000Z</time>
      </trkpt>
      <trkpt lat="48.23221" lon="-2.65958">
        <ele>210.80000305176</ele>
        <time>2021-10-15T13:02:26.000Z</time>
      </trkpt>
      <trkpt lat="48.23221" lon="-2.65958">
        <ele>210.80000305176</ele>
        <time>2021-10-15T13:02:27.000Z</time>
      </trkpt>
      <trkpt lat="48.23221" lon="-2.65958">
        <ele>210.80000305176</ele>
        <time>2021-10-15T13:02:28.000Z</time>
      </trkpt>
      <trkpt lat="48.23221" lon="-2.65958">
        <ele>210.80000305176</ele>
        <time>2021-10-15T13:02:29.000Z</time>
      </trkpt>
      <trkpt lat="48.23221" lon="-2.65958">
        <ele>210.80000305176</ele>
        <time>2021-10-15T13:02:30.000Z</time>
      </trkpt>
      <trkpt lat="48.23221" lon="-2.65958">
        <ele>210.80000305176</ele>
        <time>2021-10-15T13:02:31.000Z</time>
      </trkpt>
      <trkpt lat="48.23221" lon="-2.65958">
        <ele>210.80000305176</ele>
        <time>2021-10-15T13:02:32.000Z</time>
      </trkpt>
      <trkpt lat="48.23221" lon="-2.65958">
        <ele>210.80000305176</ele>
        <time>2021-10-15T13:02:33.000Z</time>
      </trkpt>
      <trkpt lat="48.23221" lon="-2.65958">
        <ele>210.80000305176</ele>
        <time>2021-10-15T13:02:34.000Z</time>
      </trkpt>
      <trkpt lat="48.23221" lon="-2.65958">
        <ele>210.80000305176</ele>
        <time>2021-10-15T13:02:35.000Z</time>
      </trkpt>
      <trkpt lat="48.23221" lon="-2.65958">
        <ele>210.80000305176</ele>
        <time>2021-10-15T13:02:36.000Z</time>
      </trkpt>
      <trkpt lat="48.23221" lon="-2.65958">
        <ele>210.80000305176</ele>
        <time>2021-10-15T13:02:37.000Z</time>
      </trkpt>
      <trkpt lat="48.23221" lon="-2.65958">
        <ele>210.80000305176</ele>
        <time>2021-10-15T13:02:38.000Z</time>
      </trkpt>
      <trkpt lat="48.23221" lon="-2.65958">
        <ele>210.80000305176</ele>
        <time>2021-10-15T13:02:39.000Z</time>
      </trkpt>
      <trkpt lat="48.23221" lon="-2.65958">
        <ele>210.80000305176</ele>
        <time>2021-10-15T13:02:40.000Z</time>
      </trkpt>
      <trkpt lat="48.23221" lon="-2.65958">
        <ele>210.80000305176</ele>
        <time>2021-10-15T13:02:41.000Z</time>
      </trkpt>
      <trkpt lat="48.23221" lon="-2.65958">
        <ele>210.80000305176</ele>
        <time>2021-10-15T13:02:42.000Z</time>
      </trkpt>
      <trkpt lat="48.23221" lon="-2.65958">
        <ele>210.80000305176</ele>
        <time>2021-10-15T13:02:43.000Z</time>
      </trkpt>
      <trkpt lat="48.23221" lon="-2.65958">
        <ele>210.80000305176</ele>
        <time>2021-10-15T13:02:44.000Z</time>
      </trkpt>
      <trkpt lat="48.23221" lon="-2.65958">
        <ele>210.80000305176</ele>
        <time>2021-10-15T13:02:45.000Z</time>
      </trkpt>
      <trkpt lat="48.23221" lon="-2.65958">
        <ele>210.80000305176</ele>
        <time>2021-10-15T13:02:46.000Z</time>
      </trkpt>
      <trkpt lat="48.23221" lon="-2.65958">
        <ele>210.80000305176</ele>
        <time>2021-10-15T13:02:47.000Z</time>
      </trkpt>
      <trkpt lat="48.23221" lon="-2.65958">
        <ele>210.80000305176</ele>
        <time>2021-10-15T13:02:48.000Z</time>
      </trkpt>
      <trkpt lat="48.23221" lon="-2.65958">
        <ele>210.80000305176</ele>
        <time>2021-10-15T13:02:49.000Z</time>
      </trkpt>
      <trkpt lat="48.23221" lon="-2.65958">
        <ele>210.80000305176</ele>
        <time>2021-10-15T13:02:50.000Z</time>
      </trkpt>
      <trkpt lat="48.23221" lon="-2.65958">
        <ele>210.80000305176</ele>
        <time>2021-10-15T13:02:51.000Z</time>
      </trkpt>
      <trkpt lat="48.23221" lon="-2.65958">
        <ele>210.80000305176</ele>
        <time>2021-10-15T13:02:52.000Z</time>
      </trkpt>
      <trkpt lat="48.23221" lon="-2.65959">
        <ele>210.80000305176</ele>
        <time>2021-10-15T13:02:53.000Z</time>
      </trkpt>
      <trkpt lat="48.23221" lon="-2.65959">
        <ele>210.80000305176</ele>
        <time>2021-10-15T13:02:54.000Z</time>
      </trkpt>
      <trkpt lat="48.23221" lon="-2.65959">
        <ele>210.80000305176</ele>
        <time>2021-10-15T13:02:55.000Z</time>
      </trkpt>
      <trkpt lat="48.23221" lon="-2.65959">
        <ele>210.80000305176</ele>
        <time>2021-10-15T13:02:56.000Z</time>
      </trkpt>
      <trkpt lat="48.23221" lon="-2.65959">
        <ele>210.80000305176</ele>
        <time>2021-10-15T13:02:57.000Z</time>
      </trkpt>
      <trkpt lat="48.23221" lon="-2.65959">
        <ele>210.80000305176</ele>
        <time>2021-10-15T13:02:58.000Z</time>
      </trkpt>
      <trkpt lat="48.23221" lon="-2.6596">
        <ele>210.80000305176</ele>
        <time>2021-10-15T13:02:59.000Z</time>
      </trkpt>
      <trkpt lat="48.23222" lon="-2.6596">
        <ele>210.80000305176</ele>
        <time>2021-10-15T13:03:00.000Z</time>
      </trkpt>
      <trkpt lat="48.23222" lon="-2.6596">
        <ele>211</ele>
        <time>2021-10-15T13:03:01.000Z</time>
      </trkpt>
      <trkpt lat="48.23223" lon="-2.65961">
        <ele>211</ele>
        <time>2021-10-15T13:03:02.000Z</time>
      </trkpt>
      <trkpt lat="48.23223" lon="-2.65962">
        <ele>211</ele>
        <time>2021-10-15T13:03:03.000Z</time>
      </trkpt>
      <trkpt lat="48.23224" lon="-2.65963">
        <ele>211.19999694824</ele>
        <time>2021-10-15T13:03:04.000Z</time>
      </trkpt>
      <trkpt lat="48.23224" lon="-2.65963">
        <ele>211.19999694824</ele>
        <time>2021-10-15T13:03:05.000Z</time>
      </trkpt>
      <trkpt lat="48.23224" lon="-2.65963">
        <ele>211.19999694824</ele>
        <time>2021-10-15T13:03:06.000Z</time>
      </trkpt>
      <trkpt lat="48.23225" lon="-2.65963">
        <ele>211.19999694824</ele>
        <time>2021-10-15T13:03:07.000Z</time>
      </trkpt>
      <trkpt lat="48.23225" lon="-2.65963">
        <ele>211.19999694824</ele>
        <time>2021-10-15T13:03:08.000Z</time>
      </trkpt>
      <trkpt lat="48.23225" lon="-2.65964">
        <ele>211.39999389648</ele>
        <time>2021-10-15T13:03:09.000Z</time>
      </trkpt>
      <trkpt lat="48.23226" lon="-2.65964">
        <ele>211.39999389648</ele>
        <time>2021-10-15T13:03:10.000Z</time>
      </trkpt>
      <trkpt lat="48.23226" lon="-2.65964">
        <ele>211.39999389648</ele>
        <time>2021-10-15T13:03:11.000Z</time>
      </trkpt>
      <trkpt lat="48.23226" lon="-2.65965">
        <ele>211.39999389648</ele>
        <time>2021-10-15T13:03:12.000Z</time>
      </trkpt>
      <trkpt lat="48.23226" lon="-2.65965">
        <ele>211.39999389648</ele>
        <time>2021-10-15T13:03:13.000Z</time>
      </trkpt>
      <trkpt lat="48.23227" lon="-2.65964">
        <ele>211.39999389648</ele>
        <time>2021-10-15T13:03:14.000Z</time>
      </trkpt>
      <trkpt lat="48.23227" lon="-2.65964">
        <ele>211.39999389648</ele>
        <time>2021-10-15T13:03:15.000Z</time>
      </trkpt>
      <trkpt lat="48.23227" lon="-2.65964">
        <ele>211.39999389648</ele>
        <time>2021-10-15T13:03:16.000Z</time>
      </trkpt>
      <trkpt lat="48.23226" lon="-2.65963">
        <ele>211.39999389648</ele>
        <time>2021-10-15T13:03:17.000Z</time>
      </trkpt>
      <trkpt lat="48.23226" lon="-2.65963">
        <ele>211.39999389648</ele>
        <time>2021-10-15T13:03:18.000Z</time>
      </trkpt>
      <trkpt lat="48.23226" lon="-2.65963">
        <ele>211.19999694824</ele>
        <time>2021-10-15T13:03:19.000Z</time>
      </trkpt>
      <trkpt lat="48.23226" lon="-2.65963">
        <ele>211.19999694824</ele>
        <time>2021-10-15T13:03:20.000Z</time>
      </trkpt>
      <trkpt lat="48.23226" lon="-2.65963">
        <ele>211.19999694824</ele>
        <time>2021-10-15T13:03:21.000Z</time>
      </trkpt>
      <trkpt lat="48.23226" lon="-2.65963">
        <ele>211.19999694824</ele>
        <time>2021-10-15T13:03:22.000Z</time>
      </trkpt>
      <trkpt lat="48.23226" lon="-2.65963">
        <ele>211.19999694824</ele>
        <time>2021-10-15T13:03:23.000Z</time>
      </trkpt>
      <trkpt lat="48.23226" lon="-2.65963">
        <ele>211.19999694824</ele>
        <time>2021-10-15T13:03:24.000Z</time>
      </trkpt>
      <trkpt lat="48.23226" lon="-2.65963">
        <ele>211.19999694824</ele>
        <time>2021-10-15T13:03:25.000Z</time>
      </trkpt>
      <trkpt lat="48.23226" lon="-2.65963">
        <ele>211.39999389648</ele>
        <time>2021-10-15T13:03:26.000Z</time>
      </trkpt>
      <trkpt lat="48.23226" lon="-2.65963">
        <ele>211.39999389648</ele>
        <time>2021-10-15T13:03:27.000Z</time>
      </trkpt>
      <trkpt lat="48.23225" lon="-2.65963">
        <ele>211.19999694824</ele>
        <time>2021-10-15T13:03:28.000Z</time>
      </trkpt>
      <trkpt lat="48.23225" lon="-2.65963">
        <ele>211.19999694824</ele>
        <time>2021-10-15T13:03:29.000Z</time>
      </trkpt>
      <trkpt lat="48.23225" lon="-2.65963">
        <ele>211.19999694824</ele>
        <time>2021-10-15T13:03:30.000Z</time>
      </trkpt>
      <trkpt lat="48.23225" lon="-2.65963">
        <ele>211.19999694824</ele>
        <time>2021-10-15T13:03:31.000Z</time>
      </trkpt>
      <trkpt lat="48.23225" lon="-2.65963">
        <ele>211.19999694824</ele>
        <time>2021-10-15T13:03:32.000Z</time>
      </trkpt>
      <trkpt lat="48.23225" lon="-2.65963">
        <ele>211.19999694824</ele>
        <time>2021-10-15T13:03:33.000Z</time>
      </trkpt>
      <trkpt lat="48.23225" lon="-2.65963">
        <ele>211.19999694824</ele>
        <time>2021-10-15T13:03:34.000Z</time>
      </trkpt>
      <trkpt lat="48.23225" lon="-2.65963">
        <ele>211.19999694824</ele>
        <time>2021-10-15T13:03:35.000Z</time>
      </trkpt>
      <trkpt lat="48.23225" lon="-2.65963">
        <ele>211.19999694824</ele>
        <time>2021-10-15T13:03:36.000Z</time>
      </trkpt>
      <trkpt lat="48.23225" lon="-2.65963">
        <ele>211.19999694824</ele>
        <time>2021-10-15T13:03:37.000Z</time>
      </trkpt>
      <trkpt lat="48.23225" lon="-2.65963">
        <ele>211.19999694824</ele>
        <time>2021-10-15T13:03:38.000Z</time>
      </trkpt>
      <trkpt lat="48.23225" lon="-2.65963">
        <ele>211.19999694824</ele>
        <time>2021-10-15T13:03:39.000Z</time>
      </trkpt>
      <trkpt lat="48.23225" lon="-2.65963">
        <ele>211.19999694824</ele>
        <time>2021-10-15T13:03:40.000Z</time>
      </trkpt>
      <trkpt lat="48.23225" lon="-2.65963">
        <ele>211.19999694824</ele>
        <time>2021-10-15T13:03:41.000Z</time>
      </trkpt>
      <trkpt lat="48.23225" lon="-2.65963">
        <ele>211.19999694824</ele>
        <time>2021-10-15T13:03:42.000Z</time>
      </trkpt>
      <trkpt lat="48.23225" lon="-2.65963">
        <ele>211.19999694824</ele>
        <time>2021-10-15T13:03:43.000Z</time>
      </trkpt>
      <trkpt lat="48.23225" lon="-2.65963">
        <ele>211.19999694824</ele>
        <time>2021-10-15T13:03:44.000Z</time>
      </trkpt>
      <trkpt lat="48.23225" lon="-2.65963">
        <ele>211.19999694824</ele>
        <time>2021-10-15T13:03:45.000Z</time>
      </trkpt>
      <trkpt lat="48.23224" lon="-2.65963">
        <ele>211.19999694824</ele>
        <time>2021-10-15T13:03:46.000Z</time>
      </trkpt>
      <trkpt lat="48.23224" lon="-2.65962">
        <ele>211.19999694824</ele>
        <time>2021-10-15T13:03:47.000Z</time>
      </trkpt>
      <trkpt lat="48.23224" lon="-2.65962">
        <ele>211.19999694824</ele>
        <time>2021-10-15T13:03:48.000Z</time>
      </trkpt>
      <trkpt lat="48.23224" lon="-2.65962">
        <ele>211.19999694824</ele>
        <time>2021-10-15T13:03:49.000Z</time>
      </trkpt>
      <trkpt lat="48.23224" lon="-2.65962">
        <ele>211.19999694824</ele>
        <time>2021-10-15T13:03:50.000Z</time>
      </trkpt>
      <trkpt lat="48.23225" lon="-2.65962">
        <ele>211.19999694824</ele>
        <time>2021-10-15T13:03:51.000Z</time>
      </trkpt>
      <trkpt lat="48.23225" lon="-2.65962">
        <ele>211.19999694824</ele>
        <time>2021-10-15T13:03:52.000Z</time>
      </trkpt>
      <trkpt lat="48.23225" lon="-2.65962">
        <ele>211.19999694824</ele>
        <time>2021-10-15T13:03:53.000Z</time>
      </trkpt>
      <trkpt lat="48.23224" lon="-2.65962">
        <ele>211.19999694824</ele>
        <time>2021-10-15T13:03:54.000Z</time>
      </trkpt>
      <trkpt lat="48.23224" lon="-2.65962">
        <ele>211.19999694824</ele>
        <time>2021-10-15T13:03:55.000Z</time>
      </trkpt>
      <trkpt lat="48.23225" lon="-2.65962">
        <ele>211.19999694824</ele>
        <time>2021-10-15T13:03:56.000Z</time>
      </trkpt>
      <trkpt lat="48.23225" lon="-2.65962">
        <ele>211.19999694824</ele>
        <time>2021-10-15T13:03:57.000Z</time>
      </trkpt>
      <trkpt lat="48.23225" lon="-2.65962">
        <ele>211.19999694824</ele>
        <time>2021-10-15T13:03:58.000Z</time>
      </trkpt>
      <trkpt lat="48.23225" lon="-2.65962">
        <ele>211.19999694824</ele>
        <time>2021-10-15T13:03:59.000Z</time>
      </trkpt>
      <trkpt lat="48.23225" lon="-2.65962">
        <ele>211.19999694824</ele>
        <time>2021-10-15T13:04:00.000Z</time>
      </trkpt>
      <trkpt lat="48.23225" lon="-2.65962">
        <ele>211.19999694824</ele>
        <time>2021-10-15T13:04:01.000Z</time>
      </trkpt>
      <trkpt lat="48.23225" lon="-2.65962">
        <ele>211.19999694824</ele>
        <time>2021-10-15T13:04:02.000Z</time>
      </trkpt>
      <trkpt lat="48.23224" lon="-2.65962">
        <ele>211.19999694824</ele>
        <time>2021-10-15T13:04:03.000Z</time>
      </trkpt>
      <trkpt lat="48.23224" lon="-2.65962">
        <ele>211.19999694824</ele>
        <time>2021-10-15T13:04:04.000Z</time>
      </trkpt>
      <trkpt lat="48.23224" lon="-2.65962">
        <ele>211.19999694824</ele>
        <time>2021-10-15T13:04:05.000Z</time>
      </trkpt>
      <trkpt lat="48.23224" lon="-2.65963">
        <ele>211.19999694824</ele>
        <time>2021-10-15T13:04:06.000Z</time>
      </trkpt>
      <trkpt lat="48.23224" lon="-2.65963">
        <ele>211.19999694824</ele>
        <time>2021-10-15T13:04:07.000Z</time>
      </trkpt>
      <trkpt lat="48.23224" lon="-2.65963">
        <ele>211.19999694824</ele>
        <time>2021-10-15T13:04:08.000Z</time>
      </trkpt>
      <trkpt lat="48.23223" lon="-2.65963">
        <ele>211.19999694824</ele>
        <time>2021-10-15T13:04:09.000Z</time>
      </trkpt>
      <trkpt lat="48.23223" lon="-2.65963">
        <ele>211.19999694824</ele>
        <time>2021-10-15T13:04:10.000Z</time>
      </trkpt>
      <trkpt lat="48.23223" lon="-2.65963">
        <ele>211.19999694824</ele>
        <time>2021-10-15T13:04:11.000Z</time>
      </trkpt>
      <trkpt lat="48.23223" lon="-2.65963">
        <ele>211.19999694824</ele>
        <time>2021-10-15T13:04:12.000Z</time>
      </trkpt>
      <trkpt lat="48.23223" lon="-2.65963">
        <ele>211.19999694824</ele>
        <time>2021-10-15T13:04:13.000Z</time>
      </trkpt>
      <trkpt lat="48.23223" lon="-2.65963">
        <ele>211.19999694824</ele>
        <time>2021-10-15T13:04:14.000Z</time>
      </trkpt>
      <trkpt lat="48.23223" lon="-2.65963">
        <ele>211.19999694824</ele>
        <time>2021-10-15T13:04:15.000Z</time>
      </trkpt>
      <trkpt lat="48.23223" lon="-2.65963">
        <ele>211.19999694824</ele>
        <time>2021-10-15T13:04:16.000Z</time>
      </trkpt>
      <trkpt lat="48.23223" lon="-2.65963">
        <ele>211.19999694824</ele>
        <time>2021-10-15T13:04:17.000Z</time>
      </trkpt>
      <trkpt lat="48.23223" lon="-2.65963">
        <ele>211.19999694824</ele>
        <time>2021-10-15T13:04:18.000Z</time>
      </trkpt>
      <trkpt lat="48.23223" lon="-2.65964">
        <ele>211</ele>
        <time>2021-10-15T13:04:19.000Z</time>
      </trkpt>
      <trkpt lat="48.23223" lon="-2.65963">
        <ele>211</ele>
        <time>2021-10-15T13:04:20.000Z</time>
      </trkpt>
      <trkpt lat="48.23222" lon="-2.65964">
        <ele>211</ele>
        <time>2021-10-15T13:04:21.000Z</time>
      </trkpt>
      <trkpt lat="48.23222" lon="-2.65963">
        <ele>211</ele>
        <time>2021-10-15T13:04:22.000Z</time>
      </trkpt>
      <trkpt lat="48.23222" lon="-2.65963">
        <ele>211</ele>
        <time>2021-10-15T13:04:23.000Z</time>
      </trkpt>
      <trkpt lat="48.23222" lon="-2.65963">
        <ele>211</ele>
        <time>2021-10-15T13:04:24.000Z</time>
      </trkpt>
      <trkpt lat="48.23222" lon="-2.65963">
        <ele>211</ele>
        <time>2021-10-15T13:04:25.000Z</time>
      </trkpt>
      <trkpt lat="48.23222" lon="-2.65963">
        <ele>211</ele>
        <time>2021-10-15T13:04:26.000Z</time>
      </trkpt>
      <trkpt lat="48.23222" lon="-2.65963">
        <ele>211</ele>
        <time>2021-10-15T13:04:27.000Z</time>
      </trkpt>
      <trkpt lat="48.23222" lon="-2.65963">
        <ele>211</ele>
        <time>2021-10-15T13:04:28.000Z</time>
      </trkpt>
      <trkpt lat="48.23222" lon="-2.65963">
        <ele>211</ele>
        <time>2021-10-15T13:04:29.000Z</time>
      </trkpt>
      <trkpt lat="48.23222" lon="-2.65963">
        <ele>211</ele>
        <time>2021-10-15T13:04:30.000Z</time>
      </trkpt>
      <trkpt lat="48.23222" lon="-2.65963">
        <ele>211</ele>
        <time>2021-10-15T13:04:31.000Z</time>
      </trkpt>
      <trkpt lat="48.23222" lon="-2.65963">
        <ele>211</ele>
        <time>2021-10-15T13:04:32.000Z</time>
      </trkpt>
      <trkpt lat="48.23223" lon="-2.65963">
        <ele>211</ele>
        <time>2021-10-15T13:04:33.000Z</time>
      </trkpt>
      <trkpt lat="48.23223" lon="-2.65963">
        <ele>211</ele>
        <time>2021-10-15T13:04:34.000Z</time>
      </trkpt>
      <trkpt lat="48.23223" lon="-2.65963">
        <ele>211</ele>
        <time>2021-10-15T13:04:35.000Z</time>
      </trkpt>
      <trkpt lat="48.23223" lon="-2.65963">
        <ele>211</ele>
        <time>2021-10-15T13:04:36.000Z</time>
      </trkpt>
      <trkpt lat="48.23223" lon="-2.65963">
        <ele>211</ele>
        <time>2021-10-15T13:04:37.000Z</time>
      </trkpt>
      <trkpt lat="48.23223" lon="-2.65963">
        <ele>211.19999694824</ele>
        <time>2021-10-15T13:04:38.000Z</time>
      </trkpt>
      <trkpt lat="48.23223" lon="-2.65963">
        <ele>211.19999694824</ele>
        <time>2021-10-15T13:04:39.000Z</time>
      </trkpt>
      <trkpt lat="48.23223" lon="-2.65963">
        <ele>211.19999694824</ele>
        <time>2021-10-15T13:04:40.000Z</time>
      </trkpt>
      <trkpt lat="48.23224" lon="-2.65963">
        <ele>211.19999694824</ele>
        <time>2021-10-15T13:04:41.000Z</time>
      </trkpt>
      <trkpt lat="48.23224" lon="-2.65963">
        <ele>211.19999694824</ele>
        <time>2021-10-15T13:04:42.000Z</time>
      </trkpt>
      <trkpt lat="48.23224" lon="-2.65963">
        <ele>211.19999694824</ele>
        <time>2021-10-15T13:04:43.000Z</time>
      </trkpt>
      <trkpt lat="48.23224" lon="-2.65962">
        <ele>211.19999694824</ele>
        <time>2021-10-15T13:04:44.000Z</time>
      </trkpt>
      <trkpt lat="48.23224" lon="-2.65962">
        <ele>211.19999694824</ele>
        <time>2021-10-15T13:04:45.000Z</time>
      </trkpt>
      <trkpt lat="48.23224" lon="-2.65961">
        <ele>211</ele>
        <time>2021-10-15T13:04:46.000Z</time>
      </trkpt>
      <trkpt lat="48.23223" lon="-2.65961">
        <ele>211</ele>
        <time>2021-10-15T13:04:47.000Z</time>
      </trkpt>
      <trkpt lat="48.23223" lon="-2.65961">
        <ele>211</ele>
        <time>2021-10-15T13:04:48.000Z</time>
      </trkpt>
      <trkpt lat="48.23223" lon="-2.65961">
        <ele>211</ele>
        <time>2021-10-15T13:04:49.000Z</time>
      </trkpt>
      <trkpt lat="48.23223" lon="-2.65961">
        <ele>211</ele>
        <time>2021-10-15T13:04:50.000Z</time>
      </trkpt>
      <trkpt lat="48.23223" lon="-2.65961">
        <ele>211</ele>
        <time>2021-10-15T13:04:51.000Z</time>
      </trkpt>
      <trkpt lat="48.23223" lon="-2.65961">
        <ele>211</ele>
        <time>2021-10-15T13:04:52.000Z</time>
      </trkpt>
      <trkpt lat="48.23223" lon="-2.65961">
        <ele>211</ele>
        <time>2021-10-15T13:04:53.000Z</time>
      </trkpt>
      <trkpt lat="48.23223" lon="-2.65961">
        <ele>211</ele>
        <time>2021-10-15T13:04:54.000Z</time>
      </trkpt>
      <trkpt lat="48.23223" lon="-2.65961">
        <ele>211</ele>
        <time>2021-10-15T13:04:55.000Z</time>
      </trkpt>
      <trkpt lat="48.23223" lon="-2.65961">
        <ele>211</ele>
        <time>2021-10-15T13:04:56.000Z</time>
      </trkpt>
      <trkpt lat="48.23223" lon="-2.65961">
        <ele>211</ele>
        <time>2021-10-15T13:04:57.000Z</time>
      </trkpt>
      <trkpt lat="48.23223" lon="-2.65961">
        <ele>211</ele>
        <time>2021-10-15T13:04:58.000Z</time>
      </trkpt>
      <trkpt lat="48.23223" lon="-2.65961">
        <ele>211</ele>
        <time>2021-10-15T13:04:59.000Z</time>
      </trkpt>
      <trkpt lat="48.23222" lon="-2.65961">
        <ele>211</ele>
        <time>2021-10-15T13:05:00.000Z</time>
      </trkpt>
      <trkpt lat="48.23222" lon="-2.65962">
        <ele>211</ele>
        <time>2021-10-15T13:05:01.000Z</time>
      </trkpt>
      <trkpt lat="48.23222" lon="-2.65962">
        <ele>211</ele>
        <time>2021-10-15T13:05:02.000Z</time>
      </trkpt>
      <trkpt lat="48.23221" lon="-2.65962">
        <ele>211</ele>
        <time>2021-10-15T13:05:03.000Z</time>
      </trkpt>
      <trkpt lat="48.23221" lon="-2.65962">
        <ele>211</ele>
        <time>2021-10-15T13:05:04.000Z</time>
      </trkpt>
      <trkpt lat="48.2322" lon="-2.65963">
        <ele>210.80000305176</ele>
        <time>2021-10-15T13:05:05.000Z</time>
      </trkpt>
      <trkpt lat="48.2322" lon="-2.65963">
        <ele>211</ele>
        <time>2021-10-15T13:05:06.000Z</time>
      </trkpt>
      <trkpt lat="48.2322" lon="-2.65963">
        <ele>211</ele>
        <time>2021-10-15T13:05:07.000Z</time>
      </trkpt>
      <trkpt lat="48.2322" lon="-2.65964">
        <ele>211</ele>
        <time>2021-10-15T13:05:08.000Z</time>
      </trkpt>
      <trkpt lat="48.2322" lon="-2.65964">
        <ele>211</ele>
        <time>2021-10-15T13:05:09.000Z</time>
      </trkpt>
      <trkpt lat="48.2322" lon="-2.65965">
        <ele>211</ele>
        <time>2021-10-15T13:05:10.000Z</time>
      </trkpt>
      <trkpt lat="48.2322" lon="-2.65965">
        <ele>211</ele>
        <time>2021-10-15T13:05:11.000Z</time>
      </trkpt>
      <trkpt lat="48.2322" lon="-2.65965">
        <ele>211</ele>
        <time>2021-10-15T13:05:12.000Z</time>
      </trkpt>
      <trkpt lat="48.2322" lon="-2.65964">
        <ele>211</ele>
        <time>2021-10-15T13:05:13.000Z</time>
      </trkpt>
      <trkpt lat="48.2322" lon="-2.65965">
        <ele>211</ele>
        <time>2021-10-15T13:05:14.000Z</time>
      </trkpt>
      <trkpt lat="48.2322" lon="-2.65965">
        <ele>211</ele>
        <time>2021-10-15T13:05:15.000Z</time>
      </trkpt>
      <trkpt lat="48.2322" lon="-2.65964">
        <ele>211</ele>
        <time>2021-10-15T13:05:16.000Z</time>
      </trkpt>
      <trkpt lat="48.2322" lon="-2.65964">
        <ele>211</ele>
        <time>2021-10-15T13:05:17.000Z</time>
      </trkpt>
      <trkpt lat="48.2322" lon="-2.65964">
        <ele>211</ele>
        <time>2021-10-15T13:05:18.000Z</time>
      </trkpt>
      <trkpt lat="48.2322" lon="-2.65964">
        <ele>211</ele>
        <time>2021-10-15T13:05:19.000Z</time>
      </trkpt>
      <trkpt lat="48.2322" lon="-2.65964">
        <ele>211</ele>
        <time>2021-10-15T13:05:20.000Z</time>
      </trkpt>
      <trkpt lat="48.2322" lon="-2.65964">
        <ele>211</ele>
        <time>2021-10-15T13:05:21.000Z</time>
      </trkpt>
      <trkpt lat="48.2322" lon="-2.65964">
        <ele>211</ele>
        <time>2021-10-15T13:05:22.000Z</time>
      </trkpt>
      <trkpt lat="48.2322" lon="-2.65964">
        <ele>211</ele>
        <time>2021-10-15T13:05:23.000Z</time>
      </trkpt>
      <trkpt lat="48.2322" lon="-2.65964">
        <ele>211</ele>
        <time>2021-10-15T13:05:24.000Z</time>
      </trkpt>
      <trkpt lat="48.2322" lon="-2.65964">
        <ele>211</ele>
        <time>2021-10-15T13:05:25.000Z</time>
      </trkpt>
      <trkpt lat="48.2322" lon="-2.65964">
        <ele>211</ele>
        <time>2021-10-15T13:05:26.000Z</time>
      </trkpt>
      <trkpt lat="48.2322" lon="-2.65964">
        <ele>211</ele>
        <time>2021-10-15T13:05:27.000Z</time>
      </trkpt>
      <trkpt lat="48.2322" lon="-2.65964">
        <ele>211</ele>
        <time>2021-10-15T13:05:28.000Z</time>
      </trkpt>
      <trkpt lat="48.2322" lon="-2.65964">
        <ele>211</ele>
        <time>2021-10-15T13:05:29.000Z</time>
      </trkpt>
      <trkpt lat="48.2322" lon="-2.65964">
        <ele>211</ele>
        <time>2021-10-15T13:05:30.000Z</time>
      </trkpt>
      <trkpt lat="48.2322" lon="-2.65965">
        <ele>211</ele>
        <time>2021-10-15T13:05:31.000Z</time>
      </trkpt>
      <trkpt lat="48.2322" lon="-2.65965">
        <ele>211</ele>
        <time>2021-10-15T13:05:32.000Z</time>
      </trkpt>
      <trkpt lat="48.2322" lon="-2.65965">
        <ele>211</ele>
        <time>2021-10-15T13:05:33.000Z</time>
      </trkpt>
      <trkpt lat="48.2322" lon="-2.65965">
        <ele>211</ele>
        <time>2021-10-15T13:05:34.000Z</time>
      </trkpt>
      <trkpt lat="48.2322" lon="-2.65965">
        <ele>211</ele>
        <time>2021-10-15T13:05:35.000Z</time>
      </trkpt>
      <trkpt lat="48.2322" lon="-2.65965">
        <ele>211</ele>
        <time>2021-10-15T13:05:36.000Z</time>
      </trkpt>
      <trkpt lat="48.2322" lon="-2.65965">
        <ele>211</ele>
        <time>2021-10-15T13:05:37.000Z</time>
      </trkpt>
      <trkpt lat="48.2322" lon="-2.65965">
        <ele>211</ele>
        <time>2021-10-15T13:05:38.000Z</time>
      </trkpt>
      <trkpt lat="48.2322" lon="-2.65965">
        <ele>211</ele>
        <time>2021-10-15T13:05:39.000Z</time>
      </trkpt>
      <trkpt lat="48.2322" lon="-2.65965">
        <ele>211</ele>
        <time>2021-10-15T13:05:40.000Z</time>
      </trkpt>
      <trkpt lat="48.2322" lon="-2.65965">
        <ele>211</ele>
        <time>2021-10-15T13:05:41.000Z</time>
      </trkpt>
      <trkpt lat="48.2322" lon="-2.65965">
        <ele>211</ele>
        <time>2021-10-15T13:05:42.000Z</time>
      </trkpt>
      <trkpt lat="48.2322" lon="-2.65965">
        <ele>211</ele>
        <time>2021-10-15T13:05:43.000Z</time>
      </trkpt>
      <trkpt lat="48.2322" lon="-2.65966">
        <ele>211</ele>
        <time>2021-10-15T13:05:44.000Z</time>
      </trkpt>
      <trkpt lat="48.2322" lon="-2.65966">
        <ele>211</ele>
        <time>2021-10-15T13:05:45.000Z</time>
      </trkpt>
      <trkpt lat="48.2322" lon="-2.65966">
        <ele>211</ele>
        <time>2021-10-15T13:05:46.000Z</time>
      </trkpt>
      <trkpt lat="48.23219" lon="-2.65967">
        <ele>211</ele>
        <time>2021-10-15T13:05:47.000Z</time>
      </trkpt>
      <trkpt lat="48.23219" lon="-2.65967">
        <ele>211</ele>
        <time>2021-10-15T13:05:48.000Z</time>
      </trkpt>
      <trkpt lat="48.23219" lon="-2.65967">
        <ele>211</ele>
        <time>2021-10-15T13:05:49.000Z</time>
      </trkpt>
      <trkpt lat="48.23219" lon="-2.65968">
        <ele>211</ele>
        <time>2021-10-15T13:05:50.000Z</time>
      </trkpt>
      <trkpt lat="48.23219" lon="-2.65968">
        <ele>211</ele>
        <time>2021-10-15T13:05:51.000Z</time>
      </trkpt>
      <trkpt lat="48.23219" lon="-2.65968">
        <ele>211</ele>
        <time>2021-10-15T13:05:52.000Z</time>
      </trkpt>
      <trkpt lat="48.23218" lon="-2.65969">
        <ele>211</ele>
        <time>2021-10-15T13:05:53.000Z</time>
      </trkpt>
      <trkpt lat="48.23218" lon="-2.65969">
        <ele>211</ele>
        <time>2021-10-15T13:05:54.000Z</time>
      </trkpt>
      <trkpt lat="48.23218" lon="-2.65969">
        <ele>211</ele>
        <time>2021-10-15T13:05:55.000Z</time>
      </trkpt>
      <trkpt lat="48.23218" lon="-2.65969">
        <ele>211</ele>
        <time>2021-10-15T13:05:56.000Z</time>
      </trkpt>
      <trkpt lat="48.23217" lon="-2.65969">
        <ele>211</ele>
        <time>2021-10-15T13:05:57.000Z</time>
      </trkpt>
      <trkpt lat="48.23217" lon="-2.6597">
        <ele>211</ele>
        <time>2021-10-15T13:05:58.000Z</time>
      </trkpt>
      <trkpt lat="48.23217" lon="-2.6597">
        <ele>210.80000305176</ele>
        <time>2021-10-15T13:05:59.000Z</time>
      </trkpt>
      <trkpt lat="48.23217" lon="-2.6597">
        <ele>210.80000305176</ele>
        <time>2021-10-15T13:06:00.000Z</time>
      </trkpt>
      <trkpt lat="48.23216" lon="-2.65971">
        <ele>210.80000305176</ele>
        <time>2021-10-15T13:06:01.000Z</time>
      </trkpt>
      <trkpt lat="48.23216" lon="-2.65972">
        <ele>211</ele>
        <time>2021-10-15T13:06:02.000Z</time>
      </trkpt>
      <trkpt lat="48.23216" lon="-2.65973">
        <ele>211</ele>
        <time>2021-10-15T13:06:03.000Z</time>
      </trkpt>
      <trkpt lat="48.23217" lon="-2.65974">
        <ele>211</ele>
        <time>2021-10-15T13:06:04.000Z</time>
      </trkpt>
      <trkpt lat="48.23217" lon="-2.65974">
        <ele>211</ele>
        <time>2021-10-15T13:06:05.000Z</time>
      </trkpt>
      <trkpt lat="48.23217" lon="-2.65975">
        <ele>211.19999694824</ele>
        <time>2021-10-15T13:06:06.000Z</time>
      </trkpt>
      <trkpt lat="48.23217" lon="-2.65975">
        <ele>211.19999694824</ele>
        <time>2021-10-15T13:06:07.000Z</time>
      </trkpt>
      <trkpt lat="48.23217" lon="-2.65975">
        <ele>211.19999694824</ele>
        <time>2021-10-15T13:06:08.000Z</time>
      </trkpt>
      <trkpt lat="48.23217" lon="-2.65976">
        <ele>211.19999694824</ele>
        <time>2021-10-15T13:06:09.000Z</time>
      </trkpt>
      <trkpt lat="48.23218" lon="-2.65974">
        <ele>211</ele>
        <time>2021-10-15T13:06:10.000Z</time>
      </trkpt>
      <trkpt lat="48.23217" lon="-2.65974">
        <ele>211</ele>
        <time>2021-10-15T13:06:11.000Z</time>
      </trkpt>
      <trkpt lat="48.23217" lon="-2.65974">
        <ele>211</ele>
        <time>2021-10-15T13:06:12.000Z</time>
      </trkpt>
      <trkpt lat="48.23217" lon="-2.65974">
        <ele>211</ele>
        <time>2021-10-15T13:06:13.000Z</time>
      </trkpt>
      <trkpt lat="48.23217" lon="-2.65974">
        <ele>211</ele>
        <time>2021-10-15T13:06:14.000Z</time>
      </trkpt>
      <trkpt lat="48.23217" lon="-2.65974">
        <ele>211</ele>
        <time>2021-10-15T13:06:15.000Z</time>
      </trkpt>
      <trkpt lat="48.23216" lon="-2.65974">
        <ele>211</ele>
        <time>2021-10-15T13:06:16.000Z</time>
      </trkpt>
      <trkpt lat="48.23216" lon="-2.65974">
        <ele>211</ele>
        <time>2021-10-15T13:06:17.000Z</time>
      </trkpt>
      <trkpt lat="48.23216" lon="-2.65974">
        <ele>211</ele>
        <time>2021-10-15T13:06:18.000Z</time>
      </trkpt>
      <trkpt lat="48.23216" lon="-2.65974">
        <ele>211</ele>
        <time>2021-10-15T13:06:19.000Z</time>
      </trkpt>
      <trkpt lat="48.23216" lon="-2.65974">
        <ele>211</ele>
        <time>2021-10-15T13:06:20.000Z</time>
      </trkpt>
      <trkpt lat="48.23217" lon="-2.65973">
        <ele>211</ele>
        <time>2021-10-15T13:06:21.000Z</time>
      </trkpt>
      <trkpt lat="48.23217" lon="-2.65972">
        <ele>211</ele>
        <time>2021-10-15T13:06:22.000Z</time>
      </trkpt>
      <trkpt lat="48.23217" lon="-2.65972">
        <ele>211</ele>
        <time>2021-10-15T13:06:23.000Z</time>
      </trkpt>
      <trkpt lat="48.23217" lon="-2.65971">
        <ele>211</ele>
        <time>2021-10-15T13:06:24.000Z</time>
      </trkpt>
      <trkpt lat="48.23217" lon="-2.65971">
        <ele>211</ele>
        <time>2021-10-15T13:06:25.000Z</time>
      </trkpt>
      <trkpt lat="48.23217" lon="-2.65971">
        <ele>211</ele>
        <time>2021-10-15T13:06:26.000Z</time>
      </trkpt>
      <trkpt lat="48.23218" lon="-2.65972">
        <ele>211</ele>
        <time>2021-10-15T13:06:27.000Z</time>
      </trkpt>
      <trkpt lat="48.23218" lon="-2.65972">
        <ele>211</ele>
        <time>2021-10-15T13:06:28.000Z</time>
      </trkpt>
      <trkpt lat="48.23218" lon="-2.65972">
        <ele>211</ele>
        <time>2021-10-15T13:06:29.000Z</time>
      </trkpt>
      <trkpt lat="48.23219" lon="-2.65972">
        <ele>211.19999694824</ele>
        <time>2021-10-15T13:06:30.000Z</time>
      </trkpt>
      <trkpt lat="48.23219" lon="-2.65972">
        <ele>211.19999694824</ele>
        <time>2021-10-15T13:06:31.000Z</time>
      </trkpt>
      <trkpt lat="48.2322" lon="-2.65972">
        <ele>211.19999694824</ele>
        <time>2021-10-15T13:06:32.000Z</time>
      </trkpt>
      <trkpt lat="48.23221" lon="-2.65972">
        <ele>211.19999694824</ele>
        <time>2021-10-15T13:06:33.000Z</time>
      </trkpt>
      <trkpt lat="48.23221" lon="-2.65972">
        <ele>211.39999389648</ele>
        <time>2021-10-15T13:06:34.000Z</time>
      </trkpt>
      <trkpt lat="48.23222" lon="-2.65973">
        <ele>211.39999389648</ele>
        <time>2021-10-15T13:06:35.000Z</time>
      </trkpt>
      <trkpt lat="48.23222" lon="-2.65973">
        <ele>211.39999389648</ele>
        <time>2021-10-15T13:06:36.000Z</time>
      </trkpt>
      <trkpt lat="48.23222" lon="-2.65973">
        <ele>211.39999389648</ele>
        <time>2021-10-15T13:06:37.000Z</time>
      </trkpt>
      <trkpt lat="48.23223" lon="-2.65973">
        <ele>211.39999389648</ele>
        <time>2021-10-15T13:06:38.000Z</time>
      </trkpt>
      <trkpt lat="48.23223" lon="-2.65973">
        <ele>211.39999389648</ele>
        <time>2021-10-15T13:06:39.000Z</time>
      </trkpt>
      <trkpt lat="48.23224" lon="-2.65973">
        <ele>211.60000610352</ele>
        <time>2021-10-15T13:06:40.000Z</time>
      </trkpt>
      <trkpt lat="48.23224" lon="-2.65972">
        <ele>211.60000610352</ele>
        <time>2021-10-15T13:06:41.000Z</time>
      </trkpt>
      <trkpt lat="48.23225" lon="-2.65971">
        <ele>211.60000610352</ele>
        <time>2021-10-15T13:06:42.000Z</time>
      </trkpt>
      <trkpt lat="48.23225" lon="-2.65972">
        <ele>211.60000610352</ele>
        <time>2021-10-15T13:06:43.000Z</time>
      </trkpt>
      <trkpt lat="48.23225" lon="-2.65972">
        <ele>211.60000610352</ele>
        <time>2021-10-15T13:06:44.000Z</time>
      </trkpt>
      <trkpt lat="48.23225" lon="-2.6597">
        <ele>211.60000610352</ele>
        <time>2021-10-15T13:06:45.000Z</time>
      </trkpt>
      <trkpt lat="48.23225" lon="-2.65969">
        <ele>211.39999389648</ele>
        <time>2021-10-15T13:06:46.000Z</time>
      </trkpt>
      <trkpt lat="48.23225" lon="-2.65969">
        <ele>211.39999389648</ele>
        <time>2021-10-15T13:06:47.000Z</time>
      </trkpt>
      <trkpt lat="48.23225" lon="-2.65969">
        <ele>211.39999389648</ele>
        <time>2021-10-15T13:06:48.000Z</time>
      </trkpt>
      <trkpt lat="48.23225" lon="-2.65969">
        <ele>211.39999389648</ele>
        <time>2021-10-15T13:06:49.000Z</time>
      </trkpt>
      <trkpt lat="48.23224" lon="-2.65968">
        <ele>211.39999389648</ele>
        <time>2021-10-15T13:06:50.000Z</time>
      </trkpt>
      <trkpt lat="48.23224" lon="-2.65966">
        <ele>211.19999694824</ele>
        <time>2021-10-15T13:06:51.000Z</time>
      </trkpt>
      <trkpt lat="48.23224" lon="-2.65965">
        <ele>211.19999694824</ele>
        <time>2021-10-15T13:06:52.000Z</time>
      </trkpt>
      <trkpt lat="48.23223" lon="-2.65964">
        <ele>211.19999694824</ele>
        <time>2021-10-15T13:06:53.000Z</time>
      </trkpt>
      <trkpt lat="48.23223" lon="-2.65963">
        <ele>211</ele>
        <time>2021-10-15T13:06:54.000Z</time>
      </trkpt>
      <trkpt lat="48.23222" lon="-2.65963">
        <ele>211</ele>
        <time>2021-10-15T13:06:55.000Z</time>
      </trkpt>
      <trkpt lat="48.23221" lon="-2.65963">
        <ele>211</ele>
        <time>2021-10-15T13:06:56.000Z</time>
      </trkpt>
      <trkpt lat="48.2322" lon="-2.65962">
        <ele>210.80000305176</ele>
        <time>2021-10-15T13:06:57.000Z</time>
      </trkpt>
      <trkpt lat="48.2322" lon="-2.65962">
        <ele>210.80000305176</ele>
        <time>2021-10-15T13:06:58.000Z</time>
      </trkpt>
      <trkpt lat="48.2322" lon="-2.6596">
        <ele>210.80000305176</ele>
        <time>2021-10-15T13:06:59.000Z</time>
      </trkpt>
      <trkpt lat="48.23219" lon="-2.6596">
        <ele>210.80000305176</ele>
        <time>2021-10-15T13:07:00.000Z</time>
      </trkpt>
      <trkpt lat="48.23219" lon="-2.65959">
        <ele>210.60000610352</ele>
        <time>2021-10-15T13:07:01.000Z</time>
      </trkpt>
      <trkpt lat="48.23219" lon="-2.65959">
        <ele>210.60000610352</ele>
        <time>2021-10-15T13:07:02.000Z</time>
      </trkpt>
      <trkpt lat="48.23218" lon="-2.65959">
        <ele>210.60000610352</ele>
        <time>2021-10-15T13:07:03.000Z</time>
      </trkpt>
      <trkpt lat="48.23218" lon="-2.65959">
        <ele>210.60000610352</ele>
        <time>2021-10-15T13:07:04.000Z</time>
      </trkpt>
      <trkpt lat="48.23218" lon="-2.65958">
        <ele>210.60000610352</ele>
        <time>2021-10-15T13:07:05.000Z</time>
      </trkpt>
      <trkpt lat="48.23217" lon="-2.65958">
        <ele>210.60000610352</ele>
        <time>2021-10-15T13:07:06.000Z</time>
      </trkpt>
      <trkpt lat="48.23217" lon="-2.65958">
        <ele>210.39999389648</ele>
        <time>2021-10-15T13:07:07.000Z</time>
      </trkpt>
      <trkpt lat="48.23217" lon="-2.65958">
        <ele>210.39999389648</ele>
        <time>2021-10-15T13:07:08.000Z</time>
      </trkpt>
      <trkpt lat="48.23216" lon="-2.65958">
        <ele>210.39999389648</ele>
        <time>2021-10-15T13:07:09.000Z</time>
      </trkpt>
      <trkpt lat="48.23216" lon="-2.65958">
        <ele>210.39999389648</ele>
        <time>2021-10-15T13:07:10.000Z</time>
      </trkpt>
      <trkpt lat="48.23216" lon="-2.65958">
        <ele>210.39999389648</ele>
        <time>2021-10-15T13:07:11.000Z</time>
      </trkpt>
      <trkpt lat="48.23216" lon="-2.65957">
        <ele>210.39999389648</ele>
        <time>2021-10-15T13:07:12.000Z</time>
      </trkpt>
      <trkpt lat="48.23215" lon="-2.65957">
        <ele>210.39999389648</ele>
        <time>2021-10-15T13:07:13.000Z</time>
      </trkpt>
      <trkpt lat="48.23215" lon="-2.65958">
        <ele>210.39999389648</ele>
        <time>2021-10-15T13:07:14.000Z</time>
      </trkpt>
      <trkpt lat="48.23214" lon="-2.65958">
        <ele>210.19999694824</ele>
        <time>2021-10-15T13:07:15.000Z</time>
      </trkpt>
      <trkpt lat="48.23214" lon="-2.65958">
        <ele>210.19999694824</ele>
        <time>2021-10-15T13:07:16.000Z</time>
      </trkpt>
      <trkpt lat="48.23213" lon="-2.65958">
        <ele>210.19999694824</ele>
        <time>2021-10-15T13:07:17.000Z</time>
      </trkpt>
      <trkpt lat="48.23212" lon="-2.65957">
        <ele>210.19999694824</ele>
        <time>2021-10-15T13:07:18.000Z</time>
      </trkpt>
      <trkpt lat="48.23211" lon="-2.65957">
        <ele>210</ele>
        <time>2021-10-15T13:07:19.000Z</time>
      </trkpt>
      <trkpt lat="48.2321" lon="-2.65958">
        <ele>210</ele>
        <time>2021-10-15T13:07:20.000Z</time>
      </trkpt>
      <trkpt lat="48.23209" lon="-2.65959">
        <ele>210</ele>
        <time>2021-10-15T13:07:21.000Z</time>
      </trkpt>
      <trkpt lat="48.23208" lon="-2.65959">
        <ele>209.80000305176</ele>
        <time>2021-10-15T13:07:22.000Z</time>
      </trkpt>
      <trkpt lat="48.23208" lon="-2.65959">
        <ele>209.80000305176</ele>
        <time>2021-10-15T13:07:23.000Z</time>
      </trkpt>
      <trkpt lat="48.23207" lon="-2.6596">
        <ele>209.80000305176</ele>
        <time>2021-10-15T13:07:24.000Z</time>
      </trkpt>
      <trkpt lat="48.23207" lon="-2.65959">
        <ele>209.80000305176</ele>
        <time>2021-10-15T13:07:25.000Z</time>
      </trkpt>
      <trkpt lat="48.23205" lon="-2.6596">
        <ele>209.80000305176</ele>
        <time>2021-10-15T13:07:26.000Z</time>
      </trkpt>
      <trkpt lat="48.23204" lon="-2.6596">
        <ele>209.60000610352</ele>
        <time>2021-10-15T13:07:27.000Z</time>
      </trkpt>
      <trkpt lat="48.23203" lon="-2.6596">
        <ele>209.60000610352</ele>
        <time>2021-10-15T13:07:28.000Z</time>
      </trkpt>
      <trkpt lat="48.23201" lon="-2.6596">
        <ele>209.39999389648</ele>
        <time>2021-10-15T13:07:29.000Z</time>
      </trkpt>
      <trkpt lat="48.232" lon="-2.6596">
        <ele>209.39999389648</ele>
        <time>2021-10-15T13:07:30.000Z</time>
      </trkpt>
      <trkpt lat="48.23197" lon="-2.65961">
        <ele>209.19999694824</ele>
        <time>2021-10-15T13:07:31.000Z</time>
      </trkpt>
      <trkpt lat="48.23195" lon="-2.6596">
        <ele>209</ele>
        <time>2021-10-15T13:07:32.000Z</time>
      </trkpt>
      <trkpt lat="48.23192" lon="-2.6596">
        <ele>208.80000305176</ele>
        <time>2021-10-15T13:07:33.000Z</time>
      </trkpt>
      <trkpt lat="48.23189" lon="-2.65961">
        <ele>208.60000610352</ele>
        <time>2021-10-15T13:07:34.000Z</time>
      </trkpt>
      <trkpt lat="48.23186" lon="-2.65962">
        <ele>208.39999389648</ele>
        <time>2021-10-15T13:07:35.000Z</time>
      </trkpt>
      <trkpt lat="48.23182" lon="-2.65963">
        <ele>208.19999694824</ele>
        <time>2021-10-15T13:07:36.000Z</time>
      </trkpt>
      <trkpt lat="48.2318" lon="-2.65962">
        <ele>208</ele>
        <time>2021-10-15T13:07:37.000Z</time>
      </trkpt>
      <trkpt lat="48.23177" lon="-2.65962">
        <ele>207.80000305176</ele>
        <time>2021-10-15T13:07:38.000Z</time>
      </trkpt>
      <trkpt lat="48.23173" lon="-2.65962">
        <ele>207.39999389648</ele>
        <time>2021-10-15T13:07:39.000Z</time>
      </trkpt>
      <trkpt lat="48.2317" lon="-2.65963">
        <ele>207</ele>
        <time>2021-10-15T13:07:40.000Z</time>
      </trkpt>
      <trkpt lat="48.23166" lon="-2.65963">
        <ele>206.60000610352</ele>
        <time>2021-10-15T13:07:41.000Z</time>
      </trkpt>
      <trkpt lat="48.23163" lon="-2.65964">
        <ele>206</ele>
        <time>2021-10-15T13:07:42.000Z</time>
      </trkpt>
      <trkpt lat="48.23159" lon="-2.65964">
        <ele>205.60000610352</ele>
        <time>2021-10-15T13:07:43.000Z</time>
      </trkpt>
      <trkpt lat="48.23156" lon="-2.65964">
        <ele>205.19999694824</ele>
        <time>2021-10-15T13:07:44.000Z</time>
      </trkpt>
      <trkpt lat="48.23152" lon="-2.65965">
        <ele>204.60000610352</ele>
        <time>2021-10-15T13:07:45.000Z</time>
      </trkpt>
      <trkpt lat="48.23148" lon="-2.65964">
        <ele>204.19999694824</ele>
        <time>2021-10-15T13:07:46.000Z</time>
      </trkpt>
      <trkpt lat="48.23145" lon="-2.65964">
        <ele>203.60000610352</ele>
        <time>2021-10-15T13:07:47.000Z</time>
      </trkpt>
      <trkpt lat="48.23141" lon="-2.65964">
        <ele>203</ele>
        <time>2021-10-15T13:07:48.000Z</time>
      </trkpt>
      <trkpt lat="48.23137" lon="-2.65964">
        <ele>202.60000610352</ele>
        <time>2021-10-15T13:07:49.000Z</time>
      </trkpt>
      <trkpt lat="48.23133" lon="-2.65965">
        <ele>202.19999694824</ele>
        <time>2021-10-15T13:07:50.000Z</time>
      </trkpt>
      <trkpt lat="48.23129" lon="-2.65964">
        <ele>202</ele>
        <time>2021-10-15T13:07:51.000Z</time>
      </trkpt>
      <trkpt lat="48.23125" lon="-2.65965">
        <ele>202</ele>
        <time>2021-10-15T13:07:52.000Z</time>
      </trkpt>
      <trkpt lat="48.23121" lon="-2.65965">
        <ele>201.80000305176</ele>
        <time>2021-10-15T13:07:53.000Z</time>
      </trkpt>
      <trkpt lat="48.23118" lon="-2.65965">
        <ele>201.60000610352</ele>
        <time>2021-10-15T13:07:54.000Z</time>
      </trkpt>
      <trkpt lat="48.23114" lon="-2.65965">
        <ele>201.60000610352</ele>
        <time>2021-10-15T13:07:55.000Z</time>
      </trkpt>
      <trkpt lat="48.23109" lon="-2.65965">
        <ele>201.60000610352</ele>
        <time>2021-10-15T13:07:56.000Z</time>
      </trkpt>
      <trkpt lat="48.23105" lon="-2.65965">
        <ele>201.60000610352</ele>
        <time>2021-10-15T13:07:57.000Z</time>
      </trkpt>
      <trkpt lat="48.231" lon="-2.65965">
        <ele>201.39999389648</ele>
        <time>2021-10-15T13:07:58.000Z</time>
      </trkpt>
      <trkpt lat="48.23096" lon="-2.65965">
        <ele>201.39999389648</ele>
        <time>2021-10-15T13:07:59.000Z</time>
      </trkpt>
      <trkpt lat="48.23091" lon="-2.65966">
        <ele>201.19999694824</ele>
        <time>2021-10-15T13:08:00.000Z</time>
      </trkpt>
      <trkpt lat="48.23087" lon="-2.65966">
        <ele>201</ele>
        <time>2021-10-15T13:08:01.000Z</time>
      </trkpt>
      <trkpt lat="48.23083" lon="-2.65967">
        <ele>201</ele>
        <time>2021-10-15T13:08:02.000Z</time>
      </trkpt>
      <trkpt lat="48.23075" lon="-2.65966">
        <ele>201</ele>
        <time>2021-10-15T13:08:03.000Z</time>
      </trkpt>
      <trkpt lat="48.23075" lon="-2.65966">
        <ele>201</ele>
        <time>2021-10-15T13:08:04.000Z</time>
      </trkpt>
      <trkpt lat="48.23071" lon="-2.65965">
        <ele>200.60000610352</ele>
        <time>2021-10-15T13:08:05.000Z</time>
      </trkpt>
      <trkpt lat="48.23067" lon="-2.65965">
        <ele>200.39999389648</ele>
        <time>2021-10-15T13:08:06.000Z</time>
      </trkpt>
      <trkpt lat="48.23063" lon="-2.65966">
        <ele>200</ele>
        <time>2021-10-15T13:08:07.000Z</time>
      </trkpt>
      <trkpt lat="48.23058" lon="-2.65966">
        <ele>199.80000305176</ele>
        <time>2021-10-15T13:08:08.000Z</time>
      </trkpt>
      <trkpt lat="48.23054" lon="-2.65966">
        <ele>199.39999389648</ele>
        <time>2021-10-15T13:08:09.000Z</time>
      </trkpt>
      <trkpt lat="48.2305" lon="-2.65966">
        <ele>199.19999694824</ele>
        <time>2021-10-15T13:08:10.000Z</time>
      </trkpt>
      <trkpt lat="48.23045" lon="-2.65966">
        <ele>198.60000610352</ele>
        <time>2021-10-15T13:08:11.000Z</time>
      </trkpt>
      <trkpt lat="48.23041" lon="-2.65966">
        <ele>198.19999694824</ele>
        <time>2021-10-15T13:08:12.000Z</time>
      </trkpt>
      <trkpt lat="48.23038" lon="-2.65965">
        <ele>197.80000305176</ele>
        <time>2021-10-15T13:08:13.000Z</time>
      </trkpt>
      <trkpt lat="48.23034" lon="-2.65965">
        <ele>197.60000610352</ele>
        <time>2021-10-15T13:08:14.000Z</time>
      </trkpt>
      <trkpt lat="48.23031" lon="-2.65966">
        <ele>197.19999694824</ele>
        <time>2021-10-15T13:08:15.000Z</time>
      </trkpt>
      <trkpt lat="48.23028" lon="-2.65966">
        <ele>196.80000305176</ele>
        <time>2021-10-15T13:08:16.000Z</time>
      </trkpt>
      <trkpt lat="48.23024" lon="-2.65967">
        <ele>196.39999389648</ele>
        <time>2021-10-15T13:08:17.000Z</time>
      </trkpt>
      <trkpt lat="48.23021" lon="-2.65967">
        <ele>196</ele>
        <time>2021-10-15T13:08:18.000Z</time>
      </trkpt>
      <trkpt lat="48.23018" lon="-2.65968">
        <ele>195.80000305176</ele>
        <time>2021-10-15T13:08:19.000Z</time>
      </trkpt>
      <trkpt lat="48.23015" lon="-2.65968">
        <ele>195.39999389648</ele>
        <time>2021-10-15T13:08:20.000Z</time>
      </trkpt>
      <trkpt lat="48.23011" lon="-2.65968">
        <ele>195</ele>
        <time>2021-10-15T13:08:21.000Z</time>
      </trkpt>
      <trkpt lat="48.23008" lon="-2.65968">
        <ele>194.60000610352</ele>
        <time>2021-10-15T13:08:22.000Z</time>
      </trkpt>
      <trkpt lat="48.23005" lon="-2.65967">
        <ele>194.39999389648</ele>
        <time>2021-10-15T13:08:23.000Z</time>
      </trkpt>
      <trkpt lat="48.23001" lon="-2.65968">
        <ele>194</ele>
        <time>2021-10-15T13:08:24.000Z</time>
      </trkpt>
      <trkpt lat="48.22997" lon="-2.65969">
        <ele>193.60000610352</ele>
        <time>2021-10-15T13:08:25.000Z</time>
      </trkpt>
      <trkpt lat="48.22993" lon="-2.65969">
        <ele>193.19999694824</ele>
        <time>2021-10-15T13:08:26.000Z</time>
      </trkpt>
      <trkpt lat="48.2299" lon="-2.65969">
        <ele>193</ele>
        <time>2021-10-15T13:08:27.000Z</time>
      </trkpt>
      <trkpt lat="48.22986" lon="-2.65969">
        <ele>192.80000305176</ele>
        <time>2021-10-15T13:08:28.000Z</time>
      </trkpt>
      <trkpt lat="48.22983" lon="-2.6597">
        <ele>192.60000610352</ele>
        <time>2021-10-15T13:08:29.000Z</time>
      </trkpt>
      <trkpt lat="48.22979" lon="-2.65969">
        <ele>192.60000610352</ele>
        <time>2021-10-15T13:08:30.000Z</time>
      </trkpt>
      <trkpt lat="48.22976" lon="-2.65969">
        <ele>192.39999389648</ele>
        <time>2021-10-15T13:08:31.000Z</time>
      </trkpt>
      <trkpt lat="48.22972" lon="-2.65969">
        <ele>192.19999694824</ele>
        <time>2021-10-15T13:08:32.000Z</time>
      </trkpt>
      <trkpt lat="48.22969" lon="-2.65969">
        <ele>192.19999694824</ele>
        <time>2021-10-15T13:08:33.000Z</time>
      </trkpt>
      <trkpt lat="48.22965" lon="-2.6597">
        <ele>192</ele>
        <time>2021-10-15T13:08:34.000Z</time>
      </trkpt>
      <trkpt lat="48.22961" lon="-2.6597">
        <ele>191.80000305176</ele>
        <time>2021-10-15T13:08:35.000Z</time>
      </trkpt>
      <trkpt lat="48.22957" lon="-2.6597">
        <ele>191.39999389648</ele>
        <time>2021-10-15T13:08:36.000Z</time>
      </trkpt>
      <trkpt lat="48.22953" lon="-2.6597">
        <ele>191.19999694824</ele>
        <time>2021-10-15T13:08:37.000Z</time>
      </trkpt>
      <trkpt lat="48.22948" lon="-2.6597">
        <ele>190.80000305176</ele>
        <time>2021-10-15T13:08:38.000Z</time>
      </trkpt>
      <trkpt lat="48.22944" lon="-2.6597">
        <ele>190.60000610352</ele>
        <time>2021-10-15T13:08:39.000Z</time>
      </trkpt>
      <trkpt lat="48.22941" lon="-2.65969">
        <ele>190.19999694824</ele>
        <time>2021-10-15T13:08:40.000Z</time>
      </trkpt>
      <trkpt lat="48.22937" lon="-2.65969">
        <ele>190</ele>
        <time>2021-10-15T13:08:41.000Z</time>
      </trkpt>
      <trkpt lat="48.22933" lon="-2.65969">
        <ele>189.60000610352</ele>
        <time>2021-10-15T13:08:42.000Z</time>
      </trkpt>
      <trkpt lat="48.2293" lon="-2.6597">
        <ele>189</ele>
        <time>2021-10-15T13:08:43.000Z</time>
      </trkpt>
      <trkpt lat="48.22926" lon="-2.6597">
        <ele>188.39999389648</ele>
        <time>2021-10-15T13:08:44.000Z</time>
      </trkpt>
      <trkpt lat="48.22922" lon="-2.6597">
        <ele>188</ele>
        <time>2021-10-15T13:08:45.000Z</time>
      </trkpt>
      <trkpt lat="48.22918" lon="-2.6597">
        <ele>187.39999389648</ele>
        <time>2021-10-15T13:08:46.000Z</time>
      </trkpt>
      <trkpt lat="48.22914" lon="-2.65971">
        <ele>186.80000305176</ele>
        <time>2021-10-15T13:08:47.000Z</time>
      </trkpt>
      <trkpt lat="48.22911" lon="-2.65971">
        <ele>186.39999389648</ele>
        <time>2021-10-15T13:08:48.000Z</time>
      </trkpt>
      <trkpt lat="48.22907" lon="-2.65971">
        <ele>185.80000305176</ele>
        <time>2021-10-15T13:08:49.000Z</time>
      </trkpt>
      <trkpt lat="48.22899" lon="-2.65971">
        <ele>184.80000305176</ele>
        <time>2021-10-15T13:08:50.000Z</time>
      </trkpt>
      <trkpt lat="48.22899" lon="-2.65971">
        <ele>184.80000305176</ele>
        <time>2021-10-15T13:08:51.000Z</time>
      </trkpt>
      <trkpt lat="48.22895" lon="-2.65971">
        <ele>184.19999694824</ele>
        <time>2021-10-15T13:08:52.000Z</time>
      </trkpt>
      <trkpt lat="48.22888" lon="-2.65971">
        <ele>183.19999694824</ele>
        <time>2021-10-15T13:08:53.000Z</time>
      </trkpt>
      <trkpt lat="48.22888" lon="-2.65971">
        <ele>183.19999694824</ele>
        <time>2021-10-15T13:08:54.000Z</time>
      </trkpt>
      <trkpt lat="48.22884" lon="-2.65971">
        <ele>182.60000610352</ele>
        <time>2021-10-15T13:08:55.000Z</time>
      </trkpt>
      <trkpt lat="48.2288" lon="-2.65971">
        <ele>182</ele>
        <time>2021-10-15T13:08:56.000Z</time>
      </trkpt>
      <trkpt lat="48.22877" lon="-2.65971">
        <ele>181.39999389648</ele>
        <time>2021-10-15T13:08:57.000Z</time>
      </trkpt>
      <trkpt lat="48.22873" lon="-2.65972">
        <ele>180.60000610352</ele>
        <time>2021-10-15T13:08:58.000Z</time>
      </trkpt>
      <trkpt lat="48.22869" lon="-2.65972">
        <ele>179.80000305176</ele>
        <time>2021-10-15T13:08:59.000Z</time>
      </trkpt>
      <trkpt lat="48.22865" lon="-2.65973">
        <ele>179.19999694824</ele>
        <time>2021-10-15T13:09:00.000Z</time>
      </trkpt>
      <trkpt lat="48.22861" lon="-2.65973">
        <ele>178.60000610352</ele>
        <time>2021-10-15T13:09:01.000Z</time>
      </trkpt>
      <trkpt lat="48.22854" lon="-2.65972">
        <ele>177</ele>
        <time>2021-10-15T13:09:02.000Z</time>
      </trkpt>
      <trkpt lat="48.22854" lon="-2.65972">
        <ele>177</ele>
        <time>2021-10-15T13:09:03.000Z</time>
      </trkpt>
      <trkpt lat="48.2285" lon="-2.65972">
        <ele>176.19999694824</ele>
        <time>2021-10-15T13:09:04.000Z</time>
      </trkpt>
      <trkpt lat="48.22846" lon="-2.65973">
        <ele>175.60000610352</ele>
        <time>2021-10-15T13:09:05.000Z</time>
      </trkpt>
      <trkpt lat="48.22842" lon="-2.65973">
        <ele>175</ele>
        <time>2021-10-15T13:09:06.000Z</time>
      </trkpt>
      <trkpt lat="48.22838" lon="-2.65972">
        <ele>174.19999694824</ele>
        <time>2021-10-15T13:09:07.000Z</time>
      </trkpt>
      <trkpt lat="48.22835" lon="-2.65972">
        <ele>173.60000610352</ele>
        <time>2021-10-15T13:09:08.000Z</time>
      </trkpt>
      <trkpt lat="48.22832" lon="-2.65972">
        <ele>173</ele>
        <time>2021-10-15T13:09:09.000Z</time>
      </trkpt>
      <trkpt lat="48.22828" lon="-2.65973">
        <ele>172.39999389648</ele>
        <time>2021-10-15T13:09:10.000Z</time>
      </trkpt>
      <trkpt lat="48.22825" lon="-2.65973">
        <ele>172</ele>
        <time>2021-10-15T13:09:11.000Z</time>
      </trkpt>
      <trkpt lat="48.22817" lon="-2.65973">
        <ele>171.60000610352</ele>
        <time>2021-10-15T13:09:12.000Z</time>
      </trkpt>
      <trkpt lat="48.22817" lon="-2.65973">
        <ele>171.60000610352</ele>
        <time>2021-10-15T13:09:13.000Z</time>
      </trkpt>
      <trkpt lat="48.22813" lon="-2.65974">
        <ele>171.60000610352</ele>
        <time>2021-10-15T13:09:14.000Z</time>
      </trkpt>
      <trkpt lat="48.2281" lon="-2.65974">
        <ele>171.39999389648</ele>
        <time>2021-10-15T13:09:15.000Z</time>
      </trkpt>
      <trkpt lat="48.22805" lon="-2.65974">
        <ele>171.19999694824</ele>
        <time>2021-10-15T13:09:16.000Z</time>
      </trkpt>
      <trkpt lat="48.22801" lon="-2.65974">
        <ele>171.19999694824</ele>
        <time>2021-10-15T13:09:17.000Z</time>
      </trkpt>
      <trkpt lat="48.22797" lon="-2.65974">
        <ele>171</ele>
        <time>2021-10-15T13:09:18.000Z</time>
      </trkpt>
      <trkpt lat="48.22793" lon="-2.65974">
        <ele>170.80000305176</ele>
        <time>2021-10-15T13:09:19.000Z</time>
      </trkpt>
      <trkpt lat="48.22789" lon="-2.65975">
        <ele>170.39999389648</ele>
        <time>2021-10-15T13:09:20.000Z</time>
      </trkpt>
      <trkpt lat="48.22785" lon="-2.65975">
        <ele>170.19999694824</ele>
        <time>2021-10-15T13:09:21.000Z</time>
      </trkpt>
      <trkpt lat="48.22778" lon="-2.65976">
        <ele>169.60000610352</ele>
        <time>2021-10-15T13:09:22.000Z</time>
      </trkpt>
      <trkpt lat="48.22778" lon="-2.65976">
        <ele>169.60000610352</ele>
        <time>2021-10-15T13:09:23.000Z</time>
      </trkpt>
      <trkpt lat="48.22774" lon="-2.65977">
        <ele>169.19999694824</ele>
        <time>2021-10-15T13:09:24.000Z</time>
      </trkpt>
      <trkpt lat="48.22771" lon="-2.65977">
        <ele>169</ele>
        <time>2021-10-15T13:09:25.000Z</time>
      </trkpt>
      <trkpt lat="48.22767" lon="-2.65977">
        <ele>168.80000305176</ele>
        <time>2021-10-15T13:09:26.000Z</time>
      </trkpt>
      <trkpt lat="48.22764" lon="-2.65977">
        <ele>168.60000610352</ele>
        <time>2021-10-15T13:09:27.000Z</time>
      </trkpt>
      <trkpt lat="48.2276" lon="-2.65977">
        <ele>168.19999694824</ele>
        <time>2021-10-15T13:09:28.000Z</time>
      </trkpt>
      <trkpt lat="48.22757" lon="-2.65977">
        <ele>168</ele>
        <time>2021-10-15T13:09:29.000Z</time>
      </trkpt>
      <trkpt lat="48.22754" lon="-2.65977">
        <ele>167.80000305176</ele>
        <time>2021-10-15T13:09:30.000Z</time>
      </trkpt>
      <trkpt lat="48.2275" lon="-2.65977">
        <ele>167.60000610352</ele>
        <time>2021-10-15T13:09:31.000Z</time>
      </trkpt>
      <trkpt lat="48.22746" lon="-2.65978">
        <ele>167.19999694824</ele>
        <time>2021-10-15T13:09:32.000Z</time>
      </trkpt>
      <trkpt lat="48.22742" lon="-2.65978">
        <ele>167</ele>
        <time>2021-10-15T13:09:33.000Z</time>
      </trkpt>
      <trkpt lat="48.22738" lon="-2.65978">
        <ele>166.60000610352</ele>
        <time>2021-10-15T13:09:34.000Z</time>
      </trkpt>
      <trkpt lat="48.22733" lon="-2.65978">
        <ele>166.39999389648</ele>
        <time>2021-10-15T13:09:35.000Z</time>
      </trkpt>
      <trkpt lat="48.22728" lon="-2.65978">
        <ele>166</ele>
        <time>2021-10-15T13:09:36.000Z</time>
      </trkpt>
      <trkpt lat="48.22723" lon="-2.65979">
        <ele>165.60000610352</ele>
        <time>2021-10-15T13:09:37.000Z</time>
      </trkpt>
      <trkpt lat="48.22718" lon="-2.65979">
        <ele>165.19999694824</ele>
        <time>2021-10-15T13:09:38.000Z</time>
      </trkpt>
      <trkpt lat="48.22713" lon="-2.65979">
        <ele>165</ele>
        <time>2021-10-15T13:09:39.000Z</time>
      </trkpt>
      <trkpt lat="48.22703" lon="-2.65979">
        <ele>164.60000610352</ele>
        <time>2021-10-15T13:09:40.000Z</time>
      </trkpt>
      <trkpt lat="48.22703" lon="-2.65979">
        <ele>164.60000610352</ele>
        <time>2021-10-15T13:09:41.000Z</time>
      </trkpt>
      <trkpt lat="48.22699" lon="-2.65979">
        <ele>164.39999389648</ele>
        <time>2021-10-15T13:09:42.000Z</time>
      </trkpt>
      <trkpt lat="48.22694" lon="-2.65979">
        <ele>164.19999694824</ele>
        <time>2021-10-15T13:09:43.000Z</time>
      </trkpt>
      <trkpt lat="48.2269" lon="-2.6598">
        <ele>164.19999694824</ele>
        <time>2021-10-15T13:09:44.000Z</time>
      </trkpt>
      <trkpt lat="48.22685" lon="-2.6598">
        <ele>164</ele>
        <time>2021-10-15T13:09:45.000Z</time>
      </trkpt>
      <trkpt lat="48.22681" lon="-2.6598">
        <ele>164.19999694824</ele>
        <time>2021-10-15T13:09:46.000Z</time>
      </trkpt>
      <trkpt lat="48.22677" lon="-2.65981">
        <ele>164.19999694824</ele>
        <time>2021-10-15T13:09:47.000Z</time>
      </trkpt>
      <trkpt lat="48.22673" lon="-2.6598">
        <ele>164.19999694824</ele>
        <time>2021-10-15T13:09:48.000Z</time>
      </trkpt>
      <trkpt lat="48.22669" lon="-2.65981">
        <ele>164.19999694824</ele>
        <time>2021-10-15T13:09:49.000Z</time>
      </trkpt>
      <trkpt lat="48.22664" lon="-2.65981">
        <ele>164.19999694824</ele>
        <time>2021-10-15T13:09:50.000Z</time>
      </trkpt>
      <trkpt lat="48.2266" lon="-2.65981">
        <ele>164.19999694824</ele>
        <time>2021-10-15T13:09:51.000Z</time>
      </trkpt>
      <trkpt lat="48.22656" lon="-2.65981">
        <ele>164.19999694824</ele>
        <time>2021-10-15T13:09:52.000Z</time>
      </trkpt>
      <trkpt lat="48.22652" lon="-2.65982">
        <ele>164.39999389648</ele>
        <time>2021-10-15T13:09:53.000Z</time>
      </trkpt>
      <trkpt lat="48.22643" lon="-2.65983">
        <ele>164.80000305176</ele>
        <time>2021-10-15T13:09:54.000Z</time>
      </trkpt>
      <trkpt lat="48.22643" lon="-2.65983">
        <ele>164.80000305176</ele>
        <time>2021-10-15T13:09:55.000Z</time>
      </trkpt>
      <trkpt lat="48.2264" lon="-2.65984">
        <ele>165</ele>
        <time>2021-10-15T13:09:56.000Z</time>
      </trkpt>
      <trkpt lat="48.22637" lon="-2.65985">
        <ele>165.19999694824</ele>
        <time>2021-10-15T13:09:57.000Z</time>
      </trkpt>
      <trkpt lat="48.22634" lon="-2.65986">
        <ele>165.19999694824</ele>
        <time>2021-10-15T13:09:58.000Z</time>
      </trkpt>
      <trkpt lat="48.22631" lon="-2.65987">
        <ele>165.39999389648</ele>
        <time>2021-10-15T13:09:59.000Z</time>
      </trkpt>
      <trkpt lat="48.22628" lon="-2.65988">
        <ele>165.60000610352</ele>
        <time>2021-10-15T13:10:00.000Z</time>
      </trkpt>
      <trkpt lat="48.22625" lon="-2.65988">
        <ele>165.80000305176</ele>
        <time>2021-10-15T13:10:01.000Z</time>
      </trkpt>
      <trkpt lat="48.22623" lon="-2.65989">
        <ele>166</ele>
        <time>2021-10-15T13:10:02.000Z</time>
      </trkpt>
      <trkpt lat="48.2262" lon="-2.65989">
        <ele>166.19999694824</ele>
        <time>2021-10-15T13:10:03.000Z</time>
      </trkpt>
      <trkpt lat="48.22617" lon="-2.6599">
        <ele>166.60000610352</ele>
        <time>2021-10-15T13:10:04.000Z</time>
      </trkpt>
      <trkpt lat="48.22614" lon="-2.65991">
        <ele>166.80000305176</ele>
        <time>2021-10-15T13:10:05.000Z</time>
      </trkpt>
      <trkpt lat="48.22612" lon="-2.65991">
        <ele>167.19999694824</ele>
        <time>2021-10-15T13:10:06.000Z</time>
      </trkpt>
      <trkpt lat="48.22609" lon="-2.65991">
        <ele>167.39999389648</ele>
        <time>2021-10-15T13:10:07.000Z</time>
      </trkpt>
      <trkpt lat="48.22607" lon="-2.65992">
        <ele>167.60000610352</ele>
        <time>2021-10-15T13:10:08.000Z</time>
      </trkpt>
      <trkpt lat="48.22604" lon="-2.65993">
        <ele>168</ele>
        <time>2021-10-15T13:10:09.000Z</time>
      </trkpt>
      <trkpt lat="48.22602" lon="-2.65993">
        <ele>168.39999389648</ele>
        <time>2021-10-15T13:10:10.000Z</time>
      </trkpt>
      <trkpt lat="48.22599" lon="-2.65994">
        <ele>168.80000305176</ele>
        <time>2021-10-15T13:10:11.000Z</time>
      </trkpt>
      <trkpt lat="48.22596" lon="-2.65995">
        <ele>169.39999389648</ele>
        <time>2021-10-15T13:10:12.000Z</time>
      </trkpt>
      <trkpt lat="48.22593" lon="-2.65995">
        <ele>169.80000305176</ele>
        <time>2021-10-15T13:10:13.000Z</time>
      </trkpt>
      <trkpt lat="48.2259" lon="-2.65996">
        <ele>170.39999389648</ele>
        <time>2021-10-15T13:10:14.000Z</time>
      </trkpt>
      <trkpt lat="48.22588" lon="-2.65997">
        <ele>170.80000305176</ele>
        <time>2021-10-15T13:10:15.000Z</time>
      </trkpt>
      <trkpt lat="48.22583" lon="-2.65999">
        <ele>171.80000305176</ele>
        <time>2021-10-15T13:10:16.000Z</time>
      </trkpt>
      <trkpt lat="48.22583" lon="-2.65999">
        <ele>171.80000305176</ele>
        <time>2021-10-15T13:10:17.000Z</time>
      </trkpt>
      <trkpt lat="48.22581" lon="-2.66">
        <ele>172.19999694824</ele>
        <time>2021-10-15T13:10:18.000Z</time>
      </trkpt>
      <trkpt lat="48.22578" lon="-2.66001">
        <ele>172.60000610352</ele>
        <time>2021-10-15T13:10:19.000Z</time>
      </trkpt>
      <trkpt lat="48.22575" lon="-2.66001">
        <ele>173</ele>
        <time>2021-10-15T13:10:20.000Z</time>
      </trkpt>
      <trkpt lat="48.22573" lon="-2.66002">
        <ele>173.80000305176</ele>
        <time>2021-10-15T13:10:21.000Z</time>
      </trkpt>
      <trkpt lat="48.22568" lon="-2.66004">
        <ele>175</ele>
        <time>2021-10-15T13:10:22.000Z</time>
      </trkpt>
      <trkpt lat="48.22568" lon="-2.66004">
        <ele>175</ele>
        <time>2021-10-15T13:10:23.000Z</time>
      </trkpt>
      <trkpt lat="48.22565" lon="-2.66005">
        <ele>175.80000305176</ele>
        <time>2021-10-15T13:10:24.000Z</time>
      </trkpt>
      <trkpt lat="48.22563" lon="-2.66006">
        <ele>176.39999389648</ele>
        <time>2021-10-15T13:10:25.000Z</time>
      </trkpt>
      <trkpt lat="48.2256" lon="-2.66007">
        <ele>177</ele>
        <time>2021-10-15T13:10:26.000Z</time>
      </trkpt>
      <trkpt lat="48.22558" lon="-2.66008">
        <ele>177.60000610352</ele>
        <time>2021-10-15T13:10:27.000Z</time>
      </trkpt>
      <trkpt lat="48.22555" lon="-2.66009">
        <ele>178.19999694824</ele>
        <time>2021-10-15T13:10:28.000Z</time>
      </trkpt>
      <trkpt lat="48.22553" lon="-2.6601">
        <ele>178.80000305176</ele>
        <time>2021-10-15T13:10:29.000Z</time>
      </trkpt>
      <trkpt lat="48.22551" lon="-2.66011">
        <ele>179.39999389648</ele>
        <time>2021-10-15T13:10:30.000Z</time>
      </trkpt>
      <trkpt lat="48.22548" lon="-2.66012">
        <ele>179.80000305176</ele>
        <time>2021-10-15T13:10:31.000Z</time>
      </trkpt>
      <trkpt lat="48.22546" lon="-2.66013">
        <ele>180.39999389648</ele>
        <time>2021-10-15T13:10:32.000Z</time>
      </trkpt>
      <trkpt lat="48.22544" lon="-2.66014">
        <ele>181</ele>
        <time>2021-10-15T13:10:33.000Z</time>
      </trkpt>
      <trkpt lat="48.22542" lon="-2.66015">
        <ele>181.60000610352</ele>
        <time>2021-10-15T13:10:34.000Z</time>
      </trkpt>
      <trkpt lat="48.22539" lon="-2.66016">
        <ele>182.19999694824</ele>
        <time>2021-10-15T13:10:35.000Z</time>
      </trkpt>
      <trkpt lat="48.22537" lon="-2.66016">
        <ele>182.80000305176</ele>
        <time>2021-10-15T13:10:36.000Z</time>
      </trkpt>
      <trkpt lat="48.22534" lon="-2.66017">
        <ele>183.39999389648</ele>
        <time>2021-10-15T13:10:37.000Z</time>
      </trkpt>
      <trkpt lat="48.22532" lon="-2.66018">
        <ele>183.80000305176</ele>
        <time>2021-10-15T13:10:38.000Z</time>
      </trkpt>
      <trkpt lat="48.22529" lon="-2.66018">
        <ele>184.39999389648</ele>
        <time>2021-10-15T13:10:39.000Z</time>
      </trkpt>
      <trkpt lat="48.22526" lon="-2.66018">
        <ele>184.80000305176</ele>
        <time>2021-10-15T13:10:40.000Z</time>
      </trkpt>
      <trkpt lat="48.22524" lon="-2.66019">
        <ele>185.39999389648</ele>
        <time>2021-10-15T13:10:41.000Z</time>
      </trkpt>
      <trkpt lat="48.22521" lon="-2.6602">
        <ele>186</ele>
        <time>2021-10-15T13:10:42.000Z</time>
      </trkpt>
      <trkpt lat="48.22519" lon="-2.66021">
        <ele>186.39999389648</ele>
        <time>2021-10-15T13:10:43.000Z</time>
      </trkpt>
      <trkpt lat="48.22516" lon="-2.66022">
        <ele>186.60000610352</ele>
        <time>2021-10-15T13:10:44.000Z</time>
      </trkpt>
      <trkpt lat="48.22514" lon="-2.66023">
        <ele>187</ele>
        <time>2021-10-15T13:10:45.000Z</time>
      </trkpt>
      <trkpt lat="48.22511" lon="-2.66023">
        <ele>187.39999389648</ele>
        <time>2021-10-15T13:10:46.000Z</time>
      </trkpt>
      <trkpt lat="48.22508" lon="-2.66024">
        <ele>187.60000610352</ele>
        <time>2021-10-15T13:10:47.000Z</time>
      </trkpt>
      <trkpt lat="48.22506" lon="-2.66025">
        <ele>188</ele>
        <time>2021-10-15T13:10:48.000Z</time>
      </trkpt>
      <trkpt lat="48.22503" lon="-2.66025">
        <ele>188.19999694824</ele>
        <time>2021-10-15T13:10:49.000Z</time>
      </trkpt>
      <trkpt lat="48.22501" lon="-2.66025">
        <ele>188.60000610352</ele>
        <time>2021-10-15T13:10:50.000Z</time>
      </trkpt>
      <trkpt lat="48.22498" lon="-2.66026">
        <ele>189</ele>
        <time>2021-10-15T13:10:51.000Z</time>
      </trkpt>
      <trkpt lat="48.22495" lon="-2.66026">
        <ele>189.39999389648</ele>
        <time>2021-10-15T13:10:52.000Z</time>
      </trkpt>
      <trkpt lat="48.22491" lon="-2.66028">
        <ele>190</ele>
        <time>2021-10-15T13:10:53.000Z</time>
      </trkpt>
      <trkpt lat="48.22491" lon="-2.66028">
        <ele>190</ele>
        <time>2021-10-15T13:10:54.000Z</time>
      </trkpt>
      <trkpt lat="48.22488" lon="-2.66029">
        <ele>190.39999389648</ele>
        <time>2021-10-15T13:10:55.000Z</time>
      </trkpt>
      <trkpt lat="48.22486" lon="-2.6603">
        <ele>190.60000610352</ele>
        <time>2021-10-15T13:10:56.000Z</time>
      </trkpt>
      <trkpt lat="48.22483" lon="-2.6603">
        <ele>191</ele>
        <time>2021-10-15T13:10:57.000Z</time>
      </trkpt>
      <trkpt lat="48.22481" lon="-2.66031">
        <ele>191.19999694824</ele>
        <time>2021-10-15T13:10:58.000Z</time>
      </trkpt>
      <trkpt lat="48.22478" lon="-2.66032">
        <ele>191.39999389648</ele>
        <time>2021-10-15T13:10:59.000Z</time>
      </trkpt>
      <trkpt lat="48.22476" lon="-2.66033">
        <ele>191.80000305176</ele>
        <time>2021-10-15T13:11:00.000Z</time>
      </trkpt>
      <trkpt lat="48.22474" lon="-2.66033">
        <ele>192</ele>
        <time>2021-10-15T13:11:01.000Z</time>
      </trkpt>
      <trkpt lat="48.22472" lon="-2.66034">
        <ele>192.19999694824</ele>
        <time>2021-10-15T13:11:02.000Z</time>
      </trkpt>
      <trkpt lat="48.2247" lon="-2.66034">
        <ele>192.39999389648</ele>
        <time>2021-10-15T13:11:03.000Z</time>
      </trkpt>
      <trkpt lat="48.22468" lon="-2.66035">
        <ele>192.60000610352</ele>
        <time>2021-10-15T13:11:04.000Z</time>
      </trkpt>
      <trkpt lat="48.22466" lon="-2.66036">
        <ele>192.80000305176</ele>
        <time>2021-10-15T13:11:05.000Z</time>
      </trkpt>
      <trkpt lat="48.22463" lon="-2.66036">
        <ele>193.19999694824</ele>
        <time>2021-10-15T13:11:06.000Z</time>
      </trkpt>
      <trkpt lat="48.22461" lon="-2.66037">
        <ele>193.39999389648</ele>
        <time>2021-10-15T13:11:07.000Z</time>
      </trkpt>
      <trkpt lat="48.22459" lon="-2.66037">
        <ele>193.60000610352</ele>
        <time>2021-10-15T13:11:08.000Z</time>
      </trkpt>
      <trkpt lat="48.22457" lon="-2.66038">
        <ele>193.80000305176</ele>
        <time>2021-10-15T13:11:09.000Z</time>
      </trkpt>
      <trkpt lat="48.22455" lon="-2.66038">
        <ele>194</ele>
        <time>2021-10-15T13:11:10.000Z</time>
      </trkpt>
      <trkpt lat="48.22451" lon="-2.66039">
        <ele>194.60000610352</ele>
        <time>2021-10-15T13:11:11.000Z</time>
      </trkpt>
      <trkpt lat="48.22451" lon="-2.66039">
        <ele>194.60000610352</ele>
        <time>2021-10-15T13:11:12.000Z</time>
      </trkpt>
      <trkpt lat="48.22448" lon="-2.6604">
        <ele>194.80000305176</ele>
        <time>2021-10-15T13:11:13.000Z</time>
      </trkpt>
      <trkpt lat="48.22446" lon="-2.66041">
        <ele>195</ele>
        <time>2021-10-15T13:11:14.000Z</time>
      </trkpt>
      <trkpt lat="48.22444" lon="-2.66041">
        <ele>195.19999694824</ele>
        <time>2021-10-15T13:11:15.000Z</time>
      </trkpt>
      <trkpt lat="48.22441" lon="-2.66042">
        <ele>195.60000610352</ele>
        <time>2021-10-15T13:11:16.000Z</time>
      </trkpt>
      <trkpt lat="48.22439" lon="-2.66043">
        <ele>195.80000305176</ele>
        <time>2021-10-15T13:11:17.000Z</time>
      </trkpt>
      <trkpt lat="48.22436" lon="-2.66044">
        <ele>196</ele>
        <time>2021-10-15T13:11:18.000Z</time>
      </trkpt>
      <trkpt lat="48.22434" lon="-2.66044">
        <ele>196.19999694824</ele>
        <time>2021-10-15T13:11:19.000Z</time>
      </trkpt>
      <trkpt lat="48.22431" lon="-2.66045">
        <ele>196.39999389648</ele>
        <time>2021-10-15T13:11:20.000Z</time>
      </trkpt>
      <trkpt lat="48.22428" lon="-2.66046">
        <ele>196.60000610352</ele>
        <time>2021-10-15T13:11:21.000Z</time>
      </trkpt>
      <trkpt lat="48.22426" lon="-2.66047">
        <ele>196.80000305176</ele>
        <time>2021-10-15T13:11:22.000Z</time>
      </trkpt>
      <trkpt lat="48.22423" lon="-2.66048">
        <ele>197</ele>
        <time>2021-10-15T13:11:23.000Z</time>
      </trkpt>
      <trkpt lat="48.2242" lon="-2.66048">
        <ele>197.19999694824</ele>
        <time>2021-10-15T13:11:24.000Z</time>
      </trkpt>
      <trkpt lat="48.22417" lon="-2.66049">
        <ele>197.39999389648</ele>
        <time>2021-10-15T13:11:25.000Z</time>
      </trkpt>
      <trkpt lat="48.22414" lon="-2.6605">
        <ele>197.60000610352</ele>
        <time>2021-10-15T13:11:26.000Z</time>
      </trkpt>
      <trkpt lat="48.22411" lon="-2.66051">
        <ele>197.80000305176</ele>
        <time>2021-10-15T13:11:27.000Z</time>
      </trkpt>
      <trkpt lat="48.22408" lon="-2.66052">
        <ele>198</ele>
        <time>2021-10-15T13:11:28.000Z</time>
      </trkpt>
      <trkpt lat="48.22405" lon="-2.66053">
        <ele>198.19999694824</ele>
        <time>2021-10-15T13:11:29.000Z</time>
      </trkpt>
      <trkpt lat="48.22402" lon="-2.66054">
        <ele>198.19999694824</ele>
        <time>2021-10-15T13:11:30.000Z</time>
      </trkpt>
      <trkpt lat="48.22399" lon="-2.66054">
        <ele>198.39999389648</ele>
        <time>2021-10-15T13:11:31.000Z</time>
      </trkpt>
      <trkpt lat="48.22396" lon="-2.66055">
        <ele>198.39999389648</ele>
        <time>2021-10-15T13:11:32.000Z</time>
      </trkpt>
      <trkpt lat="48.22393" lon="-2.66056">
        <ele>198.60000610352</ele>
        <time>2021-10-15T13:11:33.000Z</time>
      </trkpt>
      <trkpt lat="48.2239" lon="-2.66057">
        <ele>198.60000610352</ele>
        <time>2021-10-15T13:11:34.000Z</time>
      </trkpt>
      <trkpt lat="48.22387" lon="-2.66058">
        <ele>198.80000305176</ele>
        <time>2021-10-15T13:11:35.000Z</time>
      </trkpt>
      <trkpt lat="48.22385" lon="-2.66059">
        <ele>198.80000305176</ele>
        <time>2021-10-15T13:11:36.000Z</time>
      </trkpt>
      <trkpt lat="48.22382" lon="-2.6606">
        <ele>199</ele>
        <time>2021-10-15T13:11:37.000Z</time>
      </trkpt>
      <trkpt lat="48.22379" lon="-2.6606">
        <ele>199.19999694824</ele>
        <time>2021-10-15T13:11:38.000Z</time>
      </trkpt>
      <trkpt lat="48.22376" lon="-2.66061">
        <ele>199.39999389648</ele>
        <time>2021-10-15T13:11:39.000Z</time>
      </trkpt>
      <trkpt lat="48.22373" lon="-2.66062">
        <ele>199.80000305176</ele>
        <time>2021-10-15T13:11:40.000Z</time>
      </trkpt>
      <trkpt lat="48.22367" lon="-2.66064">
        <ele>200.39999389648</ele>
        <time>2021-10-15T13:11:41.000Z</time>
      </trkpt>
      <trkpt lat="48.22367" lon="-2.66064">
        <ele>200.39999389648</ele>
        <time>2021-10-15T13:11:42.000Z</time>
      </trkpt>
      <trkpt lat="48.22364" lon="-2.66065">
        <ele>200.60000610352</ele>
        <time>2021-10-15T13:11:43.000Z</time>
      </trkpt>
      <trkpt lat="48.22361" lon="-2.66066">
        <ele>200.80000305176</ele>
        <time>2021-10-15T13:11:44.000Z</time>
      </trkpt>
      <trkpt lat="48.22359" lon="-2.66067">
        <ele>201.19999694824</ele>
        <time>2021-10-15T13:11:45.000Z</time>
      </trkpt>
      <trkpt lat="48.22356" lon="-2.66068">
        <ele>201.39999389648</ele>
        <time>2021-10-15T13:11:46.000Z</time>
      </trkpt>
      <trkpt lat="48.22353" lon="-2.66069">
        <ele>201.60000610352</ele>
        <time>2021-10-15T13:11:47.000Z</time>
      </trkpt>
      <trkpt lat="48.2235" lon="-2.6607">
        <ele>201.80000305176</ele>
        <time>2021-10-15T13:11:48.000Z</time>
      </trkpt>
      <trkpt lat="48.22347" lon="-2.66071">
        <ele>201.80000305176</ele>
        <time>2021-10-15T13:11:49.000Z</time>
      </trkpt>
      <trkpt lat="48.22344" lon="-2.66072">
        <ele>201.80000305176</ele>
        <time>2021-10-15T13:11:50.000Z</time>
      </trkpt>
      <trkpt lat="48.22341" lon="-2.66072">
        <ele>201.80000305176</ele>
        <time>2021-10-15T13:11:51.000Z</time>
      </trkpt>
      <trkpt lat="48.22338" lon="-2.66073">
        <ele>202</ele>
        <time>2021-10-15T13:11:52.000Z</time>
      </trkpt>
      <trkpt lat="48.22335" lon="-2.66074">
        <ele>202.19999694824</ele>
        <time>2021-10-15T13:11:53.000Z</time>
      </trkpt>
      <trkpt lat="48.22329" lon="-2.66076">
        <ele>202.39999389648</ele>
        <time>2021-10-15T13:11:54.000Z</time>
      </trkpt>
      <trkpt lat="48.22329" lon="-2.66076">
        <ele>202.39999389648</ele>
        <time>2021-10-15T13:11:55.000Z</time>
      </trkpt>
      <trkpt lat="48.22325" lon="-2.66077">
        <ele>202.60000610352</ele>
        <time>2021-10-15T13:11:56.000Z</time>
      </trkpt>
      <trkpt lat="48.22322" lon="-2.66078">
        <ele>202.39999389648</ele>
        <time>2021-10-15T13:11:57.000Z</time>
      </trkpt>
      <trkpt lat="48.22319" lon="-2.66079">
        <ele>202.19999694824</ele>
        <time>2021-10-15T13:11:58.000Z</time>
      </trkpt>
      <trkpt lat="48.22315" lon="-2.66081">
        <ele>202</ele>
        <time>2021-10-15T13:11:59.000Z</time>
      </trkpt>
      <trkpt lat="48.22312" lon="-2.66081">
        <ele>201.80000305176</ele>
        <time>2021-10-15T13:12:00.000Z</time>
      </trkpt>
      <trkpt lat="48.22308" lon="-2.66082">
        <ele>201.60000610352</ele>
        <time>2021-10-15T13:12:01.000Z</time>
      </trkpt>
      <trkpt lat="48.22304" lon="-2.66082">
        <ele>201.19999694824</ele>
        <time>2021-10-15T13:12:02.000Z</time>
      </trkpt>
      <trkpt lat="48.22301" lon="-2.66084">
        <ele>201</ele>
        <time>2021-10-15T13:12:03.000Z</time>
      </trkpt>
      <trkpt lat="48.22297" lon="-2.66085">
        <ele>200.80000305176</ele>
        <time>2021-10-15T13:12:04.000Z</time>
      </trkpt>
      <trkpt lat="48.22288" lon="-2.66087">
        <ele>200</ele>
        <time>2021-10-15T13:12:05.000Z</time>
      </trkpt>
      <trkpt lat="48.22288" lon="-2.66087">
        <ele>200</ele>
        <time>2021-10-15T13:12:06.000Z</time>
      </trkpt>
      <trkpt lat="48.22284" lon="-2.66089">
        <ele>199.60000610352</ele>
        <time>2021-10-15T13:12:07.000Z</time>
      </trkpt>
      <trkpt lat="48.2228" lon="-2.6609">
        <ele>199.19999694824</ele>
        <time>2021-10-15T13:12:08.000Z</time>
      </trkpt>
      <trkpt lat="48.22275" lon="-2.66091">
        <ele>198.60000610352</ele>
        <time>2021-10-15T13:12:09.000Z</time>
      </trkpt>
      <trkpt lat="48.22271" lon="-2.66093">
        <ele>198.19999694824</ele>
        <time>2021-10-15T13:12:10.000Z</time>
      </trkpt>
      <trkpt lat="48.22267" lon="-2.66094">
        <ele>197.80000305176</ele>
        <time>2021-10-15T13:12:11.000Z</time>
      </trkpt>
      <trkpt lat="48.22262" lon="-2.66095">
        <ele>197.39999389648</ele>
        <time>2021-10-15T13:12:12.000Z</time>
      </trkpt>
      <trkpt lat="48.22258" lon="-2.66097">
        <ele>197.19999694824</ele>
        <time>2021-10-15T13:12:13.000Z</time>
      </trkpt>
      <trkpt lat="48.22254" lon="-2.66098">
        <ele>196.80000305176</ele>
        <time>2021-10-15T13:12:14.000Z</time>
      </trkpt>
      <trkpt lat="48.22249" lon="-2.66099">
        <ele>196.60000610352</ele>
        <time>2021-10-15T13:12:15.000Z</time>
      </trkpt>
      <trkpt lat="48.22246" lon="-2.661">
        <ele>196.19999694824</ele>
        <time>2021-10-15T13:12:16.000Z</time>
      </trkpt>
      <trkpt lat="48.22242" lon="-2.66101">
        <ele>196</ele>
        <time>2021-10-15T13:12:17.000Z</time>
      </trkpt>
      <trkpt lat="48.22238" lon="-2.66103">
        <ele>195.60000610352</ele>
        <time>2021-10-15T13:12:18.000Z</time>
      </trkpt>
      <trkpt lat="48.22234" lon="-2.66104">
        <ele>195</ele>
        <time>2021-10-15T13:12:19.000Z</time>
      </trkpt>
      <trkpt lat="48.22229" lon="-2.66105">
        <ele>194.60000610352</ele>
        <time>2021-10-15T13:12:20.000Z</time>
      </trkpt>
      <trkpt lat="48.22224" lon="-2.66107">
        <ele>194</ele>
        <time>2021-10-15T13:12:21.000Z</time>
      </trkpt>
      <trkpt lat="48.2222" lon="-2.66108">
        <ele>193.60000610352</ele>
        <time>2021-10-15T13:12:22.000Z</time>
      </trkpt>
      <trkpt lat="48.22209" lon="-2.66111">
        <ele>192</ele>
        <time>2021-10-15T13:12:23.000Z</time>
      </trkpt>
      <trkpt lat="48.22209" lon="-2.66111">
        <ele>192</ele>
        <time>2021-10-15T13:12:24.000Z</time>
      </trkpt>
      <trkpt lat="48.22204" lon="-2.66113">
        <ele>191</ele>
        <time>2021-10-15T13:12:25.000Z</time>
      </trkpt>
      <trkpt lat="48.22198" lon="-2.66116">
        <ele>190.19999694824</ele>
        <time>2021-10-15T13:12:26.000Z</time>
      </trkpt>
      <trkpt lat="48.22193" lon="-2.66118">
        <ele>189.19999694824</ele>
        <time>2021-10-15T13:12:27.000Z</time>
      </trkpt>
      <trkpt lat="48.22187" lon="-2.6612">
        <ele>188</ele>
        <time>2021-10-15T13:12:28.000Z</time>
      </trkpt>
      <trkpt lat="48.22182" lon="-2.66122">
        <ele>187.80000305176</ele>
        <time>2021-10-15T13:12:29.000Z</time>
      </trkpt>
      <trkpt lat="48.22176" lon="-2.66124">
        <ele>187.60000610352</ele>
        <time>2021-10-15T13:12:30.000Z</time>
      </trkpt>
      <trkpt lat="48.2217" lon="-2.66127">
        <ele>187.60000610352</ele>
        <time>2021-10-15T13:12:31.000Z</time>
      </trkpt>
      <trkpt lat="48.22164" lon="-2.66128">
        <ele>187.60000610352</ele>
        <time>2021-10-15T13:12:32.000Z</time>
      </trkpt>
      <trkpt lat="48.22158" lon="-2.6613">
        <ele>187.39999389648</ele>
        <time>2021-10-15T13:12:33.000Z</time>
      </trkpt>
      <trkpt lat="48.22152" lon="-2.66132">
        <ele>187.19999694824</ele>
        <time>2021-10-15T13:12:34.000Z</time>
      </trkpt>
      <trkpt lat="48.22145" lon="-2.66134">
        <ele>186.80000305176</ele>
        <time>2021-10-15T13:12:35.000Z</time>
      </trkpt>
      <trkpt lat="48.22139" lon="-2.66135">
        <ele>186.60000610352</ele>
        <time>2021-10-15T13:12:36.000Z</time>
      </trkpt>
      <trkpt lat="48.22134" lon="-2.66137">
        <ele>186.39999389648</ele>
        <time>2021-10-15T13:12:37.000Z</time>
      </trkpt>
      <trkpt lat="48.22128" lon="-2.66139">
        <ele>186</ele>
        <time>2021-10-15T13:12:38.000Z</time>
      </trkpt>
      <trkpt lat="48.22122" lon="-2.66141">
        <ele>185.39999389648</ele>
        <time>2021-10-15T13:12:39.000Z</time>
      </trkpt>
      <trkpt lat="48.22116" lon="-2.66142">
        <ele>185</ele>
        <time>2021-10-15T13:12:40.000Z</time>
      </trkpt>
      <trkpt lat="48.2211" lon="-2.66143">
        <ele>184.39999389648</ele>
        <time>2021-10-15T13:12:41.000Z</time>
      </trkpt>
      <trkpt lat="48.22104" lon="-2.66144">
        <ele>184</ele>
        <time>2021-10-15T13:12:42.000Z</time>
      </trkpt>
      <trkpt lat="48.22099" lon="-2.66146">
        <ele>183.60000610352</ele>
        <time>2021-10-15T13:12:43.000Z</time>
      </trkpt>
      <trkpt lat="48.22093" lon="-2.66148">
        <ele>183</ele>
        <time>2021-10-15T13:12:44.000Z</time>
      </trkpt>
      <trkpt lat="48.22088" lon="-2.6615">
        <ele>182.39999389648</ele>
        <time>2021-10-15T13:12:45.000Z</time>
      </trkpt>
      <trkpt lat="48.22082" lon="-2.66151">
        <ele>181.80000305176</ele>
        <time>2021-10-15T13:12:46.000Z</time>
      </trkpt>
      <trkpt lat="48.22077" lon="-2.66153">
        <ele>181.19999694824</ele>
        <time>2021-10-15T13:12:47.000Z</time>
      </trkpt>
      <trkpt lat="48.22071" lon="-2.66155">
        <ele>181</ele>
        <time>2021-10-15T13:12:48.000Z</time>
      </trkpt>
      <trkpt lat="48.22065" lon="-2.66156">
        <ele>181</ele>
        <time>2021-10-15T13:12:49.000Z</time>
      </trkpt>
      <trkpt lat="48.22059" lon="-2.66157">
        <ele>181</ele>
        <time>2021-10-15T13:12:50.000Z</time>
      </trkpt>
      <trkpt lat="48.22054" lon="-2.66157">
        <ele>180.80000305176</ele>
        <time>2021-10-15T13:12:51.000Z</time>
      </trkpt>
      <trkpt lat="48.22048" lon="-2.66158">
        <ele>180.60000610352</ele>
        <time>2021-10-15T13:12:52.000Z</time>
      </trkpt>
      <trkpt lat="48.22037" lon="-2.66162">
        <ele>181</ele>
        <time>2021-10-15T13:12:53.000Z</time>
      </trkpt>
      <trkpt lat="48.22037" lon="-2.66162">
        <ele>181</ele>
        <time>2021-10-15T13:12:54.000Z</time>
      </trkpt>
      <trkpt lat="48.22032" lon="-2.66163">
        <ele>181.19999694824</ele>
        <time>2021-10-15T13:12:55.000Z</time>
      </trkpt>
      <trkpt lat="48.22027" lon="-2.66165">
        <ele>181.60000610352</ele>
        <time>2021-10-15T13:12:56.000Z</time>
      </trkpt>
      <trkpt lat="48.22023" lon="-2.66166">
        <ele>181.80000305176</ele>
        <time>2021-10-15T13:12:57.000Z</time>
      </trkpt>
      <trkpt lat="48.22018" lon="-2.66168">
        <ele>182</ele>
        <time>2021-10-15T13:12:58.000Z</time>
      </trkpt>
      <trkpt lat="48.22014" lon="-2.66169">
        <ele>182</ele>
        <time>2021-10-15T13:12:59.000Z</time>
      </trkpt>
      <trkpt lat="48.22009" lon="-2.6617">
        <ele>182</ele>
        <time>2021-10-15T13:13:00.000Z</time>
      </trkpt>
      <trkpt lat="48.22005" lon="-2.66172">
        <ele>182</ele>
        <time>2021-10-15T13:13:01.000Z</time>
      </trkpt>
      <trkpt lat="48.21997" lon="-2.66174">
        <ele>182.19999694824</ele>
        <time>2021-10-15T13:13:02.000Z</time>
      </trkpt>
      <trkpt lat="48.21997" lon="-2.66174">
        <ele>182.19999694824</ele>
        <time>2021-10-15T13:13:03.000Z</time>
      </trkpt>
      <trkpt lat="48.21993" lon="-2.66175">
        <ele>182.19999694824</ele>
        <time>2021-10-15T13:13:04.000Z</time>
      </trkpt>
      <trkpt lat="48.21989" lon="-2.66176">
        <ele>182.19999694824</ele>
        <time>2021-10-15T13:13:05.000Z</time>
      </trkpt>
      <trkpt lat="48.21985" lon="-2.66177">
        <ele>182.39999389648</ele>
        <time>2021-10-15T13:13:06.000Z</time>
      </trkpt>
      <trkpt lat="48.21981" lon="-2.66178">
        <ele>182.39999389648</ele>
        <time>2021-10-15T13:13:07.000Z</time>
      </trkpt>
      <trkpt lat="48.21978" lon="-2.66178">
        <ele>182.60000610352</ele>
        <time>2021-10-15T13:13:08.000Z</time>
      </trkpt>
      <trkpt lat="48.21974" lon="-2.66179">
        <ele>182.60000610352</ele>
        <time>2021-10-15T13:13:09.000Z</time>
      </trkpt>
      <trkpt lat="48.21971" lon="-2.6618">
        <ele>182.60000610352</ele>
        <time>2021-10-15T13:13:10.000Z</time>
      </trkpt>
      <trkpt lat="48.21968" lon="-2.66181">
        <ele>182.80000305176</ele>
        <time>2021-10-15T13:13:11.000Z</time>
      </trkpt>
      <trkpt lat="48.21962" lon="-2.66183">
        <ele>183</ele>
        <time>2021-10-15T13:13:12.000Z</time>
      </trkpt>
      <trkpt lat="48.21962" lon="-2.66183">
        <ele>183</ele>
        <time>2021-10-15T13:13:13.000Z</time>
      </trkpt>
      <trkpt lat="48.21959" lon="-2.66184">
        <ele>183.39999389648</ele>
        <time>2021-10-15T13:13:14.000Z</time>
      </trkpt>
      <trkpt lat="48.21956" lon="-2.66184">
        <ele>183.60000610352</ele>
        <time>2021-10-15T13:13:15.000Z</time>
      </trkpt>
      <trkpt lat="48.21953" lon="-2.66185">
        <ele>183.80000305176</ele>
        <time>2021-10-15T13:13:16.000Z</time>
      </trkpt>
      <trkpt lat="48.21949" lon="-2.66185">
        <ele>184.19999694824</ele>
        <time>2021-10-15T13:13:17.000Z</time>
      </trkpt>
      <trkpt lat="48.21946" lon="-2.66186">
        <ele>184.39999389648</ele>
        <time>2021-10-15T13:13:18.000Z</time>
      </trkpt>
      <trkpt lat="48.21943" lon="-2.66187">
        <ele>184.60000610352</ele>
        <time>2021-10-15T13:13:19.000Z</time>
      </trkpt>
      <trkpt lat="48.2194" lon="-2.66188">
        <ele>185</ele>
        <time>2021-10-15T13:13:20.000Z</time>
      </trkpt>
      <trkpt lat="48.21937" lon="-2.66189">
        <ele>185.19999694824</ele>
        <time>2021-10-15T13:13:21.000Z</time>
      </trkpt>
      <trkpt lat="48.21934" lon="-2.6619">
        <ele>185.60000610352</ele>
        <time>2021-10-15T13:13:22.000Z</time>
      </trkpt>
      <trkpt lat="48.21931" lon="-2.66191">
        <ele>185.80000305176</ele>
        <time>2021-10-15T13:13:23.000Z</time>
      </trkpt>
      <trkpt lat="48.21928" lon="-2.66192">
        <ele>186.19999694824</ele>
        <time>2021-10-15T13:13:24.000Z</time>
      </trkpt>
      <trkpt lat="48.21924" lon="-2.66193">
        <ele>186.39999389648</ele>
        <time>2021-10-15T13:13:25.000Z</time>
      </trkpt>
      <trkpt lat="48.21921" lon="-2.66194">
        <ele>186.80000305176</ele>
        <time>2021-10-15T13:13:26.000Z</time>
      </trkpt>
      <trkpt lat="48.21915" lon="-2.66197">
        <ele>187.39999389648</ele>
        <time>2021-10-15T13:13:27.000Z</time>
      </trkpt>
      <trkpt lat="48.21915" lon="-2.66197">
        <ele>187.39999389648</ele>
        <time>2021-10-15T13:13:28.000Z</time>
      </trkpt>
      <trkpt lat="48.21911" lon="-2.66198">
        <ele>187.80000305176</ele>
        <time>2021-10-15T13:13:29.000Z</time>
      </trkpt>
      <trkpt lat="48.21908" lon="-2.66199">
        <ele>188</ele>
        <time>2021-10-15T13:13:30.000Z</time>
      </trkpt>
      <trkpt lat="48.21904" lon="-2.662">
        <ele>188.39999389648</ele>
        <time>2021-10-15T13:13:31.000Z</time>
      </trkpt>
      <trkpt lat="48.21901" lon="-2.66201">
        <ele>188.60000610352</ele>
        <time>2021-10-15T13:13:32.000Z</time>
      </trkpt>
      <trkpt lat="48.21898" lon="-2.66203">
        <ele>189</ele>
        <time>2021-10-15T13:13:33.000Z</time>
      </trkpt>
      <trkpt lat="48.21894" lon="-2.66203">
        <ele>189.19999694824</ele>
        <time>2021-10-15T13:13:34.000Z</time>
      </trkpt>
      <trkpt lat="48.21891" lon="-2.66204">
        <ele>189.39999389648</ele>
        <time>2021-10-15T13:13:35.000Z</time>
      </trkpt>
      <trkpt lat="48.21887" lon="-2.66205">
        <ele>189.80000305176</ele>
        <time>2021-10-15T13:13:36.000Z</time>
      </trkpt>
      <trkpt lat="48.21884" lon="-2.66206">
        <ele>190</ele>
        <time>2021-10-15T13:13:37.000Z</time>
      </trkpt>
      <trkpt lat="48.2188" lon="-2.66207">
        <ele>190.39999389648</ele>
        <time>2021-10-15T13:13:38.000Z</time>
      </trkpt>
      <trkpt lat="48.21876" lon="-2.66207">
        <ele>190.60000610352</ele>
        <time>2021-10-15T13:13:39.000Z</time>
      </trkpt>
      <trkpt lat="48.21872" lon="-2.66209">
        <ele>191</ele>
        <time>2021-10-15T13:13:40.000Z</time>
      </trkpt>
      <trkpt lat="48.21868" lon="-2.6621">
        <ele>191.39999389648</ele>
        <time>2021-10-15T13:13:41.000Z</time>
      </trkpt>
      <trkpt lat="48.21864" lon="-2.66211">
        <ele>191.60000610352</ele>
        <time>2021-10-15T13:13:42.000Z</time>
      </trkpt>
      <trkpt lat="48.2186" lon="-2.66212">
        <ele>192</ele>
        <time>2021-10-15T13:13:43.000Z</time>
      </trkpt>
      <trkpt lat="48.21856" lon="-2.66213">
        <ele>192.39999389648</ele>
        <time>2021-10-15T13:13:44.000Z</time>
      </trkpt>
      <trkpt lat="48.21852" lon="-2.66215">
        <ele>192.60000610352</ele>
        <time>2021-10-15T13:13:45.000Z</time>
      </trkpt>
      <trkpt lat="48.21847" lon="-2.66216">
        <ele>193</ele>
        <time>2021-10-15T13:13:46.000Z</time>
      </trkpt>
      <trkpt lat="48.21843" lon="-2.66217">
        <ele>193.39999389648</ele>
        <time>2021-10-15T13:13:47.000Z</time>
      </trkpt>
      <trkpt lat="48.21839" lon="-2.66218">
        <ele>193.60000610352</ele>
        <time>2021-10-15T13:13:48.000Z</time>
      </trkpt>
      <trkpt lat="48.21836" lon="-2.6622">
        <ele>194</ele>
        <time>2021-10-15T13:13:49.000Z</time>
      </trkpt>
      <trkpt lat="48.21832" lon="-2.66221">
        <ele>194.39999389648</ele>
        <time>2021-10-15T13:13:50.000Z</time>
      </trkpt>
      <trkpt lat="48.21828" lon="-2.66222">
        <ele>194.60000610352</ele>
        <time>2021-10-15T13:13:51.000Z</time>
      </trkpt>
      <trkpt lat="48.21825" lon="-2.66224">
        <ele>195</ele>
        <time>2021-10-15T13:13:52.000Z</time>
      </trkpt>
      <trkpt lat="48.21821" lon="-2.66225">
        <ele>195</ele>
        <time>2021-10-15T13:13:53.000Z</time>
      </trkpt>
      <trkpt lat="48.21817" lon="-2.66225">
        <ele>195.19999694824</ele>
        <time>2021-10-15T13:13:54.000Z</time>
      </trkpt>
      <trkpt lat="48.21813" lon="-2.66226">
        <ele>195.39999389648</ele>
        <time>2021-10-15T13:13:55.000Z</time>
      </trkpt>
      <trkpt lat="48.21809" lon="-2.66227">
        <ele>195.60000610352</ele>
        <time>2021-10-15T13:13:56.000Z</time>
      </trkpt>
      <trkpt lat="48.21806" lon="-2.66228">
        <ele>195.80000305176</ele>
        <time>2021-10-15T13:13:57.000Z</time>
      </trkpt>
      <trkpt lat="48.21802" lon="-2.6623">
        <ele>196</ele>
        <time>2021-10-15T13:13:58.000Z</time>
      </trkpt>
      <trkpt lat="48.21799" lon="-2.6623">
        <ele>196</ele>
        <time>2021-10-15T13:13:59.000Z</time>
      </trkpt>
      <trkpt lat="48.21795" lon="-2.66232">
        <ele>196.39999389648</ele>
        <time>2021-10-15T13:14:00.000Z</time>
      </trkpt>
      <trkpt lat="48.21792" lon="-2.66233">
        <ele>196.60000610352</ele>
        <time>2021-10-15T13:14:01.000Z</time>
      </trkpt>
      <trkpt lat="48.21785" lon="-2.66235">
        <ele>197.19999694824</ele>
        <time>2021-10-15T13:14:02.000Z</time>
      </trkpt>
      <trkpt lat="48.21785" lon="-2.66235">
        <ele>197.19999694824</ele>
        <time>2021-10-15T13:14:03.000Z</time>
      </trkpt>
      <trkpt lat="48.21782" lon="-2.66236">
        <ele>197.39999389648</ele>
        <time>2021-10-15T13:14:04.000Z</time>
      </trkpt>
      <trkpt lat="48.21778" lon="-2.66238">
        <ele>197.80000305176</ele>
        <time>2021-10-15T13:14:05.000Z</time>
      </trkpt>
      <trkpt lat="48.21775" lon="-2.66239">
        <ele>198</ele>
        <time>2021-10-15T13:14:06.000Z</time>
      </trkpt>
      <trkpt lat="48.21768" lon="-2.66242">
        <ele>198.80000305176</ele>
        <time>2021-10-15T13:14:07.000Z</time>
      </trkpt>
      <trkpt lat="48.21768" lon="-2.66242">
        <ele>198.80000305176</ele>
        <time>2021-10-15T13:14:08.000Z</time>
      </trkpt>
      <trkpt lat="48.21765" lon="-2.66243">
        <ele>199</ele>
        <time>2021-10-15T13:14:09.000Z</time>
      </trkpt>
      <trkpt lat="48.21762" lon="-2.66244">
        <ele>199.39999389648</ele>
        <time>2021-10-15T13:14:10.000Z</time>
      </trkpt>
      <trkpt lat="48.21759" lon="-2.66245">
        <ele>199.80000305176</ele>
        <time>2021-10-15T13:14:11.000Z</time>
      </trkpt>
      <trkpt lat="48.21756" lon="-2.66247">
        <ele>200.19999694824</ele>
        <time>2021-10-15T13:14:12.000Z</time>
      </trkpt>
      <trkpt lat="48.21753" lon="-2.66248">
        <ele>200.60000610352</ele>
        <time>2021-10-15T13:14:13.000Z</time>
      </trkpt>
      <trkpt lat="48.2175" lon="-2.66249">
        <ele>201</ele>
        <time>2021-10-15T13:14:14.000Z</time>
      </trkpt>
      <trkpt lat="48.21747" lon="-2.66251">
        <ele>201.39999389648</ele>
        <time>2021-10-15T13:14:15.000Z</time>
      </trkpt>
      <trkpt lat="48.21744" lon="-2.66252">
        <ele>201.80000305176</ele>
        <time>2021-10-15T13:14:16.000Z</time>
      </trkpt>
      <trkpt lat="48.21741" lon="-2.66253">
        <ele>202.19999694824</ele>
        <time>2021-10-15T13:14:17.000Z</time>
      </trkpt>
      <trkpt lat="48.21738" lon="-2.66254">
        <ele>202.39999389648</ele>
        <time>2021-10-15T13:14:18.000Z</time>
      </trkpt>
      <trkpt lat="48.21736" lon="-2.66254">
        <ele>202.80000305176</ele>
        <time>2021-10-15T13:14:19.000Z</time>
      </trkpt>
      <trkpt lat="48.21733" lon="-2.66255">
        <ele>203</ele>
        <time>2021-10-15T13:14:20.000Z</time>
      </trkpt>
      <trkpt lat="48.2173" lon="-2.66256">
        <ele>203.39999389648</ele>
        <time>2021-10-15T13:14:21.000Z</time>
      </trkpt>
      <trkpt lat="48.21727" lon="-2.66256">
        <ele>203.60000610352</ele>
        <time>2021-10-15T13:14:22.000Z</time>
      </trkpt>
      <trkpt lat="48.21724" lon="-2.66257">
        <ele>204</ele>
        <time>2021-10-15T13:14:23.000Z</time>
      </trkpt>
      <trkpt lat="48.21722" lon="-2.66257">
        <ele>204.19999694824</ele>
        <time>2021-10-15T13:14:24.000Z</time>
      </trkpt>
      <trkpt lat="48.21719" lon="-2.66258">
        <ele>204.39999389648</ele>
        <time>2021-10-15T13:14:25.000Z</time>
      </trkpt>
      <trkpt lat="48.21717" lon="-2.66258">
        <ele>204.80000305176</ele>
        <time>2021-10-15T13:14:26.000Z</time>
      </trkpt>
      <trkpt lat="48.21714" lon="-2.66259">
        <ele>205</ele>
        <time>2021-10-15T13:14:27.000Z</time>
      </trkpt>
      <trkpt lat="48.21712" lon="-2.66259">
        <ele>205.19999694824</ele>
        <time>2021-10-15T13:14:28.000Z</time>
      </trkpt>
      <trkpt lat="48.2171" lon="-2.66259">
        <ele>205.39999389648</ele>
        <time>2021-10-15T13:14:29.000Z</time>
      </trkpt>
      <trkpt lat="48.21708" lon="-2.66259">
        <ele>205.80000305176</ele>
        <time>2021-10-15T13:14:30.000Z</time>
      </trkpt>
      <trkpt lat="48.21705" lon="-2.66259">
        <ele>206</ele>
        <time>2021-10-15T13:14:31.000Z</time>
      </trkpt>
      <trkpt lat="48.21703" lon="-2.66259">
        <ele>206.19999694824</ele>
        <time>2021-10-15T13:14:32.000Z</time>
      </trkpt>
      <trkpt lat="48.217" lon="-2.6626">
        <ele>206.60000610352</ele>
        <time>2021-10-15T13:14:33.000Z</time>
      </trkpt>
      <trkpt lat="48.21698" lon="-2.66261">
        <ele>206.80000305176</ele>
        <time>2021-10-15T13:14:34.000Z</time>
      </trkpt>
      <trkpt lat="48.21696" lon="-2.66262">
        <ele>207</ele>
        <time>2021-10-15T13:14:35.000Z</time>
      </trkpt>
      <trkpt lat="48.21694" lon="-2.66262">
        <ele>207.19999694824</ele>
        <time>2021-10-15T13:14:36.000Z</time>
      </trkpt>
      <trkpt lat="48.21692" lon="-2.66263">
        <ele>207.39999389648</ele>
        <time>2021-10-15T13:14:37.000Z</time>
      </trkpt>
      <trkpt lat="48.21689" lon="-2.66263">
        <ele>207.80000305176</ele>
        <time>2021-10-15T13:14:38.000Z</time>
      </trkpt>
      <trkpt lat="48.21687" lon="-2.66264">
        <ele>208</ele>
        <time>2021-10-15T13:14:39.000Z</time>
      </trkpt>
      <trkpt lat="48.21685" lon="-2.66264">
        <ele>208.19999694824</ele>
        <time>2021-10-15T13:14:40.000Z</time>
      </trkpt>
      <trkpt lat="48.21683" lon="-2.66265">
        <ele>208.19999694824</ele>
        <time>2021-10-15T13:14:41.000Z</time>
      </trkpt>
      <trkpt lat="48.2168" lon="-2.66265">
        <ele>208.39999389648</ele>
        <time>2021-10-15T13:14:42.000Z</time>
      </trkpt>
      <trkpt lat="48.21678" lon="-2.66265">
        <ele>208.60000610352</ele>
        <time>2021-10-15T13:14:43.000Z</time>
      </trkpt>
      <trkpt lat="48.21676" lon="-2.66266">
        <ele>208.80000305176</ele>
        <time>2021-10-15T13:14:44.000Z</time>
      </trkpt>
      <trkpt lat="48.21674" lon="-2.66266">
        <ele>209</ele>
        <time>2021-10-15T13:14:45.000Z</time>
      </trkpt>
      <trkpt lat="48.21671" lon="-2.66267">
        <ele>209.19999694824</ele>
        <time>2021-10-15T13:14:46.000Z</time>
      </trkpt>
      <trkpt lat="48.21669" lon="-2.66268">
        <ele>209.39999389648</ele>
        <time>2021-10-15T13:14:47.000Z</time>
      </trkpt>
      <trkpt lat="48.21667" lon="-2.66269">
        <ele>209.60000610352</ele>
        <time>2021-10-15T13:14:48.000Z</time>
      </trkpt>
      <trkpt lat="48.21665" lon="-2.66269">
        <ele>209.80000305176</ele>
        <time>2021-10-15T13:14:49.000Z</time>
      </trkpt>
      <trkpt lat="48.21662" lon="-2.6627">
        <ele>210</ele>
        <time>2021-10-15T13:14:50.000Z</time>
      </trkpt>
      <trkpt lat="48.2166" lon="-2.66271">
        <ele>210.19999694824</ele>
        <time>2021-10-15T13:14:51.000Z</time>
      </trkpt>
      <trkpt lat="48.21657" lon="-2.66271">
        <ele>210.60000610352</ele>
        <time>2021-10-15T13:14:52.000Z</time>
      </trkpt>
      <trkpt lat="48.21655" lon="-2.66272">
        <ele>210.80000305176</ele>
        <time>2021-10-15T13:14:53.000Z</time>
      </trkpt>
      <trkpt lat="48.21653" lon="-2.66273">
        <ele>211</ele>
        <time>2021-10-15T13:14:54.000Z</time>
      </trkpt>
      <trkpt lat="48.2165" lon="-2.66274">
        <ele>211.19999694824</ele>
        <time>2021-10-15T13:14:55.000Z</time>
      </trkpt>
      <trkpt lat="48.21648" lon="-2.66274">
        <ele>211.39999389648</ele>
        <time>2021-10-15T13:14:56.000Z</time>
      </trkpt>
      <trkpt lat="48.21646" lon="-2.66275">
        <ele>211.60000610352</ele>
        <time>2021-10-15T13:14:57.000Z</time>
      </trkpt>
      <trkpt lat="48.21643" lon="-2.66276">
        <ele>211.80000305176</ele>
        <time>2021-10-15T13:14:58.000Z</time>
      </trkpt>
      <trkpt lat="48.21641" lon="-2.66277">
        <ele>212</ele>
        <time>2021-10-15T13:14:59.000Z</time>
      </trkpt>
      <trkpt lat="48.21639" lon="-2.66278">
        <ele>212.39999389648</ele>
        <time>2021-10-15T13:15:00.000Z</time>
      </trkpt>
      <trkpt lat="48.21637" lon="-2.66278">
        <ele>212.60000610352</ele>
        <time>2021-10-15T13:15:01.000Z</time>
      </trkpt>
      <trkpt lat="48.21634" lon="-2.66279">
        <ele>212.80000305176</ele>
        <time>2021-10-15T13:15:02.000Z</time>
      </trkpt>
      <trkpt lat="48.21632" lon="-2.66279">
        <ele>213</ele>
        <time>2021-10-15T13:15:03.000Z</time>
      </trkpt>
      <trkpt lat="48.2163" lon="-2.6628">
        <ele>213.19999694824</ele>
        <time>2021-10-15T13:15:04.000Z</time>
      </trkpt>
      <trkpt lat="48.21628" lon="-2.6628">
        <ele>213.19999694824</ele>
        <time>2021-10-15T13:15:05.000Z</time>
      </trkpt>
      <trkpt lat="48.21625" lon="-2.66281">
        <ele>213.19999694824</ele>
        <time>2021-10-15T13:15:06.000Z</time>
      </trkpt>
      <trkpt lat="48.21623" lon="-2.66282">
        <ele>213.39999389648</ele>
        <time>2021-10-15T13:15:07.000Z</time>
      </trkpt>
      <trkpt lat="48.21621" lon="-2.66283">
        <ele>213.39999389648</ele>
        <time>2021-10-15T13:15:08.000Z</time>
      </trkpt>
      <trkpt lat="48.21618" lon="-2.66283">
        <ele>213.39999389648</ele>
        <time>2021-10-15T13:15:09.000Z</time>
      </trkpt>
      <trkpt lat="48.21616" lon="-2.66284">
        <ele>213.60000610352</ele>
        <time>2021-10-15T13:15:10.000Z</time>
      </trkpt>
      <trkpt lat="48.21613" lon="-2.66285">
        <ele>213.60000610352</ele>
        <time>2021-10-15T13:15:11.000Z</time>
      </trkpt>
      <trkpt lat="48.21611" lon="-2.66285">
        <ele>213.80000305176</ele>
        <time>2021-10-15T13:15:12.000Z</time>
      </trkpt>
      <trkpt lat="48.21606" lon="-2.66287">
        <ele>213.80000305176</ele>
        <time>2021-10-15T13:15:13.000Z</time>
      </trkpt>
      <trkpt lat="48.21606" lon="-2.66287">
        <ele>213.80000305176</ele>
        <time>2021-10-15T13:15:14.000Z</time>
      </trkpt>
      <trkpt lat="48.21604" lon="-2.66288">
        <ele>214</ele>
        <time>2021-10-15T13:15:15.000Z</time>
      </trkpt>
      <trkpt lat="48.21602" lon="-2.66289">
        <ele>213.80000305176</ele>
        <time>2021-10-15T13:15:16.000Z</time>
      </trkpt>
      <trkpt lat="48.21599" lon="-2.6629">
        <ele>213.80000305176</ele>
        <time>2021-10-15T13:15:17.000Z</time>
      </trkpt>
      <trkpt lat="48.21597" lon="-2.66291">
        <ele>213.60000610352</ele>
        <time>2021-10-15T13:15:18.000Z</time>
      </trkpt>
      <trkpt lat="48.21594" lon="-2.66292">
        <ele>213.39999389648</ele>
        <time>2021-10-15T13:15:19.000Z</time>
      </trkpt>
      <trkpt lat="48.21591" lon="-2.66293">
        <ele>213.19999694824</ele>
        <time>2021-10-15T13:15:20.000Z</time>
      </trkpt>
      <trkpt lat="48.21589" lon="-2.66293">
        <ele>213</ele>
        <time>2021-10-15T13:15:21.000Z</time>
      </trkpt>
      <trkpt lat="48.21587" lon="-2.66294">
        <ele>212.80000305176</ele>
        <time>2021-10-15T13:15:22.000Z</time>
      </trkpt>
      <trkpt lat="48.21584" lon="-2.66295">
        <ele>212.60000610352</ele>
        <time>2021-10-15T13:15:23.000Z</time>
      </trkpt>
      <trkpt lat="48.21582" lon="-2.66295">
        <ele>212.39999389648</ele>
        <time>2021-10-15T13:15:24.000Z</time>
      </trkpt>
      <trkpt lat="48.21577" lon="-2.66297">
        <ele>212</ele>
        <time>2021-10-15T13:15:25.000Z</time>
      </trkpt>
      <trkpt lat="48.21577" lon="-2.66297">
        <ele>212</ele>
        <time>2021-10-15T13:15:26.000Z</time>
      </trkpt>
      <trkpt lat="48.21574" lon="-2.66298">
        <ele>212</ele>
        <time>2021-10-15T13:15:27.000Z</time>
      </trkpt>
      <trkpt lat="48.21572" lon="-2.66299">
        <ele>211.80000305176</ele>
        <time>2021-10-15T13:15:28.000Z</time>
      </trkpt>
      <trkpt lat="48.2157" lon="-2.663">
        <ele>211.80000305176</ele>
        <time>2021-10-15T13:15:29.000Z</time>
      </trkpt>
      <trkpt lat="48.21567" lon="-2.66301">
        <ele>211.80000305176</ele>
        <time>2021-10-15T13:15:30.000Z</time>
      </trkpt>
      <trkpt lat="48.21565" lon="-2.66302">
        <ele>211.60000610352</ele>
        <time>2021-10-15T13:15:31.000Z</time>
      </trkpt>
      <trkpt lat="48.21563" lon="-2.66302">
        <ele>211.60000610352</ele>
        <time>2021-10-15T13:15:32.000Z</time>
      </trkpt>
      <trkpt lat="48.21561" lon="-2.66304">
        <ele>211.39999389648</ele>
        <time>2021-10-15T13:15:33.000Z</time>
      </trkpt>
      <trkpt lat="48.21558" lon="-2.66305">
        <ele>211.39999389648</ele>
        <time>2021-10-15T13:15:34.000Z</time>
      </trkpt>
      <trkpt lat="48.21555" lon="-2.66306">
        <ele>211.19999694824</ele>
        <time>2021-10-15T13:15:35.000Z</time>
      </trkpt>
      <trkpt lat="48.21552" lon="-2.66306">
        <ele>211.19999694824</ele>
        <time>2021-10-15T13:15:36.000Z</time>
      </trkpt>
      <trkpt lat="48.21549" lon="-2.66307">
        <ele>211</ele>
        <time>2021-10-15T13:15:37.000Z</time>
      </trkpt>
      <trkpt lat="48.21547" lon="-2.66308">
        <ele>211</ele>
        <time>2021-10-15T13:15:38.000Z</time>
      </trkpt>
      <trkpt lat="48.21544" lon="-2.66308">
        <ele>211.19999694824</ele>
        <time>2021-10-15T13:15:39.000Z</time>
      </trkpt>
      <trkpt lat="48.21542" lon="-2.66309">
        <ele>211.19999694824</ele>
        <time>2021-10-15T13:15:40.000Z</time>
      </trkpt>
      <trkpt lat="48.2154" lon="-2.66311">
        <ele>211.19999694824</ele>
        <time>2021-10-15T13:15:41.000Z</time>
      </trkpt>
      <trkpt lat="48.21538" lon="-2.66312">
        <ele>211.39999389648</ele>
        <time>2021-10-15T13:15:42.000Z</time>
      </trkpt>
      <trkpt lat="48.21537" lon="-2.66313">
        <ele>211.39999389648</ele>
        <time>2021-10-15T13:15:43.000Z</time>
      </trkpt>
      <trkpt lat="48.21535" lon="-2.66315">
        <ele>211.39999389648</ele>
        <time>2021-10-15T13:15:44.000Z</time>
      </trkpt>
      <trkpt lat="48.21534" lon="-2.66317">
        <ele>211.60000610352</ele>
        <time>2021-10-15T13:15:45.000Z</time>
      </trkpt>
      <trkpt lat="48.21532" lon="-2.6632">
        <ele>211.60000610352</ele>
        <time>2021-10-15T13:15:46.000Z</time>
      </trkpt>
      <trkpt lat="48.2153" lon="-2.66322">
        <ele>211.60000610352</ele>
        <time>2021-10-15T13:15:47.000Z</time>
      </trkpt>
      <trkpt lat="48.21528" lon="-2.66325">
        <ele>211.80000305176</ele>
        <time>2021-10-15T13:15:48.000Z</time>
      </trkpt>
      <trkpt lat="48.21526" lon="-2.66328">
        <ele>211.80000305176</ele>
        <time>2021-10-15T13:15:49.000Z</time>
      </trkpt>
      <trkpt lat="48.21522" lon="-2.66336">
        <ele>212</ele>
        <time>2021-10-15T13:15:50.000Z</time>
      </trkpt>
      <trkpt lat="48.21522" lon="-2.66336">
        <ele>212</ele>
        <time>2021-10-15T13:15:51.000Z</time>
      </trkpt>
      <trkpt lat="48.21519" lon="-2.6634">
        <ele>212</ele>
        <time>2021-10-15T13:15:52.000Z</time>
      </trkpt>
      <trkpt lat="48.21517" lon="-2.66344">
        <ele>212</ele>
        <time>2021-10-15T13:15:53.000Z</time>
      </trkpt>
      <trkpt lat="48.21516" lon="-2.66349">
        <ele>211.80000305176</ele>
        <time>2021-10-15T13:15:54.000Z</time>
      </trkpt>
      <trkpt lat="48.21513" lon="-2.66355">
        <ele>211.80000305176</ele>
        <time>2021-10-15T13:15:55.000Z</time>
      </trkpt>
      <trkpt lat="48.2151" lon="-2.6636">
        <ele>211.60000610352</ele>
        <time>2021-10-15T13:15:56.000Z</time>
      </trkpt>
      <trkpt lat="48.21508" lon="-2.66366">
        <ele>211.60000610352</ele>
        <time>2021-10-15T13:15:57.000Z</time>
      </trkpt>
      <trkpt lat="48.21504" lon="-2.66372">
        <ele>211.19999694824</ele>
        <time>2021-10-15T13:15:58.000Z</time>
      </trkpt>
      <trkpt lat="48.21501" lon="-2.66378">
        <ele>210.80000305176</ele>
        <time>2021-10-15T13:15:59.000Z</time>
      </trkpt>
      <trkpt lat="48.21498" lon="-2.66384">
        <ele>210.60000610352</ele>
        <time>2021-10-15T13:16:00.000Z</time>
      </trkpt>
      <trkpt lat="48.21495" lon="-2.66391">
        <ele>210.19999694824</ele>
        <time>2021-10-15T13:16:01.000Z</time>
      </trkpt>
      <trkpt lat="48.21492" lon="-2.66398">
        <ele>209.80000305176</ele>
        <time>2021-10-15T13:16:02.000Z</time>
      </trkpt>
      <trkpt lat="48.21488" lon="-2.66405">
        <ele>209.19999694824</ele>
        <time>2021-10-15T13:16:03.000Z</time>
      </trkpt>
      <trkpt lat="48.21484" lon="-2.66413">
        <ele>208.80000305176</ele>
        <time>2021-10-15T13:16:04.000Z</time>
      </trkpt>
      <trkpt lat="48.2148" lon="-2.6642">
        <ele>208.19999694824</ele>
        <time>2021-10-15T13:16:05.000Z</time>
      </trkpt>
      <trkpt lat="48.21476" lon="-2.66428">
        <ele>207.80000305176</ele>
        <time>2021-10-15T13:16:06.000Z</time>
      </trkpt>
      <trkpt lat="48.21472" lon="-2.66437">
        <ele>207.60000610352</ele>
        <time>2021-10-15T13:16:07.000Z</time>
      </trkpt>
      <trkpt lat="48.21467" lon="-2.66445">
        <ele>207.19999694824</ele>
        <time>2021-10-15T13:16:08.000Z</time>
      </trkpt>
      <trkpt lat="48.21462" lon="-2.66453">
        <ele>206.80000305176</ele>
        <time>2021-10-15T13:16:09.000Z</time>
      </trkpt>
      <trkpt lat="48.21457" lon="-2.66462">
        <ele>206.39999389648</ele>
        <time>2021-10-15T13:16:10.000Z</time>
      </trkpt>
      <trkpt lat="48.21452" lon="-2.66471">
        <ele>206.19999694824</ele>
        <time>2021-10-15T13:16:11.000Z</time>
      </trkpt>
      <trkpt lat="48.21447" lon="-2.66481">
        <ele>205.80000305176</ele>
        <time>2021-10-15T13:16:12.000Z</time>
      </trkpt>
      <trkpt lat="48.21441" lon="-2.66492">
        <ele>205.39999389648</ele>
        <time>2021-10-15T13:16:13.000Z</time>
      </trkpt>
      <trkpt lat="48.21435" lon="-2.66503">
        <ele>204.80000305176</ele>
        <time>2021-10-15T13:16:14.000Z</time>
      </trkpt>
      <trkpt lat="48.21429" lon="-2.66514">
        <ele>203.80000305176</ele>
        <time>2021-10-15T13:16:15.000Z</time>
      </trkpt>
      <trkpt lat="48.21423" lon="-2.66525">
        <ele>202.80000305176</ele>
        <time>2021-10-15T13:16:16.000Z</time>
      </trkpt>
      <trkpt lat="48.21417" lon="-2.66537">
        <ele>201.80000305176</ele>
        <time>2021-10-15T13:16:17.000Z</time>
      </trkpt>
      <trkpt lat="48.21411" lon="-2.66549">
        <ele>200.60000610352</ele>
        <time>2021-10-15T13:16:18.000Z</time>
      </trkpt>
      <trkpt lat="48.21405" lon="-2.66562">
        <ele>199.80000305176</ele>
        <time>2021-10-15T13:16:19.000Z</time>
      </trkpt>
      <trkpt lat="48.21399" lon="-2.66575">
        <ele>199.60000610352</ele>
        <time>2021-10-15T13:16:20.000Z</time>
      </trkpt>
      <trkpt lat="48.21393" lon="-2.66588">
        <ele>199.39999389648</ele>
        <time>2021-10-15T13:16:21.000Z</time>
      </trkpt>
      <trkpt lat="48.21387" lon="-2.666">
        <ele>199.19999694824</ele>
        <time>2021-10-15T13:16:22.000Z</time>
      </trkpt>
      <trkpt lat="48.2138" lon="-2.66612">
        <ele>198.80000305176</ele>
        <time>2021-10-15T13:16:23.000Z</time>
      </trkpt>
      <trkpt lat="48.21374" lon="-2.66625">
        <ele>198.80000305176</ele>
        <time>2021-10-15T13:16:24.000Z</time>
      </trkpt>
      <trkpt lat="48.21367" lon="-2.66636">
        <ele>199</ele>
        <time>2021-10-15T13:16:25.000Z</time>
      </trkpt>
      <trkpt lat="48.21361" lon="-2.66648">
        <ele>199</ele>
        <time>2021-10-15T13:16:26.000Z</time>
      </trkpt>
      <trkpt lat="48.21355" lon="-2.66659">
        <ele>198.80000305176</ele>
        <time>2021-10-15T13:16:27.000Z</time>
      </trkpt>
      <trkpt lat="48.2135" lon="-2.66671">
        <ele>198.60000610352</ele>
        <time>2021-10-15T13:16:28.000Z</time>
      </trkpt>
      <trkpt lat="48.21345" lon="-2.66683">
        <ele>198.39999389648</ele>
        <time>2021-10-15T13:16:29.000Z</time>
      </trkpt>
      <trkpt lat="48.21339" lon="-2.66694">
        <ele>198.39999389648</ele>
        <time>2021-10-15T13:16:30.000Z</time>
      </trkpt>
      <trkpt lat="48.21334" lon="-2.66705">
        <ele>197.80000305176</ele>
        <time>2021-10-15T13:16:31.000Z</time>
      </trkpt>
      <trkpt lat="48.21328" lon="-2.66717">
        <ele>197.19999694824</ele>
        <time>2021-10-15T13:16:32.000Z</time>
      </trkpt>
      <trkpt lat="48.21322" lon="-2.66728">
        <ele>196.80000305176</ele>
        <time>2021-10-15T13:16:33.000Z</time>
      </trkpt>
      <trkpt lat="48.21316" lon="-2.66738">
        <ele>196.39999389648</ele>
        <time>2021-10-15T13:16:34.000Z</time>
      </trkpt>
      <trkpt lat="48.2131" lon="-2.66749">
        <ele>196.19999694824</ele>
        <time>2021-10-15T13:16:35.000Z</time>
      </trkpt>
      <trkpt lat="48.21304" lon="-2.6676">
        <ele>195.80000305176</ele>
        <time>2021-10-15T13:16:36.000Z</time>
      </trkpt>
      <trkpt lat="48.21298" lon="-2.6677">
        <ele>195</ele>
        <time>2021-10-15T13:16:37.000Z</time>
      </trkpt>
      <trkpt lat="48.21291" lon="-2.66781">
        <ele>194.39999389648</ele>
        <time>2021-10-15T13:16:38.000Z</time>
      </trkpt>
      <trkpt lat="48.21285" lon="-2.66791">
        <ele>193.39999389648</ele>
        <time>2021-10-15T13:16:39.000Z</time>
      </trkpt>
      <trkpt lat="48.21279" lon="-2.66802">
        <ele>192.19999694824</ele>
        <time>2021-10-15T13:16:40.000Z</time>
      </trkpt>
      <trkpt lat="48.21272" lon="-2.66813">
        <ele>191.19999694824</ele>
        <time>2021-10-15T13:16:41.000Z</time>
      </trkpt>
      <trkpt lat="48.21266" lon="-2.66825">
        <ele>190</ele>
        <time>2021-10-15T13:16:42.000Z</time>
      </trkpt>
      <trkpt lat="48.21259" lon="-2.66837">
        <ele>188.80000305176</ele>
        <time>2021-10-15T13:16:43.000Z</time>
      </trkpt>
      <trkpt lat="48.21253" lon="-2.66849">
        <ele>188.19999694824</ele>
        <time>2021-10-15T13:16:44.000Z</time>
      </trkpt>
      <trkpt lat="48.21246" lon="-2.66862">
        <ele>187.39999389648</ele>
        <time>2021-10-15T13:16:45.000Z</time>
      </trkpt>
      <trkpt lat="48.21239" lon="-2.66875">
        <ele>186.80000305176</ele>
        <time>2021-10-15T13:16:46.000Z</time>
      </trkpt>
      <trkpt lat="48.21231" lon="-2.66888">
        <ele>186.60000610352</ele>
        <time>2021-10-15T13:16:47.000Z</time>
      </trkpt>
      <trkpt lat="48.21224" lon="-2.66901">
        <ele>186.39999389648</ele>
        <time>2021-10-15T13:16:48.000Z</time>
      </trkpt>
      <trkpt lat="48.21217" lon="-2.66915">
        <ele>186</ele>
        <time>2021-10-15T13:16:49.000Z</time>
      </trkpt>
      <trkpt lat="48.2121" lon="-2.66928">
        <ele>185.60000610352</ele>
        <time>2021-10-15T13:16:50.000Z</time>
      </trkpt>
      <trkpt lat="48.21203" lon="-2.66942">
        <ele>184.80000305176</ele>
        <time>2021-10-15T13:16:51.000Z</time>
      </trkpt>
      <trkpt lat="48.21196" lon="-2.66955">
        <ele>183.80000305176</ele>
        <time>2021-10-15T13:16:52.000Z</time>
      </trkpt>
      <trkpt lat="48.21188" lon="-2.66969">
        <ele>182.60000610352</ele>
        <time>2021-10-15T13:16:53.000Z</time>
      </trkpt>
      <trkpt lat="48.21181" lon="-2.66982">
        <ele>181</ele>
        <time>2021-10-15T13:16:54.000Z</time>
      </trkpt>
      <trkpt lat="48.21174" lon="-2.66996">
        <ele>179.60000610352</ele>
        <time>2021-10-15T13:16:55.000Z</time>
      </trkpt>
      <trkpt lat="48.21167" lon="-2.67009">
        <ele>178</ele>
        <time>2021-10-15T13:16:56.000Z</time>
      </trkpt>
      <trkpt lat="48.2116" lon="-2.67022">
        <ele>176.60000610352</ele>
        <time>2021-10-15T13:16:57.000Z</time>
      </trkpt>
      <trkpt lat="48.21153" lon="-2.67035">
        <ele>175.39999389648</ele>
        <time>2021-10-15T13:16:58.000Z</time>
      </trkpt>
      <trkpt lat="48.21146" lon="-2.67047">
        <ele>174.60000610352</ele>
        <time>2021-10-15T13:16:59.000Z</time>
      </trkpt>
      <trkpt lat="48.21139" lon="-2.67059">
        <ele>173.60000610352</ele>
        <time>2021-10-15T13:17:00.000Z</time>
      </trkpt>
      <trkpt lat="48.21134" lon="-2.67069">
        <ele>172.60000610352</ele>
        <time>2021-10-15T13:17:01.000Z</time>
      </trkpt>
      <trkpt lat="48.21129" lon="-2.6708">
        <ele>171.60000610352</ele>
        <time>2021-10-15T13:17:02.000Z</time>
      </trkpt>
      <trkpt lat="48.21124" lon="-2.6709">
        <ele>170.80000305176</ele>
        <time>2021-10-15T13:17:03.000Z</time>
      </trkpt>
      <trkpt lat="48.2112" lon="-2.67099">
        <ele>170.19999694824</ele>
        <time>2021-10-15T13:17:04.000Z</time>
      </trkpt>
      <trkpt lat="48.21115" lon="-2.67109">
        <ele>169.60000610352</ele>
        <time>2021-10-15T13:17:05.000Z</time>
      </trkpt>
      <trkpt lat="48.2111" lon="-2.67118">
        <ele>168.80000305176</ele>
        <time>2021-10-15T13:17:06.000Z</time>
      </trkpt>
      <trkpt lat="48.21105" lon="-2.67128">
        <ele>167.60000610352</ele>
        <time>2021-10-15T13:17:07.000Z</time>
      </trkpt>
      <trkpt lat="48.211" lon="-2.67138">
        <ele>166.60000610352</ele>
        <time>2021-10-15T13:17:08.000Z</time>
      </trkpt>
      <trkpt lat="48.21095" lon="-2.67148">
        <ele>165.39999389648</ele>
        <time>2021-10-15T13:17:09.000Z</time>
      </trkpt>
      <trkpt lat="48.21089" lon="-2.67157">
        <ele>164.60000610352</ele>
        <time>2021-10-15T13:17:10.000Z</time>
      </trkpt>
      <trkpt lat="48.21083" lon="-2.67166">
        <ele>163.60000610352</ele>
        <time>2021-10-15T13:17:11.000Z</time>
      </trkpt>
      <trkpt lat="48.21079" lon="-2.67175">
        <ele>162.80000305176</ele>
        <time>2021-10-15T13:17:12.000Z</time>
      </trkpt>
      <trkpt lat="48.21074" lon="-2.67183">
        <ele>161.60000610352</ele>
        <time>2021-10-15T13:17:13.000Z</time>
      </trkpt>
      <trkpt lat="48.2107" lon="-2.6719">
        <ele>160.60000610352</ele>
        <time>2021-10-15T13:17:14.000Z</time>
      </trkpt>
      <trkpt lat="48.21062" lon="-2.67204">
        <ele>158.80000305176</ele>
        <time>2021-10-15T13:17:15.000Z</time>
      </trkpt>
      <trkpt lat="48.21062" lon="-2.67204">
        <ele>158.80000305176</ele>
        <time>2021-10-15T13:17:16.000Z</time>
      </trkpt>
      <trkpt lat="48.21055" lon="-2.6722">
        <ele>157</ele>
        <time>2021-10-15T13:17:17.000Z</time>
      </trkpt>
      <trkpt lat="48.21055" lon="-2.6722">
        <ele>157</ele>
        <time>2021-10-15T13:17:18.000Z</time>
      </trkpt>
      <trkpt lat="48.21048" lon="-2.67236">
        <ele>155.60000610352</ele>
        <time>2021-10-15T13:17:19.000Z</time>
      </trkpt>
      <trkpt lat="48.21048" lon="-2.67236">
        <ele>155.60000610352</ele>
        <time>2021-10-15T13:17:20.000Z</time>
      </trkpt>
      <trkpt lat="48.2104" lon="-2.67251">
        <ele>155.19999694824</ele>
        <time>2021-10-15T13:17:21.000Z</time>
      </trkpt>
      <trkpt lat="48.2104" lon="-2.67251">
        <ele>155.19999694824</ele>
        <time>2021-10-15T13:17:22.000Z</time>
      </trkpt>
      <trkpt lat="48.21033" lon="-2.67265">
        <ele>154.60000610352</ele>
        <time>2021-10-15T13:17:23.000Z</time>
      </trkpt>
      <trkpt lat="48.21033" lon="-2.67265">
        <ele>154.60000610352</ele>
        <time>2021-10-15T13:17:24.000Z</time>
      </trkpt>
      <trkpt lat="48.21026" lon="-2.67277">
        <ele>154.19999694824</ele>
        <time>2021-10-15T13:17:25.000Z</time>
      </trkpt>
      <trkpt lat="48.21026" lon="-2.67277">
        <ele>154.19999694824</ele>
        <time>2021-10-15T13:17:26.000Z</time>
      </trkpt>
      <trkpt lat="48.2102" lon="-2.67289">
        <ele>154.19999694824</ele>
        <time>2021-10-15T13:17:27.000Z</time>
      </trkpt>
      <trkpt lat="48.2102" lon="-2.67289">
        <ele>154.19999694824</ele>
        <time>2021-10-15T13:17:28.000Z</time>
      </trkpt>
      <trkpt lat="48.21014" lon="-2.673">
        <ele>154.60000610352</ele>
        <time>2021-10-15T13:17:29.000Z</time>
      </trkpt>
      <trkpt lat="48.21014" lon="-2.673">
        <ele>154.60000610352</ele>
        <time>2021-10-15T13:17:30.000Z</time>
      </trkpt>
      <trkpt lat="48.21009" lon="-2.6731">
        <ele>155</ele>
        <time>2021-10-15T13:17:31.000Z</time>
      </trkpt>
      <trkpt lat="48.21009" lon="-2.6731">
        <ele>155</ele>
        <time>2021-10-15T13:17:32.000Z</time>
      </trkpt>
      <trkpt lat="48.21003" lon="-2.67318">
        <ele>155.19999694824</ele>
        <time>2021-10-15T13:17:33.000Z</time>
      </trkpt>
      <trkpt lat="48.21003" lon="-2.67318">
        <ele>155.19999694824</ele>
        <time>2021-10-15T13:17:34.000Z</time>
      </trkpt>
      <trkpt lat="48.20998" lon="-2.67327">
        <ele>155.60000610352</ele>
        <time>2021-10-15T13:17:35.000Z</time>
      </trkpt>
      <trkpt lat="48.20998" lon="-2.67327">
        <ele>155.60000610352</ele>
        <time>2021-10-15T13:17:36.000Z</time>
      </trkpt>
      <trkpt lat="48.20992" lon="-2.67335">
        <ele>155.80000305176</ele>
        <time>2021-10-15T13:17:37.000Z</time>
      </trkpt>
      <trkpt lat="48.20992" lon="-2.67335">
        <ele>155.80000305176</ele>
        <time>2021-10-15T13:17:38.000Z</time>
      </trkpt>
      <trkpt lat="48.2099" lon="-2.67339">
        <ele>156.19999694824</ele>
        <time>2021-10-15T13:17:39.000Z</time>
      </trkpt>
      <trkpt lat="48.20985" lon="-2.67347">
        <ele>156.80000305176</ele>
        <time>2021-10-15T13:17:40.000Z</time>
      </trkpt>
      <trkpt lat="48.20985" lon="-2.67347">
        <ele>156.80000305176</ele>
        <time>2021-10-15T13:17:41.000Z</time>
      </trkpt>
      <trkpt lat="48.2098" lon="-2.67355">
        <ele>157.60000610352</ele>
        <time>2021-10-15T13:17:42.000Z</time>
      </trkpt>
      <trkpt lat="48.2098" lon="-2.67355">
        <ele>157.60000610352</ele>
        <time>2021-10-15T13:17:43.000Z</time>
      </trkpt>
      <trkpt lat="48.20975" lon="-2.67364">
        <ele>158.39999389648</ele>
        <time>2021-10-15T13:17:44.000Z</time>
      </trkpt>
      <trkpt lat="48.20975" lon="-2.67364">
        <ele>158.39999389648</ele>
        <time>2021-10-15T13:17:45.000Z</time>
      </trkpt>
      <trkpt lat="48.20969" lon="-2.67372">
        <ele>159</ele>
        <time>2021-10-15T13:17:46.000Z</time>
      </trkpt>
      <trkpt lat="48.20969" lon="-2.67372">
        <ele>159</ele>
        <time>2021-10-15T13:17:47.000Z</time>
      </trkpt>
      <trkpt lat="48.20964" lon="-2.6738">
        <ele>159.60000610352</ele>
        <time>2021-10-15T13:17:48.000Z</time>
      </trkpt>
      <trkpt lat="48.20964" lon="-2.6738">
        <ele>159.60000610352</ele>
        <time>2021-10-15T13:17:49.000Z</time>
      </trkpt>
      <trkpt lat="48.2096" lon="-2.67389">
        <ele>160.19999694824</ele>
        <time>2021-10-15T13:17:50.000Z</time>
      </trkpt>
      <trkpt lat="48.2096" lon="-2.67389">
        <ele>160.19999694824</ele>
        <time>2021-10-15T13:17:51.000Z</time>
      </trkpt>
      <trkpt lat="48.20955" lon="-2.67398">
        <ele>160.60000610352</ele>
        <time>2021-10-15T13:17:52.000Z</time>
      </trkpt>
      <trkpt lat="48.20955" lon="-2.67398">
        <ele>160.60000610352</ele>
        <time>2021-10-15T13:17:53.000Z</time>
      </trkpt>
      <trkpt lat="48.20951" lon="-2.67406">
        <ele>161</ele>
        <time>2021-10-15T13:17:54.000Z</time>
      </trkpt>
      <trkpt lat="48.20951" lon="-2.67406">
        <ele>161</ele>
        <time>2021-10-15T13:17:55.000Z</time>
      </trkpt>
      <trkpt lat="48.20945" lon="-2.67413">
        <ele>161.39999389648</ele>
        <time>2021-10-15T13:17:56.000Z</time>
      </trkpt>
      <trkpt lat="48.20945" lon="-2.67413">
        <ele>161.39999389648</ele>
        <time>2021-10-15T13:17:57.000Z</time>
      </trkpt>
      <trkpt lat="48.2094" lon="-2.6742">
        <ele>161.80000305176</ele>
        <time>2021-10-15T13:17:58.000Z</time>
      </trkpt>
      <trkpt lat="48.2094" lon="-2.6742">
        <ele>161.80000305176</ele>
        <time>2021-10-15T13:17:59.000Z</time>
      </trkpt>
      <trkpt lat="48.20938" lon="-2.67424">
        <ele>162</ele>
        <time>2021-10-15T13:18:00.000Z</time>
      </trkpt>
      <trkpt lat="48.20932" lon="-2.67431">
        <ele>162.39999389648</ele>
        <time>2021-10-15T13:18:01.000Z</time>
      </trkpt>
      <trkpt lat="48.2093" lon="-2.67435">
        <ele>162.39999389648</ele>
        <time>2021-10-15T13:18:02.000Z</time>
      </trkpt>
      <trkpt lat="48.2093" lon="-2.67435">
        <ele>162.39999389648</ele>
        <time>2021-10-15T13:18:03.000Z</time>
      </trkpt>
      <trkpt lat="48.20927" lon="-2.67439">
        <ele>162.60000610352</ele>
        <time>2021-10-15T13:18:04.000Z</time>
      </trkpt>
      <trkpt lat="48.20922" lon="-2.67447">
        <ele>163</ele>
        <time>2021-10-15T13:18:05.000Z</time>
      </trkpt>
      <trkpt lat="48.20922" lon="-2.67447">
        <ele>163</ele>
        <time>2021-10-15T13:18:06.000Z</time>
      </trkpt>
      <trkpt lat="48.20917" lon="-2.67455">
        <ele>163.60000610352</ele>
        <time>2021-10-15T13:18:07.000Z</time>
      </trkpt>
      <trkpt lat="48.20917" lon="-2.67455">
        <ele>163.60000610352</ele>
        <time>2021-10-15T13:18:08.000Z</time>
      </trkpt>
      <trkpt lat="48.20913" lon="-2.67463">
        <ele>164.19999694824</ele>
        <time>2021-10-15T13:18:09.000Z</time>
      </trkpt>
      <trkpt lat="48.20913" lon="-2.67463">
        <ele>164.19999694824</ele>
        <time>2021-10-15T13:18:10.000Z</time>
      </trkpt>
      <trkpt lat="48.20907" lon="-2.6747">
        <ele>165</ele>
        <time>2021-10-15T13:18:11.000Z</time>
      </trkpt>
      <trkpt lat="48.20907" lon="-2.6747">
        <ele>165</ele>
        <time>2021-10-15T13:18:12.000Z</time>
      </trkpt>
      <trkpt lat="48.20902" lon="-2.67479">
        <ele>166.39999389648</ele>
        <time>2021-10-15T13:18:13.000Z</time>
      </trkpt>
      <trkpt lat="48.20902" lon="-2.67479">
        <ele>166.39999389648</ele>
        <time>2021-10-15T13:18:14.000Z</time>
      </trkpt>
      <trkpt lat="48.20896" lon="-2.67488">
        <ele>168</ele>
        <time>2021-10-15T13:18:15.000Z</time>
      </trkpt>
      <trkpt lat="48.20896" lon="-2.67488">
        <ele>168</ele>
        <time>2021-10-15T13:18:16.000Z</time>
      </trkpt>
      <trkpt lat="48.20891" lon="-2.67498">
        <ele>169.60000610352</ele>
        <time>2021-10-15T13:18:17.000Z</time>
      </trkpt>
      <trkpt lat="48.20891" lon="-2.67498">
        <ele>169.60000610352</ele>
        <time>2021-10-15T13:18:18.000Z</time>
      </trkpt>
      <trkpt lat="48.20887" lon="-2.67507">
        <ele>170.80000305176</ele>
        <time>2021-10-15T13:18:19.000Z</time>
      </trkpt>
      <trkpt lat="48.20887" lon="-2.67507">
        <ele>170.80000305176</ele>
        <time>2021-10-15T13:18:20.000Z</time>
      </trkpt>
      <trkpt lat="48.20883" lon="-2.67516">
        <ele>171.60000610352</ele>
        <time>2021-10-15T13:18:21.000Z</time>
      </trkpt>
      <trkpt lat="48.20883" lon="-2.67516">
        <ele>171.60000610352</ele>
        <time>2021-10-15T13:18:22.000Z</time>
      </trkpt>
      <trkpt lat="48.20878" lon="-2.67525">
        <ele>172.39999389648</ele>
        <time>2021-10-15T13:18:23.000Z</time>
      </trkpt>
      <trkpt lat="48.20878" lon="-2.67525">
        <ele>172.39999389648</ele>
        <time>2021-10-15T13:18:24.000Z</time>
      </trkpt>
      <trkpt lat="48.20873" lon="-2.67534">
        <ele>172.80000305176</ele>
        <time>2021-10-15T13:18:25.000Z</time>
      </trkpt>
      <trkpt lat="48.20873" lon="-2.67534">
        <ele>172.80000305176</ele>
        <time>2021-10-15T13:18:26.000Z</time>
      </trkpt>
      <trkpt lat="48.20869" lon="-2.67543">
        <ele>173</ele>
        <time>2021-10-15T13:18:27.000Z</time>
      </trkpt>
      <trkpt lat="48.20869" lon="-2.67543">
        <ele>173</ele>
        <time>2021-10-15T13:18:28.000Z</time>
      </trkpt>
      <trkpt lat="48.20864" lon="-2.67552">
        <ele>173.39999389648</ele>
        <time>2021-10-15T13:18:29.000Z</time>
      </trkpt>
      <trkpt lat="48.20864" lon="-2.67552">
        <ele>173.39999389648</ele>
        <time>2021-10-15T13:18:30.000Z</time>
      </trkpt>
      <trkpt lat="48.20858" lon="-2.6756">
        <ele>173.80000305176</ele>
        <time>2021-10-15T13:18:31.000Z</time>
      </trkpt>
      <trkpt lat="48.20858" lon="-2.6756">
        <ele>173.80000305176</ele>
        <time>2021-10-15T13:18:32.000Z</time>
      </trkpt>
      <trkpt lat="48.20853" lon="-2.67569">
        <ele>174.39999389648</ele>
        <time>2021-10-15T13:18:33.000Z</time>
      </trkpt>
      <trkpt lat="48.20853" lon="-2.67569">
        <ele>174.39999389648</ele>
        <time>2021-10-15T13:18:34.000Z</time>
      </trkpt>
      <trkpt lat="48.20848" lon="-2.67577">
        <ele>174.80000305176</ele>
        <time>2021-10-15T13:18:35.000Z</time>
      </trkpt>
      <trkpt lat="48.20848" lon="-2.67577">
        <ele>174.80000305176</ele>
        <time>2021-10-15T13:18:36.000Z</time>
      </trkpt>
      <trkpt lat="48.20842" lon="-2.67587">
        <ele>175.39999389648</ele>
        <time>2021-10-15T13:18:37.000Z</time>
      </trkpt>
      <trkpt lat="48.20842" lon="-2.67587">
        <ele>175.39999389648</ele>
        <time>2021-10-15T13:18:38.000Z</time>
      </trkpt>
      <trkpt lat="48.20837" lon="-2.67597">
        <ele>175.80000305176</ele>
        <time>2021-10-15T13:18:39.000Z</time>
      </trkpt>
      <trkpt lat="48.20837" lon="-2.67597">
        <ele>175.80000305176</ele>
        <time>2021-10-15T13:18:40.000Z</time>
      </trkpt>
      <trkpt lat="48.20832" lon="-2.67608">
        <ele>176.39999389648</ele>
        <time>2021-10-15T13:18:41.000Z</time>
      </trkpt>
      <trkpt lat="48.20832" lon="-2.67608">
        <ele>176.39999389648</ele>
        <time>2021-10-15T13:18:42.000Z</time>
      </trkpt>
      <trkpt lat="48.20829" lon="-2.67614">
        <ele>176.80000305176</ele>
        <time>2021-10-15T13:18:43.000Z</time>
      </trkpt>
      <trkpt lat="48.20823" lon="-2.67624">
        <ele>177.39999389648</ele>
        <time>2021-10-15T13:18:44.000Z</time>
      </trkpt>
      <trkpt lat="48.20823" lon="-2.67624">
        <ele>177.39999389648</ele>
        <time>2021-10-15T13:18:45.000Z</time>
      </trkpt>
      <trkpt lat="48.20816" lon="-2.67634">
        <ele>177.60000610352</ele>
        <time>2021-10-15T13:18:46.000Z</time>
      </trkpt>
      <trkpt lat="48.20816" lon="-2.67634">
        <ele>177.60000610352</ele>
        <time>2021-10-15T13:18:47.000Z</time>
      </trkpt>
      <trkpt lat="48.20811" lon="-2.67648">
        <ele>178.19999694824</ele>
        <time>2021-10-15T13:18:48.000Z</time>
      </trkpt>
      <trkpt lat="48.20811" lon="-2.67648">
        <ele>178.19999694824</ele>
        <time>2021-10-15T13:18:49.000Z</time>
      </trkpt>
      <trkpt lat="48.20804" lon="-2.67659">
        <ele>178.60000610352</ele>
        <time>2021-10-15T13:18:50.000Z</time>
      </trkpt>
      <trkpt lat="48.20804" lon="-2.67659">
        <ele>178.60000610352</ele>
        <time>2021-10-15T13:18:51.000Z</time>
      </trkpt>
      <trkpt lat="48.20799" lon="-2.67671">
        <ele>179</ele>
        <time>2021-10-15T13:18:52.000Z</time>
      </trkpt>
      <trkpt lat="48.20796" lon="-2.67676">
        <ele>179</ele>
        <time>2021-10-15T13:18:53.000Z</time>
      </trkpt>
      <trkpt lat="48.20796" lon="-2.67676">
        <ele>179</ele>
        <time>2021-10-15T13:18:54.000Z</time>
      </trkpt>
      <trkpt lat="48.20794" lon="-2.67681">
        <ele>179.19999694824</ele>
        <time>2021-10-15T13:18:55.000Z</time>
      </trkpt>
      <trkpt lat="48.20791" lon="-2.6769">
        <ele>179.19999694824</ele>
        <time>2021-10-15T13:18:56.000Z</time>
      </trkpt>
      <trkpt lat="48.20791" lon="-2.6769">
        <ele>179.19999694824</ele>
        <time>2021-10-15T13:18:57.000Z</time>
      </trkpt>
      <trkpt lat="48.20787" lon="-2.67699">
        <ele>179.39999389648</ele>
        <time>2021-10-15T13:18:58.000Z</time>
      </trkpt>
      <trkpt lat="48.20787" lon="-2.67699">
        <ele>179.39999389648</ele>
        <time>2021-10-15T13:18:59.000Z</time>
      </trkpt>
      <trkpt lat="48.20784" lon="-2.67706">
        <ele>180.19999694824</ele>
        <time>2021-10-15T13:19:00.000Z</time>
      </trkpt>
      <trkpt lat="48.20784" lon="-2.67706">
        <ele>180.19999694824</ele>
        <time>2021-10-15T13:19:01.000Z</time>
      </trkpt>
      <trkpt lat="48.20781" lon="-2.67713">
        <ele>181</ele>
        <time>2021-10-15T13:19:02.000Z</time>
      </trkpt>
      <trkpt lat="48.20781" lon="-2.67713">
        <ele>181</ele>
        <time>2021-10-15T13:19:03.000Z</time>
      </trkpt>
      <trkpt lat="48.20779" lon="-2.67717">
        <ele>181.60000610352</ele>
        <time>2021-10-15T13:19:04.000Z</time>
      </trkpt>
      <trkpt lat="48.20774" lon="-2.67724">
        <ele>182.39999389648</ele>
        <time>2021-10-15T13:19:05.000Z</time>
      </trkpt>
      <trkpt lat="48.20774" lon="-2.67724">
        <ele>182.39999389648</ele>
        <time>2021-10-15T13:19:06.000Z</time>
      </trkpt>
      <trkpt lat="48.20769" lon="-2.6773">
        <ele>183.39999389648</ele>
        <time>2021-10-15T13:19:07.000Z</time>
      </trkpt>
      <trkpt lat="48.20769" lon="-2.6773">
        <ele>183.39999389648</ele>
        <time>2021-10-15T13:19:08.000Z</time>
      </trkpt>
      <trkpt lat="48.20765" lon="-2.67738">
        <ele>185</ele>
        <time>2021-10-15T13:19:09.000Z</time>
      </trkpt>
      <trkpt lat="48.20765" lon="-2.67738">
        <ele>185</ele>
        <time>2021-10-15T13:19:10.000Z</time>
      </trkpt>
      <trkpt lat="48.20759" lon="-2.67746">
        <ele>187</ele>
        <time>2021-10-15T13:19:11.000Z</time>
      </trkpt>
      <trkpt lat="48.20759" lon="-2.67746">
        <ele>187</ele>
        <time>2021-10-15T13:19:12.000Z</time>
      </trkpt>
      <trkpt lat="48.20754" lon="-2.67754">
        <ele>188.80000305176</ele>
        <time>2021-10-15T13:19:13.000Z</time>
      </trkpt>
      <trkpt lat="48.20754" lon="-2.67754">
        <ele>188.80000305176</ele>
        <time>2021-10-15T13:19:14.000Z</time>
      </trkpt>
      <trkpt lat="48.20751" lon="-2.67759">
        <ele>190</ele>
        <time>2021-10-15T13:19:15.000Z</time>
      </trkpt>
      <trkpt lat="48.20749" lon="-2.67763">
        <ele>190.80000305176</ele>
        <time>2021-10-15T13:19:16.000Z</time>
      </trkpt>
      <trkpt lat="48.20745" lon="-2.6777">
        <ele>192.60000610352</ele>
        <time>2021-10-15T13:19:17.000Z</time>
      </trkpt>
      <trkpt lat="48.20745" lon="-2.6777">
        <ele>192.60000610352</ele>
        <time>2021-10-15T13:19:18.000Z</time>
      </trkpt>
      <trkpt lat="48.20741" lon="-2.67777">
        <ele>194.19999694824</ele>
        <time>2021-10-15T13:19:19.000Z</time>
      </trkpt>
      <trkpt lat="48.20741" lon="-2.67777">
        <ele>194.19999694824</ele>
        <time>2021-10-15T13:19:20.000Z</time>
      </trkpt>
      <trkpt lat="48.20738" lon="-2.67784">
        <ele>195.60000610352</ele>
        <time>2021-10-15T13:19:21.000Z</time>
      </trkpt>
      <trkpt lat="48.20738" lon="-2.67784">
        <ele>195.60000610352</ele>
        <time>2021-10-15T13:19:22.000Z</time>
      </trkpt>
      <trkpt lat="48.20734" lon="-2.67792">
        <ele>196.60000610352</ele>
        <time>2021-10-15T13:19:23.000Z</time>
      </trkpt>
      <trkpt lat="48.20734" lon="-2.67792">
        <ele>196.60000610352</ele>
        <time>2021-10-15T13:19:24.000Z</time>
      </trkpt>
      <trkpt lat="48.2073" lon="-2.678">
        <ele>197.60000610352</ele>
        <time>2021-10-15T13:19:25.000Z</time>
      </trkpt>
      <trkpt lat="48.2073" lon="-2.678">
        <ele>197.60000610352</ele>
        <time>2021-10-15T13:19:26.000Z</time>
      </trkpt>
      <trkpt lat="48.20727" lon="-2.67808">
        <ele>198.39999389648</ele>
        <time>2021-10-15T13:19:27.000Z</time>
      </trkpt>
      <trkpt lat="48.20727" lon="-2.67808">
        <ele>198.39999389648</ele>
        <time>2021-10-15T13:19:28.000Z</time>
      </trkpt>
      <trkpt lat="48.20724" lon="-2.67816">
        <ele>199</ele>
        <time>2021-10-15T13:19:29.000Z</time>
      </trkpt>
      <trkpt lat="48.20724" lon="-2.67816">
        <ele>199</ele>
        <time>2021-10-15T13:19:30.000Z</time>
      </trkpt>
      <trkpt lat="48.20721" lon="-2.67825">
        <ele>199.19999694824</ele>
        <time>2021-10-15T13:19:31.000Z</time>
      </trkpt>
      <trkpt lat="48.20721" lon="-2.67825">
        <ele>199.19999694824</ele>
        <time>2021-10-15T13:19:32.000Z</time>
      </trkpt>
      <trkpt lat="48.20718" lon="-2.67832">
        <ele>199.60000610352</ele>
        <time>2021-10-15T13:19:33.000Z</time>
      </trkpt>
      <trkpt lat="48.20718" lon="-2.67832">
        <ele>199.60000610352</ele>
        <time>2021-10-15T13:19:34.000Z</time>
      </trkpt>
      <trkpt lat="48.20715" lon="-2.6784">
        <ele>200</ele>
        <time>2021-10-15T13:19:35.000Z</time>
      </trkpt>
      <trkpt lat="48.20715" lon="-2.6784">
        <ele>200</ele>
        <time>2021-10-15T13:19:36.000Z</time>
      </trkpt>
      <trkpt lat="48.20712" lon="-2.67848">
        <ele>200</ele>
        <time>2021-10-15T13:19:37.000Z</time>
      </trkpt>
      <trkpt lat="48.20712" lon="-2.67848">
        <ele>200</ele>
        <time>2021-10-15T13:19:38.000Z</time>
      </trkpt>
      <trkpt lat="48.20708" lon="-2.67855">
        <ele>200</ele>
        <time>2021-10-15T13:19:39.000Z</time>
      </trkpt>
      <trkpt lat="48.20708" lon="-2.67855">
        <ele>200</ele>
        <time>2021-10-15T13:19:40.000Z</time>
      </trkpt>
      <trkpt lat="48.20704" lon="-2.67862">
        <ele>200</ele>
        <time>2021-10-15T13:19:41.000Z</time>
      </trkpt>
      <trkpt lat="48.20704" lon="-2.67862">
        <ele>200</ele>
        <time>2021-10-15T13:19:42.000Z</time>
      </trkpt>
      <trkpt lat="48.207" lon="-2.67869">
        <ele>200</ele>
        <time>2021-10-15T13:19:43.000Z</time>
      </trkpt>
      <trkpt lat="48.207" lon="-2.67869">
        <ele>200</ele>
        <time>2021-10-15T13:19:44.000Z</time>
      </trkpt>
      <trkpt lat="48.20696" lon="-2.67876">
        <ele>200</ele>
        <time>2021-10-15T13:19:45.000Z</time>
      </trkpt>
      <trkpt lat="48.20696" lon="-2.67876">
        <ele>200</ele>
        <time>2021-10-15T13:19:46.000Z</time>
      </trkpt>
      <trkpt lat="48.20695" lon="-2.67879">
        <ele>200</ele>
        <time>2021-10-15T13:19:47.000Z</time>
      </trkpt>
      <trkpt lat="48.20693" lon="-2.67887">
        <ele>200</ele>
        <time>2021-10-15T13:19:48.000Z</time>
      </trkpt>
      <trkpt lat="48.20693" lon="-2.67887">
        <ele>200</ele>
        <time>2021-10-15T13:19:49.000Z</time>
      </trkpt>
      <trkpt lat="48.2069" lon="-2.67893">
        <ele>200</ele>
        <time>2021-10-15T13:19:50.000Z</time>
      </trkpt>
      <trkpt lat="48.2069" lon="-2.67893">
        <ele>200</ele>
        <time>2021-10-15T13:19:51.000Z</time>
      </trkpt>
      <trkpt lat="48.20687" lon="-2.67898">
        <ele>199.80000305176</ele>
        <time>2021-10-15T13:19:52.000Z</time>
      </trkpt>
      <trkpt lat="48.20687" lon="-2.67898">
        <ele>199.80000305176</ele>
        <time>2021-10-15T13:19:53.000Z</time>
      </trkpt>
      <trkpt lat="48.20684" lon="-2.67905">
        <ele>199.60000610352</ele>
        <time>2021-10-15T13:19:54.000Z</time>
      </trkpt>
      <trkpt lat="48.20684" lon="-2.67905">
        <ele>199.60000610352</ele>
        <time>2021-10-15T13:19:55.000Z</time>
      </trkpt>
      <trkpt lat="48.20682" lon="-2.67913">
        <ele>199.39999389648</ele>
        <time>2021-10-15T13:19:56.000Z</time>
      </trkpt>
      <trkpt lat="48.20682" lon="-2.67913">
        <ele>199.39999389648</ele>
        <time>2021-10-15T13:19:57.000Z</time>
      </trkpt>
      <trkpt lat="48.20679" lon="-2.6792">
        <ele>199.39999389648</ele>
        <time>2021-10-15T13:19:58.000Z</time>
      </trkpt>
      <trkpt lat="48.20679" lon="-2.6792">
        <ele>199.39999389648</ele>
        <time>2021-10-15T13:19:59.000Z</time>
      </trkpt>
      <trkpt lat="48.20676" lon="-2.67926">
        <ele>199.19999694824</ele>
        <time>2021-10-15T13:20:00.000Z</time>
      </trkpt>
      <trkpt lat="48.20676" lon="-2.67926">
        <ele>199.19999694824</ele>
        <time>2021-10-15T13:20:01.000Z</time>
      </trkpt>
      <trkpt lat="48.20674" lon="-2.67934">
        <ele>199</ele>
        <time>2021-10-15T13:20:02.000Z</time>
      </trkpt>
      <trkpt lat="48.20674" lon="-2.67934">
        <ele>199</ele>
        <time>2021-10-15T13:20:03.000Z</time>
      </trkpt>
      <trkpt lat="48.20673" lon="-2.67938">
        <ele>199</ele>
        <time>2021-10-15T13:20:04.000Z</time>
      </trkpt>
      <trkpt lat="48.2067" lon="-2.67943">
        <ele>199</ele>
        <time>2021-10-15T13:20:05.000Z</time>
      </trkpt>
      <trkpt lat="48.2067" lon="-2.67943">
        <ele>199</ele>
        <time>2021-10-15T13:20:06.000Z</time>
      </trkpt>
      <trkpt lat="48.20666" lon="-2.67949">
        <ele>199</ele>
        <time>2021-10-15T13:20:07.000Z</time>
      </trkpt>
      <trkpt lat="48.20666" lon="-2.67949">
        <ele>199</ele>
        <time>2021-10-15T13:20:08.000Z</time>
      </trkpt>
      <trkpt lat="48.20662" lon="-2.67956">
        <ele>199</ele>
        <time>2021-10-15T13:20:09.000Z</time>
      </trkpt>
      <trkpt lat="48.20662" lon="-2.67956">
        <ele>199</ele>
        <time>2021-10-15T13:20:10.000Z</time>
      </trkpt>
      <trkpt lat="48.20658" lon="-2.67964">
        <ele>199</ele>
        <time>2021-10-15T13:20:11.000Z</time>
      </trkpt>
      <trkpt lat="48.20658" lon="-2.67964">
        <ele>199</ele>
        <time>2021-10-15T13:20:12.000Z</time>
      </trkpt>
      <trkpt lat="48.20654" lon="-2.67972">
        <ele>198.80000305176</ele>
        <time>2021-10-15T13:20:13.000Z</time>
      </trkpt>
      <trkpt lat="48.20654" lon="-2.67972">
        <ele>198.80000305176</ele>
        <time>2021-10-15T13:20:14.000Z</time>
      </trkpt>
      <trkpt lat="48.20649" lon="-2.67979">
        <ele>198.60000610352</ele>
        <time>2021-10-15T13:20:15.000Z</time>
      </trkpt>
      <trkpt lat="48.20649" lon="-2.67979">
        <ele>198.60000610352</ele>
        <time>2021-10-15T13:20:16.000Z</time>
      </trkpt>
      <trkpt lat="48.20645" lon="-2.67988">
        <ele>198.19999694824</ele>
        <time>2021-10-15T13:20:17.000Z</time>
      </trkpt>
      <trkpt lat="48.20645" lon="-2.67988">
        <ele>198.19999694824</ele>
        <time>2021-10-15T13:20:18.000Z</time>
      </trkpt>
      <trkpt lat="48.2064" lon="-2.67997">
        <ele>197.60000610352</ele>
        <time>2021-10-15T13:20:19.000Z</time>
      </trkpt>
      <trkpt lat="48.2064" lon="-2.67997">
        <ele>197.60000610352</ele>
        <time>2021-10-15T13:20:20.000Z</time>
      </trkpt>
      <trkpt lat="48.20636" lon="-2.68007">
        <ele>197.19999694824</ele>
        <time>2021-10-15T13:20:21.000Z</time>
      </trkpt>
      <trkpt lat="48.20636" lon="-2.68007">
        <ele>197.19999694824</ele>
        <time>2021-10-15T13:20:22.000Z</time>
      </trkpt>
      <trkpt lat="48.20631" lon="-2.68016">
        <ele>196.60000610352</ele>
        <time>2021-10-15T13:20:23.000Z</time>
      </trkpt>
      <trkpt lat="48.20631" lon="-2.68016">
        <ele>196.60000610352</ele>
        <time>2021-10-15T13:20:24.000Z</time>
      </trkpt>
      <trkpt lat="48.20625" lon="-2.68027">
        <ele>196.19999694824</ele>
        <time>2021-10-15T13:20:25.000Z</time>
      </trkpt>
      <trkpt lat="48.20625" lon="-2.68027">
        <ele>196.19999694824</ele>
        <time>2021-10-15T13:20:26.000Z</time>
      </trkpt>
      <trkpt lat="48.2062" lon="-2.68039">
        <ele>196.19999694824</ele>
        <time>2021-10-15T13:20:27.000Z</time>
      </trkpt>
      <trkpt lat="48.2062" lon="-2.68039">
        <ele>196.19999694824</ele>
        <time>2021-10-15T13:20:28.000Z</time>
      </trkpt>
      <trkpt lat="48.20614" lon="-2.68051">
        <ele>196.60000610352</ele>
        <time>2021-10-15T13:20:29.000Z</time>
      </trkpt>
      <trkpt lat="48.20614" lon="-2.68051">
        <ele>196.60000610352</ele>
        <time>2021-10-15T13:20:30.000Z</time>
      </trkpt>
      <trkpt lat="48.20607" lon="-2.68065">
        <ele>197</ele>
        <time>2021-10-15T13:20:31.000Z</time>
      </trkpt>
      <trkpt lat="48.20607" lon="-2.68065">
        <ele>197</ele>
        <time>2021-10-15T13:20:32.000Z</time>
      </trkpt>
      <trkpt lat="48.206" lon="-2.6808">
        <ele>197.60000610352</ele>
        <time>2021-10-15T13:20:33.000Z</time>
      </trkpt>
      <trkpt lat="48.206" lon="-2.6808">
        <ele>197.60000610352</ele>
        <time>2021-10-15T13:20:34.000Z</time>
      </trkpt>
      <trkpt lat="48.20591" lon="-2.68095">
        <ele>198.19999694824</ele>
        <time>2021-10-15T13:20:35.000Z</time>
      </trkpt>
      <trkpt lat="48.20591" lon="-2.68095">
        <ele>198.19999694824</ele>
        <time>2021-10-15T13:20:36.000Z</time>
      </trkpt>
      <trkpt lat="48.20582" lon="-2.68111">
        <ele>198.80000305176</ele>
        <time>2021-10-15T13:20:37.000Z</time>
      </trkpt>
      <trkpt lat="48.20582" lon="-2.68111">
        <ele>198.80000305176</ele>
        <time>2021-10-15T13:20:38.000Z</time>
      </trkpt>
      <trkpt lat="48.20572" lon="-2.68126">
        <ele>198.39999389648</ele>
        <time>2021-10-15T13:20:39.000Z</time>
      </trkpt>
      <trkpt lat="48.20572" lon="-2.68126">
        <ele>198.39999389648</ele>
        <time>2021-10-15T13:20:40.000Z</time>
      </trkpt>
      <trkpt lat="48.20562" lon="-2.68142">
        <ele>197.19999694824</ele>
        <time>2021-10-15T13:20:41.000Z</time>
      </trkpt>
      <trkpt lat="48.20562" lon="-2.68142">
        <ele>197.19999694824</ele>
        <time>2021-10-15T13:20:42.000Z</time>
      </trkpt>
      <trkpt lat="48.20552" lon="-2.68158">
        <ele>195.80000305176</ele>
        <time>2021-10-15T13:20:43.000Z</time>
      </trkpt>
      <trkpt lat="48.20552" lon="-2.68158">
        <ele>195.80000305176</ele>
        <time>2021-10-15T13:20:44.000Z</time>
      </trkpt>
      <trkpt lat="48.20542" lon="-2.68174">
        <ele>194.60000610352</ele>
        <time>2021-10-15T13:20:45.000Z</time>
      </trkpt>
      <trkpt lat="48.20542" lon="-2.68174">
        <ele>194.60000610352</ele>
        <time>2021-10-15T13:20:46.000Z</time>
      </trkpt>
      <trkpt lat="48.20533" lon="-2.6819">
        <ele>194</ele>
        <time>2021-10-15T13:20:47.000Z</time>
      </trkpt>
      <trkpt lat="48.20533" lon="-2.6819">
        <ele>194</ele>
        <time>2021-10-15T13:20:48.000Z</time>
      </trkpt>
      <trkpt lat="48.20525" lon="-2.68208">
        <ele>193.39999389648</ele>
        <time>2021-10-15T13:20:49.000Z</time>
      </trkpt>
      <trkpt lat="48.20525" lon="-2.68208">
        <ele>193.39999389648</ele>
        <time>2021-10-15T13:20:50.000Z</time>
      </trkpt>
      <trkpt lat="48.20521" lon="-2.68217">
        <ele>193</ele>
        <time>2021-10-15T13:20:51.000Z</time>
      </trkpt>
      <trkpt lat="48.20511" lon="-2.68233">
        <ele>192</ele>
        <time>2021-10-15T13:20:52.000Z</time>
      </trkpt>
      <trkpt lat="48.20505" lon="-2.68242">
        <ele>191.39999389648</ele>
        <time>2021-10-15T13:20:53.000Z</time>
      </trkpt>
      <trkpt lat="48.20505" lon="-2.68242">
        <ele>191.39999389648</ele>
        <time>2021-10-15T13:20:54.000Z</time>
      </trkpt>
      <trkpt lat="48.205" lon="-2.6825">
        <ele>190.80000305176</ele>
        <time>2021-10-15T13:20:55.000Z</time>
      </trkpt>
      <trkpt lat="48.2049" lon="-2.68268">
        <ele>190</ele>
        <time>2021-10-15T13:20:56.000Z</time>
      </trkpt>
      <trkpt lat="48.2049" lon="-2.68268">
        <ele>190</ele>
        <time>2021-10-15T13:20:57.000Z</time>
      </trkpt>
      <trkpt lat="48.20479" lon="-2.68285">
        <ele>189.60000610352</ele>
        <time>2021-10-15T13:20:58.000Z</time>
      </trkpt>
      <trkpt lat="48.20479" lon="-2.68285">
        <ele>189.60000610352</ele>
        <time>2021-10-15T13:20:59.000Z</time>
      </trkpt>
      <trkpt lat="48.20468" lon="-2.68303">
        <ele>189.19999694824</ele>
        <time>2021-10-15T13:21:00.000Z</time>
      </trkpt>
      <trkpt lat="48.20468" lon="-2.68303">
        <ele>189.19999694824</ele>
        <time>2021-10-15T13:21:01.000Z</time>
      </trkpt>
      <trkpt lat="48.20457" lon="-2.68322">
        <ele>189.19999694824</ele>
        <time>2021-10-15T13:21:02.000Z</time>
      </trkpt>
      <trkpt lat="48.20457" lon="-2.68322">
        <ele>189.19999694824</ele>
        <time>2021-10-15T13:21:03.000Z</time>
      </trkpt>
      <trkpt lat="48.20446" lon="-2.6834">
        <ele>189.39999389648</ele>
        <time>2021-10-15T13:21:04.000Z</time>
      </trkpt>
      <trkpt lat="48.20446" lon="-2.6834">
        <ele>189.39999389648</ele>
        <time>2021-10-15T13:21:05.000Z</time>
      </trkpt>
      <trkpt lat="48.20436" lon="-2.68358">
        <ele>189</ele>
        <time>2021-10-15T13:21:06.000Z</time>
      </trkpt>
      <trkpt lat="48.20436" lon="-2.68358">
        <ele>189</ele>
        <time>2021-10-15T13:21:07.000Z</time>
      </trkpt>
      <trkpt lat="48.20427" lon="-2.68372">
        <ele>189.19999694824</ele>
        <time>2021-10-15T13:21:08.000Z</time>
      </trkpt>
      <trkpt lat="48.20427" lon="-2.68372">
        <ele>189.19999694824</ele>
        <time>2021-10-15T13:21:09.000Z</time>
      </trkpt>
      <trkpt lat="48.20419" lon="-2.68388">
        <ele>190</ele>
        <time>2021-10-15T13:21:10.000Z</time>
      </trkpt>
      <trkpt lat="48.20419" lon="-2.68388">
        <ele>190</ele>
        <time>2021-10-15T13:21:11.000Z</time>
      </trkpt>
      <trkpt lat="48.20415" lon="-2.68395">
        <ele>190.39999389648</ele>
        <time>2021-10-15T13:21:12.000Z</time>
      </trkpt>
      <trkpt lat="48.20408" lon="-2.68408">
        <ele>191</ele>
        <time>2021-10-15T13:21:13.000Z</time>
      </trkpt>
      <trkpt lat="48.20408" lon="-2.68408">
        <ele>191</ele>
        <time>2021-10-15T13:21:14.000Z</time>
      </trkpt>
      <trkpt lat="48.20401" lon="-2.6842">
        <ele>191.80000305176</ele>
        <time>2021-10-15T13:21:15.000Z</time>
      </trkpt>
      <trkpt lat="48.20401" lon="-2.6842">
        <ele>191.80000305176</ele>
        <time>2021-10-15T13:21:16.000Z</time>
      </trkpt>
      <trkpt lat="48.20395" lon="-2.68432">
        <ele>192.60000610352</ele>
        <time>2021-10-15T13:21:17.000Z</time>
      </trkpt>
      <trkpt lat="48.20395" lon="-2.68432">
        <ele>192.60000610352</ele>
        <time>2021-10-15T13:21:18.000Z</time>
      </trkpt>
      <trkpt lat="48.20389" lon="-2.68444">
        <ele>193.60000610352</ele>
        <time>2021-10-15T13:21:19.000Z</time>
      </trkpt>
      <trkpt lat="48.20389" lon="-2.68444">
        <ele>193.60000610352</ele>
        <time>2021-10-15T13:21:20.000Z</time>
      </trkpt>
      <trkpt lat="48.20384" lon="-2.68456">
        <ele>194.39999389648</ele>
        <time>2021-10-15T13:21:21.000Z</time>
      </trkpt>
      <trkpt lat="48.20384" lon="-2.68456">
        <ele>194.39999389648</ele>
        <time>2021-10-15T13:21:22.000Z</time>
      </trkpt>
      <trkpt lat="48.20378" lon="-2.68465">
        <ele>195</ele>
        <time>2021-10-15T13:21:23.000Z</time>
      </trkpt>
      <trkpt lat="48.20378" lon="-2.68465">
        <ele>195</ele>
        <time>2021-10-15T13:21:24.000Z</time>
      </trkpt>
      <trkpt lat="48.20374" lon="-2.68475">
        <ele>195.39999389648</ele>
        <time>2021-10-15T13:21:25.000Z</time>
      </trkpt>
      <trkpt lat="48.20374" lon="-2.68475">
        <ele>195.39999389648</ele>
        <time>2021-10-15T13:21:26.000Z</time>
      </trkpt>
      <trkpt lat="48.20371" lon="-2.68483">
        <ele>195.60000610352</ele>
        <time>2021-10-15T13:21:27.000Z</time>
      </trkpt>
      <trkpt lat="48.20371" lon="-2.68483">
        <ele>195.60000610352</ele>
        <time>2021-10-15T13:21:28.000Z</time>
      </trkpt>
      <trkpt lat="48.20367" lon="-2.68492">
        <ele>195.60000610352</ele>
        <time>2021-10-15T13:21:29.000Z</time>
      </trkpt>
      <trkpt lat="48.20367" lon="-2.68492">
        <ele>195.60000610352</ele>
        <time>2021-10-15T13:21:30.000Z</time>
      </trkpt>
      <trkpt lat="48.20363" lon="-2.685">
        <ele>195.60000610352</ele>
        <time>2021-10-15T13:21:31.000Z</time>
      </trkpt>
      <trkpt lat="48.20363" lon="-2.685">
        <ele>195.60000610352</ele>
        <time>2021-10-15T13:21:32.000Z</time>
      </trkpt>
      <trkpt lat="48.20358" lon="-2.68509">
        <ele>195.39999389648</ele>
        <time>2021-10-15T13:21:33.000Z</time>
      </trkpt>
      <trkpt lat="48.20358" lon="-2.68509">
        <ele>195.39999389648</ele>
        <time>2021-10-15T13:21:34.000Z</time>
      </trkpt>
      <trkpt lat="48.20352" lon="-2.68517">
        <ele>195.39999389648</ele>
        <time>2021-10-15T13:21:35.000Z</time>
      </trkpt>
      <trkpt lat="48.20352" lon="-2.68517">
        <ele>195.39999389648</ele>
        <time>2021-10-15T13:21:36.000Z</time>
      </trkpt>
      <trkpt lat="48.20348" lon="-2.68526">
        <ele>195.60000610352</ele>
        <time>2021-10-15T13:21:37.000Z</time>
      </trkpt>
      <trkpt lat="48.20348" lon="-2.68526">
        <ele>195.60000610352</ele>
        <time>2021-10-15T13:21:38.000Z</time>
      </trkpt>
      <trkpt lat="48.20343" lon="-2.68534">
        <ele>195.80000305176</ele>
        <time>2021-10-15T13:21:39.000Z</time>
      </trkpt>
      <trkpt lat="48.20343" lon="-2.68534">
        <ele>195.80000305176</ele>
        <time>2021-10-15T13:21:40.000Z</time>
      </trkpt>
      <trkpt lat="48.20338" lon="-2.68542">
        <ele>196</ele>
        <time>2021-10-15T13:21:41.000Z</time>
      </trkpt>
      <trkpt lat="48.20338" lon="-2.68542">
        <ele>196</ele>
        <time>2021-10-15T13:21:42.000Z</time>
      </trkpt>
      <trkpt lat="48.20334" lon="-2.68549">
        <ele>196.39999389648</ele>
        <time>2021-10-15T13:21:43.000Z</time>
      </trkpt>
      <trkpt lat="48.20334" lon="-2.68549">
        <ele>196.39999389648</ele>
        <time>2021-10-15T13:21:44.000Z</time>
      </trkpt>
      <trkpt lat="48.20329" lon="-2.68555">
        <ele>196.80000305176</ele>
        <time>2021-10-15T13:21:45.000Z</time>
      </trkpt>
      <trkpt lat="48.20329" lon="-2.68555">
        <ele>196.80000305176</ele>
        <time>2021-10-15T13:21:46.000Z</time>
      </trkpt>
      <trkpt lat="48.20324" lon="-2.6856">
        <ele>196.80000305176</ele>
        <time>2021-10-15T13:21:47.000Z</time>
      </trkpt>
      <trkpt lat="48.20324" lon="-2.6856">
        <ele>196.80000305176</ele>
        <time>2021-10-15T13:21:48.000Z</time>
      </trkpt>
      <trkpt lat="48.20319" lon="-2.68565">
        <ele>197</ele>
        <time>2021-10-15T13:21:49.000Z</time>
      </trkpt>
      <trkpt lat="48.20319" lon="-2.68565">
        <ele>197</ele>
        <time>2021-10-15T13:21:50.000Z</time>
      </trkpt>
      <trkpt lat="48.20314" lon="-2.68571">
        <ele>197.39999389648</ele>
        <time>2021-10-15T13:21:51.000Z</time>
      </trkpt>
      <trkpt lat="48.20314" lon="-2.68571">
        <ele>197.39999389648</ele>
        <time>2021-10-15T13:21:52.000Z</time>
      </trkpt>
      <trkpt lat="48.20311" lon="-2.68575">
        <ele>197.60000610352</ele>
        <time>2021-10-15T13:21:53.000Z</time>
      </trkpt>
      <trkpt lat="48.20309" lon="-2.68579">
        <ele>197.80000305176</ele>
        <time>2021-10-15T13:21:54.000Z</time>
      </trkpt>
      <trkpt lat="48.20304" lon="-2.68587">
        <ele>198.19999694824</ele>
        <time>2021-10-15T13:21:55.000Z</time>
      </trkpt>
      <trkpt lat="48.20304" lon="-2.68587">
        <ele>198.19999694824</ele>
        <time>2021-10-15T13:21:56.000Z</time>
      </trkpt>
      <trkpt lat="48.203" lon="-2.68594">
        <ele>198.19999694824</ele>
        <time>2021-10-15T13:21:57.000Z</time>
      </trkpt>
      <trkpt lat="48.203" lon="-2.68594">
        <ele>198.19999694824</ele>
        <time>2021-10-15T13:21:58.000Z</time>
      </trkpt>
      <trkpt lat="48.20295" lon="-2.68602">
        <ele>198.19999694824</ele>
        <time>2021-10-15T13:21:59.000Z</time>
      </trkpt>
      <trkpt lat="48.20295" lon="-2.68602">
        <ele>198.19999694824</ele>
        <time>2021-10-15T13:22:00.000Z</time>
      </trkpt>
      <trkpt lat="48.2029" lon="-2.68608">
        <ele>198.19999694824</ele>
        <time>2021-10-15T13:22:01.000Z</time>
      </trkpt>
      <trkpt lat="48.20288" lon="-2.68612">
        <ele>198.19999694824</ele>
        <time>2021-10-15T13:22:02.000Z</time>
      </trkpt>
      <trkpt lat="48.20288" lon="-2.68612">
        <ele>198.19999694824</ele>
        <time>2021-10-15T13:22:03.000Z</time>
      </trkpt>
      <trkpt lat="48.20286" lon="-2.68616">
        <ele>198.19999694824</ele>
        <time>2021-10-15T13:22:04.000Z</time>
      </trkpt>
      <trkpt lat="48.20282" lon="-2.68623">
        <ele>198.39999389648</ele>
        <time>2021-10-15T13:22:05.000Z</time>
      </trkpt>
      <trkpt lat="48.20282" lon="-2.68623">
        <ele>198.39999389648</ele>
        <time>2021-10-15T13:22:06.000Z</time>
      </trkpt>
      <trkpt lat="48.20277" lon="-2.68632">
        <ele>198.60000610352</ele>
        <time>2021-10-15T13:22:07.000Z</time>
      </trkpt>
      <trkpt lat="48.20277" lon="-2.68632">
        <ele>198.60000610352</ele>
        <time>2021-10-15T13:22:08.000Z</time>
      </trkpt>
      <trkpt lat="48.20274" lon="-2.6864">
        <ele>199</ele>
        <time>2021-10-15T13:22:09.000Z</time>
      </trkpt>
      <trkpt lat="48.20274" lon="-2.6864">
        <ele>199</ele>
        <time>2021-10-15T13:22:10.000Z</time>
      </trkpt>
      <trkpt lat="48.20269" lon="-2.68648">
        <ele>199</ele>
        <time>2021-10-15T13:22:11.000Z</time>
      </trkpt>
      <trkpt lat="48.20269" lon="-2.68648">
        <ele>199</ele>
        <time>2021-10-15T13:22:12.000Z</time>
      </trkpt>
      <trkpt lat="48.20265" lon="-2.68656">
        <ele>199</ele>
        <time>2021-10-15T13:22:13.000Z</time>
      </trkpt>
      <trkpt lat="48.20265" lon="-2.68656">
        <ele>199</ele>
        <time>2021-10-15T13:22:14.000Z</time>
      </trkpt>
      <trkpt lat="48.20261" lon="-2.68663">
        <ele>198.80000305176</ele>
        <time>2021-10-15T13:22:15.000Z</time>
      </trkpt>
      <trkpt lat="48.20261" lon="-2.68663">
        <ele>198.80000305176</ele>
        <time>2021-10-15T13:22:16.000Z</time>
      </trkpt>
      <trkpt lat="48.20258" lon="-2.6867">
        <ele>198.60000610352</ele>
        <time>2021-10-15T13:22:17.000Z</time>
      </trkpt>
      <trkpt lat="48.20258" lon="-2.6867">
        <ele>198.60000610352</ele>
        <time>2021-10-15T13:22:18.000Z</time>
      </trkpt>
      <trkpt lat="48.20255" lon="-2.68678">
        <ele>198.60000610352</ele>
        <time>2021-10-15T13:22:19.000Z</time>
      </trkpt>
      <trkpt lat="48.20255" lon="-2.68678">
        <ele>198.60000610352</ele>
        <time>2021-10-15T13:22:20.000Z</time>
      </trkpt>
      <trkpt lat="48.20251" lon="-2.68686">
        <ele>198.39999389648</ele>
        <time>2021-10-15T13:22:21.000Z</time>
      </trkpt>
      <trkpt lat="48.20251" lon="-2.68686">
        <ele>198.39999389648</ele>
        <time>2021-10-15T13:22:22.000Z</time>
      </trkpt>
      <trkpt lat="48.20246" lon="-2.68693">
        <ele>198.19999694824</ele>
        <time>2021-10-15T13:22:23.000Z</time>
      </trkpt>
      <trkpt lat="48.20246" lon="-2.68693">
        <ele>198.19999694824</ele>
        <time>2021-10-15T13:22:24.000Z</time>
      </trkpt>
      <trkpt lat="48.20242" lon="-2.68702">
        <ele>198</ele>
        <time>2021-10-15T13:22:25.000Z</time>
      </trkpt>
      <trkpt lat="48.20242" lon="-2.68702">
        <ele>198</ele>
        <time>2021-10-15T13:22:26.000Z</time>
      </trkpt>
      <trkpt lat="48.20237" lon="-2.68712">
        <ele>198</ele>
        <time>2021-10-15T13:22:27.000Z</time>
      </trkpt>
      <trkpt lat="48.20237" lon="-2.68712">
        <ele>198</ele>
        <time>2021-10-15T13:22:28.000Z</time>
      </trkpt>
      <trkpt lat="48.20233" lon="-2.6872">
        <ele>198</ele>
        <time>2021-10-15T13:22:29.000Z</time>
      </trkpt>
      <trkpt lat="48.20233" lon="-2.6872">
        <ele>198</ele>
        <time>2021-10-15T13:22:30.000Z</time>
      </trkpt>
      <trkpt lat="48.20229" lon="-2.68727">
        <ele>198</ele>
        <time>2021-10-15T13:22:31.000Z</time>
      </trkpt>
      <trkpt lat="48.20229" lon="-2.68727">
        <ele>198</ele>
        <time>2021-10-15T13:22:32.000Z</time>
      </trkpt>
      <trkpt lat="48.20224" lon="-2.68735">
        <ele>198</ele>
        <time>2021-10-15T13:22:33.000Z</time>
      </trkpt>
      <trkpt lat="48.20224" lon="-2.68735">
        <ele>198</ele>
        <time>2021-10-15T13:22:34.000Z</time>
      </trkpt>
      <trkpt lat="48.20219" lon="-2.68744">
        <ele>198</ele>
        <time>2021-10-15T13:22:35.000Z</time>
      </trkpt>
      <trkpt lat="48.20219" lon="-2.68744">
        <ele>198</ele>
        <time>2021-10-15T13:22:36.000Z</time>
      </trkpt>
      <trkpt lat="48.20215" lon="-2.68753">
        <ele>198</ele>
        <time>2021-10-15T13:22:37.000Z</time>
      </trkpt>
      <trkpt lat="48.20215" lon="-2.68753">
        <ele>198</ele>
        <time>2021-10-15T13:22:38.000Z</time>
      </trkpt>
      <trkpt lat="48.20211" lon="-2.68762">
        <ele>198.19999694824</ele>
        <time>2021-10-15T13:22:39.000Z</time>
      </trkpt>
      <trkpt lat="48.20211" lon="-2.68762">
        <ele>198.19999694824</ele>
        <time>2021-10-15T13:22:40.000Z</time>
      </trkpt>
      <trkpt lat="48.20208" lon="-2.68766">
        <ele>198.39999389648</ele>
        <time>2021-10-15T13:22:41.000Z</time>
      </trkpt>
      <trkpt lat="48.20206" lon="-2.6877">
        <ele>198.60000610352</ele>
        <time>2021-10-15T13:22:42.000Z</time>
      </trkpt>
      <trkpt lat="48.20202" lon="-2.68778">
        <ele>198.80000305176</ele>
        <time>2021-10-15T13:22:43.000Z</time>
      </trkpt>
      <trkpt lat="48.20202" lon="-2.68778">
        <ele>198.80000305176</ele>
        <time>2021-10-15T13:22:44.000Z</time>
      </trkpt>
      <trkpt lat="48.20198" lon="-2.68785">
        <ele>199.19999694824</ele>
        <time>2021-10-15T13:22:45.000Z</time>
      </trkpt>
      <trkpt lat="48.20198" lon="-2.68785">
        <ele>199.19999694824</ele>
        <time>2021-10-15T13:22:46.000Z</time>
      </trkpt>
      <trkpt lat="48.20197" lon="-2.68803">
        <ele>199.19999694824</ele>
        <time>2021-10-15T13:22:47.000Z</time>
      </trkpt>
      <trkpt lat="48.20197" lon="-2.68803">
        <ele>199.19999694824</ele>
        <time>2021-10-15T13:22:48.000Z</time>
      </trkpt>
      <trkpt lat="48.20194" lon="-2.68812">
        <ele>199.39999389648</ele>
        <time>2021-10-15T13:22:49.000Z</time>
      </trkpt>
      <trkpt lat="48.20194" lon="-2.68812">
        <ele>199.39999389648</ele>
        <time>2021-10-15T13:22:50.000Z</time>
      </trkpt>
      <trkpt lat="48.20192" lon="-2.68825">
        <ele>199.19999694824</ele>
        <time>2021-10-15T13:22:51.000Z</time>
      </trkpt>
      <trkpt lat="48.20192" lon="-2.68825">
        <ele>199.19999694824</ele>
        <time>2021-10-15T13:22:52.000Z</time>
      </trkpt>
      <trkpt lat="48.2019" lon="-2.6883">
        <ele>199</ele>
        <time>2021-10-15T13:22:53.000Z</time>
      </trkpt>
      <trkpt lat="48.20188" lon="-2.68834">
        <ele>199</ele>
        <time>2021-10-15T13:22:54.000Z</time>
      </trkpt>
      <trkpt lat="48.20185" lon="-2.68844">
        <ele>198.80000305176</ele>
        <time>2021-10-15T13:22:55.000Z</time>
      </trkpt>
      <trkpt lat="48.20185" lon="-2.68844">
        <ele>198.80000305176</ele>
        <time>2021-10-15T13:22:56.000Z</time>
      </trkpt>
      <trkpt lat="48.20181" lon="-2.68852">
        <ele>198.80000305176</ele>
        <time>2021-10-15T13:22:57.000Z</time>
      </trkpt>
      <trkpt lat="48.20181" lon="-2.68852">
        <ele>198.80000305176</ele>
        <time>2021-10-15T13:22:58.000Z</time>
      </trkpt>
      <trkpt lat="48.20178" lon="-2.68858">
        <ele>198.80000305176</ele>
        <time>2021-10-15T13:22:59.000Z</time>
      </trkpt>
      <trkpt lat="48.20178" lon="-2.68858">
        <ele>198.80000305176</ele>
        <time>2021-10-15T13:23:00.000Z</time>
      </trkpt>
      <trkpt lat="48.20174" lon="-2.68865">
        <ele>199</ele>
        <time>2021-10-15T13:23:01.000Z</time>
      </trkpt>
      <trkpt lat="48.20174" lon="-2.68865">
        <ele>199</ele>
        <time>2021-10-15T13:23:02.000Z</time>
      </trkpt>
      <trkpt lat="48.2017" lon="-2.68873">
        <ele>199.39999389648</ele>
        <time>2021-10-15T13:23:03.000Z</time>
      </trkpt>
      <trkpt lat="48.2017" lon="-2.68873">
        <ele>199.39999389648</ele>
        <time>2021-10-15T13:23:04.000Z</time>
      </trkpt>
      <trkpt lat="48.20166" lon="-2.68882">
        <ele>200</ele>
        <time>2021-10-15T13:23:05.000Z</time>
      </trkpt>
      <trkpt lat="48.20166" lon="-2.68882">
        <ele>200</ele>
        <time>2021-10-15T13:23:06.000Z</time>
      </trkpt>
      <trkpt lat="48.20161" lon="-2.6889">
        <ele>200.60000610352</ele>
        <time>2021-10-15T13:23:07.000Z</time>
      </trkpt>
      <trkpt lat="48.20161" lon="-2.6889">
        <ele>200.60000610352</ele>
        <time>2021-10-15T13:23:08.000Z</time>
      </trkpt>
      <trkpt lat="48.20157" lon="-2.68897">
        <ele>201.19999694824</ele>
        <time>2021-10-15T13:23:09.000Z</time>
      </trkpt>
      <trkpt lat="48.20157" lon="-2.68897">
        <ele>201.19999694824</ele>
        <time>2021-10-15T13:23:10.000Z</time>
      </trkpt>
      <trkpt lat="48.20153" lon="-2.68905">
        <ele>201.80000305176</ele>
        <time>2021-10-15T13:23:11.000Z</time>
      </trkpt>
      <trkpt lat="48.20153" lon="-2.68905">
        <ele>201.80000305176</ele>
        <time>2021-10-15T13:23:12.000Z</time>
      </trkpt>
      <trkpt lat="48.20151" lon="-2.68916">
        <ele>202.39999389648</ele>
        <time>2021-10-15T13:23:13.000Z</time>
      </trkpt>
      <trkpt lat="48.20151" lon="-2.68916">
        <ele>202.39999389648</ele>
        <time>2021-10-15T13:23:14.000Z</time>
      </trkpt>
      <trkpt lat="48.20148" lon="-2.68926">
        <ele>202.80000305176</ele>
        <time>2021-10-15T13:23:15.000Z</time>
      </trkpt>
      <trkpt lat="48.20148" lon="-2.68926">
        <ele>202.80000305176</ele>
        <time>2021-10-15T13:23:16.000Z</time>
      </trkpt>
      <trkpt lat="48.20144" lon="-2.68934">
        <ele>203.39999389648</ele>
        <time>2021-10-15T13:23:17.000Z</time>
      </trkpt>
      <trkpt lat="48.20144" lon="-2.68934">
        <ele>203.39999389648</ele>
        <time>2021-10-15T13:23:18.000Z</time>
      </trkpt>
      <trkpt lat="48.2014" lon="-2.68941">
        <ele>204</ele>
        <time>2021-10-15T13:23:19.000Z</time>
      </trkpt>
      <trkpt lat="48.2014" lon="-2.68941">
        <ele>204</ele>
        <time>2021-10-15T13:23:20.000Z</time>
      </trkpt>
      <trkpt lat="48.20135" lon="-2.6895">
        <ele>204.80000305176</ele>
        <time>2021-10-15T13:23:21.000Z</time>
      </trkpt>
      <trkpt lat="48.20135" lon="-2.6895">
        <ele>204.80000305176</ele>
        <time>2021-10-15T13:23:22.000Z</time>
      </trkpt>
      <trkpt lat="48.20131" lon="-2.68957">
        <ele>205</ele>
        <time>2021-10-15T13:23:23.000Z</time>
      </trkpt>
      <trkpt lat="48.20131" lon="-2.68957">
        <ele>205</ele>
        <time>2021-10-15T13:23:24.000Z</time>
      </trkpt>
      <trkpt lat="48.20126" lon="-2.68965">
        <ele>205.19999694824</ele>
        <time>2021-10-15T13:23:25.000Z</time>
      </trkpt>
      <trkpt lat="48.20126" lon="-2.68965">
        <ele>205.19999694824</ele>
        <time>2021-10-15T13:23:26.000Z</time>
      </trkpt>
      <trkpt lat="48.20121" lon="-2.68975">
        <ele>205.39999389648</ele>
        <time>2021-10-15T13:23:27.000Z</time>
      </trkpt>
      <trkpt lat="48.20121" lon="-2.68975">
        <ele>205.39999389648</ele>
        <time>2021-10-15T13:23:28.000Z</time>
      </trkpt>
      <trkpt lat="48.20115" lon="-2.68983">
        <ele>205.60000610352</ele>
        <time>2021-10-15T13:23:29.000Z</time>
      </trkpt>
      <trkpt lat="48.20115" lon="-2.68983">
        <ele>205.60000610352</ele>
        <time>2021-10-15T13:23:30.000Z</time>
      </trkpt>
      <trkpt lat="48.2011" lon="-2.68991">
        <ele>205.80000305176</ele>
        <time>2021-10-15T13:23:31.000Z</time>
      </trkpt>
      <trkpt lat="48.2011" lon="-2.68991">
        <ele>205.80000305176</ele>
        <time>2021-10-15T13:23:32.000Z</time>
      </trkpt>
      <trkpt lat="48.20106" lon="-2.69">
        <ele>205.80000305176</ele>
        <time>2021-10-15T13:23:33.000Z</time>
      </trkpt>
      <trkpt lat="48.20106" lon="-2.69">
        <ele>205.80000305176</ele>
        <time>2021-10-15T13:23:34.000Z</time>
      </trkpt>
      <trkpt lat="48.20101" lon="-2.69007">
        <ele>206.19999694824</ele>
        <time>2021-10-15T13:23:35.000Z</time>
      </trkpt>
      <trkpt lat="48.20101" lon="-2.69007">
        <ele>206.19999694824</ele>
        <time>2021-10-15T13:23:36.000Z</time>
      </trkpt>
      <trkpt lat="48.20095" lon="-2.69015">
        <ele>206.60000610352</ele>
        <time>2021-10-15T13:23:37.000Z</time>
      </trkpt>
      <trkpt lat="48.20095" lon="-2.69015">
        <ele>206.60000610352</ele>
        <time>2021-10-15T13:23:38.000Z</time>
      </trkpt>
      <trkpt lat="48.20091" lon="-2.69024">
        <ele>206.80000305176</ele>
        <time>2021-10-15T13:23:39.000Z</time>
      </trkpt>
      <trkpt lat="48.20091" lon="-2.69024">
        <ele>206.80000305176</ele>
        <time>2021-10-15T13:23:40.000Z</time>
      </trkpt>
      <trkpt lat="48.20088" lon="-2.69029">
        <ele>207</ele>
        <time>2021-10-15T13:23:41.000Z</time>
      </trkpt>
      <trkpt lat="48.20083" lon="-2.69036">
        <ele>207.39999389648</ele>
        <time>2021-10-15T13:23:42.000Z</time>
      </trkpt>
      <trkpt lat="48.20083" lon="-2.69036">
        <ele>207.39999389648</ele>
        <time>2021-10-15T13:23:43.000Z</time>
      </trkpt>
      <trkpt lat="48.20079" lon="-2.69045">
        <ele>207.80000305176</ele>
        <time>2021-10-15T13:23:44.000Z</time>
      </trkpt>
      <trkpt lat="48.20079" lon="-2.69045">
        <ele>207.80000305176</ele>
        <time>2021-10-15T13:23:45.000Z</time>
      </trkpt>
      <trkpt lat="48.20075" lon="-2.69053">
        <ele>208</ele>
        <time>2021-10-15T13:23:46.000Z</time>
      </trkpt>
      <trkpt lat="48.20075" lon="-2.69053">
        <ele>208</ele>
        <time>2021-10-15T13:23:47.000Z</time>
      </trkpt>
      <trkpt lat="48.20069" lon="-2.69061">
        <ele>208.19999694824</ele>
        <time>2021-10-15T13:23:48.000Z</time>
      </trkpt>
      <trkpt lat="48.20069" lon="-2.69061">
        <ele>208.19999694824</ele>
        <time>2021-10-15T13:23:49.000Z</time>
      </trkpt>
      <trkpt lat="48.20064" lon="-2.69068">
        <ele>208.60000610352</ele>
        <time>2021-10-15T13:23:50.000Z</time>
      </trkpt>
      <trkpt lat="48.20064" lon="-2.69068">
        <ele>208.60000610352</ele>
        <time>2021-10-15T13:23:51.000Z</time>
      </trkpt>
      <trkpt lat="48.20059" lon="-2.69074">
        <ele>209</ele>
        <time>2021-10-15T13:23:52.000Z</time>
      </trkpt>
      <trkpt lat="48.20059" lon="-2.69074">
        <ele>209</ele>
        <time>2021-10-15T13:23:53.000Z</time>
      </trkpt>
      <trkpt lat="48.20053" lon="-2.6908">
        <ele>209.39999389648</ele>
        <time>2021-10-15T13:23:54.000Z</time>
      </trkpt>
      <trkpt lat="48.20053" lon="-2.6908">
        <ele>209.39999389648</ele>
        <time>2021-10-15T13:23:55.000Z</time>
      </trkpt>
      <trkpt lat="48.20048" lon="-2.69087">
        <ele>210</ele>
        <time>2021-10-15T13:23:56.000Z</time>
      </trkpt>
      <trkpt lat="48.20048" lon="-2.69087">
        <ele>210</ele>
        <time>2021-10-15T13:23:57.000Z</time>
      </trkpt>
      <trkpt lat="48.20043" lon="-2.69094">
        <ele>210.39999389648</ele>
        <time>2021-10-15T13:23:58.000Z</time>
      </trkpt>
      <trkpt lat="48.20043" lon="-2.69094">
        <ele>210.39999389648</ele>
        <time>2021-10-15T13:23:59.000Z</time>
      </trkpt>
      <trkpt lat="48.20038" lon="-2.691">
        <ele>210.60000610352</ele>
        <time>2021-10-15T13:24:00.000Z</time>
      </trkpt>
      <trkpt lat="48.20038" lon="-2.691">
        <ele>210.60000610352</ele>
        <time>2021-10-15T13:24:01.000Z</time>
      </trkpt>
      <trkpt lat="48.20034" lon="-2.69106">
        <ele>211</ele>
        <time>2021-10-15T13:24:02.000Z</time>
      </trkpt>
      <trkpt lat="48.20034" lon="-2.69106">
        <ele>211</ele>
        <time>2021-10-15T13:24:03.000Z</time>
      </trkpt>
      <trkpt lat="48.20032" lon="-2.69109">
        <ele>211.19999694824</ele>
        <time>2021-10-15T13:24:04.000Z</time>
      </trkpt>
      <trkpt lat="48.20027" lon="-2.69114">
        <ele>211.39999389648</ele>
        <time>2021-10-15T13:24:05.000Z</time>
      </trkpt>
      <trkpt lat="48.20027" lon="-2.69114">
        <ele>211.39999389648</ele>
        <time>2021-10-15T13:24:06.000Z</time>
      </trkpt>
      <trkpt lat="48.20022" lon="-2.6912">
        <ele>212</ele>
        <time>2021-10-15T13:24:07.000Z</time>
      </trkpt>
      <trkpt lat="48.20022" lon="-2.6912">
        <ele>212</ele>
        <time>2021-10-15T13:24:08.000Z</time>
      </trkpt>
      <trkpt lat="48.20017" lon="-2.69124">
        <ele>212.39999389648</ele>
        <time>2021-10-15T13:24:09.000Z</time>
      </trkpt>
      <trkpt lat="48.20017" lon="-2.69124">
        <ele>212.39999389648</ele>
        <time>2021-10-15T13:24:10.000Z</time>
      </trkpt>
      <trkpt lat="48.20013" lon="-2.69132">
        <ele>213</ele>
        <time>2021-10-15T13:24:11.000Z</time>
      </trkpt>
      <trkpt lat="48.20013" lon="-2.69132">
        <ele>213</ele>
        <time>2021-10-15T13:24:12.000Z</time>
      </trkpt>
      <trkpt lat="48.20008" lon="-2.6914">
        <ele>213.60000610352</ele>
        <time>2021-10-15T13:24:13.000Z</time>
      </trkpt>
      <trkpt lat="48.20008" lon="-2.6914">
        <ele>213.60000610352</ele>
        <time>2021-10-15T13:24:14.000Z</time>
      </trkpt>
      <trkpt lat="48.20002" lon="-2.6915">
        <ele>214.39999389648</ele>
        <time>2021-10-15T13:24:15.000Z</time>
      </trkpt>
      <trkpt lat="48.20002" lon="-2.6915">
        <ele>214.39999389648</ele>
        <time>2021-10-15T13:24:16.000Z</time>
      </trkpt>
      <trkpt lat="48.2" lon="-2.69154">
        <ele>214.80000305176</ele>
        <time>2021-10-15T13:24:17.000Z</time>
      </trkpt>
      <trkpt lat="48.19997" lon="-2.6916">
        <ele>215.19999694824</ele>
        <time>2021-10-15T13:24:18.000Z</time>
      </trkpt>
      <trkpt lat="48.19991" lon="-2.69169">
        <ele>216</ele>
        <time>2021-10-15T13:24:19.000Z</time>
      </trkpt>
      <trkpt lat="48.19991" lon="-2.69169">
        <ele>216</ele>
        <time>2021-10-15T13:24:20.000Z</time>
      </trkpt>
      <trkpt lat="48.19986" lon="-2.69178">
        <ele>216.60000610352</ele>
        <time>2021-10-15T13:24:21.000Z</time>
      </trkpt>
      <trkpt lat="48.19986" lon="-2.69178">
        <ele>216.60000610352</ele>
        <time>2021-10-15T13:24:22.000Z</time>
      </trkpt>
      <trkpt lat="48.19979" lon="-2.69187">
        <ele>217.60000610352</ele>
        <time>2021-10-15T13:24:23.000Z</time>
      </trkpt>
      <trkpt lat="48.19979" lon="-2.69187">
        <ele>217.60000610352</ele>
        <time>2021-10-15T13:24:24.000Z</time>
      </trkpt>
      <trkpt lat="48.19974" lon="-2.69196">
        <ele>218.39999389648</ele>
        <time>2021-10-15T13:24:25.000Z</time>
      </trkpt>
      <trkpt lat="48.19974" lon="-2.69196">
        <ele>218.39999389648</ele>
        <time>2021-10-15T13:24:26.000Z</time>
      </trkpt>
      <trkpt lat="48.19969" lon="-2.69205">
        <ele>218.80000305176</ele>
        <time>2021-10-15T13:24:27.000Z</time>
      </trkpt>
      <trkpt lat="48.19969" lon="-2.69205">
        <ele>218.80000305176</ele>
        <time>2021-10-15T13:24:28.000Z</time>
      </trkpt>
      <trkpt lat="48.19962" lon="-2.69214">
        <ele>219</ele>
        <time>2021-10-15T13:24:29.000Z</time>
      </trkpt>
      <trkpt lat="48.19962" lon="-2.69214">
        <ele>219</ele>
        <time>2021-10-15T13:24:30.000Z</time>
      </trkpt>
      <trkpt lat="48.19958" lon="-2.69226">
        <ele>218.80000305176</ele>
        <time>2021-10-15T13:24:31.000Z</time>
      </trkpt>
      <trkpt lat="48.19958" lon="-2.69226">
        <ele>218.80000305176</ele>
        <time>2021-10-15T13:24:32.000Z</time>
      </trkpt>
      <trkpt lat="48.19955" lon="-2.69242">
        <ele>218.60000610352</ele>
        <time>2021-10-15T13:24:33.000Z</time>
      </trkpt>
      <trkpt lat="48.19955" lon="-2.69242">
        <ele>218.60000610352</ele>
        <time>2021-10-15T13:24:34.000Z</time>
      </trkpt>
      <trkpt lat="48.1995" lon="-2.69252">
        <ele>218.39999389648</ele>
        <time>2021-10-15T13:24:35.000Z</time>
      </trkpt>
      <trkpt lat="48.1995" lon="-2.69252">
        <ele>218.39999389648</ele>
        <time>2021-10-15T13:24:36.000Z</time>
      </trkpt>
      <trkpt lat="48.19947" lon="-2.69268">
        <ele>218.60000610352</ele>
        <time>2021-10-15T13:24:37.000Z</time>
      </trkpt>
      <trkpt lat="48.19947" lon="-2.69268">
        <ele>218.60000610352</ele>
        <time>2021-10-15T13:24:38.000Z</time>
      </trkpt>
      <trkpt lat="48.19944" lon="-2.69292">
        <ele>219.19999694824</ele>
        <time>2021-10-15T13:24:39.000Z</time>
      </trkpt>
      <trkpt lat="48.19944" lon="-2.69292">
        <ele>219.19999694824</ele>
        <time>2021-10-15T13:24:40.000Z</time>
      </trkpt>
      <trkpt lat="48.19939" lon="-2.69309">
        <ele>219.19999694824</ele>
        <time>2021-10-15T13:24:41.000Z</time>
      </trkpt>
      <trkpt lat="48.19939" lon="-2.69309">
        <ele>219.19999694824</ele>
        <time>2021-10-15T13:24:42.000Z</time>
      </trkpt>
      <trkpt lat="48.19932" lon="-2.69323">
        <ele>219</ele>
        <time>2021-10-15T13:24:43.000Z</time>
      </trkpt>
      <trkpt lat="48.19932" lon="-2.69323">
        <ele>219</ele>
        <time>2021-10-15T13:24:44.000Z</time>
      </trkpt>
      <trkpt lat="48.19929" lon="-2.69333">
        <ele>219</ele>
        <time>2021-10-15T13:24:45.000Z</time>
      </trkpt>
      <trkpt lat="48.19923" lon="-2.6935">
        <ele>219</ele>
        <time>2021-10-15T13:24:46.000Z</time>
      </trkpt>
      <trkpt lat="48.19923" lon="-2.6935">
        <ele>219</ele>
        <time>2021-10-15T13:24:47.000Z</time>
      </trkpt>
      <trkpt lat="48.19915" lon="-2.69366">
        <ele>218.80000305176</ele>
        <time>2021-10-15T13:24:48.000Z</time>
      </trkpt>
      <trkpt lat="48.19915" lon="-2.69366">
        <ele>218.80000305176</ele>
        <time>2021-10-15T13:24:49.000Z</time>
      </trkpt>
      <trkpt lat="48.19908" lon="-2.69382">
        <ele>218</ele>
        <time>2021-10-15T13:24:50.000Z</time>
      </trkpt>
      <trkpt lat="48.19908" lon="-2.69382">
        <ele>218</ele>
        <time>2021-10-15T13:24:51.000Z</time>
      </trkpt>
      <trkpt lat="48.199" lon="-2.694">
        <ele>217.60000610352</ele>
        <time>2021-10-15T13:24:52.000Z</time>
      </trkpt>
      <trkpt lat="48.19896" lon="-2.6941">
        <ele>217.60000610352</ele>
        <time>2021-10-15T13:24:53.000Z</time>
      </trkpt>
      <trkpt lat="48.19896" lon="-2.6941">
        <ele>217.60000610352</ele>
        <time>2021-10-15T13:24:54.000Z</time>
      </trkpt>
      <trkpt lat="48.19891" lon="-2.69419">
        <ele>217.60000610352</ele>
        <time>2021-10-15T13:24:55.000Z</time>
      </trkpt>
      <trkpt lat="48.19882" lon="-2.69436">
        <ele>217.60000610352</ele>
        <time>2021-10-15T13:24:56.000Z</time>
      </trkpt>
      <trkpt lat="48.19882" lon="-2.69436">
        <ele>217.60000610352</ele>
        <time>2021-10-15T13:24:57.000Z</time>
      </trkpt>
      <trkpt lat="48.19873" lon="-2.69454">
        <ele>217.39999389648</ele>
        <time>2021-10-15T13:24:58.000Z</time>
      </trkpt>
      <trkpt lat="48.19873" lon="-2.69454">
        <ele>217.39999389648</ele>
        <time>2021-10-15T13:24:59.000Z</time>
      </trkpt>
      <trkpt lat="48.19864" lon="-2.69472">
        <ele>217</ele>
        <time>2021-10-15T13:25:00.000Z</time>
      </trkpt>
      <trkpt lat="48.19864" lon="-2.69472">
        <ele>217</ele>
        <time>2021-10-15T13:25:01.000Z</time>
      </trkpt>
      <trkpt lat="48.19854" lon="-2.69492">
        <ele>216.60000610352</ele>
        <time>2021-10-15T13:25:02.000Z</time>
      </trkpt>
      <trkpt lat="48.19854" lon="-2.69492">
        <ele>216.60000610352</ele>
        <time>2021-10-15T13:25:03.000Z</time>
      </trkpt>
      <trkpt lat="48.19843" lon="-2.69512">
        <ele>215.39999389648</ele>
        <time>2021-10-15T13:25:04.000Z</time>
      </trkpt>
      <trkpt lat="48.19843" lon="-2.69512">
        <ele>215.39999389648</ele>
        <time>2021-10-15T13:25:05.000Z</time>
      </trkpt>
      <trkpt lat="48.19838" lon="-2.69522">
        <ele>214.39999389648</ele>
        <time>2021-10-15T13:25:06.000Z</time>
      </trkpt>
      <trkpt lat="48.19827" lon="-2.69545">
        <ele>212.39999389648</ele>
        <time>2021-10-15T13:25:07.000Z</time>
      </trkpt>
      <trkpt lat="48.19827" lon="-2.69545">
        <ele>212.39999389648</ele>
        <time>2021-10-15T13:25:08.000Z</time>
      </trkpt>
      <trkpt lat="48.19814" lon="-2.69566">
        <ele>210.39999389648</ele>
        <time>2021-10-15T13:25:09.000Z</time>
      </trkpt>
      <trkpt lat="48.19814" lon="-2.69566">
        <ele>210.39999389648</ele>
        <time>2021-10-15T13:25:10.000Z</time>
      </trkpt>
      <trkpt lat="48.19802" lon="-2.6959">
        <ele>208.60000610352</ele>
        <time>2021-10-15T13:25:11.000Z</time>
      </trkpt>
      <trkpt lat="48.19802" lon="-2.6959">
        <ele>208.60000610352</ele>
        <time>2021-10-15T13:25:12.000Z</time>
      </trkpt>
      <trkpt lat="48.1979" lon="-2.69615">
        <ele>208.39999389648</ele>
        <time>2021-10-15T13:25:13.000Z</time>
      </trkpt>
      <trkpt lat="48.1979" lon="-2.69615">
        <ele>208.39999389648</ele>
        <time>2021-10-15T13:25:14.000Z</time>
      </trkpt>
      <trkpt lat="48.19777" lon="-2.69639">
        <ele>208.39999389648</ele>
        <time>2021-10-15T13:25:15.000Z</time>
      </trkpt>
      <trkpt lat="48.19777" lon="-2.69639">
        <ele>208.39999389648</ele>
        <time>2021-10-15T13:25:16.000Z</time>
      </trkpt>
      <trkpt lat="48.19765" lon="-2.69662">
        <ele>209</ele>
        <time>2021-10-15T13:25:17.000Z</time>
      </trkpt>
      <trkpt lat="48.19765" lon="-2.69662">
        <ele>209</ele>
        <time>2021-10-15T13:25:18.000Z</time>
      </trkpt>
      <trkpt lat="48.19754" lon="-2.69686">
        <ele>208.80000305176</ele>
        <time>2021-10-15T13:25:19.000Z</time>
      </trkpt>
      <trkpt lat="48.19754" lon="-2.69686">
        <ele>208.80000305176</ele>
        <time>2021-10-15T13:25:20.000Z</time>
      </trkpt>
      <trkpt lat="48.19742" lon="-2.69709">
        <ele>208</ele>
        <time>2021-10-15T13:25:21.000Z</time>
      </trkpt>
      <trkpt lat="48.19742" lon="-2.69709">
        <ele>208</ele>
        <time>2021-10-15T13:25:22.000Z</time>
      </trkpt>
      <trkpt lat="48.1973" lon="-2.6973">
        <ele>206.80000305176</ele>
        <time>2021-10-15T13:25:23.000Z</time>
      </trkpt>
      <trkpt lat="48.1973" lon="-2.6973">
        <ele>206.80000305176</ele>
        <time>2021-10-15T13:25:24.000Z</time>
      </trkpt>
      <trkpt lat="48.19718" lon="-2.69752">
        <ele>205.39999389648</ele>
        <time>2021-10-15T13:25:25.000Z</time>
      </trkpt>
      <trkpt lat="48.19718" lon="-2.69752">
        <ele>205.39999389648</ele>
        <time>2021-10-15T13:25:26.000Z</time>
      </trkpt>
      <trkpt lat="48.19706" lon="-2.69774">
        <ele>203.19999694824</ele>
        <time>2021-10-15T13:25:27.000Z</time>
      </trkpt>
      <trkpt lat="48.19706" lon="-2.69774">
        <ele>203.19999694824</ele>
        <time>2021-10-15T13:25:28.000Z</time>
      </trkpt>
      <trkpt lat="48.19694" lon="-2.69796">
        <ele>201.19999694824</ele>
        <time>2021-10-15T13:25:29.000Z</time>
      </trkpt>
      <trkpt lat="48.19694" lon="-2.69796">
        <ele>201.19999694824</ele>
        <time>2021-10-15T13:25:30.000Z</time>
      </trkpt>
      <trkpt lat="48.19681" lon="-2.69819">
        <ele>199.19999694824</ele>
        <time>2021-10-15T13:25:31.000Z</time>
      </trkpt>
      <trkpt lat="48.19681" lon="-2.69819">
        <ele>199.19999694824</ele>
        <time>2021-10-15T13:25:32.000Z</time>
      </trkpt>
      <trkpt lat="48.19668" lon="-2.69844">
        <ele>197.39999389648</ele>
        <time>2021-10-15T13:25:33.000Z</time>
      </trkpt>
      <trkpt lat="48.19668" lon="-2.69844">
        <ele>197.39999389648</ele>
        <time>2021-10-15T13:25:34.000Z</time>
      </trkpt>
      <trkpt lat="48.19656" lon="-2.6987">
        <ele>196.80000305176</ele>
        <time>2021-10-15T13:25:35.000Z</time>
      </trkpt>
      <trkpt lat="48.19656" lon="-2.6987">
        <ele>196.80000305176</ele>
        <time>2021-10-15T13:25:36.000Z</time>
      </trkpt>
      <trkpt lat="48.19643" lon="-2.69895">
        <ele>195</ele>
        <time>2021-10-15T13:25:37.000Z</time>
      </trkpt>
      <trkpt lat="48.19643" lon="-2.69895">
        <ele>195</ele>
        <time>2021-10-15T13:25:38.000Z</time>
      </trkpt>
      <trkpt lat="48.19631" lon="-2.69917">
        <ele>194</ele>
        <time>2021-10-15T13:25:39.000Z</time>
      </trkpt>
      <trkpt lat="48.19631" lon="-2.69917">
        <ele>194</ele>
        <time>2021-10-15T13:25:40.000Z</time>
      </trkpt>
      <trkpt lat="48.1962" lon="-2.69939">
        <ele>193.80000305176</ele>
        <time>2021-10-15T13:25:41.000Z</time>
      </trkpt>
      <trkpt lat="48.1962" lon="-2.69939">
        <ele>193.80000305176</ele>
        <time>2021-10-15T13:25:42.000Z</time>
      </trkpt>
      <trkpt lat="48.19609" lon="-2.69959">
        <ele>194</ele>
        <time>2021-10-15T13:25:43.000Z</time>
      </trkpt>
      <trkpt lat="48.19609" lon="-2.69959">
        <ele>194</ele>
        <time>2021-10-15T13:25:44.000Z</time>
      </trkpt>
      <trkpt lat="48.19598" lon="-2.69979">
        <ele>195.19999694824</ele>
        <time>2021-10-15T13:25:45.000Z</time>
      </trkpt>
      <trkpt lat="48.19598" lon="-2.69979">
        <ele>195.19999694824</ele>
        <time>2021-10-15T13:25:46.000Z</time>
      </trkpt>
      <trkpt lat="48.19587" lon="-2.69998">
        <ele>196.39999389648</ele>
        <time>2021-10-15T13:25:47.000Z</time>
      </trkpt>
      <trkpt lat="48.19587" lon="-2.69998">
        <ele>196.39999389648</ele>
        <time>2021-10-15T13:25:48.000Z</time>
      </trkpt>
      <trkpt lat="48.19581" lon="-2.70007">
        <ele>197</ele>
        <time>2021-10-15T13:25:49.000Z</time>
      </trkpt>
      <trkpt lat="48.19572" lon="-2.70025">
        <ele>197.60000610352</ele>
        <time>2021-10-15T13:25:50.000Z</time>
      </trkpt>
      <trkpt lat="48.19572" lon="-2.70025">
        <ele>197.60000610352</ele>
        <time>2021-10-15T13:25:51.000Z</time>
      </trkpt>
      <trkpt lat="48.19563" lon="-2.70042">
        <ele>197.19999694824</ele>
        <time>2021-10-15T13:25:52.000Z</time>
      </trkpt>
      <trkpt lat="48.19563" lon="-2.70042">
        <ele>197.19999694824</ele>
        <time>2021-10-15T13:25:53.000Z</time>
      </trkpt>
      <trkpt lat="48.19554" lon="-2.70058">
        <ele>196.39999389648</ele>
        <time>2021-10-15T13:25:54.000Z</time>
      </trkpt>
      <trkpt lat="48.19554" lon="-2.70058">
        <ele>196.39999389648</ele>
        <time>2021-10-15T13:25:55.000Z</time>
      </trkpt>
      <trkpt lat="48.19545" lon="-2.70074">
        <ele>195</ele>
        <time>2021-10-15T13:25:56.000Z</time>
      </trkpt>
      <trkpt lat="48.19545" lon="-2.70074">
        <ele>195</ele>
        <time>2021-10-15T13:25:57.000Z</time>
      </trkpt>
      <trkpt lat="48.19536" lon="-2.70091">
        <ele>193.60000610352</ele>
        <time>2021-10-15T13:25:58.000Z</time>
      </trkpt>
      <trkpt lat="48.19536" lon="-2.70091">
        <ele>193.60000610352</ele>
        <time>2021-10-15T13:25:59.000Z</time>
      </trkpt>
      <trkpt lat="48.19527" lon="-2.70108">
        <ele>192.60000610352</ele>
        <time>2021-10-15T13:26:00.000Z</time>
      </trkpt>
      <trkpt lat="48.19527" lon="-2.70108">
        <ele>192.60000610352</ele>
        <time>2021-10-15T13:26:01.000Z</time>
      </trkpt>
      <trkpt lat="48.19518" lon="-2.70127">
        <ele>191.60000610352</ele>
        <time>2021-10-15T13:26:02.000Z</time>
      </trkpt>
      <trkpt lat="48.19512" lon="-2.70137">
        <ele>191.19999694824</ele>
        <time>2021-10-15T13:26:03.000Z</time>
      </trkpt>
      <trkpt lat="48.19512" lon="-2.70137">
        <ele>191.19999694824</ele>
        <time>2021-10-15T13:26:04.000Z</time>
      </trkpt>
      <trkpt lat="48.195" lon="-2.70159">
        <ele>190.39999389648</ele>
        <time>2021-10-15T13:26:05.000Z</time>
      </trkpt>
      <trkpt lat="48.195" lon="-2.70159">
        <ele>190.39999389648</ele>
        <time>2021-10-15T13:26:06.000Z</time>
      </trkpt>
      <trkpt lat="48.19487" lon="-2.70183">
        <ele>189.39999389648</ele>
        <time>2021-10-15T13:26:07.000Z</time>
      </trkpt>
      <trkpt lat="48.19487" lon="-2.70183">
        <ele>189.39999389648</ele>
        <time>2021-10-15T13:26:08.000Z</time>
      </trkpt>
      <trkpt lat="48.19474" lon="-2.70209">
        <ele>188.39999389648</ele>
        <time>2021-10-15T13:26:09.000Z</time>
      </trkpt>
      <trkpt lat="48.19474" lon="-2.70209">
        <ele>188.39999389648</ele>
        <time>2021-10-15T13:26:10.000Z</time>
      </trkpt>
      <trkpt lat="48.19461" lon="-2.70234">
        <ele>187.39999389648</ele>
        <time>2021-10-15T13:26:11.000Z</time>
      </trkpt>
      <trkpt lat="48.19461" lon="-2.70234">
        <ele>187.39999389648</ele>
        <time>2021-10-15T13:26:12.000Z</time>
      </trkpt>
      <trkpt lat="48.19447" lon="-2.7026">
        <ele>185.19999694824</ele>
        <time>2021-10-15T13:26:13.000Z</time>
      </trkpt>
      <trkpt lat="48.19447" lon="-2.7026">
        <ele>185.19999694824</ele>
        <time>2021-10-15T13:26:14.000Z</time>
      </trkpt>
      <trkpt lat="48.19433" lon="-2.70287">
        <ele>183.60000610352</ele>
        <time>2021-10-15T13:26:15.000Z</time>
      </trkpt>
      <trkpt lat="48.19433" lon="-2.70287">
        <ele>183.60000610352</ele>
        <time>2021-10-15T13:26:16.000Z</time>
      </trkpt>
      <trkpt lat="48.19419" lon="-2.70312">
        <ele>180.80000305176</ele>
        <time>2021-10-15T13:26:17.000Z</time>
      </trkpt>
      <trkpt lat="48.19419" lon="-2.70312">
        <ele>180.80000305176</ele>
        <time>2021-10-15T13:26:18.000Z</time>
      </trkpt>
      <trkpt lat="48.19406" lon="-2.70337">
        <ele>179</ele>
        <time>2021-10-15T13:26:19.000Z</time>
      </trkpt>
      <trkpt lat="48.19406" lon="-2.70337">
        <ele>179</ele>
        <time>2021-10-15T13:26:20.000Z</time>
      </trkpt>
      <trkpt lat="48.19392" lon="-2.70361">
        <ele>178.60000610352</ele>
        <time>2021-10-15T13:26:21.000Z</time>
      </trkpt>
      <trkpt lat="48.19392" lon="-2.70361">
        <ele>178.60000610352</ele>
        <time>2021-10-15T13:26:22.000Z</time>
      </trkpt>
      <trkpt lat="48.1938" lon="-2.70384">
        <ele>178.60000610352</ele>
        <time>2021-10-15T13:26:23.000Z</time>
      </trkpt>
      <trkpt lat="48.1938" lon="-2.70384">
        <ele>178.60000610352</ele>
        <time>2021-10-15T13:26:24.000Z</time>
      </trkpt>
      <trkpt lat="48.19367" lon="-2.70406">
        <ele>178.60000610352</ele>
        <time>2021-10-15T13:26:25.000Z</time>
      </trkpt>
      <trkpt lat="48.19367" lon="-2.70406">
        <ele>178.60000610352</ele>
        <time>2021-10-15T13:26:26.000Z</time>
      </trkpt>
      <trkpt lat="48.19356" lon="-2.70428">
        <ele>178</ele>
        <time>2021-10-15T13:26:27.000Z</time>
      </trkpt>
      <trkpt lat="48.19356" lon="-2.70428">
        <ele>178</ele>
        <time>2021-10-15T13:26:28.000Z</time>
      </trkpt>
      <trkpt lat="48.19345" lon="-2.70451">
        <ele>176.80000305176</ele>
        <time>2021-10-15T13:26:29.000Z</time>
      </trkpt>
      <trkpt lat="48.19345" lon="-2.70451">
        <ele>176.80000305176</ele>
        <time>2021-10-15T13:26:30.000Z</time>
      </trkpt>
      <trkpt lat="48.19334" lon="-2.70473">
        <ele>176.19999694824</ele>
        <time>2021-10-15T13:26:31.000Z</time>
      </trkpt>
      <trkpt lat="48.19334" lon="-2.70473">
        <ele>176.19999694824</ele>
        <time>2021-10-15T13:26:32.000Z</time>
      </trkpt>
      <trkpt lat="48.19323" lon="-2.70494">
        <ele>176</ele>
        <time>2021-10-15T13:26:33.000Z</time>
      </trkpt>
      <trkpt lat="48.19323" lon="-2.70494">
        <ele>176</ele>
        <time>2021-10-15T13:26:34.000Z</time>
      </trkpt>
      <trkpt lat="48.19312" lon="-2.70514">
        <ele>176.19999694824</ele>
        <time>2021-10-15T13:26:35.000Z</time>
      </trkpt>
      <trkpt lat="48.19312" lon="-2.70514">
        <ele>176.19999694824</ele>
        <time>2021-10-15T13:26:36.000Z</time>
      </trkpt>
      <trkpt lat="48.19302" lon="-2.70533">
        <ele>176.80000305176</ele>
        <time>2021-10-15T13:26:37.000Z</time>
      </trkpt>
      <trkpt lat="48.19302" lon="-2.70533">
        <ele>176.80000305176</ele>
        <time>2021-10-15T13:26:38.000Z</time>
      </trkpt>
      <trkpt lat="48.19292" lon="-2.70552">
        <ele>177.80000305176</ele>
        <time>2021-10-15T13:26:39.000Z</time>
      </trkpt>
      <trkpt lat="48.19292" lon="-2.70552">
        <ele>177.80000305176</ele>
        <time>2021-10-15T13:26:40.000Z</time>
      </trkpt>
      <trkpt lat="48.19282" lon="-2.70569">
        <ele>178.80000305176</ele>
        <time>2021-10-15T13:26:41.000Z</time>
      </trkpt>
      <trkpt lat="48.19282" lon="-2.70569">
        <ele>178.80000305176</ele>
        <time>2021-10-15T13:26:42.000Z</time>
      </trkpt>
      <trkpt lat="48.19273" lon="-2.70586">
        <ele>179.60000610352</ele>
        <time>2021-10-15T13:26:43.000Z</time>
      </trkpt>
      <trkpt lat="48.19273" lon="-2.70586">
        <ele>179.60000610352</ele>
        <time>2021-10-15T13:26:44.000Z</time>
      </trkpt>
      <trkpt lat="48.19264" lon="-2.70603">
        <ele>179.80000305176</ele>
        <time>2021-10-15T13:26:45.000Z</time>
      </trkpt>
      <trkpt lat="48.19264" lon="-2.70603">
        <ele>179.80000305176</ele>
        <time>2021-10-15T13:26:46.000Z</time>
      </trkpt>
      <trkpt lat="48.19257" lon="-2.70619">
        <ele>179.60000610352</ele>
        <time>2021-10-15T13:26:47.000Z</time>
      </trkpt>
      <trkpt lat="48.19257" lon="-2.70619">
        <ele>179.60000610352</ele>
        <time>2021-10-15T13:26:48.000Z</time>
      </trkpt>
      <trkpt lat="48.19253" lon="-2.70636">
        <ele>179.60000610352</ele>
        <time>2021-10-15T13:26:49.000Z</time>
      </trkpt>
      <trkpt lat="48.19253" lon="-2.70636">
        <ele>179.60000610352</ele>
        <time>2021-10-15T13:26:50.000Z</time>
      </trkpt>
      <trkpt lat="48.19249" lon="-2.70652">
        <ele>179.39999389648</ele>
        <time>2021-10-15T13:26:51.000Z</time>
      </trkpt>
      <trkpt lat="48.19249" lon="-2.70652">
        <ele>179.39999389648</ele>
        <time>2021-10-15T13:26:52.000Z</time>
      </trkpt>
      <trkpt lat="48.19245" lon="-2.70667">
        <ele>178.80000305176</ele>
        <time>2021-10-15T13:26:53.000Z</time>
      </trkpt>
      <trkpt lat="48.19245" lon="-2.70667">
        <ele>178.80000305176</ele>
        <time>2021-10-15T13:26:54.000Z</time>
      </trkpt>
      <trkpt lat="48.19244" lon="-2.70675">
        <ele>178.60000610352</ele>
        <time>2021-10-15T13:26:55.000Z</time>
      </trkpt>
      <trkpt lat="48.19241" lon="-2.70688">
        <ele>178.60000610352</ele>
        <time>2021-10-15T13:26:56.000Z</time>
      </trkpt>
      <trkpt lat="48.19241" lon="-2.70688">
        <ele>178.60000610352</ele>
        <time>2021-10-15T13:26:57.000Z</time>
      </trkpt>
      <trkpt lat="48.19236" lon="-2.707">
        <ele>178.39999389648</ele>
        <time>2021-10-15T13:26:58.000Z</time>
      </trkpt>
      <trkpt lat="48.19236" lon="-2.707">
        <ele>178.39999389648</ele>
        <time>2021-10-15T13:26:59.000Z</time>
      </trkpt>
      <trkpt lat="48.19231" lon="-2.70712">
        <ele>177.80000305176</ele>
        <time>2021-10-15T13:27:00.000Z</time>
      </trkpt>
      <trkpt lat="48.19231" lon="-2.70712">
        <ele>177.80000305176</ele>
        <time>2021-10-15T13:27:01.000Z</time>
      </trkpt>
      <trkpt lat="48.19228" lon="-2.70725">
        <ele>177.19999694824</ele>
        <time>2021-10-15T13:27:02.000Z</time>
      </trkpt>
      <trkpt lat="48.19228" lon="-2.70725">
        <ele>177.19999694824</ele>
        <time>2021-10-15T13:27:03.000Z</time>
      </trkpt>
      <trkpt lat="48.19224" lon="-2.70738">
        <ele>176.60000610352</ele>
        <time>2021-10-15T13:27:04.000Z</time>
      </trkpt>
      <trkpt lat="48.19224" lon="-2.70738">
        <ele>176.60000610352</ele>
        <time>2021-10-15T13:27:05.000Z</time>
      </trkpt>
      <trkpt lat="48.19219" lon="-2.70749">
        <ele>176</ele>
        <time>2021-10-15T13:27:06.000Z</time>
      </trkpt>
      <trkpt lat="48.19219" lon="-2.70749">
        <ele>176</ele>
        <time>2021-10-15T13:27:07.000Z</time>
      </trkpt>
      <trkpt lat="48.19212" lon="-2.70762">
        <ele>175.19999694824</ele>
        <time>2021-10-15T13:27:08.000Z</time>
      </trkpt>
      <trkpt lat="48.19212" lon="-2.70762">
        <ele>175.19999694824</ele>
        <time>2021-10-15T13:27:09.000Z</time>
      </trkpt>
      <trkpt lat="48.19203" lon="-2.70773">
        <ele>173.80000305176</ele>
        <time>2021-10-15T13:27:10.000Z</time>
      </trkpt>
      <trkpt lat="48.19203" lon="-2.70773">
        <ele>173.80000305176</ele>
        <time>2021-10-15T13:27:11.000Z</time>
      </trkpt>
      <trkpt lat="48.19192" lon="-2.70783">
        <ele>172.19999694824</ele>
        <time>2021-10-15T13:27:12.000Z</time>
      </trkpt>
      <trkpt lat="48.19192" lon="-2.70783">
        <ele>172.19999694824</ele>
        <time>2021-10-15T13:27:13.000Z</time>
      </trkpt>
      <trkpt lat="48.19186" lon="-2.70788">
        <ele>171.80000305176</ele>
        <time>2021-10-15T13:27:14.000Z</time>
      </trkpt>
      <trkpt lat="48.19174" lon="-2.70798">
        <ele>170.19999694824</ele>
        <time>2021-10-15T13:27:15.000Z</time>
      </trkpt>
      <trkpt lat="48.19174" lon="-2.70798">
        <ele>170.19999694824</ele>
        <time>2021-10-15T13:27:16.000Z</time>
      </trkpt>
      <trkpt lat="48.19167" lon="-2.70803">
        <ele>169.19999694824</ele>
        <time>2021-10-15T13:27:17.000Z</time>
      </trkpt>
      <trkpt lat="48.1916" lon="-2.70809">
        <ele>168.19999694824</ele>
        <time>2021-10-15T13:27:18.000Z</time>
      </trkpt>
      <trkpt lat="48.19145" lon="-2.70822">
        <ele>165.60000610352</ele>
        <time>2021-10-15T13:27:19.000Z</time>
      </trkpt>
      <trkpt lat="48.19145" lon="-2.70822">
        <ele>165.60000610352</ele>
        <time>2021-10-15T13:27:20.000Z</time>
      </trkpt>
      <trkpt lat="48.1913" lon="-2.70839">
        <ele>163</ele>
        <time>2021-10-15T13:27:21.000Z</time>
      </trkpt>
      <trkpt lat="48.1913" lon="-2.70839">
        <ele>163</ele>
        <time>2021-10-15T13:27:22.000Z</time>
      </trkpt>
      <trkpt lat="48.19115" lon="-2.70859">
        <ele>162</ele>
        <time>2021-10-15T13:27:23.000Z</time>
      </trkpt>
      <trkpt lat="48.19115" lon="-2.70859">
        <ele>162</ele>
        <time>2021-10-15T13:27:24.000Z</time>
      </trkpt>
      <trkpt lat="48.19102" lon="-2.70883">
        <ele>161</ele>
        <time>2021-10-15T13:27:25.000Z</time>
      </trkpt>
      <trkpt lat="48.19102" lon="-2.70883">
        <ele>161</ele>
        <time>2021-10-15T13:27:26.000Z</time>
      </trkpt>
      <trkpt lat="48.19091" lon="-2.70905">
        <ele>160.80000305176</ele>
        <time>2021-10-15T13:27:27.000Z</time>
      </trkpt>
      <trkpt lat="48.19091" lon="-2.70905">
        <ele>160.80000305176</ele>
        <time>2021-10-15T13:27:28.000Z</time>
      </trkpt>
      <trkpt lat="48.19082" lon="-2.70926">
        <ele>161.39999389648</ele>
        <time>2021-10-15T13:27:29.000Z</time>
      </trkpt>
      <trkpt lat="48.19082" lon="-2.70926">
        <ele>161.39999389648</ele>
        <time>2021-10-15T13:27:30.000Z</time>
      </trkpt>
      <trkpt lat="48.19072" lon="-2.70945">
        <ele>161.60000610352</ele>
        <time>2021-10-15T13:27:31.000Z</time>
      </trkpt>
      <trkpt lat="48.19072" lon="-2.70945">
        <ele>161.60000610352</ele>
        <time>2021-10-15T13:27:32.000Z</time>
      </trkpt>
      <trkpt lat="48.19065" lon="-2.70963">
        <ele>161.80000305176</ele>
        <time>2021-10-15T13:27:33.000Z</time>
      </trkpt>
      <trkpt lat="48.19065" lon="-2.70963">
        <ele>161.80000305176</ele>
        <time>2021-10-15T13:27:34.000Z</time>
      </trkpt>
      <trkpt lat="48.19059" lon="-2.70976">
        <ele>162.19999694824</ele>
        <time>2021-10-15T13:27:35.000Z</time>
      </trkpt>
      <trkpt lat="48.19059" lon="-2.70976">
        <ele>162.19999694824</ele>
        <time>2021-10-15T13:27:36.000Z</time>
      </trkpt>
      <trkpt lat="48.19055" lon="-2.70987">
        <ele>162.39999389648</ele>
        <time>2021-10-15T13:27:37.000Z</time>
      </trkpt>
      <trkpt lat="48.19055" lon="-2.70987">
        <ele>162.39999389648</ele>
        <time>2021-10-15T13:27:38.000Z</time>
      </trkpt>
      <trkpt lat="48.1905" lon="-2.70996">
        <ele>162.60000610352</ele>
        <time>2021-10-15T13:27:39.000Z</time>
      </trkpt>
      <trkpt lat="48.1905" lon="-2.70996">
        <ele>162.60000610352</ele>
        <time>2021-10-15T13:27:40.000Z</time>
      </trkpt>
      <trkpt lat="48.19047" lon="-2.71">
        <ele>162.60000610352</ele>
        <time>2021-10-15T13:27:41.000Z</time>
      </trkpt>
      <trkpt lat="48.19045" lon="-2.71005">
        <ele>162.80000305176</ele>
        <time>2021-10-15T13:27:42.000Z</time>
      </trkpt>
      <trkpt lat="48.1904" lon="-2.71014">
        <ele>163.19999694824</ele>
        <time>2021-10-15T13:27:43.000Z</time>
      </trkpt>
      <trkpt lat="48.1904" lon="-2.71014">
        <ele>163.19999694824</ele>
        <time>2021-10-15T13:27:44.000Z</time>
      </trkpt>
      <trkpt lat="48.19039" lon="-2.71019">
        <ele>163.39999389648</ele>
        <time>2021-10-15T13:27:45.000Z</time>
      </trkpt>
      <trkpt lat="48.19039" lon="-2.71019">
        <ele>163.39999389648</ele>
        <time>2021-10-15T13:27:46.000Z</time>
      </trkpt>
      <trkpt lat="48.19039" lon="-2.7102">
        <ele>163.39999389648</ele>
        <time>2021-10-15T13:27:47.000Z</time>
      </trkpt>
      <trkpt lat="48.19039" lon="-2.7102">
        <ele>163.39999389648</ele>
        <time>2021-10-15T13:27:48.000Z</time>
      </trkpt>
      <trkpt lat="48.19039" lon="-2.7102">
        <ele>163.39999389648</ele>
        <time>2021-10-15T13:27:49.000Z</time>
      </trkpt>
      <trkpt lat="48.19039" lon="-2.7102">
        <ele>163.39999389648</ele>
        <time>2021-10-15T13:27:50.000Z</time>
      </trkpt>
      <trkpt lat="48.19039" lon="-2.7102">
        <ele>163.39999389648</ele>
        <time>2021-10-15T13:27:51.000Z</time>
      </trkpt>
      <trkpt lat="48.19039" lon="-2.7102">
        <ele>163.39999389648</ele>
        <time>2021-10-15T13:27:52.000Z</time>
      </trkpt>
      <trkpt lat="48.19039" lon="-2.7102">
        <ele>163.39999389648</ele>
        <time>2021-10-15T13:27:53.000Z</time>
      </trkpt>
      <trkpt lat="48.19039" lon="-2.7102">
        <ele>163.39999389648</ele>
        <time>2021-10-15T13:27:54.000Z</time>
      </trkpt>
      <trkpt lat="48.19039" lon="-2.7102">
        <ele>163.39999389648</ele>
        <time>2021-10-15T13:27:55.000Z</time>
      </trkpt>
      <trkpt lat="48.19039" lon="-2.7102">
        <ele>163.39999389648</ele>
        <time>2021-10-15T13:27:56.000Z</time>
      </trkpt>
      <trkpt lat="48.19039" lon="-2.7102">
        <ele>163.39999389648</ele>
        <time>2021-10-15T13:27:57.000Z</time>
      </trkpt>
      <trkpt lat="48.19039" lon="-2.7102">
        <ele>163.39999389648</ele>
        <time>2021-10-15T13:27:58.000Z</time>
      </trkpt>
      <trkpt lat="48.19039" lon="-2.7102">
        <ele>163.39999389648</ele>
        <time>2021-10-15T13:27:59.000Z</time>
      </trkpt>
      <trkpt lat="48.19039" lon="-2.7102">
        <ele>163.39999389648</ele>
        <time>2021-10-15T13:28:00.000Z</time>
      </trkpt>
      <trkpt lat="48.19039" lon="-2.7102">
        <ele>163.39999389648</ele>
        <time>2021-10-15T13:28:01.000Z</time>
      </trkpt>
      <trkpt lat="48.19039" lon="-2.7102">
        <ele>163.39999389648</ele>
        <time>2021-10-15T13:28:02.000Z</time>
      </trkpt>
      <trkpt lat="48.19039" lon="-2.7102">
        <ele>163.39999389648</ele>
        <time>2021-10-15T13:28:03.000Z</time>
      </trkpt>
      <trkpt lat="48.19039" lon="-2.7102">
        <ele>163.39999389648</ele>
        <time>2021-10-15T13:28:04.000Z</time>
      </trkpt>
      <trkpt lat="48.19039" lon="-2.7102">
        <ele>163.39999389648</ele>
        <time>2021-10-15T13:28:05.000Z</time>
      </trkpt>
      <trkpt lat="48.19039" lon="-2.7102">
        <ele>163.39999389648</ele>
        <time>2021-10-15T13:28:06.000Z</time>
      </trkpt>
      <trkpt lat="48.19039" lon="-2.7102">
        <ele>163.39999389648</ele>
        <time>2021-10-15T13:28:07.000Z</time>
      </trkpt>
      <trkpt lat="48.19039" lon="-2.7102">
        <ele>163.39999389648</ele>
        <time>2021-10-15T13:28:08.000Z</time>
      </trkpt>
      <trkpt lat="48.19039" lon="-2.7102">
        <ele>163.39999389648</ele>
        <time>2021-10-15T13:28:09.000Z</time>
      </trkpt>
      <trkpt lat="48.19039" lon="-2.7102">
        <ele>163.39999389648</ele>
        <time>2021-10-15T13:28:10.000Z</time>
      </trkpt>
      <trkpt lat="48.19039" lon="-2.7102">
        <ele>163.39999389648</ele>
        <time>2021-10-15T13:28:11.000Z</time>
      </trkpt>
      <trkpt lat="48.19039" lon="-2.7102">
        <ele>163.39999389648</ele>
        <time>2021-10-15T13:28:12.000Z</time>
      </trkpt>
      <trkpt lat="48.19039" lon="-2.7102">
        <ele>163.39999389648</ele>
        <time>2021-10-15T13:28:13.000Z</time>
      </trkpt>
      <trkpt lat="48.19039" lon="-2.7102">
        <ele>163.39999389648</ele>
        <time>2021-10-15T13:28:14.000Z</time>
      </trkpt>
      <trkpt lat="48.19039" lon="-2.7102">
        <ele>163.39999389648</ele>
        <time>2021-10-15T13:28:15.000Z</time>
      </trkpt>
      <trkpt lat="48.19039" lon="-2.7102">
        <ele>163.39999389648</ele>
        <time>2021-10-15T13:28:16.000Z</time>
      </trkpt>
      <trkpt lat="48.19039" lon="-2.7102">
        <ele>163.39999389648</ele>
        <time>2021-10-15T13:28:17.000Z</time>
      </trkpt>
      <trkpt lat="48.19039" lon="-2.7102">
        <ele>163.39999389648</ele>
        <time>2021-10-15T13:28:18.000Z</time>
      </trkpt>
      <trkpt lat="48.19039" lon="-2.7102">
        <ele>163.39999389648</ele>
        <time>2021-10-15T13:28:19.000Z</time>
      </trkpt>
      <trkpt lat="48.19039" lon="-2.7102">
        <ele>163.39999389648</ele>
        <time>2021-10-15T13:28:20.000Z</time>
      </trkpt>
      <trkpt lat="48.19039" lon="-2.7102">
        <ele>163.39999389648</ele>
        <time>2021-10-15T13:28:21.000Z</time>
      </trkpt>
      <trkpt lat="48.19039" lon="-2.7102">
        <ele>163.39999389648</ele>
        <time>2021-10-15T13:28:22.000Z</time>
      </trkpt>
      <trkpt lat="48.19039" lon="-2.7102">
        <ele>163.39999389648</ele>
        <time>2021-10-15T13:28:23.000Z</time>
      </trkpt>
      <trkpt lat="48.19039" lon="-2.7102">
        <ele>163.39999389648</ele>
        <time>2021-10-15T13:28:24.000Z</time>
      </trkpt>
      <trkpt lat="48.19039" lon="-2.7102">
        <ele>163.39999389648</ele>
        <time>2021-10-15T13:28:25.000Z</time>
      </trkpt>
      <trkpt lat="48.19039" lon="-2.7102">
        <ele>163.39999389648</ele>
        <time>2021-10-15T13:28:26.000Z</time>
      </trkpt>
      <trkpt lat="48.19039" lon="-2.7102">
        <ele>163.39999389648</ele>
        <time>2021-10-15T13:28:27.000Z</time>
      </trkpt>
      <trkpt lat="48.19039" lon="-2.7102">
        <ele>163.39999389648</ele>
        <time>2021-10-15T13:28:28.000Z</time>
      </trkpt>
      <trkpt lat="48.19039" lon="-2.7102">
        <ele>163.39999389648</ele>
        <time>2021-10-15T13:28:29.000Z</time>
      </trkpt>
      <trkpt lat="48.19039" lon="-2.7102">
        <ele>163.39999389648</ele>
        <time>2021-10-15T13:28:30.000Z</time>
      </trkpt>
      <trkpt lat="48.19039" lon="-2.7102">
        <ele>163.39999389648</ele>
        <time>2021-10-15T13:28:31.000Z</time>
      </trkpt>
      <trkpt lat="48.19039" lon="-2.7102">
        <ele>163.39999389648</ele>
        <time>2021-10-15T13:28:32.000Z</time>
      </trkpt>
      <trkpt lat="48.19039" lon="-2.7102">
        <ele>163.39999389648</ele>
        <time>2021-10-15T13:28:33.000Z</time>
      </trkpt>
      <trkpt lat="48.19039" lon="-2.7102">
        <ele>163.39999389648</ele>
        <time>2021-10-15T13:28:34.000Z</time>
      </trkpt>
      <trkpt lat="48.19039" lon="-2.7102">
        <ele>163.39999389648</ele>
        <time>2021-10-15T13:28:35.000Z</time>
      </trkpt>
      <trkpt lat="48.19039" lon="-2.7102">
        <ele>163.39999389648</ele>
        <time>2021-10-15T13:28:36.000Z</time>
      </trkpt>
      <trkpt lat="48.19039" lon="-2.7102">
        <ele>163.39999389648</ele>
        <time>2021-10-15T13:28:37.000Z</time>
      </trkpt>
      <trkpt lat="48.19039" lon="-2.7102">
        <ele>163.39999389648</ele>
        <time>2021-10-15T13:28:38.000Z</time>
      </trkpt>
      <trkpt lat="48.19039" lon="-2.71021">
        <ele>163.60000610352</ele>
        <time>2021-10-15T13:28:39.000Z</time>
      </trkpt>
      <trkpt lat="48.19037" lon="-2.71025">
        <ele>163.60000610352</ele>
        <time>2021-10-15T13:28:40.000Z</time>
      </trkpt>
      <trkpt lat="48.19037" lon="-2.71025">
        <ele>163.60000610352</ele>
        <time>2021-10-15T13:28:41.000Z</time>
      </trkpt>
      <trkpt lat="48.19034" lon="-2.7103">
        <ele>163.80000305176</ele>
        <time>2021-10-15T13:28:42.000Z</time>
      </trkpt>
      <trkpt lat="48.19034" lon="-2.7103">
        <ele>163.80000305176</ele>
        <time>2021-10-15T13:28:43.000Z</time>
      </trkpt>
      <trkpt lat="48.1903" lon="-2.71035">
        <ele>164</ele>
        <time>2021-10-15T13:28:44.000Z</time>
      </trkpt>
      <trkpt lat="48.1903" lon="-2.71035">
        <ele>164</ele>
        <time>2021-10-15T13:28:45.000Z</time>
      </trkpt>
      <trkpt lat="48.19027" lon="-2.71042">
        <ele>164.19999694824</ele>
        <time>2021-10-15T13:28:46.000Z</time>
      </trkpt>
      <trkpt lat="48.19027" lon="-2.71042">
        <ele>164.19999694824</ele>
        <time>2021-10-15T13:28:47.000Z</time>
      </trkpt>
      <trkpt lat="48.19023" lon="-2.71048">
        <ele>164.39999389648</ele>
        <time>2021-10-15T13:28:48.000Z</time>
      </trkpt>
      <trkpt lat="48.19023" lon="-2.71048">
        <ele>164.39999389648</ele>
        <time>2021-10-15T13:28:49.000Z</time>
      </trkpt>
      <trkpt lat="48.19019" lon="-2.71055">
        <ele>164.60000610352</ele>
        <time>2021-10-15T13:28:50.000Z</time>
      </trkpt>
      <trkpt lat="48.19019" lon="-2.71055">
        <ele>164.60000610352</ele>
        <time>2021-10-15T13:28:51.000Z</time>
      </trkpt>
      <trkpt lat="48.19013" lon="-2.71061">
        <ele>164.80000305176</ele>
        <time>2021-10-15T13:28:52.000Z</time>
      </trkpt>
      <trkpt lat="48.19009" lon="-2.71064">
        <ele>164.60000610352</ele>
        <time>2021-10-15T13:28:53.000Z</time>
      </trkpt>
      <trkpt lat="48.19009" lon="-2.71064">
        <ele>164.60000610352</ele>
        <time>2021-10-15T13:28:54.000Z</time>
      </trkpt>
      <trkpt lat="48.19006" lon="-2.71068">
        <ele>164.60000610352</ele>
        <time>2021-10-15T13:28:55.000Z</time>
      </trkpt>
      <trkpt lat="48.18997" lon="-2.71074">
        <ele>164.19999694824</ele>
        <time>2021-10-15T13:28:56.000Z</time>
      </trkpt>
      <trkpt lat="48.18997" lon="-2.71074">
        <ele>164.19999694824</ele>
        <time>2021-10-15T13:28:57.000Z</time>
      </trkpt>
      <trkpt lat="48.18988" lon="-2.71082">
        <ele>163.80000305176</ele>
        <time>2021-10-15T13:28:58.000Z</time>
      </trkpt>
      <trkpt lat="48.18988" lon="-2.71082">
        <ele>163.80000305176</ele>
        <time>2021-10-15T13:28:59.000Z</time>
      </trkpt>
      <trkpt lat="48.18976" lon="-2.71089">
        <ele>163.39999389648</ele>
        <time>2021-10-15T13:29:00.000Z</time>
      </trkpt>
      <trkpt lat="48.18976" lon="-2.71089">
        <ele>163.39999389648</ele>
        <time>2021-10-15T13:29:01.000Z</time>
      </trkpt>
      <trkpt lat="48.18965" lon="-2.71097">
        <ele>162.80000305176</ele>
        <time>2021-10-15T13:29:02.000Z</time>
      </trkpt>
      <trkpt lat="48.18965" lon="-2.71097">
        <ele>162.80000305176</ele>
        <time>2021-10-15T13:29:03.000Z</time>
      </trkpt>
      <trkpt lat="48.18955" lon="-2.71105">
        <ele>161.39999389648</ele>
        <time>2021-10-15T13:29:04.000Z</time>
      </trkpt>
      <trkpt lat="48.18955" lon="-2.71105">
        <ele>161.39999389648</ele>
        <time>2021-10-15T13:29:05.000Z</time>
      </trkpt>
      <trkpt lat="48.18944" lon="-2.71114">
        <ele>160</ele>
        <time>2021-10-15T13:29:06.000Z</time>
      </trkpt>
      <trkpt lat="48.18944" lon="-2.71114">
        <ele>160</ele>
        <time>2021-10-15T13:29:07.000Z</time>
      </trkpt>
      <trkpt lat="48.18933" lon="-2.71122">
        <ele>158.80000305176</ele>
        <time>2021-10-15T13:29:08.000Z</time>
      </trkpt>
      <trkpt lat="48.18933" lon="-2.71122">
        <ele>158.80000305176</ele>
        <time>2021-10-15T13:29:09.000Z</time>
      </trkpt>
      <trkpt lat="48.18922" lon="-2.7113">
        <ele>158.60000610352</ele>
        <time>2021-10-15T13:29:10.000Z</time>
      </trkpt>
      <trkpt lat="48.18922" lon="-2.7113">
        <ele>158.60000610352</ele>
        <time>2021-10-15T13:29:11.000Z</time>
      </trkpt>
      <trkpt lat="48.18913" lon="-2.71139">
        <ele>158.19999694824</ele>
        <time>2021-10-15T13:29:12.000Z</time>
      </trkpt>
      <trkpt lat="48.18913" lon="-2.71139">
        <ele>158.19999694824</ele>
        <time>2021-10-15T13:29:13.000Z</time>
      </trkpt>
      <trkpt lat="48.18905" lon="-2.71148">
        <ele>158</ele>
        <time>2021-10-15T13:29:14.000Z</time>
      </trkpt>
      <trkpt lat="48.18905" lon="-2.71148">
        <ele>158</ele>
        <time>2021-10-15T13:29:15.000Z</time>
      </trkpt>
      <trkpt lat="48.18896" lon="-2.71155">
        <ele>157.60000610352</ele>
        <time>2021-10-15T13:29:16.000Z</time>
      </trkpt>
      <trkpt lat="48.18896" lon="-2.71155">
        <ele>157.60000610352</ele>
        <time>2021-10-15T13:29:17.000Z</time>
      </trkpt>
      <trkpt lat="48.18888" lon="-2.71162">
        <ele>157.19999694824</ele>
        <time>2021-10-15T13:29:18.000Z</time>
      </trkpt>
      <trkpt lat="48.18888" lon="-2.71162">
        <ele>157.19999694824</ele>
        <time>2021-10-15T13:29:19.000Z</time>
      </trkpt>
      <trkpt lat="48.18879" lon="-2.7117">
        <ele>156.80000305176</ele>
        <time>2021-10-15T13:29:20.000Z</time>
      </trkpt>
      <trkpt lat="48.18879" lon="-2.7117">
        <ele>156.80000305176</ele>
        <time>2021-10-15T13:29:21.000Z</time>
      </trkpt>
      <trkpt lat="48.18874" lon="-2.71174">
        <ele>156.60000610352</ele>
        <time>2021-10-15T13:29:22.000Z</time>
      </trkpt>
      <trkpt lat="48.18865" lon="-2.7118">
        <ele>156.19999694824</ele>
        <time>2021-10-15T13:29:23.000Z</time>
      </trkpt>
      <trkpt lat="48.18865" lon="-2.7118">
        <ele>156.19999694824</ele>
        <time>2021-10-15T13:29:24.000Z</time>
      </trkpt>
      <trkpt lat="48.18856" lon="-2.71185">
        <ele>155.80000305176</ele>
        <time>2021-10-15T13:29:25.000Z</time>
      </trkpt>
      <trkpt lat="48.18856" lon="-2.71185">
        <ele>155.80000305176</ele>
        <time>2021-10-15T13:29:26.000Z</time>
      </trkpt>
      <trkpt lat="48.18847" lon="-2.71191">
        <ele>155.39999389648</ele>
        <time>2021-10-15T13:29:27.000Z</time>
      </trkpt>
      <trkpt lat="48.18847" lon="-2.71191">
        <ele>155.39999389648</ele>
        <time>2021-10-15T13:29:28.000Z</time>
      </trkpt>
      <trkpt lat="48.18836" lon="-2.71197">
        <ele>155.19999694824</ele>
        <time>2021-10-15T13:29:29.000Z</time>
      </trkpt>
      <trkpt lat="48.18836" lon="-2.71197">
        <ele>155.19999694824</ele>
        <time>2021-10-15T13:29:30.000Z</time>
      </trkpt>
      <trkpt lat="48.18826" lon="-2.71203">
        <ele>155.19999694824</ele>
        <time>2021-10-15T13:29:31.000Z</time>
      </trkpt>
      <trkpt lat="48.18826" lon="-2.71203">
        <ele>155.19999694824</ele>
        <time>2021-10-15T13:29:32.000Z</time>
      </trkpt>
      <trkpt lat="48.18817" lon="-2.71209">
        <ele>154.80000305176</ele>
        <time>2021-10-15T13:29:33.000Z</time>
      </trkpt>
      <trkpt lat="48.18817" lon="-2.71209">
        <ele>154.80000305176</ele>
        <time>2021-10-15T13:29:34.000Z</time>
      </trkpt>
      <trkpt lat="48.18807" lon="-2.71218">
        <ele>154.39999389648</ele>
        <time>2021-10-15T13:29:35.000Z</time>
      </trkpt>
      <trkpt lat="48.18807" lon="-2.71218">
        <ele>154.39999389648</ele>
        <time>2021-10-15T13:29:36.000Z</time>
      </trkpt>
      <trkpt lat="48.18798" lon="-2.7123">
        <ele>154.19999694824</ele>
        <time>2021-10-15T13:29:37.000Z</time>
      </trkpt>
      <trkpt lat="48.18798" lon="-2.7123">
        <ele>154.19999694824</ele>
        <time>2021-10-15T13:29:38.000Z</time>
      </trkpt>
      <trkpt lat="48.18789" lon="-2.71243">
        <ele>153.80000305176</ele>
        <time>2021-10-15T13:29:39.000Z</time>
      </trkpt>
      <trkpt lat="48.18789" lon="-2.71243">
        <ele>153.80000305176</ele>
        <time>2021-10-15T13:29:40.000Z</time>
      </trkpt>
      <trkpt lat="48.18782" lon="-2.71258">
        <ele>153.39999389648</ele>
        <time>2021-10-15T13:29:41.000Z</time>
      </trkpt>
      <trkpt lat="48.18782" lon="-2.71258">
        <ele>153.39999389648</ele>
        <time>2021-10-15T13:29:42.000Z</time>
      </trkpt>
      <trkpt lat="48.18778" lon="-2.71265">
        <ele>153.39999389648</ele>
        <time>2021-10-15T13:29:43.000Z</time>
      </trkpt>
      <trkpt lat="48.18772" lon="-2.7128">
        <ele>153.19999694824</ele>
        <time>2021-10-15T13:29:44.000Z</time>
      </trkpt>
      <trkpt lat="48.18772" lon="-2.7128">
        <ele>153.19999694824</ele>
        <time>2021-10-15T13:29:45.000Z</time>
      </trkpt>
      <trkpt lat="48.18766" lon="-2.71293">
        <ele>152.80000305176</ele>
        <time>2021-10-15T13:29:46.000Z</time>
      </trkpt>
      <trkpt lat="48.18766" lon="-2.71293">
        <ele>152.80000305176</ele>
        <time>2021-10-15T13:29:47.000Z</time>
      </trkpt>
      <trkpt lat="48.18762" lon="-2.71305">
        <ele>152.80000305176</ele>
        <time>2021-10-15T13:29:48.000Z</time>
      </trkpt>
      <trkpt lat="48.18762" lon="-2.71305">
        <ele>152.80000305176</ele>
        <time>2021-10-15T13:29:49.000Z</time>
      </trkpt>
      <trkpt lat="48.18758" lon="-2.71316">
        <ele>152.39999389648</ele>
        <time>2021-10-15T13:29:50.000Z</time>
      </trkpt>
      <trkpt lat="48.18758" lon="-2.71316">
        <ele>152.39999389648</ele>
        <time>2021-10-15T13:29:51.000Z</time>
      </trkpt>
      <trkpt lat="48.18756" lon="-2.71325">
        <ele>152.19999694824</ele>
        <time>2021-10-15T13:29:52.000Z</time>
      </trkpt>
      <trkpt lat="48.18756" lon="-2.71325">
        <ele>152.19999694824</ele>
        <time>2021-10-15T13:29:53.000Z</time>
      </trkpt>
      <trkpt lat="48.18753" lon="-2.71334">
        <ele>151.60000610352</ele>
        <time>2021-10-15T13:29:54.000Z</time>
      </trkpt>
      <trkpt lat="48.18753" lon="-2.71334">
        <ele>151.60000610352</ele>
        <time>2021-10-15T13:29:55.000Z</time>
      </trkpt>
      <trkpt lat="48.1875" lon="-2.71343">
        <ele>151.39999389648</ele>
        <time>2021-10-15T13:29:56.000Z</time>
      </trkpt>
      <trkpt lat="48.1875" lon="-2.71343">
        <ele>151.39999389648</ele>
        <time>2021-10-15T13:29:57.000Z</time>
      </trkpt>
      <trkpt lat="48.18749" lon="-2.71354">
        <ele>151.60000610352</ele>
        <time>2021-10-15T13:29:58.000Z</time>
      </trkpt>
      <trkpt lat="48.18749" lon="-2.71354">
        <ele>151.60000610352</ele>
        <time>2021-10-15T13:29:59.000Z</time>
      </trkpt>
      <trkpt lat="48.18746" lon="-2.71367">
        <ele>151.60000610352</ele>
        <time>2021-10-15T13:30:00.000Z</time>
      </trkpt>
      <trkpt lat="48.18746" lon="-2.71367">
        <ele>151.60000610352</ele>
        <time>2021-10-15T13:30:01.000Z</time>
      </trkpt>
      <trkpt lat="48.18744" lon="-2.71381">
        <ele>151.19999694824</ele>
        <time>2021-10-15T13:30:02.000Z</time>
      </trkpt>
      <trkpt lat="48.18744" lon="-2.71381">
        <ele>151.19999694824</ele>
        <time>2021-10-15T13:30:03.000Z</time>
      </trkpt>
      <trkpt lat="48.18743" lon="-2.71387">
        <ele>151.19999694824</ele>
        <time>2021-10-15T13:30:04.000Z</time>
      </trkpt>
      <trkpt lat="48.18741" lon="-2.71401">
        <ele>151</ele>
        <time>2021-10-15T13:30:05.000Z</time>
      </trkpt>
      <trkpt lat="48.18741" lon="-2.71401">
        <ele>151</ele>
        <time>2021-10-15T13:30:06.000Z</time>
      </trkpt>
      <trkpt lat="48.1874" lon="-2.71416">
        <ele>150.80000305176</ele>
        <time>2021-10-15T13:30:07.000Z</time>
      </trkpt>
      <trkpt lat="48.1874" lon="-2.71416">
        <ele>150.80000305176</ele>
        <time>2021-10-15T13:30:08.000Z</time>
      </trkpt>
      <trkpt lat="48.18741" lon="-2.71431">
        <ele>151</ele>
        <time>2021-10-15T13:30:09.000Z</time>
      </trkpt>
      <trkpt lat="48.18741" lon="-2.71431">
        <ele>151</ele>
        <time>2021-10-15T13:30:10.000Z</time>
      </trkpt>
      <trkpt lat="48.18741" lon="-2.71446">
        <ele>151</ele>
        <time>2021-10-15T13:30:11.000Z</time>
      </trkpt>
      <trkpt lat="48.18741" lon="-2.71446">
        <ele>151</ele>
        <time>2021-10-15T13:30:12.000Z</time>
      </trkpt>
      <trkpt lat="48.18742" lon="-2.7146">
        <ele>151.39999389648</ele>
        <time>2021-10-15T13:30:13.000Z</time>
      </trkpt>
      <trkpt lat="48.18742" lon="-2.7146">
        <ele>151.39999389648</ele>
        <time>2021-10-15T13:30:14.000Z</time>
      </trkpt>
      <trkpt lat="48.18743" lon="-2.71473">
        <ele>152</ele>
        <time>2021-10-15T13:30:15.000Z</time>
      </trkpt>
      <trkpt lat="48.18743" lon="-2.71473">
        <ele>152</ele>
        <time>2021-10-15T13:30:16.000Z</time>
      </trkpt>
      <trkpt lat="48.18745" lon="-2.71486">
        <ele>152.60000610352</ele>
        <time>2021-10-15T13:30:17.000Z</time>
      </trkpt>
      <trkpt lat="48.18745" lon="-2.71486">
        <ele>152.60000610352</ele>
        <time>2021-10-15T13:30:18.000Z</time>
      </trkpt>
      <trkpt lat="48.18746" lon="-2.71498">
        <ele>153.19999694824</ele>
        <time>2021-10-15T13:30:19.000Z</time>
      </trkpt>
      <trkpt lat="48.18746" lon="-2.71498">
        <ele>153.19999694824</ele>
        <time>2021-10-15T13:30:20.000Z</time>
      </trkpt>
      <trkpt lat="48.18747" lon="-2.71512">
        <ele>153.39999389648</ele>
        <time>2021-10-15T13:30:21.000Z</time>
      </trkpt>
      <trkpt lat="48.18747" lon="-2.71512">
        <ele>153.39999389648</ele>
        <time>2021-10-15T13:30:22.000Z</time>
      </trkpt>
      <trkpt lat="48.18747" lon="-2.71526">
        <ele>153.39999389648</ele>
        <time>2021-10-15T13:30:23.000Z</time>
      </trkpt>
      <trkpt lat="48.18747" lon="-2.71526">
        <ele>153.39999389648</ele>
        <time>2021-10-15T13:30:24.000Z</time>
      </trkpt>
      <trkpt lat="48.18747" lon="-2.71541">
        <ele>153.60000610352</ele>
        <time>2021-10-15T13:30:25.000Z</time>
      </trkpt>
      <trkpt lat="48.18747" lon="-2.71541">
        <ele>153.60000610352</ele>
        <time>2021-10-15T13:30:26.000Z</time>
      </trkpt>
      <trkpt lat="48.18747" lon="-2.71555">
        <ele>154.19999694824</ele>
        <time>2021-10-15T13:30:27.000Z</time>
      </trkpt>
      <trkpt lat="48.18747" lon="-2.71555">
        <ele>154.19999694824</ele>
        <time>2021-10-15T13:30:28.000Z</time>
      </trkpt>
      <trkpt lat="48.18745" lon="-2.71569">
        <ele>154.39999389648</ele>
        <time>2021-10-15T13:30:29.000Z</time>
      </trkpt>
      <trkpt lat="48.18745" lon="-2.71569">
        <ele>154.39999389648</ele>
        <time>2021-10-15T13:30:30.000Z</time>
      </trkpt>
      <trkpt lat="48.18741" lon="-2.71584">
        <ele>154.80000305176</ele>
        <time>2021-10-15T13:30:31.000Z</time>
      </trkpt>
      <trkpt lat="48.18741" lon="-2.71584">
        <ele>154.80000305176</ele>
        <time>2021-10-15T13:30:32.000Z</time>
      </trkpt>
      <trkpt lat="48.18736" lon="-2.71597">
        <ele>154.60000610352</ele>
        <time>2021-10-15T13:30:33.000Z</time>
      </trkpt>
      <trkpt lat="48.18736" lon="-2.71597">
        <ele>154.60000610352</ele>
        <time>2021-10-15T13:30:34.000Z</time>
      </trkpt>
      <trkpt lat="48.1873" lon="-2.71611">
        <ele>154.19999694824</ele>
        <time>2021-10-15T13:30:35.000Z</time>
      </trkpt>
      <trkpt lat="48.1873" lon="-2.71611">
        <ele>154.19999694824</ele>
        <time>2021-10-15T13:30:36.000Z</time>
      </trkpt>
      <trkpt lat="48.18725" lon="-2.71626">
        <ele>153.60000610352</ele>
        <time>2021-10-15T13:30:37.000Z</time>
      </trkpt>
      <trkpt lat="48.18725" lon="-2.71626">
        <ele>153.60000610352</ele>
        <time>2021-10-15T13:30:38.000Z</time>
      </trkpt>
      <trkpt lat="48.1872" lon="-2.71639">
        <ele>152.60000610352</ele>
        <time>2021-10-15T13:30:39.000Z</time>
      </trkpt>
      <trkpt lat="48.1872" lon="-2.71639">
        <ele>152.60000610352</ele>
        <time>2021-10-15T13:30:40.000Z</time>
      </trkpt>
      <trkpt lat="48.18715" lon="-2.71652">
        <ele>152.19999694824</ele>
        <time>2021-10-15T13:30:41.000Z</time>
      </trkpt>
      <trkpt lat="48.18715" lon="-2.71652">
        <ele>152.19999694824</ele>
        <time>2021-10-15T13:30:42.000Z</time>
      </trkpt>
      <trkpt lat="48.18711" lon="-2.71664">
        <ele>151.80000305176</ele>
        <time>2021-10-15T13:30:43.000Z</time>
      </trkpt>
      <trkpt lat="48.18711" lon="-2.71664">
        <ele>151.80000305176</ele>
        <time>2021-10-15T13:30:44.000Z</time>
      </trkpt>
      <trkpt lat="48.18707" lon="-2.71675">
        <ele>151.19999694824</ele>
        <time>2021-10-15T13:30:45.000Z</time>
      </trkpt>
      <trkpt lat="48.18707" lon="-2.71675">
        <ele>151.19999694824</ele>
        <time>2021-10-15T13:30:46.000Z</time>
      </trkpt>
      <trkpt lat="48.18704" lon="-2.71682">
        <ele>151</ele>
        <time>2021-10-15T13:30:47.000Z</time>
      </trkpt>
      <trkpt lat="48.18697" lon="-2.71694">
        <ele>150.19999694824</ele>
        <time>2021-10-15T13:30:48.000Z</time>
      </trkpt>
      <trkpt lat="48.18697" lon="-2.71694">
        <ele>150.19999694824</ele>
        <time>2021-10-15T13:30:49.000Z</time>
      </trkpt>
      <trkpt lat="48.1869" lon="-2.71706">
        <ele>149.39999389648</ele>
        <time>2021-10-15T13:30:50.000Z</time>
      </trkpt>
      <trkpt lat="48.1869" lon="-2.71706">
        <ele>149.39999389648</ele>
        <time>2021-10-15T13:30:51.000Z</time>
      </trkpt>
      <trkpt lat="48.18681" lon="-2.71719">
        <ele>149</ele>
        <time>2021-10-15T13:30:52.000Z</time>
      </trkpt>
      <trkpt lat="48.18677" lon="-2.71725">
        <ele>149</ele>
        <time>2021-10-15T13:30:53.000Z</time>
      </trkpt>
      <trkpt lat="48.18677" lon="-2.71725">
        <ele>149</ele>
        <time>2021-10-15T13:30:54.000Z</time>
      </trkpt>
      <trkpt lat="48.18673" lon="-2.71731">
        <ele>149</ele>
        <time>2021-10-15T13:30:55.000Z</time>
      </trkpt>
      <trkpt lat="48.18664" lon="-2.71742">
        <ele>149</ele>
        <time>2021-10-15T13:30:56.000Z</time>
      </trkpt>
      <trkpt lat="48.18664" lon="-2.71742">
        <ele>149</ele>
        <time>2021-10-15T13:30:57.000Z</time>
      </trkpt>
      <trkpt lat="48.18654" lon="-2.71754">
        <ele>148.80000305176</ele>
        <time>2021-10-15T13:30:58.000Z</time>
      </trkpt>
      <trkpt lat="48.18654" lon="-2.71754">
        <ele>148.80000305176</ele>
        <time>2021-10-15T13:30:59.000Z</time>
      </trkpt>
      <trkpt lat="48.18643" lon="-2.71765">
        <ele>149.19999694824</ele>
        <time>2021-10-15T13:31:00.000Z</time>
      </trkpt>
      <trkpt lat="48.18643" lon="-2.71765">
        <ele>149.19999694824</ele>
        <time>2021-10-15T13:31:01.000Z</time>
      </trkpt>
      <trkpt lat="48.18633" lon="-2.71776">
        <ele>149.60000610352</ele>
        <time>2021-10-15T13:31:02.000Z</time>
      </trkpt>
      <trkpt lat="48.18633" lon="-2.71776">
        <ele>149.60000610352</ele>
        <time>2021-10-15T13:31:03.000Z</time>
      </trkpt>
      <trkpt lat="48.18622" lon="-2.71786">
        <ele>149.19999694824</ele>
        <time>2021-10-15T13:31:04.000Z</time>
      </trkpt>
      <trkpt lat="48.18622" lon="-2.71786">
        <ele>149.19999694824</ele>
        <time>2021-10-15T13:31:05.000Z</time>
      </trkpt>
      <trkpt lat="48.18611" lon="-2.71796">
        <ele>148.39999389648</ele>
        <time>2021-10-15T13:31:06.000Z</time>
      </trkpt>
      <trkpt lat="48.18611" lon="-2.71796">
        <ele>148.39999389648</ele>
        <time>2021-10-15T13:31:07.000Z</time>
      </trkpt>
      <trkpt lat="48.18606" lon="-2.71802">
        <ele>148</ele>
        <time>2021-10-15T13:31:08.000Z</time>
      </trkpt>
      <trkpt lat="48.18601" lon="-2.71808">
        <ele>147.80000305176</ele>
        <time>2021-10-15T13:31:09.000Z</time>
      </trkpt>
      <trkpt lat="48.18596" lon="-2.71814">
        <ele>147.60000610352</ele>
        <time>2021-10-15T13:31:10.000Z</time>
      </trkpt>
      <trkpt lat="48.18591" lon="-2.71821">
        <ele>147.60000610352</ele>
        <time>2021-10-15T13:31:11.000Z</time>
      </trkpt>
      <trkpt lat="48.18586" lon="-2.71828">
        <ele>147.39999389648</ele>
        <time>2021-10-15T13:31:12.000Z</time>
      </trkpt>
      <trkpt lat="48.18581" lon="-2.71836">
        <ele>147.39999389648</ele>
        <time>2021-10-15T13:31:13.000Z</time>
      </trkpt>
      <trkpt lat="48.18576" lon="-2.71843">
        <ele>147.19999694824</ele>
        <time>2021-10-15T13:31:14.000Z</time>
      </trkpt>
      <trkpt lat="48.18572" lon="-2.71851">
        <ele>146.80000305176</ele>
        <time>2021-10-15T13:31:15.000Z</time>
      </trkpt>
      <trkpt lat="48.18567" lon="-2.71858">
        <ele>146.39999389648</ele>
        <time>2021-10-15T13:31:16.000Z</time>
      </trkpt>
      <trkpt lat="48.18562" lon="-2.71866">
        <ele>146</ele>
        <time>2021-10-15T13:31:17.000Z</time>
      </trkpt>
      <trkpt lat="48.18557" lon="-2.71874">
        <ele>145.80000305176</ele>
        <time>2021-10-15T13:31:18.000Z</time>
      </trkpt>
      <trkpt lat="48.18552" lon="-2.71882">
        <ele>145.39999389648</ele>
        <time>2021-10-15T13:31:19.000Z</time>
      </trkpt>
      <trkpt lat="48.18547" lon="-2.71889">
        <ele>145</ele>
        <time>2021-10-15T13:31:20.000Z</time>
      </trkpt>
      <trkpt lat="48.18542" lon="-2.71897">
        <ele>144.60000610352</ele>
        <time>2021-10-15T13:31:21.000Z</time>
      </trkpt>
      <trkpt lat="48.18537" lon="-2.71904">
        <ele>144.39999389648</ele>
        <time>2021-10-15T13:31:22.000Z</time>
      </trkpt>
      <trkpt lat="48.18532" lon="-2.71912">
        <ele>144</ele>
        <time>2021-10-15T13:31:23.000Z</time>
      </trkpt>
      <trkpt lat="48.18527" lon="-2.7192">
        <ele>143.60000610352</ele>
        <time>2021-10-15T13:31:24.000Z</time>
      </trkpt>
      <trkpt lat="48.18523" lon="-2.71927">
        <ele>143.19999694824</ele>
        <time>2021-10-15T13:31:25.000Z</time>
      </trkpt>
      <trkpt lat="48.18518" lon="-2.71934">
        <ele>143</ele>
        <time>2021-10-15T13:31:26.000Z</time>
      </trkpt>
      <trkpt lat="48.18513" lon="-2.71942">
        <ele>142.60000610352</ele>
        <time>2021-10-15T13:31:27.000Z</time>
      </trkpt>
      <trkpt lat="48.18508" lon="-2.71949">
        <ele>142.19999694824</ele>
        <time>2021-10-15T13:31:28.000Z</time>
      </trkpt>
      <trkpt lat="48.18504" lon="-2.71956">
        <ele>142</ele>
        <time>2021-10-15T13:31:29.000Z</time>
      </trkpt>
      <trkpt lat="48.18499" lon="-2.71962">
        <ele>142</ele>
        <time>2021-10-15T13:31:30.000Z</time>
      </trkpt>
      <trkpt lat="48.18494" lon="-2.71968">
        <ele>141.80000305176</ele>
        <time>2021-10-15T13:31:31.000Z</time>
      </trkpt>
      <trkpt lat="48.1849" lon="-2.71974">
        <ele>141.80000305176</ele>
        <time>2021-10-15T13:31:32.000Z</time>
      </trkpt>
      <trkpt lat="48.18485" lon="-2.71979">
        <ele>142</ele>
        <time>2021-10-15T13:31:33.000Z</time>
      </trkpt>
      <trkpt lat="48.1848" lon="-2.71984">
        <ele>142</ele>
        <time>2021-10-15T13:31:34.000Z</time>
      </trkpt>
      <trkpt lat="48.18475" lon="-2.71988">
        <ele>142</ele>
        <time>2021-10-15T13:31:35.000Z</time>
      </trkpt>
      <trkpt lat="48.18471" lon="-2.71992">
        <ele>142</ele>
        <time>2021-10-15T13:31:36.000Z</time>
      </trkpt>
      <trkpt lat="48.18466" lon="-2.71996">
        <ele>142</ele>
        <time>2021-10-15T13:31:37.000Z</time>
      </trkpt>
      <trkpt lat="48.18462" lon="-2.71999">
        <ele>142</ele>
        <time>2021-10-15T13:31:38.000Z</time>
      </trkpt>
      <trkpt lat="48.18456" lon="-2.72002">
        <ele>142</ele>
        <time>2021-10-15T13:31:39.000Z</time>
      </trkpt>
      <trkpt lat="48.18451" lon="-2.72005">
        <ele>142</ele>
        <time>2021-10-15T13:31:40.000Z</time>
      </trkpt>
      <trkpt lat="48.18446" lon="-2.72006">
        <ele>142</ele>
        <time>2021-10-15T13:31:41.000Z</time>
      </trkpt>
      <trkpt lat="48.1844" lon="-2.72007">
        <ele>142</ele>
        <time>2021-10-15T13:31:42.000Z</time>
      </trkpt>
      <trkpt lat="48.18435" lon="-2.72009">
        <ele>142</ele>
        <time>2021-10-15T13:31:43.000Z</time>
      </trkpt>
      <trkpt lat="48.18429" lon="-2.7201">
        <ele>142</ele>
        <time>2021-10-15T13:31:44.000Z</time>
      </trkpt>
      <trkpt lat="48.18424" lon="-2.72012">
        <ele>142</ele>
        <time>2021-10-15T13:31:45.000Z</time>
      </trkpt>
      <trkpt lat="48.18419" lon="-2.72014">
        <ele>142</ele>
        <time>2021-10-15T13:31:46.000Z</time>
      </trkpt>
      <trkpt lat="48.18414" lon="-2.72017">
        <ele>142</ele>
        <time>2021-10-15T13:31:47.000Z</time>
      </trkpt>
      <trkpt lat="48.1841" lon="-2.7202">
        <ele>142</ele>
        <time>2021-10-15T13:31:48.000Z</time>
      </trkpt>
      <trkpt lat="48.18405" lon="-2.72023">
        <ele>142</ele>
        <time>2021-10-15T13:31:49.000Z</time>
      </trkpt>
      <trkpt lat="48.18401" lon="-2.72027">
        <ele>142</ele>
        <time>2021-10-15T13:31:50.000Z</time>
      </trkpt>
      <trkpt lat="48.18396" lon="-2.72031">
        <ele>142</ele>
        <time>2021-10-15T13:31:51.000Z</time>
      </trkpt>
      <trkpt lat="48.18392" lon="-2.72035">
        <ele>142</ele>
        <time>2021-10-15T13:31:52.000Z</time>
      </trkpt>
      <trkpt lat="48.18387" lon="-2.72039">
        <ele>142</ele>
        <time>2021-10-15T13:31:53.000Z</time>
      </trkpt>
      <trkpt lat="48.18383" lon="-2.72044">
        <ele>142</ele>
        <time>2021-10-15T13:31:54.000Z</time>
      </trkpt>
      <trkpt lat="48.18379" lon="-2.72049">
        <ele>142</ele>
        <time>2021-10-15T13:31:55.000Z</time>
      </trkpt>
      <trkpt lat="48.18376" lon="-2.72054">
        <ele>141.80000305176</ele>
        <time>2021-10-15T13:31:56.000Z</time>
      </trkpt>
      <trkpt lat="48.18372" lon="-2.72059">
        <ele>141.80000305176</ele>
        <time>2021-10-15T13:31:57.000Z</time>
      </trkpt>
      <trkpt lat="48.18368" lon="-2.72063">
        <ele>141.60000610352</ele>
        <time>2021-10-15T13:31:58.000Z</time>
      </trkpt>
      <trkpt lat="48.18364" lon="-2.72067">
        <ele>141.60000610352</ele>
        <time>2021-10-15T13:31:59.000Z</time>
      </trkpt>
      <trkpt lat="48.18361" lon="-2.72071">
        <ele>141.60000610352</ele>
        <time>2021-10-15T13:32:00.000Z</time>
      </trkpt>
      <trkpt lat="48.18357" lon="-2.72074">
        <ele>141.60000610352</ele>
        <time>2021-10-15T13:32:01.000Z</time>
      </trkpt>
      <trkpt lat="48.18353" lon="-2.72079">
        <ele>141.60000610352</ele>
        <time>2021-10-15T13:32:02.000Z</time>
      </trkpt>
      <trkpt lat="48.18349" lon="-2.72083">
        <ele>141.39999389648</ele>
        <time>2021-10-15T13:32:03.000Z</time>
      </trkpt>
      <trkpt lat="48.18345" lon="-2.72087">
        <ele>141.39999389648</ele>
        <time>2021-10-15T13:32:04.000Z</time>
      </trkpt>
      <trkpt lat="48.18341" lon="-2.72092">
        <ele>141.19999694824</ele>
        <time>2021-10-15T13:32:05.000Z</time>
      </trkpt>
      <trkpt lat="48.18336" lon="-2.72097">
        <ele>141.19999694824</ele>
        <time>2021-10-15T13:32:06.000Z</time>
      </trkpt>
      <trkpt lat="48.18332" lon="-2.72102">
        <ele>141</ele>
        <time>2021-10-15T13:32:07.000Z</time>
      </trkpt>
      <trkpt lat="48.18328" lon="-2.72108">
        <ele>140.80000305176</ele>
        <time>2021-10-15T13:32:08.000Z</time>
      </trkpt>
      <trkpt lat="48.18324" lon="-2.72114">
        <ele>140.80000305176</ele>
        <time>2021-10-15T13:32:09.000Z</time>
      </trkpt>
      <trkpt lat="48.1832" lon="-2.72121">
        <ele>140.60000610352</ele>
        <time>2021-10-15T13:32:10.000Z</time>
      </trkpt>
      <trkpt lat="48.18316" lon="-2.72128">
        <ele>140.19999694824</ele>
        <time>2021-10-15T13:32:11.000Z</time>
      </trkpt>
      <trkpt lat="48.18311" lon="-2.72136">
        <ele>139.80000305176</ele>
        <time>2021-10-15T13:32:12.000Z</time>
      </trkpt>
      <trkpt lat="48.18307" lon="-2.72143">
        <ele>139.39999389648</ele>
        <time>2021-10-15T13:32:13.000Z</time>
      </trkpt>
      <trkpt lat="48.18303" lon="-2.7215">
        <ele>139</ele>
        <time>2021-10-15T13:32:14.000Z</time>
      </trkpt>
      <trkpt lat="48.18299" lon="-2.72157">
        <ele>138.60000610352</ele>
        <time>2021-10-15T13:32:15.000Z</time>
      </trkpt>
      <trkpt lat="48.18294" lon="-2.72164">
        <ele>138.19999694824</ele>
        <time>2021-10-15T13:32:16.000Z</time>
      </trkpt>
      <trkpt lat="48.18289" lon="-2.72172">
        <ele>137.80000305176</ele>
        <time>2021-10-15T13:32:17.000Z</time>
      </trkpt>
      <trkpt lat="48.18284" lon="-2.7218">
        <ele>137.60000610352</ele>
        <time>2021-10-15T13:32:18.000Z</time>
      </trkpt>
      <trkpt lat="48.18279" lon="-2.72187">
        <ele>137.39999389648</ele>
        <time>2021-10-15T13:32:19.000Z</time>
      </trkpt>
      <trkpt lat="48.18274" lon="-2.72194">
        <ele>137.19999694824</ele>
        <time>2021-10-15T13:32:20.000Z</time>
      </trkpt>
      <trkpt lat="48.18269" lon="-2.72201">
        <ele>137</ele>
        <time>2021-10-15T13:32:21.000Z</time>
      </trkpt>
      <trkpt lat="48.18264" lon="-2.72207">
        <ele>136.60000610352</ele>
        <time>2021-10-15T13:32:22.000Z</time>
      </trkpt>
      <trkpt lat="48.18259" lon="-2.72214">
        <ele>136</ele>
        <time>2021-10-15T13:32:23.000Z</time>
      </trkpt>
      <trkpt lat="48.18255" lon="-2.72221">
        <ele>135.60000610352</ele>
        <time>2021-10-15T13:32:24.000Z</time>
      </trkpt>
      <trkpt lat="48.1825" lon="-2.72227">
        <ele>135.19999694824</ele>
        <time>2021-10-15T13:32:25.000Z</time>
      </trkpt>
      <trkpt lat="48.1824" lon="-2.72239">
        <ele>134.60000610352</ele>
        <time>2021-10-15T13:32:26.000Z</time>
      </trkpt>
      <trkpt lat="48.1824" lon="-2.72239">
        <ele>134.60000610352</ele>
        <time>2021-10-15T13:32:27.000Z</time>
      </trkpt>
      <trkpt lat="48.18234" lon="-2.72244">
        <ele>134.19999694824</ele>
        <time>2021-10-15T13:32:28.000Z</time>
      </trkpt>
      <trkpt lat="48.18228" lon="-2.72249">
        <ele>133.80000305176</ele>
        <time>2021-10-15T13:32:29.000Z</time>
      </trkpt>
      <trkpt lat="48.18222" lon="-2.72254">
        <ele>133.39999389648</ele>
        <time>2021-10-15T13:32:30.000Z</time>
      </trkpt>
      <trkpt lat="48.18216" lon="-2.7226">
        <ele>132.80000305176</ele>
        <time>2021-10-15T13:32:31.000Z</time>
      </trkpt>
      <trkpt lat="48.18209" lon="-2.72265">
        <ele>132.39999389648</ele>
        <time>2021-10-15T13:32:32.000Z</time>
      </trkpt>
      <trkpt lat="48.18202" lon="-2.72271">
        <ele>132</ele>
        <time>2021-10-15T13:32:33.000Z</time>
      </trkpt>
      <trkpt lat="48.18195" lon="-2.72277">
        <ele>131.39999389648</ele>
        <time>2021-10-15T13:32:34.000Z</time>
      </trkpt>
      <trkpt lat="48.18189" lon="-2.72283">
        <ele>131</ele>
        <time>2021-10-15T13:32:35.000Z</time>
      </trkpt>
      <trkpt lat="48.18183" lon="-2.72288">
        <ele>130.80000305176</ele>
        <time>2021-10-15T13:32:36.000Z</time>
      </trkpt>
      <trkpt lat="48.18178" lon="-2.72293">
        <ele>130.39999389648</ele>
        <time>2021-10-15T13:32:37.000Z</time>
      </trkpt>
      <trkpt lat="48.18173" lon="-2.72298">
        <ele>130</ele>
        <time>2021-10-15T13:32:38.000Z</time>
      </trkpt>
      <trkpt lat="48.18169" lon="-2.72302">
        <ele>129.80000305176</ele>
        <time>2021-10-15T13:32:39.000Z</time>
      </trkpt>
      <trkpt lat="48.18165" lon="-2.72307">
        <ele>129.39999389648</ele>
        <time>2021-10-15T13:32:40.000Z</time>
      </trkpt>
      <trkpt lat="48.18161" lon="-2.72311">
        <ele>129.19999694824</ele>
        <time>2021-10-15T13:32:41.000Z</time>
      </trkpt>
      <trkpt lat="48.18157" lon="-2.72316">
        <ele>129</ele>
        <time>2021-10-15T13:32:42.000Z</time>
      </trkpt>
      <trkpt lat="48.18154" lon="-2.72321">
        <ele>128.80000305176</ele>
        <time>2021-10-15T13:32:43.000Z</time>
      </trkpt>
      <trkpt lat="48.18151" lon="-2.72326">
        <ele>128.80000305176</ele>
        <time>2021-10-15T13:32:44.000Z</time>
      </trkpt>
      <trkpt lat="48.18148" lon="-2.72331">
        <ele>128.60000610352</ele>
        <time>2021-10-15T13:32:45.000Z</time>
      </trkpt>
      <trkpt lat="48.18144" lon="-2.72335">
        <ele>128.60000610352</ele>
        <time>2021-10-15T13:32:46.000Z</time>
      </trkpt>
      <trkpt lat="48.18141" lon="-2.7234">
        <ele>128.39999389648</ele>
        <time>2021-10-15T13:32:47.000Z</time>
      </trkpt>
      <trkpt lat="48.18134" lon="-2.72348">
        <ele>128.19999694824</ele>
        <time>2021-10-15T13:32:48.000Z</time>
      </trkpt>
      <trkpt lat="48.18134" lon="-2.72348">
        <ele>128.19999694824</ele>
        <time>2021-10-15T13:32:49.000Z</time>
      </trkpt>
      <trkpt lat="48.18127" lon="-2.72351">
        <ele>128.19999694824</ele>
        <time>2021-10-15T13:32:50.000Z</time>
      </trkpt>
      <trkpt lat="48.18127" lon="-2.72351">
        <ele>128.19999694824</ele>
        <time>2021-10-15T13:32:51.000Z</time>
      </trkpt>
      <trkpt lat="48.18124" lon="-2.7235">
        <ele>128.19999694824</ele>
        <time>2021-10-15T13:32:52.000Z</time>
      </trkpt>
      <trkpt lat="48.1812" lon="-2.72345">
        <ele>128.19999694824</ele>
        <time>2021-10-15T13:32:53.000Z</time>
      </trkpt>
      <trkpt lat="48.1812" lon="-2.72345">
        <ele>128.19999694824</ele>
        <time>2021-10-15T13:32:54.000Z</time>
      </trkpt>
      <trkpt lat="48.18118" lon="-2.72342">
        <ele>128.19999694824</ele>
        <time>2021-10-15T13:32:55.000Z</time>
      </trkpt>
      <trkpt lat="48.18116" lon="-2.72339">
        <ele>128</ele>
        <time>2021-10-15T13:32:56.000Z</time>
      </trkpt>
      <trkpt lat="48.18113" lon="-2.72336">
        <ele>128</ele>
        <time>2021-10-15T13:32:57.000Z</time>
      </trkpt>
      <trkpt lat="48.1811" lon="-2.72333">
        <ele>128</ele>
        <time>2021-10-15T13:32:58.000Z</time>
      </trkpt>
      <trkpt lat="48.18107" lon="-2.72331">
        <ele>128</ele>
        <time>2021-10-15T13:32:59.000Z</time>
      </trkpt>
      <trkpt lat="48.18104" lon="-2.72329">
        <ele>128</ele>
        <time>2021-10-15T13:33:00.000Z</time>
      </trkpt>
      <trkpt lat="48.18101" lon="-2.72327">
        <ele>128</ele>
        <time>2021-10-15T13:33:01.000Z</time>
      </trkpt>
      <trkpt lat="48.18093" lon="-2.72325">
        <ele>128</ele>
        <time>2021-10-15T13:33:02.000Z</time>
      </trkpt>
      <trkpt lat="48.1809" lon="-2.72324">
        <ele>128</ele>
        <time>2021-10-15T13:33:03.000Z</time>
      </trkpt>
      <trkpt lat="48.1809" lon="-2.72324">
        <ele>128</ele>
        <time>2021-10-15T13:33:04.000Z</time>
      </trkpt>
      <trkpt lat="48.18085" lon="-2.72323">
        <ele>128</ele>
        <time>2021-10-15T13:33:05.000Z</time>
      </trkpt>
      <trkpt lat="48.18081" lon="-2.72322">
        <ele>128</ele>
        <time>2021-10-15T13:33:06.000Z</time>
      </trkpt>
      <trkpt lat="48.18077" lon="-2.72321">
        <ele>128</ele>
        <time>2021-10-15T13:33:07.000Z</time>
      </trkpt>
      <trkpt lat="48.18073" lon="-2.72321">
        <ele>128</ele>
        <time>2021-10-15T13:33:08.000Z</time>
      </trkpt>
      <trkpt lat="48.1807" lon="-2.7232">
        <ele>127.80000305176</ele>
        <time>2021-10-15T13:33:09.000Z</time>
      </trkpt>
      <trkpt lat="48.18066" lon="-2.7232">
        <ele>127.80000305176</ele>
        <time>2021-10-15T13:33:10.000Z</time>
      </trkpt>
      <trkpt lat="48.18062" lon="-2.7232">
        <ele>127.80000305176</ele>
        <time>2021-10-15T13:33:11.000Z</time>
      </trkpt>
      <trkpt lat="48.18059" lon="-2.72319">
        <ele>127.80000305176</ele>
        <time>2021-10-15T13:33:12.000Z</time>
      </trkpt>
      <trkpt lat="48.18055" lon="-2.72319">
        <ele>127.80000305176</ele>
        <time>2021-10-15T13:33:13.000Z</time>
      </trkpt>
      <trkpt lat="48.18052" lon="-2.72319">
        <ele>127.80000305176</ele>
        <time>2021-10-15T13:33:14.000Z</time>
      </trkpt>
      <trkpt lat="48.18048" lon="-2.72319">
        <ele>127.80000305176</ele>
        <time>2021-10-15T13:33:15.000Z</time>
      </trkpt>
      <trkpt lat="48.18045" lon="-2.72318">
        <ele>127.80000305176</ele>
        <time>2021-10-15T13:33:16.000Z</time>
      </trkpt>
      <trkpt lat="48.18041" lon="-2.72318">
        <ele>128</ele>
        <time>2021-10-15T13:33:17.000Z</time>
      </trkpt>
      <trkpt lat="48.18038" lon="-2.72318">
        <ele>128</ele>
        <time>2021-10-15T13:33:18.000Z</time>
      </trkpt>
      <trkpt lat="48.18031" lon="-2.72318">
        <ele>128.39999389648</ele>
        <time>2021-10-15T13:33:19.000Z</time>
      </trkpt>
      <trkpt lat="48.18031" lon="-2.72318">
        <ele>128.39999389648</ele>
        <time>2021-10-15T13:33:20.000Z</time>
      </trkpt>
      <trkpt lat="48.18027" lon="-2.72317">
        <ele>128.60000610352</ele>
        <time>2021-10-15T13:33:21.000Z</time>
      </trkpt>
      <trkpt lat="48.18024" lon="-2.72317">
        <ele>128.60000610352</ele>
        <time>2021-10-15T13:33:22.000Z</time>
      </trkpt>
      <trkpt lat="48.1802" lon="-2.72316">
        <ele>128.80000305176</ele>
        <time>2021-10-15T13:33:23.000Z</time>
      </trkpt>
      <trkpt lat="48.18016" lon="-2.72316">
        <ele>129</ele>
        <time>2021-10-15T13:33:24.000Z</time>
      </trkpt>
      <trkpt lat="48.18013" lon="-2.72315">
        <ele>129.39999389648</ele>
        <time>2021-10-15T13:33:25.000Z</time>
      </trkpt>
      <trkpt lat="48.18009" lon="-2.72314">
        <ele>129.60000610352</ele>
        <time>2021-10-15T13:33:26.000Z</time>
      </trkpt>
      <trkpt lat="48.18005" lon="-2.72314">
        <ele>130</ele>
        <time>2021-10-15T13:33:27.000Z</time>
      </trkpt>
      <trkpt lat="48.18002" lon="-2.72313">
        <ele>130.19999694824</ele>
        <time>2021-10-15T13:33:28.000Z</time>
      </trkpt>
      <trkpt lat="48.17998" lon="-2.72313">
        <ele>130.39999389648</ele>
        <time>2021-10-15T13:33:29.000Z</time>
      </trkpt>
      <trkpt lat="48.17994" lon="-2.72313">
        <ele>130.80000305176</ele>
        <time>2021-10-15T13:33:30.000Z</time>
      </trkpt>
      <trkpt lat="48.1799" lon="-2.72312">
        <ele>131</ele>
        <time>2021-10-15T13:33:31.000Z</time>
      </trkpt>
      <trkpt lat="48.17986" lon="-2.72312">
        <ele>131.39999389648</ele>
        <time>2021-10-15T13:33:32.000Z</time>
      </trkpt>
      <trkpt lat="48.17982" lon="-2.72312">
        <ele>131.60000610352</ele>
        <time>2021-10-15T13:33:33.000Z</time>
      </trkpt>
      <trkpt lat="48.17978" lon="-2.72311">
        <ele>132</ele>
        <time>2021-10-15T13:33:34.000Z</time>
      </trkpt>
      <trkpt lat="48.17974" lon="-2.72311">
        <ele>132.19999694824</ele>
        <time>2021-10-15T13:33:35.000Z</time>
      </trkpt>
      <trkpt lat="48.1797" lon="-2.7231">
        <ele>132.60000610352</ele>
        <time>2021-10-15T13:33:36.000Z</time>
      </trkpt>
      <trkpt lat="48.17966" lon="-2.72309">
        <ele>133</ele>
        <time>2021-10-15T13:33:37.000Z</time>
      </trkpt>
      <trkpt lat="48.17962" lon="-2.72308">
        <ele>133.19999694824</ele>
        <time>2021-10-15T13:33:38.000Z</time>
      </trkpt>
      <trkpt lat="48.17958" lon="-2.72307">
        <ele>133.19999694824</ele>
        <time>2021-10-15T13:33:39.000Z</time>
      </trkpt>
      <trkpt lat="48.17954" lon="-2.72306">
        <ele>133.19999694824</ele>
        <time>2021-10-15T13:33:40.000Z</time>
      </trkpt>
      <trkpt lat="48.1795" lon="-2.72305">
        <ele>133.19999694824</ele>
        <time>2021-10-15T13:33:41.000Z</time>
      </trkpt>
      <trkpt lat="48.17945" lon="-2.72304">
        <ele>133.19999694824</ele>
        <time>2021-10-15T13:33:42.000Z</time>
      </trkpt>
      <trkpt lat="48.17941" lon="-2.72303">
        <ele>133.19999694824</ele>
        <time>2021-10-15T13:33:43.000Z</time>
      </trkpt>
      <trkpt lat="48.17938" lon="-2.72302">
        <ele>133.39999389648</ele>
        <time>2021-10-15T13:33:44.000Z</time>
      </trkpt>
      <trkpt lat="48.17933" lon="-2.723">
        <ele>133.39999389648</ele>
        <time>2021-10-15T13:33:45.000Z</time>
      </trkpt>
      <trkpt lat="48.17929" lon="-2.72298">
        <ele>133.39999389648</ele>
        <time>2021-10-15T13:33:46.000Z</time>
      </trkpt>
      <trkpt lat="48.17925" lon="-2.72295">
        <ele>133.60000610352</ele>
        <time>2021-10-15T13:33:47.000Z</time>
      </trkpt>
      <trkpt lat="48.17921" lon="-2.72291">
        <ele>134</ele>
        <time>2021-10-15T13:33:48.000Z</time>
      </trkpt>
      <trkpt lat="48.17917" lon="-2.72288">
        <ele>134.39999389648</ele>
        <time>2021-10-15T13:33:49.000Z</time>
      </trkpt>
      <trkpt lat="48.17913" lon="-2.72284">
        <ele>134.80000305176</ele>
        <time>2021-10-15T13:33:50.000Z</time>
      </trkpt>
      <trkpt lat="48.17905" lon="-2.72277">
        <ele>135.39999389648</ele>
        <time>2021-10-15T13:33:51.000Z</time>
      </trkpt>
      <trkpt lat="48.17905" lon="-2.72277">
        <ele>135.39999389648</ele>
        <time>2021-10-15T13:33:52.000Z</time>
      </trkpt>
      <trkpt lat="48.17902" lon="-2.72272">
        <ele>135.60000610352</ele>
        <time>2021-10-15T13:33:53.000Z</time>
      </trkpt>
      <trkpt lat="48.17895" lon="-2.72263">
        <ele>136</ele>
        <time>2021-10-15T13:33:54.000Z</time>
      </trkpt>
      <trkpt lat="48.17895" lon="-2.72263">
        <ele>136</ele>
        <time>2021-10-15T13:33:55.000Z</time>
      </trkpt>
      <trkpt lat="48.17892" lon="-2.72257">
        <ele>136</ele>
        <time>2021-10-15T13:33:56.000Z</time>
      </trkpt>
      <trkpt lat="48.17889" lon="-2.72252">
        <ele>135.80000305176</ele>
        <time>2021-10-15T13:33:57.000Z</time>
      </trkpt>
      <trkpt lat="48.17886" lon="-2.72246">
        <ele>135.60000610352</ele>
        <time>2021-10-15T13:33:58.000Z</time>
      </trkpt>
      <trkpt lat="48.17883" lon="-2.7224">
        <ele>135.39999389648</ele>
        <time>2021-10-15T13:33:59.000Z</time>
      </trkpt>
      <trkpt lat="48.17879" lon="-2.72234">
        <ele>135.19999694824</ele>
        <time>2021-10-15T13:34:00.000Z</time>
      </trkpt>
      <trkpt lat="48.17876" lon="-2.72228">
        <ele>134.60000610352</ele>
        <time>2021-10-15T13:34:01.000Z</time>
      </trkpt>
      <trkpt lat="48.1787" lon="-2.72217">
        <ele>133.80000305176</ele>
        <time>2021-10-15T13:34:02.000Z</time>
      </trkpt>
      <trkpt lat="48.1787" lon="-2.72217">
        <ele>133.80000305176</ele>
        <time>2021-10-15T13:34:03.000Z</time>
      </trkpt>
      <trkpt lat="48.17867" lon="-2.72212">
        <ele>133.60000610352</ele>
        <time>2021-10-15T13:34:04.000Z</time>
      </trkpt>
      <trkpt lat="48.17864" lon="-2.72206">
        <ele>133.39999389648</ele>
        <time>2021-10-15T13:34:05.000Z</time>
      </trkpt>
      <trkpt lat="48.17861" lon="-2.72201">
        <ele>133.39999389648</ele>
        <time>2021-10-15T13:34:06.000Z</time>
      </trkpt>
      <trkpt lat="48.17858" lon="-2.72196">
        <ele>133</ele>
        <time>2021-10-15T13:34:07.000Z</time>
      </trkpt>
      <trkpt lat="48.17856" lon="-2.72191">
        <ele>133</ele>
        <time>2021-10-15T13:34:08.000Z</time>
      </trkpt>
      <trkpt lat="48.17853" lon="-2.72186">
        <ele>133</ele>
        <time>2021-10-15T13:34:09.000Z</time>
      </trkpt>
      <trkpt lat="48.17851" lon="-2.7218">
        <ele>133</ele>
        <time>2021-10-15T13:34:10.000Z</time>
      </trkpt>
      <trkpt lat="48.17848" lon="-2.72175">
        <ele>132.80000305176</ele>
        <time>2021-10-15T13:34:11.000Z</time>
      </trkpt>
      <trkpt lat="48.17842" lon="-2.72166">
        <ele>132.60000610352</ele>
        <time>2021-10-15T13:34:12.000Z</time>
      </trkpt>
      <trkpt lat="48.17842" lon="-2.72166">
        <ele>132.60000610352</ele>
        <time>2021-10-15T13:34:13.000Z</time>
      </trkpt>
      <trkpt lat="48.17839" lon="-2.72161">
        <ele>132.60000610352</ele>
        <time>2021-10-15T13:34:14.000Z</time>
      </trkpt>
      <trkpt lat="48.17836" lon="-2.72155">
        <ele>132.39999389648</ele>
        <time>2021-10-15T13:34:15.000Z</time>
      </trkpt>
      <trkpt lat="48.17834" lon="-2.72149">
        <ele>132.39999389648</ele>
        <time>2021-10-15T13:34:16.000Z</time>
      </trkpt>
      <trkpt lat="48.17831" lon="-2.72142">
        <ele>132.19999694824</ele>
        <time>2021-10-15T13:34:17.000Z</time>
      </trkpt>
      <trkpt lat="48.17829" lon="-2.72135">
        <ele>132.19999694824</ele>
        <time>2021-10-15T13:34:18.000Z</time>
      </trkpt>
      <trkpt lat="48.17826" lon="-2.72127">
        <ele>132</ele>
        <time>2021-10-15T13:34:19.000Z</time>
      </trkpt>
      <trkpt lat="48.17824" lon="-2.7212">
        <ele>132</ele>
        <time>2021-10-15T13:34:20.000Z</time>
      </trkpt>
      <trkpt lat="48.17821" lon="-2.72113">
        <ele>131.80000305176</ele>
        <time>2021-10-15T13:34:21.000Z</time>
      </trkpt>
      <trkpt lat="48.17819" lon="-2.72106">
        <ele>131.80000305176</ele>
        <time>2021-10-15T13:34:22.000Z</time>
      </trkpt>
      <trkpt lat="48.17813" lon="-2.72094">
        <ele>131.80000305176</ele>
        <time>2021-10-15T13:34:23.000Z</time>
      </trkpt>
      <trkpt lat="48.17813" lon="-2.72094">
        <ele>131.80000305176</ele>
        <time>2021-10-15T13:34:24.000Z</time>
      </trkpt>
      <trkpt lat="48.17811" lon="-2.72088">
        <ele>132</ele>
        <time>2021-10-15T13:34:25.000Z</time>
      </trkpt>
      <trkpt lat="48.17808" lon="-2.72082">
        <ele>132</ele>
        <time>2021-10-15T13:34:26.000Z</time>
      </trkpt>
      <trkpt lat="48.17806" lon="-2.72076">
        <ele>132</ele>
        <time>2021-10-15T13:34:27.000Z</time>
      </trkpt>
      <trkpt lat="48.17803" lon="-2.7207">
        <ele>132</ele>
        <time>2021-10-15T13:34:28.000Z</time>
      </trkpt>
      <trkpt lat="48.178" lon="-2.72065">
        <ele>132</ele>
        <time>2021-10-15T13:34:29.000Z</time>
      </trkpt>
      <trkpt lat="48.17797" lon="-2.7206">
        <ele>132</ele>
        <time>2021-10-15T13:34:30.000Z</time>
      </trkpt>
      <trkpt lat="48.17795" lon="-2.72054">
        <ele>132.39999389648</ele>
        <time>2021-10-15T13:34:31.000Z</time>
      </trkpt>
      <trkpt lat="48.17792" lon="-2.72049">
        <ele>132.60000610352</ele>
        <time>2021-10-15T13:34:32.000Z</time>
      </trkpt>
      <trkpt lat="48.17789" lon="-2.72044">
        <ele>133</ele>
        <time>2021-10-15T13:34:33.000Z</time>
      </trkpt>
      <trkpt lat="48.17785" lon="-2.72039">
        <ele>133.19999694824</ele>
        <time>2021-10-15T13:34:34.000Z</time>
      </trkpt>
      <trkpt lat="48.17782" lon="-2.72034">
        <ele>133.60000610352</ele>
        <time>2021-10-15T13:34:35.000Z</time>
      </trkpt>
      <trkpt lat="48.17779" lon="-2.7203">
        <ele>133.80000305176</ele>
        <time>2021-10-15T13:34:36.000Z</time>
      </trkpt>
      <trkpt lat="48.17775" lon="-2.72026">
        <ele>134</ele>
        <time>2021-10-15T13:34:37.000Z</time>
      </trkpt>
      <trkpt lat="48.17771" lon="-2.72022">
        <ele>134.39999389648</ele>
        <time>2021-10-15T13:34:38.000Z</time>
      </trkpt>
      <trkpt lat="48.17767" lon="-2.72018">
        <ele>134.60000610352</ele>
        <time>2021-10-15T13:34:39.000Z</time>
      </trkpt>
      <trkpt lat="48.17763" lon="-2.72015">
        <ele>134.80000305176</ele>
        <time>2021-10-15T13:34:40.000Z</time>
      </trkpt>
      <trkpt lat="48.17759" lon="-2.72012">
        <ele>135.19999694824</ele>
        <time>2021-10-15T13:34:41.000Z</time>
      </trkpt>
      <trkpt lat="48.17755" lon="-2.72009">
        <ele>135.39999389648</ele>
        <time>2021-10-15T13:34:42.000Z</time>
      </trkpt>
      <trkpt lat="48.17751" lon="-2.72007">
        <ele>135.60000610352</ele>
        <time>2021-10-15T13:34:43.000Z</time>
      </trkpt>
      <trkpt lat="48.17746" lon="-2.72004">
        <ele>135.80000305176</ele>
        <time>2021-10-15T13:34:44.000Z</time>
      </trkpt>
      <trkpt lat="48.17742" lon="-2.72002">
        <ele>136</ele>
        <time>2021-10-15T13:34:45.000Z</time>
      </trkpt>
      <trkpt lat="48.17737" lon="-2.72001">
        <ele>135.80000305176</ele>
        <time>2021-10-15T13:34:46.000Z</time>
      </trkpt>
      <trkpt lat="48.17732" lon="-2.71999">
        <ele>135.39999389648</ele>
        <time>2021-10-15T13:34:47.000Z</time>
      </trkpt>
      <trkpt lat="48.17727" lon="-2.71998">
        <ele>135</ele>
        <time>2021-10-15T13:34:48.000Z</time>
      </trkpt>
      <trkpt lat="48.17721" lon="-2.71998">
        <ele>134.60000610352</ele>
        <time>2021-10-15T13:34:49.000Z</time>
      </trkpt>
      <trkpt lat="48.17716" lon="-2.71997">
        <ele>134.39999389648</ele>
        <time>2021-10-15T13:34:50.000Z</time>
      </trkpt>
      <trkpt lat="48.17704" lon="-2.71996">
        <ele>133.60000610352</ele>
        <time>2021-10-15T13:34:51.000Z</time>
      </trkpt>
      <trkpt lat="48.17704" lon="-2.71996">
        <ele>133.60000610352</ele>
        <time>2021-10-15T13:34:52.000Z</time>
      </trkpt>
      <trkpt lat="48.17692" lon="-2.71994">
        <ele>133</ele>
        <time>2021-10-15T13:34:53.000Z</time>
      </trkpt>
      <trkpt lat="48.17692" lon="-2.71994">
        <ele>133</ele>
        <time>2021-10-15T13:34:54.000Z</time>
      </trkpt>
      <trkpt lat="48.17681" lon="-2.71993">
        <ele>132.39999389648</ele>
        <time>2021-10-15T13:34:55.000Z</time>
      </trkpt>
      <trkpt lat="48.17681" lon="-2.71993">
        <ele>132.39999389648</ele>
        <time>2021-10-15T13:34:56.000Z</time>
      </trkpt>
      <trkpt lat="48.17675" lon="-2.71993">
        <ele>132.39999389648</ele>
        <time>2021-10-15T13:34:57.000Z</time>
      </trkpt>
      <trkpt lat="48.1767" lon="-2.71993">
        <ele>132.39999389648</ele>
        <time>2021-10-15T13:34:58.000Z</time>
      </trkpt>
      <trkpt lat="48.17664" lon="-2.71992">
        <ele>132.60000610352</ele>
        <time>2021-10-15T13:34:59.000Z</time>
      </trkpt>
      <trkpt lat="48.17659" lon="-2.71991">
        <ele>132.60000610352</ele>
        <time>2021-10-15T13:35:00.000Z</time>
      </trkpt>
      <trkpt lat="48.17654" lon="-2.71991">
        <ele>132.60000610352</ele>
        <time>2021-10-15T13:35:01.000Z</time>
      </trkpt>
      <trkpt lat="48.17646" lon="-2.71991">
        <ele>133</ele>
        <time>2021-10-15T13:35:02.000Z</time>
      </trkpt>
      <trkpt lat="48.17642" lon="-2.7199">
        <ele>133.19999694824</ele>
        <time>2021-10-15T13:35:03.000Z</time>
      </trkpt>
      <trkpt lat="48.17642" lon="-2.7199">
        <ele>133.19999694824</ele>
        <time>2021-10-15T13:35:04.000Z</time>
      </trkpt>
      <trkpt lat="48.17639" lon="-2.7199">
        <ele>133.39999389648</ele>
        <time>2021-10-15T13:35:05.000Z</time>
      </trkpt>
      <trkpt lat="48.17636" lon="-2.7199">
        <ele>133.60000610352</ele>
        <time>2021-10-15T13:35:06.000Z</time>
      </trkpt>
      <trkpt lat="48.17633" lon="-2.7199">
        <ele>134</ele>
        <time>2021-10-15T13:35:07.000Z</time>
      </trkpt>
      <trkpt lat="48.1763" lon="-2.71991">
        <ele>134.19999694824</ele>
        <time>2021-10-15T13:35:08.000Z</time>
      </trkpt>
      <trkpt lat="48.17626" lon="-2.71991">
        <ele>134.39999389648</ele>
        <time>2021-10-15T13:35:09.000Z</time>
      </trkpt>
      <trkpt lat="48.17623" lon="-2.71991">
        <ele>134.80000305176</ele>
        <time>2021-10-15T13:35:10.000Z</time>
      </trkpt>
      <trkpt lat="48.1762" lon="-2.71991">
        <ele>135.19999694824</ele>
        <time>2021-10-15T13:35:11.000Z</time>
      </trkpt>
      <trkpt lat="48.17616" lon="-2.71991">
        <ele>135.60000610352</ele>
        <time>2021-10-15T13:35:12.000Z</time>
      </trkpt>
      <trkpt lat="48.17613" lon="-2.71992">
        <ele>135.80000305176</ele>
        <time>2021-10-15T13:35:13.000Z</time>
      </trkpt>
      <trkpt lat="48.17611" lon="-2.71992">
        <ele>135.80000305176</ele>
        <time>2021-10-15T13:35:14.000Z</time>
      </trkpt>
      <trkpt lat="48.17608" lon="-2.71993">
        <ele>136</ele>
        <time>2021-10-15T13:35:15.000Z</time>
      </trkpt>
      <trkpt lat="48.17606" lon="-2.71993">
        <ele>136.19999694824</ele>
        <time>2021-10-15T13:35:16.000Z</time>
      </trkpt>
      <trkpt lat="48.17604" lon="-2.71995">
        <ele>136.19999694824</ele>
        <time>2021-10-15T13:35:17.000Z</time>
      </trkpt>
      <trkpt lat="48.17603" lon="-2.71997">
        <ele>136.19999694824</ele>
        <time>2021-10-15T13:35:18.000Z</time>
      </trkpt>
      <trkpt lat="48.17602" lon="-2.72">
        <ele>136.19999694824</ele>
        <time>2021-10-15T13:35:19.000Z</time>
      </trkpt>
      <trkpt lat="48.176" lon="-2.72008">
        <ele>136</ele>
        <time>2021-10-15T13:35:20.000Z</time>
      </trkpt>
      <trkpt lat="48.176" lon="-2.72008">
        <ele>136</ele>
        <time>2021-10-15T13:35:21.000Z</time>
      </trkpt>
      <trkpt lat="48.176" lon="-2.72012">
        <ele>135.80000305176</ele>
        <time>2021-10-15T13:35:22.000Z</time>
      </trkpt>
      <trkpt lat="48.176" lon="-2.72016">
        <ele>135.80000305176</ele>
        <time>2021-10-15T13:35:23.000Z</time>
      </trkpt>
      <trkpt lat="48.176" lon="-2.7202">
        <ele>135.60000610352</ele>
        <time>2021-10-15T13:35:24.000Z</time>
      </trkpt>
      <trkpt lat="48.176" lon="-2.72023">
        <ele>135.39999389648</ele>
        <time>2021-10-15T13:35:25.000Z</time>
      </trkpt>
      <trkpt lat="48.17601" lon="-2.72026">
        <ele>135.39999389648</ele>
        <time>2021-10-15T13:35:26.000Z</time>
      </trkpt>
      <trkpt lat="48.17601" lon="-2.72029">
        <ele>135.19999694824</ele>
        <time>2021-10-15T13:35:27.000Z</time>
      </trkpt>
      <trkpt lat="48.176" lon="-2.72034">
        <ele>135</ele>
        <time>2021-10-15T13:35:28.000Z</time>
      </trkpt>
      <trkpt lat="48.176" lon="-2.72039">
        <ele>135</ele>
        <time>2021-10-15T13:35:29.000Z</time>
      </trkpt>
      <trkpt lat="48.176" lon="-2.72046">
        <ele>135</ele>
        <time>2021-10-15T13:35:30.000Z</time>
      </trkpt>
      <trkpt lat="48.17599" lon="-2.72053">
        <ele>134.80000305176</ele>
        <time>2021-10-15T13:35:31.000Z</time>
      </trkpt>
      <trkpt lat="48.17599" lon="-2.72061">
        <ele>134.80000305176</ele>
        <time>2021-10-15T13:35:32.000Z</time>
      </trkpt>
      <trkpt lat="48.17599" lon="-2.72069">
        <ele>134.60000610352</ele>
        <time>2021-10-15T13:35:33.000Z</time>
      </trkpt>
      <trkpt lat="48.17598" lon="-2.72078">
        <ele>134.19999694824</ele>
        <time>2021-10-15T13:35:34.000Z</time>
      </trkpt>
      <trkpt lat="48.17598" lon="-2.72087">
        <ele>134</ele>
        <time>2021-10-15T13:35:35.000Z</time>
      </trkpt>
      <trkpt lat="48.17597" lon="-2.72097">
        <ele>133.60000610352</ele>
        <time>2021-10-15T13:35:36.000Z</time>
      </trkpt>
      <trkpt lat="48.17597" lon="-2.72106">
        <ele>133.60000610352</ele>
        <time>2021-10-15T13:35:37.000Z</time>
      </trkpt>
      <trkpt lat="48.17596" lon="-2.72116">
        <ele>133.60000610352</ele>
        <time>2021-10-15T13:35:38.000Z</time>
      </trkpt>
      <trkpt lat="48.17596" lon="-2.72126">
        <ele>133.39999389648</ele>
        <time>2021-10-15T13:35:39.000Z</time>
      </trkpt>
      <trkpt lat="48.17595" lon="-2.72137">
        <ele>133</ele>
        <time>2021-10-15T13:35:40.000Z</time>
      </trkpt>
      <trkpt lat="48.17595" lon="-2.72147">
        <ele>132.60000610352</ele>
        <time>2021-10-15T13:35:41.000Z</time>
      </trkpt>
      <trkpt lat="48.17594" lon="-2.72158">
        <ele>132.39999389648</ele>
        <time>2021-10-15T13:35:42.000Z</time>
      </trkpt>
      <trkpt lat="48.17594" lon="-2.72169">
        <ele>132.39999389648</ele>
        <time>2021-10-15T13:35:43.000Z</time>
      </trkpt>
      <trkpt lat="48.17593" lon="-2.7218">
        <ele>132.19999694824</ele>
        <time>2021-10-15T13:35:44.000Z</time>
      </trkpt>
      <trkpt lat="48.17593" lon="-2.72191">
        <ele>132</ele>
        <time>2021-10-15T13:35:45.000Z</time>
      </trkpt>
      <trkpt lat="48.17593" lon="-2.72203">
        <ele>131.80000305176</ele>
        <time>2021-10-15T13:35:46.000Z</time>
      </trkpt>
      <trkpt lat="48.17592" lon="-2.72214">
        <ele>131.39999389648</ele>
        <time>2021-10-15T13:35:47.000Z</time>
      </trkpt>
      <trkpt lat="48.17592" lon="-2.72226">
        <ele>131</ele>
        <time>2021-10-15T13:35:48.000Z</time>
      </trkpt>
      <trkpt lat="48.17591" lon="-2.72238">
        <ele>130.39999389648</ele>
        <time>2021-10-15T13:35:49.000Z</time>
      </trkpt>
      <trkpt lat="48.17591" lon="-2.7225">
        <ele>130.39999389648</ele>
        <time>2021-10-15T13:35:50.000Z</time>
      </trkpt>
      <trkpt lat="48.1759" lon="-2.72275">
        <ele>130</ele>
        <time>2021-10-15T13:35:51.000Z</time>
      </trkpt>
      <trkpt lat="48.1759" lon="-2.72275">
        <ele>130</ele>
        <time>2021-10-15T13:35:52.000Z</time>
      </trkpt>
      <trkpt lat="48.17589" lon="-2.72287">
        <ele>129.60000610352</ele>
        <time>2021-10-15T13:35:53.000Z</time>
      </trkpt>
      <trkpt lat="48.17588" lon="-2.723">
        <ele>129.39999389648</ele>
        <time>2021-10-15T13:35:54.000Z</time>
      </trkpt>
      <trkpt lat="48.17588" lon="-2.72312">
        <ele>129</ele>
        <time>2021-10-15T13:35:55.000Z</time>
      </trkpt>
      <trkpt lat="48.17587" lon="-2.72324">
        <ele>129</ele>
        <time>2021-10-15T13:35:56.000Z</time>
      </trkpt>
      <trkpt lat="48.17587" lon="-2.72334">
        <ele>128.39999389648</ele>
        <time>2021-10-15T13:35:57.000Z</time>
      </trkpt>
      <trkpt lat="48.17586" lon="-2.72341">
        <ele>128</ele>
        <time>2021-10-15T13:35:58.000Z</time>
      </trkpt>
      <trkpt lat="48.17585" lon="-2.72346">
        <ele>128</ele>
        <time>2021-10-15T13:35:59.000Z</time>
      </trkpt>
      <trkpt lat="48.17585" lon="-2.7235">
        <ele>128</ele>
        <time>2021-10-15T13:36:00.000Z</time>
      </trkpt>
      <trkpt lat="48.17583" lon="-2.72353">
        <ele>128</ele>
        <time>2021-10-15T13:36:01.000Z</time>
      </trkpt>
      <trkpt lat="48.1758" lon="-2.72354">
        <ele>128</ele>
        <time>2021-10-15T13:36:02.000Z</time>
      </trkpt>
      <trkpt lat="48.17577" lon="-2.72354">
        <ele>128</ele>
        <time>2021-10-15T13:36:03.000Z</time>
      </trkpt>
      <trkpt lat="48.17573" lon="-2.72353">
        <ele>128</ele>
        <time>2021-10-15T13:36:04.000Z</time>
      </trkpt>
      <trkpt lat="48.17569" lon="-2.72353">
        <ele>128</ele>
        <time>2021-10-15T13:36:05.000Z</time>
      </trkpt>
      <trkpt lat="48.17562" lon="-2.72352">
        <ele>128</ele>
        <time>2021-10-15T13:36:06.000Z</time>
      </trkpt>
      <trkpt lat="48.17562" lon="-2.72352">
        <ele>128</ele>
        <time>2021-10-15T13:36:07.000Z</time>
      </trkpt>
      <trkpt lat="48.17558" lon="-2.72352">
        <ele>128.19999694824</ele>
        <time>2021-10-15T13:36:08.000Z</time>
      </trkpt>
      <trkpt lat="48.17554" lon="-2.72352">
        <ele>128.19999694824</ele>
        <time>2021-10-15T13:36:09.000Z</time>
      </trkpt>
      <trkpt lat="48.1755" lon="-2.72351">
        <ele>128.39999389648</ele>
        <time>2021-10-15T13:36:10.000Z</time>
      </trkpt>
      <trkpt lat="48.17545" lon="-2.72351">
        <ele>128.60000610352</ele>
        <time>2021-10-15T13:36:11.000Z</time>
      </trkpt>
      <trkpt lat="48.17541" lon="-2.72351">
        <ele>128.80000305176</ele>
        <time>2021-10-15T13:36:12.000Z</time>
      </trkpt>
      <trkpt lat="48.17536" lon="-2.7235">
        <ele>129</ele>
        <time>2021-10-15T13:36:13.000Z</time>
      </trkpt>
      <trkpt lat="48.17531" lon="-2.72349">
        <ele>129</ele>
        <time>2021-10-15T13:36:14.000Z</time>
      </trkpt>
      <trkpt lat="48.17525" lon="-2.72348">
        <ele>129</ele>
        <time>2021-10-15T13:36:15.000Z</time>
      </trkpt>
      <trkpt lat="48.1752" lon="-2.72348">
        <ele>129</ele>
        <time>2021-10-15T13:36:16.000Z</time>
      </trkpt>
      <trkpt lat="48.17514" lon="-2.72347">
        <ele>129</ele>
        <time>2021-10-15T13:36:17.000Z</time>
      </trkpt>
      <trkpt lat="48.17509" lon="-2.72346">
        <ele>128.80000305176</ele>
        <time>2021-10-15T13:36:18.000Z</time>
      </trkpt>
      <trkpt lat="48.17503" lon="-2.72346">
        <ele>128.60000610352</ele>
        <time>2021-10-15T13:36:19.000Z</time>
      </trkpt>
      <trkpt lat="48.17497" lon="-2.72345">
        <ele>128.39999389648</ele>
        <time>2021-10-15T13:36:20.000Z</time>
      </trkpt>
      <trkpt lat="48.17492" lon="-2.72344">
        <ele>128.19999694824</ele>
        <time>2021-10-15T13:36:21.000Z</time>
      </trkpt>
      <trkpt lat="48.17486" lon="-2.72343">
        <ele>127.59999847412</ele>
        <time>2021-10-15T13:36:22.000Z</time>
      </trkpt>
      <trkpt lat="48.17481" lon="-2.72342">
        <ele>127.59999847412</ele>
        <time>2021-10-15T13:36:23.000Z</time>
      </trkpt>
      <trkpt lat="48.17476" lon="-2.72341">
        <ele>127.40000152588</ele>
        <time>2021-10-15T13:36:24.000Z</time>
      </trkpt>
      <trkpt lat="48.17471" lon="-2.72341">
        <ele>127.19999694824</ele>
        <time>2021-10-15T13:36:25.000Z</time>
      </trkpt>
      <trkpt lat="48.17466" lon="-2.72341">
        <ele>127</ele>
        <time>2021-10-15T13:36:26.000Z</time>
      </trkpt>
      <trkpt lat="48.17461" lon="-2.72341">
        <ele>126.80000305176</ele>
        <time>2021-10-15T13:36:27.000Z</time>
      </trkpt>
      <trkpt lat="48.17455" lon="-2.72342">
        <ele>126.40000152588</ele>
        <time>2021-10-15T13:36:28.000Z</time>
      </trkpt>
      <trkpt lat="48.1745" lon="-2.72343">
        <ele>126</ele>
        <time>2021-10-15T13:36:29.000Z</time>
      </trkpt>
      <trkpt lat="48.17446" lon="-2.72345">
        <ele>125.80000305176</ele>
        <time>2021-10-15T13:36:30.000Z</time>
      </trkpt>
      <trkpt lat="48.17441" lon="-2.72348">
        <ele>125.40000152588</ele>
        <time>2021-10-15T13:36:31.000Z</time>
      </trkpt>
      <trkpt lat="48.17437" lon="-2.72351">
        <ele>125.19999694824</ele>
        <time>2021-10-15T13:36:32.000Z</time>
      </trkpt>
      <trkpt lat="48.17433" lon="-2.72354">
        <ele>125</ele>
        <time>2021-10-15T13:36:33.000Z</time>
      </trkpt>
      <trkpt lat="48.1743" lon="-2.72358">
        <ele>125</ele>
        <time>2021-10-15T13:36:34.000Z</time>
      </trkpt>
      <trkpt lat="48.17426" lon="-2.72362">
        <ele>125</ele>
        <time>2021-10-15T13:36:35.000Z</time>
      </trkpt>
      <trkpt lat="48.17423" lon="-2.72366">
        <ele>125</ele>
        <time>2021-10-15T13:36:36.000Z</time>
      </trkpt>
      <trkpt lat="48.1742" lon="-2.7237">
        <ele>125</ele>
        <time>2021-10-15T13:36:37.000Z</time>
      </trkpt>
      <trkpt lat="48.17416" lon="-2.72374">
        <ele>124.80000305176</ele>
        <time>2021-10-15T13:36:38.000Z</time>
      </trkpt>
      <trkpt lat="48.17413" lon="-2.72379">
        <ele>124.59999847412</ele>
        <time>2021-10-15T13:36:39.000Z</time>
      </trkpt>
      <trkpt lat="48.1741" lon="-2.72382">
        <ele>124.40000152588</ele>
        <time>2021-10-15T13:36:40.000Z</time>
      </trkpt>
      <trkpt lat="48.17407" lon="-2.72386">
        <ele>124.40000152588</ele>
        <time>2021-10-15T13:36:41.000Z</time>
      </trkpt>
      <trkpt lat="48.17404" lon="-2.72389">
        <ele>124.40000152588</ele>
        <time>2021-10-15T13:36:42.000Z</time>
      </trkpt>
      <trkpt lat="48.17401" lon="-2.72392">
        <ele>124.40000152588</ele>
        <time>2021-10-15T13:36:43.000Z</time>
      </trkpt>
      <trkpt lat="48.17398" lon="-2.72396">
        <ele>124.40000152588</ele>
        <time>2021-10-15T13:36:44.000Z</time>
      </trkpt>
      <trkpt lat="48.17395" lon="-2.72399">
        <ele>124.40000152588</ele>
        <time>2021-10-15T13:36:45.000Z</time>
      </trkpt>
      <trkpt lat="48.17392" lon="-2.72402">
        <ele>124.59999847412</ele>
        <time>2021-10-15T13:36:46.000Z</time>
      </trkpt>
      <trkpt lat="48.17388" lon="-2.72405">
        <ele>124.59999847412</ele>
        <time>2021-10-15T13:36:47.000Z</time>
      </trkpt>
      <trkpt lat="48.17385" lon="-2.72408">
        <ele>124.80000305176</ele>
        <time>2021-10-15T13:36:48.000Z</time>
      </trkpt>
      <trkpt lat="48.17382" lon="-2.7241">
        <ele>125</ele>
        <time>2021-10-15T13:36:49.000Z</time>
      </trkpt>
      <trkpt lat="48.17378" lon="-2.72411">
        <ele>125</ele>
        <time>2021-10-15T13:36:50.000Z</time>
      </trkpt>
      <trkpt lat="48.17374" lon="-2.72413">
        <ele>125</ele>
        <time>2021-10-15T13:36:51.000Z</time>
      </trkpt>
      <trkpt lat="48.1737" lon="-2.72414">
        <ele>125</ele>
        <time>2021-10-15T13:36:52.000Z</time>
      </trkpt>
      <trkpt lat="48.17367" lon="-2.72414">
        <ele>125</ele>
        <time>2021-10-15T13:36:53.000Z</time>
      </trkpt>
      <trkpt lat="48.17363" lon="-2.72415">
        <ele>125</ele>
        <time>2021-10-15T13:36:54.000Z</time>
      </trkpt>
      <trkpt lat="48.1736" lon="-2.72415">
        <ele>125</ele>
        <time>2021-10-15T13:36:55.000Z</time>
      </trkpt>
      <trkpt lat="48.17356" lon="-2.72414">
        <ele>125.19999694824</ele>
        <time>2021-10-15T13:36:56.000Z</time>
      </trkpt>
      <trkpt lat="48.17353" lon="-2.72414">
        <ele>125.19999694824</ele>
        <time>2021-10-15T13:36:57.000Z</time>
      </trkpt>
      <trkpt lat="48.1735" lon="-2.72413">
        <ele>125.40000152588</ele>
        <time>2021-10-15T13:36:58.000Z</time>
      </trkpt>
      <trkpt lat="48.17346" lon="-2.72413">
        <ele>125.40000152588</ele>
        <time>2021-10-15T13:36:59.000Z</time>
      </trkpt>
      <trkpt lat="48.17343" lon="-2.72412">
        <ele>125.40000152588</ele>
        <time>2021-10-15T13:37:00.000Z</time>
      </trkpt>
      <trkpt lat="48.17339" lon="-2.72411">
        <ele>125.40000152588</ele>
        <time>2021-10-15T13:37:01.000Z</time>
      </trkpt>
      <trkpt lat="48.17336" lon="-2.72409">
        <ele>125.40000152588</ele>
        <time>2021-10-15T13:37:02.000Z</time>
      </trkpt>
      <trkpt lat="48.17332" lon="-2.72407">
        <ele>125.59999847412</ele>
        <time>2021-10-15T13:37:03.000Z</time>
      </trkpt>
      <trkpt lat="48.17327" lon="-2.72406">
        <ele>125.59999847412</ele>
        <time>2021-10-15T13:37:04.000Z</time>
      </trkpt>
      <trkpt lat="48.17323" lon="-2.72405">
        <ele>125.59999847412</ele>
        <time>2021-10-15T13:37:05.000Z</time>
      </trkpt>
      <trkpt lat="48.17318" lon="-2.72404">
        <ele>125.59999847412</ele>
        <time>2021-10-15T13:37:06.000Z</time>
      </trkpt>
      <trkpt lat="48.17313" lon="-2.72403">
        <ele>125.80000305176</ele>
        <time>2021-10-15T13:37:07.000Z</time>
      </trkpt>
      <trkpt lat="48.17308" lon="-2.72403">
        <ele>126</ele>
        <time>2021-10-15T13:37:08.000Z</time>
      </trkpt>
      <trkpt lat="48.17302" lon="-2.72403">
        <ele>126.19999694824</ele>
        <time>2021-10-15T13:37:09.000Z</time>
      </trkpt>
      <trkpt lat="48.17296" lon="-2.72404">
        <ele>126.40000152588</ele>
        <time>2021-10-15T13:37:10.000Z</time>
      </trkpt>
      <trkpt lat="48.17291" lon="-2.72405">
        <ele>126.40000152588</ele>
        <time>2021-10-15T13:37:11.000Z</time>
      </trkpt>
      <trkpt lat="48.17285" lon="-2.72407">
        <ele>126.59999847412</ele>
        <time>2021-10-15T13:37:12.000Z</time>
      </trkpt>
      <trkpt lat="48.17279" lon="-2.72408">
        <ele>126.59999847412</ele>
        <time>2021-10-15T13:37:13.000Z</time>
      </trkpt>
      <trkpt lat="48.17274" lon="-2.72409">
        <ele>126.80000305176</ele>
        <time>2021-10-15T13:37:14.000Z</time>
      </trkpt>
      <trkpt lat="48.17268" lon="-2.7241">
        <ele>127</ele>
        <time>2021-10-15T13:37:15.000Z</time>
      </trkpt>
      <trkpt lat="48.17263" lon="-2.72411">
        <ele>127.19999694824</ele>
        <time>2021-10-15T13:37:16.000Z</time>
      </trkpt>
      <trkpt lat="48.17258" lon="-2.72412">
        <ele>127.59999847412</ele>
        <time>2021-10-15T13:37:17.000Z</time>
      </trkpt>
      <trkpt lat="48.17252" lon="-2.72413">
        <ele>128</ele>
        <time>2021-10-15T13:37:18.000Z</time>
      </trkpt>
      <trkpt lat="48.17247" lon="-2.72413">
        <ele>128.60000610352</ele>
        <time>2021-10-15T13:37:19.000Z</time>
      </trkpt>
      <trkpt lat="48.17242" lon="-2.72413">
        <ele>129.19999694824</ele>
        <time>2021-10-15T13:37:20.000Z</time>
      </trkpt>
      <trkpt lat="48.17237" lon="-2.72413">
        <ele>130.19999694824</ele>
        <time>2021-10-15T13:37:21.000Z</time>
      </trkpt>
      <trkpt lat="48.17232" lon="-2.72414">
        <ele>131</ele>
        <time>2021-10-15T13:37:22.000Z</time>
      </trkpt>
      <trkpt lat="48.17227" lon="-2.72414">
        <ele>131.80000305176</ele>
        <time>2021-10-15T13:37:23.000Z</time>
      </trkpt>
      <trkpt lat="48.17222" lon="-2.72415">
        <ele>132.39999389648</ele>
        <time>2021-10-15T13:37:24.000Z</time>
      </trkpt>
      <trkpt lat="48.17218" lon="-2.72417">
        <ele>133</ele>
        <time>2021-10-15T13:37:25.000Z</time>
      </trkpt>
      <trkpt lat="48.17214" lon="-2.72418">
        <ele>133.60000610352</ele>
        <time>2021-10-15T13:37:26.000Z</time>
      </trkpt>
      <trkpt lat="48.1721" lon="-2.7242">
        <ele>134</ele>
        <time>2021-10-15T13:37:27.000Z</time>
      </trkpt>
      <trkpt lat="48.17206" lon="-2.72422">
        <ele>134.39999389648</ele>
        <time>2021-10-15T13:37:28.000Z</time>
      </trkpt>
      <trkpt lat="48.17203" lon="-2.72424">
        <ele>134.60000610352</ele>
        <time>2021-10-15T13:37:29.000Z</time>
      </trkpt>
      <trkpt lat="48.17199" lon="-2.72426">
        <ele>134.60000610352</ele>
        <time>2021-10-15T13:37:30.000Z</time>
      </trkpt>
      <trkpt lat="48.17195" lon="-2.72428">
        <ele>134.60000610352</ele>
        <time>2021-10-15T13:37:31.000Z</time>
      </trkpt>
      <trkpt lat="48.17192" lon="-2.72431">
        <ele>134.39999389648</ele>
        <time>2021-10-15T13:37:32.000Z</time>
      </trkpt>
      <trkpt lat="48.17188" lon="-2.72434">
        <ele>134.39999389648</ele>
        <time>2021-10-15T13:37:33.000Z</time>
      </trkpt>
      <trkpt lat="48.17184" lon="-2.72435">
        <ele>134.60000610352</ele>
        <time>2021-10-15T13:37:34.000Z</time>
      </trkpt>
      <trkpt lat="48.1718" lon="-2.72437">
        <ele>134.19999694824</ele>
        <time>2021-10-15T13:37:35.000Z</time>
      </trkpt>
      <trkpt lat="48.17176" lon="-2.7244">
        <ele>133.80000305176</ele>
        <time>2021-10-15T13:37:36.000Z</time>
      </trkpt>
      <trkpt lat="48.17172" lon="-2.72441">
        <ele>133.60000610352</ele>
        <time>2021-10-15T13:37:37.000Z</time>
      </trkpt>
      <trkpt lat="48.17168" lon="-2.72443">
        <ele>133.60000610352</ele>
        <time>2021-10-15T13:37:38.000Z</time>
      </trkpt>
      <trkpt lat="48.17164" lon="-2.72444">
        <ele>133.39999389648</ele>
        <time>2021-10-15T13:37:39.000Z</time>
      </trkpt>
      <trkpt lat="48.1716" lon="-2.72445">
        <ele>133.19999694824</ele>
        <time>2021-10-15T13:37:40.000Z</time>
      </trkpt>
      <trkpt lat="48.17157" lon="-2.72446">
        <ele>133</ele>
        <time>2021-10-15T13:37:41.000Z</time>
      </trkpt>
      <trkpt lat="48.17153" lon="-2.72446">
        <ele>132.80000305176</ele>
        <time>2021-10-15T13:37:42.000Z</time>
      </trkpt>
      <trkpt lat="48.1715" lon="-2.72447">
        <ele>132.39999389648</ele>
        <time>2021-10-15T13:37:43.000Z</time>
      </trkpt>
      <trkpt lat="48.17147" lon="-2.72447">
        <ele>132.39999389648</ele>
        <time>2021-10-15T13:37:44.000Z</time>
      </trkpt>
      <trkpt lat="48.17144" lon="-2.72448">
        <ele>132</ele>
        <time>2021-10-15T13:37:45.000Z</time>
      </trkpt>
      <trkpt lat="48.1714" lon="-2.72449">
        <ele>131.60000610352</ele>
        <time>2021-10-15T13:37:46.000Z</time>
      </trkpt>
      <trkpt lat="48.17137" lon="-2.72451">
        <ele>131.19999694824</ele>
        <time>2021-10-15T13:37:47.000Z</time>
      </trkpt>
      <trkpt lat="48.17134" lon="-2.72451">
        <ele>131</ele>
        <time>2021-10-15T13:37:48.000Z</time>
      </trkpt>
      <trkpt lat="48.17131" lon="-2.72452">
        <ele>130.80000305176</ele>
        <time>2021-10-15T13:37:49.000Z</time>
      </trkpt>
      <trkpt lat="48.17127" lon="-2.72452">
        <ele>130.80000305176</ele>
        <time>2021-10-15T13:37:50.000Z</time>
      </trkpt>
      <trkpt lat="48.17123" lon="-2.72452">
        <ele>130.80000305176</ele>
        <time>2021-10-15T13:37:51.000Z</time>
      </trkpt>
      <trkpt lat="48.17119" lon="-2.72453">
        <ele>130.60000610352</ele>
        <time>2021-10-15T13:37:52.000Z</time>
      </trkpt>
      <trkpt lat="48.17114" lon="-2.72455">
        <ele>130.39999389648</ele>
        <time>2021-10-15T13:37:53.000Z</time>
      </trkpt>
      <trkpt lat="48.17103" lon="-2.72457">
        <ele>130.19999694824</ele>
        <time>2021-10-15T13:37:54.000Z</time>
      </trkpt>
      <trkpt lat="48.17103" lon="-2.72457">
        <ele>130.19999694824</ele>
        <time>2021-10-15T13:37:55.000Z</time>
      </trkpt>
      <trkpt lat="48.17098" lon="-2.72458">
        <ele>129.80000305176</ele>
        <time>2021-10-15T13:37:56.000Z</time>
      </trkpt>
      <trkpt lat="48.17093" lon="-2.72458">
        <ele>129.60000610352</ele>
        <time>2021-10-15T13:37:57.000Z</time>
      </trkpt>
      <trkpt lat="48.17088" lon="-2.72459">
        <ele>129.19999694824</ele>
        <time>2021-10-15T13:37:58.000Z</time>
      </trkpt>
      <trkpt lat="48.17082" lon="-2.72461">
        <ele>128.80000305176</ele>
        <time>2021-10-15T13:37:59.000Z</time>
      </trkpt>
      <trkpt lat="48.17076" lon="-2.72463">
        <ele>128.19999694824</ele>
        <time>2021-10-15T13:38:00.000Z</time>
      </trkpt>
      <trkpt lat="48.1707" lon="-2.72465">
        <ele>127.40000152588</ele>
        <time>2021-10-15T13:38:01.000Z</time>
      </trkpt>
      <trkpt lat="48.17064" lon="-2.72466">
        <ele>126.59999847412</ele>
        <time>2021-10-15T13:38:02.000Z</time>
      </trkpt>
      <trkpt lat="48.17059" lon="-2.72467">
        <ele>126</ele>
        <time>2021-10-15T13:38:03.000Z</time>
      </trkpt>
      <trkpt lat="48.17054" lon="-2.72468">
        <ele>125.19999694824</ele>
        <time>2021-10-15T13:38:04.000Z</time>
      </trkpt>
      <trkpt lat="48.17049" lon="-2.72469">
        <ele>124.40000152588</ele>
        <time>2021-10-15T13:38:05.000Z</time>
      </trkpt>
      <trkpt lat="48.17044" lon="-2.72469">
        <ele>123.80000305176</ele>
        <time>2021-10-15T13:38:06.000Z</time>
      </trkpt>
      <trkpt lat="48.17039" lon="-2.72469">
        <ele>123.19999694824</ele>
        <time>2021-10-15T13:38:07.000Z</time>
      </trkpt>
      <trkpt lat="48.17034" lon="-2.72469">
        <ele>122.59999847412</ele>
        <time>2021-10-15T13:38:08.000Z</time>
      </trkpt>
      <trkpt lat="48.17029" lon="-2.72469">
        <ele>122.19999694824</ele>
        <time>2021-10-15T13:38:09.000Z</time>
      </trkpt>
      <trkpt lat="48.17024" lon="-2.72469">
        <ele>121.59999847412</ele>
        <time>2021-10-15T13:38:10.000Z</time>
      </trkpt>
      <trkpt lat="48.17019" lon="-2.72469">
        <ele>121.19999694824</ele>
        <time>2021-10-15T13:38:11.000Z</time>
      </trkpt>
      <trkpt lat="48.17014" lon="-2.72468">
        <ele>121</ele>
        <time>2021-10-15T13:38:12.000Z</time>
      </trkpt>
      <trkpt lat="48.17009" lon="-2.72466">
        <ele>121</ele>
        <time>2021-10-15T13:38:13.000Z</time>
      </trkpt>
      <trkpt lat="48.17003" lon="-2.72464">
        <ele>120.80000305176</ele>
        <time>2021-10-15T13:38:14.000Z</time>
      </trkpt>
      <trkpt lat="48.16998" lon="-2.72463">
        <ele>120.19999694824</ele>
        <time>2021-10-15T13:38:15.000Z</time>
      </trkpt>
      <trkpt lat="48.16992" lon="-2.72462">
        <ele>119.80000305176</ele>
        <time>2021-10-15T13:38:16.000Z</time>
      </trkpt>
      <trkpt lat="48.16986" lon="-2.7246">
        <ele>119.59999847412</ele>
        <time>2021-10-15T13:38:17.000Z</time>
      </trkpt>
      <trkpt lat="48.16981" lon="-2.72458">
        <ele>119.19999694824</ele>
        <time>2021-10-15T13:38:18.000Z</time>
      </trkpt>
      <trkpt lat="48.16975" lon="-2.72457">
        <ele>118.80000305176</ele>
        <time>2021-10-15T13:38:19.000Z</time>
      </trkpt>
      <trkpt lat="48.16969" lon="-2.72455">
        <ele>118.40000152588</ele>
        <time>2021-10-15T13:38:20.000Z</time>
      </trkpt>
      <trkpt lat="48.16964" lon="-2.72454">
        <ele>118</ele>
        <time>2021-10-15T13:38:21.000Z</time>
      </trkpt>
      <trkpt lat="48.16959" lon="-2.72452">
        <ele>118</ele>
        <time>2021-10-15T13:38:22.000Z</time>
      </trkpt>
      <trkpt lat="48.1695" lon="-2.72451">
        <ele>118</ele>
        <time>2021-10-15T13:38:23.000Z</time>
      </trkpt>
      <trkpt lat="48.1695" lon="-2.72451">
        <ele>118</ele>
        <time>2021-10-15T13:38:24.000Z</time>
      </trkpt>
      <trkpt lat="48.16946" lon="-2.72452">
        <ele>118</ele>
        <time>2021-10-15T13:38:25.000Z</time>
      </trkpt>
      <trkpt lat="48.16942" lon="-2.72452">
        <ele>118</ele>
        <time>2021-10-15T13:38:26.000Z</time>
      </trkpt>
      <trkpt lat="48.16939" lon="-2.72453">
        <ele>118</ele>
        <time>2021-10-15T13:38:27.000Z</time>
      </trkpt>
      <trkpt lat="48.16937" lon="-2.72455">
        <ele>118</ele>
        <time>2021-10-15T13:38:28.000Z</time>
      </trkpt>
      <trkpt lat="48.16935" lon="-2.72456">
        <ele>118</ele>
        <time>2021-10-15T13:38:29.000Z</time>
      </trkpt>
      <trkpt lat="48.16933" lon="-2.72458">
        <ele>118</ele>
        <time>2021-10-15T13:38:30.000Z</time>
      </trkpt>
      <trkpt lat="48.16931" lon="-2.72462">
        <ele>118</ele>
        <time>2021-10-15T13:38:31.000Z</time>
      </trkpt>
      <trkpt lat="48.1693" lon="-2.72466">
        <ele>118</ele>
        <time>2021-10-15T13:38:32.000Z</time>
      </trkpt>
      <trkpt lat="48.16929" lon="-2.72471">
        <ele>118</ele>
        <time>2021-10-15T13:38:33.000Z</time>
      </trkpt>
      <trkpt lat="48.16929" lon="-2.72476">
        <ele>118</ele>
        <time>2021-10-15T13:38:34.000Z</time>
      </trkpt>
      <trkpt lat="48.16928" lon="-2.72481">
        <ele>117.80000305176</ele>
        <time>2021-10-15T13:38:35.000Z</time>
      </trkpt>
      <trkpt lat="48.16928" lon="-2.72486">
        <ele>117.80000305176</ele>
        <time>2021-10-15T13:38:36.000Z</time>
      </trkpt>
      <trkpt lat="48.16929" lon="-2.72492">
        <ele>117.80000305176</ele>
        <time>2021-10-15T13:38:37.000Z</time>
      </trkpt>
      <trkpt lat="48.16929" lon="-2.72497">
        <ele>117.80000305176</ele>
        <time>2021-10-15T13:38:38.000Z</time>
      </trkpt>
      <trkpt lat="48.1693" lon="-2.72503">
        <ele>117.80000305176</ele>
        <time>2021-10-15T13:38:39.000Z</time>
      </trkpt>
      <trkpt lat="48.1693" lon="-2.72509">
        <ele>117.80000305176</ele>
        <time>2021-10-15T13:38:40.000Z</time>
      </trkpt>
      <trkpt lat="48.1693" lon="-2.72516">
        <ele>118</ele>
        <time>2021-10-15T13:38:41.000Z</time>
      </trkpt>
      <trkpt lat="48.1693" lon="-2.72522">
        <ele>118.19999694824</ele>
        <time>2021-10-15T13:38:42.000Z</time>
      </trkpt>
      <trkpt lat="48.16931" lon="-2.72529">
        <ele>118.40000152588</ele>
        <time>2021-10-15T13:38:43.000Z</time>
      </trkpt>
      <trkpt lat="48.16931" lon="-2.72535">
        <ele>118.80000305176</ele>
        <time>2021-10-15T13:38:44.000Z</time>
      </trkpt>
      <trkpt lat="48.16931" lon="-2.72542">
        <ele>118.80000305176</ele>
        <time>2021-10-15T13:38:45.000Z</time>
      </trkpt>
      <trkpt lat="48.16932" lon="-2.72548">
        <ele>118.80000305176</ele>
        <time>2021-10-15T13:38:46.000Z</time>
      </trkpt>
      <trkpt lat="48.16932" lon="-2.72554">
        <ele>118.80000305176</ele>
        <time>2021-10-15T13:38:47.000Z</time>
      </trkpt>
      <trkpt lat="48.16933" lon="-2.7256">
        <ele>119</ele>
        <time>2021-10-15T13:38:48.000Z</time>
      </trkpt>
      <trkpt lat="48.16934" lon="-2.72572">
        <ele>119.59999847412</ele>
        <time>2021-10-15T13:38:49.000Z</time>
      </trkpt>
      <trkpt lat="48.16934" lon="-2.72572">
        <ele>119.59999847412</ele>
        <time>2021-10-15T13:38:50.000Z</time>
      </trkpt>
      <trkpt lat="48.16935" lon="-2.72582">
        <ele>120.40000152588</ele>
        <time>2021-10-15T13:38:51.000Z</time>
      </trkpt>
      <trkpt lat="48.16935" lon="-2.72582">
        <ele>120.40000152588</ele>
        <time>2021-10-15T13:38:52.000Z</time>
      </trkpt>
      <trkpt lat="48.16934" lon="-2.7259">
        <ele>121</ele>
        <time>2021-10-15T13:38:53.000Z</time>
      </trkpt>
      <trkpt lat="48.16934" lon="-2.7259">
        <ele>121</ele>
        <time>2021-10-15T13:38:54.000Z</time>
      </trkpt>
      <trkpt lat="48.16933" lon="-2.72593">
        <ele>121.19999694824</ele>
        <time>2021-10-15T13:38:55.000Z</time>
      </trkpt>
      <trkpt lat="48.16932" lon="-2.72594">
        <ele>121.40000152588</ele>
        <time>2021-10-15T13:38:56.000Z</time>
      </trkpt>
      <trkpt lat="48.16929" lon="-2.72596">
        <ele>121.40000152588</ele>
        <time>2021-10-15T13:38:57.000Z</time>
      </trkpt>
      <trkpt lat="48.16927" lon="-2.72596">
        <ele>121.40000152588</ele>
        <time>2021-10-15T13:38:58.000Z</time>
      </trkpt>
      <trkpt lat="48.16924" lon="-2.72594">
        <ele>121</ele>
        <time>2021-10-15T13:38:59.000Z</time>
      </trkpt>
      <trkpt lat="48.16921" lon="-2.72593">
        <ele>120.80000305176</ele>
        <time>2021-10-15T13:39:00.000Z</time>
      </trkpt>
      <trkpt lat="48.16917" lon="-2.72591">
        <ele>120.59999847412</ele>
        <time>2021-10-15T13:39:01.000Z</time>
      </trkpt>
      <trkpt lat="48.16909" lon="-2.72588">
        <ele>120</ele>
        <time>2021-10-15T13:39:02.000Z</time>
      </trkpt>
      <trkpt lat="48.16909" lon="-2.72588">
        <ele>120</ele>
        <time>2021-10-15T13:39:03.000Z</time>
      </trkpt>
      <trkpt lat="48.16904" lon="-2.72587">
        <ele>120</ele>
        <time>2021-10-15T13:39:04.000Z</time>
      </trkpt>
      <trkpt lat="48.169" lon="-2.72586">
        <ele>120</ele>
        <time>2021-10-15T13:39:05.000Z</time>
      </trkpt>
      <trkpt lat="48.16895" lon="-2.72584">
        <ele>120</ele>
        <time>2021-10-15T13:39:06.000Z</time>
      </trkpt>
      <trkpt lat="48.16891" lon="-2.72583">
        <ele>120.19999694824</ele>
        <time>2021-10-15T13:39:07.000Z</time>
      </trkpt>
      <trkpt lat="48.16886" lon="-2.72582">
        <ele>120.19999694824</ele>
        <time>2021-10-15T13:39:08.000Z</time>
      </trkpt>
      <trkpt lat="48.16882" lon="-2.7258">
        <ele>120</ele>
        <time>2021-10-15T13:39:09.000Z</time>
      </trkpt>
      <trkpt lat="48.16873" lon="-2.72578">
        <ele>119.80000305176</ele>
        <time>2021-10-15T13:39:10.000Z</time>
      </trkpt>
      <trkpt lat="48.16873" lon="-2.72578">
        <ele>119.80000305176</ele>
        <time>2021-10-15T13:39:11.000Z</time>
      </trkpt>
      <trkpt lat="48.16869" lon="-2.72578">
        <ele>119.80000305176</ele>
        <time>2021-10-15T13:39:12.000Z</time>
      </trkpt>
      <trkpt lat="48.16864" lon="-2.72578">
        <ele>119.80000305176</ele>
        <time>2021-10-15T13:39:13.000Z</time>
      </trkpt>
      <trkpt lat="48.1686" lon="-2.72577">
        <ele>119.80000305176</ele>
        <time>2021-10-15T13:39:14.000Z</time>
      </trkpt>
      <trkpt lat="48.16856" lon="-2.72577">
        <ele>120</ele>
        <time>2021-10-15T13:39:15.000Z</time>
      </trkpt>
      <trkpt lat="48.16851" lon="-2.72576">
        <ele>120</ele>
        <time>2021-10-15T13:39:16.000Z</time>
      </trkpt>
      <trkpt lat="48.16846" lon="-2.72576">
        <ele>119.80000305176</ele>
        <time>2021-10-15T13:39:17.000Z</time>
      </trkpt>
      <trkpt lat="48.16842" lon="-2.72577">
        <ele>119.59999847412</ele>
        <time>2021-10-15T13:39:18.000Z</time>
      </trkpt>
      <trkpt lat="48.16837" lon="-2.72577">
        <ele>119.59999847412</ele>
        <time>2021-10-15T13:39:19.000Z</time>
      </trkpt>
      <trkpt lat="48.16833" lon="-2.72578">
        <ele>119.40000152588</ele>
        <time>2021-10-15T13:39:20.000Z</time>
      </trkpt>
      <trkpt lat="48.16828" lon="-2.72579">
        <ele>119.40000152588</ele>
        <time>2021-10-15T13:39:21.000Z</time>
      </trkpt>
      <trkpt lat="48.16824" lon="-2.7258">
        <ele>119.40000152588</ele>
        <time>2021-10-15T13:39:22.000Z</time>
      </trkpt>
      <trkpt lat="48.1682" lon="-2.72582">
        <ele>119.19999694824</ele>
        <time>2021-10-15T13:39:23.000Z</time>
      </trkpt>
      <trkpt lat="48.16815" lon="-2.72584">
        <ele>119</ele>
        <time>2021-10-15T13:39:24.000Z</time>
      </trkpt>
      <trkpt lat="48.16811" lon="-2.72586">
        <ele>118.80000305176</ele>
        <time>2021-10-15T13:39:25.000Z</time>
      </trkpt>
      <trkpt lat="48.16806" lon="-2.72589">
        <ele>118.59999847412</ele>
        <time>2021-10-15T13:39:26.000Z</time>
      </trkpt>
      <trkpt lat="48.16801" lon="-2.72592">
        <ele>118.40000152588</ele>
        <time>2021-10-15T13:39:27.000Z</time>
      </trkpt>
      <trkpt lat="48.16796" lon="-2.72594">
        <ele>118.19999694824</ele>
        <time>2021-10-15T13:39:28.000Z</time>
      </trkpt>
      <trkpt lat="48.16786" lon="-2.72598">
        <ele>117.80000305176</ele>
        <time>2021-10-15T13:39:29.000Z</time>
      </trkpt>
      <trkpt lat="48.16786" lon="-2.72598">
        <ele>117.80000305176</ele>
        <time>2021-10-15T13:39:30.000Z</time>
      </trkpt>
      <trkpt lat="48.16781" lon="-2.726">
        <ele>117.59999847412</ele>
        <time>2021-10-15T13:39:31.000Z</time>
      </trkpt>
      <trkpt lat="48.16776" lon="-2.72602">
        <ele>117.40000152588</ele>
        <time>2021-10-15T13:39:32.000Z</time>
      </trkpt>
      <trkpt lat="48.1677" lon="-2.72603">
        <ele>117.19999694824</ele>
        <time>2021-10-15T13:39:33.000Z</time>
      </trkpt>
      <trkpt lat="48.16765" lon="-2.72605">
        <ele>117</ele>
        <time>2021-10-15T13:39:34.000Z</time>
      </trkpt>
      <trkpt lat="48.1676" lon="-2.72607">
        <ele>117</ele>
        <time>2021-10-15T13:39:35.000Z</time>
      </trkpt>
      <trkpt lat="48.16755" lon="-2.72609">
        <ele>116.80000305176</ele>
        <time>2021-10-15T13:39:36.000Z</time>
      </trkpt>
      <trkpt lat="48.1675" lon="-2.72611">
        <ele>116.80000305176</ele>
        <time>2021-10-15T13:39:37.000Z</time>
      </trkpt>
      <trkpt lat="48.16746" lon="-2.72613">
        <ele>117</ele>
        <time>2021-10-15T13:39:38.000Z</time>
      </trkpt>
      <trkpt lat="48.16742" lon="-2.72616">
        <ele>117</ele>
        <time>2021-10-15T13:39:39.000Z</time>
      </trkpt>
      <trkpt lat="48.16738" lon="-2.72619">
        <ele>117</ele>
        <time>2021-10-15T13:39:40.000Z</time>
      </trkpt>
      <trkpt lat="48.16734" lon="-2.72622">
        <ele>117.19999694824</ele>
        <time>2021-10-15T13:39:41.000Z</time>
      </trkpt>
      <trkpt lat="48.1673" lon="-2.72623">
        <ele>117.19999694824</ele>
        <time>2021-10-15T13:39:42.000Z</time>
      </trkpt>
      <trkpt lat="48.16726" lon="-2.72623">
        <ele>117.19999694824</ele>
        <time>2021-10-15T13:39:43.000Z</time>
      </trkpt>
      <trkpt lat="48.16722" lon="-2.72621">
        <ele>117.19999694824</ele>
        <time>2021-10-15T13:39:44.000Z</time>
      </trkpt>
      <trkpt lat="48.16718" lon="-2.72619">
        <ele>117</ele>
        <time>2021-10-15T13:39:45.000Z</time>
      </trkpt>
      <trkpt lat="48.16714" lon="-2.72616">
        <ele>117</ele>
        <time>2021-10-15T13:39:46.000Z</time>
      </trkpt>
      <trkpt lat="48.1671" lon="-2.72613">
        <ele>116.80000305176</ele>
        <time>2021-10-15T13:39:47.000Z</time>
      </trkpt>
      <trkpt lat="48.16707" lon="-2.72609">
        <ele>116.40000152588</ele>
        <time>2021-10-15T13:39:48.000Z</time>
      </trkpt>
      <trkpt lat="48.16703" lon="-2.72605">
        <ele>116.19999694824</ele>
        <time>2021-10-15T13:39:49.000Z</time>
      </trkpt>
      <trkpt lat="48.16698" lon="-2.72601">
        <ele>115.80000305176</ele>
        <time>2021-10-15T13:39:50.000Z</time>
      </trkpt>
      <trkpt lat="48.16694" lon="-2.72597">
        <ele>115.59999847412</ele>
        <time>2021-10-15T13:39:51.000Z</time>
      </trkpt>
      <trkpt lat="48.1669" lon="-2.72593">
        <ele>115.40000152588</ele>
        <time>2021-10-15T13:39:52.000Z</time>
      </trkpt>
      <trkpt lat="48.16686" lon="-2.7259">
        <ele>115</ele>
        <time>2021-10-15T13:39:53.000Z</time>
      </trkpt>
      <trkpt lat="48.16683" lon="-2.72586">
        <ele>115</ele>
        <time>2021-10-15T13:39:54.000Z</time>
      </trkpt>
      <trkpt lat="48.16679" lon="-2.72583">
        <ele>115</ele>
        <time>2021-10-15T13:39:55.000Z</time>
      </trkpt>
      <trkpt lat="48.16676" lon="-2.72579">
        <ele>115</ele>
        <time>2021-10-15T13:39:56.000Z</time>
      </trkpt>
      <trkpt lat="48.16672" lon="-2.72576">
        <ele>115</ele>
        <time>2021-10-15T13:39:57.000Z</time>
      </trkpt>
      <trkpt lat="48.16669" lon="-2.72574">
        <ele>115</ele>
        <time>2021-10-15T13:39:58.000Z</time>
      </trkpt>
      <trkpt lat="48.16666" lon="-2.72573">
        <ele>115</ele>
        <time>2021-10-15T13:39:59.000Z</time>
      </trkpt>
      <trkpt lat="48.16663" lon="-2.72573">
        <ele>115</ele>
        <time>2021-10-15T13:40:00.000Z</time>
      </trkpt>
      <trkpt lat="48.1666" lon="-2.72575">
        <ele>115</ele>
        <time>2021-10-15T13:40:01.000Z</time>
      </trkpt>
      <trkpt lat="48.16658" lon="-2.72584">
        <ele>115</ele>
        <time>2021-10-15T13:40:02.000Z</time>
      </trkpt>
      <trkpt lat="48.16658" lon="-2.72584">
        <ele>115</ele>
        <time>2021-10-15T13:40:03.000Z</time>
      </trkpt>
      <trkpt lat="48.16657" lon="-2.72589">
        <ele>115</ele>
        <time>2021-10-15T13:40:04.000Z</time>
      </trkpt>
      <trkpt lat="48.16657" lon="-2.72595">
        <ele>115</ele>
        <time>2021-10-15T13:40:05.000Z</time>
      </trkpt>
      <trkpt lat="48.16656" lon="-2.726">
        <ele>115</ele>
        <time>2021-10-15T13:40:06.000Z</time>
      </trkpt>
      <trkpt lat="48.16656" lon="-2.72605">
        <ele>115</ele>
        <time>2021-10-15T13:40:07.000Z</time>
      </trkpt>
      <trkpt lat="48.16655" lon="-2.72611">
        <ele>115</ele>
        <time>2021-10-15T13:40:08.000Z</time>
      </trkpt>
      <trkpt lat="48.16654" lon="-2.72616">
        <ele>115</ele>
        <time>2021-10-15T13:40:09.000Z</time>
      </trkpt>
      <trkpt lat="48.16653" lon="-2.72622">
        <ele>115</ele>
        <time>2021-10-15T13:40:10.000Z</time>
      </trkpt>
      <trkpt lat="48.16653" lon="-2.72627">
        <ele>115</ele>
        <time>2021-10-15T13:40:11.000Z</time>
      </trkpt>
      <trkpt lat="48.16652" lon="-2.72633">
        <ele>115</ele>
        <time>2021-10-15T13:40:12.000Z</time>
      </trkpt>
      <trkpt lat="48.16651" lon="-2.72639">
        <ele>115</ele>
        <time>2021-10-15T13:40:13.000Z</time>
      </trkpt>
      <trkpt lat="48.1665" lon="-2.72651">
        <ele>115</ele>
        <time>2021-10-15T13:40:14.000Z</time>
      </trkpt>
      <trkpt lat="48.1665" lon="-2.72651">
        <ele>115</ele>
        <time>2021-10-15T13:40:15.000Z</time>
      </trkpt>
      <trkpt lat="48.16649" lon="-2.72657">
        <ele>115.19999694824</ele>
        <time>2021-10-15T13:40:16.000Z</time>
      </trkpt>
      <trkpt lat="48.16648" lon="-2.72663">
        <ele>115.19999694824</ele>
        <time>2021-10-15T13:40:17.000Z</time>
      </trkpt>
      <trkpt lat="48.16647" lon="-2.72669">
        <ele>115.40000152588</ele>
        <time>2021-10-15T13:40:18.000Z</time>
      </trkpt>
      <trkpt lat="48.16646" lon="-2.72675">
        <ele>115.80000305176</ele>
        <time>2021-10-15T13:40:19.000Z</time>
      </trkpt>
      <trkpt lat="48.16646" lon="-2.72681">
        <ele>116.19999694824</ele>
        <time>2021-10-15T13:40:20.000Z</time>
      </trkpt>
      <trkpt lat="48.16645" lon="-2.72687">
        <ele>116.40000152588</ele>
        <time>2021-10-15T13:40:21.000Z</time>
      </trkpt>
      <trkpt lat="48.16645" lon="-2.72693">
        <ele>116.80000305176</ele>
        <time>2021-10-15T13:40:22.000Z</time>
      </trkpt>
      <trkpt lat="48.16644" lon="-2.72699">
        <ele>117</ele>
        <time>2021-10-15T13:40:23.000Z</time>
      </trkpt>
      <trkpt lat="48.16643" lon="-2.72705">
        <ele>117.19999694824</ele>
        <time>2021-10-15T13:40:24.000Z</time>
      </trkpt>
      <trkpt lat="48.16643" lon="-2.72711">
        <ele>117.40000152588</ele>
        <time>2021-10-15T13:40:25.000Z</time>
      </trkpt>
      <trkpt lat="48.16642" lon="-2.72716">
        <ele>117.59999847412</ele>
        <time>2021-10-15T13:40:26.000Z</time>
      </trkpt>
      <trkpt lat="48.16642" lon="-2.72722">
        <ele>117.80000305176</ele>
        <time>2021-10-15T13:40:27.000Z</time>
      </trkpt>
      <trkpt lat="48.16641" lon="-2.72728">
        <ele>118</ele>
        <time>2021-10-15T13:40:28.000Z</time>
      </trkpt>
      <trkpt lat="48.16641" lon="-2.72734">
        <ele>118.19999694824</ele>
        <time>2021-10-15T13:40:29.000Z</time>
      </trkpt>
      <trkpt lat="48.1664" lon="-2.72739">
        <ele>118.40000152588</ele>
        <time>2021-10-15T13:40:30.000Z</time>
      </trkpt>
      <trkpt lat="48.1664" lon="-2.72745">
        <ele>118.59999847412</ele>
        <time>2021-10-15T13:40:31.000Z</time>
      </trkpt>
      <trkpt lat="48.16638" lon="-2.72749">
        <ele>118.80000305176</ele>
        <time>2021-10-15T13:40:32.000Z</time>
      </trkpt>
      <trkpt lat="48.16635" lon="-2.72751">
        <ele>118.80000305176</ele>
        <time>2021-10-15T13:40:33.000Z</time>
      </trkpt>
      <trkpt lat="48.16632" lon="-2.72752">
        <ele>118.80000305176</ele>
        <time>2021-10-15T13:40:34.000Z</time>
      </trkpt>
      <trkpt lat="48.16629" lon="-2.72752">
        <ele>118.80000305176</ele>
        <time>2021-10-15T13:40:35.000Z</time>
      </trkpt>
      <trkpt lat="48.16623" lon="-2.72751">
        <ele>119.19999694824</ele>
        <time>2021-10-15T13:40:36.000Z</time>
      </trkpt>
      <trkpt lat="48.16623" lon="-2.72751">
        <ele>119.19999694824</ele>
        <time>2021-10-15T13:40:37.000Z</time>
      </trkpt>
      <trkpt lat="48.1662" lon="-2.7275">
        <ele>119.40000152588</ele>
        <time>2021-10-15T13:40:38.000Z</time>
      </trkpt>
      <trkpt lat="48.16617" lon="-2.7275">
        <ele>119.59999847412</ele>
        <time>2021-10-15T13:40:39.000Z</time>
      </trkpt>
      <trkpt lat="48.16614" lon="-2.72749">
        <ele>119.80000305176</ele>
        <time>2021-10-15T13:40:40.000Z</time>
      </trkpt>
      <trkpt lat="48.16611" lon="-2.72749">
        <ele>120</ele>
        <time>2021-10-15T13:40:41.000Z</time>
      </trkpt>
      <trkpt lat="48.16609" lon="-2.72749">
        <ele>120.19999694824</ele>
        <time>2021-10-15T13:40:42.000Z</time>
      </trkpt>
      <trkpt lat="48.16606" lon="-2.72748">
        <ele>120.40000152588</ele>
        <time>2021-10-15T13:40:43.000Z</time>
      </trkpt>
      <trkpt lat="48.16603" lon="-2.72748">
        <ele>120.59999847412</ele>
        <time>2021-10-15T13:40:44.000Z</time>
      </trkpt>
      <trkpt lat="48.16601" lon="-2.72747">
        <ele>120.80000305176</ele>
        <time>2021-10-15T13:40:45.000Z</time>
      </trkpt>
      <trkpt lat="48.16598" lon="-2.72747">
        <ele>121</ele>
        <time>2021-10-15T13:40:46.000Z</time>
      </trkpt>
      <trkpt lat="48.16596" lon="-2.72747">
        <ele>121.19999694824</ele>
        <time>2021-10-15T13:40:47.000Z</time>
      </trkpt>
      <trkpt lat="48.16593" lon="-2.72746">
        <ele>121.59999847412</ele>
        <time>2021-10-15T13:40:48.000Z</time>
      </trkpt>
      <trkpt lat="48.16591" lon="-2.72746">
        <ele>121.80000305176</ele>
        <time>2021-10-15T13:40:49.000Z</time>
      </trkpt>
      <trkpt lat="48.16589" lon="-2.72745">
        <ele>122</ele>
        <time>2021-10-15T13:40:50.000Z</time>
      </trkpt>
      <trkpt lat="48.16587" lon="-2.72745">
        <ele>122.19999694824</ele>
        <time>2021-10-15T13:40:51.000Z</time>
      </trkpt>
      <trkpt lat="48.16584" lon="-2.72744">
        <ele>122.40000152588</ele>
        <time>2021-10-15T13:40:52.000Z</time>
      </trkpt>
      <trkpt lat="48.16579" lon="-2.72744">
        <ele>123</ele>
        <time>2021-10-15T13:40:53.000Z</time>
      </trkpt>
      <trkpt lat="48.16579" lon="-2.72744">
        <ele>123</ele>
        <time>2021-10-15T13:40:54.000Z</time>
      </trkpt>
      <trkpt lat="48.16578" lon="-2.72745">
        <ele>123.19999694824</ele>
        <time>2021-10-15T13:40:55.000Z</time>
      </trkpt>
      <trkpt lat="48.16576" lon="-2.72747">
        <ele>123.40000152588</ele>
        <time>2021-10-15T13:40:56.000Z</time>
      </trkpt>
      <trkpt lat="48.16575" lon="-2.72749">
        <ele>123.59999847412</ele>
        <time>2021-10-15T13:40:57.000Z</time>
      </trkpt>
      <trkpt lat="48.16574" lon="-2.72752">
        <ele>123.80000305176</ele>
        <time>2021-10-15T13:40:58.000Z</time>
      </trkpt>
      <trkpt lat="48.16573" lon="-2.72755">
        <ele>124</ele>
        <time>2021-10-15T13:40:59.000Z</time>
      </trkpt>
      <trkpt lat="48.16572" lon="-2.72758">
        <ele>124.19999694824</ele>
        <time>2021-10-15T13:41:00.000Z</time>
      </trkpt>
      <trkpt lat="48.16571" lon="-2.72761">
        <ele>124.19999694824</ele>
        <time>2021-10-15T13:41:01.000Z</time>
      </trkpt>
      <trkpt lat="48.16569" lon="-2.72769">
        <ele>124.59999847412</ele>
        <time>2021-10-15T13:41:02.000Z</time>
      </trkpt>
      <trkpt lat="48.16569" lon="-2.72769">
        <ele>124.59999847412</ele>
        <time>2021-10-15T13:41:03.000Z</time>
      </trkpt>
      <trkpt lat="48.16568" lon="-2.72773">
        <ele>124.80000305176</ele>
        <time>2021-10-15T13:41:04.000Z</time>
      </trkpt>
      <trkpt lat="48.16567" lon="-2.72777">
        <ele>125</ele>
        <time>2021-10-15T13:41:05.000Z</time>
      </trkpt>
      <trkpt lat="48.16567" lon="-2.72782">
        <ele>125.19999694824</ele>
        <time>2021-10-15T13:41:06.000Z</time>
      </trkpt>
      <trkpt lat="48.16566" lon="-2.72787">
        <ele>125.40000152588</ele>
        <time>2021-10-15T13:41:07.000Z</time>
      </trkpt>
      <trkpt lat="48.16564" lon="-2.72793">
        <ele>125.40000152588</ele>
        <time>2021-10-15T13:41:08.000Z</time>
      </trkpt>
      <trkpt lat="48.16563" lon="-2.72799">
        <ele>125.19999694824</ele>
        <time>2021-10-15T13:41:09.000Z</time>
      </trkpt>
      <trkpt lat="48.16561" lon="-2.72805">
        <ele>125.19999694824</ele>
        <time>2021-10-15T13:41:10.000Z</time>
      </trkpt>
      <trkpt lat="48.16559" lon="-2.7281">
        <ele>125.19999694824</ele>
        <time>2021-10-15T13:41:11.000Z</time>
      </trkpt>
      <trkpt lat="48.16558" lon="-2.72816">
        <ele>125</ele>
        <time>2021-10-15T13:41:12.000Z</time>
      </trkpt>
      <trkpt lat="48.16556" lon="-2.72822">
        <ele>125</ele>
        <time>2021-10-15T13:41:13.000Z</time>
      </trkpt>
      <trkpt lat="48.16555" lon="-2.72827">
        <ele>124.80000305176</ele>
        <time>2021-10-15T13:41:14.000Z</time>
      </trkpt>
      <trkpt lat="48.16554" lon="-2.72833">
        <ele>124.59999847412</ele>
        <time>2021-10-15T13:41:15.000Z</time>
      </trkpt>
      <trkpt lat="48.16553" lon="-2.72839">
        <ele>124.40000152588</ele>
        <time>2021-10-15T13:41:16.000Z</time>
      </trkpt>
      <trkpt lat="48.16551" lon="-2.72844">
        <ele>124.19999694824</ele>
        <time>2021-10-15T13:41:17.000Z</time>
      </trkpt>
      <trkpt lat="48.1655" lon="-2.7285">
        <ele>123.80000305176</ele>
        <time>2021-10-15T13:41:18.000Z</time>
      </trkpt>
      <trkpt lat="48.16549" lon="-2.72856">
        <ele>123.59999847412</ele>
        <time>2021-10-15T13:41:19.000Z</time>
      </trkpt>
      <trkpt lat="48.16548" lon="-2.72862">
        <ele>123.19999694824</ele>
        <time>2021-10-15T13:41:20.000Z</time>
      </trkpt>
      <trkpt lat="48.16546" lon="-2.72867">
        <ele>123</ele>
        <time>2021-10-15T13:41:21.000Z</time>
      </trkpt>
      <trkpt lat="48.16543" lon="-2.72877">
        <ele>122.59999847412</ele>
        <time>2021-10-15T13:41:22.000Z</time>
      </trkpt>
      <trkpt lat="48.16543" lon="-2.72877">
        <ele>122.59999847412</ele>
        <time>2021-10-15T13:41:23.000Z</time>
      </trkpt>
      <trkpt lat="48.16542" lon="-2.72882">
        <ele>122.40000152588</ele>
        <time>2021-10-15T13:41:24.000Z</time>
      </trkpt>
      <trkpt lat="48.1654" lon="-2.72888">
        <ele>122.19999694824</ele>
        <time>2021-10-15T13:41:25.000Z</time>
      </trkpt>
      <trkpt lat="48.16539" lon="-2.72894">
        <ele>121.80000305176</ele>
        <time>2021-10-15T13:41:26.000Z</time>
      </trkpt>
      <trkpt lat="48.16538" lon="-2.729">
        <ele>121.59999847412</ele>
        <time>2021-10-15T13:41:27.000Z</time>
      </trkpt>
      <trkpt lat="48.16536" lon="-2.72907">
        <ele>121.19999694824</ele>
        <time>2021-10-15T13:41:28.000Z</time>
      </trkpt>
      <trkpt lat="48.16534" lon="-2.72914">
        <ele>121</ele>
        <time>2021-10-15T13:41:29.000Z</time>
      </trkpt>
      <trkpt lat="48.16533" lon="-2.72921">
        <ele>120.59999847412</ele>
        <time>2021-10-15T13:41:30.000Z</time>
      </trkpt>
      <trkpt lat="48.16531" lon="-2.72928">
        <ele>120.59999847412</ele>
        <time>2021-10-15T13:41:31.000Z</time>
      </trkpt>
      <trkpt lat="48.16529" lon="-2.72935">
        <ele>120.40000152588</ele>
        <time>2021-10-15T13:41:32.000Z</time>
      </trkpt>
      <trkpt lat="48.16527" lon="-2.72942">
        <ele>120.40000152588</ele>
        <time>2021-10-15T13:41:33.000Z</time>
      </trkpt>
      <trkpt lat="48.16525" lon="-2.7295">
        <ele>120.59999847412</ele>
        <time>2021-10-15T13:41:34.000Z</time>
      </trkpt>
      <trkpt lat="48.16524" lon="-2.72957">
        <ele>120.59999847412</ele>
        <time>2021-10-15T13:41:35.000Z</time>
      </trkpt>
      <trkpt lat="48.16522" lon="-2.72965">
        <ele>120.80000305176</ele>
        <time>2021-10-15T13:41:36.000Z</time>
      </trkpt>
      <trkpt lat="48.16521" lon="-2.72972">
        <ele>120.80000305176</ele>
        <time>2021-10-15T13:41:37.000Z</time>
      </trkpt>
      <trkpt lat="48.16519" lon="-2.7298">
        <ele>121</ele>
        <time>2021-10-15T13:41:38.000Z</time>
      </trkpt>
      <trkpt lat="48.16517" lon="-2.72987">
        <ele>121.40000152588</ele>
        <time>2021-10-15T13:41:39.000Z</time>
      </trkpt>
      <trkpt lat="48.16514" lon="-2.73003">
        <ele>122</ele>
        <time>2021-10-15T13:41:40.000Z</time>
      </trkpt>
      <trkpt lat="48.16514" lon="-2.73003">
        <ele>122</ele>
        <time>2021-10-15T13:41:41.000Z</time>
      </trkpt>
      <trkpt lat="48.16512" lon="-2.7301">
        <ele>122.40000152588</ele>
        <time>2021-10-15T13:41:42.000Z</time>
      </trkpt>
      <trkpt lat="48.16511" lon="-2.73018">
        <ele>122.80000305176</ele>
        <time>2021-10-15T13:41:43.000Z</time>
      </trkpt>
      <trkpt lat="48.1651" lon="-2.73026">
        <ele>123</ele>
        <time>2021-10-15T13:41:44.000Z</time>
      </trkpt>
      <trkpt lat="48.16508" lon="-2.73034">
        <ele>123.40000152588</ele>
        <time>2021-10-15T13:41:45.000Z</time>
      </trkpt>
      <trkpt lat="48.16507" lon="-2.73041">
        <ele>123.40000152588</ele>
        <time>2021-10-15T13:41:46.000Z</time>
      </trkpt>
      <trkpt lat="48.16506" lon="-2.73048">
        <ele>123.40000152588</ele>
        <time>2021-10-15T13:41:47.000Z</time>
      </trkpt>
      <trkpt lat="48.16505" lon="-2.73056">
        <ele>123.40000152588</ele>
        <time>2021-10-15T13:41:48.000Z</time>
      </trkpt>
      <trkpt lat="48.16504" lon="-2.73063">
        <ele>123.59999847412</ele>
        <time>2021-10-15T13:41:49.000Z</time>
      </trkpt>
      <trkpt lat="48.16504" lon="-2.7307">
        <ele>123.80000305176</ele>
        <time>2021-10-15T13:41:50.000Z</time>
      </trkpt>
      <trkpt lat="48.16503" lon="-2.73077">
        <ele>124</ele>
        <time>2021-10-15T13:41:51.000Z</time>
      </trkpt>
      <trkpt lat="48.16503" lon="-2.73084">
        <ele>124.19999694824</ele>
        <time>2021-10-15T13:41:52.000Z</time>
      </trkpt>
      <trkpt lat="48.16502" lon="-2.73091">
        <ele>124.19999694824</ele>
        <time>2021-10-15T13:41:53.000Z</time>
      </trkpt>
      <trkpt lat="48.16502" lon="-2.73097">
        <ele>124.40000152588</ele>
        <time>2021-10-15T13:41:54.000Z</time>
      </trkpt>
      <trkpt lat="48.16502" lon="-2.73104">
        <ele>124.80000305176</ele>
        <time>2021-10-15T13:41:55.000Z</time>
      </trkpt>
      <trkpt lat="48.16501" lon="-2.7311">
        <ele>124.80000305176</ele>
        <time>2021-10-15T13:41:56.000Z</time>
      </trkpt>
      <trkpt lat="48.16501" lon="-2.73117">
        <ele>124.80000305176</ele>
        <time>2021-10-15T13:41:57.000Z</time>
      </trkpt>
      <trkpt lat="48.16501" lon="-2.73123">
        <ele>124.80000305176</ele>
        <time>2021-10-15T13:41:58.000Z</time>
      </trkpt>
      <trkpt lat="48.16501" lon="-2.73129">
        <ele>124.80000305176</ele>
        <time>2021-10-15T13:41:59.000Z</time>
      </trkpt>
      <trkpt lat="48.16501" lon="-2.73136">
        <ele>124.80000305176</ele>
        <time>2021-10-15T13:42:00.000Z</time>
      </trkpt>
      <trkpt lat="48.16502" lon="-2.73149">
        <ele>125.19999694824</ele>
        <time>2021-10-15T13:42:01.000Z</time>
      </trkpt>
      <trkpt lat="48.16502" lon="-2.73149">
        <ele>125.19999694824</ele>
        <time>2021-10-15T13:42:02.000Z</time>
      </trkpt>
      <trkpt lat="48.16503" lon="-2.73156">
        <ele>125.19999694824</ele>
        <time>2021-10-15T13:42:03.000Z</time>
      </trkpt>
      <trkpt lat="48.16503" lon="-2.73162">
        <ele>125.19999694824</ele>
        <time>2021-10-15T13:42:04.000Z</time>
      </trkpt>
      <trkpt lat="48.16503" lon="-2.73168">
        <ele>125.19999694824</ele>
        <time>2021-10-15T13:42:05.000Z</time>
      </trkpt>
      <trkpt lat="48.16503" lon="-2.73174">
        <ele>125.19999694824</ele>
        <time>2021-10-15T13:42:06.000Z</time>
      </trkpt>
      <trkpt lat="48.16504" lon="-2.73179">
        <ele>125.19999694824</ele>
        <time>2021-10-15T13:42:07.000Z</time>
      </trkpt>
      <trkpt lat="48.16504" lon="-2.73185">
        <ele>125.40000152588</ele>
        <time>2021-10-15T13:42:08.000Z</time>
      </trkpt>
      <trkpt lat="48.16505" lon="-2.73191">
        <ele>125.59999847412</ele>
        <time>2021-10-15T13:42:09.000Z</time>
      </trkpt>
      <trkpt lat="48.16506" lon="-2.73196">
        <ele>125.80000305176</ele>
        <time>2021-10-15T13:42:10.000Z</time>
      </trkpt>
      <trkpt lat="48.16507" lon="-2.73202">
        <ele>125.80000305176</ele>
        <time>2021-10-15T13:42:11.000Z</time>
      </trkpt>
      <trkpt lat="48.16508" lon="-2.73207">
        <ele>125.80000305176</ele>
        <time>2021-10-15T13:42:12.000Z</time>
      </trkpt>
      <trkpt lat="48.1651" lon="-2.73211">
        <ele>125.59999847412</ele>
        <time>2021-10-15T13:42:13.000Z</time>
      </trkpt>
      <trkpt lat="48.16511" lon="-2.73216">
        <ele>125.80000305176</ele>
        <time>2021-10-15T13:42:14.000Z</time>
      </trkpt>
      <trkpt lat="48.16512" lon="-2.73221">
        <ele>126</ele>
        <time>2021-10-15T13:42:15.000Z</time>
      </trkpt>
      <trkpt lat="48.16513" lon="-2.73225">
        <ele>126</ele>
        <time>2021-10-15T13:42:16.000Z</time>
      </trkpt>
      <trkpt lat="48.16514" lon="-2.73229">
        <ele>126.19999694824</ele>
        <time>2021-10-15T13:42:17.000Z</time>
      </trkpt>
      <trkpt lat="48.16515" lon="-2.73233">
        <ele>126.19999694824</ele>
        <time>2021-10-15T13:42:18.000Z</time>
      </trkpt>
      <trkpt lat="48.16515" lon="-2.73237">
        <ele>126.40000152588</ele>
        <time>2021-10-15T13:42:19.000Z</time>
      </trkpt>
      <trkpt lat="48.16514" lon="-2.73242">
        <ele>126.40000152588</ele>
        <time>2021-10-15T13:42:20.000Z</time>
      </trkpt>
      <trkpt lat="48.16513" lon="-2.73245">
        <ele>126.59999847412</ele>
        <time>2021-10-15T13:42:21.000Z</time>
      </trkpt>
      <trkpt lat="48.16512" lon="-2.73249">
        <ele>126.80000305176</ele>
        <time>2021-10-15T13:42:22.000Z</time>
      </trkpt>
      <trkpt lat="48.16511" lon="-2.73254">
        <ele>127</ele>
        <time>2021-10-15T13:42:23.000Z</time>
      </trkpt>
      <trkpt lat="48.16511" lon="-2.73254">
        <ele>127</ele>
        <time>2021-10-15T13:42:24.000Z</time>
      </trkpt>
      <trkpt lat="48.1651" lon="-2.73257">
        <ele>127</ele>
        <time>2021-10-15T13:42:25.000Z</time>
      </trkpt>
      <trkpt lat="48.1651" lon="-2.73258">
        <ele>127</ele>
        <time>2021-10-15T13:42:26.000Z</time>
      </trkpt>
      <trkpt lat="48.1651" lon="-2.73258">
        <ele>127</ele>
        <time>2021-10-15T13:42:27.000Z</time>
      </trkpt>
      <trkpt lat="48.1651" lon="-2.73258">
        <ele>127</ele>
        <time>2021-10-15T13:42:28.000Z</time>
      </trkpt>
      <trkpt lat="48.1651" lon="-2.73259">
        <ele>127</ele>
        <time>2021-10-15T13:42:29.000Z</time>
      </trkpt>
      <trkpt lat="48.1651" lon="-2.73259">
        <ele>127</ele>
        <time>2021-10-15T13:42:30.000Z</time>
      </trkpt>
      <trkpt lat="48.1651" lon="-2.73259">
        <ele>127</ele>
        <time>2021-10-15T13:42:31.000Z</time>
      </trkpt>
      <trkpt lat="48.1651" lon="-2.73259">
        <ele>127</ele>
        <time>2021-10-15T13:42:32.000Z</time>
      </trkpt>
      <trkpt lat="48.1651" lon="-2.73259">
        <ele>127</ele>
        <time>2021-10-15T13:42:33.000Z</time>
      </trkpt>
      <trkpt lat="48.1651" lon="-2.73259">
        <ele>127</ele>
        <time>2021-10-15T13:42:34.000Z</time>
      </trkpt>
      <trkpt lat="48.1651" lon="-2.73259">
        <ele>127</ele>
        <time>2021-10-15T13:42:35.000Z</time>
      </trkpt>
      <trkpt lat="48.1651" lon="-2.73259">
        <ele>127</ele>
        <time>2021-10-15T13:42:36.000Z</time>
      </trkpt>
      <trkpt lat="48.1651" lon="-2.73259">
        <ele>127</ele>
        <time>2021-10-15T13:42:37.000Z</time>
      </trkpt>
      <trkpt lat="48.1651" lon="-2.73259">
        <ele>127</ele>
        <time>2021-10-15T13:42:38.000Z</time>
      </trkpt>
      <trkpt lat="48.1651" lon="-2.73259">
        <ele>127</ele>
        <time>2021-10-15T13:42:39.000Z</time>
      </trkpt>
      <trkpt lat="48.1651" lon="-2.73259">
        <ele>127</ele>
        <time>2021-10-15T13:42:40.000Z</time>
      </trkpt>
      <trkpt lat="48.1651" lon="-2.73259">
        <ele>127</ele>
        <time>2021-10-15T13:42:41.000Z</time>
      </trkpt>
      <trkpt lat="48.1651" lon="-2.7326">
        <ele>127</ele>
        <time>2021-10-15T13:42:42.000Z</time>
      </trkpt>
      <trkpt lat="48.16508" lon="-2.73265">
        <ele>127</ele>
        <time>2021-10-15T13:42:43.000Z</time>
      </trkpt>
      <trkpt lat="48.16508" lon="-2.73265">
        <ele>127</ele>
        <time>2021-10-15T13:42:44.000Z</time>
      </trkpt>
      <trkpt lat="48.16506" lon="-2.73269">
        <ele>127</ele>
        <time>2021-10-15T13:42:45.000Z</time>
      </trkpt>
      <trkpt lat="48.16505" lon="-2.73274">
        <ele>127.19999694824</ele>
        <time>2021-10-15T13:42:46.000Z</time>
      </trkpt>
      <trkpt lat="48.16505" lon="-2.73279">
        <ele>127.40000152588</ele>
        <time>2021-10-15T13:42:47.000Z</time>
      </trkpt>
      <trkpt lat="48.16506" lon="-2.73284">
        <ele>127.59999847412</ele>
        <time>2021-10-15T13:42:48.000Z</time>
      </trkpt>
      <trkpt lat="48.16507" lon="-2.73288">
        <ele>127.80000305176</ele>
        <time>2021-10-15T13:42:49.000Z</time>
      </trkpt>
      <trkpt lat="48.16508" lon="-2.73291">
        <ele>127.80000305176</ele>
        <time>2021-10-15T13:42:50.000Z</time>
      </trkpt>
      <trkpt lat="48.1651" lon="-2.73294">
        <ele>128</ele>
        <time>2021-10-15T13:42:51.000Z</time>
      </trkpt>
      <trkpt lat="48.16511" lon="-2.73296">
        <ele>128.19999694824</ele>
        <time>2021-10-15T13:42:52.000Z</time>
      </trkpt>
      <trkpt lat="48.16512" lon="-2.73301">
        <ele>128.39999389648</ele>
        <time>2021-10-15T13:42:53.000Z</time>
      </trkpt>
      <trkpt lat="48.16512" lon="-2.73301">
        <ele>128.39999389648</ele>
        <time>2021-10-15T13:42:54.000Z</time>
      </trkpt>
      <trkpt lat="48.16512" lon="-2.73304">
        <ele>128.60000610352</ele>
        <time>2021-10-15T13:42:55.000Z</time>
      </trkpt>
      <trkpt lat="48.16513" lon="-2.73307">
        <ele>128.60000610352</ele>
        <time>2021-10-15T13:42:56.000Z</time>
      </trkpt>
      <trkpt lat="48.16513" lon="-2.7331">
        <ele>128.80000305176</ele>
        <time>2021-10-15T13:42:57.000Z</time>
      </trkpt>
      <trkpt lat="48.16514" lon="-2.73312">
        <ele>128.80000305176</ele>
        <time>2021-10-15T13:42:58.000Z</time>
      </trkpt>
      <trkpt lat="48.16515" lon="-2.73315">
        <ele>129</ele>
        <time>2021-10-15T13:42:59.000Z</time>
      </trkpt>
      <trkpt lat="48.16515" lon="-2.73317">
        <ele>129.19999694824</ele>
        <time>2021-10-15T13:43:00.000Z</time>
      </trkpt>
      <trkpt lat="48.16515" lon="-2.7332">
        <ele>129.39999389648</ele>
        <time>2021-10-15T13:43:01.000Z</time>
      </trkpt>
      <trkpt lat="48.16516" lon="-2.73325">
        <ele>129.80000305176</ele>
        <time>2021-10-15T13:43:02.000Z</time>
      </trkpt>
      <trkpt lat="48.16517" lon="-2.73328">
        <ele>130</ele>
        <time>2021-10-15T13:43:03.000Z</time>
      </trkpt>
      <trkpt lat="48.16517" lon="-2.73328">
        <ele>130</ele>
        <time>2021-10-15T13:43:04.000Z</time>
      </trkpt>
      <trkpt lat="48.16517" lon="-2.73335">
        <ele>130.60000610352</ele>
        <time>2021-10-15T13:43:05.000Z</time>
      </trkpt>
      <trkpt lat="48.16517" lon="-2.73335">
        <ele>130.60000610352</ele>
        <time>2021-10-15T13:43:06.000Z</time>
      </trkpt>
      <trkpt lat="48.16519" lon="-2.73343">
        <ele>131.19999694824</ele>
        <time>2021-10-15T13:43:07.000Z</time>
      </trkpt>
      <trkpt lat="48.16519" lon="-2.73343">
        <ele>131.19999694824</ele>
        <time>2021-10-15T13:43:08.000Z</time>
      </trkpt>
      <trkpt lat="48.16519" lon="-2.73347">
        <ele>131.39999389648</ele>
        <time>2021-10-15T13:43:09.000Z</time>
      </trkpt>
      <trkpt lat="48.1652" lon="-2.73351">
        <ele>131.80000305176</ele>
        <time>2021-10-15T13:43:10.000Z</time>
      </trkpt>
      <trkpt lat="48.1652" lon="-2.73355">
        <ele>132</ele>
        <time>2021-10-15T13:43:11.000Z</time>
      </trkpt>
      <trkpt lat="48.16521" lon="-2.73359">
        <ele>132.39999389648</ele>
        <time>2021-10-15T13:43:12.000Z</time>
      </trkpt>
      <trkpt lat="48.16522" lon="-2.73364">
        <ele>132.80000305176</ele>
        <time>2021-10-15T13:43:13.000Z</time>
      </trkpt>
      <trkpt lat="48.16522" lon="-2.73368">
        <ele>133</ele>
        <time>2021-10-15T13:43:14.000Z</time>
      </trkpt>
      <trkpt lat="48.16523" lon="-2.73373">
        <ele>133.39999389648</ele>
        <time>2021-10-15T13:43:15.000Z</time>
      </trkpt>
      <trkpt lat="48.16523" lon="-2.73377">
        <ele>133.60000610352</ele>
        <time>2021-10-15T13:43:16.000Z</time>
      </trkpt>
      <trkpt lat="48.16524" lon="-2.73381">
        <ele>134</ele>
        <time>2021-10-15T13:43:17.000Z</time>
      </trkpt>
      <trkpt lat="48.16524" lon="-2.73387">
        <ele>134.39999389648</ele>
        <time>2021-10-15T13:43:18.000Z</time>
      </trkpt>
      <trkpt lat="48.16525" lon="-2.73391">
        <ele>134.60000610352</ele>
        <time>2021-10-15T13:43:19.000Z</time>
      </trkpt>
      <trkpt lat="48.16525" lon="-2.73395">
        <ele>134.80000305176</ele>
        <time>2021-10-15T13:43:20.000Z</time>
      </trkpt>
      <trkpt lat="48.16525" lon="-2.73399">
        <ele>134.80000305176</ele>
        <time>2021-10-15T13:43:21.000Z</time>
      </trkpt>
      <trkpt lat="48.16526" lon="-2.73403">
        <ele>135</ele>
        <time>2021-10-15T13:43:22.000Z</time>
      </trkpt>
      <trkpt lat="48.16527" lon="-2.73412">
        <ele>135.19999694824</ele>
        <time>2021-10-15T13:43:23.000Z</time>
      </trkpt>
      <trkpt lat="48.16527" lon="-2.73412">
        <ele>135.19999694824</ele>
        <time>2021-10-15T13:43:24.000Z</time>
      </trkpt>
      <trkpt lat="48.16528" lon="-2.73417">
        <ele>135.39999389648</ele>
        <time>2021-10-15T13:43:25.000Z</time>
      </trkpt>
      <trkpt lat="48.16529" lon="-2.73421">
        <ele>135.60000610352</ele>
        <time>2021-10-15T13:43:26.000Z</time>
      </trkpt>
      <trkpt lat="48.16531" lon="-2.73431">
        <ele>135.60000610352</ele>
        <time>2021-10-15T13:43:27.000Z</time>
      </trkpt>
      <trkpt lat="48.16531" lon="-2.73431">
        <ele>135.60000610352</ele>
        <time>2021-10-15T13:43:28.000Z</time>
      </trkpt>
      <trkpt lat="48.16533" lon="-2.73436">
        <ele>135.39999389648</ele>
        <time>2021-10-15T13:43:29.000Z</time>
      </trkpt>
      <trkpt lat="48.16535" lon="-2.73441">
        <ele>135.39999389648</ele>
        <time>2021-10-15T13:43:30.000Z</time>
      </trkpt>
      <trkpt lat="48.16536" lon="-2.73445">
        <ele>135.39999389648</ele>
        <time>2021-10-15T13:43:31.000Z</time>
      </trkpt>
      <trkpt lat="48.16537" lon="-2.73449">
        <ele>135.39999389648</ele>
        <time>2021-10-15T13:43:32.000Z</time>
      </trkpt>
      <trkpt lat="48.16537" lon="-2.73454">
        <ele>135.39999389648</ele>
        <time>2021-10-15T13:43:33.000Z</time>
      </trkpt>
      <trkpt lat="48.16538" lon="-2.73458">
        <ele>135.39999389648</ele>
        <time>2021-10-15T13:43:34.000Z</time>
      </trkpt>
      <trkpt lat="48.16538" lon="-2.73463">
        <ele>135.39999389648</ele>
        <time>2021-10-15T13:43:35.000Z</time>
      </trkpt>
      <trkpt lat="48.16539" lon="-2.73467">
        <ele>135.60000610352</ele>
        <time>2021-10-15T13:43:36.000Z</time>
      </trkpt>
      <trkpt lat="48.1654" lon="-2.73472">
        <ele>135.80000305176</ele>
        <time>2021-10-15T13:43:37.000Z</time>
      </trkpt>
      <trkpt lat="48.1654" lon="-2.73476">
        <ele>136</ele>
        <time>2021-10-15T13:43:38.000Z</time>
      </trkpt>
      <trkpt lat="48.16541" lon="-2.73481">
        <ele>136</ele>
        <time>2021-10-15T13:43:39.000Z</time>
      </trkpt>
      <trkpt lat="48.16541" lon="-2.73485">
        <ele>136.19999694824</ele>
        <time>2021-10-15T13:43:40.000Z</time>
      </trkpt>
      <trkpt lat="48.16542" lon="-2.73489">
        <ele>136.39999389648</ele>
        <time>2021-10-15T13:43:41.000Z</time>
      </trkpt>
      <trkpt lat="48.16543" lon="-2.73493">
        <ele>136.60000610352</ele>
        <time>2021-10-15T13:43:42.000Z</time>
      </trkpt>
      <trkpt lat="48.16544" lon="-2.73498">
        <ele>136.60000610352</ele>
        <time>2021-10-15T13:43:43.000Z</time>
      </trkpt>
      <trkpt lat="48.16545" lon="-2.73503">
        <ele>136.80000305176</ele>
        <time>2021-10-15T13:43:44.000Z</time>
      </trkpt>
      <trkpt lat="48.16545" lon="-2.73507">
        <ele>137</ele>
        <time>2021-10-15T13:43:45.000Z</time>
      </trkpt>
      <trkpt lat="48.16547" lon="-2.73511">
        <ele>137.60000610352</ele>
        <time>2021-10-15T13:43:46.000Z</time>
      </trkpt>
      <trkpt lat="48.16548" lon="-2.7352">
        <ele>138.39999389648</ele>
        <time>2021-10-15T13:43:47.000Z</time>
      </trkpt>
      <trkpt lat="48.16548" lon="-2.7352">
        <ele>138.39999389648</ele>
        <time>2021-10-15T13:43:48.000Z</time>
      </trkpt>
      <trkpt lat="48.16549" lon="-2.73525">
        <ele>139</ele>
        <time>2021-10-15T13:43:49.000Z</time>
      </trkpt>
      <trkpt lat="48.16551" lon="-2.73529">
        <ele>139.39999389648</ele>
        <time>2021-10-15T13:43:50.000Z</time>
      </trkpt>
      <trkpt lat="48.16553" lon="-2.73534">
        <ele>140</ele>
        <time>2021-10-15T13:43:51.000Z</time>
      </trkpt>
      <trkpt lat="48.16554" lon="-2.73538">
        <ele>140.19999694824</ele>
        <time>2021-10-15T13:43:52.000Z</time>
      </trkpt>
      <trkpt lat="48.16556" lon="-2.73542">
        <ele>140.60000610352</ele>
        <time>2021-10-15T13:43:53.000Z</time>
      </trkpt>
      <trkpt lat="48.16557" lon="-2.73552">
        <ele>141.19999694824</ele>
        <time>2021-10-15T13:43:54.000Z</time>
      </trkpt>
      <trkpt lat="48.16557" lon="-2.73552">
        <ele>141.19999694824</ele>
        <time>2021-10-15T13:43:55.000Z</time>
      </trkpt>
      <trkpt lat="48.16559" lon="-2.73556">
        <ele>141.39999389648</ele>
        <time>2021-10-15T13:43:56.000Z</time>
      </trkpt>
      <trkpt lat="48.1656" lon="-2.7356">
        <ele>141.39999389648</ele>
        <time>2021-10-15T13:43:57.000Z</time>
      </trkpt>
      <trkpt lat="48.16562" lon="-2.73565">
        <ele>141.39999389648</ele>
        <time>2021-10-15T13:43:58.000Z</time>
      </trkpt>
      <trkpt lat="48.16564" lon="-2.73569">
        <ele>141.19999694824</ele>
        <time>2021-10-15T13:43:59.000Z</time>
      </trkpt>
      <trkpt lat="48.16565" lon="-2.73574">
        <ele>141</ele>
        <time>2021-10-15T13:44:00.000Z</time>
      </trkpt>
      <trkpt lat="48.16567" lon="-2.7358">
        <ele>141</ele>
        <time>2021-10-15T13:44:01.000Z</time>
      </trkpt>
      <trkpt lat="48.16568" lon="-2.73588">
        <ele>141</ele>
        <time>2021-10-15T13:44:02.000Z</time>
      </trkpt>
      <trkpt lat="48.16568" lon="-2.73588">
        <ele>141</ele>
        <time>2021-10-15T13:44:03.000Z</time>
      </trkpt>
      <trkpt lat="48.16569" lon="-2.73592">
        <ele>141</ele>
        <time>2021-10-15T13:44:04.000Z</time>
      </trkpt>
      <trkpt lat="48.16569" lon="-2.73597">
        <ele>140.80000305176</ele>
        <time>2021-10-15T13:44:05.000Z</time>
      </trkpt>
      <trkpt lat="48.1657" lon="-2.73602">
        <ele>140.39999389648</ele>
        <time>2021-10-15T13:44:06.000Z</time>
      </trkpt>
      <trkpt lat="48.1657" lon="-2.73607">
        <ele>140</ele>
        <time>2021-10-15T13:44:07.000Z</time>
      </trkpt>
      <trkpt lat="48.1657" lon="-2.73612">
        <ele>139.60000610352</ele>
        <time>2021-10-15T13:44:08.000Z</time>
      </trkpt>
      <trkpt lat="48.16571" lon="-2.73617">
        <ele>139.19999694824</ele>
        <time>2021-10-15T13:44:09.000Z</time>
      </trkpt>
      <trkpt lat="48.16571" lon="-2.73623">
        <ele>139</ele>
        <time>2021-10-15T13:44:10.000Z</time>
      </trkpt>
      <trkpt lat="48.16572" lon="-2.73629">
        <ele>139</ele>
        <time>2021-10-15T13:44:11.000Z</time>
      </trkpt>
      <trkpt lat="48.16572" lon="-2.73635">
        <ele>139</ele>
        <time>2021-10-15T13:44:12.000Z</time>
      </trkpt>
      <trkpt lat="48.16573" lon="-2.7364">
        <ele>139</ele>
        <time>2021-10-15T13:44:13.000Z</time>
      </trkpt>
      <trkpt lat="48.16573" lon="-2.73646">
        <ele>139</ele>
        <time>2021-10-15T13:44:14.000Z</time>
      </trkpt>
      <trkpt lat="48.16574" lon="-2.7365">
        <ele>138.80000305176</ele>
        <time>2021-10-15T13:44:15.000Z</time>
      </trkpt>
      <trkpt lat="48.16575" lon="-2.73655">
        <ele>138.39999389648</ele>
        <time>2021-10-15T13:44:16.000Z</time>
      </trkpt>
      <trkpt lat="48.16576" lon="-2.7366">
        <ele>138.19999694824</ele>
        <time>2021-10-15T13:44:17.000Z</time>
      </trkpt>
      <trkpt lat="48.16577" lon="-2.73664">
        <ele>137.80000305176</ele>
        <time>2021-10-15T13:44:18.000Z</time>
      </trkpt>
      <trkpt lat="48.16578" lon="-2.73669">
        <ele>137.39999389648</ele>
        <time>2021-10-15T13:44:19.000Z</time>
      </trkpt>
      <trkpt lat="48.16579" lon="-2.73673">
        <ele>137</ele>
        <time>2021-10-15T13:44:20.000Z</time>
      </trkpt>
      <trkpt lat="48.1658" lon="-2.73678">
        <ele>136.60000610352</ele>
        <time>2021-10-15T13:44:21.000Z</time>
      </trkpt>
      <trkpt lat="48.16582" lon="-2.73683">
        <ele>136</ele>
        <time>2021-10-15T13:44:22.000Z</time>
      </trkpt>
      <trkpt lat="48.16583" lon="-2.73687">
        <ele>135.39999389648</ele>
        <time>2021-10-15T13:44:23.000Z</time>
      </trkpt>
      <trkpt lat="48.16584" lon="-2.73692">
        <ele>134.80000305176</ele>
        <time>2021-10-15T13:44:24.000Z</time>
      </trkpt>
      <trkpt lat="48.16585" lon="-2.73697">
        <ele>134.60000610352</ele>
        <time>2021-10-15T13:44:25.000Z</time>
      </trkpt>
      <trkpt lat="48.16587" lon="-2.73701">
        <ele>134</ele>
        <time>2021-10-15T13:44:26.000Z</time>
      </trkpt>
      <trkpt lat="48.16589" lon="-2.73705">
        <ele>133.60000610352</ele>
        <time>2021-10-15T13:44:27.000Z</time>
      </trkpt>
      <trkpt lat="48.16593" lon="-2.73708">
        <ele>132.80000305176</ele>
        <time>2021-10-15T13:44:28.000Z</time>
      </trkpt>
      <trkpt lat="48.16593" lon="-2.73708">
        <ele>132.80000305176</ele>
        <time>2021-10-15T13:44:29.000Z</time>
      </trkpt>
      <trkpt lat="48.16597" lon="-2.73709">
        <ele>132.19999694824</ele>
        <time>2021-10-15T13:44:30.000Z</time>
      </trkpt>
      <trkpt lat="48.16597" lon="-2.73709">
        <ele>132.19999694824</ele>
        <time>2021-10-15T13:44:31.000Z</time>
      </trkpt>
      <trkpt lat="48.16599" lon="-2.73708">
        <ele>132</ele>
        <time>2021-10-15T13:44:32.000Z</time>
      </trkpt>
      <trkpt lat="48.166" lon="-2.73706">
        <ele>132</ele>
        <time>2021-10-15T13:44:33.000Z</time>
      </trkpt>
      <trkpt lat="48.16603" lon="-2.73705">
        <ele>131.80000305176</ele>
        <time>2021-10-15T13:44:34.000Z</time>
      </trkpt>
      <trkpt lat="48.16605" lon="-2.73702">
        <ele>131.60000610352</ele>
        <time>2021-10-15T13:44:35.000Z</time>
      </trkpt>
      <trkpt lat="48.16608" lon="-2.73699">
        <ele>131.19999694824</ele>
        <time>2021-10-15T13:44:36.000Z</time>
      </trkpt>
      <trkpt lat="48.16611" lon="-2.73696">
        <ele>130.80000305176</ele>
        <time>2021-10-15T13:44:37.000Z</time>
      </trkpt>
      <trkpt lat="48.16614" lon="-2.73692">
        <ele>130.60000610352</ele>
        <time>2021-10-15T13:44:38.000Z</time>
      </trkpt>
      <trkpt lat="48.16618" lon="-2.73689">
        <ele>130.19999694824</ele>
        <time>2021-10-15T13:44:39.000Z</time>
      </trkpt>
      <trkpt lat="48.16622" lon="-2.73685">
        <ele>129.80000305176</ele>
        <time>2021-10-15T13:44:40.000Z</time>
      </trkpt>
      <trkpt lat="48.16626" lon="-2.7368">
        <ele>129.19999694824</ele>
        <time>2021-10-15T13:44:41.000Z</time>
      </trkpt>
      <trkpt lat="48.1663" lon="-2.73676">
        <ele>128.80000305176</ele>
        <time>2021-10-15T13:44:42.000Z</time>
      </trkpt>
      <trkpt lat="48.16635" lon="-2.73671">
        <ele>128.60000610352</ele>
        <time>2021-10-15T13:44:43.000Z</time>
      </trkpt>
      <trkpt lat="48.1664" lon="-2.73666">
        <ele>128.19999694824</ele>
        <time>2021-10-15T13:44:44.000Z</time>
      </trkpt>
      <trkpt lat="48.16646" lon="-2.7366">
        <ele>127.80000305176</ele>
        <time>2021-10-15T13:44:45.000Z</time>
      </trkpt>
      <trkpt lat="48.16652" lon="-2.73655">
        <ele>127.40000152588</ele>
        <time>2021-10-15T13:44:46.000Z</time>
      </trkpt>
      <trkpt lat="48.16657" lon="-2.73649">
        <ele>127</ele>
        <time>2021-10-15T13:44:47.000Z</time>
      </trkpt>
      <trkpt lat="48.16663" lon="-2.73642">
        <ele>126.80000305176</ele>
        <time>2021-10-15T13:44:48.000Z</time>
      </trkpt>
      <trkpt lat="48.16669" lon="-2.73636">
        <ele>126.59999847412</ele>
        <time>2021-10-15T13:44:49.000Z</time>
      </trkpt>
      <trkpt lat="48.16674" lon="-2.73629">
        <ele>126.40000152588</ele>
        <time>2021-10-15T13:44:50.000Z</time>
      </trkpt>
      <trkpt lat="48.16685" lon="-2.73615">
        <ele>126</ele>
        <time>2021-10-15T13:44:51.000Z</time>
      </trkpt>
      <trkpt lat="48.16685" lon="-2.73615">
        <ele>126</ele>
        <time>2021-10-15T13:44:52.000Z</time>
      </trkpt>
      <trkpt lat="48.16694" lon="-2.73603">
        <ele>126.80000305176</ele>
        <time>2021-10-15T13:44:53.000Z</time>
      </trkpt>
      <trkpt lat="48.16694" lon="-2.73603">
        <ele>126.80000305176</ele>
        <time>2021-10-15T13:44:54.000Z</time>
      </trkpt>
      <trkpt lat="48.16697" lon="-2.73595">
        <ele>127.19999694824</ele>
        <time>2021-10-15T13:44:55.000Z</time>
      </trkpt>
      <trkpt lat="48.16699" lon="-2.73587">
        <ele>127.40000152588</ele>
        <time>2021-10-15T13:44:56.000Z</time>
      </trkpt>
      <trkpt lat="48.16698" lon="-2.7358">
        <ele>127</ele>
        <time>2021-10-15T13:44:57.000Z</time>
      </trkpt>
      <trkpt lat="48.16696" lon="-2.73573">
        <ele>126.80000305176</ele>
        <time>2021-10-15T13:44:58.000Z</time>
      </trkpt>
      <trkpt lat="48.16694" lon="-2.73567">
        <ele>126.40000152588</ele>
        <time>2021-10-15T13:44:59.000Z</time>
      </trkpt>
      <trkpt lat="48.16692" lon="-2.73562">
        <ele>126.19999694824</ele>
        <time>2021-10-15T13:45:00.000Z</time>
      </trkpt>
      <trkpt lat="48.1669" lon="-2.73556">
        <ele>126</ele>
        <time>2021-10-15T13:45:01.000Z</time>
      </trkpt>
      <trkpt lat="48.16689" lon="-2.73546">
        <ele>126</ele>
        <time>2021-10-15T13:45:02.000Z</time>
      </trkpt>
      <trkpt lat="48.16689" lon="-2.73546">
        <ele>126</ele>
        <time>2021-10-15T13:45:03.000Z</time>
      </trkpt>
      <trkpt lat="48.16689" lon="-2.73541">
        <ele>126</ele>
        <time>2021-10-15T13:45:04.000Z</time>
      </trkpt>
      <trkpt lat="48.1669" lon="-2.73538">
        <ele>126</ele>
        <time>2021-10-15T13:45:05.000Z</time>
      </trkpt>
      <trkpt lat="48.16692" lon="-2.73534">
        <ele>126</ele>
        <time>2021-10-15T13:45:06.000Z</time>
      </trkpt>
      <trkpt lat="48.16694" lon="-2.73532">
        <ele>126</ele>
        <time>2021-10-15T13:45:07.000Z</time>
      </trkpt>
      <trkpt lat="48.16696" lon="-2.73529">
        <ele>125.80000305176</ele>
        <time>2021-10-15T13:45:08.000Z</time>
      </trkpt>
      <trkpt lat="48.16699" lon="-2.73528">
        <ele>125.80000305176</ele>
        <time>2021-10-15T13:45:09.000Z</time>
      </trkpt>
      <trkpt lat="48.16702" lon="-2.73527">
        <ele>125.80000305176</ele>
        <time>2021-10-15T13:45:10.000Z</time>
      </trkpt>
      <trkpt lat="48.16705" lon="-2.73526">
        <ele>125.59999847412</ele>
        <time>2021-10-15T13:45:11.000Z</time>
      </trkpt>
      <trkpt lat="48.16709" lon="-2.73524">
        <ele>125.59999847412</ele>
        <time>2021-10-15T13:45:12.000Z</time>
      </trkpt>
      <trkpt lat="48.16716" lon="-2.73521">
        <ele>125.40000152588</ele>
        <time>2021-10-15T13:45:13.000Z</time>
      </trkpt>
      <trkpt lat="48.16716" lon="-2.73521">
        <ele>125.40000152588</ele>
        <time>2021-10-15T13:45:14.000Z</time>
      </trkpt>
      <trkpt lat="48.16719" lon="-2.73519">
        <ele>125.19999694824</ele>
        <time>2021-10-15T13:45:15.000Z</time>
      </trkpt>
      <trkpt lat="48.16722" lon="-2.73517">
        <ele>125</ele>
        <time>2021-10-15T13:45:16.000Z</time>
      </trkpt>
      <trkpt lat="48.16726" lon="-2.73513">
        <ele>124.80000305176</ele>
        <time>2021-10-15T13:45:17.000Z</time>
      </trkpt>
      <trkpt lat="48.16729" lon="-2.7351">
        <ele>124.59999847412</ele>
        <time>2021-10-15T13:45:18.000Z</time>
      </trkpt>
      <trkpt lat="48.16733" lon="-2.73507">
        <ele>124.40000152588</ele>
        <time>2021-10-15T13:45:19.000Z</time>
      </trkpt>
      <trkpt lat="48.16736" lon="-2.73503">
        <ele>124.19999694824</ele>
        <time>2021-10-15T13:45:20.000Z</time>
      </trkpt>
      <trkpt lat="48.16739" lon="-2.73498">
        <ele>124</ele>
        <time>2021-10-15T13:45:21.000Z</time>
      </trkpt>
      <trkpt lat="48.16742" lon="-2.73494">
        <ele>124</ele>
        <time>2021-10-15T13:45:22.000Z</time>
      </trkpt>
      <trkpt lat="48.16745" lon="-2.7349">
        <ele>124</ele>
        <time>2021-10-15T13:45:23.000Z</time>
      </trkpt>
      <trkpt lat="48.16751" lon="-2.73481">
        <ele>124</ele>
        <time>2021-10-15T13:45:24.000Z</time>
      </trkpt>
      <trkpt lat="48.16751" lon="-2.73481">
        <ele>124</ele>
        <time>2021-10-15T13:45:25.000Z</time>
      </trkpt>
      <trkpt lat="48.16754" lon="-2.73476">
        <ele>124</ele>
        <time>2021-10-15T13:45:26.000Z</time>
      </trkpt>
      <trkpt lat="48.16757" lon="-2.73472">
        <ele>123.80000305176</ele>
        <time>2021-10-15T13:45:27.000Z</time>
      </trkpt>
      <trkpt lat="48.16759" lon="-2.73469">
        <ele>123.59999847412</ele>
        <time>2021-10-15T13:45:28.000Z</time>
      </trkpt>
      <trkpt lat="48.16762" lon="-2.73466">
        <ele>123.59999847412</ele>
        <time>2021-10-15T13:45:29.000Z</time>
      </trkpt>
      <trkpt lat="48.16764" lon="-2.73463">
        <ele>123.40000152588</ele>
        <time>2021-10-15T13:45:30.000Z</time>
      </trkpt>
      <trkpt lat="48.16766" lon="-2.7346">
        <ele>123.40000152588</ele>
        <time>2021-10-15T13:45:31.000Z</time>
      </trkpt>
      <trkpt lat="48.16769" lon="-2.73457">
        <ele>123.19999694824</ele>
        <time>2021-10-15T13:45:32.000Z</time>
      </trkpt>
      <trkpt lat="48.16771" lon="-2.73453">
        <ele>123</ele>
        <time>2021-10-15T13:45:33.000Z</time>
      </trkpt>
      <trkpt lat="48.16775" lon="-2.73446">
        <ele>122.80000305176</ele>
        <time>2021-10-15T13:45:34.000Z</time>
      </trkpt>
      <trkpt lat="48.16775" lon="-2.73446">
        <ele>122.80000305176</ele>
        <time>2021-10-15T13:45:35.000Z</time>
      </trkpt>
      <trkpt lat="48.16777" lon="-2.73443">
        <ele>122.80000305176</ele>
        <time>2021-10-15T13:45:36.000Z</time>
      </trkpt>
      <trkpt lat="48.16779" lon="-2.7344">
        <ele>122.59999847412</ele>
        <time>2021-10-15T13:45:37.000Z</time>
      </trkpt>
      <trkpt lat="48.16782" lon="-2.73437">
        <ele>122.40000152588</ele>
        <time>2021-10-15T13:45:38.000Z</time>
      </trkpt>
      <trkpt lat="48.16784" lon="-2.73434">
        <ele>122.40000152588</ele>
        <time>2021-10-15T13:45:39.000Z</time>
      </trkpt>
      <trkpt lat="48.16787" lon="-2.73432">
        <ele>122.40000152588</ele>
        <time>2021-10-15T13:45:40.000Z</time>
      </trkpt>
      <trkpt lat="48.1679" lon="-2.73431">
        <ele>122.19999694824</ele>
        <time>2021-10-15T13:45:41.000Z</time>
      </trkpt>
      <trkpt lat="48.16793" lon="-2.7343">
        <ele>122.19999694824</ele>
        <time>2021-10-15T13:45:42.000Z</time>
      </trkpt>
      <trkpt lat="48.16796" lon="-2.7343">
        <ele>122</ele>
        <time>2021-10-15T13:45:43.000Z</time>
      </trkpt>
      <trkpt lat="48.16799" lon="-2.73431">
        <ele>122</ele>
        <time>2021-10-15T13:45:44.000Z</time>
      </trkpt>
      <trkpt lat="48.16802" lon="-2.73433">
        <ele>122</ele>
        <time>2021-10-15T13:45:45.000Z</time>
      </trkpt>
      <trkpt lat="48.16804" lon="-2.73436">
        <ele>122</ele>
        <time>2021-10-15T13:45:46.000Z</time>
      </trkpt>
      <trkpt lat="48.16807" lon="-2.73439">
        <ele>122</ele>
        <time>2021-10-15T13:45:47.000Z</time>
      </trkpt>
      <trkpt lat="48.16809" lon="-2.73442">
        <ele>122</ele>
        <time>2021-10-15T13:45:48.000Z</time>
      </trkpt>
      <trkpt lat="48.1681" lon="-2.73445">
        <ele>122</ele>
        <time>2021-10-15T13:45:49.000Z</time>
      </trkpt>
      <trkpt lat="48.1681" lon="-2.73448">
        <ele>122</ele>
        <time>2021-10-15T13:45:50.000Z</time>
      </trkpt>
      <trkpt lat="48.1681" lon="-2.73451">
        <ele>122</ele>
        <time>2021-10-15T13:45:51.000Z</time>
      </trkpt>
      <trkpt lat="48.16811" lon="-2.73453">
        <ele>122</ele>
        <time>2021-10-15T13:45:52.000Z</time>
      </trkpt>
      <trkpt lat="48.16812" lon="-2.73455">
        <ele>122.19999694824</ele>
        <time>2021-10-15T13:45:53.000Z</time>
      </trkpt>
      <trkpt lat="48.16813" lon="-2.73457">
        <ele>122.19999694824</ele>
        <time>2021-10-15T13:45:54.000Z</time>
      </trkpt>
      <trkpt lat="48.16815" lon="-2.7346">
        <ele>122.40000152588</ele>
        <time>2021-10-15T13:45:55.000Z</time>
      </trkpt>
      <trkpt lat="48.16817" lon="-2.73462">
        <ele>122.40000152588</ele>
        <time>2021-10-15T13:45:56.000Z</time>
      </trkpt>
      <trkpt lat="48.16819" lon="-2.73464">
        <ele>122.40000152588</ele>
        <time>2021-10-15T13:45:57.000Z</time>
      </trkpt>
      <trkpt lat="48.16821" lon="-2.73467">
        <ele>122.59999847412</ele>
        <time>2021-10-15T13:45:58.000Z</time>
      </trkpt>
      <trkpt lat="48.16824" lon="-2.7347">
        <ele>122.59999847412</ele>
        <time>2021-10-15T13:45:59.000Z</time>
      </trkpt>
      <trkpt lat="48.16826" lon="-2.73473">
        <ele>122.80000305176</ele>
        <time>2021-10-15T13:46:00.000Z</time>
      </trkpt>
      <trkpt lat="48.16829" lon="-2.73477">
        <ele>123</ele>
        <time>2021-10-15T13:46:01.000Z</time>
      </trkpt>
      <trkpt lat="48.16831" lon="-2.7348">
        <ele>123</ele>
        <time>2021-10-15T13:46:02.000Z</time>
      </trkpt>
      <trkpt lat="48.16833" lon="-2.73484">
        <ele>123</ele>
        <time>2021-10-15T13:46:03.000Z</time>
      </trkpt>
      <trkpt lat="48.16835" lon="-2.73488">
        <ele>123</ele>
        <time>2021-10-15T13:46:04.000Z</time>
      </trkpt>
      <trkpt lat="48.16837" lon="-2.73492">
        <ele>123</ele>
        <time>2021-10-15T13:46:05.000Z</time>
      </trkpt>
      <trkpt lat="48.16839" lon="-2.73496">
        <ele>123</ele>
        <time>2021-10-15T13:46:06.000Z</time>
      </trkpt>
      <trkpt lat="48.16841" lon="-2.735">
        <ele>123</ele>
        <time>2021-10-15T13:46:07.000Z</time>
      </trkpt>
      <trkpt lat="48.16844" lon="-2.73503">
        <ele>123</ele>
        <time>2021-10-15T13:46:08.000Z</time>
      </trkpt>
      <trkpt lat="48.16846" lon="-2.73507">
        <ele>123</ele>
        <time>2021-10-15T13:46:09.000Z</time>
      </trkpt>
      <trkpt lat="48.16848" lon="-2.7351">
        <ele>123</ele>
        <time>2021-10-15T13:46:10.000Z</time>
      </trkpt>
      <trkpt lat="48.1685" lon="-2.73514">
        <ele>122.80000305176</ele>
        <time>2021-10-15T13:46:11.000Z</time>
      </trkpt>
      <trkpt lat="48.1685" lon="-2.73519">
        <ele>122.59999847412</ele>
        <time>2021-10-15T13:46:12.000Z</time>
      </trkpt>
      <trkpt lat="48.16851" lon="-2.73522">
        <ele>122.40000152588</ele>
        <time>2021-10-15T13:46:13.000Z</time>
      </trkpt>
      <trkpt lat="48.16852" lon="-2.73525">
        <ele>122.40000152588</ele>
        <time>2021-10-15T13:46:14.000Z</time>
      </trkpt>
      <trkpt lat="48.16853" lon="-2.73528">
        <ele>122.19999694824</ele>
        <time>2021-10-15T13:46:15.000Z</time>
      </trkpt>
      <trkpt lat="48.16854" lon="-2.7353">
        <ele>122.19999694824</ele>
        <time>2021-10-15T13:46:16.000Z</time>
      </trkpt>
      <trkpt lat="48.16854" lon="-2.73532">
        <ele>122</ele>
        <time>2021-10-15T13:46:17.000Z</time>
      </trkpt>
      <trkpt lat="48.16854" lon="-2.73533">
        <ele>122</ele>
        <time>2021-10-15T13:46:18.000Z</time>
      </trkpt>
      <trkpt lat="48.16854" lon="-2.73534">
        <ele>122</ele>
        <time>2021-10-15T13:46:19.000Z</time>
      </trkpt>
      <trkpt lat="48.16853" lon="-2.73535">
        <ele>122</ele>
        <time>2021-10-15T13:46:20.000Z</time>
      </trkpt>
      <trkpt lat="48.16853" lon="-2.73535">
        <ele>122</ele>
        <time>2021-10-15T13:46:21.000Z</time>
      </trkpt>
      <trkpt lat="48.16853" lon="-2.73535">
        <ele>122</ele>
        <time>2021-10-15T13:46:22.000Z</time>
      </trkpt>
      <trkpt lat="48.16853" lon="-2.73535">
        <ele>122</ele>
        <time>2021-10-15T13:46:23.000Z</time>
      </trkpt>
      <trkpt lat="48.16853" lon="-2.73535">
        <ele>122</ele>
        <time>2021-10-15T13:46:24.000Z</time>
      </trkpt>
      <trkpt lat="48.16853" lon="-2.73535">
        <ele>122</ele>
        <time>2021-10-15T13:46:25.000Z</time>
      </trkpt>
      <trkpt lat="48.16853" lon="-2.73535">
        <ele>122</ele>
        <time>2021-10-15T13:46:26.000Z</time>
      </trkpt>
      <trkpt lat="48.16852" lon="-2.73536">
        <ele>122</ele>
        <time>2021-10-15T13:46:27.000Z</time>
      </trkpt>
      <trkpt lat="48.16852" lon="-2.73536">
        <ele>122</ele>
        <time>2021-10-15T13:46:28.000Z</time>
      </trkpt>
      <trkpt lat="48.16852" lon="-2.73536">
        <ele>122</ele>
        <time>2021-10-15T13:46:29.000Z</time>
      </trkpt>
      <trkpt lat="48.16852" lon="-2.73536">
        <ele>122</ele>
        <time>2021-10-15T13:46:30.000Z</time>
      </trkpt>
      <trkpt lat="48.16852" lon="-2.73536">
        <ele>122</ele>
        <time>2021-10-15T13:46:31.000Z</time>
      </trkpt>
      <trkpt lat="48.16852" lon="-2.73536">
        <ele>122</ele>
        <time>2021-10-15T13:46:32.000Z</time>
      </trkpt>
      <trkpt lat="48.16852" lon="-2.73536">
        <ele>122</ele>
        <time>2021-10-15T13:46:33.000Z</time>
      </trkpt>
      <trkpt lat="48.16852" lon="-2.73536">
        <ele>122</ele>
        <time>2021-10-15T13:46:34.000Z</time>
      </trkpt>
      <trkpt lat="48.16853" lon="-2.73537">
        <ele>122.19999694824</ele>
        <time>2021-10-15T13:46:35.000Z</time>
      </trkpt>
      <trkpt lat="48.16852" lon="-2.73539">
        <ele>122.19999694824</ele>
        <time>2021-10-15T13:46:36.000Z</time>
      </trkpt>
      <trkpt lat="48.16852" lon="-2.73542">
        <ele>122.19999694824</ele>
        <time>2021-10-15T13:46:37.000Z</time>
      </trkpt>
      <trkpt lat="48.16849" lon="-2.7355">
        <ele>122.40000152588</ele>
        <time>2021-10-15T13:46:38.000Z</time>
      </trkpt>
      <trkpt lat="48.16849" lon="-2.7355">
        <ele>122.40000152588</ele>
        <time>2021-10-15T13:46:39.000Z</time>
      </trkpt>
      <trkpt lat="48.16847" lon="-2.73554">
        <ele>122.59999847412</ele>
        <time>2021-10-15T13:46:40.000Z</time>
      </trkpt>
      <trkpt lat="48.16844" lon="-2.73557">
        <ele>122.59999847412</ele>
        <time>2021-10-15T13:46:41.000Z</time>
      </trkpt>
      <trkpt lat="48.16841" lon="-2.7356">
        <ele>122.59999847412</ele>
        <time>2021-10-15T13:46:42.000Z</time>
      </trkpt>
      <trkpt lat="48.16838" lon="-2.73562">
        <ele>122.40000152588</ele>
        <time>2021-10-15T13:46:43.000Z</time>
      </trkpt>
      <trkpt lat="48.16835" lon="-2.73565">
        <ele>122.40000152588</ele>
        <time>2021-10-15T13:46:44.000Z</time>
      </trkpt>
      <trkpt lat="48.16832" lon="-2.73568">
        <ele>122.19999694824</ele>
        <time>2021-10-15T13:46:45.000Z</time>
      </trkpt>
      <trkpt lat="48.16829" lon="-2.73571">
        <ele>122.19999694824</ele>
        <time>2021-10-15T13:46:46.000Z</time>
      </trkpt>
      <trkpt lat="48.16826" lon="-2.73575">
        <ele>122</ele>
        <time>2021-10-15T13:46:47.000Z</time>
      </trkpt>
      <trkpt lat="48.16822" lon="-2.73578">
        <ele>122</ele>
        <time>2021-10-15T13:46:48.000Z</time>
      </trkpt>
      <trkpt lat="48.16818" lon="-2.73581">
        <ele>122.19999694824</ele>
        <time>2021-10-15T13:46:49.000Z</time>
      </trkpt>
      <trkpt lat="48.16814" lon="-2.73583">
        <ele>122.40000152588</ele>
        <time>2021-10-15T13:46:50.000Z</time>
      </trkpt>
      <trkpt lat="48.1681" lon="-2.73585">
        <ele>122.59999847412</ele>
        <time>2021-10-15T13:46:51.000Z</time>
      </trkpt>
      <trkpt lat="48.16805" lon="-2.73587">
        <ele>122.59999847412</ele>
        <time>2021-10-15T13:46:52.000Z</time>
      </trkpt>
      <trkpt lat="48.16797" lon="-2.7359">
        <ele>123</ele>
        <time>2021-10-15T13:46:53.000Z</time>
      </trkpt>
      <trkpt lat="48.16797" lon="-2.7359">
        <ele>123</ele>
        <time>2021-10-15T13:46:54.000Z</time>
      </trkpt>
      <trkpt lat="48.16793" lon="-2.73593">
        <ele>123.40000152588</ele>
        <time>2021-10-15T13:46:55.000Z</time>
      </trkpt>
      <trkpt lat="48.16789" lon="-2.73594">
        <ele>123.80000305176</ele>
        <time>2021-10-15T13:46:56.000Z</time>
      </trkpt>
      <trkpt lat="48.16786" lon="-2.73596">
        <ele>124</ele>
        <time>2021-10-15T13:46:57.000Z</time>
      </trkpt>
      <trkpt lat="48.16783" lon="-2.73598">
        <ele>124.40000152588</ele>
        <time>2021-10-15T13:46:58.000Z</time>
      </trkpt>
      <trkpt lat="48.1678" lon="-2.736">
        <ele>124.80000305176</ele>
        <time>2021-10-15T13:46:59.000Z</time>
      </trkpt>
      <trkpt lat="48.16777" lon="-2.73603">
        <ele>125.19999694824</ele>
        <time>2021-10-15T13:47:00.000Z</time>
      </trkpt>
      <trkpt lat="48.16774" lon="-2.73607">
        <ele>125.40000152588</ele>
        <time>2021-10-15T13:47:01.000Z</time>
      </trkpt>
      <trkpt lat="48.16768" lon="-2.73614">
        <ele>126</ele>
        <time>2021-10-15T13:47:02.000Z</time>
      </trkpt>
      <trkpt lat="48.16768" lon="-2.73614">
        <ele>126</ele>
        <time>2021-10-15T13:47:03.000Z</time>
      </trkpt>
      <trkpt lat="48.16764" lon="-2.73617">
        <ele>126.40000152588</ele>
        <time>2021-10-15T13:47:04.000Z</time>
      </trkpt>
      <trkpt lat="48.16761" lon="-2.73621">
        <ele>126.59999847412</ele>
        <time>2021-10-15T13:47:05.000Z</time>
      </trkpt>
      <trkpt lat="48.16757" lon="-2.73624">
        <ele>126.80000305176</ele>
        <time>2021-10-15T13:47:06.000Z</time>
      </trkpt>
      <trkpt lat="48.16754" lon="-2.73628">
        <ele>127</ele>
        <time>2021-10-15T13:47:07.000Z</time>
      </trkpt>
      <trkpt lat="48.16751" lon="-2.73631">
        <ele>127.19999694824</ele>
        <time>2021-10-15T13:47:08.000Z</time>
      </trkpt>
      <trkpt lat="48.16748" lon="-2.73634">
        <ele>127.59999847412</ele>
        <time>2021-10-15T13:47:09.000Z</time>
      </trkpt>
      <trkpt lat="48.16744" lon="-2.73638">
        <ele>127.80000305176</ele>
        <time>2021-10-15T13:47:10.000Z</time>
      </trkpt>
      <trkpt lat="48.16741" lon="-2.73642">
        <ele>128</ele>
        <time>2021-10-15T13:47:11.000Z</time>
      </trkpt>
      <trkpt lat="48.16738" lon="-2.73647">
        <ele>127.80000305176</ele>
        <time>2021-10-15T13:47:12.000Z</time>
      </trkpt>
      <trkpt lat="48.16736" lon="-2.73651">
        <ele>127.59999847412</ele>
        <time>2021-10-15T13:47:13.000Z</time>
      </trkpt>
      <trkpt lat="48.16733" lon="-2.73656">
        <ele>127.40000152588</ele>
        <time>2021-10-15T13:47:14.000Z</time>
      </trkpt>
      <trkpt lat="48.1673" lon="-2.73661">
        <ele>127.19999694824</ele>
        <time>2021-10-15T13:47:15.000Z</time>
      </trkpt>
      <trkpt lat="48.16727" lon="-2.73667">
        <ele>127</ele>
        <time>2021-10-15T13:47:16.000Z</time>
      </trkpt>
      <trkpt lat="48.16723" lon="-2.73673">
        <ele>126.80000305176</ele>
        <time>2021-10-15T13:47:17.000Z</time>
      </trkpt>
      <trkpt lat="48.16719" lon="-2.73679">
        <ele>126.40000152588</ele>
        <time>2021-10-15T13:47:18.000Z</time>
      </trkpt>
      <trkpt lat="48.16715" lon="-2.73685">
        <ele>126.19999694824</ele>
        <time>2021-10-15T13:47:19.000Z</time>
      </trkpt>
      <trkpt lat="48.1671" lon="-2.73691">
        <ele>126</ele>
        <time>2021-10-15T13:47:20.000Z</time>
      </trkpt>
      <trkpt lat="48.16706" lon="-2.73697">
        <ele>126</ele>
        <time>2021-10-15T13:47:21.000Z</time>
      </trkpt>
      <trkpt lat="48.16701" lon="-2.73702">
        <ele>126</ele>
        <time>2021-10-15T13:47:22.000Z</time>
      </trkpt>
      <trkpt lat="48.16697" lon="-2.73708">
        <ele>126.19999694824</ele>
        <time>2021-10-15T13:47:23.000Z</time>
      </trkpt>
      <trkpt lat="48.16692" lon="-2.73713">
        <ele>126.40000152588</ele>
        <time>2021-10-15T13:47:24.000Z</time>
      </trkpt>
      <trkpt lat="48.16687" lon="-2.73718">
        <ele>126.59999847412</ele>
        <time>2021-10-15T13:47:25.000Z</time>
      </trkpt>
      <trkpt lat="48.16683" lon="-2.73724">
        <ele>126.80000305176</ele>
        <time>2021-10-15T13:47:26.000Z</time>
      </trkpt>
      <trkpt lat="48.16679" lon="-2.73729">
        <ele>127</ele>
        <time>2021-10-15T13:47:27.000Z</time>
      </trkpt>
      <trkpt lat="48.16674" lon="-2.73734">
        <ele>127.40000152588</ele>
        <time>2021-10-15T13:47:28.000Z</time>
      </trkpt>
      <trkpt lat="48.1667" lon="-2.73739">
        <ele>127.80000305176</ele>
        <time>2021-10-15T13:47:29.000Z</time>
      </trkpt>
      <trkpt lat="48.16666" lon="-2.73744">
        <ele>128</ele>
        <time>2021-10-15T13:47:30.000Z</time>
      </trkpt>
      <trkpt lat="48.16662" lon="-2.73749">
        <ele>128.39999389648</ele>
        <time>2021-10-15T13:47:31.000Z</time>
      </trkpt>
      <trkpt lat="48.16658" lon="-2.73754">
        <ele>128.80000305176</ele>
        <time>2021-10-15T13:47:32.000Z</time>
      </trkpt>
      <trkpt lat="48.16654" lon="-2.73759">
        <ele>129.19999694824</ele>
        <time>2021-10-15T13:47:33.000Z</time>
      </trkpt>
      <trkpt lat="48.16649" lon="-2.73763">
        <ele>129.39999389648</ele>
        <time>2021-10-15T13:47:34.000Z</time>
      </trkpt>
      <trkpt lat="48.16645" lon="-2.73768">
        <ele>129.80000305176</ele>
        <time>2021-10-15T13:47:35.000Z</time>
      </trkpt>
      <trkpt lat="48.16642" lon="-2.73772">
        <ele>130.19999694824</ele>
        <time>2021-10-15T13:47:36.000Z</time>
      </trkpt>
      <trkpt lat="48.16638" lon="-2.73776">
        <ele>130.39999389648</ele>
        <time>2021-10-15T13:47:37.000Z</time>
      </trkpt>
      <trkpt lat="48.16634" lon="-2.73779">
        <ele>130.60000610352</ele>
        <time>2021-10-15T13:47:38.000Z</time>
      </trkpt>
      <trkpt lat="48.16631" lon="-2.73783">
        <ele>131</ele>
        <time>2021-10-15T13:47:39.000Z</time>
      </trkpt>
      <trkpt lat="48.16628" lon="-2.73787">
        <ele>131.19999694824</ele>
        <time>2021-10-15T13:47:40.000Z</time>
      </trkpt>
      <trkpt lat="48.16625" lon="-2.7379">
        <ele>131.39999389648</ele>
        <time>2021-10-15T13:47:41.000Z</time>
      </trkpt>
      <trkpt lat="48.16622" lon="-2.73793">
        <ele>131.60000610352</ele>
        <time>2021-10-15T13:47:42.000Z</time>
      </trkpt>
      <trkpt lat="48.16619" lon="-2.73795">
        <ele>131.80000305176</ele>
        <time>2021-10-15T13:47:43.000Z</time>
      </trkpt>
      <trkpt lat="48.16617" lon="-2.73798">
        <ele>132</ele>
        <time>2021-10-15T13:47:44.000Z</time>
      </trkpt>
      <trkpt lat="48.16615" lon="-2.73801">
        <ele>132.19999694824</ele>
        <time>2021-10-15T13:47:45.000Z</time>
      </trkpt>
      <trkpt lat="48.16612" lon="-2.73804">
        <ele>132.39999389648</ele>
        <time>2021-10-15T13:47:46.000Z</time>
      </trkpt>
      <trkpt lat="48.1661" lon="-2.73807">
        <ele>132.60000610352</ele>
        <time>2021-10-15T13:47:47.000Z</time>
      </trkpt>
      <trkpt lat="48.16608" lon="-2.7381">
        <ele>132.80000305176</ele>
        <time>2021-10-15T13:47:48.000Z</time>
      </trkpt>
      <trkpt lat="48.16607" lon="-2.73813">
        <ele>133</ele>
        <time>2021-10-15T13:47:49.000Z</time>
      </trkpt>
      <trkpt lat="48.16606" lon="-2.73816">
        <ele>133.19999694824</ele>
        <time>2021-10-15T13:47:50.000Z</time>
      </trkpt>
      <trkpt lat="48.16606" lon="-2.73819">
        <ele>133.19999694824</ele>
        <time>2021-10-15T13:47:51.000Z</time>
      </trkpt>
      <trkpt lat="48.16607" lon="-2.73822">
        <ele>133.39999389648</ele>
        <time>2021-10-15T13:47:52.000Z</time>
      </trkpt>
      <trkpt lat="48.16608" lon="-2.73825">
        <ele>133.39999389648</ele>
        <time>2021-10-15T13:47:53.000Z</time>
      </trkpt>
      <trkpt lat="48.1661" lon="-2.73832">
        <ele>133.80000305176</ele>
        <time>2021-10-15T13:47:54.000Z</time>
      </trkpt>
      <trkpt lat="48.1661" lon="-2.73832">
        <ele>133.80000305176</ele>
        <time>2021-10-15T13:47:55.000Z</time>
      </trkpt>
      <trkpt lat="48.16612" lon="-2.7384">
        <ele>134.39999389648</ele>
        <time>2021-10-15T13:47:56.000Z</time>
      </trkpt>
      <trkpt lat="48.16612" lon="-2.7384">
        <ele>134.39999389648</ele>
        <time>2021-10-15T13:47:57.000Z</time>
      </trkpt>
      <trkpt lat="48.16613" lon="-2.73844">
        <ele>134.60000610352</ele>
        <time>2021-10-15T13:47:58.000Z</time>
      </trkpt>
      <trkpt lat="48.16614" lon="-2.73848">
        <ele>134.80000305176</ele>
        <time>2021-10-15T13:47:59.000Z</time>
      </trkpt>
      <trkpt lat="48.16615" lon="-2.73853">
        <ele>135</ele>
        <time>2021-10-15T13:48:00.000Z</time>
      </trkpt>
      <trkpt lat="48.16615" lon="-2.73858">
        <ele>135.19999694824</ele>
        <time>2021-10-15T13:48:01.000Z</time>
      </trkpt>
      <trkpt lat="48.16618" lon="-2.73868">
        <ele>135.60000610352</ele>
        <time>2021-10-15T13:48:02.000Z</time>
      </trkpt>
      <trkpt lat="48.16619" lon="-2.73875">
        <ele>135.60000610352</ele>
        <time>2021-10-15T13:48:03.000Z</time>
      </trkpt>
      <trkpt lat="48.16619" lon="-2.73875">
        <ele>135.60000610352</ele>
        <time>2021-10-15T13:48:04.000Z</time>
      </trkpt>
      <trkpt lat="48.1662" lon="-2.73882">
        <ele>135.80000305176</ele>
        <time>2021-10-15T13:48:05.000Z</time>
      </trkpt>
      <trkpt lat="48.1662" lon="-2.73888">
        <ele>136</ele>
        <time>2021-10-15T13:48:06.000Z</time>
      </trkpt>
      <trkpt lat="48.16621" lon="-2.73893">
        <ele>136.19999694824</ele>
        <time>2021-10-15T13:48:07.000Z</time>
      </trkpt>
      <trkpt lat="48.16622" lon="-2.73898">
        <ele>136.39999389648</ele>
        <time>2021-10-15T13:48:08.000Z</time>
      </trkpt>
      <trkpt lat="48.16622" lon="-2.73902">
        <ele>136.39999389648</ele>
        <time>2021-10-15T13:48:09.000Z</time>
      </trkpt>
      <trkpt lat="48.16624" lon="-2.73906">
        <ele>136.60000610352</ele>
        <time>2021-10-15T13:48:10.000Z</time>
      </trkpt>
      <trkpt lat="48.16625" lon="-2.73912">
        <ele>136.60000610352</ele>
        <time>2021-10-15T13:48:11.000Z</time>
      </trkpt>
      <trkpt lat="48.16627" lon="-2.73916">
        <ele>136.80000305176</ele>
        <time>2021-10-15T13:48:12.000Z</time>
      </trkpt>
      <trkpt lat="48.16628" lon="-2.73921">
        <ele>137</ele>
        <time>2021-10-15T13:48:13.000Z</time>
      </trkpt>
      <trkpt lat="48.1663" lon="-2.73926">
        <ele>137</ele>
        <time>2021-10-15T13:48:14.000Z</time>
      </trkpt>
      <trkpt lat="48.16631" lon="-2.73931">
        <ele>136.80000305176</ele>
        <time>2021-10-15T13:48:15.000Z</time>
      </trkpt>
      <trkpt lat="48.16632" lon="-2.73935">
        <ele>136.60000610352</ele>
        <time>2021-10-15T13:48:16.000Z</time>
      </trkpt>
      <trkpt lat="48.16634" lon="-2.7394">
        <ele>136.60000610352</ele>
        <time>2021-10-15T13:48:17.000Z</time>
      </trkpt>
      <trkpt lat="48.16636" lon="-2.73945">
        <ele>136.39999389648</ele>
        <time>2021-10-15T13:48:18.000Z</time>
      </trkpt>
      <trkpt lat="48.16638" lon="-2.7395">
        <ele>136.39999389648</ele>
        <time>2021-10-15T13:48:19.000Z</time>
      </trkpt>
      <trkpt lat="48.16639" lon="-2.73956">
        <ele>136.39999389648</ele>
        <time>2021-10-15T13:48:20.000Z</time>
      </trkpt>
      <trkpt lat="48.16641" lon="-2.73961">
        <ele>136.39999389648</ele>
        <time>2021-10-15T13:48:21.000Z</time>
      </trkpt>
      <trkpt lat="48.16642" lon="-2.73966">
        <ele>136.39999389648</ele>
        <time>2021-10-15T13:48:22.000Z</time>
      </trkpt>
      <trkpt lat="48.16643" lon="-2.7397">
        <ele>136.39999389648</ele>
        <time>2021-10-15T13:48:23.000Z</time>
      </trkpt>
      <trkpt lat="48.16645" lon="-2.73974">
        <ele>136.19999694824</ele>
        <time>2021-10-15T13:48:24.000Z</time>
      </trkpt>
      <trkpt lat="48.16646" lon="-2.73978">
        <ele>136</ele>
        <time>2021-10-15T13:48:25.000Z</time>
      </trkpt>
      <trkpt lat="48.16647" lon="-2.73982">
        <ele>136</ele>
        <time>2021-10-15T13:48:26.000Z</time>
      </trkpt>
      <trkpt lat="48.16649" lon="-2.73986">
        <ele>136</ele>
        <time>2021-10-15T13:48:27.000Z</time>
      </trkpt>
      <trkpt lat="48.1665" lon="-2.7399">
        <ele>136</ele>
        <time>2021-10-15T13:48:28.000Z</time>
      </trkpt>
      <trkpt lat="48.16651" lon="-2.73994">
        <ele>136</ele>
        <time>2021-10-15T13:48:29.000Z</time>
      </trkpt>
      <trkpt lat="48.16653" lon="-2.73998">
        <ele>136</ele>
        <time>2021-10-15T13:48:30.000Z</time>
      </trkpt>
      <trkpt lat="48.16654" lon="-2.74002">
        <ele>136</ele>
        <time>2021-10-15T13:48:31.000Z</time>
      </trkpt>
      <trkpt lat="48.16656" lon="-2.74006">
        <ele>136</ele>
        <time>2021-10-15T13:48:32.000Z</time>
      </trkpt>
      <trkpt lat="48.16658" lon="-2.74011">
        <ele>136.19999694824</ele>
        <time>2021-10-15T13:48:33.000Z</time>
      </trkpt>
      <trkpt lat="48.16659" lon="-2.74015">
        <ele>136.19999694824</ele>
        <time>2021-10-15T13:48:34.000Z</time>
      </trkpt>
      <trkpt lat="48.16661" lon="-2.7402">
        <ele>136.39999389648</ele>
        <time>2021-10-15T13:48:35.000Z</time>
      </trkpt>
      <trkpt lat="48.16662" lon="-2.74024">
        <ele>136.39999389648</ele>
        <time>2021-10-15T13:48:36.000Z</time>
      </trkpt>
      <trkpt lat="48.16664" lon="-2.74028">
        <ele>136.60000610352</ele>
        <time>2021-10-15T13:48:37.000Z</time>
      </trkpt>
      <trkpt lat="48.16666" lon="-2.74032">
        <ele>136.60000610352</ele>
        <time>2021-10-15T13:48:38.000Z</time>
      </trkpt>
      <trkpt lat="48.16667" lon="-2.74036">
        <ele>136.60000610352</ele>
        <time>2021-10-15T13:48:39.000Z</time>
      </trkpt>
      <trkpt lat="48.16669" lon="-2.74039">
        <ele>136.80000305176</ele>
        <time>2021-10-15T13:48:40.000Z</time>
      </trkpt>
      <trkpt lat="48.16671" lon="-2.74043">
        <ele>136.80000305176</ele>
        <time>2021-10-15T13:48:41.000Z</time>
      </trkpt>
      <trkpt lat="48.16673" lon="-2.74046">
        <ele>136.80000305176</ele>
        <time>2021-10-15T13:48:42.000Z</time>
      </trkpt>
      <trkpt lat="48.16675" lon="-2.7405">
        <ele>137.19999694824</ele>
        <time>2021-10-15T13:48:43.000Z</time>
      </trkpt>
      <trkpt lat="48.16677" lon="-2.74054">
        <ele>137.39999389648</ele>
        <time>2021-10-15T13:48:44.000Z</time>
      </trkpt>
      <trkpt lat="48.1668" lon="-2.74059">
        <ele>137.80000305176</ele>
        <time>2021-10-15T13:48:45.000Z</time>
      </trkpt>
      <trkpt lat="48.16682" lon="-2.74064">
        <ele>138.19999694824</ele>
        <time>2021-10-15T13:48:46.000Z</time>
      </trkpt>
      <trkpt lat="48.16684" lon="-2.74068">
        <ele>138.39999389648</ele>
        <time>2021-10-15T13:48:47.000Z</time>
      </trkpt>
      <trkpt lat="48.16687" lon="-2.74073">
        <ele>138.80000305176</ele>
        <time>2021-10-15T13:48:48.000Z</time>
      </trkpt>
      <trkpt lat="48.16689" lon="-2.74078">
        <ele>139</ele>
        <time>2021-10-15T13:48:49.000Z</time>
      </trkpt>
      <trkpt lat="48.16692" lon="-2.74082">
        <ele>139.19999694824</ele>
        <time>2021-10-15T13:48:50.000Z</time>
      </trkpt>
      <trkpt lat="48.16695" lon="-2.74086">
        <ele>139.39999389648</ele>
        <time>2021-10-15T13:48:51.000Z</time>
      </trkpt>
      <trkpt lat="48.16698" lon="-2.7409">
        <ele>139.60000610352</ele>
        <time>2021-10-15T13:48:52.000Z</time>
      </trkpt>
      <trkpt lat="48.16703" lon="-2.74098">
        <ele>139.60000610352</ele>
        <time>2021-10-15T13:48:53.000Z</time>
      </trkpt>
      <trkpt lat="48.16703" lon="-2.74098">
        <ele>139.60000610352</ele>
        <time>2021-10-15T13:48:54.000Z</time>
      </trkpt>
      <trkpt lat="48.16706" lon="-2.74102">
        <ele>139.80000305176</ele>
        <time>2021-10-15T13:48:55.000Z</time>
      </trkpt>
      <trkpt lat="48.16709" lon="-2.74107">
        <ele>139.80000305176</ele>
        <time>2021-10-15T13:48:56.000Z</time>
      </trkpt>
      <trkpt lat="48.16711" lon="-2.74111">
        <ele>139.80000305176</ele>
        <time>2021-10-15T13:48:57.000Z</time>
      </trkpt>
      <trkpt lat="48.16714" lon="-2.74114">
        <ele>139.80000305176</ele>
        <time>2021-10-15T13:48:58.000Z</time>
      </trkpt>
      <trkpt lat="48.16717" lon="-2.74118">
        <ele>139.80000305176</ele>
        <time>2021-10-15T13:48:59.000Z</time>
      </trkpt>
      <trkpt lat="48.16719" lon="-2.74121">
        <ele>139.60000610352</ele>
        <time>2021-10-15T13:49:00.000Z</time>
      </trkpt>
      <trkpt lat="48.16722" lon="-2.74125">
        <ele>139.39999389648</ele>
        <time>2021-10-15T13:49:01.000Z</time>
      </trkpt>
      <trkpt lat="48.16728" lon="-2.74132">
        <ele>139</ele>
        <time>2021-10-15T13:49:02.000Z</time>
      </trkpt>
      <trkpt lat="48.16728" lon="-2.74132">
        <ele>139</ele>
        <time>2021-10-15T13:49:03.000Z</time>
      </trkpt>
      <trkpt lat="48.16731" lon="-2.74135">
        <ele>139</ele>
        <time>2021-10-15T13:49:04.000Z</time>
      </trkpt>
      <trkpt lat="48.16734" lon="-2.74137">
        <ele>139</ele>
        <time>2021-10-15T13:49:05.000Z</time>
      </trkpt>
      <trkpt lat="48.16736" lon="-2.74139">
        <ele>139</ele>
        <time>2021-10-15T13:49:06.000Z</time>
      </trkpt>
      <trkpt lat="48.16739" lon="-2.74141">
        <ele>139</ele>
        <time>2021-10-15T13:49:07.000Z</time>
      </trkpt>
      <trkpt lat="48.16741" lon="-2.74143">
        <ele>139</ele>
        <time>2021-10-15T13:49:08.000Z</time>
      </trkpt>
      <trkpt lat="48.16744" lon="-2.74145">
        <ele>138.80000305176</ele>
        <time>2021-10-15T13:49:09.000Z</time>
      </trkpt>
      <trkpt lat="48.16746" lon="-2.74147">
        <ele>138.80000305176</ele>
        <time>2021-10-15T13:49:10.000Z</time>
      </trkpt>
      <trkpt lat="48.16749" lon="-2.74149">
        <ele>138.80000305176</ele>
        <time>2021-10-15T13:49:11.000Z</time>
      </trkpt>
      <trkpt lat="48.16751" lon="-2.74152">
        <ele>138.60000610352</ele>
        <time>2021-10-15T13:49:12.000Z</time>
      </trkpt>
      <trkpt lat="48.16754" lon="-2.74155">
        <ele>138.60000610352</ele>
        <time>2021-10-15T13:49:13.000Z</time>
      </trkpt>
      <trkpt lat="48.16758" lon="-2.74158">
        <ele>138.39999389648</ele>
        <time>2021-10-15T13:49:14.000Z</time>
      </trkpt>
      <trkpt lat="48.16761" lon="-2.74161">
        <ele>138.80000305176</ele>
        <time>2021-10-15T13:49:15.000Z</time>
      </trkpt>
      <trkpt lat="48.16764" lon="-2.74164">
        <ele>139.19999694824</ele>
        <time>2021-10-15T13:49:16.000Z</time>
      </trkpt>
      <trkpt lat="48.16767" lon="-2.74166">
        <ele>139.39999389648</ele>
        <time>2021-10-15T13:49:17.000Z</time>
      </trkpt>
      <trkpt lat="48.1677" lon="-2.74169">
        <ele>139.60000610352</ele>
        <time>2021-10-15T13:49:18.000Z</time>
      </trkpt>
      <trkpt lat="48.16772" lon="-2.74171">
        <ele>139.80000305176</ele>
        <time>2021-10-15T13:49:19.000Z</time>
      </trkpt>
      <trkpt lat="48.16775" lon="-2.74174">
        <ele>140</ele>
        <time>2021-10-15T13:49:20.000Z</time>
      </trkpt>
      <trkpt lat="48.16777" lon="-2.74176">
        <ele>140</ele>
        <time>2021-10-15T13:49:21.000Z</time>
      </trkpt>
      <trkpt lat="48.1678" lon="-2.74178">
        <ele>140.19999694824</ele>
        <time>2021-10-15T13:49:22.000Z</time>
      </trkpt>
      <trkpt lat="48.16785" lon="-2.74181">
        <ele>140.19999694824</ele>
        <time>2021-10-15T13:49:23.000Z</time>
      </trkpt>
      <trkpt lat="48.16785" lon="-2.74181">
        <ele>140.19999694824</ele>
        <time>2021-10-15T13:49:24.000Z</time>
      </trkpt>
      <trkpt lat="48.16787" lon="-2.74183">
        <ele>140.39999389648</ele>
        <time>2021-10-15T13:49:25.000Z</time>
      </trkpt>
      <trkpt lat="48.16789" lon="-2.74185">
        <ele>140.60000610352</ele>
        <time>2021-10-15T13:49:26.000Z</time>
      </trkpt>
      <trkpt lat="48.16791" lon="-2.74187">
        <ele>140.80000305176</ele>
        <time>2021-10-15T13:49:27.000Z</time>
      </trkpt>
      <trkpt lat="48.16794" lon="-2.74192">
        <ele>141.19999694824</ele>
        <time>2021-10-15T13:49:28.000Z</time>
      </trkpt>
      <trkpt lat="48.16794" lon="-2.74192">
        <ele>141.19999694824</ele>
        <time>2021-10-15T13:49:29.000Z</time>
      </trkpt>
      <trkpt lat="48.16796" lon="-2.74195">
        <ele>141.60000610352</ele>
        <time>2021-10-15T13:49:30.000Z</time>
      </trkpt>
      <trkpt lat="48.16798" lon="-2.74198">
        <ele>141.80000305176</ele>
        <time>2021-10-15T13:49:31.000Z</time>
      </trkpt>
      <trkpt lat="48.168" lon="-2.742">
        <ele>142</ele>
        <time>2021-10-15T13:49:32.000Z</time>
      </trkpt>
      <trkpt lat="48.16802" lon="-2.74202">
        <ele>142.19999694824</ele>
        <time>2021-10-15T13:49:33.000Z</time>
      </trkpt>
      <trkpt lat="48.16805" lon="-2.74204">
        <ele>142.39999389648</ele>
        <time>2021-10-15T13:49:34.000Z</time>
      </trkpt>
      <trkpt lat="48.16807" lon="-2.74207">
        <ele>142.80000305176</ele>
        <time>2021-10-15T13:49:35.000Z</time>
      </trkpt>
      <trkpt lat="48.16809" lon="-2.74209">
        <ele>143</ele>
        <time>2021-10-15T13:49:36.000Z</time>
      </trkpt>
      <trkpt lat="48.16811" lon="-2.74212">
        <ele>143.39999389648</ele>
        <time>2021-10-15T13:49:37.000Z</time>
      </trkpt>
      <trkpt lat="48.16814" lon="-2.74215">
        <ele>143.60000610352</ele>
        <time>2021-10-15T13:49:38.000Z</time>
      </trkpt>
      <trkpt lat="48.16816" lon="-2.74217">
        <ele>143.80000305176</ele>
        <time>2021-10-15T13:49:39.000Z</time>
      </trkpt>
      <trkpt lat="48.16819" lon="-2.74219">
        <ele>144.19999694824</ele>
        <time>2021-10-15T13:49:40.000Z</time>
      </trkpt>
      <trkpt lat="48.16821" lon="-2.74221">
        <ele>144.19999694824</ele>
        <time>2021-10-15T13:49:41.000Z</time>
      </trkpt>
      <trkpt lat="48.16823" lon="-2.74222">
        <ele>144.39999389648</ele>
        <time>2021-10-15T13:49:42.000Z</time>
      </trkpt>
      <trkpt lat="48.16825" lon="-2.74224">
        <ele>144.60000610352</ele>
        <time>2021-10-15T13:49:43.000Z</time>
      </trkpt>
      <trkpt lat="48.16828" lon="-2.74227">
        <ele>144.80000305176</ele>
        <time>2021-10-15T13:49:44.000Z</time>
      </trkpt>
      <trkpt lat="48.1683" lon="-2.74229">
        <ele>144.80000305176</ele>
        <time>2021-10-15T13:49:45.000Z</time>
      </trkpt>
      <trkpt lat="48.16834" lon="-2.74231">
        <ele>144.80000305176</ele>
        <time>2021-10-15T13:49:46.000Z</time>
      </trkpt>
      <trkpt lat="48.16837" lon="-2.74234">
        <ele>144.60000610352</ele>
        <time>2021-10-15T13:49:47.000Z</time>
      </trkpt>
      <trkpt lat="48.1684" lon="-2.74236">
        <ele>144.60000610352</ele>
        <time>2021-10-15T13:49:48.000Z</time>
      </trkpt>
      <trkpt lat="48.16843" lon="-2.74237">
        <ele>144.60000610352</ele>
        <time>2021-10-15T13:49:49.000Z</time>
      </trkpt>
      <trkpt lat="48.1685" lon="-2.74243">
        <ele>144.60000610352</ele>
        <time>2021-10-15T13:49:50.000Z</time>
      </trkpt>
      <trkpt lat="48.1685" lon="-2.74243">
        <ele>144.60000610352</ele>
        <time>2021-10-15T13:49:51.000Z</time>
      </trkpt>
      <trkpt lat="48.16854" lon="-2.74246">
        <ele>144.60000610352</ele>
        <time>2021-10-15T13:49:52.000Z</time>
      </trkpt>
      <trkpt lat="48.16857" lon="-2.74248">
        <ele>144.60000610352</ele>
        <time>2021-10-15T13:49:53.000Z</time>
      </trkpt>
      <trkpt lat="48.16861" lon="-2.74251">
        <ele>144.60000610352</ele>
        <time>2021-10-15T13:49:54.000Z</time>
      </trkpt>
      <trkpt lat="48.16864" lon="-2.74254">
        <ele>144.80000305176</ele>
        <time>2021-10-15T13:49:55.000Z</time>
      </trkpt>
      <trkpt lat="48.16867" lon="-2.74258">
        <ele>145</ele>
        <time>2021-10-15T13:49:56.000Z</time>
      </trkpt>
      <trkpt lat="48.1687" lon="-2.7426">
        <ele>145.19999694824</ele>
        <time>2021-10-15T13:49:57.000Z</time>
      </trkpt>
      <trkpt lat="48.16873" lon="-2.74262">
        <ele>145.19999694824</ele>
        <time>2021-10-15T13:49:58.000Z</time>
      </trkpt>
      <trkpt lat="48.16876" lon="-2.74264">
        <ele>145.19999694824</ele>
        <time>2021-10-15T13:49:59.000Z</time>
      </trkpt>
      <trkpt lat="48.1688" lon="-2.74268">
        <ele>145.39999389648</ele>
        <time>2021-10-15T13:50:00.000Z</time>
      </trkpt>
      <trkpt lat="48.16886" lon="-2.74274">
        <ele>145.39999389648</ele>
        <time>2021-10-15T13:50:01.000Z</time>
      </trkpt>
      <trkpt lat="48.16889" lon="-2.74277">
        <ele>145.39999389648</ele>
        <time>2021-10-15T13:50:02.000Z</time>
      </trkpt>
      <trkpt lat="48.16889" lon="-2.74277">
        <ele>145.39999389648</ele>
        <time>2021-10-15T13:50:03.000Z</time>
      </trkpt>
      <trkpt lat="48.16891" lon="-2.74281">
        <ele>145.80000305176</ele>
        <time>2021-10-15T13:50:04.000Z</time>
      </trkpt>
      <trkpt lat="48.16896" lon="-2.74288">
        <ele>146.19999694824</ele>
        <time>2021-10-15T13:50:05.000Z</time>
      </trkpt>
      <trkpt lat="48.16896" lon="-2.74288">
        <ele>146.19999694824</ele>
        <time>2021-10-15T13:50:06.000Z</time>
      </trkpt>
      <trkpt lat="48.16898" lon="-2.7429">
        <ele>146.19999694824</ele>
        <time>2021-10-15T13:50:07.000Z</time>
      </trkpt>
      <trkpt lat="48.16903" lon="-2.74296">
        <ele>146.39999389648</ele>
        <time>2021-10-15T13:50:08.000Z</time>
      </trkpt>
      <trkpt lat="48.16903" lon="-2.74296">
        <ele>146.39999389648</ele>
        <time>2021-10-15T13:50:09.000Z</time>
      </trkpt>
      <trkpt lat="48.16906" lon="-2.743">
        <ele>146.60000610352</ele>
        <time>2021-10-15T13:50:10.000Z</time>
      </trkpt>
      <trkpt lat="48.16909" lon="-2.74303">
        <ele>146.39999389648</ele>
        <time>2021-10-15T13:50:11.000Z</time>
      </trkpt>
      <trkpt lat="48.16916" lon="-2.74308">
        <ele>145.60000610352</ele>
        <time>2021-10-15T13:50:12.000Z</time>
      </trkpt>
      <trkpt lat="48.16916" lon="-2.74308">
        <ele>145.60000610352</ele>
        <time>2021-10-15T13:50:13.000Z</time>
      </trkpt>
      <trkpt lat="48.1692" lon="-2.7431">
        <ele>145.19999694824</ele>
        <time>2021-10-15T13:50:14.000Z</time>
      </trkpt>
      <trkpt lat="48.16923" lon="-2.74313">
        <ele>144.80000305176</ele>
        <time>2021-10-15T13:50:15.000Z</time>
      </trkpt>
      <trkpt lat="48.16928" lon="-2.74319">
        <ele>144.19999694824</ele>
        <time>2021-10-15T13:50:16.000Z</time>
      </trkpt>
      <trkpt lat="48.16928" lon="-2.74319">
        <ele>144.19999694824</ele>
        <time>2021-10-15T13:50:17.000Z</time>
      </trkpt>
      <trkpt lat="48.16931" lon="-2.74323">
        <ele>144.19999694824</ele>
        <time>2021-10-15T13:50:18.000Z</time>
      </trkpt>
      <trkpt lat="48.16934" lon="-2.74327">
        <ele>144.19999694824</ele>
        <time>2021-10-15T13:50:19.000Z</time>
      </trkpt>
      <trkpt lat="48.1694" lon="-2.74334">
        <ele>144.19999694824</ele>
        <time>2021-10-15T13:50:20.000Z</time>
      </trkpt>
      <trkpt lat="48.1694" lon="-2.74334">
        <ele>144.19999694824</ele>
        <time>2021-10-15T13:50:21.000Z</time>
      </trkpt>
      <trkpt lat="48.16942" lon="-2.74339">
        <ele>144.39999389648</ele>
        <time>2021-10-15T13:50:22.000Z</time>
      </trkpt>
      <trkpt lat="48.16945" lon="-2.74343">
        <ele>144.60000610352</ele>
        <time>2021-10-15T13:50:23.000Z</time>
      </trkpt>
      <trkpt lat="48.1695" lon="-2.74352">
        <ele>144.80000305176</ele>
        <time>2021-10-15T13:50:24.000Z</time>
      </trkpt>
      <trkpt lat="48.1695" lon="-2.74352">
        <ele>144.80000305176</ele>
        <time>2021-10-15T13:50:25.000Z</time>
      </trkpt>
      <trkpt lat="48.16955" lon="-2.7436">
        <ele>145</ele>
        <time>2021-10-15T13:50:26.000Z</time>
      </trkpt>
      <trkpt lat="48.16955" lon="-2.7436">
        <ele>145</ele>
        <time>2021-10-15T13:50:27.000Z</time>
      </trkpt>
      <trkpt lat="48.16958" lon="-2.74365">
        <ele>145.19999694824</ele>
        <time>2021-10-15T13:50:28.000Z</time>
      </trkpt>
      <trkpt lat="48.16964" lon="-2.74374">
        <ele>145.39999389648</ele>
        <time>2021-10-15T13:50:29.000Z</time>
      </trkpt>
      <trkpt lat="48.16964" lon="-2.74374">
        <ele>145.39999389648</ele>
        <time>2021-10-15T13:50:30.000Z</time>
      </trkpt>
      <trkpt lat="48.16966" lon="-2.74379">
        <ele>145.60000610352</ele>
        <time>2021-10-15T13:50:31.000Z</time>
      </trkpt>
      <trkpt lat="48.16969" lon="-2.74384">
        <ele>146</ele>
        <time>2021-10-15T13:50:32.000Z</time>
      </trkpt>
      <trkpt lat="48.16971" lon="-2.74388">
        <ele>146.19999694824</ele>
        <time>2021-10-15T13:50:33.000Z</time>
      </trkpt>
      <trkpt lat="48.16974" lon="-2.74393">
        <ele>146.39999389648</ele>
        <time>2021-10-15T13:50:34.000Z</time>
      </trkpt>
      <trkpt lat="48.16977" lon="-2.74401">
        <ele>146.60000610352</ele>
        <time>2021-10-15T13:50:35.000Z</time>
      </trkpt>
      <trkpt lat="48.16977" lon="-2.74401">
        <ele>146.60000610352</ele>
        <time>2021-10-15T13:50:36.000Z</time>
      </trkpt>
      <trkpt lat="48.16978" lon="-2.74406">
        <ele>146.80000305176</ele>
        <time>2021-10-15T13:50:37.000Z</time>
      </trkpt>
      <trkpt lat="48.16981" lon="-2.74411">
        <ele>146.80000305176</ele>
        <time>2021-10-15T13:50:38.000Z</time>
      </trkpt>
      <trkpt lat="48.16985" lon="-2.74421">
        <ele>146.39999389648</ele>
        <time>2021-10-15T13:50:39.000Z</time>
      </trkpt>
      <trkpt lat="48.16985" lon="-2.74421">
        <ele>146.39999389648</ele>
        <time>2021-10-15T13:50:40.000Z</time>
      </trkpt>
      <trkpt lat="48.16987" lon="-2.74425">
        <ele>146.39999389648</ele>
        <time>2021-10-15T13:50:41.000Z</time>
      </trkpt>
      <trkpt lat="48.16989" lon="-2.74429">
        <ele>146.39999389648</ele>
        <time>2021-10-15T13:50:42.000Z</time>
      </trkpt>
      <trkpt lat="48.16993" lon="-2.74438">
        <ele>146.39999389648</ele>
        <time>2021-10-15T13:50:43.000Z</time>
      </trkpt>
      <trkpt lat="48.16993" lon="-2.74438">
        <ele>146.39999389648</ele>
        <time>2021-10-15T13:50:44.000Z</time>
      </trkpt>
      <trkpt lat="48.16995" lon="-2.74441">
        <ele>146.39999389648</ele>
        <time>2021-10-15T13:50:45.000Z</time>
      </trkpt>
      <trkpt lat="48.16998" lon="-2.74447">
        <ele>146.39999389648</ele>
        <time>2021-10-15T13:50:46.000Z</time>
      </trkpt>
      <trkpt lat="48.17003" lon="-2.74455">
        <ele>146.19999694824</ele>
        <time>2021-10-15T13:50:47.000Z</time>
      </trkpt>
      <trkpt lat="48.17003" lon="-2.74455">
        <ele>146.19999694824</ele>
        <time>2021-10-15T13:50:48.000Z</time>
      </trkpt>
      <trkpt lat="48.17005" lon="-2.7446">
        <ele>146</ele>
        <time>2021-10-15T13:50:49.000Z</time>
      </trkpt>
      <trkpt lat="48.17008" lon="-2.74464">
        <ele>145.80000305176</ele>
        <time>2021-10-15T13:50:50.000Z</time>
      </trkpt>
      <trkpt lat="48.1701" lon="-2.74468">
        <ele>146</ele>
        <time>2021-10-15T13:50:51.000Z</time>
      </trkpt>
      <trkpt lat="48.17012" lon="-2.74472">
        <ele>146</ele>
        <time>2021-10-15T13:50:52.000Z</time>
      </trkpt>
      <trkpt lat="48.17016" lon="-2.7448">
        <ele>146.19999694824</ele>
        <time>2021-10-15T13:50:53.000Z</time>
      </trkpt>
      <trkpt lat="48.17016" lon="-2.7448">
        <ele>146.19999694824</ele>
        <time>2021-10-15T13:50:54.000Z</time>
      </trkpt>
      <trkpt lat="48.17017" lon="-2.74484">
        <ele>146</ele>
        <time>2021-10-15T13:50:55.000Z</time>
      </trkpt>
      <trkpt lat="48.17018" lon="-2.74489">
        <ele>146</ele>
        <time>2021-10-15T13:50:56.000Z</time>
      </trkpt>
      <trkpt lat="48.1702" lon="-2.74496">
        <ele>145.80000305176</ele>
        <time>2021-10-15T13:50:57.000Z</time>
      </trkpt>
      <trkpt lat="48.1702" lon="-2.74496">
        <ele>145.80000305176</ele>
        <time>2021-10-15T13:50:58.000Z</time>
      </trkpt>
      <trkpt lat="48.17021" lon="-2.745">
        <ele>145.80000305176</ele>
        <time>2021-10-15T13:50:59.000Z</time>
      </trkpt>
      <trkpt lat="48.17022" lon="-2.74504">
        <ele>145.80000305176</ele>
        <time>2021-10-15T13:51:00.000Z</time>
      </trkpt>
      <trkpt lat="48.17025" lon="-2.74513">
        <ele>145.80000305176</ele>
        <time>2021-10-15T13:51:01.000Z</time>
      </trkpt>
      <trkpt lat="48.17025" lon="-2.74513">
        <ele>145.80000305176</ele>
        <time>2021-10-15T13:51:02.000Z</time>
      </trkpt>
      <trkpt lat="48.17026" lon="-2.74517">
        <ele>145.80000305176</ele>
        <time>2021-10-15T13:51:03.000Z</time>
      </trkpt>
      <trkpt lat="48.17027" lon="-2.74521">
        <ele>146</ele>
        <time>2021-10-15T13:51:04.000Z</time>
      </trkpt>
      <trkpt lat="48.17028" lon="-2.74528">
        <ele>146</ele>
        <time>2021-10-15T13:51:05.000Z</time>
      </trkpt>
      <trkpt lat="48.17028" lon="-2.74528">
        <ele>146</ele>
        <time>2021-10-15T13:51:06.000Z</time>
      </trkpt>
      <trkpt lat="48.17028" lon="-2.7453">
        <ele>146.19999694824</ele>
        <time>2021-10-15T13:51:07.000Z</time>
      </trkpt>
      <trkpt lat="48.17029" lon="-2.74532">
        <ele>146.19999694824</ele>
        <time>2021-10-15T13:51:08.000Z</time>
      </trkpt>
      <trkpt lat="48.1703" lon="-2.74536">
        <ele>146.19999694824</ele>
        <time>2021-10-15T13:51:09.000Z</time>
      </trkpt>
      <trkpt lat="48.1703" lon="-2.74536">
        <ele>146.19999694824</ele>
        <time>2021-10-15T13:51:10.000Z</time>
      </trkpt>
      <trkpt lat="48.1703" lon="-2.74538">
        <ele>146.19999694824</ele>
        <time>2021-10-15T13:51:11.000Z</time>
      </trkpt>
      <trkpt lat="48.17032" lon="-2.74544">
        <ele>146.39999389648</ele>
        <time>2021-10-15T13:51:12.000Z</time>
      </trkpt>
      <trkpt lat="48.17032" lon="-2.74544">
        <ele>146.39999389648</ele>
        <time>2021-10-15T13:51:13.000Z</time>
      </trkpt>
      <trkpt lat="48.17033" lon="-2.74548">
        <ele>146.39999389648</ele>
        <time>2021-10-15T13:51:14.000Z</time>
      </trkpt>
      <trkpt lat="48.17033" lon="-2.74551">
        <ele>146.60000610352</ele>
        <time>2021-10-15T13:51:15.000Z</time>
      </trkpt>
      <trkpt lat="48.17035" lon="-2.74557">
        <ele>146.60000610352</ele>
        <time>2021-10-15T13:51:16.000Z</time>
      </trkpt>
      <trkpt lat="48.17035" lon="-2.74557">
        <ele>146.60000610352</ele>
        <time>2021-10-15T13:51:17.000Z</time>
      </trkpt>
      <trkpt lat="48.17036" lon="-2.7456">
        <ele>146.60000610352</ele>
        <time>2021-10-15T13:51:18.000Z</time>
      </trkpt>
      <trkpt lat="48.17037" lon="-2.74563">
        <ele>146.60000610352</ele>
        <time>2021-10-15T13:51:19.000Z</time>
      </trkpt>
      <trkpt lat="48.17039" lon="-2.74569">
        <ele>146.60000610352</ele>
        <time>2021-10-15T13:51:20.000Z</time>
      </trkpt>
      <trkpt lat="48.17039" lon="-2.74569">
        <ele>146.60000610352</ele>
        <time>2021-10-15T13:51:21.000Z</time>
      </trkpt>
      <trkpt lat="48.1704" lon="-2.74572">
        <ele>146.60000610352</ele>
        <time>2021-10-15T13:51:22.000Z</time>
      </trkpt>
      <trkpt lat="48.17041" lon="-2.74576">
        <ele>146.60000610352</ele>
        <time>2021-10-15T13:51:23.000Z</time>
      </trkpt>
      <trkpt lat="48.17044" lon="-2.74586">
        <ele>147</ele>
        <time>2021-10-15T13:51:24.000Z</time>
      </trkpt>
      <trkpt lat="48.17044" lon="-2.74586">
        <ele>147</ele>
        <time>2021-10-15T13:51:25.000Z</time>
      </trkpt>
      <trkpt lat="48.17046" lon="-2.74591">
        <ele>147</ele>
        <time>2021-10-15T13:51:26.000Z</time>
      </trkpt>
      <trkpt lat="48.17047" lon="-2.74595">
        <ele>147.19999694824</ele>
        <time>2021-10-15T13:51:27.000Z</time>
      </trkpt>
      <trkpt lat="48.17049" lon="-2.74605">
        <ele>147.39999389648</ele>
        <time>2021-10-15T13:51:28.000Z</time>
      </trkpt>
      <trkpt lat="48.17049" lon="-2.74605">
        <ele>147.39999389648</ele>
        <time>2021-10-15T13:51:29.000Z</time>
      </trkpt>
      <trkpt lat="48.1705" lon="-2.74614">
        <ele>147.80000305176</ele>
        <time>2021-10-15T13:51:30.000Z</time>
      </trkpt>
      <trkpt lat="48.1705" lon="-2.74614">
        <ele>147.80000305176</ele>
        <time>2021-10-15T13:51:31.000Z</time>
      </trkpt>
      <trkpt lat="48.17051" lon="-2.74619">
        <ele>147.80000305176</ele>
        <time>2021-10-15T13:51:32.000Z</time>
      </trkpt>
      <trkpt lat="48.17053" lon="-2.74629">
        <ele>148</ele>
        <time>2021-10-15T13:51:33.000Z</time>
      </trkpt>
      <trkpt lat="48.17053" lon="-2.74629">
        <ele>148</ele>
        <time>2021-10-15T13:51:34.000Z</time>
      </trkpt>
      <trkpt lat="48.17053" lon="-2.74635">
        <ele>148.19999694824</ele>
        <time>2021-10-15T13:51:35.000Z</time>
      </trkpt>
      <trkpt lat="48.17054" lon="-2.7464">
        <ele>148.19999694824</ele>
        <time>2021-10-15T13:51:36.000Z</time>
      </trkpt>
      <trkpt lat="48.17055" lon="-2.7465">
        <ele>148.80000305176</ele>
        <time>2021-10-15T13:51:37.000Z</time>
      </trkpt>
      <trkpt lat="48.17055" lon="-2.7465">
        <ele>148.80000305176</ele>
        <time>2021-10-15T13:51:38.000Z</time>
      </trkpt>
      <trkpt lat="48.17055" lon="-2.74655">
        <ele>149</ele>
        <time>2021-10-15T13:51:39.000Z</time>
      </trkpt>
      <trkpt lat="48.17056" lon="-2.74659">
        <ele>149.19999694824</ele>
        <time>2021-10-15T13:51:40.000Z</time>
      </trkpt>
      <trkpt lat="48.17056" lon="-2.74666">
        <ele>149.60000610352</ele>
        <time>2021-10-15T13:51:41.000Z</time>
      </trkpt>
      <trkpt lat="48.17056" lon="-2.74666">
        <ele>149.60000610352</ele>
        <time>2021-10-15T13:51:42.000Z</time>
      </trkpt>
      <trkpt lat="48.17056" lon="-2.7467">
        <ele>149.80000305176</ele>
        <time>2021-10-15T13:51:43.000Z</time>
      </trkpt>
      <trkpt lat="48.17056" lon="-2.74674">
        <ele>150</ele>
        <time>2021-10-15T13:51:44.000Z</time>
      </trkpt>
      <trkpt lat="48.17057" lon="-2.74683">
        <ele>149.80000305176</ele>
        <time>2021-10-15T13:51:45.000Z</time>
      </trkpt>
      <trkpt lat="48.17057" lon="-2.74683">
        <ele>149.80000305176</ele>
        <time>2021-10-15T13:51:46.000Z</time>
      </trkpt>
      <trkpt lat="48.17058" lon="-2.74688">
        <ele>149.80000305176</ele>
        <time>2021-10-15T13:51:47.000Z</time>
      </trkpt>
      <trkpt lat="48.17059" lon="-2.74693">
        <ele>149.80000305176</ele>
        <time>2021-10-15T13:51:48.000Z</time>
      </trkpt>
      <trkpt lat="48.1706" lon="-2.74704">
        <ele>150</ele>
        <time>2021-10-15T13:51:49.000Z</time>
      </trkpt>
      <trkpt lat="48.1706" lon="-2.74704">
        <ele>150</ele>
        <time>2021-10-15T13:51:50.000Z</time>
      </trkpt>
      <trkpt lat="48.17061" lon="-2.7471">
        <ele>150</ele>
        <time>2021-10-15T13:51:51.000Z</time>
      </trkpt>
      <trkpt lat="48.17062" lon="-2.74716">
        <ele>150</ele>
        <time>2021-10-15T13:51:52.000Z</time>
      </trkpt>
      <trkpt lat="48.17063" lon="-2.74721">
        <ele>150.19999694824</ele>
        <time>2021-10-15T13:51:53.000Z</time>
      </trkpt>
      <trkpt lat="48.17064" lon="-2.74726">
        <ele>150.19999694824</ele>
        <time>2021-10-15T13:51:54.000Z</time>
      </trkpt>
      <trkpt lat="48.17066" lon="-2.74741">
        <ele>150.19999694824</ele>
        <time>2021-10-15T13:51:55.000Z</time>
      </trkpt>
      <trkpt lat="48.17066" lon="-2.74741">
        <ele>150.19999694824</ele>
        <time>2021-10-15T13:51:56.000Z</time>
      </trkpt>
      <trkpt lat="48.17067" lon="-2.74748">
        <ele>150.19999694824</ele>
        <time>2021-10-15T13:51:57.000Z</time>
      </trkpt>
      <trkpt lat="48.17068" lon="-2.74754">
        <ele>150.19999694824</ele>
        <time>2021-10-15T13:51:58.000Z</time>
      </trkpt>
      <trkpt lat="48.17071" lon="-2.74764">
        <ele>150</ele>
        <time>2021-10-15T13:51:59.000Z</time>
      </trkpt>
      <trkpt lat="48.17071" lon="-2.74764">
        <ele>150</ele>
        <time>2021-10-15T13:52:00.000Z</time>
      </trkpt>
      <trkpt lat="48.17072" lon="-2.74769">
        <ele>149.80000305176</ele>
        <time>2021-10-15T13:52:01.000Z</time>
      </trkpt>
      <trkpt lat="48.17072" lon="-2.74773">
        <ele>149.60000610352</ele>
        <time>2021-10-15T13:52:02.000Z</time>
      </trkpt>
      <trkpt lat="48.17073" lon="-2.74782">
        <ele>149.19999694824</ele>
        <time>2021-10-15T13:52:03.000Z</time>
      </trkpt>
      <trkpt lat="48.17073" lon="-2.74782">
        <ele>149.19999694824</ele>
        <time>2021-10-15T13:52:04.000Z</time>
      </trkpt>
      <trkpt lat="48.17073" lon="-2.74786">
        <ele>149</ele>
        <time>2021-10-15T13:52:05.000Z</time>
      </trkpt>
      <trkpt lat="48.17074" lon="-2.7479">
        <ele>148.80000305176</ele>
        <time>2021-10-15T13:52:06.000Z</time>
      </trkpt>
      <trkpt lat="48.17075" lon="-2.74798">
        <ele>148.39999389648</ele>
        <time>2021-10-15T13:52:07.000Z</time>
      </trkpt>
      <trkpt lat="48.17075" lon="-2.74798">
        <ele>148.39999389648</ele>
        <time>2021-10-15T13:52:08.000Z</time>
      </trkpt>
      <trkpt lat="48.17076" lon="-2.74801">
        <ele>148.19999694824</ele>
        <time>2021-10-15T13:52:09.000Z</time>
      </trkpt>
      <trkpt lat="48.17077" lon="-2.74805">
        <ele>148</ele>
        <time>2021-10-15T13:52:10.000Z</time>
      </trkpt>
      <trkpt lat="48.17078" lon="-2.74809">
        <ele>147.80000305176</ele>
        <time>2021-10-15T13:52:11.000Z</time>
      </trkpt>
      <trkpt lat="48.17079" lon="-2.74813">
        <ele>147.60000610352</ele>
        <time>2021-10-15T13:52:12.000Z</time>
      </trkpt>
      <trkpt lat="48.17081" lon="-2.74823">
        <ele>148</ele>
        <time>2021-10-15T13:52:13.000Z</time>
      </trkpt>
      <trkpt lat="48.17081" lon="-2.74823">
        <ele>148</ele>
        <time>2021-10-15T13:52:14.000Z</time>
      </trkpt>
      <trkpt lat="48.17081" lon="-2.74827">
        <ele>148</ele>
        <time>2021-10-15T13:52:15.000Z</time>
      </trkpt>
      <trkpt lat="48.17082" lon="-2.74833">
        <ele>148.19999694824</ele>
        <time>2021-10-15T13:52:16.000Z</time>
      </trkpt>
      <trkpt lat="48.17082" lon="-2.74833">
        <ele>148.19999694824</ele>
        <time>2021-10-15T13:52:17.000Z</time>
      </trkpt>
      <trkpt lat="48.17082" lon="-2.74836">
        <ele>148.39999389648</ele>
        <time>2021-10-15T13:52:18.000Z</time>
      </trkpt>
      <trkpt lat="48.17083" lon="-2.74838">
        <ele>148.60000610352</ele>
        <time>2021-10-15T13:52:19.000Z</time>
      </trkpt>
      <trkpt lat="48.17083" lon="-2.7484">
        <ele>148.60000610352</ele>
        <time>2021-10-15T13:52:20.000Z</time>
      </trkpt>
      <trkpt lat="48.17084" lon="-2.74843">
        <ele>148.80000305176</ele>
        <time>2021-10-15T13:52:21.000Z</time>
      </trkpt>
      <trkpt lat="48.17086" lon="-2.7485">
        <ele>149.19999694824</ele>
        <time>2021-10-15T13:52:22.000Z</time>
      </trkpt>
      <trkpt lat="48.17086" lon="-2.7485">
        <ele>149.19999694824</ele>
        <time>2021-10-15T13:52:23.000Z</time>
      </trkpt>
      <trkpt lat="48.17087" lon="-2.74853">
        <ele>149.39999389648</ele>
        <time>2021-10-15T13:52:24.000Z</time>
      </trkpt>
      <trkpt lat="48.17088" lon="-2.74857">
        <ele>149.80000305176</ele>
        <time>2021-10-15T13:52:25.000Z</time>
      </trkpt>
      <trkpt lat="48.1709" lon="-2.74865">
        <ele>150.19999694824</ele>
        <time>2021-10-15T13:52:26.000Z</time>
      </trkpt>
      <trkpt lat="48.1709" lon="-2.74865">
        <ele>150.19999694824</ele>
        <time>2021-10-15T13:52:27.000Z</time>
      </trkpt>
      <trkpt lat="48.17091" lon="-2.7487">
        <ele>150.60000610352</ele>
        <time>2021-10-15T13:52:28.000Z</time>
      </trkpt>
      <trkpt lat="48.17092" lon="-2.74874">
        <ele>150.80000305176</ele>
        <time>2021-10-15T13:52:29.000Z</time>
      </trkpt>
      <trkpt lat="48.17095" lon="-2.74883">
        <ele>151.39999389648</ele>
        <time>2021-10-15T13:52:30.000Z</time>
      </trkpt>
      <trkpt lat="48.17095" lon="-2.74883">
        <ele>151.39999389648</ele>
        <time>2021-10-15T13:52:31.000Z</time>
      </trkpt>
      <trkpt lat="48.17096" lon="-2.74888">
        <ele>151.60000610352</ele>
        <time>2021-10-15T13:52:32.000Z</time>
      </trkpt>
      <trkpt lat="48.17097" lon="-2.74893">
        <ele>152</ele>
        <time>2021-10-15T13:52:33.000Z</time>
      </trkpt>
      <trkpt lat="48.17099" lon="-2.74903">
        <ele>152.19999694824</ele>
        <time>2021-10-15T13:52:34.000Z</time>
      </trkpt>
      <trkpt lat="48.17099" lon="-2.74903">
        <ele>152.19999694824</ele>
        <time>2021-10-15T13:52:35.000Z</time>
      </trkpt>
      <trkpt lat="48.171" lon="-2.74908">
        <ele>152.19999694824</ele>
        <time>2021-10-15T13:52:36.000Z</time>
      </trkpt>
      <trkpt lat="48.17102" lon="-2.74918">
        <ele>152</ele>
        <time>2021-10-15T13:52:37.000Z</time>
      </trkpt>
      <trkpt lat="48.17102" lon="-2.74918">
        <ele>152</ele>
        <time>2021-10-15T13:52:38.000Z</time>
      </trkpt>
      <trkpt lat="48.17103" lon="-2.74922">
        <ele>151.80000305176</ele>
        <time>2021-10-15T13:52:39.000Z</time>
      </trkpt>
      <trkpt lat="48.17104" lon="-2.74928">
        <ele>151.60000610352</ele>
        <time>2021-10-15T13:52:40.000Z</time>
      </trkpt>
      <trkpt lat="48.17104" lon="-2.74933">
        <ele>151.39999389648</ele>
        <time>2021-10-15T13:52:41.000Z</time>
      </trkpt>
      <trkpt lat="48.17104" lon="-2.74938">
        <ele>151.19999694824</ele>
        <time>2021-10-15T13:52:42.000Z</time>
      </trkpt>
      <trkpt lat="48.17105" lon="-2.74943">
        <ele>150.80000305176</ele>
        <time>2021-10-15T13:52:43.000Z</time>
      </trkpt>
      <trkpt lat="48.17106" lon="-2.74953">
        <ele>150.80000305176</ele>
        <time>2021-10-15T13:52:44.000Z</time>
      </trkpt>
      <trkpt lat="48.17106" lon="-2.74953">
        <ele>150.80000305176</ele>
        <time>2021-10-15T13:52:45.000Z</time>
      </trkpt>
      <trkpt lat="48.17106" lon="-2.74959">
        <ele>150.60000610352</ele>
        <time>2021-10-15T13:52:46.000Z</time>
      </trkpt>
      <trkpt lat="48.17107" lon="-2.74964">
        <ele>150.60000610352</ele>
        <time>2021-10-15T13:52:47.000Z</time>
      </trkpt>
      <trkpt lat="48.17107" lon="-2.74969">
        <ele>150.60000610352</ele>
        <time>2021-10-15T13:52:48.000Z</time>
      </trkpt>
      <trkpt lat="48.17107" lon="-2.74974">
        <ele>150.60000610352</ele>
        <time>2021-10-15T13:52:49.000Z</time>
      </trkpt>
      <trkpt lat="48.17109" lon="-2.74984">
        <ele>151</ele>
        <time>2021-10-15T13:52:50.000Z</time>
      </trkpt>
      <trkpt lat="48.17109" lon="-2.74984">
        <ele>151</ele>
        <time>2021-10-15T13:52:51.000Z</time>
      </trkpt>
      <trkpt lat="48.17109" lon="-2.74988">
        <ele>151</ele>
        <time>2021-10-15T13:52:52.000Z</time>
      </trkpt>
      <trkpt lat="48.1711" lon="-2.74998">
        <ele>151.39999389648</ele>
        <time>2021-10-15T13:52:53.000Z</time>
      </trkpt>
      <trkpt lat="48.1711" lon="-2.74998">
        <ele>151.39999389648</ele>
        <time>2021-10-15T13:52:54.000Z</time>
      </trkpt>
      <trkpt lat="48.1711" lon="-2.75003">
        <ele>151.60000610352</ele>
        <time>2021-10-15T13:52:55.000Z</time>
      </trkpt>
      <trkpt lat="48.17112" lon="-2.75013">
        <ele>151.80000305176</ele>
        <time>2021-10-15T13:52:56.000Z</time>
      </trkpt>
      <trkpt lat="48.17112" lon="-2.75013">
        <ele>151.80000305176</ele>
        <time>2021-10-15T13:52:57.000Z</time>
      </trkpt>
      <trkpt lat="48.17112" lon="-2.75018">
        <ele>152</ele>
        <time>2021-10-15T13:52:58.000Z</time>
      </trkpt>
      <trkpt lat="48.17113" lon="-2.75023">
        <ele>152.19999694824</ele>
        <time>2021-10-15T13:52:59.000Z</time>
      </trkpt>
      <trkpt lat="48.17114" lon="-2.75033">
        <ele>152.19999694824</ele>
        <time>2021-10-15T13:53:00.000Z</time>
      </trkpt>
      <trkpt lat="48.17114" lon="-2.75033">
        <ele>152.19999694824</ele>
        <time>2021-10-15T13:53:01.000Z</time>
      </trkpt>
      <trkpt lat="48.17115" lon="-2.75044">
        <ele>152.39999389648</ele>
        <time>2021-10-15T13:53:02.000Z</time>
      </trkpt>
      <trkpt lat="48.17115" lon="-2.75049">
        <ele>152.60000610352</ele>
        <time>2021-10-15T13:53:03.000Z</time>
      </trkpt>
      <trkpt lat="48.17115" lon="-2.75049">
        <ele>152.60000610352</ele>
        <time>2021-10-15T13:53:04.000Z</time>
      </trkpt>
      <trkpt lat="48.17115" lon="-2.75054">
        <ele>152.60000610352</ele>
        <time>2021-10-15T13:53:05.000Z</time>
      </trkpt>
      <trkpt lat="48.17115" lon="-2.75058">
        <ele>152.60000610352</ele>
        <time>2021-10-15T13:53:06.000Z</time>
      </trkpt>
      <trkpt lat="48.17115" lon="-2.75068">
        <ele>152.60000610352</ele>
        <time>2021-10-15T13:53:07.000Z</time>
      </trkpt>
      <trkpt lat="48.17115" lon="-2.75068">
        <ele>152.60000610352</ele>
        <time>2021-10-15T13:53:08.000Z</time>
      </trkpt>
      <trkpt lat="48.17115" lon="-2.75073">
        <ele>152.60000610352</ele>
        <time>2021-10-15T13:53:09.000Z</time>
      </trkpt>
      <trkpt lat="48.17115" lon="-2.75078">
        <ele>152.60000610352</ele>
        <time>2021-10-15T13:53:10.000Z</time>
      </trkpt>
      <trkpt lat="48.17114" lon="-2.75088">
        <ele>153</ele>
        <time>2021-10-15T13:53:11.000Z</time>
      </trkpt>
      <trkpt lat="48.17114" lon="-2.75088">
        <ele>153</ele>
        <time>2021-10-15T13:53:12.000Z</time>
      </trkpt>
      <trkpt lat="48.17114" lon="-2.75093">
        <ele>153.19999694824</ele>
        <time>2021-10-15T13:53:13.000Z</time>
      </trkpt>
      <trkpt lat="48.17114" lon="-2.75098">
        <ele>153.39999389648</ele>
        <time>2021-10-15T13:53:14.000Z</time>
      </trkpt>
      <trkpt lat="48.17113" lon="-2.75103">
        <ele>153.60000610352</ele>
        <time>2021-10-15T13:53:15.000Z</time>
      </trkpt>
      <trkpt lat="48.17113" lon="-2.75108">
        <ele>153.80000305176</ele>
        <time>2021-10-15T13:53:16.000Z</time>
      </trkpt>
      <trkpt lat="48.17111" lon="-2.75117">
        <ele>154.19999694824</ele>
        <time>2021-10-15T13:53:17.000Z</time>
      </trkpt>
      <trkpt lat="48.17111" lon="-2.75117">
        <ele>154.19999694824</ele>
        <time>2021-10-15T13:53:18.000Z</time>
      </trkpt>
      <trkpt lat="48.1711" lon="-2.75122">
        <ele>154.39999389648</ele>
        <time>2021-10-15T13:53:19.000Z</time>
      </trkpt>
      <trkpt lat="48.17109" lon="-2.75126">
        <ele>154.39999389648</ele>
        <time>2021-10-15T13:53:20.000Z</time>
      </trkpt>
      <trkpt lat="48.17108" lon="-2.75131">
        <ele>154.60000610352</ele>
        <time>2021-10-15T13:53:21.000Z</time>
      </trkpt>
      <trkpt lat="48.17106" lon="-2.75141">
        <ele>154.60000610352</ele>
        <time>2021-10-15T13:53:22.000Z</time>
      </trkpt>
      <trkpt lat="48.17106" lon="-2.75141">
        <ele>154.60000610352</ele>
        <time>2021-10-15T13:53:23.000Z</time>
      </trkpt>
      <trkpt lat="48.17105" lon="-2.75146">
        <ele>154.80000305176</ele>
        <time>2021-10-15T13:53:24.000Z</time>
      </trkpt>
      <trkpt lat="48.17104" lon="-2.75151">
        <ele>155</ele>
        <time>2021-10-15T13:53:25.000Z</time>
      </trkpt>
      <trkpt lat="48.17104" lon="-2.75156">
        <ele>155</ele>
        <time>2021-10-15T13:53:26.000Z</time>
      </trkpt>
      <trkpt lat="48.17103" lon="-2.75162">
        <ele>155</ele>
        <time>2021-10-15T13:53:27.000Z</time>
      </trkpt>
      <trkpt lat="48.17101" lon="-2.75172">
        <ele>155</ele>
        <time>2021-10-15T13:53:28.000Z</time>
      </trkpt>
      <trkpt lat="48.17101" lon="-2.75172">
        <ele>155</ele>
        <time>2021-10-15T13:53:29.000Z</time>
      </trkpt>
      <trkpt lat="48.171" lon="-2.75177">
        <ele>155.19999694824</ele>
        <time>2021-10-15T13:53:30.000Z</time>
      </trkpt>
      <trkpt lat="48.17099" lon="-2.75182">
        <ele>155.19999694824</ele>
        <time>2021-10-15T13:53:31.000Z</time>
      </trkpt>
      <trkpt lat="48.17098" lon="-2.75187">
        <ele>155.19999694824</ele>
        <time>2021-10-15T13:53:32.000Z</time>
      </trkpt>
      <trkpt lat="48.17097" lon="-2.75192">
        <ele>155.39999389648</ele>
        <time>2021-10-15T13:53:33.000Z</time>
      </trkpt>
      <trkpt lat="48.17095" lon="-2.75202">
        <ele>155.39999389648</ele>
        <time>2021-10-15T13:53:34.000Z</time>
      </trkpt>
      <trkpt lat="48.17095" lon="-2.75202">
        <ele>155.39999389648</ele>
        <time>2021-10-15T13:53:35.000Z</time>
      </trkpt>
      <trkpt lat="48.17094" lon="-2.75207">
        <ele>155.60000610352</ele>
        <time>2021-10-15T13:53:36.000Z</time>
      </trkpt>
      <trkpt lat="48.17093" lon="-2.75212">
        <ele>155.60000610352</ele>
        <time>2021-10-15T13:53:37.000Z</time>
      </trkpt>
      <trkpt lat="48.17091" lon="-2.75222">
        <ele>155.80000305176</ele>
        <time>2021-10-15T13:53:38.000Z</time>
      </trkpt>
      <trkpt lat="48.17091" lon="-2.75222">
        <ele>155.80000305176</ele>
        <time>2021-10-15T13:53:39.000Z</time>
      </trkpt>
      <trkpt lat="48.1709" lon="-2.75227">
        <ele>155.80000305176</ele>
        <time>2021-10-15T13:53:40.000Z</time>
      </trkpt>
      <trkpt lat="48.17089" lon="-2.75236">
        <ele>156.19999694824</ele>
        <time>2021-10-15T13:53:41.000Z</time>
      </trkpt>
      <trkpt lat="48.17089" lon="-2.75236">
        <ele>156.19999694824</ele>
        <time>2021-10-15T13:53:42.000Z</time>
      </trkpt>
      <trkpt lat="48.17088" lon="-2.75241">
        <ele>156.39999389648</ele>
        <time>2021-10-15T13:53:43.000Z</time>
      </trkpt>
      <trkpt lat="48.17087" lon="-2.75246">
        <ele>156.60000610352</ele>
        <time>2021-10-15T13:53:44.000Z</time>
      </trkpt>
      <trkpt lat="48.17087" lon="-2.7525">
        <ele>156.60000610352</ele>
        <time>2021-10-15T13:53:45.000Z</time>
      </trkpt>
      <trkpt lat="48.17086" lon="-2.75254">
        <ele>156.80000305176</ele>
        <time>2021-10-15T13:53:46.000Z</time>
      </trkpt>
      <trkpt lat="48.17084" lon="-2.75261">
        <ele>157</ele>
        <time>2021-10-15T13:53:47.000Z</time>
      </trkpt>
      <trkpt lat="48.17084" lon="-2.75261">
        <ele>157</ele>
        <time>2021-10-15T13:53:48.000Z</time>
      </trkpt>
      <trkpt lat="48.17083" lon="-2.75265">
        <ele>157</ele>
        <time>2021-10-15T13:53:49.000Z</time>
      </trkpt>
      <trkpt lat="48.17082" lon="-2.75269">
        <ele>157.19999694824</ele>
        <time>2021-10-15T13:53:50.000Z</time>
      </trkpt>
      <trkpt lat="48.17082" lon="-2.75276">
        <ele>157.19999694824</ele>
        <time>2021-10-15T13:53:51.000Z</time>
      </trkpt>
      <trkpt lat="48.17082" lon="-2.75276">
        <ele>157.19999694824</ele>
        <time>2021-10-15T13:53:52.000Z</time>
      </trkpt>
      <trkpt lat="48.17082" lon="-2.7528">
        <ele>157.19999694824</ele>
        <time>2021-10-15T13:53:53.000Z</time>
      </trkpt>
      <trkpt lat="48.17082" lon="-2.75283">
        <ele>157.19999694824</ele>
        <time>2021-10-15T13:53:54.000Z</time>
      </trkpt>
      <trkpt lat="48.17082" lon="-2.7529">
        <ele>157.19999694824</ele>
        <time>2021-10-15T13:53:55.000Z</time>
      </trkpt>
      <trkpt lat="48.17082" lon="-2.7529">
        <ele>157.19999694824</ele>
        <time>2021-10-15T13:53:56.000Z</time>
      </trkpt>
      <trkpt lat="48.17081" lon="-2.75294">
        <ele>157.19999694824</ele>
        <time>2021-10-15T13:53:57.000Z</time>
      </trkpt>
      <trkpt lat="48.17081" lon="-2.75298">
        <ele>157.19999694824</ele>
        <time>2021-10-15T13:53:58.000Z</time>
      </trkpt>
      <trkpt lat="48.17081" lon="-2.75306">
        <ele>157.39999389648</ele>
        <time>2021-10-15T13:53:59.000Z</time>
      </trkpt>
      <trkpt lat="48.17081" lon="-2.75306">
        <ele>157.39999389648</ele>
        <time>2021-10-15T13:54:00.000Z</time>
      </trkpt>
      <trkpt lat="48.17081" lon="-2.75311">
        <ele>157.39999389648</ele>
        <time>2021-10-15T13:54:01.000Z</time>
      </trkpt>
      <trkpt lat="48.17081" lon="-2.75321">
        <ele>157.39999389648</ele>
        <time>2021-10-15T13:54:02.000Z</time>
      </trkpt>
      <trkpt lat="48.17081" lon="-2.75321">
        <ele>157.39999389648</ele>
        <time>2021-10-15T13:54:03.000Z</time>
      </trkpt>
      <trkpt lat="48.17081" lon="-2.75326">
        <ele>157.39999389648</ele>
        <time>2021-10-15T13:54:04.000Z</time>
      </trkpt>
      <trkpt lat="48.17082" lon="-2.75332">
        <ele>157.39999389648</ele>
        <time>2021-10-15T13:54:05.000Z</time>
      </trkpt>
      <trkpt lat="48.17082" lon="-2.75342">
        <ele>157.39999389648</ele>
        <time>2021-10-15T13:54:06.000Z</time>
      </trkpt>
      <trkpt lat="48.17082" lon="-2.75342">
        <ele>157.39999389648</ele>
        <time>2021-10-15T13:54:07.000Z</time>
      </trkpt>
      <trkpt lat="48.17082" lon="-2.75347">
        <ele>157.39999389648</ele>
        <time>2021-10-15T13:54:08.000Z</time>
      </trkpt>
      <trkpt lat="48.17081" lon="-2.75353">
        <ele>157.39999389648</ele>
        <time>2021-10-15T13:54:09.000Z</time>
      </trkpt>
      <trkpt lat="48.1708" lon="-2.75364">
        <ele>157.60000610352</ele>
        <time>2021-10-15T13:54:10.000Z</time>
      </trkpt>
      <trkpt lat="48.1708" lon="-2.75364">
        <ele>157.60000610352</ele>
        <time>2021-10-15T13:54:11.000Z</time>
      </trkpt>
      <trkpt lat="48.17079" lon="-2.75369">
        <ele>157.60000610352</ele>
        <time>2021-10-15T13:54:12.000Z</time>
      </trkpt>
      <trkpt lat="48.17079" lon="-2.75375">
        <ele>157.39999389648</ele>
        <time>2021-10-15T13:54:13.000Z</time>
      </trkpt>
      <trkpt lat="48.17078" lon="-2.75385">
        <ele>157</ele>
        <time>2021-10-15T13:54:14.000Z</time>
      </trkpt>
      <trkpt lat="48.17078" lon="-2.75385">
        <ele>157</ele>
        <time>2021-10-15T13:54:15.000Z</time>
      </trkpt>
      <trkpt lat="48.17078" lon="-2.75391">
        <ele>157</ele>
        <time>2021-10-15T13:54:16.000Z</time>
      </trkpt>
      <trkpt lat="48.17077" lon="-2.75396">
        <ele>156.80000305176</ele>
        <time>2021-10-15T13:54:17.000Z</time>
      </trkpt>
      <trkpt lat="48.17077" lon="-2.75401">
        <ele>156.80000305176</ele>
        <time>2021-10-15T13:54:18.000Z</time>
      </trkpt>
      <trkpt lat="48.17077" lon="-2.75406">
        <ele>156.60000610352</ele>
        <time>2021-10-15T13:54:19.000Z</time>
      </trkpt>
      <trkpt lat="48.17077" lon="-2.7541">
        <ele>156.39999389648</ele>
        <time>2021-10-15T13:54:20.000Z</time>
      </trkpt>
      <trkpt lat="48.17077" lon="-2.75414">
        <ele>156.19999694824</ele>
        <time>2021-10-15T13:54:21.000Z</time>
      </trkpt>
      <trkpt lat="48.17079" lon="-2.75419">
        <ele>156</ele>
        <time>2021-10-15T13:54:22.000Z</time>
      </trkpt>
      <trkpt lat="48.17079" lon="-2.75419">
        <ele>156</ele>
        <time>2021-10-15T13:54:23.000Z</time>
      </trkpt>
      <trkpt lat="48.17081" lon="-2.75422">
        <ele>155.80000305176</ele>
        <time>2021-10-15T13:54:24.000Z</time>
      </trkpt>
      <trkpt lat="48.17081" lon="-2.75424">
        <ele>155.80000305176</ele>
        <time>2021-10-15T13:54:25.000Z</time>
      </trkpt>
      <trkpt lat="48.17082" lon="-2.75426">
        <ele>155.60000610352</ele>
        <time>2021-10-15T13:54:26.000Z</time>
      </trkpt>
      <trkpt lat="48.17082" lon="-2.75426">
        <ele>155.60000610352</ele>
        <time>2021-10-15T13:54:27.000Z</time>
      </trkpt>
      <trkpt lat="48.17082" lon="-2.75426">
        <ele>155.60000610352</ele>
        <time>2021-10-15T13:54:28.000Z</time>
      </trkpt>
      <trkpt lat="48.17082" lon="-2.75425">
        <ele>155.60000610352</ele>
        <time>2021-10-15T13:54:29.000Z</time>
      </trkpt>
      <trkpt lat="48.17082" lon="-2.75425">
        <ele>155.60000610352</ele>
        <time>2021-10-15T13:54:30.000Z</time>
      </trkpt>
      <trkpt lat="48.17083" lon="-2.75424">
        <ele>155.60000610352</ele>
        <time>2021-10-15T13:54:31.000Z</time>
      </trkpt>
      <trkpt lat="48.17083" lon="-2.75424">
        <ele>155.60000610352</ele>
        <time>2021-10-15T13:54:32.000Z</time>
      </trkpt>
      <trkpt lat="48.17083" lon="-2.75424">
        <ele>155.60000610352</ele>
        <time>2021-10-15T13:54:33.000Z</time>
      </trkpt>
      <trkpt lat="48.17083" lon="-2.75424">
        <ele>155.60000610352</ele>
        <time>2021-10-15T13:54:34.000Z</time>
      </trkpt>
      <trkpt lat="48.17083" lon="-2.75424">
        <ele>155.60000610352</ele>
        <time>2021-10-15T13:54:35.000Z</time>
      </trkpt>
      <trkpt lat="48.17083" lon="-2.75424">
        <ele>155.60000610352</ele>
        <time>2021-10-15T13:54:36.000Z</time>
      </trkpt>
      <trkpt lat="48.17083" lon="-2.75424">
        <ele>155.60000610352</ele>
        <time>2021-10-15T13:54:37.000Z</time>
      </trkpt>
      <trkpt lat="48.17083" lon="-2.75424">
        <ele>155.60000610352</ele>
        <time>2021-10-15T13:54:38.000Z</time>
      </trkpt>
      <trkpt lat="48.17083" lon="-2.75424">
        <ele>155.60000610352</ele>
        <time>2021-10-15T13:54:39.000Z</time>
      </trkpt>
      <trkpt lat="48.17083" lon="-2.75424">
        <ele>155.60000610352</ele>
        <time>2021-10-15T13:54:40.000Z</time>
      </trkpt>
      <trkpt lat="48.17083" lon="-2.75427">
        <ele>155.60000610352</ele>
        <time>2021-10-15T13:54:41.000Z</time>
      </trkpt>
      <trkpt lat="48.17084" lon="-2.75434">
        <ele>155.19999694824</ele>
        <time>2021-10-15T13:54:42.000Z</time>
      </trkpt>
      <trkpt lat="48.17084" lon="-2.75434">
        <ele>155.19999694824</ele>
        <time>2021-10-15T13:54:43.000Z</time>
      </trkpt>
      <trkpt lat="48.17084" lon="-2.75438">
        <ele>155.19999694824</ele>
        <time>2021-10-15T13:54:44.000Z</time>
      </trkpt>
      <trkpt lat="48.17084" lon="-2.75441">
        <ele>155</ele>
        <time>2021-10-15T13:54:45.000Z</time>
      </trkpt>
      <trkpt lat="48.17083" lon="-2.75444">
        <ele>155</ele>
        <time>2021-10-15T13:54:46.000Z</time>
      </trkpt>
      <trkpt lat="48.17083" lon="-2.75446">
        <ele>154.80000305176</ele>
        <time>2021-10-15T13:54:47.000Z</time>
      </trkpt>
      <trkpt lat="48.17082" lon="-2.75449">
        <ele>154.80000305176</ele>
        <time>2021-10-15T13:54:48.000Z</time>
      </trkpt>
      <trkpt lat="48.17081" lon="-2.75453">
        <ele>154.60000610352</ele>
        <time>2021-10-15T13:54:49.000Z</time>
      </trkpt>
      <trkpt lat="48.17081" lon="-2.75453">
        <ele>154.60000610352</ele>
        <time>2021-10-15T13:54:50.000Z</time>
      </trkpt>
      <trkpt lat="48.1708" lon="-2.75456">
        <ele>154.60000610352</ele>
        <time>2021-10-15T13:54:51.000Z</time>
      </trkpt>
      <trkpt lat="48.1708" lon="-2.75458">
        <ele>154.60000610352</ele>
        <time>2021-10-15T13:54:52.000Z</time>
      </trkpt>
      <trkpt lat="48.17079" lon="-2.75461">
        <ele>154.39999389648</ele>
        <time>2021-10-15T13:54:53.000Z</time>
      </trkpt>
      <trkpt lat="48.17079" lon="-2.75463">
        <ele>154.39999389648</ele>
        <time>2021-10-15T13:54:54.000Z</time>
      </trkpt>
      <trkpt lat="48.17078" lon="-2.75466">
        <ele>154.39999389648</ele>
        <time>2021-10-15T13:54:55.000Z</time>
      </trkpt>
      <trkpt lat="48.17077" lon="-2.75469">
        <ele>154.19999694824</ele>
        <time>2021-10-15T13:54:56.000Z</time>
      </trkpt>
      <trkpt lat="48.17076" lon="-2.75471">
        <ele>154.19999694824</ele>
        <time>2021-10-15T13:54:57.000Z</time>
      </trkpt>
      <trkpt lat="48.17075" lon="-2.75474">
        <ele>154.19999694824</ele>
        <time>2021-10-15T13:54:58.000Z</time>
      </trkpt>
      <trkpt lat="48.17074" lon="-2.75481">
        <ele>154</ele>
        <time>2021-10-15T13:54:59.000Z</time>
      </trkpt>
      <trkpt lat="48.17074" lon="-2.75481">
        <ele>154</ele>
        <time>2021-10-15T13:55:00.000Z</time>
      </trkpt>
      <trkpt lat="48.17074" lon="-2.75484">
        <ele>154</ele>
        <time>2021-10-15T13:55:01.000Z</time>
      </trkpt>
      <trkpt lat="48.17072" lon="-2.7549">
        <ele>154</ele>
        <time>2021-10-15T13:55:02.000Z</time>
      </trkpt>
      <trkpt lat="48.17071" lon="-2.75493">
        <ele>153.80000305176</ele>
        <time>2021-10-15T13:55:03.000Z</time>
      </trkpt>
      <trkpt lat="48.17071" lon="-2.75493">
        <ele>153.80000305176</ele>
        <time>2021-10-15T13:55:04.000Z</time>
      </trkpt>
      <trkpt lat="48.17071" lon="-2.75495">
        <ele>153.80000305176</ele>
        <time>2021-10-15T13:55:05.000Z</time>
      </trkpt>
      <trkpt lat="48.17071" lon="-2.75498">
        <ele>153.80000305176</ele>
        <time>2021-10-15T13:55:06.000Z</time>
      </trkpt>
      <trkpt lat="48.17071" lon="-2.755">
        <ele>153.80000305176</ele>
        <time>2021-10-15T13:55:07.000Z</time>
      </trkpt>
      <trkpt lat="48.17071" lon="-2.75503">
        <ele>153.80000305176</ele>
        <time>2021-10-15T13:55:08.000Z</time>
      </trkpt>
      <trkpt lat="48.17072" lon="-2.75506">
        <ele>154</ele>
        <time>2021-10-15T13:55:09.000Z</time>
      </trkpt>
      <trkpt lat="48.17073" lon="-2.75509">
        <ele>154</ele>
        <time>2021-10-15T13:55:10.000Z</time>
      </trkpt>
      <trkpt lat="48.17075" lon="-2.75511">
        <ele>153.80000305176</ele>
        <time>2021-10-15T13:55:11.000Z</time>
      </trkpt>
      <trkpt lat="48.17079" lon="-2.75516">
        <ele>153.60000610352</ele>
        <time>2021-10-15T13:55:12.000Z</time>
      </trkpt>
      <trkpt lat="48.17079" lon="-2.75516">
        <ele>153.60000610352</ele>
        <time>2021-10-15T13:55:13.000Z</time>
      </trkpt>
      <trkpt lat="48.17081" lon="-2.75519">
        <ele>153.39999389648</ele>
        <time>2021-10-15T13:55:14.000Z</time>
      </trkpt>
      <trkpt lat="48.17083" lon="-2.75521">
        <ele>153.19999694824</ele>
        <time>2021-10-15T13:55:15.000Z</time>
      </trkpt>
      <trkpt lat="48.17086" lon="-2.75523">
        <ele>153</ele>
        <time>2021-10-15T13:55:16.000Z</time>
      </trkpt>
      <trkpt lat="48.17089" lon="-2.75526">
        <ele>153</ele>
        <time>2021-10-15T13:55:17.000Z</time>
      </trkpt>
      <trkpt lat="48.17092" lon="-2.75529">
        <ele>153</ele>
        <time>2021-10-15T13:55:18.000Z</time>
      </trkpt>
      <trkpt lat="48.17095" lon="-2.75532">
        <ele>153</ele>
        <time>2021-10-15T13:55:19.000Z</time>
      </trkpt>
      <trkpt lat="48.17098" lon="-2.75535">
        <ele>153</ele>
        <time>2021-10-15T13:55:20.000Z</time>
      </trkpt>
      <trkpt lat="48.17102" lon="-2.75539">
        <ele>153</ele>
        <time>2021-10-15T13:55:21.000Z</time>
      </trkpt>
      <trkpt lat="48.17108" lon="-2.75548">
        <ele>153</ele>
        <time>2021-10-15T13:55:22.000Z</time>
      </trkpt>
      <trkpt lat="48.17108" lon="-2.75548">
        <ele>153</ele>
        <time>2021-10-15T13:55:23.000Z</time>
      </trkpt>
      <trkpt lat="48.17111" lon="-2.75552">
        <ele>153</ele>
        <time>2021-10-15T13:55:24.000Z</time>
      </trkpt>
      <trkpt lat="48.17114" lon="-2.75556">
        <ele>153</ele>
        <time>2021-10-15T13:55:25.000Z</time>
      </trkpt>
      <trkpt lat="48.17121" lon="-2.75564">
        <ele>153</ele>
        <time>2021-10-15T13:55:26.000Z</time>
      </trkpt>
      <trkpt lat="48.17121" lon="-2.75564">
        <ele>153</ele>
        <time>2021-10-15T13:55:27.000Z</time>
      </trkpt>
      <trkpt lat="48.17127" lon="-2.75573">
        <ele>153.19999694824</ele>
        <time>2021-10-15T13:55:28.000Z</time>
      </trkpt>
      <trkpt lat="48.17127" lon="-2.75573">
        <ele>153.19999694824</ele>
        <time>2021-10-15T13:55:29.000Z</time>
      </trkpt>
      <trkpt lat="48.17131" lon="-2.75577">
        <ele>153.60000610352</ele>
        <time>2021-10-15T13:55:30.000Z</time>
      </trkpt>
      <trkpt lat="48.17134" lon="-2.75582">
        <ele>153.80000305176</ele>
        <time>2021-10-15T13:55:31.000Z</time>
      </trkpt>
      <trkpt lat="48.17137" lon="-2.75587">
        <ele>154.19999694824</ele>
        <time>2021-10-15T13:55:32.000Z</time>
      </trkpt>
      <trkpt lat="48.17141" lon="-2.75591">
        <ele>154.39999389648</ele>
        <time>2021-10-15T13:55:33.000Z</time>
      </trkpt>
      <trkpt lat="48.17147" lon="-2.756">
        <ele>154.60000610352</ele>
        <time>2021-10-15T13:55:34.000Z</time>
      </trkpt>
      <trkpt lat="48.17147" lon="-2.756">
        <ele>154.60000610352</ele>
        <time>2021-10-15T13:55:35.000Z</time>
      </trkpt>
      <trkpt lat="48.1715" lon="-2.75605">
        <ele>154.80000305176</ele>
        <time>2021-10-15T13:55:36.000Z</time>
      </trkpt>
      <trkpt lat="48.17154" lon="-2.7561">
        <ele>154.80000305176</ele>
        <time>2021-10-15T13:55:37.000Z</time>
      </trkpt>
      <trkpt lat="48.1716" lon="-2.75619">
        <ele>155.19999694824</ele>
        <time>2021-10-15T13:55:38.000Z</time>
      </trkpt>
      <trkpt lat="48.1716" lon="-2.75619">
        <ele>155.19999694824</ele>
        <time>2021-10-15T13:55:39.000Z</time>
      </trkpt>
      <trkpt lat="48.17163" lon="-2.75623">
        <ele>155.39999389648</ele>
        <time>2021-10-15T13:55:40.000Z</time>
      </trkpt>
      <trkpt lat="48.17166" lon="-2.75628">
        <ele>155.60000610352</ele>
        <time>2021-10-15T13:55:41.000Z</time>
      </trkpt>
      <trkpt lat="48.1717" lon="-2.75632">
        <ele>156</ele>
        <time>2021-10-15T13:55:42.000Z</time>
      </trkpt>
      <trkpt lat="48.17172" lon="-2.75636">
        <ele>156</ele>
        <time>2021-10-15T13:55:43.000Z</time>
      </trkpt>
      <trkpt lat="48.17178" lon="-2.75644">
        <ele>156</ele>
        <time>2021-10-15T13:55:44.000Z</time>
      </trkpt>
      <trkpt lat="48.17178" lon="-2.75644">
        <ele>156</ele>
        <time>2021-10-15T13:55:45.000Z</time>
      </trkpt>
      <trkpt lat="48.17184" lon="-2.75652">
        <ele>156</ele>
        <time>2021-10-15T13:55:46.000Z</time>
      </trkpt>
      <trkpt lat="48.17184" lon="-2.75652">
        <ele>156</ele>
        <time>2021-10-15T13:55:47.000Z</time>
      </trkpt>
      <trkpt lat="48.17187" lon="-2.75656">
        <ele>156</ele>
        <time>2021-10-15T13:55:48.000Z</time>
      </trkpt>
      <trkpt lat="48.17192" lon="-2.75664">
        <ele>155.80000305176</ele>
        <time>2021-10-15T13:55:49.000Z</time>
      </trkpt>
      <trkpt lat="48.17192" lon="-2.75664">
        <ele>155.80000305176</ele>
        <time>2021-10-15T13:55:50.000Z</time>
      </trkpt>
      <trkpt lat="48.17195" lon="-2.75668">
        <ele>155.80000305176</ele>
        <time>2021-10-15T13:55:51.000Z</time>
      </trkpt>
      <trkpt lat="48.17197" lon="-2.75672">
        <ele>156</ele>
        <time>2021-10-15T13:55:52.000Z</time>
      </trkpt>
      <trkpt lat="48.172" lon="-2.75676">
        <ele>156</ele>
        <time>2021-10-15T13:55:53.000Z</time>
      </trkpt>
      <trkpt lat="48.17203" lon="-2.7568">
        <ele>156</ele>
        <time>2021-10-15T13:55:54.000Z</time>
      </trkpt>
      <trkpt lat="48.17206" lon="-2.75684">
        <ele>156</ele>
        <time>2021-10-15T13:55:55.000Z</time>
      </trkpt>
      <trkpt lat="48.17209" lon="-2.75688">
        <ele>156</ele>
        <time>2021-10-15T13:55:56.000Z</time>
      </trkpt>
      <trkpt lat="48.17214" lon="-2.75695">
        <ele>156</ele>
        <time>2021-10-15T13:55:57.000Z</time>
      </trkpt>
      <trkpt lat="48.17214" lon="-2.75695">
        <ele>156</ele>
        <time>2021-10-15T13:55:58.000Z</time>
      </trkpt>
      <trkpt lat="48.17217" lon="-2.75699">
        <ele>156</ele>
        <time>2021-10-15T13:55:59.000Z</time>
      </trkpt>
      <trkpt lat="48.1722" lon="-2.75702">
        <ele>156</ele>
        <time>2021-10-15T13:56:00.000Z</time>
      </trkpt>
      <trkpt lat="48.17225" lon="-2.75709">
        <ele>156.19999694824</ele>
        <time>2021-10-15T13:56:01.000Z</time>
      </trkpt>
      <trkpt lat="48.17225" lon="-2.75709">
        <ele>156.19999694824</ele>
        <time>2021-10-15T13:56:02.000Z</time>
      </trkpt>
      <trkpt lat="48.17227" lon="-2.75712">
        <ele>156.39999389648</ele>
        <time>2021-10-15T13:56:03.000Z</time>
      </trkpt>
      <trkpt lat="48.1723" lon="-2.75716">
        <ele>156.39999389648</ele>
        <time>2021-10-15T13:56:04.000Z</time>
      </trkpt>
      <trkpt lat="48.17235" lon="-2.75722">
        <ele>156.19999694824</ele>
        <time>2021-10-15T13:56:05.000Z</time>
      </trkpt>
      <trkpt lat="48.17235" lon="-2.75722">
        <ele>156.19999694824</ele>
        <time>2021-10-15T13:56:06.000Z</time>
      </trkpt>
      <trkpt lat="48.1724" lon="-2.75729">
        <ele>156</ele>
        <time>2021-10-15T13:56:07.000Z</time>
      </trkpt>
      <trkpt lat="48.1724" lon="-2.75729">
        <ele>156</ele>
        <time>2021-10-15T13:56:08.000Z</time>
      </trkpt>
      <trkpt lat="48.17242" lon="-2.75733">
        <ele>156.19999694824</ele>
        <time>2021-10-15T13:56:09.000Z</time>
      </trkpt>
      <trkpt lat="48.17247" lon="-2.75739">
        <ele>157</ele>
        <time>2021-10-15T13:56:10.000Z</time>
      </trkpt>
      <trkpt lat="48.17247" lon="-2.75739">
        <ele>157</ele>
        <time>2021-10-15T13:56:11.000Z</time>
      </trkpt>
      <trkpt lat="48.17249" lon="-2.75742">
        <ele>157.19999694824</ele>
        <time>2021-10-15T13:56:12.000Z</time>
      </trkpt>
      <trkpt lat="48.17252" lon="-2.75745">
        <ele>157.60000610352</ele>
        <time>2021-10-15T13:56:13.000Z</time>
      </trkpt>
      <trkpt lat="48.17257" lon="-2.75751">
        <ele>158.19999694824</ele>
        <time>2021-10-15T13:56:14.000Z</time>
      </trkpt>
      <trkpt lat="48.17257" lon="-2.75751">
        <ele>158.19999694824</ele>
        <time>2021-10-15T13:56:15.000Z</time>
      </trkpt>
      <trkpt lat="48.17259" lon="-2.75753">
        <ele>158.39999389648</ele>
        <time>2021-10-15T13:56:16.000Z</time>
      </trkpt>
      <trkpt lat="48.17262" lon="-2.75756">
        <ele>158.60000610352</ele>
        <time>2021-10-15T13:56:17.000Z</time>
      </trkpt>
      <trkpt lat="48.17266" lon="-2.75762">
        <ele>159.19999694824</ele>
        <time>2021-10-15T13:56:18.000Z</time>
      </trkpt>
      <trkpt lat="48.17266" lon="-2.75762">
        <ele>159.19999694824</ele>
        <time>2021-10-15T13:56:19.000Z</time>
      </trkpt>
      <trkpt lat="48.17269" lon="-2.75765">
        <ele>159.19999694824</ele>
        <time>2021-10-15T13:56:20.000Z</time>
      </trkpt>
      <trkpt lat="48.17271" lon="-2.75768">
        <ele>159.19999694824</ele>
        <time>2021-10-15T13:56:21.000Z</time>
      </trkpt>
      <trkpt lat="48.17276" lon="-2.75775">
        <ele>159.39999389648</ele>
        <time>2021-10-15T13:56:22.000Z</time>
      </trkpt>
      <trkpt lat="48.17276" lon="-2.75775">
        <ele>159.39999389648</ele>
        <time>2021-10-15T13:56:23.000Z</time>
      </trkpt>
      <trkpt lat="48.17279" lon="-2.75777">
        <ele>159.39999389648</ele>
        <time>2021-10-15T13:56:24.000Z</time>
      </trkpt>
      <trkpt lat="48.17282" lon="-2.7578">
        <ele>159.39999389648</ele>
        <time>2021-10-15T13:56:25.000Z</time>
      </trkpt>
      <trkpt lat="48.17287" lon="-2.75786">
        <ele>159.39999389648</ele>
        <time>2021-10-15T13:56:26.000Z</time>
      </trkpt>
      <trkpt lat="48.17287" lon="-2.75786">
        <ele>159.39999389648</ele>
        <time>2021-10-15T13:56:27.000Z</time>
      </trkpt>
      <trkpt lat="48.17289" lon="-2.75789">
        <ele>159.19999694824</ele>
        <time>2021-10-15T13:56:28.000Z</time>
      </trkpt>
      <trkpt lat="48.17292" lon="-2.75792">
        <ele>159.19999694824</ele>
        <time>2021-10-15T13:56:29.000Z</time>
      </trkpt>
      <trkpt lat="48.17295" lon="-2.75795">
        <ele>159.39999389648</ele>
        <time>2021-10-15T13:56:30.000Z</time>
      </trkpt>
      <trkpt lat="48.17297" lon="-2.75798">
        <ele>159.39999389648</ele>
        <time>2021-10-15T13:56:31.000Z</time>
      </trkpt>
      <trkpt lat="48.173" lon="-2.75801">
        <ele>159.39999389648</ele>
        <time>2021-10-15T13:56:32.000Z</time>
      </trkpt>
      <trkpt lat="48.17302" lon="-2.75804">
        <ele>159.39999389648</ele>
        <time>2021-10-15T13:56:33.000Z</time>
      </trkpt>
      <trkpt lat="48.17305" lon="-2.75807">
        <ele>159.60000610352</ele>
        <time>2021-10-15T13:56:34.000Z</time>
      </trkpt>
      <trkpt lat="48.17307" lon="-2.7581">
        <ele>159.60000610352</ele>
        <time>2021-10-15T13:56:35.000Z</time>
      </trkpt>
      <trkpt lat="48.17309" lon="-2.75813">
        <ele>159.60000610352</ele>
        <time>2021-10-15T13:56:36.000Z</time>
      </trkpt>
      <trkpt lat="48.17312" lon="-2.75816">
        <ele>159.39999389648</ele>
        <time>2021-10-15T13:56:37.000Z</time>
      </trkpt>
      <trkpt lat="48.17314" lon="-2.75819">
        <ele>159.39999389648</ele>
        <time>2021-10-15T13:56:38.000Z</time>
      </trkpt>
      <trkpt lat="48.17317" lon="-2.75822">
        <ele>159.39999389648</ele>
        <time>2021-10-15T13:56:39.000Z</time>
      </trkpt>
      <trkpt lat="48.17319" lon="-2.75825">
        <ele>159.39999389648</ele>
        <time>2021-10-15T13:56:40.000Z</time>
      </trkpt>
      <trkpt lat="48.17322" lon="-2.75828">
        <ele>159.60000610352</ele>
        <time>2021-10-15T13:56:41.000Z</time>
      </trkpt>
      <trkpt lat="48.17324" lon="-2.75831">
        <ele>159.60000610352</ele>
        <time>2021-10-15T13:56:42.000Z</time>
      </trkpt>
      <trkpt lat="48.17327" lon="-2.75834">
        <ele>159.60000610352</ele>
        <time>2021-10-15T13:56:43.000Z</time>
      </trkpt>
      <trkpt lat="48.17329" lon="-2.75836">
        <ele>159.60000610352</ele>
        <time>2021-10-15T13:56:44.000Z</time>
      </trkpt>
      <trkpt lat="48.17332" lon="-2.75839">
        <ele>159.60000610352</ele>
        <time>2021-10-15T13:56:45.000Z</time>
      </trkpt>
      <trkpt lat="48.17334" lon="-2.75842">
        <ele>159.60000610352</ele>
        <time>2021-10-15T13:56:46.000Z</time>
      </trkpt>
      <trkpt lat="48.17336" lon="-2.75845">
        <ele>159.60000610352</ele>
        <time>2021-10-15T13:56:47.000Z</time>
      </trkpt>
      <trkpt lat="48.17339" lon="-2.75848">
        <ele>159.39999389648</ele>
        <time>2021-10-15T13:56:48.000Z</time>
      </trkpt>
      <trkpt lat="48.17341" lon="-2.7585">
        <ele>159.39999389648</ele>
        <time>2021-10-15T13:56:49.000Z</time>
      </trkpt>
      <trkpt lat="48.17346" lon="-2.75856">
        <ele>159.19999694824</ele>
        <time>2021-10-15T13:56:50.000Z</time>
      </trkpt>
      <trkpt lat="48.17346" lon="-2.75856">
        <ele>159.19999694824</ele>
        <time>2021-10-15T13:56:51.000Z</time>
      </trkpt>
      <trkpt lat="48.17349" lon="-2.75859">
        <ele>159.19999694824</ele>
        <time>2021-10-15T13:56:52.000Z</time>
      </trkpt>
      <trkpt lat="48.17354" lon="-2.75864">
        <ele>158.80000305176</ele>
        <time>2021-10-15T13:56:53.000Z</time>
      </trkpt>
      <trkpt lat="48.17354" lon="-2.75864">
        <ele>158.80000305176</ele>
        <time>2021-10-15T13:56:54.000Z</time>
      </trkpt>
      <trkpt lat="48.17357" lon="-2.75867">
        <ele>158.80000305176</ele>
        <time>2021-10-15T13:56:55.000Z</time>
      </trkpt>
      <trkpt lat="48.1736" lon="-2.7587">
        <ele>158.80000305176</ele>
        <time>2021-10-15T13:56:56.000Z</time>
      </trkpt>
      <trkpt lat="48.17363" lon="-2.75873">
        <ele>158.60000610352</ele>
        <time>2021-10-15T13:56:57.000Z</time>
      </trkpt>
      <trkpt lat="48.17365" lon="-2.75876">
        <ele>158.60000610352</ele>
        <time>2021-10-15T13:56:58.000Z</time>
      </trkpt>
      <trkpt lat="48.17368" lon="-2.75879">
        <ele>158.39999389648</ele>
        <time>2021-10-15T13:56:59.000Z</time>
      </trkpt>
      <trkpt lat="48.17371" lon="-2.75881">
        <ele>158.39999389648</ele>
        <time>2021-10-15T13:57:00.000Z</time>
      </trkpt>
      <trkpt lat="48.17373" lon="-2.75884">
        <ele>158.60000610352</ele>
        <time>2021-10-15T13:57:01.000Z</time>
      </trkpt>
      <trkpt lat="48.17379" lon="-2.75889">
        <ele>158.80000305176</ele>
        <time>2021-10-15T13:57:02.000Z</time>
      </trkpt>
      <trkpt lat="48.17379" lon="-2.75889">
        <ele>158.80000305176</ele>
        <time>2021-10-15T13:57:03.000Z</time>
      </trkpt>
      <trkpt lat="48.17382" lon="-2.75892">
        <ele>158.80000305176</ele>
        <time>2021-10-15T13:57:04.000Z</time>
      </trkpt>
      <trkpt lat="48.17385" lon="-2.75895">
        <ele>159</ele>
        <time>2021-10-15T13:57:05.000Z</time>
      </trkpt>
      <trkpt lat="48.17388" lon="-2.75898">
        <ele>159.19999694824</ele>
        <time>2021-10-15T13:57:06.000Z</time>
      </trkpt>
      <trkpt lat="48.17391" lon="-2.759">
        <ele>159.39999389648</ele>
        <time>2021-10-15T13:57:07.000Z</time>
      </trkpt>
      <trkpt lat="48.17394" lon="-2.75903">
        <ele>159.60000610352</ele>
        <time>2021-10-15T13:57:08.000Z</time>
      </trkpt>
      <trkpt lat="48.17397" lon="-2.75906">
        <ele>159.60000610352</ele>
        <time>2021-10-15T13:57:09.000Z</time>
      </trkpt>
      <trkpt lat="48.174" lon="-2.75909">
        <ele>159.80000305176</ele>
        <time>2021-10-15T13:57:10.000Z</time>
      </trkpt>
      <trkpt lat="48.17406" lon="-2.75914">
        <ele>160.60000610352</ele>
        <time>2021-10-15T13:57:11.000Z</time>
      </trkpt>
      <trkpt lat="48.17406" lon="-2.75914">
        <ele>160.60000610352</ele>
        <time>2021-10-15T13:57:12.000Z</time>
      </trkpt>
      <trkpt lat="48.17409" lon="-2.75917">
        <ele>160.80000305176</ele>
        <time>2021-10-15T13:57:13.000Z</time>
      </trkpt>
      <trkpt lat="48.17415" lon="-2.75922">
        <ele>160.80000305176</ele>
        <time>2021-10-15T13:57:14.000Z</time>
      </trkpt>
      <trkpt lat="48.17415" lon="-2.75922">
        <ele>160.80000305176</ele>
        <time>2021-10-15T13:57:15.000Z</time>
      </trkpt>
      <trkpt lat="48.17418" lon="-2.75925">
        <ele>160.60000610352</ele>
        <time>2021-10-15T13:57:16.000Z</time>
      </trkpt>
      <trkpt lat="48.17421" lon="-2.75927">
        <ele>160.39999389648</ele>
        <time>2021-10-15T13:57:17.000Z</time>
      </trkpt>
      <trkpt lat="48.17427" lon="-2.75932">
        <ele>160</ele>
        <time>2021-10-15T13:57:18.000Z</time>
      </trkpt>
      <trkpt lat="48.17427" lon="-2.75932">
        <ele>160</ele>
        <time>2021-10-15T13:57:19.000Z</time>
      </trkpt>
      <trkpt lat="48.1743" lon="-2.75934">
        <ele>160.19999694824</ele>
        <time>2021-10-15T13:57:20.000Z</time>
      </trkpt>
      <trkpt lat="48.17433" lon="-2.75937">
        <ele>160.39999389648</ele>
        <time>2021-10-15T13:57:21.000Z</time>
      </trkpt>
      <trkpt lat="48.17436" lon="-2.75939">
        <ele>160.60000610352</ele>
        <time>2021-10-15T13:57:22.000Z</time>
      </trkpt>
      <trkpt lat="48.17439" lon="-2.75942">
        <ele>160.80000305176</ele>
        <time>2021-10-15T13:57:23.000Z</time>
      </trkpt>
      <trkpt lat="48.17443" lon="-2.75944">
        <ele>161</ele>
        <time>2021-10-15T13:57:24.000Z</time>
      </trkpt>
      <trkpt lat="48.17446" lon="-2.75947">
        <ele>161</ele>
        <time>2021-10-15T13:57:25.000Z</time>
      </trkpt>
      <trkpt lat="48.17449" lon="-2.75949">
        <ele>161</ele>
        <time>2021-10-15T13:57:26.000Z</time>
      </trkpt>
      <trkpt lat="48.17455" lon="-2.75954">
        <ele>161</ele>
        <time>2021-10-15T13:57:27.000Z</time>
      </trkpt>
      <trkpt lat="48.17455" lon="-2.75954">
        <ele>161</ele>
        <time>2021-10-15T13:57:28.000Z</time>
      </trkpt>
      <trkpt lat="48.17458" lon="-2.75956">
        <ele>161</ele>
        <time>2021-10-15T13:57:29.000Z</time>
      </trkpt>
      <trkpt lat="48.17464" lon="-2.75961">
        <ele>161.39999389648</ele>
        <time>2021-10-15T13:57:30.000Z</time>
      </trkpt>
      <trkpt lat="48.17464" lon="-2.75961">
        <ele>161.39999389648</ele>
        <time>2021-10-15T13:57:31.000Z</time>
      </trkpt>
      <trkpt lat="48.17467" lon="-2.75963">
        <ele>161.60000610352</ele>
        <time>2021-10-15T13:57:32.000Z</time>
      </trkpt>
      <trkpt lat="48.17472" lon="-2.75968">
        <ele>162.19999694824</ele>
        <time>2021-10-15T13:57:33.000Z</time>
      </trkpt>
      <trkpt lat="48.17472" lon="-2.75968">
        <ele>162.19999694824</ele>
        <time>2021-10-15T13:57:34.000Z</time>
      </trkpt>
      <trkpt lat="48.17475" lon="-2.75971">
        <ele>162.39999389648</ele>
        <time>2021-10-15T13:57:35.000Z</time>
      </trkpt>
      <trkpt lat="48.17478" lon="-2.75973">
        <ele>162.60000610352</ele>
        <time>2021-10-15T13:57:36.000Z</time>
      </trkpt>
      <trkpt lat="48.17481" lon="-2.75975">
        <ele>162.60000610352</ele>
        <time>2021-10-15T13:57:37.000Z</time>
      </trkpt>
      <trkpt lat="48.17484" lon="-2.75978">
        <ele>162.80000305176</ele>
        <time>2021-10-15T13:57:38.000Z</time>
      </trkpt>
      <trkpt lat="48.17487" lon="-2.7598">
        <ele>162.80000305176</ele>
        <time>2021-10-15T13:57:39.000Z</time>
      </trkpt>
      <trkpt lat="48.1749" lon="-2.75982">
        <ele>163</ele>
        <time>2021-10-15T13:57:40.000Z</time>
      </trkpt>
      <trkpt lat="48.17493" lon="-2.75984">
        <ele>163.19999694824</ele>
        <time>2021-10-15T13:57:41.000Z</time>
      </trkpt>
      <trkpt lat="48.17495" lon="-2.75986">
        <ele>163.60000610352</ele>
        <time>2021-10-15T13:57:42.000Z</time>
      </trkpt>
      <trkpt lat="48.17499" lon="-2.75988">
        <ele>163.80000305176</ele>
        <time>2021-10-15T13:57:43.000Z</time>
      </trkpt>
      <trkpt lat="48.17502" lon="-2.75989">
        <ele>164.19999694824</ele>
        <time>2021-10-15T13:57:44.000Z</time>
      </trkpt>
      <trkpt lat="48.17505" lon="-2.75991">
        <ele>164.39999389648</ele>
        <time>2021-10-15T13:57:45.000Z</time>
      </trkpt>
      <trkpt lat="48.17508" lon="-2.75993">
        <ele>164.60000610352</ele>
        <time>2021-10-15T13:57:46.000Z</time>
      </trkpt>
      <trkpt lat="48.1751" lon="-2.75995">
        <ele>165</ele>
        <time>2021-10-15T13:57:47.000Z</time>
      </trkpt>
      <trkpt lat="48.17513" lon="-2.75997">
        <ele>165.19999694824</ele>
        <time>2021-10-15T13:57:48.000Z</time>
      </trkpt>
      <trkpt lat="48.17516" lon="-2.75999">
        <ele>165.60000610352</ele>
        <time>2021-10-15T13:57:49.000Z</time>
      </trkpt>
      <trkpt lat="48.17519" lon="-2.76002">
        <ele>165.80000305176</ele>
        <time>2021-10-15T13:57:50.000Z</time>
      </trkpt>
      <trkpt lat="48.17521" lon="-2.76004">
        <ele>166</ele>
        <time>2021-10-15T13:57:51.000Z</time>
      </trkpt>
      <trkpt lat="48.17524" lon="-2.76006">
        <ele>166.19999694824</ele>
        <time>2021-10-15T13:57:52.000Z</time>
      </trkpt>
      <trkpt lat="48.17527" lon="-2.76008">
        <ele>166.19999694824</ele>
        <time>2021-10-15T13:57:53.000Z</time>
      </trkpt>
      <trkpt lat="48.17529" lon="-2.7601">
        <ele>166.39999389648</ele>
        <time>2021-10-15T13:57:54.000Z</time>
      </trkpt>
      <trkpt lat="48.17532" lon="-2.76012">
        <ele>166.39999389648</ele>
        <time>2021-10-15T13:57:55.000Z</time>
      </trkpt>
      <trkpt lat="48.17535" lon="-2.76014">
        <ele>166.60000610352</ele>
        <time>2021-10-15T13:57:56.000Z</time>
      </trkpt>
      <trkpt lat="48.17538" lon="-2.76016">
        <ele>166.60000610352</ele>
        <time>2021-10-15T13:57:57.000Z</time>
      </trkpt>
      <trkpt lat="48.17541" lon="-2.76018">
        <ele>166.80000305176</ele>
        <time>2021-10-15T13:57:58.000Z</time>
      </trkpt>
      <trkpt lat="48.17547" lon="-2.76023">
        <ele>167</ele>
        <time>2021-10-15T13:57:59.000Z</time>
      </trkpt>
      <trkpt lat="48.17547" lon="-2.76023">
        <ele>167</ele>
        <time>2021-10-15T13:58:00.000Z</time>
      </trkpt>
      <trkpt lat="48.1755" lon="-2.76025">
        <ele>167.19999694824</ele>
        <time>2021-10-15T13:58:01.000Z</time>
      </trkpt>
      <trkpt lat="48.17555" lon="-2.76029">
        <ele>167.19999694824</ele>
        <time>2021-10-15T13:58:02.000Z</time>
      </trkpt>
      <trkpt lat="48.17555" lon="-2.76029">
        <ele>167.19999694824</ele>
        <time>2021-10-15T13:58:03.000Z</time>
      </trkpt>
      <trkpt lat="48.17557" lon="-2.76031">
        <ele>167.39999389648</ele>
        <time>2021-10-15T13:58:04.000Z</time>
      </trkpt>
      <trkpt lat="48.1756" lon="-2.76033">
        <ele>167.39999389648</ele>
        <time>2021-10-15T13:58:05.000Z</time>
      </trkpt>
      <trkpt lat="48.17562" lon="-2.76035">
        <ele>167.60000610352</ele>
        <time>2021-10-15T13:58:06.000Z</time>
      </trkpt>
      <trkpt lat="48.17565" lon="-2.76038">
        <ele>167.60000610352</ele>
        <time>2021-10-15T13:58:07.000Z</time>
      </trkpt>
      <trkpt lat="48.17567" lon="-2.7604">
        <ele>167.60000610352</ele>
        <time>2021-10-15T13:58:08.000Z</time>
      </trkpt>
      <trkpt lat="48.1757" lon="-2.76042">
        <ele>167.60000610352</ele>
        <time>2021-10-15T13:58:09.000Z</time>
      </trkpt>
      <trkpt lat="48.17573" lon="-2.76044">
        <ele>167.60000610352</ele>
        <time>2021-10-15T13:58:10.000Z</time>
      </trkpt>
      <trkpt lat="48.17575" lon="-2.76046">
        <ele>167.60000610352</ele>
        <time>2021-10-15T13:58:11.000Z</time>
      </trkpt>
      <trkpt lat="48.17577" lon="-2.76048">
        <ele>167.60000610352</ele>
        <time>2021-10-15T13:58:12.000Z</time>
      </trkpt>
      <trkpt lat="48.17579" lon="-2.76049">
        <ele>167.39999389648</ele>
        <time>2021-10-15T13:58:13.000Z</time>
      </trkpt>
      <trkpt lat="48.17581" lon="-2.7605">
        <ele>167.39999389648</ele>
        <time>2021-10-15T13:58:14.000Z</time>
      </trkpt>
      <trkpt lat="48.17582" lon="-2.7605">
        <ele>167.39999389648</ele>
        <time>2021-10-15T13:58:15.000Z</time>
      </trkpt>
      <trkpt lat="48.17583" lon="-2.76051">
        <ele>167.39999389648</ele>
        <time>2021-10-15T13:58:16.000Z</time>
      </trkpt>
      <trkpt lat="48.17584" lon="-2.76051">
        <ele>167.39999389648</ele>
        <time>2021-10-15T13:58:17.000Z</time>
      </trkpt>
      <trkpt lat="48.17586" lon="-2.76051">
        <ele>167.39999389648</ele>
        <time>2021-10-15T13:58:18.000Z</time>
      </trkpt>
      <trkpt lat="48.17587" lon="-2.76052">
        <ele>167.39999389648</ele>
        <time>2021-10-15T13:58:19.000Z</time>
      </trkpt>
      <trkpt lat="48.17589" lon="-2.76054">
        <ele>167.39999389648</ele>
        <time>2021-10-15T13:58:20.000Z</time>
      </trkpt>
      <trkpt lat="48.17591" lon="-2.76057">
        <ele>167.19999694824</ele>
        <time>2021-10-15T13:58:21.000Z</time>
      </trkpt>
      <trkpt lat="48.17597" lon="-2.76062">
        <ele>167</ele>
        <time>2021-10-15T13:58:22.000Z</time>
      </trkpt>
      <trkpt lat="48.17597" lon="-2.76062">
        <ele>167</ele>
        <time>2021-10-15T13:58:23.000Z</time>
      </trkpt>
      <trkpt lat="48.176" lon="-2.76064">
        <ele>167</ele>
        <time>2021-10-15T13:58:24.000Z</time>
      </trkpt>
      <trkpt lat="48.17602" lon="-2.76066">
        <ele>167</ele>
        <time>2021-10-15T13:58:25.000Z</time>
      </trkpt>
      <trkpt lat="48.17605" lon="-2.76068">
        <ele>167</ele>
        <time>2021-10-15T13:58:26.000Z</time>
      </trkpt>
      <trkpt lat="48.17608" lon="-2.76069">
        <ele>167.19999694824</ele>
        <time>2021-10-15T13:58:27.000Z</time>
      </trkpt>
      <trkpt lat="48.17611" lon="-2.76071">
        <ele>167.39999389648</ele>
        <time>2021-10-15T13:58:28.000Z</time>
      </trkpt>
      <trkpt lat="48.17614" lon="-2.76073">
        <ele>167.60000610352</ele>
        <time>2021-10-15T13:58:29.000Z</time>
      </trkpt>
      <trkpt lat="48.17617" lon="-2.76074">
        <ele>167.60000610352</ele>
        <time>2021-10-15T13:58:30.000Z</time>
      </trkpt>
      <trkpt lat="48.17621" lon="-2.76076">
        <ele>167.80000305176</ele>
        <time>2021-10-15T13:58:31.000Z</time>
      </trkpt>
      <trkpt lat="48.17624" lon="-2.76077">
        <ele>168</ele>
        <time>2021-10-15T13:58:32.000Z</time>
      </trkpt>
      <trkpt lat="48.17627" lon="-2.76079">
        <ele>168.19999694824</ele>
        <time>2021-10-15T13:58:33.000Z</time>
      </trkpt>
      <trkpt lat="48.1763" lon="-2.7608">
        <ele>168.39999389648</ele>
        <time>2021-10-15T13:58:34.000Z</time>
      </trkpt>
      <trkpt lat="48.17633" lon="-2.76082">
        <ele>168.39999389648</ele>
        <time>2021-10-15T13:58:35.000Z</time>
      </trkpt>
      <trkpt lat="48.17636" lon="-2.76084">
        <ele>168.60000610352</ele>
        <time>2021-10-15T13:58:36.000Z</time>
      </trkpt>
      <trkpt lat="48.17639" lon="-2.76086">
        <ele>168.80000305176</ele>
        <time>2021-10-15T13:58:37.000Z</time>
      </trkpt>
      <trkpt lat="48.17642" lon="-2.76088">
        <ele>169</ele>
        <time>2021-10-15T13:58:38.000Z</time>
      </trkpt>
      <trkpt lat="48.17645" lon="-2.7609">
        <ele>169</ele>
        <time>2021-10-15T13:58:39.000Z</time>
      </trkpt>
      <trkpt lat="48.17648" lon="-2.76092">
        <ele>169.19999694824</ele>
        <time>2021-10-15T13:58:40.000Z</time>
      </trkpt>
      <trkpt lat="48.17651" lon="-2.76094">
        <ele>169.39999389648</ele>
        <time>2021-10-15T13:58:41.000Z</time>
      </trkpt>
      <trkpt lat="48.17654" lon="-2.76096">
        <ele>169.39999389648</ele>
        <time>2021-10-15T13:58:42.000Z</time>
      </trkpt>
      <trkpt lat="48.17657" lon="-2.76098">
        <ele>169.39999389648</ele>
        <time>2021-10-15T13:58:43.000Z</time>
      </trkpt>
      <trkpt lat="48.17664" lon="-2.76102">
        <ele>169.39999389648</ele>
        <time>2021-10-15T13:58:44.000Z</time>
      </trkpt>
      <trkpt lat="48.17664" lon="-2.76102">
        <ele>169.39999389648</ele>
        <time>2021-10-15T13:58:45.000Z</time>
      </trkpt>
      <trkpt lat="48.17667" lon="-2.76104">
        <ele>169.39999389648</ele>
        <time>2021-10-15T13:58:46.000Z</time>
      </trkpt>
      <trkpt lat="48.17671" lon="-2.76106">
        <ele>169.39999389648</ele>
        <time>2021-10-15T13:58:47.000Z</time>
      </trkpt>
      <trkpt lat="48.17674" lon="-2.76107">
        <ele>169.39999389648</ele>
        <time>2021-10-15T13:58:48.000Z</time>
      </trkpt>
      <trkpt lat="48.17678" lon="-2.76109">
        <ele>169.39999389648</ele>
        <time>2021-10-15T13:58:49.000Z</time>
      </trkpt>
      <trkpt lat="48.17681" lon="-2.76111">
        <ele>169.39999389648</ele>
        <time>2021-10-15T13:58:50.000Z</time>
      </trkpt>
      <trkpt lat="48.17684" lon="-2.76113">
        <ele>169.39999389648</ele>
        <time>2021-10-15T13:58:51.000Z</time>
      </trkpt>
      <trkpt lat="48.17688" lon="-2.76115">
        <ele>169.19999694824</ele>
        <time>2021-10-15T13:58:52.000Z</time>
      </trkpt>
      <trkpt lat="48.17695" lon="-2.76119">
        <ele>169</ele>
        <time>2021-10-15T13:58:53.000Z</time>
      </trkpt>
      <trkpt lat="48.17695" lon="-2.76119">
        <ele>169</ele>
        <time>2021-10-15T13:58:54.000Z</time>
      </trkpt>
      <trkpt lat="48.17698" lon="-2.76121">
        <ele>169</ele>
        <time>2021-10-15T13:58:55.000Z</time>
      </trkpt>
      <trkpt lat="48.17701" lon="-2.76123">
        <ele>168.80000305176</ele>
        <time>2021-10-15T13:58:56.000Z</time>
      </trkpt>
      <trkpt lat="48.17705" lon="-2.76125">
        <ele>168.80000305176</ele>
        <time>2021-10-15T13:58:57.000Z</time>
      </trkpt>
      <trkpt lat="48.17708" lon="-2.76127">
        <ele>168.80000305176</ele>
        <time>2021-10-15T13:58:58.000Z</time>
      </trkpt>
      <trkpt lat="48.17712" lon="-2.76129">
        <ele>168.60000610352</ele>
        <time>2021-10-15T13:58:59.000Z</time>
      </trkpt>
      <trkpt lat="48.17716" lon="-2.76131">
        <ele>168.60000610352</ele>
        <time>2021-10-15T13:59:00.000Z</time>
      </trkpt>
      <trkpt lat="48.17719" lon="-2.76134">
        <ele>168.39999389648</ele>
        <time>2021-10-15T13:59:01.000Z</time>
      </trkpt>
      <trkpt lat="48.17727" lon="-2.76137">
        <ele>168.39999389648</ele>
        <time>2021-10-15T13:59:02.000Z</time>
      </trkpt>
      <trkpt lat="48.1773" lon="-2.76139">
        <ele>168.60000610352</ele>
        <time>2021-10-15T13:59:03.000Z</time>
      </trkpt>
      <trkpt lat="48.1773" lon="-2.76139">
        <ele>168.60000610352</ele>
        <time>2021-10-15T13:59:04.000Z</time>
      </trkpt>
      <trkpt lat="48.17734" lon="-2.7614">
        <ele>168.80000305176</ele>
        <time>2021-10-15T13:59:05.000Z</time>
      </trkpt>
      <trkpt lat="48.17737" lon="-2.76142">
        <ele>168.80000305176</ele>
        <time>2021-10-15T13:59:06.000Z</time>
      </trkpt>
      <trkpt lat="48.17741" lon="-2.76144">
        <ele>169</ele>
        <time>2021-10-15T13:59:07.000Z</time>
      </trkpt>
      <trkpt lat="48.17744" lon="-2.76146">
        <ele>169</ele>
        <time>2021-10-15T13:59:08.000Z</time>
      </trkpt>
      <trkpt lat="48.17748" lon="-2.76148">
        <ele>169</ele>
        <time>2021-10-15T13:59:09.000Z</time>
      </trkpt>
      <trkpt lat="48.17751" lon="-2.7615">
        <ele>168.80000305176</ele>
        <time>2021-10-15T13:59:10.000Z</time>
      </trkpt>
      <trkpt lat="48.17754" lon="-2.76152">
        <ele>168.80000305176</ele>
        <time>2021-10-15T13:59:11.000Z</time>
      </trkpt>
      <trkpt lat="48.17757" lon="-2.76154">
        <ele>168.80000305176</ele>
        <time>2021-10-15T13:59:12.000Z</time>
      </trkpt>
      <trkpt lat="48.1776" lon="-2.76156">
        <ele>168.60000610352</ele>
        <time>2021-10-15T13:59:13.000Z</time>
      </trkpt>
      <trkpt lat="48.17766" lon="-2.7616">
        <ele>169</ele>
        <time>2021-10-15T13:59:14.000Z</time>
      </trkpt>
      <trkpt lat="48.17766" lon="-2.7616">
        <ele>169</ele>
        <time>2021-10-15T13:59:15.000Z</time>
      </trkpt>
      <trkpt lat="48.1777" lon="-2.76162">
        <ele>169</ele>
        <time>2021-10-15T13:59:16.000Z</time>
      </trkpt>
      <trkpt lat="48.17773" lon="-2.76165">
        <ele>169.19999694824</ele>
        <time>2021-10-15T13:59:17.000Z</time>
      </trkpt>
      <trkpt lat="48.17776" lon="-2.76168">
        <ele>169.39999389648</ele>
        <time>2021-10-15T13:59:18.000Z</time>
      </trkpt>
      <trkpt lat="48.17779" lon="-2.7617">
        <ele>169.39999389648</ele>
        <time>2021-10-15T13:59:19.000Z</time>
      </trkpt>
      <trkpt lat="48.17782" lon="-2.76173">
        <ele>169.60000610352</ele>
        <time>2021-10-15T13:59:20.000Z</time>
      </trkpt>
      <trkpt lat="48.17785" lon="-2.76175">
        <ele>169.60000610352</ele>
        <time>2021-10-15T13:59:21.000Z</time>
      </trkpt>
      <trkpt lat="48.17788" lon="-2.76177">
        <ele>169.80000305176</ele>
        <time>2021-10-15T13:59:22.000Z</time>
      </trkpt>
      <trkpt lat="48.17791" lon="-2.76179">
        <ele>169.80000305176</ele>
        <time>2021-10-15T13:59:23.000Z</time>
      </trkpt>
      <trkpt lat="48.17794" lon="-2.76181">
        <ele>169.80000305176</ele>
        <time>2021-10-15T13:59:24.000Z</time>
      </trkpt>
      <trkpt lat="48.17797" lon="-2.76183">
        <ele>169.60000610352</ele>
        <time>2021-10-15T13:59:25.000Z</time>
      </trkpt>
      <trkpt lat="48.178" lon="-2.76185">
        <ele>169.60000610352</ele>
        <time>2021-10-15T13:59:26.000Z</time>
      </trkpt>
      <trkpt lat="48.17803" lon="-2.76188">
        <ele>169.39999389648</ele>
        <time>2021-10-15T13:59:27.000Z</time>
      </trkpt>
      <trkpt lat="48.17809" lon="-2.76193">
        <ele>169.39999389648</ele>
        <time>2021-10-15T13:59:28.000Z</time>
      </trkpt>
      <trkpt lat="48.17809" lon="-2.76193">
        <ele>169.39999389648</ele>
        <time>2021-10-15T13:59:29.000Z</time>
      </trkpt>
      <trkpt lat="48.17813" lon="-2.76195">
        <ele>169.60000610352</ele>
        <time>2021-10-15T13:59:30.000Z</time>
      </trkpt>
      <trkpt lat="48.17819" lon="-2.76201">
        <ele>169.80000305176</ele>
        <time>2021-10-15T13:59:31.000Z</time>
      </trkpt>
      <trkpt lat="48.17819" lon="-2.76201">
        <ele>169.80000305176</ele>
        <time>2021-10-15T13:59:32.000Z</time>
      </trkpt>
      <trkpt lat="48.17822" lon="-2.76203">
        <ele>170</ele>
        <time>2021-10-15T13:59:33.000Z</time>
      </trkpt>
      <trkpt lat="48.17825" lon="-2.76206">
        <ele>169.80000305176</ele>
        <time>2021-10-15T13:59:34.000Z</time>
      </trkpt>
      <trkpt lat="48.17828" lon="-2.76209">
        <ele>169.60000610352</ele>
        <time>2021-10-15T13:59:35.000Z</time>
      </trkpt>
      <trkpt lat="48.17831" lon="-2.76211">
        <ele>169.39999389648</ele>
        <time>2021-10-15T13:59:36.000Z</time>
      </trkpt>
      <trkpt lat="48.17834" lon="-2.76214">
        <ele>169.19999694824</ele>
        <time>2021-10-15T13:59:37.000Z</time>
      </trkpt>
      <trkpt lat="48.17837" lon="-2.76217">
        <ele>169</ele>
        <time>2021-10-15T13:59:38.000Z</time>
      </trkpt>
      <trkpt lat="48.1784" lon="-2.76219">
        <ele>169</ele>
        <time>2021-10-15T13:59:39.000Z</time>
      </trkpt>
      <trkpt lat="48.17843" lon="-2.76222">
        <ele>169</ele>
        <time>2021-10-15T13:59:40.000Z</time>
      </trkpt>
      <trkpt lat="48.17846" lon="-2.76225">
        <ele>169</ele>
        <time>2021-10-15T13:59:41.000Z</time>
      </trkpt>
      <trkpt lat="48.17848" lon="-2.76227">
        <ele>169</ele>
        <time>2021-10-15T13:59:42.000Z</time>
      </trkpt>
      <trkpt lat="48.17851" lon="-2.7623">
        <ele>169</ele>
        <time>2021-10-15T13:59:43.000Z</time>
      </trkpt>
      <trkpt lat="48.17854" lon="-2.76232">
        <ele>169.19999694824</ele>
        <time>2021-10-15T13:59:44.000Z</time>
      </trkpt>
      <trkpt lat="48.17856" lon="-2.76235">
        <ele>169.19999694824</ele>
        <time>2021-10-15T13:59:45.000Z</time>
      </trkpt>
      <trkpt lat="48.17859" lon="-2.76237">
        <ele>169.19999694824</ele>
        <time>2021-10-15T13:59:46.000Z</time>
      </trkpt>
      <trkpt lat="48.17861" lon="-2.76239">
        <ele>169.39999389648</ele>
        <time>2021-10-15T13:59:47.000Z</time>
      </trkpt>
      <trkpt lat="48.17864" lon="-2.7624">
        <ele>169.39999389648</ele>
        <time>2021-10-15T13:59:48.000Z</time>
      </trkpt>
      <trkpt lat="48.17867" lon="-2.76241">
        <ele>169.39999389648</ele>
        <time>2021-10-15T13:59:49.000Z</time>
      </trkpt>
      <trkpt lat="48.17869" lon="-2.76241">
        <ele>169.39999389648</ele>
        <time>2021-10-15T13:59:50.000Z</time>
      </trkpt>
      <trkpt lat="48.17871" lon="-2.76241">
        <ele>169.39999389648</ele>
        <time>2021-10-15T13:59:51.000Z</time>
      </trkpt>
      <trkpt lat="48.17873" lon="-2.76241">
        <ele>169.39999389648</ele>
        <time>2021-10-15T13:59:52.000Z</time>
      </trkpt>
      <trkpt lat="48.17874" lon="-2.7624">
        <ele>169.39999389648</ele>
        <time>2021-10-15T13:59:53.000Z</time>
      </trkpt>
      <trkpt lat="48.17874" lon="-2.7624">
        <ele>169.39999389648</ele>
        <time>2021-10-15T13:59:54.000Z</time>
      </trkpt>
      <trkpt lat="48.17874" lon="-2.7624">
        <ele>169.39999389648</ele>
        <time>2021-10-15T13:59:55.000Z</time>
      </trkpt>
      <trkpt lat="48.17874" lon="-2.7624">
        <ele>169.39999389648</ele>
        <time>2021-10-15T13:59:56.000Z</time>
      </trkpt>
      <trkpt lat="48.17874" lon="-2.7624">
        <ele>169.39999389648</ele>
        <time>2021-10-15T13:59:57.000Z</time>
      </trkpt>
      <trkpt lat="48.17874" lon="-2.7624">
        <ele>169.39999389648</ele>
        <time>2021-10-15T13:59:58.000Z</time>
      </trkpt>
      <trkpt lat="48.17874" lon="-2.7624">
        <ele>169.39999389648</ele>
        <time>2021-10-15T13:59:59.000Z</time>
      </trkpt>
      <trkpt lat="48.17874" lon="-2.7624">
        <ele>169.39999389648</ele>
        <time>2021-10-15T14:00:00.000Z</time>
      </trkpt>
      <trkpt lat="48.17874" lon="-2.7624">
        <ele>169.39999389648</ele>
        <time>2021-10-15T14:00:01.000Z</time>
      </trkpt>
      <trkpt lat="48.17874" lon="-2.7624">
        <ele>169.39999389648</ele>
        <time>2021-10-15T14:00:02.000Z</time>
      </trkpt>
      <trkpt lat="48.17875" lon="-2.76241">
        <ele>169.39999389648</ele>
        <time>2021-10-15T14:00:03.000Z</time>
      </trkpt>
      <trkpt lat="48.17877" lon="-2.76241">
        <ele>169.39999389648</ele>
        <time>2021-10-15T14:00:04.000Z</time>
      </trkpt>
      <trkpt lat="48.17879" lon="-2.76242">
        <ele>169.39999389648</ele>
        <time>2021-10-15T14:00:05.000Z</time>
      </trkpt>
      <trkpt lat="48.17881" lon="-2.76244">
        <ele>169.60000610352</ele>
        <time>2021-10-15T14:00:06.000Z</time>
      </trkpt>
      <trkpt lat="48.17883" lon="-2.76247">
        <ele>169.60000610352</ele>
        <time>2021-10-15T14:00:07.000Z</time>
      </trkpt>
      <trkpt lat="48.17885" lon="-2.76251">
        <ele>169.80000305176</ele>
        <time>2021-10-15T14:00:08.000Z</time>
      </trkpt>
      <trkpt lat="48.17888" lon="-2.76255">
        <ele>170</ele>
        <time>2021-10-15T14:00:09.000Z</time>
      </trkpt>
      <trkpt lat="48.1789" lon="-2.76259">
        <ele>170</ele>
        <time>2021-10-15T14:00:10.000Z</time>
      </trkpt>
      <trkpt lat="48.17892" lon="-2.76264">
        <ele>170</ele>
        <time>2021-10-15T14:00:11.000Z</time>
      </trkpt>
      <trkpt lat="48.17894" lon="-2.76268">
        <ele>170</ele>
        <time>2021-10-15T14:00:12.000Z</time>
      </trkpt>
      <trkpt lat="48.17896" lon="-2.76272">
        <ele>170.19999694824</ele>
        <time>2021-10-15T14:00:13.000Z</time>
      </trkpt>
      <trkpt lat="48.17899" lon="-2.76277">
        <ele>170.39999389648</ele>
        <time>2021-10-15T14:00:14.000Z</time>
      </trkpt>
      <trkpt lat="48.17901" lon="-2.76281">
        <ele>170.60000610352</ele>
        <time>2021-10-15T14:00:15.000Z</time>
      </trkpt>
      <trkpt lat="48.17904" lon="-2.76285">
        <ele>170.80000305176</ele>
        <time>2021-10-15T14:00:16.000Z</time>
      </trkpt>
      <trkpt lat="48.17907" lon="-2.76289">
        <ele>171</ele>
        <time>2021-10-15T14:00:17.000Z</time>
      </trkpt>
      <trkpt lat="48.1791" lon="-2.76292">
        <ele>171</ele>
        <time>2021-10-15T14:00:18.000Z</time>
      </trkpt>
      <trkpt lat="48.17913" lon="-2.76295">
        <ele>171</ele>
        <time>2021-10-15T14:00:19.000Z</time>
      </trkpt>
      <trkpt lat="48.17916" lon="-2.76299">
        <ele>171</ele>
        <time>2021-10-15T14:00:20.000Z</time>
      </trkpt>
      <trkpt lat="48.1792" lon="-2.76303">
        <ele>171</ele>
        <time>2021-10-15T14:00:21.000Z</time>
      </trkpt>
      <trkpt lat="48.17923" lon="-2.76306">
        <ele>171</ele>
        <time>2021-10-15T14:00:22.000Z</time>
      </trkpt>
      <trkpt lat="48.17929" lon="-2.76313">
        <ele>171</ele>
        <time>2021-10-15T14:00:23.000Z</time>
      </trkpt>
      <trkpt lat="48.17929" lon="-2.76313">
        <ele>171</ele>
        <time>2021-10-15T14:00:24.000Z</time>
      </trkpt>
      <trkpt lat="48.17933" lon="-2.76317">
        <ele>170.80000305176</ele>
        <time>2021-10-15T14:00:25.000Z</time>
      </trkpt>
      <trkpt lat="48.17936" lon="-2.7632">
        <ele>171</ele>
        <time>2021-10-15T14:00:26.000Z</time>
      </trkpt>
      <trkpt lat="48.17939" lon="-2.76324">
        <ele>170.80000305176</ele>
        <time>2021-10-15T14:00:27.000Z</time>
      </trkpt>
      <trkpt lat="48.17942" lon="-2.76328">
        <ele>170.80000305176</ele>
        <time>2021-10-15T14:00:28.000Z</time>
      </trkpt>
      <trkpt lat="48.17945" lon="-2.76331">
        <ele>170.60000610352</ele>
        <time>2021-10-15T14:00:29.000Z</time>
      </trkpt>
      <trkpt lat="48.17948" lon="-2.76334">
        <ele>170.39999389648</ele>
        <time>2021-10-15T14:00:30.000Z</time>
      </trkpt>
      <trkpt lat="48.17953" lon="-2.7634">
        <ele>169.80000305176</ele>
        <time>2021-10-15T14:00:31.000Z</time>
      </trkpt>
      <trkpt lat="48.17953" lon="-2.7634">
        <ele>169.80000305176</ele>
        <time>2021-10-15T14:00:32.000Z</time>
      </trkpt>
      <trkpt lat="48.17956" lon="-2.76343">
        <ele>169.39999389648</ele>
        <time>2021-10-15T14:00:33.000Z</time>
      </trkpt>
      <trkpt lat="48.17959" lon="-2.76346">
        <ele>169</ele>
        <time>2021-10-15T14:00:34.000Z</time>
      </trkpt>
      <trkpt lat="48.17962" lon="-2.76349">
        <ele>168.80000305176</ele>
        <time>2021-10-15T14:00:35.000Z</time>
      </trkpt>
      <trkpt lat="48.17965" lon="-2.76353">
        <ele>168.60000610352</ele>
        <time>2021-10-15T14:00:36.000Z</time>
      </trkpt>
      <trkpt lat="48.17968" lon="-2.76356">
        <ele>168.19999694824</ele>
        <time>2021-10-15T14:00:37.000Z</time>
      </trkpt>
      <trkpt lat="48.17971" lon="-2.76359">
        <ele>168</ele>
        <time>2021-10-15T14:00:38.000Z</time>
      </trkpt>
      <trkpt lat="48.17974" lon="-2.76362">
        <ele>167.80000305176</ele>
        <time>2021-10-15T14:00:39.000Z</time>
      </trkpt>
      <trkpt lat="48.17977" lon="-2.76366">
        <ele>167.60000610352</ele>
        <time>2021-10-15T14:00:40.000Z</time>
      </trkpt>
      <trkpt lat="48.1798" lon="-2.7637">
        <ele>167.39999389648</ele>
        <time>2021-10-15T14:00:41.000Z</time>
      </trkpt>
      <trkpt lat="48.17984" lon="-2.76373">
        <ele>167</ele>
        <time>2021-10-15T14:00:42.000Z</time>
      </trkpt>
      <trkpt lat="48.17987" lon="-2.76376">
        <ele>166.80000305176</ele>
        <time>2021-10-15T14:00:43.000Z</time>
      </trkpt>
      <trkpt lat="48.17994" lon="-2.76383">
        <ele>166.60000610352</ele>
        <time>2021-10-15T14:00:44.000Z</time>
      </trkpt>
      <trkpt lat="48.17997" lon="-2.76386">
        <ele>166.60000610352</ele>
        <time>2021-10-15T14:00:45.000Z</time>
      </trkpt>
      <trkpt lat="48.17997" lon="-2.76386">
        <ele>166.60000610352</ele>
        <time>2021-10-15T14:00:46.000Z</time>
      </trkpt>
      <trkpt lat="48.18" lon="-2.7639">
        <ele>166.60000610352</ele>
        <time>2021-10-15T14:00:47.000Z</time>
      </trkpt>
      <trkpt lat="48.18004" lon="-2.76394">
        <ele>166.60000610352</ele>
        <time>2021-10-15T14:00:48.000Z</time>
      </trkpt>
      <trkpt lat="48.18007" lon="-2.76397">
        <ele>166.60000610352</ele>
        <time>2021-10-15T14:00:49.000Z</time>
      </trkpt>
      <trkpt lat="48.18011" lon="-2.76401">
        <ele>166.60000610352</ele>
        <time>2021-10-15T14:00:50.000Z</time>
      </trkpt>
      <trkpt lat="48.18015" lon="-2.76405">
        <ele>166.39999389648</ele>
        <time>2021-10-15T14:00:51.000Z</time>
      </trkpt>
      <trkpt lat="48.18019" lon="-2.7641">
        <ele>166</ele>
        <time>2021-10-15T14:00:52.000Z</time>
      </trkpt>
      <trkpt lat="48.18026" lon="-2.76418">
        <ele>165.39999389648</ele>
        <time>2021-10-15T14:00:53.000Z</time>
      </trkpt>
      <trkpt lat="48.18026" lon="-2.76418">
        <ele>165.39999389648</ele>
        <time>2021-10-15T14:00:54.000Z</time>
      </trkpt>
      <trkpt lat="48.1803" lon="-2.76423">
        <ele>165</ele>
        <time>2021-10-15T14:00:55.000Z</time>
      </trkpt>
      <trkpt lat="48.18034" lon="-2.76427">
        <ele>164.80000305176</ele>
        <time>2021-10-15T14:00:56.000Z</time>
      </trkpt>
      <trkpt lat="48.18038" lon="-2.76432">
        <ele>164.80000305176</ele>
        <time>2021-10-15T14:00:57.000Z</time>
      </trkpt>
      <trkpt lat="48.18042" lon="-2.76438">
        <ele>164.80000305176</ele>
        <time>2021-10-15T14:00:58.000Z</time>
      </trkpt>
      <trkpt lat="48.1805" lon="-2.76448">
        <ele>165.19999694824</ele>
        <time>2021-10-15T14:00:59.000Z</time>
      </trkpt>
      <trkpt lat="48.1805" lon="-2.76448">
        <ele>165.19999694824</ele>
        <time>2021-10-15T14:01:00.000Z</time>
      </trkpt>
      <trkpt lat="48.18054" lon="-2.76453">
        <ele>165.19999694824</ele>
        <time>2021-10-15T14:01:01.000Z</time>
      </trkpt>
      <trkpt lat="48.18061" lon="-2.76464">
        <ele>165</ele>
        <time>2021-10-15T14:01:02.000Z</time>
      </trkpt>
      <trkpt lat="48.18064" lon="-2.76469">
        <ele>165.19999694824</ele>
        <time>2021-10-15T14:01:03.000Z</time>
      </trkpt>
      <trkpt lat="48.18064" lon="-2.76469">
        <ele>165.19999694824</ele>
        <time>2021-10-15T14:01:04.000Z</time>
      </trkpt>
      <trkpt lat="48.18068" lon="-2.76475">
        <ele>165.60000610352</ele>
        <time>2021-10-15T14:01:05.000Z</time>
      </trkpt>
      <trkpt lat="48.18072" lon="-2.76481">
        <ele>165.80000305176</ele>
        <time>2021-10-15T14:01:06.000Z</time>
      </trkpt>
      <trkpt lat="48.18075" lon="-2.76488">
        <ele>165.80000305176</ele>
        <time>2021-10-15T14:01:07.000Z</time>
      </trkpt>
      <trkpt lat="48.18079" lon="-2.76495">
        <ele>165.80000305176</ele>
        <time>2021-10-15T14:01:08.000Z</time>
      </trkpt>
      <trkpt lat="48.18082" lon="-2.76501">
        <ele>165.80000305176</ele>
        <time>2021-10-15T14:01:09.000Z</time>
      </trkpt>
      <trkpt lat="48.18086" lon="-2.76508">
        <ele>165.80000305176</ele>
        <time>2021-10-15T14:01:10.000Z</time>
      </trkpt>
      <trkpt lat="48.18093" lon="-2.76522">
        <ele>165.60000610352</ele>
        <time>2021-10-15T14:01:11.000Z</time>
      </trkpt>
      <trkpt lat="48.18093" lon="-2.76522">
        <ele>165.60000610352</ele>
        <time>2021-10-15T14:01:12.000Z</time>
      </trkpt>
      <trkpt lat="48.18096" lon="-2.7653">
        <ele>165.19999694824</ele>
        <time>2021-10-15T14:01:13.000Z</time>
      </trkpt>
      <trkpt lat="48.18099" lon="-2.76538">
        <ele>164.80000305176</ele>
        <time>2021-10-15T14:01:14.000Z</time>
      </trkpt>
      <trkpt lat="48.18102" lon="-2.76546">
        <ele>164.19999694824</ele>
        <time>2021-10-15T14:01:15.000Z</time>
      </trkpt>
      <trkpt lat="48.18105" lon="-2.76555">
        <ele>163.39999389648</ele>
        <time>2021-10-15T14:01:16.000Z</time>
      </trkpt>
      <trkpt lat="48.18108" lon="-2.76563">
        <ele>163</ele>
        <time>2021-10-15T14:01:17.000Z</time>
      </trkpt>
      <trkpt lat="48.18111" lon="-2.76572">
        <ele>162.60000610352</ele>
        <time>2021-10-15T14:01:18.000Z</time>
      </trkpt>
      <trkpt lat="48.18114" lon="-2.7658">
        <ele>162.39999389648</ele>
        <time>2021-10-15T14:01:19.000Z</time>
      </trkpt>
      <trkpt lat="48.18117" lon="-2.76588">
        <ele>162.60000610352</ele>
        <time>2021-10-15T14:01:20.000Z</time>
      </trkpt>
      <trkpt lat="48.1812" lon="-2.76596">
        <ele>162.60000610352</ele>
        <time>2021-10-15T14:01:21.000Z</time>
      </trkpt>
      <trkpt lat="48.18122" lon="-2.76603">
        <ele>162.80000305176</ele>
        <time>2021-10-15T14:01:22.000Z</time>
      </trkpt>
      <trkpt lat="48.18125" lon="-2.76611">
        <ele>162.80000305176</ele>
        <time>2021-10-15T14:01:23.000Z</time>
      </trkpt>
      <trkpt lat="48.18127" lon="-2.76619">
        <ele>162.80000305176</ele>
        <time>2021-10-15T14:01:24.000Z</time>
      </trkpt>
      <trkpt lat="48.18129" lon="-2.76627">
        <ele>163</ele>
        <time>2021-10-15T14:01:25.000Z</time>
      </trkpt>
      <trkpt lat="48.18132" lon="-2.76635">
        <ele>163.19999694824</ele>
        <time>2021-10-15T14:01:26.000Z</time>
      </trkpt>
      <trkpt lat="48.18134" lon="-2.76643">
        <ele>163.19999694824</ele>
        <time>2021-10-15T14:01:27.000Z</time>
      </trkpt>
      <trkpt lat="48.18136" lon="-2.7665">
        <ele>163</ele>
        <time>2021-10-15T14:01:28.000Z</time>
      </trkpt>
      <trkpt lat="48.18138" lon="-2.76657">
        <ele>162.80000305176</ele>
        <time>2021-10-15T14:01:29.000Z</time>
      </trkpt>
      <trkpt lat="48.1814" lon="-2.76664">
        <ele>162.80000305176</ele>
        <time>2021-10-15T14:01:30.000Z</time>
      </trkpt>
      <trkpt lat="48.18142" lon="-2.76671">
        <ele>162.80000305176</ele>
        <time>2021-10-15T14:01:31.000Z</time>
      </trkpt>
      <trkpt lat="48.18144" lon="-2.76678">
        <ele>163</ele>
        <time>2021-10-15T14:01:32.000Z</time>
      </trkpt>
      <trkpt lat="48.18146" lon="-2.76684">
        <ele>163.19999694824</ele>
        <time>2021-10-15T14:01:33.000Z</time>
      </trkpt>
      <trkpt lat="48.18148" lon="-2.7669">
        <ele>163.19999694824</ele>
        <time>2021-10-15T14:01:34.000Z</time>
      </trkpt>
      <trkpt lat="48.1815" lon="-2.76697">
        <ele>163.39999389648</ele>
        <time>2021-10-15T14:01:35.000Z</time>
      </trkpt>
      <trkpt lat="48.18151" lon="-2.76704">
        <ele>163.60000610352</ele>
        <time>2021-10-15T14:01:36.000Z</time>
      </trkpt>
      <trkpt lat="48.18154" lon="-2.7671">
        <ele>163.60000610352</ele>
        <time>2021-10-15T14:01:37.000Z</time>
      </trkpt>
      <trkpt lat="48.18155" lon="-2.76717">
        <ele>163.80000305176</ele>
        <time>2021-10-15T14:01:38.000Z</time>
      </trkpt>
      <trkpt lat="48.18158" lon="-2.76723">
        <ele>164</ele>
        <time>2021-10-15T14:01:39.000Z</time>
      </trkpt>
      <trkpt lat="48.1816" lon="-2.7673">
        <ele>164</ele>
        <time>2021-10-15T14:01:40.000Z</time>
      </trkpt>
      <trkpt lat="48.18162" lon="-2.76737">
        <ele>164.19999694824</ele>
        <time>2021-10-15T14:01:41.000Z</time>
      </trkpt>
      <trkpt lat="48.18164" lon="-2.76744">
        <ele>164.19999694824</ele>
        <time>2021-10-15T14:01:42.000Z</time>
      </trkpt>
      <trkpt lat="48.18166" lon="-2.76751">
        <ele>164.19999694824</ele>
        <time>2021-10-15T14:01:43.000Z</time>
      </trkpt>
      <trkpt lat="48.18168" lon="-2.76757">
        <ele>164.39999389648</ele>
        <time>2021-10-15T14:01:44.000Z</time>
      </trkpt>
      <trkpt lat="48.18171" lon="-2.76764">
        <ele>164.19999694824</ele>
        <time>2021-10-15T14:01:45.000Z</time>
      </trkpt>
      <trkpt lat="48.18173" lon="-2.76771">
        <ele>164</ele>
        <time>2021-10-15T14:01:46.000Z</time>
      </trkpt>
      <trkpt lat="48.18175" lon="-2.76777">
        <ele>163.80000305176</ele>
        <time>2021-10-15T14:01:47.000Z</time>
      </trkpt>
      <trkpt lat="48.18178" lon="-2.7679">
        <ele>163.80000305176</ele>
        <time>2021-10-15T14:01:48.000Z</time>
      </trkpt>
      <trkpt lat="48.18178" lon="-2.7679">
        <ele>163.80000305176</ele>
        <time>2021-10-15T14:01:49.000Z</time>
      </trkpt>
      <trkpt lat="48.1818" lon="-2.76796">
        <ele>163.80000305176</ele>
        <time>2021-10-15T14:01:50.000Z</time>
      </trkpt>
      <trkpt lat="48.18182" lon="-2.76803">
        <ele>163.80000305176</ele>
        <time>2021-10-15T14:01:51.000Z</time>
      </trkpt>
      <trkpt lat="48.18185" lon="-2.7681">
        <ele>164</ele>
        <time>2021-10-15T14:01:52.000Z</time>
      </trkpt>
      <trkpt lat="48.18187" lon="-2.76816">
        <ele>163.80000305176</ele>
        <time>2021-10-15T14:01:53.000Z</time>
      </trkpt>
      <trkpt lat="48.18189" lon="-2.76823">
        <ele>163.60000610352</ele>
        <time>2021-10-15T14:01:54.000Z</time>
      </trkpt>
      <trkpt lat="48.18191" lon="-2.7683">
        <ele>163.39999389648</ele>
        <time>2021-10-15T14:01:55.000Z</time>
      </trkpt>
      <trkpt lat="48.18195" lon="-2.76843">
        <ele>163</ele>
        <time>2021-10-15T14:01:56.000Z</time>
      </trkpt>
      <trkpt lat="48.18195" lon="-2.76843">
        <ele>163</ele>
        <time>2021-10-15T14:01:57.000Z</time>
      </trkpt>
      <trkpt lat="48.18198" lon="-2.7685">
        <ele>162.60000610352</ele>
        <time>2021-10-15T14:01:58.000Z</time>
      </trkpt>
      <trkpt lat="48.18202" lon="-2.76863">
        <ele>162.19999694824</ele>
        <time>2021-10-15T14:01:59.000Z</time>
      </trkpt>
      <trkpt lat="48.18202" lon="-2.76863">
        <ele>162.19999694824</ele>
        <time>2021-10-15T14:02:00.000Z</time>
      </trkpt>
      <trkpt lat="48.18204" lon="-2.7687">
        <ele>162</ele>
        <time>2021-10-15T14:02:01.000Z</time>
      </trkpt>
      <trkpt lat="48.18208" lon="-2.76883">
        <ele>161.80000305176</ele>
        <time>2021-10-15T14:02:02.000Z</time>
      </trkpt>
      <trkpt lat="48.18208" lon="-2.76883">
        <ele>161.80000305176</ele>
        <time>2021-10-15T14:02:03.000Z</time>
      </trkpt>
      <trkpt lat="48.18209" lon="-2.76889">
        <ele>161.80000305176</ele>
        <time>2021-10-15T14:02:04.000Z</time>
      </trkpt>
      <trkpt lat="48.18211" lon="-2.76895">
        <ele>162</ele>
        <time>2021-10-15T14:02:05.000Z</time>
      </trkpt>
      <trkpt lat="48.18213" lon="-2.76901">
        <ele>161.80000305176</ele>
        <time>2021-10-15T14:02:06.000Z</time>
      </trkpt>
      <trkpt lat="48.18214" lon="-2.76907">
        <ele>161.60000610352</ele>
        <time>2021-10-15T14:02:07.000Z</time>
      </trkpt>
      <trkpt lat="48.18216" lon="-2.76913">
        <ele>161.60000610352</ele>
        <time>2021-10-15T14:02:08.000Z</time>
      </trkpt>
      <trkpt lat="48.1822" lon="-2.76924">
        <ele>161.19999694824</ele>
        <time>2021-10-15T14:02:09.000Z</time>
      </trkpt>
      <trkpt lat="48.1822" lon="-2.76924">
        <ele>161.19999694824</ele>
        <time>2021-10-15T14:02:10.000Z</time>
      </trkpt>
      <trkpt lat="48.18222" lon="-2.7693">
        <ele>161.19999694824</ele>
        <time>2021-10-15T14:02:11.000Z</time>
      </trkpt>
      <trkpt lat="48.18223" lon="-2.76936">
        <ele>161.39999389648</ele>
        <time>2021-10-15T14:02:12.000Z</time>
      </trkpt>
      <trkpt lat="48.18225" lon="-2.76943">
        <ele>161.39999389648</ele>
        <time>2021-10-15T14:02:13.000Z</time>
      </trkpt>
      <trkpt lat="48.18226" lon="-2.7695">
        <ele>161.39999389648</ele>
        <time>2021-10-15T14:02:14.000Z</time>
      </trkpt>
      <trkpt lat="48.18228" lon="-2.76957">
        <ele>161.60000610352</ele>
        <time>2021-10-15T14:02:15.000Z</time>
      </trkpt>
      <trkpt lat="48.1823" lon="-2.76964">
        <ele>161.60000610352</ele>
        <time>2021-10-15T14:02:16.000Z</time>
      </trkpt>
      <trkpt lat="48.18232" lon="-2.76971">
        <ele>161.60000610352</ele>
        <time>2021-10-15T14:02:17.000Z</time>
      </trkpt>
      <trkpt lat="48.18233" lon="-2.76978">
        <ele>161.80000305176</ele>
        <time>2021-10-15T14:02:18.000Z</time>
      </trkpt>
      <trkpt lat="48.18235" lon="-2.76985">
        <ele>161.80000305176</ele>
        <time>2021-10-15T14:02:19.000Z</time>
      </trkpt>
      <trkpt lat="48.18236" lon="-2.76992">
        <ele>161.80000305176</ele>
        <time>2021-10-15T14:02:20.000Z</time>
      </trkpt>
      <trkpt lat="48.18238" lon="-2.76999">
        <ele>161.80000305176</ele>
        <time>2021-10-15T14:02:21.000Z</time>
      </trkpt>
      <trkpt lat="48.18239" lon="-2.77005">
        <ele>162</ele>
        <time>2021-10-15T14:02:22.000Z</time>
      </trkpt>
      <trkpt lat="48.1824" lon="-2.77012">
        <ele>162.19999694824</ele>
        <time>2021-10-15T14:02:23.000Z</time>
      </trkpt>
      <trkpt lat="48.18242" lon="-2.77018">
        <ele>162.39999389648</ele>
        <time>2021-10-15T14:02:24.000Z</time>
      </trkpt>
      <trkpt lat="48.18243" lon="-2.77025">
        <ele>162.80000305176</ele>
        <time>2021-10-15T14:02:25.000Z</time>
      </trkpt>
      <trkpt lat="48.18244" lon="-2.77032">
        <ele>163.19999694824</ele>
        <time>2021-10-15T14:02:26.000Z</time>
      </trkpt>
      <trkpt lat="48.18246" lon="-2.77038">
        <ele>163.60000610352</ele>
        <time>2021-10-15T14:02:27.000Z</time>
      </trkpt>
      <trkpt lat="48.18247" lon="-2.77045">
        <ele>164</ele>
        <time>2021-10-15T14:02:28.000Z</time>
      </trkpt>
      <trkpt lat="48.18248" lon="-2.77051">
        <ele>164.19999694824</ele>
        <time>2021-10-15T14:02:29.000Z</time>
      </trkpt>
      <trkpt lat="48.18248" lon="-2.77058">
        <ele>164.60000610352</ele>
        <time>2021-10-15T14:02:30.000Z</time>
      </trkpt>
      <trkpt lat="48.1825" lon="-2.77072">
        <ele>165.60000610352</ele>
        <time>2021-10-15T14:02:31.000Z</time>
      </trkpt>
      <trkpt lat="48.1825" lon="-2.77072">
        <ele>165.60000610352</ele>
        <time>2021-10-15T14:02:32.000Z</time>
      </trkpt>
      <trkpt lat="48.18251" lon="-2.77078">
        <ele>166</ele>
        <time>2021-10-15T14:02:33.000Z</time>
      </trkpt>
      <trkpt lat="48.18252" lon="-2.77085">
        <ele>166.19999694824</ele>
        <time>2021-10-15T14:02:34.000Z</time>
      </trkpt>
      <trkpt lat="48.18253" lon="-2.77091">
        <ele>166.19999694824</ele>
        <time>2021-10-15T14:02:35.000Z</time>
      </trkpt>
      <trkpt lat="48.18254" lon="-2.77098">
        <ele>166.39999389648</ele>
        <time>2021-10-15T14:02:36.000Z</time>
      </trkpt>
      <trkpt lat="48.18255" lon="-2.77105">
        <ele>166.39999389648</ele>
        <time>2021-10-15T14:02:37.000Z</time>
      </trkpt>
      <trkpt lat="48.18257" lon="-2.77118">
        <ele>166.19999694824</ele>
        <time>2021-10-15T14:02:38.000Z</time>
      </trkpt>
      <trkpt lat="48.18257" lon="-2.77118">
        <ele>166.19999694824</ele>
        <time>2021-10-15T14:02:39.000Z</time>
      </trkpt>
      <trkpt lat="48.18257" lon="-2.77125">
        <ele>166</ele>
        <time>2021-10-15T14:02:40.000Z</time>
      </trkpt>
      <trkpt lat="48.18258" lon="-2.77131">
        <ele>165.80000305176</ele>
        <time>2021-10-15T14:02:41.000Z</time>
      </trkpt>
      <trkpt lat="48.18259" lon="-2.77138">
        <ele>165.60000610352</ele>
        <time>2021-10-15T14:02:42.000Z</time>
      </trkpt>
      <trkpt lat="48.1826" lon="-2.77144">
        <ele>165.39999389648</ele>
        <time>2021-10-15T14:02:43.000Z</time>
      </trkpt>
      <trkpt lat="48.18261" lon="-2.7715">
        <ele>165.39999389648</ele>
        <time>2021-10-15T14:02:44.000Z</time>
      </trkpt>
      <trkpt lat="48.18262" lon="-2.77156">
        <ele>165.39999389648</ele>
        <time>2021-10-15T14:02:45.000Z</time>
      </trkpt>
      <trkpt lat="48.18263" lon="-2.77162">
        <ele>165.19999694824</ele>
        <time>2021-10-15T14:02:46.000Z</time>
      </trkpt>
      <trkpt lat="48.18264" lon="-2.77167">
        <ele>165</ele>
        <time>2021-10-15T14:02:47.000Z</time>
      </trkpt>
      <trkpt lat="48.18265" lon="-2.77173">
        <ele>165</ele>
        <time>2021-10-15T14:02:48.000Z</time>
      </trkpt>
      <trkpt lat="48.18266" lon="-2.77178">
        <ele>164.80000305176</ele>
        <time>2021-10-15T14:02:49.000Z</time>
      </trkpt>
      <trkpt lat="48.18267" lon="-2.77184">
        <ele>164.80000305176</ele>
        <time>2021-10-15T14:02:50.000Z</time>
      </trkpt>
      <trkpt lat="48.18268" lon="-2.77189">
        <ele>164.80000305176</ele>
        <time>2021-10-15T14:02:51.000Z</time>
      </trkpt>
      <trkpt lat="48.18268" lon="-2.77194">
        <ele>165</ele>
        <time>2021-10-15T14:02:52.000Z</time>
      </trkpt>
      <trkpt lat="48.1827" lon="-2.77205">
        <ele>165</ele>
        <time>2021-10-15T14:02:53.000Z</time>
      </trkpt>
      <trkpt lat="48.1827" lon="-2.77205">
        <ele>165</ele>
        <time>2021-10-15T14:02:54.000Z</time>
      </trkpt>
      <trkpt lat="48.1827" lon="-2.77211">
        <ele>165</ele>
        <time>2021-10-15T14:02:55.000Z</time>
      </trkpt>
      <trkpt lat="48.18272" lon="-2.77222">
        <ele>165.19999694824</ele>
        <time>2021-10-15T14:02:56.000Z</time>
      </trkpt>
      <trkpt lat="48.18272" lon="-2.77222">
        <ele>165.19999694824</ele>
        <time>2021-10-15T14:02:57.000Z</time>
      </trkpt>
      <trkpt lat="48.18273" lon="-2.77228">
        <ele>165.19999694824</ele>
        <time>2021-10-15T14:02:58.000Z</time>
      </trkpt>
      <trkpt lat="48.18274" lon="-2.77234">
        <ele>165.39999389648</ele>
        <time>2021-10-15T14:02:59.000Z</time>
      </trkpt>
      <trkpt lat="48.18274" lon="-2.77241">
        <ele>165.80000305176</ele>
        <time>2021-10-15T14:03:00.000Z</time>
      </trkpt>
      <trkpt lat="48.18275" lon="-2.77247">
        <ele>166</ele>
        <time>2021-10-15T14:03:01.000Z</time>
      </trkpt>
      <trkpt lat="48.18276" lon="-2.77253">
        <ele>166.19999694824</ele>
        <time>2021-10-15T14:03:02.000Z</time>
      </trkpt>
      <trkpt lat="48.18278" lon="-2.77264">
        <ele>166.39999389648</ele>
        <time>2021-10-15T14:03:03.000Z</time>
      </trkpt>
      <trkpt lat="48.18278" lon="-2.77264">
        <ele>166.39999389648</ele>
        <time>2021-10-15T14:03:04.000Z</time>
      </trkpt>
      <trkpt lat="48.1828" lon="-2.7727">
        <ele>166.39999389648</ele>
        <time>2021-10-15T14:03:05.000Z</time>
      </trkpt>
      <trkpt lat="48.18281" lon="-2.77275">
        <ele>166.39999389648</ele>
        <time>2021-10-15T14:03:06.000Z</time>
      </trkpt>
      <trkpt lat="48.18283" lon="-2.7728">
        <ele>166.39999389648</ele>
        <time>2021-10-15T14:03:07.000Z</time>
      </trkpt>
      <trkpt lat="48.18284" lon="-2.77286">
        <ele>166.60000610352</ele>
        <time>2021-10-15T14:03:08.000Z</time>
      </trkpt>
      <trkpt lat="48.18285" lon="-2.77292">
        <ele>166.60000610352</ele>
        <time>2021-10-15T14:03:09.000Z</time>
      </trkpt>
      <trkpt lat="48.18287" lon="-2.77296">
        <ele>166.60000610352</ele>
        <time>2021-10-15T14:03:10.000Z</time>
      </trkpt>
      <trkpt lat="48.18288" lon="-2.77301">
        <ele>166.39999389648</ele>
        <time>2021-10-15T14:03:11.000Z</time>
      </trkpt>
      <trkpt lat="48.18289" lon="-2.77305">
        <ele>166.19999694824</ele>
        <time>2021-10-15T14:03:12.000Z</time>
      </trkpt>
      <trkpt lat="48.1829" lon="-2.77313">
        <ele>166</ele>
        <time>2021-10-15T14:03:13.000Z</time>
      </trkpt>
      <trkpt lat="48.1829" lon="-2.77313">
        <ele>166</ele>
        <time>2021-10-15T14:03:14.000Z</time>
      </trkpt>
      <trkpt lat="48.1829" lon="-2.77316">
        <ele>166</ele>
        <time>2021-10-15T14:03:15.000Z</time>
      </trkpt>
      <trkpt lat="48.18291" lon="-2.77319">
        <ele>166</ele>
        <time>2021-10-15T14:03:16.000Z</time>
      </trkpt>
      <trkpt lat="48.1829" lon="-2.77322">
        <ele>166</ele>
        <time>2021-10-15T14:03:17.000Z</time>
      </trkpt>
      <trkpt lat="48.1829" lon="-2.77324">
        <ele>165.80000305176</ele>
        <time>2021-10-15T14:03:18.000Z</time>
      </trkpt>
      <trkpt lat="48.18289" lon="-2.77326">
        <ele>165.80000305176</ele>
        <time>2021-10-15T14:03:19.000Z</time>
      </trkpt>
      <trkpt lat="48.18287" lon="-2.77327">
        <ele>165.80000305176</ele>
        <time>2021-10-15T14:03:20.000Z</time>
      </trkpt>
      <trkpt lat="48.18285" lon="-2.77328">
        <ele>165.80000305176</ele>
        <time>2021-10-15T14:03:21.000Z</time>
      </trkpt>
      <trkpt lat="48.18283" lon="-2.77329">
        <ele>166</ele>
        <time>2021-10-15T14:03:22.000Z</time>
      </trkpt>
      <trkpt lat="48.1828" lon="-2.7733">
        <ele>166</ele>
        <time>2021-10-15T14:03:23.000Z</time>
      </trkpt>
      <trkpt lat="48.18277" lon="-2.77331">
        <ele>166</ele>
        <time>2021-10-15T14:03:24.000Z</time>
      </trkpt>
      <trkpt lat="48.18274" lon="-2.77332">
        <ele>166</ele>
        <time>2021-10-15T14:03:25.000Z</time>
      </trkpt>
      <trkpt lat="48.18271" lon="-2.77333">
        <ele>166</ele>
        <time>2021-10-15T14:03:26.000Z</time>
      </trkpt>
      <trkpt lat="48.18269" lon="-2.77333">
        <ele>166</ele>
        <time>2021-10-15T14:03:27.000Z</time>
      </trkpt>
      <trkpt lat="48.18266" lon="-2.77333">
        <ele>165.80000305176</ele>
        <time>2021-10-15T14:03:28.000Z</time>
      </trkpt>
      <trkpt lat="48.18263" lon="-2.77333">
        <ele>165.80000305176</ele>
        <time>2021-10-15T14:03:29.000Z</time>
      </trkpt>
      <trkpt lat="48.1826" lon="-2.77332">
        <ele>165.60000610352</ele>
        <time>2021-10-15T14:03:30.000Z</time>
      </trkpt>
      <trkpt lat="48.18258" lon="-2.77331">
        <ele>165.60000610352</ele>
        <time>2021-10-15T14:03:31.000Z</time>
      </trkpt>
      <trkpt lat="48.18255" lon="-2.7733">
        <ele>165.39999389648</ele>
        <time>2021-10-15T14:03:32.000Z</time>
      </trkpt>
      <trkpt lat="48.18253" lon="-2.77329">
        <ele>165.39999389648</ele>
        <time>2021-10-15T14:03:33.000Z</time>
      </trkpt>
      <trkpt lat="48.18249" lon="-2.77329">
        <ele>165.19999694824</ele>
        <time>2021-10-15T14:03:34.000Z</time>
      </trkpt>
      <trkpt lat="48.18249" lon="-2.77329">
        <ele>165.19999694824</ele>
        <time>2021-10-15T14:03:35.000Z</time>
      </trkpt>
      <trkpt lat="48.18248" lon="-2.77329">
        <ele>165</ele>
        <time>2021-10-15T14:03:36.000Z</time>
      </trkpt>
      <trkpt lat="48.18246" lon="-2.7733">
        <ele>165</ele>
        <time>2021-10-15T14:03:37.000Z</time>
      </trkpt>
      <trkpt lat="48.18244" lon="-2.77331">
        <ele>164.80000305176</ele>
        <time>2021-10-15T14:03:38.000Z</time>
      </trkpt>
      <trkpt lat="48.18242" lon="-2.77333">
        <ele>164.80000305176</ele>
        <time>2021-10-15T14:03:39.000Z</time>
      </trkpt>
      <trkpt lat="48.1824" lon="-2.77335">
        <ele>164.60000610352</ele>
        <time>2021-10-15T14:03:40.000Z</time>
      </trkpt>
      <trkpt lat="48.1824" lon="-2.77335">
        <ele>164.60000610352</ele>
        <time>2021-10-15T14:03:41.000Z</time>
      </trkpt>
      <trkpt lat="48.1824" lon="-2.77335">
        <ele>164.60000610352</ele>
        <time>2021-10-15T14:03:42.000Z</time>
      </trkpt>
      <trkpt lat="48.18239" lon="-2.77335">
        <ele>164.60000610352</ele>
        <time>2021-10-15T14:03:43.000Z</time>
      </trkpt>
      <trkpt lat="48.18239" lon="-2.77335">
        <ele>164.60000610352</ele>
        <time>2021-10-15T14:03:44.000Z</time>
      </trkpt>
      <trkpt lat="48.1824" lon="-2.77335">
        <ele>164.60000610352</ele>
        <time>2021-10-15T14:03:45.000Z</time>
      </trkpt>
      <trkpt lat="48.18239" lon="-2.77335">
        <ele>164.60000610352</ele>
        <time>2021-10-15T14:03:46.000Z</time>
      </trkpt>
      <trkpt lat="48.18239" lon="-2.77335">
        <ele>164.60000610352</ele>
        <time>2021-10-15T14:03:47.000Z</time>
      </trkpt>
      <trkpt lat="48.18239" lon="-2.77335">
        <ele>164.60000610352</ele>
        <time>2021-10-15T14:03:48.000Z</time>
      </trkpt>
      <trkpt lat="48.18239" lon="-2.77335">
        <ele>164.60000610352</ele>
        <time>2021-10-15T14:03:49.000Z</time>
      </trkpt>
      <trkpt lat="48.18239" lon="-2.77335">
        <ele>164.60000610352</ele>
        <time>2021-10-15T14:03:50.000Z</time>
      </trkpt>
      <trkpt lat="48.18239" lon="-2.77335">
        <ele>164.60000610352</ele>
        <time>2021-10-15T14:03:51.000Z</time>
      </trkpt>
    </trkseg>
  </trk>
</gpx>